<?xml version='1.0' encoding='UTF-8'?><gpx version="1.1" creator="JPX - https://github.com/jenetics/jpx" xmlns="http://www.topografix.com/GPX/1/1"><trk><trkseg><trkpt lat="44.7279192" lon="7.8218178"><ele>330.00000000000006</ele><time>2026-04-10T08:55:58.973Z</time></trkpt><trkpt lat="44.7278486" lon="7.8217766"><ele>330.0</ele><time>2026-04-10T08:56:09.974Z</time></trkpt><trkpt lat="44.7279124" lon="7.8217835"><ele>330.0</ele><time>2026-04-10T08:56:37.974Z</time></trkpt><trkpt lat="44.7279816" lon="7.8218432"><ele>330.0</ele><time>2026-04-10T08:56:49.973Z</time></trkpt><trkpt lat="44.7279204" lon="7.8218436"><ele>330.0</ele><time>2026-04-10T09:02:16.97Z</time></trkpt><trkpt lat="44.7278603" lon="7.8219293"><ele>330.00000000000006</ele><time>2026-04-10T09:02:21.97Z</time></trkpt><trkpt lat="44.7278009" lon="7.8219681"><ele>330.0</ele><time>2026-04-10T09:02:24.97Z</time></trkpt><trkpt lat="44.7277381" lon="7.8219587"><ele>328.5714285714286</ele><time>2026-04-10T09:02:28.97Z</time></trkpt><trkpt lat="44.7277013" lon="7.8218792"><ele>327.14285714285717</ele><time>2026-04-10T09:02:32.97Z</time></trkpt><trkpt lat="44.7276635" lon="7.8218044"><ele>325.7142857142857</ele><time>2026-04-10T09:02:37.969Z</time></trkpt><trkpt lat="44.7276559" lon="7.8217112"><ele>324.28571428571433</ele><time>2026-04-10T09:02:41.97Z</time></trkpt><trkpt lat="44.7276931" lon="7.8216236"><ele>322.8571428571429</ele><time>2026-04-10T09:02:45.97Z</time></trkpt><trkpt lat="44.7277518" lon="7.8215463"><ele>321.42857142857144</ele><time>2026-04-10T09:02:50.97Z</time></trkpt><trkpt lat="44.7277966" lon="7.8214816"><ele>320.0</ele><time>2026-04-10T09:02:55.97Z</time></trkpt><trkpt lat="44.7278548" lon="7.8214355"><ele>319.33333333333337</ele><time>2026-04-10T09:02:59.97Z</time></trkpt><trkpt lat="44.7279349" lon="7.821426"><ele>318.6666666666667</ele><time>2026-04-10T09:03:03.97Z</time></trkpt><trkpt lat="44.7280101" lon="7.8214204"><ele>318.0</ele><time>2026-04-10T09:03:06.97Z</time></trkpt><trkpt lat="44.7280782" lon="7.8214009"><ele>317.3333333333333</ele><time>2026-04-10T09:03:09.969Z</time></trkpt><trkpt lat="44.7281577" lon="7.8213979"><ele>316.66666666666663</ele><time>2026-04-10T09:03:12.97Z</time></trkpt><trkpt lat="44.7282499" lon="7.8213691"><ele>316.0</ele><time>2026-04-10T09:03:15.97Z</time></trkpt><trkpt lat="44.7283185" lon="7.8213505"><ele>316.0</ele><time>2026-04-10T09:03:17.969Z</time></trkpt><trkpt lat="44.7284006" lon="7.8213445"><ele>316.0</ele><time>2026-04-10T09:03:20.97Z</time></trkpt><trkpt lat="44.7284729" lon="7.821312"><ele>316.0</ele><time>2026-04-10T09:03:23.97Z</time></trkpt><trkpt lat="44.7285454" lon="7.8212601"><ele>316.0</ele><time>2026-04-10T09:03:26.97Z</time></trkpt><trkpt lat="44.7285961" lon="7.8212066"><ele>316.0</ele><time>2026-04-10T09:03:28.969Z</time></trkpt><trkpt lat="44.7286455" lon="7.821149"><ele>316.0</ele><time>2026-04-10T09:03:30.97Z</time></trkpt><trkpt lat="44.7287151" lon="7.8210613"><ele>316.28571428571433</ele><time>2026-04-10T09:03:33.97Z</time></trkpt><trkpt lat="44.7287706" lon="7.8209796"><ele>316.57142857142856</ele><time>2026-04-10T09:03:36.969Z</time></trkpt><trkpt lat="44.7288178" lon="7.8209056"><ele>316.8571428571429</ele><time>2026-04-10T09:03:39.97Z</time></trkpt><trkpt lat="44.728853" lon="7.8208227"><ele>317.14285714285717</ele><time>2026-04-10T09:03:42.97Z</time></trkpt><trkpt lat="44.7288793" lon="7.8207179"><ele>317.42857142857144</ele><time>2026-04-10T09:03:46.97Z</time></trkpt><trkpt lat="44.728923" lon="7.8206327"><ele>317.7142857142857</ele><time>2026-04-10T09:03:50.969Z</time></trkpt><trkpt lat="44.7289633" lon="7.8205418"><ele>318.0</ele><time>2026-04-10T09:03:55.97Z</time></trkpt><trkpt lat="44.7290145" lon="7.8204516"><ele>318.0</ele><time>2026-04-10T09:03:59.97Z</time></trkpt><trkpt lat="44.7290571" lon="7.8203824"><ele>318.0</ele><time>2026-04-10T09:04:03.97Z</time></trkpt><trkpt lat="44.7290835" lon="7.8202695"><ele>318.0</ele><time>2026-04-10T09:04:07.97Z</time></trkpt><trkpt lat="44.7290307" lon="7.8201697"><ele>318.0</ele><time>2026-04-10T09:04:10.97Z</time></trkpt><trkpt lat="44.728944" lon="7.8201385"><ele>318.0</ele><time>2026-04-10T09:04:13.97Z</time></trkpt><trkpt lat="44.7288842" lon="7.8201052"><ele>318.0</ele><time>2026-04-10T09:04:16.969Z</time></trkpt><trkpt lat="44.7288143" lon="7.8200682"><ele>315.0</ele><time>2026-04-10T09:04:19.97Z</time></trkpt><trkpt lat="44.7287366" lon="7.8200514"><ele>312.0</ele><time>2026-04-10T09:04:23.97Z</time></trkpt><trkpt lat="44.7286507" lon="7.8200266"><ele>309.0</ele><time>2026-04-10T09:04:26.969Z</time></trkpt><trkpt lat="44.7285758" lon="7.8200153"><ele>306.0</ele><time>2026-04-10T09:04:28.969Z</time></trkpt><trkpt lat="44.7285068" lon="7.8200095"><ele>303.0</ele><time>2026-04-10T09:04:30.97Z</time></trkpt><trkpt lat="44.7284361" lon="7.8199868"><ele>300.0</ele><time>2026-04-10T09:04:33.97Z</time></trkpt><trkpt lat="44.7283642" lon="7.8199689"><ele>298.99999999999994</ele><time>2026-04-10T09:04:36.97Z</time></trkpt><trkpt lat="44.728298" lon="7.8199589"><ele>298.0</ele><time>2026-04-10T09:04:39.97Z</time></trkpt><trkpt lat="44.7282317" lon="7.8199382"><ele>297.0</ele><time>2026-04-10T09:04:42.97Z</time></trkpt><trkpt lat="44.7281599" lon="7.8199018"><ele>296.0</ele><time>2026-04-10T09:04:47.969Z</time></trkpt><trkpt lat="44.7280898" lon="7.8198825"><ele>295.0</ele><time>2026-04-10T09:04:51.97Z</time></trkpt><trkpt lat="44.7280129" lon="7.8198608"><ele>293.99999999999994</ele><time>2026-04-10T09:04:54.97Z</time></trkpt><trkpt lat="44.7279297" lon="7.8198419"><ele>293.0</ele><time>2026-04-10T09:04:57.97Z</time></trkpt><trkpt lat="44.7278542" lon="7.8198577"><ele>292.99999999999994</ele><time>2026-04-10T09:05:00.97Z</time></trkpt><trkpt lat="44.7277827" lon="7.8199014"><ele>293.0</ele><time>2026-04-10T09:05:03.97Z</time></trkpt><trkpt lat="44.7277193" lon="7.8199315"><ele>293.0</ele><time>2026-04-10T09:05:05.969Z</time></trkpt><trkpt lat="44.7276629" lon="7.8199876"><ele>293.0</ele><time>2026-04-10T09:05:08.97Z</time></trkpt><trkpt lat="44.7276068" lon="7.8200369"><ele>293.0</ele><time>2026-04-10T09:05:11.969Z</time></trkpt><trkpt lat="44.7275397" lon="7.8200622"><ele>292.99999999999994</ele><time>2026-04-10T09:05:15.97Z</time></trkpt><trkpt lat="44.7274886" lon="7.8201161"><ele>293.0</ele><time>2026-04-10T09:05:18.969Z</time></trkpt><trkpt lat="44.7274131" lon="7.8201667"><ele>293.1428571428571</ele><time>2026-04-10T09:05:22.969Z</time></trkpt><trkpt lat="44.7273419" lon="7.8202022"><ele>293.2857142857143</ele><time>2026-04-10T09:05:25.97Z</time></trkpt><trkpt lat="44.7272758" lon="7.820213"><ele>293.42857142857144</ele><time>2026-04-10T09:05:29.97Z</time></trkpt><trkpt lat="44.7272281" lon="7.8201504"><ele>293.57142857142856</ele><time>2026-04-10T09:05:33.969Z</time></trkpt><trkpt lat="44.7271866" lon="7.8200784"><ele>293.7142857142857</ele><time>2026-04-10T09:05:37.969Z</time></trkpt><trkpt lat="44.7271436" lon="7.8199961"><ele>293.85714285714283</ele><time>2026-04-10T09:05:40.97Z</time></trkpt><trkpt lat="44.7271013" lon="7.8199278"><ele>294.0</ele><time>2026-04-10T09:05:43.97Z</time></trkpt><trkpt lat="44.7270667" lon="7.8198512"><ele>292.2857142857143</ele><time>2026-04-10T09:05:46.969Z</time></trkpt><trkpt lat="44.7270244" lon="7.8197839"><ele>290.57142857142856</ele><time>2026-04-10T09:05:49.969Z</time></trkpt><trkpt lat="44.7269747" lon="7.8197015"><ele>288.8571428571429</ele><time>2026-04-10T09:05:53.969Z</time></trkpt><trkpt lat="44.7269247" lon="7.8196236"><ele>287.1428571428571</ele><time>2026-04-10T09:05:57.969Z</time></trkpt><trkpt lat="44.7268823" lon="7.8195358"><ele>285.42857142857144</ele><time>2026-04-10T09:06:01.969Z</time></trkpt><trkpt lat="44.7268349" lon="7.8194529"><ele>283.7142857142857</ele><time>2026-04-10T09:06:05.97Z</time></trkpt><trkpt lat="44.726787" lon="7.8193732"><ele>282.0</ele><time>2026-04-10T09:06:09.969Z</time></trkpt><trkpt lat="44.7267503" lon="7.819281"><ele>281.1666666666667</ele><time>2026-04-10T09:06:14.97Z</time></trkpt><trkpt lat="44.726706" lon="7.8191879"><ele>280.3333333333333</ele><time>2026-04-10T09:07:10.969Z</time></trkpt><trkpt lat="44.726646" lon="7.8191021"><ele>279.5</ele><time>2026-04-10T09:07:14.97Z</time></trkpt><trkpt lat="44.726589" lon="7.8190262"><ele>278.66666666666663</ele><time>2026-04-10T09:07:17.969Z</time></trkpt><trkpt lat="44.7265252" lon="7.8189432"><ele>277.8333333333333</ele><time>2026-04-10T09:07:20.97Z</time></trkpt><trkpt lat="44.7264776" lon="7.8188701"><ele>277.0</ele><time>2026-04-10T09:07:22.97Z</time></trkpt><trkpt lat="44.7264324" lon="7.8187982"><ele>277.0</ele><time>2026-04-10T09:07:24.97Z</time></trkpt><trkpt lat="44.7263962" lon="7.8187256"><ele>277.0</ele><time>2026-04-10T09:07:26.97Z</time></trkpt><trkpt lat="44.7263555" lon="7.8186549"><ele>277.0</ele><time>2026-04-10T09:07:28.969Z</time></trkpt><trkpt lat="44.7263159" lon="7.8185807"><ele>277.0</ele><time>2026-04-10T09:07:30.97Z</time></trkpt><trkpt lat="44.7262711" lon="7.8185055"><ele>277.0</ele><time>2026-04-10T09:07:32.97Z</time></trkpt><trkpt lat="44.7262249" lon="7.8184259"><ele>277.0</ele><time>2026-04-10T09:07:34.97Z</time></trkpt><trkpt lat="44.726178" lon="7.8183412"><ele>277.0</ele><time>2026-04-10T09:07:36.97Z</time></trkpt><trkpt lat="44.7261328" lon="7.8182604"><ele>276.7142857142857</ele><time>2026-04-10T09:07:38.97Z</time></trkpt><trkpt lat="44.7260898" lon="7.8181825"><ele>276.4285714285714</ele><time>2026-04-10T09:07:40.969Z</time></trkpt><trkpt lat="44.7260416" lon="7.8181052"><ele>276.1428571428571</ele><time>2026-04-10T09:07:42.97Z</time></trkpt><trkpt lat="44.7259953" lon="7.8180285"><ele>275.85714285714283</ele><time>2026-04-10T09:07:44.969Z</time></trkpt><trkpt lat="44.7259492" lon="7.8179539"><ele>275.57142857142856</ele><time>2026-04-10T09:07:46.969Z</time></trkpt><trkpt lat="44.7259082" lon="7.8178767"><ele>275.2857142857143</ele><time>2026-04-10T09:07:48.969Z</time></trkpt><trkpt lat="44.725859" lon="7.8177771"><ele>275.0</ele><time>2026-04-10T09:07:51.97Z</time></trkpt><trkpt lat="44.725819" lon="7.8177015"><ele>275.0</ele><time>2026-04-10T09:07:56.97Z</time></trkpt><trkpt lat="44.7257545" lon="7.8176264"><ele>275.0</ele><time>2026-04-10T09:08:28.97Z</time></trkpt><trkpt lat="44.7256813" lon="7.8176265"><ele>275.0</ele><time>2026-04-10T09:08:32.97Z</time></trkpt><trkpt lat="44.7256254" lon="7.817687"><ele>275.0</ele><time>2026-04-10T09:08:35.969Z</time></trkpt><trkpt lat="44.7255657" lon="7.8177475"><ele>275.0</ele><time>2026-04-10T09:08:38.97Z</time></trkpt><trkpt lat="44.7255026" lon="7.8178092"><ele>275.0</ele><time>2026-04-10T09:08:41.969Z</time></trkpt><trkpt lat="44.7254367" lon="7.8178759"><ele>275.0</ele><time>2026-04-10T09:08:44.97Z</time></trkpt><trkpt lat="44.7253676" lon="7.8179462"><ele>275.0</ele><time>2026-04-10T09:08:47.97Z</time></trkpt><trkpt lat="44.7253002" lon="7.8180157"><ele>275.0</ele><time>2026-04-10T09:08:50.97Z</time></trkpt><trkpt lat="44.7252309" lon="7.818081"><ele>275.0</ele><time>2026-04-10T09:08:53.97Z</time></trkpt><trkpt lat="44.7251629" lon="7.8181443"><ele>275.0</ele><time>2026-04-10T09:08:56.97Z</time></trkpt><trkpt lat="44.7250936" lon="7.8182103"><ele>275.0</ele><time>2026-04-10T09:08:59.97Z</time></trkpt><trkpt lat="44.7250235" lon="7.8182736"><ele>274.6666666666667</ele><time>2026-04-10T09:09:02.969Z</time></trkpt><trkpt lat="44.7249485" lon="7.8183455"><ele>274.33333333333337</ele><time>2026-04-10T09:09:05.97Z</time></trkpt><trkpt lat="44.7248717" lon="7.818417"><ele>274.0</ele><time>2026-04-10T09:09:08.97Z</time></trkpt><trkpt lat="44.7247973" lon="7.8184943"><ele>273.6666666666667</ele><time>2026-04-10T09:09:11.969Z</time></trkpt><trkpt lat="44.7247233" lon="7.8185724"><ele>273.3333333333333</ele><time>2026-04-10T09:09:14.969Z</time></trkpt><trkpt lat="44.7246721" lon="7.8186246"><ele>273.0</ele><time>2026-04-10T09:09:16.969Z</time></trkpt><trkpt lat="44.7246201" lon="7.8186771"><ele>273.0</ele><time>2026-04-10T09:09:18.97Z</time></trkpt><trkpt lat="44.7245694" lon="7.8187304"><ele>273.0</ele><time>2026-04-10T09:09:20.97Z</time></trkpt><trkpt lat="44.7244926" lon="7.8188001"><ele>273.0</ele><time>2026-04-10T09:09:23.97Z</time></trkpt><trkpt lat="44.7244214" lon="7.8188738"><ele>273.0</ele><time>2026-04-10T09:09:26.97Z</time></trkpt><trkpt lat="44.7243537" lon="7.8189452"><ele>273.0</ele><time>2026-04-10T09:09:29.97Z</time></trkpt><trkpt lat="44.7242836" lon="7.8190257"><ele>273.0</ele><time>2026-04-10T09:09:32.97Z</time></trkpt><trkpt lat="44.7242329" lon="7.819087"><ele>273.0</ele><time>2026-04-10T09:10:26.97Z</time></trkpt><trkpt lat="44.7241665" lon="7.8191267"><ele>273.0</ele><time>2026-04-10T09:10:30.97Z</time></trkpt><trkpt lat="44.7241095" lon="7.8191774"><ele>273.0</ele><time>2026-04-10T09:10:32.969Z</time></trkpt><trkpt lat="44.7240599" lon="7.8192412"><ele>273.0</ele><time>2026-04-10T09:10:34.969Z</time></trkpt><trkpt lat="44.7240056" lon="7.8192972"><ele>273.0</ele><time>2026-04-10T09:10:36.97Z</time></trkpt><trkpt lat="44.7239497" lon="7.8193508"><ele>273.0</ele><time>2026-04-10T09:10:38.97Z</time></trkpt><trkpt lat="44.7238955" lon="7.8194085"><ele>273.0</ele><time>2026-04-10T09:10:40.97Z</time></trkpt><trkpt lat="44.7238424" lon="7.8194636"><ele>273.0</ele><time>2026-04-10T09:10:42.97Z</time></trkpt><trkpt lat="44.7237918" lon="7.819517"><ele>273.0</ele><time>2026-04-10T09:10:44.97Z</time></trkpt><trkpt lat="44.7237217" lon="7.8195927"><ele>273.0</ele><time>2026-04-10T09:10:47.969Z</time></trkpt><trkpt lat="44.7236558" lon="7.8196615"><ele>273.0</ele><time>2026-04-10T09:10:50.97Z</time></trkpt><trkpt lat="44.7235858" lon="7.8197309"><ele>273.0</ele><time>2026-04-10T09:10:53.97Z</time></trkpt><trkpt lat="44.7235185" lon="7.8198098"><ele>273.0</ele><time>2026-04-10T09:10:56.969Z</time></trkpt><trkpt lat="44.7234446" lon="7.8198855"><ele>273.0</ele><time>2026-04-10T09:10:59.97Z</time></trkpt><trkpt lat="44.7233909" lon="7.8199392"><ele>273.0</ele><time>2026-04-10T09:11:01.97Z</time></trkpt><trkpt lat="44.7233405" lon="7.8199937"><ele>273.0</ele><time>2026-04-10T09:11:03.97Z</time></trkpt><trkpt lat="44.7232842" lon="7.8200474"><ele>273.0</ele><time>2026-04-10T09:11:05.969Z</time></trkpt><trkpt lat="44.7232283" lon="7.820104"><ele>273.0</ele><time>2026-04-10T09:11:07.969Z</time></trkpt><trkpt lat="44.7231732" lon="7.8201611"><ele>273.0</ele><time>2026-04-10T09:11:09.97Z</time></trkpt><trkpt lat="44.7231228" lon="7.8202214"><ele>273.0</ele><time>2026-04-10T09:11:11.97Z</time></trkpt><trkpt lat="44.7230712" lon="7.8202793"><ele>273.14285714285717</ele><time>2026-04-10T09:11:13.97Z</time></trkpt><trkpt lat="44.7230206" lon="7.8203396"><ele>273.2857142857143</ele><time>2026-04-10T09:11:15.97Z</time></trkpt><trkpt lat="44.7229676" lon="7.8203999"><ele>273.42857142857144</ele><time>2026-04-10T09:11:17.97Z</time></trkpt><trkpt lat="44.7229149" lon="7.8204579"><ele>273.57142857142856</ele><time>2026-04-10T09:11:19.97Z</time></trkpt><trkpt lat="44.7228627" lon="7.820516"><ele>273.7142857142857</ele><time>2026-04-10T09:11:21.97Z</time></trkpt><trkpt lat="44.7228111" lon="7.8205753"><ele>273.8571428571429</ele><time>2026-04-10T09:11:23.97Z</time></trkpt><trkpt lat="44.7227602" lon="7.820631"><ele>274.0</ele><time>2026-04-10T09:11:25.97Z</time></trkpt><trkpt lat="44.722688" lon="7.8207112"><ele>274.3333333333333</ele><time>2026-04-10T09:11:28.969Z</time></trkpt><trkpt lat="44.7226233" lon="7.8207833"><ele>274.66666666666663</ele><time>2026-04-10T09:11:31.97Z</time></trkpt><trkpt lat="44.7225632" lon="7.8208324"><ele>275.0</ele><time>2026-04-10T09:11:34.97Z</time></trkpt><trkpt lat="44.7225146" lon="7.82074"><ele>275.3333333333333</ele><time>2026-04-10T09:11:37.969Z</time></trkpt><trkpt lat="44.7224677" lon="7.820625"><ele>275.6666666666667</ele><time>2026-04-10T09:11:40.97Z</time></trkpt><trkpt lat="44.722427" lon="7.8205336"><ele>276.0</ele><time>2026-04-10T09:11:42.97Z</time></trkpt><trkpt lat="44.722387" lon="7.8204369"><ele>276.0</ele><time>2026-04-10T09:11:44.97Z</time></trkpt><trkpt lat="44.722351" lon="7.820341"><ele>276.0</ele><time>2026-04-10T09:11:46.97Z</time></trkpt><trkpt lat="44.7223142" lon="7.8202502"><ele>276.0</ele><time>2026-04-10T09:11:48.97Z</time></trkpt><trkpt lat="44.7222817" lon="7.8201615"><ele>276.0</ele><time>2026-04-10T09:11:50.97Z</time></trkpt><trkpt lat="44.7222448" lon="7.8200719"><ele>276.0</ele><time>2026-04-10T09:11:52.97Z</time></trkpt><trkpt lat="44.7222155" lon="7.8199917"><ele>276.0</ele><time>2026-04-10T09:11:54.97Z</time></trkpt><trkpt lat="44.7221788" lon="7.8198956"><ele>276.0</ele><time>2026-04-10T09:11:57.97Z</time></trkpt><trkpt lat="44.7221491" lon="7.8198028"><ele>275.5</ele><time>2026-04-10T09:12:00.969Z</time></trkpt><trkpt lat="44.7221043" lon="7.8197185"><ele>275.0</ele><time>2026-04-10T09:12:03.969Z</time></trkpt><trkpt lat="44.7220629" lon="7.8196281"><ele>274.5</ele><time>2026-04-10T09:12:06.969Z</time></trkpt><trkpt lat="44.7220219" lon="7.8195278"><ele>274.0</ele><time>2026-04-10T09:12:09.969Z</time></trkpt><trkpt lat="44.7219733" lon="7.8194355"><ele>273.5</ele><time>2026-04-10T09:12:12.97Z</time></trkpt><trkpt lat="44.7219326" lon="7.8193619"><ele>273.0</ele><time>2026-04-10T09:12:14.969Z</time></trkpt><trkpt lat="44.7219014" lon="7.8192746"><ele>272.6666666666667</ele><time>2026-04-10T09:12:16.969Z</time></trkpt><trkpt lat="44.7218759" lon="7.8191793"><ele>272.3333333333333</ele><time>2026-04-10T09:12:18.969Z</time></trkpt><trkpt lat="44.7218507" lon="7.8190779"><ele>272.0</ele><time>2026-04-10T09:12:20.97Z</time></trkpt><trkpt lat="44.7218165" lon="7.8189791"><ele>271.66666666666663</ele><time>2026-04-10T09:12:22.97Z</time></trkpt><trkpt lat="44.721796" lon="7.8188729"><ele>271.3333333333333</ele><time>2026-04-10T09:12:24.97Z</time></trkpt><trkpt lat="44.7217729" lon="7.8187648"><ele>271.0</ele><time>2026-04-10T09:12:26.97Z</time></trkpt><trkpt lat="44.7217442" lon="7.8186614"><ele>271.0</ele><time>2026-04-10T09:12:28.97Z</time></trkpt><trkpt lat="44.7217172" lon="7.81856"><ele>271.0</ele><time>2026-04-10T09:12:30.97Z</time></trkpt><trkpt lat="44.7216909" lon="7.8184594"><ele>271.0</ele><time>2026-04-10T09:12:32.97Z</time></trkpt><trkpt lat="44.7216706" lon="7.8183607"><ele>271.0</ele><time>2026-04-10T09:12:34.969Z</time></trkpt><trkpt lat="44.7216512" lon="7.8182629"><ele>271.0</ele><time>2026-04-10T09:12:36.97Z</time></trkpt><trkpt lat="44.72163" lon="7.8181676"><ele>271.0</ele><time>2026-04-10T09:12:38.97Z</time></trkpt><trkpt lat="44.721608" lon="7.8180727"><ele>271.0</ele><time>2026-04-10T09:12:40.969Z</time></trkpt><trkpt lat="44.721585" lon="7.8179713"><ele>271.0</ele><time>2026-04-10T09:12:42.97Z</time></trkpt><trkpt lat="44.72156" lon="7.817873"><ele>271.0</ele><time>2026-04-10T09:12:44.969Z</time></trkpt><trkpt lat="44.721537" lon="7.8177794"><ele>271.0</ele><time>2026-04-10T09:12:46.969Z</time></trkpt><trkpt lat="44.7215229" lon="7.8176856"><ele>271.0</ele><time>2026-04-10T09:12:48.97Z</time></trkpt><trkpt lat="44.7215025" lon="7.8176"><ele>271.0</ele><time>2026-04-10T09:12:50.97Z</time></trkpt><trkpt lat="44.7214828" lon="7.8175148"><ele>271.0</ele><time>2026-04-10T09:12:52.97Z</time></trkpt><trkpt lat="44.7214625" lon="7.8174267"><ele>271.0</ele><time>2026-04-10T09:12:54.97Z</time></trkpt><trkpt lat="44.7214356" lon="7.8173386"><ele>270.5</ele><time>2026-04-10T09:12:56.97Z</time></trkpt><trkpt lat="44.7214013" lon="7.8172571"><ele>270.0</ele><time>2026-04-10T09:12:58.97Z</time></trkpt><trkpt lat="44.7213662" lon="7.8171752"><ele>269.5</ele><time>2026-04-10T09:13:00.97Z</time></trkpt><trkpt lat="44.7213466" lon="7.8170902"><ele>269.0</ele><time>2026-04-10T09:13:02.97Z</time></trkpt><trkpt lat="44.7213086" lon="7.816975"><ele>268.5</ele><time>2026-04-10T09:13:05.97Z</time></trkpt><trkpt lat="44.7212595" lon="7.8168728"><ele>268.0</ele><time>2026-04-10T09:13:08.969Z</time></trkpt><trkpt lat="44.7212156" lon="7.8167676"><ele>268.0</ele><time>2026-04-10T09:13:11.97Z</time></trkpt><trkpt lat="44.7211719" lon="7.8166644"><ele>268.0</ele><time>2026-04-10T09:13:14.97Z</time></trkpt><trkpt lat="44.721122" lon="7.8165583"><ele>268.0</ele><time>2026-04-10T09:13:17.969Z</time></trkpt><trkpt lat="44.7210751" lon="7.816442"><ele>268.0</ele><time>2026-04-10T09:13:20.97Z</time></trkpt><trkpt lat="44.7210417" lon="7.8163598"><ele>268.0</ele><time>2026-04-10T09:13:22.969Z</time></trkpt><trkpt lat="44.7210085" lon="7.8162777"><ele>268.0</ele><time>2026-04-10T09:13:24.97Z</time></trkpt><trkpt lat="44.7209749" lon="7.8161987"><ele>268.0</ele><time>2026-04-10T09:13:26.969Z</time></trkpt><trkpt lat="44.7209461" lon="7.8161163"><ele>268.0</ele><time>2026-04-10T09:13:28.969Z</time></trkpt><trkpt lat="44.7209171" lon="7.8160336"><ele>268.0</ele><time>2026-04-10T09:13:30.97Z</time></trkpt><trkpt lat="44.7208965" lon="7.8159484"><ele>268.0</ele><time>2026-04-10T09:13:32.97Z</time></trkpt><trkpt lat="44.7208604" lon="7.8158285"><ele>268.0</ele><time>2026-04-10T09:13:35.969Z</time></trkpt><trkpt lat="44.7208386" lon="7.8157074"><ele>268.0</ele><time>2026-04-10T09:13:38.969Z</time></trkpt><trkpt lat="44.720827" lon="7.8155989"><ele>267.8571428571429</ele><time>2026-04-10T09:13:43.969Z</time></trkpt><trkpt lat="44.7208096" lon="7.8154728"><ele>267.7142857142857</ele><time>2026-04-10T09:13:46.97Z</time></trkpt><trkpt lat="44.7207945" lon="7.8153791"><ele>267.57142857142856</ele><time>2026-04-10T09:13:48.97Z</time></trkpt><trkpt lat="44.7207827" lon="7.815282"><ele>267.42857142857144</ele><time>2026-04-10T09:13:50.97Z</time></trkpt><trkpt lat="44.7207724" lon="7.8151835"><ele>267.2857142857143</ele><time>2026-04-10T09:13:52.97Z</time></trkpt><trkpt lat="44.7207629" lon="7.8150883"><ele>267.14285714285717</ele><time>2026-04-10T09:13:54.97Z</time></trkpt><trkpt lat="44.7207535" lon="7.814999"><ele>267.0</ele><time>2026-04-10T09:13:56.97Z</time></trkpt><trkpt lat="44.7207362" lon="7.8148755"><ele>267.3333333333333</ele><time>2026-04-10T09:13:59.97Z</time></trkpt><trkpt lat="44.7207238" lon="7.81475"><ele>267.6666666666667</ele><time>2026-04-10T09:14:02.969Z</time></trkpt><trkpt lat="44.7207142" lon="7.8146176"><ele>268.0</ele><time>2026-04-10T09:14:05.969Z</time></trkpt><trkpt lat="44.7207018" lon="7.8145259"><ele>268.33333333333337</ele><time>2026-04-10T09:14:07.969Z</time></trkpt><trkpt lat="44.7206898" lon="7.8144363"><ele>268.6666666666667</ele><time>2026-04-10T09:14:09.97Z</time></trkpt><trkpt lat="44.7206661" lon="7.814314"><ele>269.0</ele><time>2026-04-10T09:14:12.97Z</time></trkpt><trkpt lat="44.7206296" lon="7.814197"><ele>269.0</ele><time>2026-04-10T09:14:15.969Z</time></trkpt><trkpt lat="44.7205883" lon="7.8140855"><ele>269.0</ele><time>2026-04-10T09:14:18.97Z</time></trkpt><trkpt lat="44.7205439" lon="7.8139714"><ele>269.0</ele><time>2026-04-10T09:14:21.97Z</time></trkpt><trkpt lat="44.7205099" lon="7.813895"><ele>269.0</ele><time>2026-04-10T09:14:23.97Z</time></trkpt><trkpt lat="44.7204751" lon="7.8138193"><ele>269.0</ele><time>2026-04-10T09:14:25.969Z</time></trkpt><trkpt lat="44.7204398" lon="7.8137459"><ele>269.0</ele><time>2026-04-10T09:14:27.969Z</time></trkpt><trkpt lat="44.7203862" lon="7.8136397"><ele>269.0</ele><time>2026-04-10T09:14:30.97Z</time></trkpt><trkpt lat="44.7203332" lon="7.8135362"><ele>269.0</ele><time>2026-04-10T09:14:33.97Z</time></trkpt><trkpt lat="44.7202762" lon="7.8134378"><ele>269.0</ele><time>2026-04-10T09:14:36.97Z</time></trkpt><trkpt lat="44.7202177" lon="7.8133387"><ele>269.0</ele><time>2026-04-10T09:14:39.97Z</time></trkpt><trkpt lat="44.7201566" lon="7.8132464"><ele>269.0</ele><time>2026-04-10T09:14:42.969Z</time></trkpt><trkpt lat="44.7201111" lon="7.81318"><ele>269.0</ele><time>2026-04-10T09:14:44.97Z</time></trkpt><trkpt lat="44.7200605" lon="7.813119"><ele>268.6666666666667</ele><time>2026-04-10T09:14:46.969Z</time></trkpt><trkpt lat="44.7200084" lon="7.8130624"><ele>268.33333333333337</ele><time>2026-04-10T09:14:48.97Z</time></trkpt><trkpt lat="44.7199566" lon="7.8130104"><ele>268.0</ele><time>2026-04-10T09:14:50.97Z</time></trkpt><trkpt lat="44.7198822" lon="7.8129322"><ele>267.6666666666667</ele><time>2026-04-10T09:14:53.97Z</time></trkpt><trkpt lat="44.7198046" lon="7.812857"><ele>267.3333333333333</ele><time>2026-04-10T09:14:56.97Z</time></trkpt><trkpt lat="44.7197506" lon="7.8128042"><ele>267.0</ele><time>2026-04-10T09:14:58.97Z</time></trkpt><trkpt lat="44.7196939" lon="7.8127509"><ele>267.00000000000006</ele><time>2026-04-10T09:15:00.97Z</time></trkpt><trkpt lat="44.7196394" lon="7.8127002"><ele>267.0</ele><time>2026-04-10T09:15:02.97Z</time></trkpt><trkpt lat="44.7195611" lon="7.8126289"><ele>267.0</ele><time>2026-04-10T09:15:05.97Z</time></trkpt><trkpt lat="44.7195076" lon="7.812577"><ele>267.0</ele><time>2026-04-10T09:15:07.97Z</time></trkpt><trkpt lat="44.7194533" lon="7.8125187"><ele>267.0</ele><time>2026-04-10T09:15:09.97Z</time></trkpt><trkpt lat="44.7193981" lon="7.8124701"><ele>267.00000000000006</ele><time>2026-04-10T09:15:11.97Z</time></trkpt><trkpt lat="44.7193482" lon="7.8124147"><ele>267.0</ele><time>2026-04-10T09:15:13.969Z</time></trkpt><trkpt lat="44.7192974" lon="7.8123531"><ele>267.28571428571433</ele><time>2026-04-10T09:15:15.97Z</time></trkpt><trkpt lat="44.7192435" lon="7.8122932"><ele>267.57142857142856</ele><time>2026-04-10T09:15:17.969Z</time></trkpt><trkpt lat="44.7191897" lon="7.8122334"><ele>267.8571428571429</ele><time>2026-04-10T09:15:19.97Z</time></trkpt><trkpt lat="44.7191367" lon="7.8121737"><ele>268.14285714285717</ele><time>2026-04-10T09:15:21.97Z</time></trkpt><trkpt lat="44.7190864" lon="7.8121126"><ele>268.42857142857144</ele><time>2026-04-10T09:15:23.97Z</time></trkpt><trkpt lat="44.7190355" lon="7.8120511"><ele>268.7142857142857</ele><time>2026-04-10T09:15:25.97Z</time></trkpt><trkpt lat="44.718983" lon="7.8119846"><ele>269.0</ele><time>2026-04-10T09:15:27.969Z</time></trkpt><trkpt lat="44.7189304" lon="7.8119161"><ele>269.0</ele><time>2026-04-10T09:15:29.97Z</time></trkpt><trkpt lat="44.7188821" lon="7.8118337"><ele>269.0</ele><time>2026-04-10T09:15:31.97Z</time></trkpt><trkpt lat="44.7188388" lon="7.8117436"><ele>269.0</ele><time>2026-04-10T09:15:33.97Z</time></trkpt><trkpt lat="44.7188008" lon="7.8116479"><ele>269.0</ele><time>2026-04-10T09:15:35.969Z</time></trkpt><trkpt lat="44.7187645" lon="7.8115493"><ele>269.0</ele><time>2026-04-10T09:15:37.969Z</time></trkpt><trkpt lat="44.7187261" lon="7.8114501"><ele>269.0</ele><time>2026-04-10T09:15:39.97Z</time></trkpt><trkpt lat="44.7186905" lon="7.8113474"><ele>268.83333333333337</ele><time>2026-04-10T09:15:41.969Z</time></trkpt><trkpt lat="44.7186536" lon="7.8112431"><ele>268.6666666666667</ele><time>2026-04-10T09:15:43.97Z</time></trkpt><trkpt lat="44.718616" lon="7.8111344"><ele>268.5</ele><time>2026-04-10T09:15:45.969Z</time></trkpt><trkpt lat="44.718579" lon="7.8110215"><ele>268.3333333333333</ele><time>2026-04-10T09:15:47.97Z</time></trkpt><trkpt lat="44.7185396" lon="7.8109038"><ele>268.16666666666663</ele><time>2026-04-10T09:15:49.97Z</time></trkpt><trkpt lat="44.7184976" lon="7.8107908"><ele>268.0</ele><time>2026-04-10T09:15:51.97Z</time></trkpt><trkpt lat="44.7184578" lon="7.8106849"><ele>267.5</ele><time>2026-04-10T09:15:53.97Z</time></trkpt><trkpt lat="44.7184207" lon="7.810584"><ele>267.0</ele><time>2026-04-10T09:15:55.969Z</time></trkpt><trkpt lat="44.7183867" lon="7.8104837"><ele>266.5</ele><time>2026-04-10T09:15:57.969Z</time></trkpt><trkpt lat="44.7183499" lon="7.8103897"><ele>266.0</ele><time>2026-04-10T09:15:59.97Z</time></trkpt><trkpt lat="44.7183068" lon="7.8102919"><ele>265.5</ele><time>2026-04-10T09:16:01.969Z</time></trkpt><trkpt lat="44.7182604" lon="7.8101931"><ele>265.0</ele><time>2026-04-10T09:16:03.97Z</time></trkpt><trkpt lat="44.7182077" lon="7.810096"><ele>265.0</ele><time>2026-04-10T09:16:05.97Z</time></trkpt><trkpt lat="44.7181507" lon="7.8100006"><ele>265.0</ele><time>2026-04-10T09:16:07.969Z</time></trkpt><trkpt lat="44.7180927" lon="7.8099042"><ele>265.0</ele><time>2026-04-10T09:16:09.969Z</time></trkpt><trkpt lat="44.7180297" lon="7.8098202"><ele>265.0</ele><time>2026-04-10T09:16:11.969Z</time></trkpt><trkpt lat="44.7179699" lon="7.809734"><ele>265.0</ele><time>2026-04-10T09:16:13.97Z</time></trkpt><trkpt lat="44.7179128" lon="7.8096473"><ele>265.0</ele><time>2026-04-10T09:16:15.97Z</time></trkpt><trkpt lat="44.7178578" lon="7.8095604"><ele>265.0</ele><time>2026-04-10T09:16:17.97Z</time></trkpt><trkpt lat="44.7178061" lon="7.8094778"><ele>265.0</ele><time>2026-04-10T09:16:19.97Z</time></trkpt><trkpt lat="44.717754" lon="7.8094014"><ele>265.0</ele><time>2026-04-10T09:16:21.97Z</time></trkpt><trkpt lat="44.7177085" lon="7.8093155"><ele>265.0</ele><time>2026-04-10T09:16:23.97Z</time></trkpt><trkpt lat="44.7176536" lon="7.8092277"><ele>265.0</ele><time>2026-04-10T09:16:25.97Z</time></trkpt><trkpt lat="44.7175977" lon="7.8091351"><ele>265.0</ele><time>2026-04-10T09:16:27.969Z</time></trkpt><trkpt lat="44.7175382" lon="7.809045"><ele>265.66666666666663</ele><time>2026-04-10T09:16:29.97Z</time></trkpt><trkpt lat="44.7174786" lon="7.80896"><ele>266.3333333333333</ele><time>2026-04-10T09:16:31.969Z</time></trkpt><trkpt lat="44.7174212" lon="7.808881"><ele>267.0</ele><time>2026-04-10T09:16:33.97Z</time></trkpt><trkpt lat="44.7173655" lon="7.8087983"><ele>267.6666666666667</ele><time>2026-04-10T09:16:35.97Z</time></trkpt><trkpt lat="44.7173082" lon="7.8087121"><ele>268.33333333333337</ele><time>2026-04-10T09:16:37.969Z</time></trkpt><trkpt lat="44.7172501" lon="7.8086324"><ele>269.0</ele><time>2026-04-10T09:16:39.97Z</time></trkpt><trkpt lat="44.7171979" lon="7.8085558"><ele>269.0</ele><time>2026-04-10T09:16:41.969Z</time></trkpt><trkpt lat="44.7171527" lon="7.8084823"><ele>269.0</ele><time>2026-04-10T09:16:43.97Z</time></trkpt><trkpt lat="44.7170919" lon="7.8083871"><ele>269.0</ele><time>2026-04-10T09:16:46.97Z</time></trkpt><trkpt lat="44.7170517" lon="7.8083064"><ele>269.0</ele><time>2026-04-10T09:16:49.97Z</time></trkpt><trkpt lat="44.7170561" lon="7.8081987"><ele>269.0</ele><time>2026-04-10T09:16:54.97Z</time></trkpt><trkpt lat="44.7171174" lon="7.8081131"><ele>269.0</ele><time>2026-04-10T09:16:58.97Z</time></trkpt><trkpt lat="44.7171897" lon="7.808041"><ele>269.0</ele><time>2026-04-10T09:17:01.969Z</time></trkpt><trkpt lat="44.7172426" lon="7.80799"><ele>269.0</ele><time>2026-04-10T09:17:03.97Z</time></trkpt><trkpt lat="44.7172978" lon="7.8079418"><ele>269.0</ele><time>2026-04-10T09:17:05.969Z</time></trkpt><trkpt lat="44.7173568" lon="7.807894"><ele>269.0</ele><time>2026-04-10T09:17:07.969Z</time></trkpt><trkpt lat="44.717418" lon="7.807835"><ele>269.0</ele><time>2026-04-10T09:17:09.97Z</time></trkpt><trkpt lat="44.7174812" lon="7.807772"><ele>269.0</ele><time>2026-04-10T09:17:11.97Z</time></trkpt><trkpt lat="44.7175457" lon="7.807705"><ele>269.0</ele><time>2026-04-10T09:17:13.97Z</time></trkpt><trkpt lat="44.7176129" lon="7.8076365"><ele>269.33333333333337</ele><time>2026-04-10T09:17:15.969Z</time></trkpt><trkpt lat="44.7176811" lon="7.8075742"><ele>269.6666666666667</ele><time>2026-04-10T09:17:17.97Z</time></trkpt><trkpt lat="44.7177482" lon="7.8075055"><ele>270.0</ele><time>2026-04-10T09:17:19.97Z</time></trkpt><trkpt lat="44.7178183" lon="7.8074428"><ele>270.3333333333333</ele><time>2026-04-10T09:17:21.97Z</time></trkpt><trkpt lat="44.7178855" lon="7.8073732"><ele>270.66666666666663</ele><time>2026-04-10T09:17:23.97Z</time></trkpt><trkpt lat="44.7179531" lon="7.8073092"><ele>271.0</ele><time>2026-04-10T09:17:25.97Z</time></trkpt><trkpt lat="44.7180221" lon="7.8072478"><ele>270.5</ele><time>2026-04-10T09:17:27.969Z</time></trkpt><trkpt lat="44.7180907" lon="7.8071806"><ele>270.0</ele><time>2026-04-10T09:17:29.97Z</time></trkpt><trkpt lat="44.7181528" lon="7.8071056"><ele>269.5</ele><time>2026-04-10T09:17:31.969Z</time></trkpt><trkpt lat="44.7182133" lon="7.8070281"><ele>269.0</ele><time>2026-04-10T09:17:33.97Z</time></trkpt><trkpt lat="44.7182832" lon="7.8069548"><ele>268.5</ele><time>2026-04-10T09:17:35.97Z</time></trkpt><trkpt lat="44.7183522" lon="7.8068836"><ele>268.0</ele><time>2026-04-10T09:17:37.969Z</time></trkpt><trkpt lat="44.7184166" lon="7.8068112"><ele>268.0</ele><time>2026-04-10T09:17:39.97Z</time></trkpt><trkpt lat="44.7184858" lon="7.8067428"><ele>268.0</ele><time>2026-04-10T09:17:41.97Z</time></trkpt><trkpt lat="44.718559" lon="7.8066705"><ele>268.0</ele><time>2026-04-10T09:17:43.97Z</time></trkpt><trkpt lat="44.7186363" lon="7.8066027"><ele>268.0</ele><time>2026-04-10T09:17:45.97Z</time></trkpt><trkpt lat="44.7187131" lon="7.8065358"><ele>268.0</ele><time>2026-04-10T09:17:47.969Z</time></trkpt><trkpt lat="44.7187838" lon="7.8064633"><ele>268.0</ele><time>2026-04-10T09:17:49.969Z</time></trkpt><trkpt lat="44.7188571" lon="7.8063852"><ele>268.2</ele><time>2026-04-10T09:17:51.97Z</time></trkpt><trkpt lat="44.7189355" lon="7.8063081"><ele>268.4</ele><time>2026-04-10T09:17:53.969Z</time></trkpt><trkpt lat="44.7190126" lon="7.8062315"><ele>268.59999999999997</ele><time>2026-04-10T09:17:55.97Z</time></trkpt><trkpt lat="44.7190878" lon="7.8061566"><ele>268.8</ele><time>2026-04-10T09:17:57.97Z</time></trkpt><trkpt lat="44.7191633" lon="7.8060886"><ele>269.0</ele><time>2026-04-10T09:17:59.969Z</time></trkpt><trkpt lat="44.7192338" lon="7.8060104"><ele>268.83333333333337</ele><time>2026-04-10T09:18:01.97Z</time></trkpt><trkpt lat="44.7193028" lon="7.8059372"><ele>268.6666666666667</ele><time>2026-04-10T09:18:03.97Z</time></trkpt><trkpt lat="44.7193744" lon="7.8058674"><ele>268.5</ele><time>2026-04-10T09:18:05.97Z</time></trkpt><trkpt lat="44.7194498" lon="7.8058003"><ele>268.3333333333333</ele><time>2026-04-10T09:18:07.969Z</time></trkpt><trkpt lat="44.719527" lon="7.8057219"><ele>268.16666666666663</ele><time>2026-04-10T09:18:09.97Z</time></trkpt><trkpt lat="44.7195941" lon="7.8056348"><ele>268.0</ele><time>2026-04-10T09:18:11.97Z</time></trkpt><trkpt lat="44.7196637" lon="7.8055489"><ele>268.0</ele><time>2026-04-10T09:18:13.969Z</time></trkpt><trkpt lat="44.7197407" lon="7.8054614"><ele>268.0</ele><time>2026-04-10T09:18:15.97Z</time></trkpt><trkpt lat="44.7198182" lon="7.805371"><ele>268.0</ele><time>2026-04-10T09:18:17.97Z</time></trkpt><trkpt lat="44.7198952" lon="7.8052809"><ele>268.0</ele><time>2026-04-10T09:18:19.97Z</time></trkpt><trkpt lat="44.7199692" lon="7.8051952"><ele>268.0</ele><time>2026-04-10T09:18:21.97Z</time></trkpt><trkpt lat="44.7200426" lon="7.8051116"><ele>267.8</ele><time>2026-04-10T09:18:23.97Z</time></trkpt><trkpt lat="44.7201142" lon="7.8050276"><ele>267.6</ele><time>2026-04-10T09:18:25.969Z</time></trkpt><trkpt lat="44.7201847" lon="7.8049427"><ele>267.4</ele><time>2026-04-10T09:18:27.97Z</time></trkpt><trkpt lat="44.7202576" lon="7.8048616"><ele>267.2</ele><time>2026-04-10T09:18:29.97Z</time></trkpt><trkpt lat="44.7203281" lon="7.804782"><ele>267.0</ele><time>2026-04-10T09:18:31.97Z</time></trkpt><trkpt lat="44.7203993" lon="7.8046988"><ele>266.8</ele><time>2026-04-10T09:18:33.97Z</time></trkpt><trkpt lat="44.7204703" lon="7.8046103"><ele>266.6</ele><time>2026-04-10T09:18:35.969Z</time></trkpt><trkpt lat="44.720545" lon="7.8045132"><ele>266.40000000000003</ele><time>2026-04-10T09:18:37.97Z</time></trkpt><trkpt lat="44.7206222" lon="7.8044186"><ele>266.2</ele><time>2026-04-10T09:18:39.97Z</time></trkpt><trkpt lat="44.7207004" lon="7.8043255"><ele>266.0</ele><time>2026-04-10T09:18:41.969Z</time></trkpt><trkpt lat="44.7207751" lon="7.8042328"><ele>266.2</ele><time>2026-04-10T09:18:43.97Z</time></trkpt><trkpt lat="44.7208514" lon="7.8041398"><ele>266.40000000000003</ele><time>2026-04-10T09:18:45.969Z</time></trkpt><trkpt lat="44.7209332" lon="7.8040536"><ele>266.6</ele><time>2026-04-10T09:18:47.97Z</time></trkpt><trkpt lat="44.7210107" lon="7.8039573"><ele>266.8</ele><time>2026-04-10T09:18:49.97Z</time></trkpt><trkpt lat="44.7210889" lon="7.8038741"><ele>267.0</ele><time>2026-04-10T09:18:51.97Z</time></trkpt><trkpt lat="44.7211696" lon="7.8037917"><ele>267.0</ele><time>2026-04-10T09:18:53.97Z</time></trkpt><trkpt lat="44.7212432" lon="7.8037081"><ele>267.0</ele><time>2026-04-10T09:18:55.97Z</time></trkpt><trkpt lat="44.7213182" lon="7.8036277"><ele>267.0</ele><time>2026-04-10T09:18:57.97Z</time></trkpt><trkpt lat="44.7213979" lon="7.8035479"><ele>267.0</ele><time>2026-04-10T09:18:59.97Z</time></trkpt><trkpt lat="44.7214832" lon="7.8034702"><ele>267.0</ele><time>2026-04-10T09:19:01.97Z</time></trkpt><trkpt lat="44.7215615" lon="7.8033858"><ele>267.0</ele><time>2026-04-10T09:19:03.97Z</time></trkpt><trkpt lat="44.7216414" lon="7.8033021"><ele>267.0</ele><time>2026-04-10T09:19:05.97Z</time></trkpt><trkpt lat="44.7217199" lon="7.8032215"><ele>267.0</ele><time>2026-04-10T09:19:07.969Z</time></trkpt><trkpt lat="44.7217988" lon="7.8031418"><ele>267.0</ele><time>2026-04-10T09:19:09.97Z</time></trkpt><trkpt lat="44.7218767" lon="7.8030569"><ele>267.0</ele><time>2026-04-10T09:19:11.969Z</time></trkpt><trkpt lat="44.7219576" lon="7.8029796"><ele>267.0</ele><time>2026-04-10T09:19:13.969Z</time></trkpt><trkpt lat="44.7220381" lon="7.8028971"><ele>267.0</ele><time>2026-04-10T09:19:15.97Z</time></trkpt><trkpt lat="44.7221176" lon="7.8028137"><ele>267.0</ele><time>2026-04-10T09:19:17.97Z</time></trkpt><trkpt lat="44.722197" lon="7.8027366"><ele>267.0</ele><time>2026-04-10T09:19:19.97Z</time></trkpt><trkpt lat="44.7222714" lon="7.8026628"><ele>267.0</ele><time>2026-04-10T09:19:21.97Z</time></trkpt><trkpt lat="44.722339" lon="7.8025859"><ele>266.8333333333333</ele><time>2026-04-10T09:19:23.97Z</time></trkpt><trkpt lat="44.7224099" lon="7.8025186"><ele>266.6666666666667</ele><time>2026-04-10T09:19:25.969Z</time></trkpt><trkpt lat="44.7224769" lon="7.8024486"><ele>266.5</ele><time>2026-04-10T09:19:27.969Z</time></trkpt><trkpt lat="44.7225475" lon="7.8023827"><ele>266.33333333333337</ele><time>2026-04-10T09:19:29.969Z</time></trkpt><trkpt lat="44.7226188" lon="7.8023173"><ele>266.1666666666667</ele><time>2026-04-10T09:19:31.97Z</time></trkpt><trkpt lat="44.7226867" lon="7.8022402"><ele>266.0</ele><time>2026-04-10T09:19:33.969Z</time></trkpt><trkpt lat="44.722755" lon="7.8021554"><ele>266.0</ele><time>2026-04-10T09:19:35.97Z</time></trkpt><trkpt lat="44.7228248" lon="7.8020678"><ele>266.0</ele><time>2026-04-10T09:19:37.97Z</time></trkpt><trkpt lat="44.7228885" lon="7.8019751"><ele>266.0</ele><time>2026-04-10T09:19:39.969Z</time></trkpt><trkpt lat="44.7229486" lon="7.8018837"><ele>266.0</ele><time>2026-04-10T09:19:41.97Z</time></trkpt><trkpt lat="44.7230091" lon="7.8017897"><ele>266.0</ele><time>2026-04-10T09:19:43.97Z</time></trkpt><trkpt lat="44.7230754" lon="7.8017008"><ele>266.0</ele><time>2026-04-10T09:19:45.97Z</time></trkpt><trkpt lat="44.7231463" lon="7.8016104"><ele>266.0</ele><time>2026-04-10T09:19:47.97Z</time></trkpt><trkpt lat="44.7232183" lon="7.8015252"><ele>266.0</ele><time>2026-04-10T09:19:49.969Z</time></trkpt><trkpt lat="44.7232953" lon="7.8014471"><ele>266.0</ele><time>2026-04-10T09:19:51.97Z</time></trkpt><trkpt lat="44.7233743" lon="7.8013736"><ele>266.0</ele><time>2026-04-10T09:19:53.97Z</time></trkpt><trkpt lat="44.7234587" lon="7.8013139"><ele>266.0</ele><time>2026-04-10T09:19:55.97Z</time></trkpt><trkpt lat="44.7235408" lon="7.8012605"><ele>266.0</ele><time>2026-04-10T09:19:57.97Z</time></trkpt><trkpt lat="44.7236193" lon="7.8011979"><ele>266.0</ele><time>2026-04-10T09:19:59.97Z</time></trkpt><trkpt lat="44.7236973" lon="7.8011356"><ele>266.0</ele><time>2026-04-10T09:20:01.969Z</time></trkpt><trkpt lat="44.723775" lon="7.8010682"><ele>266.0</ele><time>2026-04-10T09:20:03.969Z</time></trkpt><trkpt lat="44.7238549" lon="7.800997"><ele>265.83333333333337</ele><time>2026-04-10T09:20:05.97Z</time></trkpt><trkpt lat="44.7239403" lon="7.8009296"><ele>265.6666666666667</ele><time>2026-04-10T09:20:07.969Z</time></trkpt><trkpt lat="44.7240249" lon="7.8008685"><ele>265.5</ele><time>2026-04-10T09:20:09.97Z</time></trkpt><trkpt lat="44.7241006" lon="7.8008107"><ele>265.3333333333333</ele><time>2026-04-10T09:20:11.969Z</time></trkpt><trkpt lat="44.7241713" lon="7.8007499"><ele>265.16666666666663</ele><time>2026-04-10T09:20:13.97Z</time></trkpt><trkpt lat="44.7242452" lon="7.8006952"><ele>265.0</ele><time>2026-04-10T09:20:15.97Z</time></trkpt><trkpt lat="44.7243153" lon="7.8006364"><ele>265.0</ele><time>2026-04-10T09:20:17.97Z</time></trkpt><trkpt lat="44.724383" lon="7.800572"><ele>265.0</ele><time>2026-04-10T09:20:19.97Z</time></trkpt><trkpt lat="44.724452" lon="7.8005099"><ele>265.0</ele><time>2026-04-10T09:20:21.97Z</time></trkpt><trkpt lat="44.7245228" lon="7.8004432"><ele>265.0</ele><time>2026-04-10T09:20:23.97Z</time></trkpt><trkpt lat="44.7245951" lon="7.8003772"><ele>265.0</ele><time>2026-04-10T09:20:25.969Z</time></trkpt><trkpt lat="44.7246667" lon="7.8003095"><ele>265.0</ele><time>2026-04-10T09:20:27.969Z</time></trkpt><trkpt lat="44.7247415" lon="7.8002465"><ele>264.8333333333333</ele><time>2026-04-10T09:20:29.97Z</time></trkpt><trkpt lat="44.7248158" lon="7.8001815"><ele>264.66666666666663</ele><time>2026-04-10T09:20:31.97Z</time></trkpt><trkpt lat="44.724891" lon="7.8001234"><ele>264.5</ele><time>2026-04-10T09:20:33.97Z</time></trkpt><trkpt lat="44.7249686" lon="7.8000653"><ele>264.3333333333333</ele><time>2026-04-10T09:20:35.969Z</time></trkpt><trkpt lat="44.7250452" lon="7.8000052"><ele>264.1666666666667</ele><time>2026-04-10T09:20:37.97Z</time></trkpt><trkpt lat="44.7251219" lon="7.7999481"><ele>264.0</ele><time>2026-04-10T09:20:39.969Z</time></trkpt><trkpt lat="44.7252018" lon="7.7998892"><ele>264.5</ele><time>2026-04-10T09:20:41.969Z</time></trkpt><trkpt lat="44.7252775" lon="7.7998326"><ele>265.0</ele><time>2026-04-10T09:20:43.97Z</time></trkpt><trkpt lat="44.7253567" lon="7.7997815"><ele>265.5</ele><time>2026-04-10T09:20:45.97Z</time></trkpt><trkpt lat="44.7254317" lon="7.7997309"><ele>266.0</ele><time>2026-04-10T09:20:47.97Z</time></trkpt><trkpt lat="44.7255111" lon="7.7996814"><ele>266.5</ele><time>2026-04-10T09:20:49.969Z</time></trkpt><trkpt lat="44.7255904" lon="7.7996369"><ele>267.0</ele><time>2026-04-10T09:20:51.97Z</time></trkpt><trkpt lat="44.7256706" lon="7.7995875"><ele>267.0</ele><time>2026-04-10T09:20:53.97Z</time></trkpt><trkpt lat="44.7257518" lon="7.7995397"><ele>267.0</ele><time>2026-04-10T09:20:55.97Z</time></trkpt><trkpt lat="44.7258277" lon="7.7994886"><ele>267.0</ele><time>2026-04-10T09:20:57.97Z</time></trkpt><trkpt lat="44.7259049" lon="7.7994412"><ele>267.0</ele><time>2026-04-10T09:20:59.97Z</time></trkpt><trkpt lat="44.725976" lon="7.7993969"><ele>267.0</ele><time>2026-04-10T09:21:01.969Z</time></trkpt><trkpt lat="44.7260486" lon="7.7993964"><ele>267.0</ele><time>2026-04-10T09:21:03.97Z</time></trkpt><trkpt lat="44.7261114" lon="7.799434"><ele>266.6666666666667</ele><time>2026-04-10T09:21:05.97Z</time></trkpt><trkpt lat="44.7261595" lon="7.7995"><ele>266.3333333333333</ele><time>2026-04-10T09:21:07.97Z</time></trkpt><trkpt lat="44.7262149" lon="7.7995917"><ele>266.0</ele><time>2026-04-10T09:21:10.97Z</time></trkpt><trkpt lat="44.7262918" lon="7.799639"><ele>265.66666666666663</ele><time>2026-04-10T09:21:13.969Z</time></trkpt><trkpt lat="44.7263584" lon="7.79964"><ele>265.3333333333333</ele><time>2026-04-10T09:21:15.97Z</time></trkpt><trkpt lat="44.7264262" lon="7.7995989"><ele>265.0</ele><time>2026-04-10T09:21:17.969Z</time></trkpt><trkpt lat="44.7264886" lon="7.7995378"><ele>264.99999999999994</ele><time>2026-04-10T09:21:19.969Z</time></trkpt><trkpt lat="44.7265454" lon="7.7994832"><ele>265.0</ele><time>2026-04-10T09:21:21.969Z</time></trkpt><trkpt lat="44.7266005" lon="7.7994313"><ele>265.0</ele><time>2026-04-10T09:21:23.969Z</time></trkpt><trkpt lat="44.726659" lon="7.7993765"><ele>265.0</ele><time>2026-04-10T09:21:25.97Z</time></trkpt><trkpt lat="44.7267212" lon="7.7993184"><ele>265.0</ele><time>2026-04-10T09:21:27.97Z</time></trkpt><trkpt lat="44.7267844" lon="7.7992576"><ele>264.99999999999994</ele><time>2026-04-10T09:21:29.97Z</time></trkpt><trkpt lat="44.726854" lon="7.799198"><ele>265.0</ele><time>2026-04-10T09:21:31.969Z</time></trkpt><trkpt lat="44.7269286" lon="7.7991648"><ele>264.85714285714283</ele><time>2026-04-10T09:21:33.969Z</time></trkpt><trkpt lat="44.727" lon="7.799176"><ele>264.7142857142857</ele><time>2026-04-10T09:21:35.969Z</time></trkpt><trkpt lat="44.7270647" lon="7.7992111"><ele>264.57142857142856</ele><time>2026-04-10T09:21:37.97Z</time></trkpt><trkpt lat="44.7271245" lon="7.799251"><ele>264.42857142857144</ele><time>2026-04-10T09:21:39.97Z</time></trkpt><trkpt lat="44.7271807" lon="7.7992935"><ele>264.2857142857143</ele><time>2026-04-10T09:21:41.97Z</time></trkpt><trkpt lat="44.7272385" lon="7.7993361"><ele>264.1428571428571</ele><time>2026-04-10T09:21:43.97Z</time></trkpt><trkpt lat="44.7273078" lon="7.7993725"><ele>264.0</ele><time>2026-04-10T09:21:45.97Z</time></trkpt><trkpt lat="44.7273832" lon="7.7993872"><ele>264.0</ele><time>2026-04-10T09:21:47.97Z</time></trkpt><trkpt lat="44.7274505" lon="7.7993888"><ele>264.0</ele><time>2026-04-10T09:21:49.969Z</time></trkpt><trkpt lat="44.7275186" lon="7.7993763"><ele>264.0</ele><time>2026-04-10T09:21:51.97Z</time></trkpt><trkpt lat="44.7275891" lon="7.7993608"><ele>264.0</ele><time>2026-04-10T09:21:53.97Z</time></trkpt><trkpt lat="44.7276633" lon="7.7993428"><ele>264.0</ele><time>2026-04-10T09:21:55.97Z</time></trkpt><trkpt lat="44.7277365" lon="7.7993277"><ele>264.0</ele><time>2026-04-10T09:21:57.97Z</time></trkpt><trkpt lat="44.7278105" lon="7.7993147"><ele>264.0</ele><time>2026-04-10T09:21:59.969Z</time></trkpt><trkpt lat="44.7278863" lon="7.7992997"><ele>264.2857142857143</ele><time>2026-04-10T09:22:01.969Z</time></trkpt><trkpt lat="44.7279594" lon="7.7992819"><ele>264.57142857142856</ele><time>2026-04-10T09:22:03.97Z</time></trkpt><trkpt lat="44.728034" lon="7.7992687"><ele>264.8571428571429</ele><time>2026-04-10T09:22:05.97Z</time></trkpt><trkpt lat="44.7281085" lon="7.7992577"><ele>265.1428571428571</ele><time>2026-04-10T09:22:07.97Z</time></trkpt><trkpt lat="44.7281821" lon="7.7992449"><ele>265.42857142857144</ele><time>2026-04-10T09:22:09.97Z</time></trkpt><trkpt lat="44.7282532" lon="7.7992293"><ele>265.7142857142857</ele><time>2026-04-10T09:22:11.97Z</time></trkpt><trkpt lat="44.7283257" lon="7.7992131"><ele>266.0</ele><time>2026-04-10T09:22:13.969Z</time></trkpt><trkpt lat="44.7283962" lon="7.7991993"><ele>266.0</ele><time>2026-04-10T09:22:15.969Z</time></trkpt><trkpt lat="44.7284624" lon="7.7991879"><ele>266.0</ele><time>2026-04-10T09:22:17.97Z</time></trkpt><trkpt lat="44.7285333" lon="7.7991797"><ele>266.0</ele><time>2026-04-10T09:22:19.97Z</time></trkpt><trkpt lat="44.7286046" lon="7.7991684"><ele>266.0</ele><time>2026-04-10T09:22:21.969Z</time></trkpt><trkpt lat="44.7286764" lon="7.799156"><ele>266.0</ele><time>2026-04-10T09:22:23.969Z</time></trkpt><trkpt lat="44.7287445" lon="7.7991334"><ele>266.0</ele><time>2026-04-10T09:22:25.97Z</time></trkpt><trkpt lat="44.7288058" lon="7.7990937"><ele>266.0</ele><time>2026-04-10T09:22:27.969Z</time></trkpt><trkpt lat="44.7288637" lon="7.7990404"><ele>265.57142857142856</ele><time>2026-04-10T09:22:29.97Z</time></trkpt><trkpt lat="44.728915" lon="7.7989747"><ele>265.1428571428571</ele><time>2026-04-10T09:22:31.97Z</time></trkpt><trkpt lat="44.7289633" lon="7.7989058"><ele>264.7142857142857</ele><time>2026-04-10T09:22:33.97Z</time></trkpt><trkpt lat="44.7290144" lon="7.7988403"><ele>264.2857142857143</ele><time>2026-04-10T09:22:35.97Z</time></trkpt><trkpt lat="44.7290724" lon="7.7987882"><ele>263.85714285714283</ele><time>2026-04-10T09:22:37.97Z</time></trkpt><trkpt lat="44.7291394" lon="7.7987523"><ele>263.42857142857144</ele><time>2026-04-10T09:22:39.97Z</time></trkpt><trkpt lat="44.7292093" lon="7.7987311"><ele>263.0</ele><time>2026-04-10T09:22:41.97Z</time></trkpt><trkpt lat="44.72928" lon="7.7987222"><ele>263.0</ele><time>2026-04-10T09:22:43.97Z</time></trkpt><trkpt lat="44.7293504" lon="7.7987093"><ele>263.0</ele><time>2026-04-10T09:22:45.97Z</time></trkpt><trkpt lat="44.7294167" lon="7.7986981"><ele>263.0</ele><time>2026-04-10T09:22:47.97Z</time></trkpt><trkpt lat="44.7294875" lon="7.7986898"><ele>263.0</ele><time>2026-04-10T09:22:49.97Z</time></trkpt><trkpt lat="44.729557" lon="7.7986761"><ele>263.0</ele><time>2026-04-10T09:22:51.97Z</time></trkpt><trkpt lat="44.7296254" lon="7.7986651"><ele>263.0</ele><time>2026-04-10T09:22:53.97Z</time></trkpt><trkpt lat="44.7296897" lon="7.7986537"><ele>263.0</ele><time>2026-04-10T09:22:55.97Z</time></trkpt><trkpt lat="44.7297802" lon="7.798634"><ele>263.33333333333337</ele><time>2026-04-10T09:22:58.97Z</time></trkpt><trkpt lat="44.7298665" lon="7.7986122"><ele>263.6666666666667</ele><time>2026-04-10T09:23:01.97Z</time></trkpt><trkpt lat="44.7299506" lon="7.7985898"><ele>264.0</ele><time>2026-04-10T09:23:04.97Z</time></trkpt><trkpt lat="44.7300365" lon="7.7985824"><ele>264.3333333333333</ele><time>2026-04-10T09:23:07.97Z</time></trkpt><trkpt lat="44.7300924" lon="7.7986298"><ele>264.66666666666663</ele><time>2026-04-10T09:23:10.97Z</time></trkpt><trkpt lat="44.730168" lon="7.7986595"><ele>265.0</ele><time>2026-04-10T09:23:14.97Z</time></trkpt><trkpt lat="44.7302245" lon="7.7986091"><ele>265.4285714285714</ele><time>2026-04-10T09:27:28.969Z</time></trkpt><trkpt lat="44.730289" lon="7.7985964"><ele>265.85714285714283</ele><time>2026-04-10T09:27:35.97Z</time></trkpt><trkpt lat="44.7303552" lon="7.7985944"><ele>266.2857142857143</ele><time>2026-04-10T09:27:41.969Z</time></trkpt><trkpt lat="44.7304303" lon="7.7985817"><ele>266.71428571428567</ele><time>2026-04-10T09:27:45.97Z</time></trkpt><trkpt lat="44.7305118" lon="7.7985696"><ele>267.1428571428571</ele><time>2026-04-10T09:27:49.97Z</time></trkpt><trkpt lat="44.730575" lon="7.7985577"><ele>267.57142857142856</ele><time>2026-04-10T09:27:52.97Z</time></trkpt><trkpt lat="44.7306424" lon="7.7985535"><ele>268.0</ele><time>2026-04-10T09:27:56.97Z</time></trkpt><trkpt lat="44.7305663" lon="7.7985351"><ele>268.0</ele><time>2026-04-10T09:28:38.97Z</time></trkpt><trkpt lat="44.7306287" lon="7.7985532"><ele>268.0</ele><time>2026-04-10T09:29:54.97Z</time></trkpt><trkpt lat="44.7307034" lon="7.7985474"><ele>268.0</ele><time>2026-04-10T09:29:57.97Z</time></trkpt><trkpt lat="44.730789" lon="7.7985296"><ele>268.0</ele><time>2026-04-10T09:30:00.97Z</time></trkpt><trkpt lat="44.7308837" lon="7.7985127"><ele>268.0</ele><time>2026-04-10T09:30:03.969Z</time></trkpt><trkpt lat="44.7309567" lon="7.7985007"><ele>268.0</ele><time>2026-04-10T09:30:05.97Z</time></trkpt><trkpt lat="44.7310341" lon="7.798485"><ele>268.16666666666663</ele><time>2026-04-10T09:30:07.97Z</time></trkpt><trkpt lat="44.7311144" lon="7.7984621"><ele>268.3333333333333</ele><time>2026-04-10T09:30:09.97Z</time></trkpt><trkpt lat="44.731196" lon="7.7984486"><ele>268.5</ele><time>2026-04-10T09:30:11.969Z</time></trkpt><trkpt lat="44.7312767" lon="7.7984411"><ele>268.6666666666667</ele><time>2026-04-10T09:30:13.97Z</time></trkpt><trkpt lat="44.7313576" lon="7.7984265"><ele>268.83333333333337</ele><time>2026-04-10T09:30:15.969Z</time></trkpt><trkpt lat="44.7314418" lon="7.7984125"><ele>269.0</ele><time>2026-04-10T09:30:17.969Z</time></trkpt><trkpt lat="44.7315289" lon="7.7983989"><ele>269.0</ele><time>2026-04-10T09:30:19.969Z</time></trkpt><trkpt lat="44.7316156" lon="7.7983794"><ele>269.0</ele><time>2026-04-10T09:30:21.969Z</time></trkpt><trkpt lat="44.7317006" lon="7.7983607"><ele>269.0</ele><time>2026-04-10T09:30:23.97Z</time></trkpt><trkpt lat="44.731784" lon="7.79834"><ele>269.0</ele><time>2026-04-10T09:30:25.97Z</time></trkpt><trkpt lat="44.7318618" lon="7.7983217"><ele>269.0</ele><time>2026-04-10T09:30:27.969Z</time></trkpt><trkpt lat="44.7319351" lon="7.7982986"><ele>269.0</ele><time>2026-04-10T09:30:29.97Z</time></trkpt><trkpt lat="44.7320122" lon="7.7982669"><ele>268.83333333333337</ele><time>2026-04-10T09:30:31.97Z</time></trkpt><trkpt lat="44.7320897" lon="7.7982496"><ele>268.6666666666667</ele><time>2026-04-10T09:30:33.97Z</time></trkpt><trkpt lat="44.7321681" lon="7.7982261"><ele>268.5</ele><time>2026-04-10T09:30:35.97Z</time></trkpt><trkpt lat="44.7322453" lon="7.7982022"><ele>268.3333333333333</ele><time>2026-04-10T09:30:37.97Z</time></trkpt><trkpt lat="44.7323247" lon="7.7981819"><ele>268.16666666666663</ele><time>2026-04-10T09:30:39.97Z</time></trkpt><trkpt lat="44.7324101" lon="7.798167"><ele>268.0</ele><time>2026-04-10T09:30:41.97Z</time></trkpt><trkpt lat="44.7324973" lon="7.7981556"><ele>268.0</ele><time>2026-04-10T09:30:43.969Z</time></trkpt><trkpt lat="44.7325845" lon="7.7981433"><ele>268.0</ele><time>2026-04-10T09:30:45.969Z</time></trkpt><trkpt lat="44.732671" lon="7.798133"><ele>268.0</ele><time>2026-04-10T09:30:47.969Z</time></trkpt><trkpt lat="44.7327546" lon="7.7981233"><ele>268.0</ele><time>2026-04-10T09:30:49.97Z</time></trkpt><trkpt lat="44.7328342" lon="7.7981131"><ele>268.0</ele><time>2026-04-10T09:30:51.97Z</time></trkpt><trkpt lat="44.7329074" lon="7.798105"><ele>268.0</ele><time>2026-04-10T09:30:53.969Z</time></trkpt><trkpt lat="44.7329739" lon="7.798103"><ele>267.5</ele><time>2026-04-10T09:30:55.97Z</time></trkpt><trkpt lat="44.7330384" lon="7.7980992"><ele>267.0</ele><time>2026-04-10T09:30:57.97Z</time></trkpt><trkpt lat="44.7331173" lon="7.7980868"><ele>266.5</ele><time>2026-04-10T09:30:59.97Z</time></trkpt><trkpt lat="44.7332101" lon="7.7980772"><ele>266.0</ele><time>2026-04-10T09:31:01.97Z</time></trkpt><trkpt lat="44.7333" lon="7.7980688"><ele>265.5</ele><time>2026-04-10T09:31:03.97Z</time></trkpt><trkpt lat="44.7333862" lon="7.7980556"><ele>265.0</ele><time>2026-04-10T09:31:05.97Z</time></trkpt><trkpt lat="44.7334639" lon="7.7980442"><ele>265.0</ele><time>2026-04-10T09:31:07.97Z</time></trkpt><trkpt lat="44.7335394" lon="7.7980304"><ele>265.0</ele><time>2026-04-10T09:31:09.97Z</time></trkpt><trkpt lat="44.7336205" lon="7.7980182"><ele>265.0</ele><time>2026-04-10T09:31:11.97Z</time></trkpt><trkpt lat="44.7337031" lon="7.7980052"><ele>265.0</ele><time>2026-04-10T09:31:13.97Z</time></trkpt><trkpt lat="44.7337886" lon="7.7979873"><ele>265.0</ele><time>2026-04-10T09:31:15.969Z</time></trkpt><trkpt lat="44.7338712" lon="7.7979591"><ele>265.0</ele><time>2026-04-10T09:31:17.97Z</time></trkpt><trkpt lat="44.7339489" lon="7.7979316"><ele>265.0</ele><time>2026-04-10T09:31:19.97Z</time></trkpt><trkpt lat="44.7340257" lon="7.7978966"><ele>265.0</ele><time>2026-04-10T09:31:21.97Z</time></trkpt><trkpt lat="44.7341022" lon="7.7978516"><ele>265.0</ele><time>2026-04-10T09:31:23.97Z</time></trkpt><trkpt lat="44.734181" lon="7.7978222"><ele>265.0</ele><time>2026-04-10T09:31:25.97Z</time></trkpt><trkpt lat="44.7342649" lon="7.7978103"><ele>265.0</ele><time>2026-04-10T09:31:27.969Z</time></trkpt><trkpt lat="44.7343575" lon="7.7978316"><ele>265.0</ele><time>2026-04-10T09:31:29.969Z</time></trkpt><trkpt lat="44.7344531" lon="7.797851"><ele>265.0</ele><time>2026-04-10T09:31:31.97Z</time></trkpt><trkpt lat="44.734541" lon="7.7978656"><ele>265.0</ele><time>2026-04-10T09:31:33.97Z</time></trkpt><trkpt lat="44.7346262" lon="7.7978638"><ele>265.0</ele><time>2026-04-10T09:31:35.969Z</time></trkpt><trkpt lat="44.7347037" lon="7.7978536"><ele>265.0</ele><time>2026-04-10T09:31:37.97Z</time></trkpt><trkpt lat="44.7347768" lon="7.7978473"><ele>265.0</ele><time>2026-04-10T09:31:39.97Z</time></trkpt><trkpt lat="44.7348454" lon="7.7978411"><ele>265.0</ele><time>2026-04-10T09:31:41.97Z</time></trkpt><trkpt lat="44.7349149" lon="7.7978301"><ele>264.99999999999994</ele><time>2026-04-10T09:31:43.969Z</time></trkpt><trkpt lat="44.7349826" lon="7.7978174"><ele>265.0</ele><time>2026-04-10T09:31:45.97Z</time></trkpt><trkpt lat="44.7350506" lon="7.7978082"><ele>265.0</ele><time>2026-04-10T09:31:47.97Z</time></trkpt><trkpt lat="44.7351195" lon="7.7977977"><ele>265.0</ele><time>2026-04-10T09:31:49.97Z</time></trkpt><trkpt lat="44.7351842" lon="7.7977872"><ele>265.0</ele><time>2026-04-10T09:31:51.969Z</time></trkpt><trkpt lat="44.735248" lon="7.7977751"><ele>264.99999999999994</ele><time>2026-04-10T09:31:53.97Z</time></trkpt><trkpt lat="44.7353141" lon="7.7977641"><ele>265.0</ele><time>2026-04-10T09:31:55.97Z</time></trkpt><trkpt lat="44.7353828" lon="7.797756"><ele>264.85714285714283</ele><time>2026-04-10T09:31:57.97Z</time></trkpt><trkpt lat="44.7354519" lon="7.7977402"><ele>264.7142857142857</ele><time>2026-04-10T09:31:59.97Z</time></trkpt><trkpt lat="44.7355185" lon="7.7977213"><ele>264.57142857142856</ele><time>2026-04-10T09:32:01.97Z</time></trkpt><trkpt lat="44.735584" lon="7.7977033"><ele>264.42857142857144</ele><time>2026-04-10T09:32:03.97Z</time></trkpt><trkpt lat="44.7356504" lon="7.7976932"><ele>264.2857142857143</ele><time>2026-04-10T09:32:05.969Z</time></trkpt><trkpt lat="44.7357155" lon="7.7977001"><ele>264.1428571428571</ele><time>2026-04-10T09:32:07.97Z</time></trkpt><trkpt lat="44.7357862" lon="7.7976985"><ele>264.0</ele><time>2026-04-10T09:32:09.97Z</time></trkpt><trkpt lat="44.7358604" lon="7.7976839"><ele>264.0</ele><time>2026-04-10T09:32:11.97Z</time></trkpt><trkpt lat="44.7359379" lon="7.7976684"><ele>264.0</ele><time>2026-04-10T09:32:13.969Z</time></trkpt><trkpt lat="44.7360145" lon="7.7976554"><ele>264.0</ele><time>2026-04-10T09:32:15.97Z</time></trkpt><trkpt lat="44.7360881" lon="7.7976469"><ele>264.0</ele><time>2026-04-10T09:32:17.97Z</time></trkpt><trkpt lat="44.736163" lon="7.7976293"><ele>264.0</ele><time>2026-04-10T09:32:19.97Z</time></trkpt><trkpt lat="44.7362392" lon="7.797627"><ele>264.0</ele><time>2026-04-10T09:32:21.97Z</time></trkpt><trkpt lat="44.7363181" lon="7.7976207"><ele>264.0</ele><time>2026-04-10T09:32:23.97Z</time></trkpt><trkpt lat="44.7363997" lon="7.797616"><ele>264.0</ele><time>2026-04-10T09:32:25.969Z</time></trkpt><trkpt lat="44.7364795" lon="7.7976338"><ele>264.0</ele><time>2026-04-10T09:32:27.97Z</time></trkpt><trkpt lat="44.7365574" lon="7.7976664"><ele>264.0</ele><time>2026-04-10T09:32:29.969Z</time></trkpt><trkpt lat="44.7366394" lon="7.7976805"><ele>264.0</ele><time>2026-04-10T09:32:31.97Z</time></trkpt><trkpt lat="44.7367236" lon="7.797677"><ele>264.0</ele><time>2026-04-10T09:32:33.97Z</time></trkpt><trkpt lat="44.7368095" lon="7.7976581"><ele>264.8</ele><time>2026-04-10T09:32:35.97Z</time></trkpt><trkpt lat="44.7368984" lon="7.7976439"><ele>265.59999999999997</ele><time>2026-04-10T09:32:37.969Z</time></trkpt><trkpt lat="44.7369844" lon="7.7976035"><ele>266.4</ele><time>2026-04-10T09:32:39.97Z</time></trkpt><trkpt lat="44.737073" lon="7.7975889"><ele>267.2</ele><time>2026-04-10T09:32:41.97Z</time></trkpt><trkpt lat="44.7371638" lon="7.7975634"><ele>268.0</ele><time>2026-04-10T09:32:43.97Z</time></trkpt><trkpt lat="44.7372558" lon="7.7975333"><ele>268.0</ele><time>2026-04-10T09:32:45.97Z</time></trkpt><trkpt lat="44.7373424" lon="7.7975011"><ele>268.0</ele><time>2026-04-10T09:32:47.97Z</time></trkpt><trkpt lat="44.7374267" lon="7.7974802"><ele>268.0</ele><time>2026-04-10T09:32:49.97Z</time></trkpt><trkpt lat="44.7375078" lon="7.7974475"><ele>268.0</ele><time>2026-04-10T09:32:51.97Z</time></trkpt><trkpt lat="44.7375881" lon="7.7974236"><ele>268.0</ele><time>2026-04-10T09:32:53.97Z</time></trkpt><trkpt lat="44.7376673" lon="7.7974018"><ele>268.0</ele><time>2026-04-10T09:32:55.969Z</time></trkpt><trkpt lat="44.7377459" lon="7.797378"><ele>267.66666666666663</ele><time>2026-04-10T09:32:57.97Z</time></trkpt><trkpt lat="44.7378252" lon="7.7973523"><ele>267.3333333333333</ele><time>2026-04-10T09:32:59.97Z</time></trkpt><trkpt lat="44.7379067" lon="7.7973305"><ele>267.0</ele><time>2026-04-10T09:33:01.97Z</time></trkpt><trkpt lat="44.7379876" lon="7.7973078"><ele>266.6666666666667</ele><time>2026-04-10T09:33:03.97Z</time></trkpt><trkpt lat="44.7380677" lon="7.7973179"><ele>266.33333333333337</ele><time>2026-04-10T09:33:05.97Z</time></trkpt><trkpt lat="44.738143" lon="7.7973554"><ele>266.0</ele><time>2026-04-10T09:33:07.969Z</time></trkpt><trkpt lat="44.7382086" lon="7.7974171"><ele>266.0</ele><time>2026-04-10T09:33:09.969Z</time></trkpt><trkpt lat="44.7382787" lon="7.7974687"><ele>266.0</ele><time>2026-04-10T09:33:11.969Z</time></trkpt><trkpt lat="44.7383603" lon="7.7974882"><ele>266.0</ele><time>2026-04-10T09:33:13.97Z</time></trkpt><trkpt lat="44.7384451" lon="7.797486"><ele>266.0</ele><time>2026-04-10T09:33:15.969Z</time></trkpt><trkpt lat="44.7385298" lon="7.7974683"><ele>266.0</ele><time>2026-04-10T09:33:17.97Z</time></trkpt><trkpt lat="44.7386149" lon="7.7974367"><ele>266.0</ele><time>2026-04-10T09:33:19.97Z</time></trkpt><trkpt lat="44.7387025" lon="7.7974122"><ele>265.83333333333337</ele><time>2026-04-10T09:33:21.969Z</time></trkpt><trkpt lat="44.7387884" lon="7.7973803"><ele>265.6666666666667</ele><time>2026-04-10T09:33:23.969Z</time></trkpt><trkpt lat="44.7388751" lon="7.7973533"><ele>265.5</ele><time>2026-04-10T09:33:25.97Z</time></trkpt><trkpt lat="44.7389658" lon="7.7973264"><ele>265.3333333333333</ele><time>2026-04-10T09:33:27.969Z</time></trkpt><trkpt lat="44.7390539" lon="7.7973151"><ele>265.16666666666663</ele><time>2026-04-10T09:33:29.969Z</time></trkpt><trkpt lat="44.73914" lon="7.7972951"><ele>265.0</ele><time>2026-04-10T09:33:31.969Z</time></trkpt><trkpt lat="44.7392302" lon="7.7972865"><ele>265.0</ele><time>2026-04-10T09:33:33.97Z</time></trkpt><trkpt lat="44.7393217" lon="7.7972707"><ele>265.0</ele><time>2026-04-10T09:33:35.97Z</time></trkpt><trkpt lat="44.7394145" lon="7.7972603"><ele>265.0</ele><time>2026-04-10T09:33:37.969Z</time></trkpt><trkpt lat="44.739501" lon="7.7972737"><ele>265.0</ele><time>2026-04-10T09:33:39.969Z</time></trkpt><trkpt lat="44.7395692" lon="7.7973355"><ele>265.0</ele><time>2026-04-10T09:33:41.969Z</time></trkpt><trkpt lat="44.7395951" lon="7.7974472"><ele>265.0</ele><time>2026-04-10T09:33:43.969Z</time></trkpt><trkpt lat="44.7396038" lon="7.7975644"><ele>264.8333333333333</ele><time>2026-04-10T09:33:45.97Z</time></trkpt><trkpt lat="44.7396176" lon="7.7976856"><ele>264.66666666666663</ele><time>2026-04-10T09:33:47.97Z</time></trkpt><trkpt lat="44.7396265" lon="7.7978079"><ele>264.5</ele><time>2026-04-10T09:33:49.97Z</time></trkpt><trkpt lat="44.7396396" lon="7.7979319"><ele>264.3333333333333</ele><time>2026-04-10T09:33:51.97Z</time></trkpt><trkpt lat="44.7396477" lon="7.7980598"><ele>264.1666666666667</ele><time>2026-04-10T09:33:53.97Z</time></trkpt><trkpt lat="44.7396576" lon="7.7981865"><ele>264.0</ele><time>2026-04-10T09:33:55.97Z</time></trkpt><trkpt lat="44.7396678" lon="7.7983143"><ele>264.0</ele><time>2026-04-10T09:33:57.97Z</time></trkpt><trkpt lat="44.7396815" lon="7.7984455"><ele>264.0</ele><time>2026-04-10T09:33:59.969Z</time></trkpt><trkpt lat="44.7396932" lon="7.7985754"><ele>264.0</ele><time>2026-04-10T09:34:01.97Z</time></trkpt><trkpt lat="44.7397054" lon="7.7987134"><ele>264.0</ele><time>2026-04-10T09:34:03.969Z</time></trkpt><trkpt lat="44.7397202" lon="7.7988468"><ele>264.0</ele><time>2026-04-10T09:34:05.969Z</time></trkpt><trkpt lat="44.7397351" lon="7.7989775"><ele>264.1666666666667</ele><time>2026-04-10T09:34:07.97Z</time></trkpt><trkpt lat="44.7397621" lon="7.7991036"><ele>264.3333333333333</ele><time>2026-04-10T09:34:09.969Z</time></trkpt><trkpt lat="44.7398095" lon="7.7992081"><ele>264.5</ele><time>2026-04-10T09:34:11.97Z</time></trkpt><trkpt lat="44.7398784" lon="7.7992811"><ele>264.66666666666663</ele><time>2026-04-10T09:34:13.97Z</time></trkpt><trkpt lat="44.7399612" lon="7.7993174"><ele>264.8333333333333</ele><time>2026-04-10T09:34:15.969Z</time></trkpt><trkpt lat="44.7400413" lon="7.7993493"><ele>265.0</ele><time>2026-04-10T09:34:17.97Z</time></trkpt><trkpt lat="44.7401212" lon="7.7993874"><ele>265.0</ele><time>2026-04-10T09:34:19.969Z</time></trkpt><trkpt lat="44.7402013" lon="7.7994324"><ele>265.0</ele><time>2026-04-10T09:34:21.97Z</time></trkpt><trkpt lat="44.7402841" lon="7.799484"><ele>265.0</ele><time>2026-04-10T09:34:23.969Z</time></trkpt><trkpt lat="44.7403604" lon="7.7995509"><ele>265.0</ele><time>2026-04-10T09:34:25.97Z</time></trkpt><trkpt lat="44.7404392" lon="7.7996115"><ele>265.0</ele><time>2026-04-10T09:34:27.97Z</time></trkpt><trkpt lat="44.740512" lon="7.7996824"><ele>265.0</ele><time>2026-04-10T09:34:29.97Z</time></trkpt><trkpt lat="44.7405869" lon="7.7997523"><ele>265.16666666666663</ele><time>2026-04-10T09:34:31.97Z</time></trkpt><trkpt lat="44.7406637" lon="7.7998213"><ele>265.3333333333333</ele><time>2026-04-10T09:34:33.97Z</time></trkpt><trkpt lat="44.7407378" lon="7.7998851"><ele>265.5</ele><time>2026-04-10T09:34:35.969Z</time></trkpt><trkpt lat="44.7408075" lon="7.7999428"><ele>265.6666666666667</ele><time>2026-04-10T09:34:37.97Z</time></trkpt><trkpt lat="44.7408702" lon="7.8000038"><ele>265.83333333333337</ele><time>2026-04-10T09:34:39.97Z</time></trkpt><trkpt lat="44.7409291" lon="7.800071"><ele>266.0</ele><time>2026-04-10T09:34:41.97Z</time></trkpt><trkpt lat="44.7409882" lon="7.8001298"><ele>266.0</ele><time>2026-04-10T09:34:43.97Z</time></trkpt><trkpt lat="44.7410388" lon="7.8001882"><ele>266.0</ele><time>2026-04-10T09:34:45.97Z</time></trkpt><trkpt lat="44.7410804" lon="7.8002597"><ele>266.0</ele><time>2026-04-10T09:34:47.97Z</time></trkpt><trkpt lat="44.7411226" lon="7.8003291"><ele>266.0</ele><time>2026-04-10T09:34:49.969Z</time></trkpt><trkpt lat="44.7411553" lon="7.8004073"><ele>266.0</ele><time>2026-04-10T09:34:51.969Z</time></trkpt><trkpt lat="44.7411804" lon="7.8004925"><ele>266.0</ele><time>2026-04-10T09:34:53.97Z</time></trkpt><trkpt lat="44.7412056" lon="7.8005807"><ele>266.0</ele><time>2026-04-10T09:34:55.97Z</time></trkpt><trkpt lat="44.7412303" lon="7.8006728"><ele>266.1666666666667</ele><time>2026-04-10T09:34:57.97Z</time></trkpt><trkpt lat="44.7412567" lon="7.8007613"><ele>266.33333333333337</ele><time>2026-04-10T09:34:59.97Z</time></trkpt><trkpt lat="44.7412658" lon="7.8008498"><ele>266.5</ele><time>2026-04-10T09:35:01.97Z</time></trkpt><trkpt lat="44.7412965" lon="7.8009498"><ele>266.6666666666667</ele><time>2026-04-10T09:35:04.97Z</time></trkpt><trkpt lat="44.7413105" lon="7.8010578"><ele>266.8333333333333</ele><time>2026-04-10T09:35:07.969Z</time></trkpt><trkpt lat="44.7413323" lon="7.8011759"><ele>267.0</ele><time>2026-04-10T09:35:10.969Z</time></trkpt><trkpt lat="44.7413543" lon="7.8012932"><ele>267.0</ele><time>2026-04-10T09:35:13.969Z</time></trkpt><trkpt lat="44.7413825" lon="7.8013925"><ele>267.0</ele><time>2026-04-10T09:35:16.97Z</time></trkpt><trkpt lat="44.7414051" lon="7.8014874"><ele>267.0</ele><time>2026-04-10T09:35:19.97Z</time></trkpt><trkpt lat="44.7414391" lon="7.8015775"><ele>267.0</ele><time>2026-04-10T09:35:22.97Z</time></trkpt><trkpt lat="44.7414739" lon="7.8016768"><ele>267.0</ele><time>2026-04-10T09:35:25.97Z</time></trkpt><trkpt lat="44.7415071" lon="7.8017838"><ele>267.0</ele><time>2026-04-10T09:35:28.97Z</time></trkpt><trkpt lat="44.7415459" lon="7.8018818"><ele>267.0</ele><time>2026-04-10T09:35:31.97Z</time></trkpt><trkpt lat="44.741592" lon="7.8019738"><ele>267.0</ele><time>2026-04-10T09:35:34.969Z</time></trkpt><trkpt lat="44.7416458" lon="7.8020616"><ele>267.0</ele><time>2026-04-10T09:35:37.969Z</time></trkpt><trkpt lat="44.7416967" lon="7.8021439"><ele>267.0</ele><time>2026-04-10T09:35:40.97Z</time></trkpt><trkpt lat="44.7417386" lon="7.8022132"><ele>267.0</ele><time>2026-04-10T09:35:59.97Z</time></trkpt><trkpt lat="44.7417975" lon="7.8022991"><ele>267.0</ele><time>2026-04-10T09:36:04.97Z</time></trkpt><trkpt lat="44.7418448" lon="7.8023723"><ele>267.3333333333333</ele><time>2026-04-10T09:36:07.97Z</time></trkpt><trkpt lat="44.741903" lon="7.8024575"><ele>267.6666666666667</ele><time>2026-04-10T09:36:10.97Z</time></trkpt><trkpt lat="44.7419645" lon="7.8025329"><ele>268.0</ele><time>2026-04-10T09:36:13.97Z</time></trkpt><trkpt lat="44.7420279" lon="7.8026048"><ele>268.33333333333337</ele><time>2026-04-10T09:36:16.97Z</time></trkpt><trkpt lat="44.742084" lon="7.8026805"><ele>268.6666666666667</ele><time>2026-04-10T09:36:19.97Z</time></trkpt><trkpt lat="44.7421529" lon="7.8027508"><ele>269.0</ele><time>2026-04-10T09:36:22.969Z</time></trkpt><trkpt lat="44.742229" lon="7.8028313"><ele>269.0</ele><time>2026-04-10T09:36:25.97Z</time></trkpt><trkpt lat="44.7422842" lon="7.8028884"><ele>269.0</ele><time>2026-04-10T09:36:27.969Z</time></trkpt><trkpt lat="44.7423426" lon="7.8029444"><ele>269.0</ele><time>2026-04-10T09:36:29.97Z</time></trkpt><trkpt lat="44.7424042" lon="7.8029967"><ele>269.0</ele><time>2026-04-10T09:36:31.97Z</time></trkpt><trkpt lat="44.7424636" lon="7.8030523"><ele>269.0</ele><time>2026-04-10T09:36:33.97Z</time></trkpt><trkpt lat="44.7425225" lon="7.8030967"><ele>269.0</ele><time>2026-04-10T09:36:35.97Z</time></trkpt><trkpt lat="44.7425817" lon="7.8031485"><ele>269.0</ele><time>2026-04-10T09:36:37.97Z</time></trkpt><trkpt lat="44.7426457" lon="7.803193"><ele>269.0</ele><time>2026-04-10T09:36:39.969Z</time></trkpt><trkpt lat="44.7427068" lon="7.8032435"><ele>269.0</ele><time>2026-04-10T09:36:41.97Z</time></trkpt><trkpt lat="44.7427697" lon="7.803291"><ele>269.0</ele><time>2026-04-10T09:36:43.969Z</time></trkpt><trkpt lat="44.7428309" lon="7.8033392"><ele>269.0</ele><time>2026-04-10T09:36:45.97Z</time></trkpt><trkpt lat="44.7428898" lon="7.8033943"><ele>269.0</ele><time>2026-04-10T09:36:47.97Z</time></trkpt><trkpt lat="44.7429486" lon="7.8034488"><ele>269.0</ele><time>2026-04-10T09:36:49.969Z</time></trkpt><trkpt lat="44.743005" lon="7.8035028"><ele>269.0</ele><time>2026-04-10T09:36:51.97Z</time></trkpt><trkpt lat="44.7430591" lon="7.8035585"><ele>269.6666666666667</ele><time>2026-04-10T09:36:53.97Z</time></trkpt><trkpt lat="44.7431129" lon="7.8036121"><ele>270.33333333333337</ele><time>2026-04-10T09:36:55.97Z</time></trkpt><trkpt lat="44.7431892" lon="7.803688"><ele>271.0</ele><time>2026-04-10T09:36:58.969Z</time></trkpt><trkpt lat="44.7432562" lon="7.8037728"><ele>271.6666666666667</ele><time>2026-04-10T09:37:01.97Z</time></trkpt><trkpt lat="44.7433257" lon="7.8038374"><ele>272.3333333333333</ele><time>2026-04-10T09:37:04.97Z</time></trkpt><trkpt lat="44.7434002" lon="7.803906"><ele>273.0</ele><time>2026-04-10T09:37:07.97Z</time></trkpt><trkpt lat="44.7434661" lon="7.8039924"><ele>273.0</ele><time>2026-04-10T09:37:10.97Z</time></trkpt><trkpt lat="44.7435395" lon="7.8040568"><ele>273.0</ele><time>2026-04-10T09:37:13.969Z</time></trkpt><trkpt lat="44.7436115" lon="7.8041275"><ele>273.0</ele><time>2026-04-10T09:37:16.969Z</time></trkpt><trkpt lat="44.7436697" lon="7.8041629"><ele>273.0</ele><time>2026-04-10T09:37:18.97Z</time></trkpt><trkpt lat="44.7437298" lon="7.8042007"><ele>273.0</ele><time>2026-04-10T09:37:20.97Z</time></trkpt><trkpt lat="44.7437932" lon="7.804244"><ele>273.0</ele><time>2026-04-10T09:37:22.97Z</time></trkpt><trkpt lat="44.7438642" lon="7.8042871"><ele>273.1666666666667</ele><time>2026-04-10T09:37:24.97Z</time></trkpt><trkpt lat="44.7439379" lon="7.8043253"><ele>273.3333333333333</ele><time>2026-04-10T09:37:26.97Z</time></trkpt><trkpt lat="44.7440102" lon="7.8043582"><ele>273.5</ele><time>2026-04-10T09:37:28.97Z</time></trkpt><trkpt lat="44.7440837" lon="7.8043984"><ele>273.66666666666663</ele><time>2026-04-10T09:37:30.969Z</time></trkpt><trkpt lat="44.7441616" lon="7.8044302"><ele>273.8333333333333</ele><time>2026-04-10T09:37:32.97Z</time></trkpt><trkpt lat="44.7442378" lon="7.8044672"><ele>274.0</ele><time>2026-04-10T09:37:34.969Z</time></trkpt><trkpt lat="44.7443106" lon="7.8045172"><ele>274.0</ele><time>2026-04-10T09:37:36.97Z</time></trkpt><trkpt lat="44.7443773" lon="7.8045784"><ele>274.0</ele><time>2026-04-10T09:37:38.969Z</time></trkpt><trkpt lat="44.7444402" lon="7.8046448"><ele>274.0</ele><time>2026-04-10T09:37:40.969Z</time></trkpt><trkpt lat="44.744501" lon="7.8047099"><ele>274.0</ele><time>2026-04-10T09:37:42.97Z</time></trkpt><trkpt lat="44.7445596" lon="7.8047744"><ele>274.0</ele><time>2026-04-10T09:37:44.97Z</time></trkpt><trkpt lat="44.7446134" lon="7.8048495"><ele>274.0</ele><time>2026-04-10T09:37:46.97Z</time></trkpt><trkpt lat="44.7446717" lon="7.8049269"><ele>274.0</ele><time>2026-04-10T09:37:48.97Z</time></trkpt><trkpt lat="44.7447313" lon="7.8050119"><ele>274.0</ele><time>2026-04-10T09:37:50.97Z</time></trkpt><trkpt lat="44.7447911" lon="7.8051101"><ele>274.0</ele><time>2026-04-10T09:37:52.969Z</time></trkpt><trkpt lat="44.7448484" lon="7.8052087"><ele>274.0</ele><time>2026-04-10T09:37:54.97Z</time></trkpt><trkpt lat="44.7449154" lon="7.8053015"><ele>274.0</ele><time>2026-04-10T09:37:56.97Z</time></trkpt><trkpt lat="44.7449785" lon="7.805395"><ele>274.0</ele><time>2026-04-10T09:37:58.97Z</time></trkpt><trkpt lat="44.7450382" lon="7.8054955"><ele>274.0</ele><time>2026-04-10T09:38:00.97Z</time></trkpt><trkpt lat="44.7451056" lon="7.8055855"><ele>274.0</ele><time>2026-04-10T09:38:02.97Z</time></trkpt><trkpt lat="44.7451682" lon="7.8056749"><ele>274.0</ele><time>2026-04-10T09:38:04.969Z</time></trkpt><trkpt lat="44.7452291" lon="7.8057582"><ele>274.0</ele><time>2026-04-10T09:38:06.97Z</time></trkpt><trkpt lat="44.7452899" lon="7.8058317"><ele>274.0</ele><time>2026-04-10T09:38:08.97Z</time></trkpt><trkpt lat="44.7453476" lon="7.8059011"><ele>274.0</ele><time>2026-04-10T09:38:10.97Z</time></trkpt><trkpt lat="44.7454095" lon="7.8059741"><ele>274.0</ele><time>2026-04-10T09:38:12.969Z</time></trkpt><trkpt lat="44.7454718" lon="7.8060525"><ele>274.0</ele><time>2026-04-10T09:38:14.969Z</time></trkpt><trkpt lat="44.7455361" lon="7.8061252"><ele>274.0</ele><time>2026-04-10T09:38:16.969Z</time></trkpt><trkpt lat="44.7455938" lon="7.8061951"><ele>274.0</ele><time>2026-04-10T09:38:18.969Z</time></trkpt><trkpt lat="44.7456467" lon="7.806258"><ele>274.0</ele><time>2026-04-10T09:38:20.969Z</time></trkpt><trkpt lat="44.7456979" lon="7.8063154"><ele>274.0</ele><time>2026-04-10T09:38:22.97Z</time></trkpt><trkpt lat="44.7457491" lon="7.8063694"><ele>274.0</ele><time>2026-04-10T09:38:24.97Z</time></trkpt><trkpt lat="44.745826" lon="7.8064425"><ele>274.0</ele><time>2026-04-10T09:38:27.97Z</time></trkpt><trkpt lat="44.7459014" lon="7.8065091"><ele>274.0</ele><time>2026-04-10T09:38:30.969Z</time></trkpt><trkpt lat="44.7459668" lon="7.8065829"><ele>274.0</ele><time>2026-04-10T09:38:33.97Z</time></trkpt><trkpt lat="44.7460292" lon="7.8066555"><ele>274.0</ele><time>2026-04-10T09:38:36.969Z</time></trkpt><trkpt lat="44.7460934" lon="7.8067332"><ele>274.0</ele><time>2026-04-10T09:38:39.97Z</time></trkpt><trkpt lat="44.7461559" lon="7.806812"><ele>274.0</ele><time>2026-04-10T09:38:42.969Z</time></trkpt><trkpt lat="44.7462117" lon="7.8068818"><ele>274.0</ele><time>2026-04-10T09:38:45.97Z</time></trkpt><trkpt lat="44.7462592" lon="7.8069655"><ele>274.0</ele><time>2026-04-10T09:38:49.97Z</time></trkpt><trkpt lat="44.7463035" lon="7.8070324"><ele>274.0</ele><time>2026-04-10T09:39:02.969Z</time></trkpt><trkpt lat="44.7463684" lon="7.8070692"><ele>274.0</ele><time>2026-04-10T09:39:05.969Z</time></trkpt><trkpt lat="44.7464541" lon="7.8071342"><ele>274.16666666666663</ele><time>2026-04-10T09:39:08.97Z</time></trkpt><trkpt lat="44.7465026" lon="7.807195"><ele>274.3333333333333</ele><time>2026-04-10T09:39:10.97Z</time></trkpt><trkpt lat="44.7465728" lon="7.8072821"><ele>274.5</ele><time>2026-04-10T09:39:13.97Z</time></trkpt><trkpt lat="44.7466163" lon="7.8073481"><ele>274.6666666666667</ele><time>2026-04-10T09:39:17.969Z</time></trkpt><trkpt lat="44.7466795" lon="7.8074072"><ele>274.83333333333337</ele><time>2026-04-10T09:39:21.969Z</time></trkpt><trkpt lat="44.7467577" lon="7.8073895"><ele>275.0</ele><time>2026-04-10T09:39:24.97Z</time></trkpt><trkpt lat="44.746838" lon="7.8073518"><ele>275.1666666666667</ele><time>2026-04-10T09:39:27.97Z</time></trkpt><trkpt lat="44.7469267" lon="7.8073128"><ele>275.33333333333337</ele><time>2026-04-10T09:39:30.97Z</time></trkpt><trkpt lat="44.7469881" lon="7.8072899"><ele>275.5</ele><time>2026-04-10T09:39:32.97Z</time></trkpt><trkpt lat="44.7470506" lon="7.8072653"><ele>275.6666666666667</ele><time>2026-04-10T09:39:34.97Z</time></trkpt><trkpt lat="44.7471193" lon="7.8072461"><ele>275.8333333333333</ele><time>2026-04-10T09:39:36.97Z</time></trkpt><trkpt lat="44.7471851" lon="7.8072221"><ele>276.0</ele><time>2026-04-10T09:39:38.969Z</time></trkpt><trkpt lat="44.7472763" lon="7.8071982"><ele>276.0</ele><time>2026-04-10T09:39:41.97Z</time></trkpt><trkpt lat="44.74736" lon="7.8071646"><ele>276.0</ele><time>2026-04-10T09:39:44.97Z</time></trkpt><trkpt lat="44.7474403" lon="7.8071366"><ele>276.0</ele><time>2026-04-10T09:39:47.97Z</time></trkpt><trkpt lat="44.7475158" lon="7.807105"><ele>276.0</ele><time>2026-04-10T09:39:50.97Z</time></trkpt><trkpt lat="44.7475945" lon="7.8070769"><ele>276.0</ele><time>2026-04-10T09:39:53.97Z</time></trkpt><trkpt lat="44.7476826" lon="7.8070427"><ele>276.0</ele><time>2026-04-10T09:39:56.97Z</time></trkpt><trkpt lat="44.7477445" lon="7.8070225"><ele>276.2857142857143</ele><time>2026-04-10T09:39:58.97Z</time></trkpt><trkpt lat="44.7478066" lon="7.8070071"><ele>276.5714285714286</ele><time>2026-04-10T09:40:00.969Z</time></trkpt><trkpt lat="44.7478726" lon="7.8069871"><ele>276.8571428571429</ele><time>2026-04-10T09:40:02.97Z</time></trkpt><trkpt lat="44.7479386" lon="7.8069647"><ele>277.14285714285717</ele><time>2026-04-10T09:40:04.969Z</time></trkpt><trkpt lat="44.7480043" lon="7.8069393"><ele>277.42857142857144</ele><time>2026-04-10T09:40:06.969Z</time></trkpt><trkpt lat="44.7480707" lon="7.8069209"><ele>277.7142857142857</ele><time>2026-04-10T09:40:08.97Z</time></trkpt><trkpt lat="44.7481336" lon="7.8068969"><ele>278.0</ele><time>2026-04-10T09:40:10.969Z</time></trkpt><trkpt lat="44.748201" lon="7.806874"><ele>278.0</ele><time>2026-04-10T09:40:12.97Z</time></trkpt><trkpt lat="44.7482702" lon="7.8068587"><ele>278.0</ele><time>2026-04-10T09:40:14.97Z</time></trkpt><trkpt lat="44.7483332" lon="7.8068339"><ele>278.0</ele><time>2026-04-10T09:40:16.97Z</time></trkpt><trkpt lat="44.7483969" lon="7.8068143"><ele>278.0</ele><time>2026-04-10T09:40:18.97Z</time></trkpt><trkpt lat="44.7484613" lon="7.8067887"><ele>278.0</ele><time>2026-04-10T09:40:20.97Z</time></trkpt><trkpt lat="44.7485481" lon="7.8067621"><ele>278.0</ele><time>2026-04-10T09:40:23.969Z</time></trkpt><trkpt lat="44.7486119" lon="7.8067565"><ele>278.0</ele><time>2026-04-10T09:40:26.97Z</time></trkpt><trkpt lat="44.7486756" lon="7.8067679"><ele>278.0</ele><time>2026-04-10T09:40:29.97Z</time></trkpt><trkpt lat="44.7487419" lon="7.8068122"><ele>278.0</ele><time>2026-04-10T09:40:32.97Z</time></trkpt><trkpt lat="44.7488127" lon="7.8068775"><ele>278.0</ele><time>2026-04-10T09:40:35.97Z</time></trkpt><trkpt lat="44.7488861" lon="7.8069546"><ele>278.0</ele><time>2026-04-10T09:40:38.97Z</time></trkpt><trkpt lat="44.7489586" lon="7.8070322"><ele>278.0</ele><time>2026-04-10T09:40:41.97Z</time></trkpt><trkpt lat="44.7490332" lon="7.8071094"><ele>278.0</ele><time>2026-04-10T09:40:44.969Z</time></trkpt><trkpt lat="44.7491144" lon="7.8071805"><ele>278.0</ele><time>2026-04-10T09:40:47.969Z</time></trkpt><trkpt lat="44.7491718" lon="7.8072284"><ele>278.0</ele><time>2026-04-10T09:40:49.97Z</time></trkpt><trkpt lat="44.7492254" lon="7.8072763"><ele>278.0</ele><time>2026-04-10T09:40:51.97Z</time></trkpt><trkpt lat="44.7493038" lon="7.8073459"><ele>278.0</ele><time>2026-04-10T09:40:54.97Z</time></trkpt><trkpt lat="44.749357" lon="7.8073945"><ele>278.0</ele><time>2026-04-10T09:40:56.969Z</time></trkpt><trkpt lat="44.7494097" lon="7.8074464"><ele>278.0</ele><time>2026-04-10T09:40:58.97Z</time></trkpt><trkpt lat="44.7494862" lon="7.8075187"><ele>278.0</ele><time>2026-04-10T09:41:01.97Z</time></trkpt><trkpt lat="44.7495592" lon="7.8075965"><ele>278.5</ele><time>2026-04-10T09:41:04.97Z</time></trkpt><trkpt lat="44.7495815" lon="7.8077076"><ele>279.0</ele><time>2026-04-10T09:41:07.969Z</time></trkpt><trkpt lat="44.7495317" lon="7.8078067"><ele>279.5</ele><time>2026-04-10T09:41:10.969Z</time></trkpt><trkpt lat="44.7494798" lon="7.8079047"><ele>280.0</ele><time>2026-04-10T09:41:13.97Z</time></trkpt><trkpt lat="44.7494338" lon="7.8079998"><ele>280.5</ele><time>2026-04-10T09:41:16.97Z</time></trkpt><trkpt lat="44.7493919" lon="7.808095"><ele>281.0</ele><time>2026-04-10T09:41:19.97Z</time></trkpt><trkpt lat="44.7493647" lon="7.8081962"><ele>281.0</ele><time>2026-04-10T09:41:22.969Z</time></trkpt><trkpt lat="44.7493473" lon="7.8083014"><ele>281.0</ele><time>2026-04-10T09:41:25.97Z</time></trkpt><trkpt lat="44.7493151" lon="7.8083948"><ele>281.0</ele><time>2026-04-10T09:41:28.97Z</time></trkpt><trkpt lat="44.7492935" lon="7.8084992"><ele>281.0</ele><time>2026-04-10T09:41:31.97Z</time></trkpt><trkpt lat="44.749268" lon="7.8086005"><ele>281.0</ele><time>2026-04-10T09:41:34.969Z</time></trkpt><trkpt lat="44.7492407" lon="7.8087076"><ele>281.0</ele><time>2026-04-10T09:41:37.97Z</time></trkpt><trkpt lat="44.7491979" lon="7.8088205"><ele>281.00000000000006</ele><time>2026-04-10T09:41:40.97Z</time></trkpt><trkpt lat="44.7491725" lon="7.8089044"><ele>281.0</ele><time>2026-04-10T09:41:42.97Z</time></trkpt><trkpt lat="44.7491448" lon="7.8089929"><ele>281.0</ele><time>2026-04-10T09:41:44.97Z</time></trkpt><trkpt lat="44.7491204" lon="7.80908"><ele>281.0</ele><time>2026-04-10T09:41:46.97Z</time></trkpt><trkpt lat="44.7491036" lon="7.8091725"><ele>281.0</ele><time>2026-04-10T09:41:48.969Z</time></trkpt><trkpt lat="44.7490853" lon="7.8092687"><ele>281.00000000000006</ele><time>2026-04-10T09:41:50.969Z</time></trkpt><trkpt lat="44.7490651" lon="7.8093692"><ele>281.0</ele><time>2026-04-10T09:41:52.969Z</time></trkpt><trkpt lat="44.7490438" lon="7.8094743"><ele>281.0</ele><time>2026-04-10T09:41:54.97Z</time></trkpt><trkpt lat="44.7490252" lon="7.8095813"><ele>281.0</ele><time>2026-04-10T09:41:56.969Z</time></trkpt><trkpt lat="44.7490096" lon="7.8096937"><ele>281.0</ele><time>2026-04-10T09:41:58.969Z</time></trkpt><trkpt lat="44.7489935" lon="7.8098062"><ele>281.0</ele><time>2026-04-10T09:42:00.97Z</time></trkpt><trkpt lat="44.7489838" lon="7.8099259"><ele>281.0</ele><time>2026-04-10T09:42:02.97Z</time></trkpt><trkpt lat="44.7489661" lon="7.8100471"><ele>281.0</ele><time>2026-04-10T09:42:04.97Z</time></trkpt><trkpt lat="44.7489533" lon="7.8101553"><ele>281.5</ele><time>2026-04-10T09:42:06.97Z</time></trkpt><trkpt lat="44.7489532" lon="7.810259"><ele>282.0</ele><time>2026-04-10T09:42:08.97Z</time></trkpt><trkpt lat="44.7489436" lon="7.8103643"><ele>282.5</ele><time>2026-04-10T09:42:10.97Z</time></trkpt><trkpt lat="44.748936" lon="7.8104755"><ele>283.0</ele><time>2026-04-10T09:42:12.97Z</time></trkpt><trkpt lat="44.7489004" lon="7.8105733"><ele>283.5</ele><time>2026-04-10T09:42:14.97Z</time></trkpt><trkpt lat="44.7488741" lon="7.8106747"><ele>284.0</ele><time>2026-04-10T09:42:16.97Z</time></trkpt><trkpt lat="44.7488553" lon="7.8107735"><ele>284.0</ele><time>2026-04-10T09:42:18.97Z</time></trkpt><trkpt lat="44.7488307" lon="7.8108657"><ele>284.0</ele><time>2026-04-10T09:42:20.97Z</time></trkpt><trkpt lat="44.7488075" lon="7.8109528"><ele>284.0</ele><time>2026-04-10T09:42:22.969Z</time></trkpt><trkpt lat="44.7487812" lon="7.8110356"><ele>284.0</ele><time>2026-04-10T09:42:24.97Z</time></trkpt><trkpt lat="44.7487483" lon="7.8111136"><ele>284.0</ele><time>2026-04-10T09:42:26.969Z</time></trkpt><trkpt lat="44.7487136" lon="7.8111939"><ele>284.0</ele><time>2026-04-10T09:42:28.969Z</time></trkpt><trkpt lat="44.748683" lon="7.8112757"><ele>284.0</ele><time>2026-04-10T09:42:30.97Z</time></trkpt><trkpt lat="44.7486618" lon="7.8113621"><ele>284.42857142857144</ele><time>2026-04-10T09:42:32.97Z</time></trkpt><trkpt lat="44.7486333" lon="7.8114882"><ele>284.85714285714283</ele><time>2026-04-10T09:42:35.969Z</time></trkpt><trkpt lat="44.7486068" lon="7.8115732"><ele>285.2857142857143</ele><time>2026-04-10T09:42:37.97Z</time></trkpt><trkpt lat="44.7485828" lon="7.8116596"><ele>285.7142857142857</ele><time>2026-04-10T09:42:39.97Z</time></trkpt><trkpt lat="44.7485629" lon="7.8117484"><ele>286.1428571428571</ele><time>2026-04-10T09:42:41.97Z</time></trkpt><trkpt lat="44.7485466" lon="7.8118345"><ele>286.57142857142856</ele><time>2026-04-10T09:42:43.97Z</time></trkpt><trkpt lat="44.7485223" lon="7.8119561"><ele>287.0</ele><time>2026-04-10T09:42:46.969Z</time></trkpt><trkpt lat="44.7485032" lon="7.8120764"><ele>287.0</ele><time>2026-04-10T09:42:49.969Z</time></trkpt><trkpt lat="44.7484825" lon="7.8121612"><ele>287.0</ele><time>2026-04-10T09:42:51.97Z</time></trkpt><trkpt lat="44.7484607" lon="7.8122488"><ele>287.0</ele><time>2026-04-10T09:42:53.97Z</time></trkpt><trkpt lat="44.7484423" lon="7.8123339"><ele>287.0</ele><time>2026-04-10T09:42:55.97Z</time></trkpt><trkpt lat="44.7484209" lon="7.8124179"><ele>287.0</ele><time>2026-04-10T09:42:57.969Z</time></trkpt><trkpt lat="44.7483895" lon="7.8125376"><ele>287.0</ele><time>2026-04-10T09:43:00.969Z</time></trkpt><trkpt lat="44.7483533" lon="7.8126526"><ele>287.0</ele><time>2026-04-10T09:43:03.97Z</time></trkpt><trkpt lat="44.748322" lon="7.8127623"><ele>287.33333333333337</ele><time>2026-04-10T09:43:06.969Z</time></trkpt><trkpt lat="44.74829" lon="7.8128649"><ele>287.6666666666667</ele><time>2026-04-10T09:43:09.97Z</time></trkpt><trkpt lat="44.7482551" lon="7.8129685"><ele>288.0</ele><time>2026-04-10T09:43:12.97Z</time></trkpt><trkpt lat="44.7482252" lon="7.8130819"><ele>288.3333333333333</ele><time>2026-04-10T09:43:15.97Z</time></trkpt><trkpt lat="44.7481964" lon="7.8131929"><ele>288.66666666666663</ele><time>2026-04-10T09:43:18.97Z</time></trkpt><trkpt lat="44.7481665" lon="7.813292"><ele>289.0</ele><time>2026-04-10T09:43:21.969Z</time></trkpt><trkpt lat="44.7481356" lon="7.8133931"><ele>288.8333333333333</ele><time>2026-04-10T09:43:24.969Z</time></trkpt><trkpt lat="44.7481099" lon="7.8135011"><ele>288.66666666666663</ele><time>2026-04-10T09:43:27.97Z</time></trkpt><trkpt lat="44.748095" lon="7.8136103"><ele>288.5</ele><time>2026-04-10T09:43:30.97Z</time></trkpt><trkpt lat="44.7480797" lon="7.8137167"><ele>288.3333333333333</ele><time>2026-04-10T09:43:33.969Z</time></trkpt><trkpt lat="44.7480652" lon="7.8138283"><ele>288.1666666666667</ele><time>2026-04-10T09:43:36.969Z</time></trkpt><trkpt lat="44.7480521" lon="7.8139407"><ele>288.0</ele><time>2026-04-10T09:43:39.97Z</time></trkpt><trkpt lat="44.74804" lon="7.8140479"><ele>288.0</ele><time>2026-04-10T09:43:42.97Z</time></trkpt><trkpt lat="44.7480149" lon="7.8141638"><ele>288.0</ele><time>2026-04-10T09:43:45.97Z</time></trkpt><trkpt lat="44.7479832" lon="7.8142473"><ele>288.0</ele><time>2026-04-10T09:43:47.97Z</time></trkpt><trkpt lat="44.7479556" lon="7.8143307"><ele>288.0</ele><time>2026-04-10T09:43:49.97Z</time></trkpt><trkpt lat="44.7479451" lon="7.8144688"><ele>288.0</ele><time>2026-04-10T09:43:52.97Z</time></trkpt><trkpt lat="44.747942" lon="7.8145726"><ele>288.0</ele><time>2026-04-10T09:43:54.969Z</time></trkpt><trkpt lat="44.7479423" lon="7.8146831"><ele>288.5</ele><time>2026-04-10T09:43:56.97Z</time></trkpt><trkpt lat="44.747943" lon="7.8147997"><ele>289.0</ele><time>2026-04-10T09:43:58.97Z</time></trkpt><trkpt lat="44.7479484" lon="7.8149239"><ele>289.5</ele><time>2026-04-10T09:44:00.97Z</time></trkpt><trkpt lat="44.7479553" lon="7.8150502"><ele>290.0</ele><time>2026-04-10T09:44:02.97Z</time></trkpt><trkpt lat="44.7479704" lon="7.8151745"><ele>290.5</ele><time>2026-04-10T09:44:04.97Z</time></trkpt><trkpt lat="44.747977" lon="7.8153047"><ele>291.0</ele><time>2026-04-10T09:44:06.969Z</time></trkpt><trkpt lat="44.7479911" lon="7.8154291"><ele>291.1666666666667</ele><time>2026-04-10T09:44:08.97Z</time></trkpt><trkpt lat="44.7479943" lon="7.8155512"><ele>291.3333333333333</ele><time>2026-04-10T09:44:10.97Z</time></trkpt><trkpt lat="44.7480008" lon="7.8156692"><ele>291.5</ele><time>2026-04-10T09:44:12.969Z</time></trkpt><trkpt lat="44.7479946" lon="7.8157826"><ele>291.66666666666663</ele><time>2026-04-10T09:44:14.97Z</time></trkpt><trkpt lat="44.7479857" lon="7.815895"><ele>291.8333333333333</ele><time>2026-04-10T09:44:16.97Z</time></trkpt><trkpt lat="44.7479706" lon="7.8160021"><ele>292.0</ele><time>2026-04-10T09:44:18.97Z</time></trkpt><trkpt lat="44.7479535" lon="7.8161089"><ele>292.0</ele><time>2026-04-10T09:44:20.969Z</time></trkpt><trkpt lat="44.7479379" lon="7.8162163"><ele>292.0</ele><time>2026-04-10T09:44:22.969Z</time></trkpt><trkpt lat="44.7479178" lon="7.816318"><ele>292.0</ele><time>2026-04-10T09:44:24.969Z</time></trkpt><trkpt lat="44.747901" lon="7.8164148"><ele>292.0</ele><time>2026-04-10T09:44:26.97Z</time></trkpt><trkpt lat="44.7478842" lon="7.8165054"><ele>292.0</ele><time>2026-04-10T09:44:28.97Z</time></trkpt><trkpt lat="44.7478546" lon="7.8166305"><ele>292.0</ele><time>2026-04-10T09:44:31.969Z</time></trkpt><trkpt lat="44.7478345" lon="7.8167548"><ele>292.3333333333333</ele><time>2026-04-10T09:44:34.97Z</time></trkpt><trkpt lat="44.7478201" lon="7.8168428"><ele>292.66666666666663</ele><time>2026-04-10T09:44:36.969Z</time></trkpt><trkpt lat="44.7478053" lon="7.8169418"><ele>293.0</ele><time>2026-04-10T09:44:38.97Z</time></trkpt><trkpt lat="44.7477832" lon="7.8170568"><ele>293.3333333333333</ele><time>2026-04-10T09:44:40.97Z</time></trkpt><trkpt lat="44.7477533" lon="7.8171804"><ele>293.6666666666667</ele><time>2026-04-10T09:44:42.969Z</time></trkpt><trkpt lat="44.7477283" lon="7.8173006"><ele>294.0</ele><time>2026-04-10T09:44:44.97Z</time></trkpt><trkpt lat="44.7477023" lon="7.8174011"><ele>292.6666666666667</ele><time>2026-04-10T09:44:46.969Z</time></trkpt><trkpt lat="44.7476899" lon="7.8174889"><ele>291.3333333333333</ele><time>2026-04-10T09:44:48.969Z</time></trkpt><trkpt lat="44.7476424" lon="7.8176095"><ele>290.0</ele><time>2026-04-10T09:44:51.97Z</time></trkpt><trkpt lat="44.7476022" lon="7.8176866"><ele>288.66666666666663</ele><time>2026-04-10T09:44:53.97Z</time></trkpt><trkpt lat="44.7475502" lon="7.8177944"><ele>287.3333333333333</ele><time>2026-04-10T09:44:56.97Z</time></trkpt><trkpt lat="44.7475043" lon="7.8179011"><ele>286.0</ele><time>2026-04-10T09:44:59.97Z</time></trkpt><trkpt lat="44.7474519" lon="7.8179967"><ele>285.99999999999994</ele><time>2026-04-10T09:45:02.97Z</time></trkpt><trkpt lat="44.7474116" lon="7.818071"><ele>286.0</ele><time>2026-04-10T09:45:04.97Z</time></trkpt><trkpt lat="44.7473679" lon="7.8181404"><ele>286.0</ele><time>2026-04-10T09:45:06.969Z</time></trkpt><trkpt lat="44.7473266" lon="7.8182088"><ele>286.0</ele><time>2026-04-10T09:45:08.97Z</time></trkpt><trkpt lat="44.7472767" lon="7.8183168"><ele>286.0</ele><time>2026-04-10T09:45:11.97Z</time></trkpt><trkpt lat="44.7472284" lon="7.8184137"><ele>285.99999999999994</ele><time>2026-04-10T09:45:14.97Z</time></trkpt><trkpt lat="44.7471994" lon="7.818507"><ele>286.0</ele><time>2026-04-10T09:45:17.97Z</time></trkpt><trkpt lat="44.7471702" lon="7.8185898"><ele>286.66666666666663</ele><time>2026-04-10T09:45:20.969Z</time></trkpt><trkpt lat="44.7471323" lon="7.8187053"><ele>287.3333333333333</ele><time>2026-04-10T09:45:23.97Z</time></trkpt><trkpt lat="44.7471001" lon="7.8188321"><ele>288.0</ele><time>2026-04-10T09:45:26.97Z</time></trkpt><trkpt lat="44.7470766" lon="7.8189238"><ele>288.6666666666667</ele><time>2026-04-10T09:45:28.969Z</time></trkpt><trkpt lat="44.7470511" lon="7.8190197"><ele>289.33333333333337</ele><time>2026-04-10T09:45:30.969Z</time></trkpt><trkpt lat="44.7470189" lon="7.8191001"><ele>290.0</ele><time>2026-04-10T09:45:32.97Z</time></trkpt><trkpt lat="44.7469801" lon="7.8192131"><ele>290.57142857142856</ele><time>2026-04-10T09:45:35.969Z</time></trkpt><trkpt lat="44.7469655" lon="7.8193424"><ele>291.14285714285717</ele><time>2026-04-10T09:45:38.969Z</time></trkpt><trkpt lat="44.7469844" lon="7.8194579"><ele>291.7142857142857</ele><time>2026-04-10T09:45:41.97Z</time></trkpt><trkpt lat="44.747023" lon="7.8195377"><ele>292.2857142857143</ele><time>2026-04-10T09:45:44.97Z</time></trkpt><trkpt lat="44.7470823" lon="7.8195815"><ele>292.8571428571429</ele><time>2026-04-10T09:45:47.97Z</time></trkpt><trkpt lat="44.7471515" lon="7.8195936"><ele>293.42857142857144</ele><time>2026-04-10T09:45:50.97Z</time></trkpt><trkpt lat="44.7472155" lon="7.8196073"><ele>294.0</ele><time>2026-04-10T09:45:53.969Z</time></trkpt><trkpt lat="44.7472819" lon="7.8196246"><ele>294.0</ele><time>2026-04-10T09:45:56.97Z</time></trkpt><trkpt lat="44.7473542" lon="7.8196727"><ele>294.0</ele><time>2026-04-10T09:46:00.969Z</time></trkpt><trkpt lat="44.7474099" lon="7.8197463"><ele>294.0</ele><time>2026-04-10T09:46:04.97Z</time></trkpt><trkpt lat="44.7474393" lon="7.8198265"><ele>294.0</ele><time>2026-04-10T09:46:08.97Z</time></trkpt><trkpt lat="44.7474627" lon="7.8199151"><ele>294.0</ele><time>2026-04-10T09:46:13.97Z</time></trkpt><trkpt lat="44.7475003" lon="7.8199962"><ele>294.0</ele><time>2026-04-10T09:46:18.97Z</time></trkpt><trkpt lat="44.7475366" lon="7.8200815"><ele>294.0</ele><time>2026-04-10T09:46:23.97Z</time></trkpt><trkpt lat="44.747581" lon="7.8201529"><ele>294.2857142857143</ele><time>2026-04-10T09:46:28.97Z</time></trkpt><trkpt lat="44.7476288" lon="7.8202255"><ele>294.57142857142856</ele><time>2026-04-10T09:46:33.97Z</time></trkpt><trkpt lat="44.7476754" lon="7.8202899"><ele>294.8571428571429</ele><time>2026-04-10T09:46:39.97Z</time></trkpt><trkpt lat="44.7477299" lon="7.8203519"><ele>295.1428571428571</ele><time>2026-04-10T09:46:46.97Z</time></trkpt><trkpt lat="44.7477801" lon="7.820406"><ele>295.42857142857144</ele><time>2026-04-10T09:46:52.97Z</time></trkpt><trkpt lat="44.7478383" lon="7.8204469"><ele>295.7142857142857</ele><time>2026-04-10T09:46:58.97Z</time></trkpt><trkpt lat="44.7479023" lon="7.8205041"><ele>296.0</ele><time>2026-04-10T09:47:41.97Z</time></trkpt><trkpt lat="44.7479738" lon="7.8205304"><ele>296.8571428571429</ele><time>2026-04-10T09:47:45.97Z</time></trkpt><trkpt lat="44.7480436" lon="7.8205338"><ele>297.7142857142857</ele><time>2026-04-10T09:47:49.97Z</time></trkpt><trkpt lat="44.7481072" lon="7.8205286"><ele>298.57142857142856</ele><time>2026-04-10T09:47:52.97Z</time></trkpt><trkpt lat="44.7481895" lon="7.8205294"><ele>299.42857142857144</ele><time>2026-04-10T09:47:56.969Z</time></trkpt><trkpt lat="44.7482536" lon="7.8205326"><ele>300.2857142857143</ele><time>2026-04-10T09:47:59.97Z</time></trkpt><trkpt lat="44.7483331" lon="7.8205473"><ele>301.14285714285717</ele><time>2026-04-10T09:48:03.969Z</time></trkpt><trkpt lat="44.7484087" lon="7.8205574"><ele>302.0</ele><time>2026-04-10T09:48:07.97Z</time></trkpt><trkpt lat="44.7484708" lon="7.8205835"><ele>302.00000000000006</ele><time>2026-04-10T09:48:10.969Z</time></trkpt><trkpt lat="44.7485411" lon="7.8206452"><ele>302.0</ele><time>2026-04-10T09:48:13.969Z</time></trkpt><trkpt lat="44.7486103" lon="7.8206702"><ele>302.0</ele><time>2026-04-10T09:48:16.97Z</time></trkpt><trkpt lat="44.7486801" lon="7.8206988"><ele>302.0</ele><time>2026-04-10T09:48:20.969Z</time></trkpt><trkpt lat="44.7487417" lon="7.8207225"><ele>302.0</ele><time>2026-04-10T09:48:25.97Z</time></trkpt><trkpt lat="44.7487986" lon="7.8207753"><ele>302.00000000000006</ele><time>2026-04-10T09:48:57.969Z</time></trkpt><trkpt lat="44.7488565" lon="7.8208209"><ele>302.0</ele><time>2026-04-10T09:49:04.97Z</time></trkpt><trkpt lat="44.7489146" lon="7.8208568"><ele>303.5714285714286</ele><time>2026-04-10T09:49:10.97Z</time></trkpt><trkpt lat="44.7489829" lon="7.8208201"><ele>305.14285714285717</ele><time>2026-04-10T09:53:05.97Z</time></trkpt><trkpt lat="44.7490409" lon="7.8208822"><ele>306.7142857142857</ele><time>2026-04-10T09:53:13.97Z</time></trkpt><trkpt lat="44.7490678" lon="7.8209643"><ele>308.28571428571433</ele><time>2026-04-10T09:53:20.969Z</time></trkpt><trkpt lat="44.7491219" lon="7.82101"><ele>309.8571428571429</ele><time>2026-04-10T09:53:30.97Z</time></trkpt><trkpt lat="44.7491807" lon="7.8210496"><ele>311.42857142857144</ele><time>2026-04-10T09:53:36.97Z</time></trkpt><trkpt lat="44.7492401" lon="7.8210878"><ele>313.0</ele><time>2026-04-10T09:53:42.969Z</time></trkpt><trkpt lat="44.7492992" lon="7.8211251"><ele>314.2857142857143</ele><time>2026-04-10T09:53:48.97Z</time></trkpt><trkpt lat="44.7493589" lon="7.8211664"><ele>315.57142857142856</ele><time>2026-04-10T09:53:54.969Z</time></trkpt><trkpt lat="44.749424" lon="7.8212107"><ele>316.8571428571429</ele><time>2026-04-10T09:54:00.97Z</time></trkpt><trkpt lat="44.7494821" lon="7.8212535"><ele>318.1428571428571</ele><time>2026-04-10T09:54:06.969Z</time></trkpt><trkpt lat="44.7495415" lon="7.8212877"><ele>319.42857142857144</ele><time>2026-04-10T09:54:12.97Z</time></trkpt><trkpt lat="44.7496019" lon="7.8213128"><ele>320.7142857142857</ele><time>2026-04-10T09:54:19.97Z</time></trkpt><trkpt lat="44.7496656" lon="7.8213323"><ele>322.0</ele><time>2026-04-10T09:54:25.97Z</time></trkpt><trkpt lat="44.7497289" lon="7.8213578"><ele>322.57142857142856</ele><time>2026-04-10T09:54:31.97Z</time></trkpt><trkpt lat="44.7497981" lon="7.821357"><ele>323.1428571428571</ele><time>2026-04-10T09:54:48.97Z</time></trkpt><trkpt lat="44.7498608" lon="7.8213883"><ele>323.7142857142857</ele><time>2026-04-10T09:54:54.97Z</time></trkpt><trkpt lat="44.7499216" lon="7.8214308"><ele>324.2857142857143</ele><time>2026-04-10T09:55:00.969Z</time></trkpt><trkpt lat="44.7499826" lon="7.8214737"><ele>324.85714285714283</ele><time>2026-04-10T09:55:07.97Z</time></trkpt><trkpt lat="44.7500398" lon="7.8215239"><ele>325.42857142857144</ele><time>2026-04-10T09:55:14.969Z</time></trkpt><trkpt lat="44.7500991" lon="7.8215575"><ele>326.0</ele><time>2026-04-10T09:55:20.97Z</time></trkpt><trkpt lat="44.7501627" lon="7.8216004"><ele>326.8571428571429</ele><time>2026-04-10T09:55:27.97Z</time></trkpt><trkpt lat="44.7502162" lon="7.8216625"><ele>327.71428571428567</ele><time>2026-04-10T09:55:34.97Z</time></trkpt><trkpt lat="44.7502613" lon="7.8217295"><ele>328.57142857142856</ele><time>2026-04-10T09:55:40.97Z</time></trkpt><trkpt lat="44.7503066" lon="7.8218005"><ele>329.42857142857144</ele><time>2026-04-10T09:55:46.969Z</time></trkpt><trkpt lat="44.7503481" lon="7.8218774"><ele>330.28571428571433</ele><time>2026-04-10T09:55:52.969Z</time></trkpt><trkpt lat="44.7503905" lon="7.8219563"><ele>331.1428571428571</ele><time>2026-04-10T09:55:59.97Z</time></trkpt><trkpt lat="44.7504304" lon="7.8220358"><ele>332.0</ele><time>2026-04-10T09:56:07.97Z</time></trkpt><trkpt lat="44.7504612" lon="7.8221177"><ele>332.0</ele><time>2026-04-10T09:56:13.97Z</time></trkpt><trkpt lat="44.7505018" lon="7.8222024"><ele>332.0</ele><time>2026-04-10T09:56:21.969Z</time></trkpt><trkpt lat="44.7505279" lon="7.8222954"><ele>332.0</ele><time>2026-04-10T09:56:28.97Z</time></trkpt><trkpt lat="44.7505579" lon="7.8223859"><ele>332.0</ele><time>2026-04-10T09:56:35.97Z</time></trkpt><trkpt lat="44.7505912" lon="7.8224761"><ele>332.0</ele><time>2026-04-10T09:56:41.969Z</time></trkpt><trkpt lat="44.7506137" lon="7.8225689"><ele>332.0</ele><time>2026-04-10T09:56:50.969Z</time></trkpt><trkpt lat="44.7506213" lon="7.8226608"><ele>332.0</ele><time>2026-04-10T09:57:07.97Z</time></trkpt><trkpt lat="44.7506597" lon="7.8227441"><ele>332.85714285714283</ele><time>2026-04-10T09:57:13.97Z</time></trkpt><trkpt lat="44.7506772" lon="7.8228308"><ele>333.7142857142857</ele><time>2026-04-10T09:57:19.969Z</time></trkpt><trkpt lat="44.7506726" lon="7.8229297"><ele>334.57142857142856</ele><time>2026-04-10T09:57:26.97Z</time></trkpt><trkpt lat="44.7506173" lon="7.8229804"><ele>335.42857142857144</ele><time>2026-04-10T09:57:32.97Z</time></trkpt><trkpt lat="44.750552" lon="7.8230087"><ele>336.2857142857143</ele><time>2026-04-10T09:57:39.97Z</time></trkpt><trkpt lat="44.7504996" lon="7.8230589"><ele>337.14285714285717</ele><time>2026-04-10T09:57:58.97Z</time></trkpt><trkpt lat="44.7504445" lon="7.8231176"><ele>338.0</ele><time>2026-04-10T09:58:04.97Z</time></trkpt><trkpt lat="44.7503873" lon="7.8231804"><ele>338.0</ele><time>2026-04-10T09:58:10.97Z</time></trkpt><trkpt lat="44.7503348" lon="7.8232383"><ele>338.0</ele><time>2026-04-10T09:58:16.969Z</time></trkpt><trkpt lat="44.7502828" lon="7.823303"><ele>338.0</ele><time>2026-04-10T09:58:22.97Z</time></trkpt><trkpt lat="44.7502227" lon="7.8233425"><ele>338.0</ele><time>2026-04-10T09:58:28.97Z</time></trkpt><trkpt lat="44.7501715" lon="7.8234006"><ele>338.0</ele><time>2026-04-10T09:58:35.97Z</time></trkpt><trkpt lat="44.7501976" lon="7.8234836"><ele>338.0</ele><time>2026-04-10T09:58:42.969Z</time></trkpt><trkpt lat="44.7502711" lon="7.8234922"><ele>338.0</ele><time>2026-04-10T09:58:49.97Z</time></trkpt><trkpt lat="44.750335" lon="7.8234974"><ele>338.42857142857144</ele><time>2026-04-10T09:58:56.97Z</time></trkpt><trkpt lat="44.7504005" lon="7.8235145"><ele>338.85714285714283</ele><time>2026-04-10T09:59:11.97Z</time></trkpt><trkpt lat="44.7504639" lon="7.8235023"><ele>339.2857142857143</ele><time>2026-04-10T09:59:19.97Z</time></trkpt><trkpt lat="44.7505298" lon="7.8234942"><ele>339.7142857142857</ele><time>2026-04-10T09:59:27.97Z</time></trkpt><trkpt lat="44.7505949" lon="7.823489"><ele>340.14285714285717</ele><time>2026-04-10T09:59:35.969Z</time></trkpt><trkpt lat="44.7506601" lon="7.8234896"><ele>340.57142857142856</ele><time>2026-04-10T09:59:42.969Z</time></trkpt><trkpt lat="44.7507233" lon="7.8234989"><ele>341.0</ele><time>2026-04-10T09:59:48.97Z</time></trkpt><trkpt lat="44.7507803" lon="7.8235383"><ele>341.0</ele><time>2026-04-10T09:59:54.97Z</time></trkpt><trkpt lat="44.7508419" lon="7.8235092"><ele>341.0</ele><time>2026-04-10T10:00:29.97Z</time></trkpt><trkpt lat="44.7509026" lon="7.823472"><ele>341.0</ele><time>2026-04-10T10:00:41.97Z</time></trkpt><trkpt lat="44.7509652" lon="7.823412"><ele>341.0</ele><time>2026-04-10T10:00:46.97Z</time></trkpt><trkpt lat="44.7510241" lon="7.8233611"><ele>341.0</ele><time>2026-04-10T10:00:50.97Z</time></trkpt><trkpt lat="44.7510843" lon="7.8233232"><ele>341.0</ele><time>2026-04-10T10:00:54.97Z</time></trkpt><trkpt lat="44.7511539" lon="7.823277"><ele>341.0</ele><time>2026-04-10T10:00:59.969Z</time></trkpt><trkpt lat="44.7512234" lon="7.8232789"><ele>341.0</ele><time>2026-04-10T10:01:04.97Z</time></trkpt><trkpt lat="44.7512127" lon="7.8233663"><ele>341.0</ele><time>2026-04-10T10:01:12.969Z</time></trkpt><trkpt lat="44.7511765" lon="7.823455"><ele>341.0</ele><time>2026-04-10T10:01:18.97Z</time></trkpt><trkpt lat="44.7511421" lon="7.8235408"><ele>341.0</ele><time>2026-04-10T10:01:23.97Z</time></trkpt><trkpt lat="44.7510931" lon="7.8236203"><ele>341.0</ele><time>2026-04-10T10:01:28.97Z</time></trkpt><trkpt lat="44.7510551" lon="7.8237201"><ele>341.0</ele><time>2026-04-10T10:01:32.969Z</time></trkpt><trkpt lat="44.7510085" lon="7.8238192"><ele>341.0</ele><time>2026-04-10T10:01:36.969Z</time></trkpt><trkpt lat="44.7509727" lon="7.8239038"><ele>341.0</ele><time>2026-04-10T10:01:39.969Z</time></trkpt><trkpt lat="44.7509372" lon="7.8239909"><ele>341.0</ele><time>2026-04-10T10:01:42.969Z</time></trkpt><trkpt lat="44.750888" lon="7.8240762"><ele>341.0</ele><time>2026-04-10T10:01:45.97Z</time></trkpt><trkpt lat="44.7508363" lon="7.8241867"><ele>341.0</ele><time>2026-04-10T10:01:48.97Z</time></trkpt><trkpt lat="44.7507968" lon="7.8242684"><ele>341.0</ele><time>2026-04-10T10:01:50.97Z</time></trkpt><trkpt lat="44.7507536" lon="7.8243504"><ele>341.0</ele><time>2026-04-10T10:01:52.969Z</time></trkpt><trkpt lat="44.750711" lon="7.8244366"><ele>340.83333333333337</ele><time>2026-04-10T10:01:54.97Z</time></trkpt><trkpt lat="44.7506718" lon="7.8245289"><ele>340.6666666666667</ele><time>2026-04-10T10:01:56.97Z</time></trkpt><trkpt lat="44.7506321" lon="7.8246238"><ele>340.5</ele><time>2026-04-10T10:01:58.97Z</time></trkpt><trkpt lat="44.7505856" lon="7.8247182"><ele>340.3333333333333</ele><time>2026-04-10T10:02:00.969Z</time></trkpt><trkpt lat="44.7505387" lon="7.8248136"><ele>340.16666666666663</ele><time>2026-04-10T10:02:02.97Z</time></trkpt><trkpt lat="44.7504913" lon="7.8249087"><ele>340.0</ele><time>2026-04-10T10:02:04.969Z</time></trkpt><trkpt lat="44.7504455" lon="7.824999"><ele>340.0</ele><time>2026-04-10T10:02:06.97Z</time></trkpt><trkpt lat="44.7504002" lon="7.8250818"><ele>340.0</ele><time>2026-04-10T10:02:08.97Z</time></trkpt><trkpt lat="44.7503614" lon="7.8251644"><ele>340.0</ele><time>2026-04-10T10:02:10.97Z</time></trkpt><trkpt lat="44.7503191" lon="7.8252426"><ele>340.0</ele><time>2026-04-10T10:02:12.97Z</time></trkpt><trkpt lat="44.7502748" lon="7.8253142"><ele>340.0</ele><time>2026-04-10T10:02:14.97Z</time></trkpt><trkpt lat="44.7502391" lon="7.8253919"><ele>340.0</ele><time>2026-04-10T10:02:16.97Z</time></trkpt><trkpt lat="44.7501966" lon="7.8254602"><ele>340.0</ele><time>2026-04-10T10:02:18.97Z</time></trkpt><trkpt lat="44.7501563" lon="7.8255291"><ele>340.0</ele><time>2026-04-10T10:02:20.97Z</time></trkpt><trkpt lat="44.7501008" lon="7.8256338"><ele>340.0</ele><time>2026-04-10T10:02:23.97Z</time></trkpt><trkpt lat="44.7500418" lon="7.8257357"><ele>340.0</ele><time>2026-04-10T10:02:26.969Z</time></trkpt><trkpt lat="44.750002" lon="7.8258101"><ele>340.0</ele><time>2026-04-10T10:02:28.969Z</time></trkpt><trkpt lat="44.7499583" lon="7.8258926"><ele>340.0</ele><time>2026-04-10T10:02:30.969Z</time></trkpt><trkpt lat="44.7499215" lon="7.8259863"><ele>340.0</ele><time>2026-04-10T10:02:32.97Z</time></trkpt><trkpt lat="44.7498737" lon="7.8260721"><ele>340.0</ele><time>2026-04-10T10:02:34.969Z</time></trkpt><trkpt lat="44.7498258" lon="7.8261583"><ele>340.0</ele><time>2026-04-10T10:02:36.97Z</time></trkpt><trkpt lat="44.7497791" lon="7.826246"><ele>340.0</ele><time>2026-04-10T10:02:38.97Z</time></trkpt><trkpt lat="44.7497346" lon="7.8263299"><ele>340.0</ele><time>2026-04-10T10:02:40.97Z</time></trkpt><trkpt lat="44.7496933" lon="7.8264144"><ele>340.0</ele><time>2026-04-10T10:02:42.969Z</time></trkpt><trkpt lat="44.749653" lon="7.8264971"><ele>340.0</ele><time>2026-04-10T10:02:44.97Z</time></trkpt><trkpt lat="44.7496087" lon="7.8265812"><ele>340.0</ele><time>2026-04-10T10:02:46.97Z</time></trkpt><trkpt lat="44.7495678" lon="7.8266722"><ele>340.0</ele><time>2026-04-10T10:02:48.97Z</time></trkpt><trkpt lat="44.7495186" lon="7.8267564"><ele>340.0</ele><time>2026-04-10T10:02:50.97Z</time></trkpt><trkpt lat="44.7494672" lon="7.8268392"><ele>340.0</ele><time>2026-04-10T10:02:52.969Z</time></trkpt><trkpt lat="44.7494121" lon="7.8269187"><ele>340.0</ele><time>2026-04-10T10:02:54.97Z</time></trkpt><trkpt lat="44.7493642" lon="7.8269985"><ele>340.0</ele><time>2026-04-10T10:02:56.97Z</time></trkpt><trkpt lat="44.7493191" lon="7.8270749"><ele>340.0</ele><time>2026-04-10T10:02:58.97Z</time></trkpt><trkpt lat="44.7492681" lon="7.8271435"><ele>340.8571428571429</ele><time>2026-04-10T10:03:00.97Z</time></trkpt><trkpt lat="44.7492151" lon="7.8272077"><ele>341.71428571428567</ele><time>2026-04-10T10:03:02.969Z</time></trkpt><trkpt lat="44.7491711" lon="7.8272805"><ele>342.57142857142856</ele><time>2026-04-10T10:03:04.97Z</time></trkpt><trkpt lat="44.7491299" lon="7.8273551"><ele>343.42857142857144</ele><time>2026-04-10T10:03:06.969Z</time></trkpt><trkpt lat="44.7490879" lon="7.8274253"><ele>344.28571428571433</ele><time>2026-04-10T10:03:08.97Z</time></trkpt><trkpt lat="44.7490452" lon="7.8274907"><ele>345.1428571428571</ele><time>2026-04-10T10:03:10.97Z</time></trkpt><trkpt lat="44.7490021" lon="7.8275574"><ele>346.0</ele><time>2026-04-10T10:03:12.97Z</time></trkpt><trkpt lat="44.7489352" lon="7.8276449"><ele>346.0</ele><time>2026-04-10T10:03:15.97Z</time></trkpt><trkpt lat="44.748868" lon="7.8277384"><ele>346.0</ele><time>2026-04-10T10:03:18.97Z</time></trkpt><trkpt lat="44.7488164" lon="7.8278083"><ele>346.0</ele><time>2026-04-10T10:03:20.97Z</time></trkpt><trkpt lat="44.748757" lon="7.8278762"><ele>346.0</ele><time>2026-04-10T10:03:22.97Z</time></trkpt><trkpt lat="44.7486922" lon="7.8279476"><ele>346.0</ele><time>2026-04-10T10:03:24.969Z</time></trkpt><trkpt lat="44.7486283" lon="7.8280242"><ele>346.0</ele><time>2026-04-10T10:03:26.97Z</time></trkpt><trkpt lat="44.7485651" lon="7.8280996"><ele>345.8333333333333</ele><time>2026-04-10T10:03:28.97Z</time></trkpt><trkpt lat="44.7485038" lon="7.828172"><ele>345.66666666666663</ele><time>2026-04-10T10:03:30.97Z</time></trkpt><trkpt lat="44.7484478" lon="7.8282491"><ele>345.5</ele><time>2026-04-10T10:03:32.97Z</time></trkpt><trkpt lat="44.7483989" lon="7.828333"><ele>345.3333333333333</ele><time>2026-04-10T10:03:34.969Z</time></trkpt><trkpt lat="44.7483593" lon="7.8284251"><ele>345.1666666666667</ele><time>2026-04-10T10:03:36.97Z</time></trkpt><trkpt lat="44.7483208" lon="7.8285186"><ele>345.0</ele><time>2026-04-10T10:03:38.97Z</time></trkpt><trkpt lat="44.7482863" lon="7.8286122"><ele>345.3333333333333</ele><time>2026-04-10T10:03:40.97Z</time></trkpt><trkpt lat="44.7482467" lon="7.8286996"><ele>345.6666666666667</ele><time>2026-04-10T10:03:42.969Z</time></trkpt><trkpt lat="44.7482055" lon="7.8287822"><ele>346.0</ele><time>2026-04-10T10:03:44.97Z</time></trkpt><trkpt lat="44.7481703" lon="7.8288643"><ele>346.33333333333337</ele><time>2026-04-10T10:03:46.969Z</time></trkpt><trkpt lat="44.748142" lon="7.8289468"><ele>346.6666666666667</ele><time>2026-04-10T10:03:48.97Z</time></trkpt><trkpt lat="44.7481067" lon="7.8290667"><ele>347.0</ele><time>2026-04-10T10:03:51.97Z</time></trkpt><trkpt lat="44.7480576" lon="7.8291796"><ele>347.0</ele><time>2026-04-10T10:03:54.97Z</time></trkpt><trkpt lat="44.7480372" lon="7.8292648"><ele>347.0</ele><time>2026-04-10T10:03:56.969Z</time></trkpt><trkpt lat="44.7480171" lon="7.8293553"><ele>347.0</ele><time>2026-04-10T10:03:58.97Z</time></trkpt><trkpt lat="44.7479998" lon="7.8294508"><ele>347.0</ele><time>2026-04-10T10:04:00.97Z</time></trkpt><trkpt lat="44.7479786" lon="7.8295436"><ele>347.0</ele><time>2026-04-10T10:04:02.97Z</time></trkpt><trkpt lat="44.7479599" lon="7.829635"><ele>347.0</ele><time>2026-04-10T10:04:04.969Z</time></trkpt><trkpt lat="44.7479468" lon="7.829725"><ele>347.0</ele><time>2026-04-10T10:04:06.969Z</time></trkpt><trkpt lat="44.7479404" lon="7.8298169"><ele>347.5</ele><time>2026-04-10T10:04:08.97Z</time></trkpt><trkpt lat="44.7479429" lon="7.8299056"><ele>348.0</ele><time>2026-04-10T10:04:10.97Z</time></trkpt><trkpt lat="44.7479712" lon="7.8300318"><ele>348.5</ele><time>2026-04-10T10:04:13.97Z</time></trkpt><trkpt lat="44.7480261" lon="7.8301383"><ele>349.0</ele><time>2026-04-10T10:04:16.969Z</time></trkpt><trkpt lat="44.7480671" lon="7.8302061"><ele>349.5</ele><time>2026-04-10T10:04:18.969Z</time></trkpt><trkpt lat="44.7480951" lon="7.830287"><ele>350.0</ele><time>2026-04-10T10:04:20.969Z</time></trkpt><trkpt lat="44.7481047" lon="7.8304133"><ele>350.0</ele><time>2026-04-10T10:04:23.97Z</time></trkpt><trkpt lat="44.7480995" lon="7.830529"><ele>350.0</ele><time>2026-04-10T10:04:26.97Z</time></trkpt><trkpt lat="44.7480905" lon="7.8306542"><ele>350.0</ele><time>2026-04-10T10:04:29.969Z</time></trkpt><trkpt lat="44.7480813" lon="7.8307779"><ele>350.0</ele><time>2026-04-10T10:04:32.97Z</time></trkpt><trkpt lat="44.7480894" lon="7.8308967"><ele>350.0</ele><time>2026-04-10T10:04:35.97Z</time></trkpt><trkpt lat="44.7481099" lon="7.8310092"><ele>350.0</ele><time>2026-04-10T10:04:38.97Z</time></trkpt><trkpt lat="44.7481476" lon="7.8311092"><ele>350.1666666666667</ele><time>2026-04-10T10:04:41.97Z</time></trkpt><trkpt lat="44.7481836" lon="7.8312116"><ele>350.33333333333337</ele><time>2026-04-10T10:04:44.97Z</time></trkpt><trkpt lat="44.7482104" lon="7.8313174"><ele>350.5</ele><time>2026-04-10T10:04:47.97Z</time></trkpt><trkpt lat="44.7482177" lon="7.8314232"><ele>350.6666666666667</ele><time>2026-04-10T10:04:50.97Z</time></trkpt><trkpt lat="44.7482234" lon="7.8315284"><ele>350.8333333333333</ele><time>2026-04-10T10:04:53.97Z</time></trkpt><trkpt lat="44.748214" lon="7.8316428"><ele>351.0</ele><time>2026-04-10T10:04:56.97Z</time></trkpt><trkpt lat="44.748203" lon="7.831743"><ele>351.42857142857144</ele><time>2026-04-10T10:04:59.97Z</time></trkpt><trkpt lat="44.7481857" lon="7.8318344"><ele>351.8571428571429</ele><time>2026-04-10T10:05:02.97Z</time></trkpt><trkpt lat="44.748163" lon="7.8319318"><ele>352.28571428571433</ele><time>2026-04-10T10:05:05.97Z</time></trkpt><trkpt lat="44.7481379" lon="7.8320251"><ele>352.7142857142857</ele><time>2026-04-10T10:05:08.969Z</time></trkpt><trkpt lat="44.7481138" lon="7.8321222"><ele>353.1428571428571</ele><time>2026-04-10T10:05:11.97Z</time></trkpt><trkpt lat="44.748091" lon="7.8322274"><ele>353.5714285714286</ele><time>2026-04-10T10:05:14.97Z</time></trkpt><trkpt lat="44.7480849" lon="7.8323386"><ele>354.0</ele><time>2026-04-10T10:05:17.969Z</time></trkpt><trkpt lat="44.7480803" lon="7.8324492"><ele>354.0</ele><time>2026-04-10T10:05:20.97Z</time></trkpt><trkpt lat="44.748089" lon="7.8325495"><ele>354.0</ele><time>2026-04-10T10:05:23.97Z</time></trkpt><trkpt lat="44.7481047" lon="7.8326461"><ele>354.0</ele><time>2026-04-10T10:05:26.969Z</time></trkpt><trkpt lat="44.7481164" lon="7.8327562"><ele>354.0</ele><time>2026-04-10T10:05:29.969Z</time></trkpt><trkpt lat="44.7481205" lon="7.8328759"><ele>354.0</ele><time>2026-04-10T10:05:32.969Z</time></trkpt><trkpt lat="44.7481105" lon="7.8330046"><ele>354.0</ele><time>2026-04-10T10:05:35.969Z</time></trkpt><trkpt lat="44.748097" lon="7.8330977"><ele>354.0</ele><time>2026-04-10T10:05:37.97Z</time></trkpt><trkpt lat="44.7480878" lon="7.8331946"><ele>354.0</ele><time>2026-04-10T10:05:39.969Z</time></trkpt><trkpt lat="44.7480686" lon="7.8332898"><ele>354.0</ele><time>2026-04-10T10:05:41.969Z</time></trkpt><trkpt lat="44.7480523" lon="7.833387"><ele>354.0</ele><time>2026-04-10T10:05:43.969Z</time></trkpt><trkpt lat="44.7480313" lon="7.8334837"><ele>354.0</ele><time>2026-04-10T10:05:45.97Z</time></trkpt><trkpt lat="44.7480083" lon="7.8335812"><ele>354.0</ele><time>2026-04-10T10:05:47.97Z</time></trkpt><trkpt lat="44.7479833" lon="7.8336794"><ele>354.0</ele><time>2026-04-10T10:05:49.969Z</time></trkpt><trkpt lat="44.7479582" lon="7.8337774"><ele>353.8571428571429</ele><time>2026-04-10T10:05:51.97Z</time></trkpt><trkpt lat="44.7479338" lon="7.8338723"><ele>353.71428571428567</ele><time>2026-04-10T10:05:53.97Z</time></trkpt><trkpt lat="44.7479159" lon="7.8339694"><ele>353.57142857142856</ele><time>2026-04-10T10:05:55.969Z</time></trkpt><trkpt lat="44.7479069" lon="7.8340678"><ele>353.42857142857144</ele><time>2026-04-10T10:05:57.969Z</time></trkpt><trkpt lat="44.747897" lon="7.8341609"><ele>353.28571428571433</ele><time>2026-04-10T10:05:59.97Z</time></trkpt><trkpt lat="44.7478882" lon="7.8342569"><ele>353.1428571428571</ele><time>2026-04-10T10:06:01.97Z</time></trkpt><trkpt lat="44.7478705" lon="7.8343478"><ele>353.0</ele><time>2026-04-10T10:06:03.969Z</time></trkpt><trkpt lat="44.7478273" lon="7.8344629"><ele>353.6666666666667</ele><time>2026-04-10T10:06:06.97Z</time></trkpt><trkpt lat="44.7477733" lon="7.834567"><ele>354.33333333333337</ele><time>2026-04-10T10:06:09.969Z</time></trkpt><trkpt lat="44.7477214" lon="7.8346722"><ele>355.0</ele><time>2026-04-10T10:06:12.97Z</time></trkpt><trkpt lat="44.7476858" lon="7.8347839"><ele>355.6666666666667</ele><time>2026-04-10T10:06:15.97Z</time></trkpt><trkpt lat="44.7476522" lon="7.8348903"><ele>356.3333333333333</ele><time>2026-04-10T10:06:18.969Z</time></trkpt><trkpt lat="44.7476308" lon="7.8349887"><ele>357.0</ele><time>2026-04-10T10:06:21.969Z</time></trkpt><trkpt lat="44.7476072" lon="7.8350793"><ele>357.57142857142856</ele><time>2026-04-10T10:06:24.97Z</time></trkpt><trkpt lat="44.7475793" lon="7.8351727"><ele>358.1428571428571</ele><time>2026-04-10T10:06:27.969Z</time></trkpt><trkpt lat="44.7475517" lon="7.8352642"><ele>358.7142857142857</ele><time>2026-04-10T10:06:30.969Z</time></trkpt><trkpt lat="44.7475248" lon="7.8353499"><ele>359.2857142857143</ele><time>2026-04-10T10:06:33.969Z</time></trkpt><trkpt lat="44.7474737" lon="7.8354318"><ele>359.85714285714283</ele><time>2026-04-10T10:06:37.97Z</time></trkpt><trkpt lat="44.7474173" lon="7.8354833"><ele>360.42857142857144</ele><time>2026-04-10T10:06:40.97Z</time></trkpt><trkpt lat="44.7473575" lon="7.8355292"><ele>361.0</ele><time>2026-04-10T10:06:43.969Z</time></trkpt><trkpt lat="44.7472965" lon="7.835575"><ele>361.0</ele><time>2026-04-10T10:06:46.97Z</time></trkpt><trkpt lat="44.7472335" lon="7.8356151"><ele>361.0</ele><time>2026-04-10T10:06:49.969Z</time></trkpt><trkpt lat="44.7471689" lon="7.8356424"><ele>361.0</ele><time>2026-04-10T10:06:52.97Z</time></trkpt><trkpt lat="44.7470995" lon="7.835675"><ele>361.0</ele><time>2026-04-10T10:06:55.97Z</time></trkpt><trkpt lat="44.7470328" lon="7.8357114"><ele>361.0</ele><time>2026-04-10T10:06:58.97Z</time></trkpt><trkpt lat="44.7469703" lon="7.8357464"><ele>361.0</ele><time>2026-04-10T10:07:01.97Z</time></trkpt><trkpt lat="44.7469114" lon="7.8357796"><ele>361.0</ele><time>2026-04-10T10:07:04.97Z</time></trkpt><trkpt lat="44.7468335" lon="7.8358232"><ele>361.14285714285717</ele><time>2026-04-10T10:07:08.97Z</time></trkpt><trkpt lat="44.7467754" lon="7.8358581"><ele>361.2857142857143</ele><time>2026-04-10T10:07:11.97Z</time></trkpt><trkpt lat="44.746705" lon="7.8359085"><ele>361.42857142857144</ele><time>2026-04-10T10:07:15.97Z</time></trkpt><trkpt lat="44.7466312" lon="7.8359533"><ele>361.57142857142856</ele><time>2026-04-10T10:07:19.969Z</time></trkpt><trkpt lat="44.7465726" lon="7.835999"><ele>361.71428571428567</ele><time>2026-04-10T10:07:23.97Z</time></trkpt><trkpt lat="44.746505" lon="7.8360712"><ele>361.85714285714283</ele><time>2026-04-10T10:07:27.97Z</time></trkpt><trkpt lat="44.7464452" lon="7.8361264"><ele>362.0</ele><time>2026-04-10T10:07:30.969Z</time></trkpt><trkpt lat="44.7463845" lon="7.8361728"><ele>362.2857142857143</ele><time>2026-04-10T10:07:33.97Z</time></trkpt><trkpt lat="44.7463149" lon="7.8362179"><ele>362.57142857142856</ele><time>2026-04-10T10:07:37.97Z</time></trkpt><trkpt lat="44.7462578" lon="7.8362647"><ele>362.8571428571429</ele><time>2026-04-10T10:07:43.97Z</time></trkpt><trkpt lat="44.7462163" lon="7.8363342"><ele>363.1428571428571</ele><time>2026-04-10T10:08:08.97Z</time></trkpt><trkpt lat="44.7461819" lon="7.8364185"><ele>363.42857142857144</ele><time>2026-04-10T10:08:12.97Z</time></trkpt><trkpt lat="44.7461505" lon="7.8365117"><ele>363.7142857142857</ele><time>2026-04-10T10:08:16.969Z</time></trkpt><trkpt lat="44.7461202" lon="7.8366146"><ele>364.0</ele><time>2026-04-10T10:08:20.969Z</time></trkpt><trkpt lat="44.7460767" lon="7.8367126"><ele>363.85714285714283</ele><time>2026-04-10T10:08:24.97Z</time></trkpt><trkpt lat="44.746034" lon="7.8367821"><ele>363.7142857142857</ele><time>2026-04-10T10:08:27.97Z</time></trkpt><trkpt lat="44.7459873" lon="7.8368829"><ele>363.57142857142856</ele><time>2026-04-10T10:08:31.97Z</time></trkpt><trkpt lat="44.7459514" lon="7.8369666"><ele>363.42857142857144</ele><time>2026-04-10T10:08:34.969Z</time></trkpt><trkpt lat="44.745927" lon="7.8370566"><ele>363.2857142857143</ele><time>2026-04-10T10:08:37.97Z</time></trkpt><trkpt lat="44.7459116" lon="7.8371534"><ele>363.1428571428571</ele><time>2026-04-10T10:08:40.97Z</time></trkpt><trkpt lat="44.7458955" lon="7.837244"><ele>363.0</ele><time>2026-04-10T10:08:43.975Z</time></trkpt><trkpt lat="44.7458797" lon="7.8373393"><ele>362.85714285714283</ele><time>2026-04-10T10:08:46.98Z</time></trkpt><trkpt lat="44.7458603" lon="7.8374291"><ele>362.7142857142857</ele><time>2026-04-10T10:08:49.98Z</time></trkpt><trkpt lat="44.7458488" lon="7.8375181"><ele>362.57142857142856</ele><time>2026-04-10T10:08:52.98Z</time></trkpt><trkpt lat="44.7458071" lon="7.8376138"><ele>362.42857142857144</ele><time>2026-04-10T10:08:56.98Z</time></trkpt><trkpt lat="44.7457415" lon="7.8376744"><ele>362.2857142857143</ele><time>2026-04-10T10:09:00.98Z</time></trkpt><trkpt lat="44.745677" lon="7.8377164"><ele>362.1428571428571</ele><time>2026-04-10T10:09:04.979Z</time></trkpt><trkpt lat="44.7456163" lon="7.8377487"><ele>362.0</ele><time>2026-04-10T10:09:08.98Z</time></trkpt><trkpt lat="44.7455537" lon="7.8377876"><ele>362.0</ele><time>2026-04-10T10:09:12.979Z</time></trkpt><trkpt lat="44.7454917" lon="7.8378243"><ele>362.0</ele><time>2026-04-10T10:09:16.98Z</time></trkpt><trkpt lat="44.7454242" lon="7.8378675"><ele>362.0</ele><time>2026-04-10T10:09:20.979Z</time></trkpt><trkpt lat="44.7453599" lon="7.8379073"><ele>362.0</ele><time>2026-04-10T10:09:24.98Z</time></trkpt><trkpt lat="44.745294" lon="7.8379508"><ele>362.0</ele><time>2026-04-10T10:09:28.979Z</time></trkpt><trkpt lat="44.7452298" lon="7.8379936"><ele>362.0</ele><time>2026-04-10T10:09:32.98Z</time></trkpt><trkpt lat="44.7451677" lon="7.8380439"><ele>362.0</ele><time>2026-04-10T10:11:00.98Z</time></trkpt><trkpt lat="44.7450998" lon="7.8380844"><ele>363.0</ele><time>2026-04-10T10:11:05.98Z</time></trkpt><trkpt lat="44.745037" lon="7.8381251"><ele>364.0</ele><time>2026-04-10T10:11:09.979Z</time></trkpt><trkpt lat="44.7449696" lon="7.8381721"><ele>365.0</ele><time>2026-04-10T10:11:13.98Z</time></trkpt><trkpt lat="44.7448937" lon="7.838217"><ele>366.0</ele><time>2026-04-10T10:11:17.98Z</time></trkpt><trkpt lat="44.7448171" lon="7.8382647"><ele>367.0</ele><time>2026-04-10T10:11:21.979Z</time></trkpt><trkpt lat="44.7447595" lon="7.8383052"><ele>368.0</ele><time>2026-04-10T10:11:24.98Z</time></trkpt><trkpt lat="44.7446871" lon="7.8383602"><ele>368.0</ele><time>2026-04-10T10:11:28.98Z</time></trkpt><trkpt lat="44.7446269" lon="7.8383919"><ele>368.0</ele><time>2026-04-10T10:11:31.98Z</time></trkpt><trkpt lat="44.7445607" lon="7.8384334"><ele>368.0</ele><time>2026-04-10T10:11:34.979Z</time></trkpt><trkpt lat="44.7444868" lon="7.8384815"><ele>368.0</ele><time>2026-04-10T10:11:37.98Z</time></trkpt><trkpt lat="44.7444167" lon="7.8385294"><ele>368.0</ele><time>2026-04-10T10:11:40.98Z</time></trkpt><trkpt lat="44.7443508" lon="7.8385696"><ele>368.0</ele><time>2026-04-10T10:11:43.979Z</time></trkpt><trkpt lat="44.7442826" lon="7.8386095"><ele>368.0</ele><time>2026-04-10T10:11:46.98Z</time></trkpt><trkpt lat="44.7442201" lon="7.8386446"><ele>367.83333333333337</ele><time>2026-04-10T10:11:49.98Z</time></trkpt><trkpt lat="44.7441468" lon="7.838668"><ele>367.6666666666667</ele><time>2026-04-10T10:11:53.979Z</time></trkpt><trkpt lat="44.7440828" lon="7.8386729"><ele>367.5</ele><time>2026-04-10T10:11:56.98Z</time></trkpt><trkpt lat="44.7440048" lon="7.8387169"><ele>367.3333333333333</ele><time>2026-04-10T10:11:59.979Z</time></trkpt><trkpt lat="44.7439207" lon="7.8387734"><ele>367.16666666666663</ele><time>2026-04-10T10:12:02.98Z</time></trkpt><trkpt lat="44.743833" lon="7.8388312"><ele>367.0</ele><time>2026-04-10T10:12:05.979Z</time></trkpt><trkpt lat="44.7437702" lon="7.838874"><ele>367.0</ele><time>2026-04-10T10:12:07.98Z</time></trkpt><trkpt lat="44.7437087" lon="7.8389145"><ele>367.0</ele><time>2026-04-10T10:12:09.979Z</time></trkpt><trkpt lat="44.7436471" lon="7.8389523"><ele>367.0</ele><time>2026-04-10T10:12:11.979Z</time></trkpt><trkpt lat="44.7435849" lon="7.8389791"><ele>367.0</ele><time>2026-04-10T10:12:13.979Z</time></trkpt><trkpt lat="44.7435184" lon="7.8389987"><ele>367.0</ele><time>2026-04-10T10:12:15.979Z</time></trkpt><trkpt lat="44.7434521" lon="7.8390153"><ele>367.0</ele><time>2026-04-10T10:12:17.979Z</time></trkpt><trkpt lat="44.7433584" lon="7.8390286"><ele>367.0</ele><time>2026-04-10T10:12:20.979Z</time></trkpt><trkpt lat="44.7432662" lon="7.8390426"><ele>367.5</ele><time>2026-04-10T10:12:23.98Z</time></trkpt><trkpt lat="44.74318" lon="7.8390609"><ele>368.0</ele><time>2026-04-10T10:12:26.98Z</time></trkpt><trkpt lat="44.7430963" lon="7.8390912"><ele>368.5</ele><time>2026-04-10T10:12:29.98Z</time></trkpt><trkpt lat="44.7430156" lon="7.8391352"><ele>369.0</ele><time>2026-04-10T10:12:32.98Z</time></trkpt><trkpt lat="44.7429376" lon="7.8391915"><ele>369.5</ele><time>2026-04-10T10:12:35.979Z</time></trkpt><trkpt lat="44.742868" lon="7.8392539"><ele>370.0</ele><time>2026-04-10T10:12:38.98Z</time></trkpt><trkpt lat="44.742811" lon="7.8393191"><ele>370.0</ele><time>2026-04-10T10:12:41.98Z</time></trkpt><trkpt lat="44.7427599" lon="7.8393913"><ele>370.0</ele><time>2026-04-10T10:12:44.98Z</time></trkpt><trkpt lat="44.7427093" lon="7.8394819"><ele>370.0</ele><time>2026-04-10T10:12:47.979Z</time></trkpt><trkpt lat="44.7426465" lon="7.8395554"><ele>370.0</ele><time>2026-04-10T10:12:50.98Z</time></trkpt><trkpt lat="44.7425758" lon="7.8396051"><ele>370.0</ele><time>2026-04-10T10:12:53.98Z</time></trkpt><trkpt lat="44.7425006" lon="7.8396742"><ele>370.0</ele><time>2026-04-10T10:12:56.979Z</time></trkpt><trkpt lat="44.7424316" lon="7.8397454"><ele>370.2857142857143</ele><time>2026-04-10T10:12:59.98Z</time></trkpt><trkpt lat="44.7423532" lon="7.8397772"><ele>370.57142857142856</ele><time>2026-04-10T10:13:02.98Z</time></trkpt><trkpt lat="44.7422794" lon="7.8397831"><ele>370.8571428571429</ele><time>2026-04-10T10:13:05.979Z</time></trkpt><trkpt lat="44.7422061" lon="7.8397734"><ele>371.1428571428571</ele><time>2026-04-10T10:13:08.98Z</time></trkpt><trkpt lat="44.7421326" lon="7.8397831"><ele>371.42857142857144</ele><time>2026-04-10T10:13:11.979Z</time></trkpt><trkpt lat="44.7420647" lon="7.8398098"><ele>371.7142857142857</ele><time>2026-04-10T10:13:14.979Z</time></trkpt><trkpt lat="44.741998" lon="7.8398537"><ele>372.0</ele><time>2026-04-10T10:13:17.979Z</time></trkpt><trkpt lat="44.7419348" lon="7.8399135"><ele>372.0</ele><time>2026-04-10T10:13:20.98Z</time></trkpt><trkpt lat="44.7418829" lon="7.8399868"><ele>372.0</ele><time>2026-04-10T10:13:23.979Z</time></trkpt><trkpt lat="44.7418417" lon="7.8400723"><ele>372.0</ele><time>2026-04-10T10:13:26.98Z</time></trkpt><trkpt lat="44.7417914" lon="7.8401614"><ele>372.0</ele><time>2026-04-10T10:13:29.98Z</time></trkpt><trkpt lat="44.7417332" lon="7.8402407"><ele>372.0</ele><time>2026-04-10T10:13:32.98Z</time></trkpt><trkpt lat="44.7416685" lon="7.8403172"><ele>372.0</ele><time>2026-04-10T10:13:35.974Z</time></trkpt><trkpt lat="44.7416037" lon="7.8403828"><ele>372.42857142857144</ele><time>2026-04-10T10:13:38.985Z</time></trkpt><trkpt lat="44.7415528" lon="7.8404621"><ele>372.8571428571429</ele><time>2026-04-10T10:13:41.986Z</time></trkpt><trkpt lat="44.7415225" lon="7.8405546"><ele>373.28571428571433</ele><time>2026-04-10T10:13:44.986Z</time></trkpt><trkpt lat="44.7415064" lon="7.8406567"><ele>373.7142857142857</ele><time>2026-04-10T10:13:47.985Z</time></trkpt><trkpt lat="44.7415065" lon="7.8407597"><ele>374.1428571428571</ele><time>2026-04-10T10:13:50.986Z</time></trkpt><trkpt lat="44.7415134" lon="7.8408639"><ele>374.5714285714286</ele><time>2026-04-10T10:13:53.985Z</time></trkpt><trkpt lat="44.741524" lon="7.8409702"><ele>375.0</ele><time>2026-04-10T10:13:56.986Z</time></trkpt><trkpt lat="44.7415363" lon="7.8410678"><ele>375.0</ele><time>2026-04-10T10:13:59.986Z</time></trkpt><trkpt lat="44.7415656" lon="7.8411503"><ele>375.0</ele><time>2026-04-10T10:14:02.986Z</time></trkpt><trkpt lat="44.7415871" lon="7.8412442"><ele>375.0</ele><time>2026-04-10T10:14:05.985Z</time></trkpt><trkpt lat="44.7415934" lon="7.8413379"><ele>375.0</ele><time>2026-04-10T10:14:08.986Z</time></trkpt><trkpt lat="44.7415667" lon="7.8414352"><ele>375.0</ele><time>2026-04-10T10:14:11.985Z</time></trkpt><trkpt lat="44.7415317" lon="7.8415458"><ele>375.0</ele><time>2026-04-10T10:14:14.985Z</time></trkpt><trkpt lat="44.7414919" lon="7.8416647"><ele>375.0</ele><time>2026-04-10T10:14:17.986Z</time></trkpt><trkpt lat="44.7414507" lon="7.8417571"><ele>375.0</ele><time>2026-04-10T10:14:20.986Z</time></trkpt><trkpt lat="44.7414047" lon="7.8418341"><ele>375.0</ele><time>2026-04-10T10:14:23.986Z</time></trkpt><trkpt lat="44.7413254" lon="7.8418937"><ele>375.0</ele><time>2026-04-10T10:14:26.986Z</time></trkpt><trkpt lat="44.741244" lon="7.8419265"><ele>375.0</ele><time>2026-04-10T10:14:29.986Z</time></trkpt><trkpt lat="44.741168" lon="7.8419689"><ele>375.0</ele><time>2026-04-10T10:14:32.986Z</time></trkpt><trkpt lat="44.7410994" lon="7.8420164"><ele>375.0</ele><time>2026-04-10T10:14:35.986Z</time></trkpt><trkpt lat="44.7410596" lon="7.8421181"><ele>375.0</ele><time>2026-04-10T10:14:38.985Z</time></trkpt><trkpt lat="44.741066" lon="7.8422082"><ele>375.0</ele><time>2026-04-10T10:14:40.986Z</time></trkpt><trkpt lat="44.7410899" lon="7.8422942"><ele>375.0</ele><time>2026-04-10T10:14:42.986Z</time></trkpt><trkpt lat="44.7411285" lon="7.8424051"><ele>375.0</ele><time>2026-04-10T10:14:45.986Z</time></trkpt><trkpt lat="44.7411608" lon="7.8425073"><ele>375.0</ele><time>2026-04-10T10:14:48.985Z</time></trkpt><trkpt lat="44.7411996" lon="7.8425993"><ele>375.2857142857143</ele><time>2026-04-10T10:14:51.985Z</time></trkpt><trkpt lat="44.7412296" lon="7.842693"><ele>375.57142857142856</ele><time>2026-04-10T10:14:54.986Z</time></trkpt><trkpt lat="44.7412611" lon="7.8427932"><ele>375.85714285714283</ele><time>2026-04-10T10:14:57.985Z</time></trkpt><trkpt lat="44.7412792" lon="7.8428969"><ele>376.1428571428571</ele><time>2026-04-10T10:15:00.985Z</time></trkpt><trkpt lat="44.7412868" lon="7.8430043"><ele>376.42857142857144</ele><time>2026-04-10T10:15:03.986Z</time></trkpt><trkpt lat="44.7412711" lon="7.8430987"><ele>376.71428571428567</ele><time>2026-04-10T10:15:06.985Z</time></trkpt><trkpt lat="44.7412243" lon="7.8431613"><ele>377.0</ele><time>2026-04-10T10:15:09.986Z</time></trkpt><trkpt lat="44.741156" lon="7.8431971"><ele>376.99999999999994</ele><time>2026-04-10T10:15:12.986Z</time></trkpt><trkpt lat="44.7410854" lon="7.8432295"><ele>377.0</ele><time>2026-04-10T10:15:15.985Z</time></trkpt><trkpt lat="44.7410138" lon="7.8432747"><ele>377.0</ele><time>2026-04-10T10:15:18.986Z</time></trkpt><trkpt lat="44.7409457" lon="7.843335"><ele>377.0</ele><time>2026-04-10T10:15:21.985Z</time></trkpt><trkpt lat="44.7408843" lon="7.8433947"><ele>377.0</ele><time>2026-04-10T10:15:24.986Z</time></trkpt><trkpt lat="44.7408271" lon="7.8434583"><ele>376.99999999999994</ele><time>2026-04-10T10:15:27.985Z</time></trkpt><trkpt lat="44.7407743" lon="7.8435144"><ele>377.0</ele><time>2026-04-10T10:15:30.985Z</time></trkpt><trkpt lat="44.7407186" lon="7.8435669"><ele>377.71428571428567</ele><time>2026-04-10T10:15:33.986Z</time></trkpt><trkpt lat="44.7406626" lon="7.8436173"><ele>378.42857142857144</ele><time>2026-04-10T10:15:36.986Z</time></trkpt><trkpt lat="44.7405966" lon="7.843659"><ele>379.1428571428571</ele><time>2026-04-10T10:15:40.985Z</time></trkpt><trkpt lat="44.7405256" lon="7.8437067"><ele>379.85714285714283</ele><time>2026-04-10T10:15:44.986Z</time></trkpt><trkpt lat="44.7404556" lon="7.8437653"><ele>380.57142857142856</ele><time>2026-04-10T10:15:48.986Z</time></trkpt><trkpt lat="44.7403904" lon="7.8438321"><ele>381.2857142857143</ele><time>2026-04-10T10:15:52.985Z</time></trkpt><trkpt lat="44.7403373" lon="7.843891"><ele>382.0</ele><time>2026-04-10T10:15:55.985Z</time></trkpt><trkpt lat="44.7402834" lon="7.8439584"><ele>382.0</ele><time>2026-04-10T10:15:58.986Z</time></trkpt><trkpt lat="44.7402344" lon="7.8440437"><ele>382.0</ele><time>2026-04-10T10:16:02.986Z</time></trkpt><trkpt lat="44.7401888" lon="7.8441488"><ele>382.0</ele><time>2026-04-10T10:16:06.986Z</time></trkpt><trkpt lat="44.7401526" lon="7.8442258"><ele>382.0</ele><time>2026-04-10T10:16:09.986Z</time></trkpt><trkpt lat="44.7401163" lon="7.84432"><ele>382.0</ele><time>2026-04-10T10:16:13.986Z</time></trkpt><trkpt lat="44.7400804" lon="7.8444281"><ele>382.0</ele><time>2026-04-10T10:16:17.986Z</time></trkpt><trkpt lat="44.7400342" lon="7.8445282"><ele>381.8333333333333</ele><time>2026-04-10T10:16:20.986Z</time></trkpt><trkpt lat="44.7400048" lon="7.8446228"><ele>381.66666666666663</ele><time>2026-04-10T10:16:24.986Z</time></trkpt><trkpt lat="44.7399958" lon="7.844723"><ele>381.5</ele><time>2026-04-10T10:16:28.986Z</time></trkpt><trkpt lat="44.739988" lon="7.8448289"><ele>381.3333333333333</ele><time>2026-04-10T10:16:32.985Z</time></trkpt><trkpt lat="44.7400011" lon="7.8449219"><ele>381.1666666666667</ele><time>2026-04-10T10:16:35.985Z</time></trkpt><trkpt lat="44.7399989" lon="7.8450394"><ele>381.0</ele><time>2026-04-10T10:16:38.986Z</time></trkpt><trkpt lat="44.7399561" lon="7.8451433"><ele>381.0</ele><time>2026-04-10T10:16:41.986Z</time></trkpt><trkpt lat="44.7399013" lon="7.8452275"><ele>381.0</ele><time>2026-04-10T10:16:44.985Z</time></trkpt><trkpt lat="44.7398407" lon="7.8453144"><ele>381.0</ele><time>2026-04-10T10:16:47.986Z</time></trkpt><trkpt lat="44.7397769" lon="7.8453875"><ele>381.0</ele><time>2026-04-10T10:16:50.986Z</time></trkpt><trkpt lat="44.7397401" lon="7.8454648"><ele>381.0</ele><time>2026-04-10T10:16:54.985Z</time></trkpt><trkpt lat="44.7397396" lon="7.8455799"><ele>381.0</ele><time>2026-04-10T10:16:57.985Z</time></trkpt><trkpt lat="44.7397738" lon="7.8456632"><ele>381.0</ele><time>2026-04-10T10:16:59.986Z</time></trkpt><trkpt lat="44.7398039" lon="7.845789"><ele>381.0</ele><time>2026-04-10T10:17:02.986Z</time></trkpt><trkpt lat="44.7398174" lon="7.8458761"><ele>381.0</ele><time>2026-04-10T10:17:04.986Z</time></trkpt><trkpt lat="44.739812" lon="7.8460009"><ele>381.0</ele><time>2026-04-10T10:17:07.986Z</time></trkpt><trkpt lat="44.7398186" lon="7.8461183"><ele>381.0</ele><time>2026-04-10T10:17:10.985Z</time></trkpt><trkpt lat="44.739834" lon="7.84624"><ele>381.0</ele><time>2026-04-10T10:17:13.986Z</time></trkpt><trkpt lat="44.7398597" lon="7.8463491"><ele>379.6666666666667</ele><time>2026-04-10T10:17:16.986Z</time></trkpt><trkpt lat="44.7398983" lon="7.8464561"><ele>378.3333333333333</ele><time>2026-04-10T10:17:19.986Z</time></trkpt><trkpt lat="44.7399543" lon="7.8465607"><ele>377.0</ele><time>2026-04-10T10:17:22.986Z</time></trkpt><trkpt lat="44.7400165" lon="7.8466598"><ele>375.66666666666663</ele><time>2026-04-10T10:17:25.986Z</time></trkpt><trkpt lat="44.7400716" lon="7.8467463"><ele>374.3333333333333</ele><time>2026-04-10T10:17:28.986Z</time></trkpt><trkpt lat="44.7401139" lon="7.8468202"><ele>373.0</ele><time>2026-04-10T10:17:31.985Z</time></trkpt><trkpt lat="44.7401671" lon="7.846931"><ele>372.16666666666663</ele><time>2026-04-10T10:17:34.986Z</time></trkpt><trkpt lat="44.7401912" lon="7.8470425"><ele>371.3333333333333</ele><time>2026-04-10T10:17:36.985Z</time></trkpt><trkpt lat="44.7401929" lon="7.8471727"><ele>370.5</ele><time>2026-04-10T10:17:38.985Z</time></trkpt><trkpt lat="44.7401903" lon="7.8472974"><ele>369.6666666666667</ele><time>2026-04-10T10:17:40.986Z</time></trkpt><trkpt lat="44.7401701" lon="7.8473999"><ele>368.83333333333337</ele><time>2026-04-10T10:17:42.985Z</time></trkpt><trkpt lat="44.7401371" lon="7.8475057"><ele>368.0</ele><time>2026-04-10T10:17:44.985Z</time></trkpt><trkpt lat="44.74009" lon="7.847611"><ele>368.4</ele><time>2026-04-10T10:17:46.986Z</time></trkpt><trkpt lat="44.7400239" lon="7.8477312"><ele>368.79999999999995</ele><time>2026-04-10T10:17:48.986Z</time></trkpt><trkpt lat="44.7399497" lon="7.8478729"><ele>369.2</ele><time>2026-04-10T10:17:50.986Z</time></trkpt><trkpt lat="44.7399147" lon="7.8479475"><ele>369.6</ele><time>2026-04-10T10:17:51.985Z</time></trkpt><trkpt lat="44.7398497" lon="7.8480863"><ele>370.0</ele><time>2026-04-10T10:17:53.985Z</time></trkpt><trkpt lat="44.7398002" lon="7.8482057"><ele>370.0</ele><time>2026-04-10T10:17:55.986Z</time></trkpt><trkpt lat="44.7397726" lon="7.8483363"><ele>370.0</ele><time>2026-04-10T10:17:57.986Z</time></trkpt><trkpt lat="44.7397962" lon="7.8484606"><ele>370.0</ele><time>2026-04-10T10:17:59.986Z</time></trkpt><trkpt lat="44.739854" lon="7.8485802"><ele>370.0</ele><time>2026-04-10T10:18:01.985Z</time></trkpt><trkpt lat="44.7399303" lon="7.8486955"><ele>370.0</ele><time>2026-04-10T10:18:03.986Z</time></trkpt><trkpt lat="44.7400019" lon="7.848841"><ele>369.8333333333333</ele><time>2026-04-10T10:18:05.986Z</time></trkpt><trkpt lat="44.7400417" lon="7.8489217"><ele>369.66666666666663</ele><time>2026-04-10T10:18:06.985Z</time></trkpt><trkpt lat="44.7400745" lon="7.8490137"><ele>369.5</ele><time>2026-04-10T10:18:07.986Z</time></trkpt><trkpt lat="44.7401029" lon="7.8491077"><ele>369.3333333333333</ele><time>2026-04-10T10:18:08.985Z</time></trkpt><trkpt lat="44.7401243" lon="7.8492031"><ele>369.1666666666667</ele><time>2026-04-10T10:18:09.986Z</time></trkpt><trkpt lat="44.7401432" lon="7.8492911"><ele>369.0</ele><time>2026-04-10T10:18:10.986Z</time></trkpt><trkpt lat="44.7401915" lon="7.8494288"><ele>370.2857142857143</ele><time>2026-04-10T10:18:12.986Z</time></trkpt><trkpt lat="44.740247" lon="7.8495157"><ele>371.57142857142856</ele><time>2026-04-10T10:18:14.986Z</time></trkpt><trkpt lat="44.7403055" lon="7.8495927"><ele>372.8571428571429</ele><time>2026-04-10T10:18:17.986Z</time></trkpt><trkpt lat="44.7403479" lon="7.8496613"><ele>374.1428571428571</ele><time>2026-04-10T10:18:21.986Z</time></trkpt><trkpt lat="44.7403923" lon="7.8497354"><ele>375.42857142857144</ele><time>2026-04-10T10:18:55.986Z</time></trkpt><trkpt lat="44.7404528" lon="7.8497623"><ele>376.7142857142857</ele><time>2026-04-10T10:19:00.985Z</time></trkpt><trkpt lat="44.7405265" lon="7.8497531"><ele>378.0</ele><time>2026-04-10T10:19:05.986Z</time></trkpt><trkpt lat="44.7405959" lon="7.8497556"><ele>378.0</ele><time>2026-04-10T10:19:09.985Z</time></trkpt><trkpt lat="44.7406585" lon="7.8498029"><ele>378.0</ele><time>2026-04-10T10:19:13.986Z</time></trkpt><trkpt lat="44.7406725" lon="7.8498926"><ele>378.0</ele><time>2026-04-10T10:19:18.986Z</time></trkpt><trkpt lat="44.7406536" lon="7.849986"><ele>378.0</ele><time>2026-04-10T10:19:23.986Z</time></trkpt><trkpt lat="44.7406207" lon="7.8500696"><ele>378.0</ele><time>2026-04-10T10:19:29.986Z</time></trkpt><trkpt lat="44.7406005" lon="7.8501584"><ele>378.0</ele><time>2026-04-10T10:19:35.986Z</time></trkpt><trkpt lat="44.7405766" lon="7.8502465"><ele>378.0</ele><time>2026-04-10T10:19:40.985Z</time></trkpt><trkpt lat="44.740565" lon="7.850347"><ele>378.42857142857144</ele><time>2026-04-10T10:19:44.986Z</time></trkpt><trkpt lat="44.7405894" lon="7.8504407"><ele>378.8571428571429</ele><time>2026-04-10T10:19:49.985Z</time></trkpt><trkpt lat="44.7406281" lon="7.850532"><ele>379.2857142857143</ele><time>2026-04-10T10:19:54.985Z</time></trkpt><trkpt lat="44.740676" lon="7.8505927"><ele>379.7142857142857</ele><time>2026-04-10T10:20:01.986Z</time></trkpt><trkpt lat="44.740653" lon="7.8506873"><ele>380.14285714285717</ele><time>2026-04-10T10:20:08.985Z</time></trkpt><trkpt lat="44.740607" lon="7.8507539"><ele>380.57142857142856</ele><time>2026-04-10T10:21:01.986Z</time></trkpt><trkpt lat="44.740637" lon="7.8506727"><ele>381.0</ele><time>2026-04-10T10:21:17.986Z</time></trkpt><trkpt lat="44.7407017" lon="7.8506974"><ele>381.0</ele><time>2026-04-10T10:21:29.986Z</time></trkpt><trkpt lat="44.7407748" lon="7.8507308"><ele>381.0</ele><time>2026-04-10T10:21:39.985Z</time></trkpt><trkpt lat="44.7408605" lon="7.8507242"><ele>381.0</ele><time>2026-04-10T10:21:43.985Z</time></trkpt><trkpt lat="44.7409312" lon="7.8506885"><ele>381.0</ele><time>2026-04-10T10:21:46.985Z</time></trkpt><trkpt lat="44.740991" lon="7.8506494"><ele>381.0</ele><time>2026-04-10T10:21:51.986Z</time></trkpt><trkpt lat="44.7409237" lon="7.8506293"><ele>381.0</ele><time>2026-04-10T10:21:56.985Z</time></trkpt><trkpt lat="44.7408687" lon="7.8506743"><ele>381.0</ele><time>2026-04-10T10:22:00.985Z</time></trkpt><trkpt lat="44.7407985" lon="7.8507094"><ele>381.0</ele><time>2026-04-10T10:22:05.986Z</time></trkpt><trkpt lat="44.7407308" lon="7.8507007"><ele>381.0</ele><time>2026-04-10T10:22:09.985Z</time></trkpt><trkpt lat="44.7406807" lon="7.8506388"><ele>381.0</ele><time>2026-04-10T10:22:14.986Z</time></trkpt><trkpt lat="44.7406569" lon="7.8505544"><ele>381.0</ele><time>2026-04-10T10:22:19.985Z</time></trkpt><trkpt lat="44.7406802" lon="7.8504659"><ele>381.0</ele><time>2026-04-10T10:22:26.986Z</time></trkpt><trkpt lat="44.7407327" lon="7.8504123"><ele>381.0</ele><time>2026-04-10T10:22:32.986Z</time></trkpt><trkpt lat="44.7407823" lon="7.8503467"><ele>381.0</ele><time>2026-04-10T10:22:37.985Z</time></trkpt><trkpt lat="44.7408311" lon="7.8502744"><ele>381.0</ele><time>2026-04-10T10:22:42.986Z</time></trkpt><trkpt lat="44.740867" lon="7.8501791"><ele>381.0</ele><time>2026-04-10T10:22:46.986Z</time></trkpt><trkpt lat="44.7409245" lon="7.85011"><ele>381.0</ele><time>2026-04-10T10:22:50.985Z</time></trkpt><trkpt lat="44.7409881" lon="7.8500959"><ele>381.0</ele><time>2026-04-10T10:22:55.986Z</time></trkpt><trkpt lat="44.7410527" lon="7.8500664"><ele>381.0</ele><time>2026-04-10T10:23:00.985Z</time></trkpt><trkpt lat="44.7411168" lon="7.8500175"><ele>381.0</ele><time>2026-04-10T10:23:05.985Z</time></trkpt><trkpt lat="44.7411732" lon="7.8499779"><ele>381.0</ele><time>2026-04-10T10:23:09.985Z</time></trkpt><trkpt lat="44.7412365" lon="7.8499237"><ele>380.5</ele><time>2026-04-10T10:23:13.986Z</time></trkpt><trkpt lat="44.7412966" lon="7.8498887"><ele>380.0</ele><time>2026-04-10T10:23:17.986Z</time></trkpt><trkpt lat="44.7413543" lon="7.8498246"><ele>379.5</ele><time>2026-04-10T10:23:21.986Z</time></trkpt><trkpt lat="44.7414328" lon="7.8497608"><ele>379.0</ele><time>2026-04-10T10:23:24.986Z</time></trkpt><trkpt lat="44.7415005" lon="7.8497191"><ele>378.5</ele><time>2026-04-10T10:23:27.985Z</time></trkpt><trkpt lat="44.7415566" lon="7.8496305"><ele>378.0</ele><time>2026-04-10T10:23:30.986Z</time></trkpt><trkpt lat="44.7415942" lon="7.8495386"><ele>378.0</ele><time>2026-04-10T10:23:35.985Z</time></trkpt><trkpt lat="44.7416524" lon="7.8494876"><ele>378.0</ele><time>2026-04-10T10:23:39.986Z</time></trkpt><trkpt lat="44.7417158" lon="7.8494816"><ele>378.0</ele><time>2026-04-10T10:23:42.985Z</time></trkpt><trkpt lat="44.7417648" lon="7.8494097"><ele>378.0</ele><time>2026-04-10T10:24:42.986Z</time></trkpt><trkpt lat="44.7418342" lon="7.8493887"><ele>378.0</ele><time>2026-04-10T10:24:48.985Z</time></trkpt><trkpt lat="44.7418911" lon="7.8493473"><ele>378.0</ele><time>2026-04-10T10:24:56.986Z</time></trkpt><trkpt lat="44.7418911" lon="7.8492533"><ele>378.0</ele><time>2026-04-10T10:25:09.986Z</time></trkpt><trkpt lat="44.741902" lon="7.8491566"><ele>377.14285714285717</ele><time>2026-04-10T10:25:16.986Z</time></trkpt><trkpt lat="44.7419657" lon="7.8491254"><ele>376.2857142857143</ele><time>2026-04-10T10:25:23.985Z</time></trkpt><trkpt lat="44.7420151" lon="7.8490607"><ele>375.42857142857144</ele><time>2026-04-10T10:25:30.986Z</time></trkpt><trkpt lat="44.7420754" lon="7.849022"><ele>374.57142857142856</ele><time>2026-04-10T10:25:37.986Z</time></trkpt><trkpt lat="44.7421478" lon="7.8489741"><ele>373.7142857142857</ele><time>2026-04-10T10:25:46.986Z</time></trkpt><trkpt lat="44.7422249" lon="7.8489642"><ele>372.8571428571429</ele><time>2026-04-10T10:25:52.985Z</time></trkpt><trkpt lat="44.7422883" lon="7.8489215"><ele>372.0</ele><time>2026-04-10T10:25:56.985Z</time></trkpt><trkpt lat="44.7423465" lon="7.8488847"><ele>372.0</ele><time>2026-04-10T10:25:59.985Z</time></trkpt><trkpt lat="44.7424126" lon="7.8488364"><ele>372.0</ele><time>2026-04-10T10:26:03.986Z</time></trkpt><trkpt lat="44.7424847" lon="7.8487941"><ele>372.0</ele><time>2026-04-10T10:26:06.986Z</time></trkpt><trkpt lat="44.7425512" lon="7.8487393"><ele>372.0</ele><time>2026-04-10T10:26:10.986Z</time></trkpt><trkpt lat="44.7426196" lon="7.8487062"><ele>372.0</ele><time>2026-04-10T10:26:13.985Z</time></trkpt><trkpt lat="44.7426911" lon="7.8486634"><ele>372.0</ele><time>2026-04-10T10:26:16.986Z</time></trkpt><trkpt lat="44.742768" lon="7.8486056"><ele>372.00000000000006</ele><time>2026-04-10T10:26:19.986Z</time></trkpt><trkpt lat="44.7428299" lon="7.8485492"><ele>372.0</ele><time>2026-04-10T10:26:22.986Z</time></trkpt><trkpt lat="44.7428901" lon="7.848501"><ele>372.0</ele><time>2026-04-10T10:26:25.986Z</time></trkpt><trkpt lat="44.7429475" lon="7.8484376"><ele>372.0</ele><time>2026-04-10T10:26:28.986Z</time></trkpt><trkpt lat="44.7429998" lon="7.8483778"><ele>372.0</ele><time>2026-04-10T10:26:31.986Z</time></trkpt><trkpt lat="44.7430793" lon="7.8483429"><ele>372.00000000000006</ele><time>2026-04-10T10:26:35.985Z</time></trkpt><trkpt lat="44.7431492" lon="7.848324"><ele>372.0</ele><time>2026-04-10T10:26:38.986Z</time></trkpt><trkpt lat="44.7432124" lon="7.8482996"><ele>371.7142857142857</ele><time>2026-04-10T10:26:41.985Z</time></trkpt><trkpt lat="44.7432734" lon="7.848272"><ele>371.42857142857144</ele><time>2026-04-10T10:26:44.986Z</time></trkpt><trkpt lat="44.7433388" lon="7.8482412"><ele>371.1428571428571</ele><time>2026-04-10T10:26:47.986Z</time></trkpt><trkpt lat="44.7434116" lon="7.8482021"><ele>370.8571428571429</ele><time>2026-04-10T10:26:51.985Z</time></trkpt><trkpt lat="44.7434679" lon="7.8481506"><ele>370.57142857142856</ele><time>2026-04-10T10:26:55.986Z</time></trkpt><trkpt lat="44.7435201" lon="7.848088"><ele>370.2857142857143</ele><time>2026-04-10T10:26:59.986Z</time></trkpt><trkpt lat="44.7435625" lon="7.8479847"><ele>370.0</ele><time>2026-04-10T10:27:03.986Z</time></trkpt><trkpt lat="44.7436131" lon="7.8479139"><ele>369.4285714285714</ele><time>2026-04-10T10:27:06.986Z</time></trkpt><trkpt lat="44.7436439" lon="7.8478308"><ele>368.85714285714283</ele><time>2026-04-10T10:27:10.986Z</time></trkpt><trkpt lat="44.7436921" lon="7.8477621"><ele>368.2857142857143</ele><time>2026-04-10T10:27:15.985Z</time></trkpt><trkpt lat="44.743752" lon="7.8476943"><ele>367.71428571428567</ele><time>2026-04-10T10:27:20.986Z</time></trkpt><trkpt lat="44.7438253" lon="7.847677"><ele>367.14285714285717</ele><time>2026-04-10T10:27:25.986Z</time></trkpt><trkpt lat="44.743894" lon="7.847663"><ele>366.57142857142856</ele><time>2026-04-10T10:27:30.986Z</time></trkpt><trkpt lat="44.7439592" lon="7.8476367"><ele>366.0</ele><time>2026-04-10T10:27:35.986Z</time></trkpt><trkpt lat="44.7440272" lon="7.8475954"><ele>366.0</ele><time>2026-04-10T10:27:40.985Z</time></trkpt><trkpt lat="44.7440935" lon="7.8475376"><ele>366.0</ele><time>2026-04-10T10:27:45.986Z</time></trkpt><trkpt lat="44.7441609" lon="7.8475208"><ele>366.0</ele><time>2026-04-10T10:27:49.985Z</time></trkpt><trkpt lat="44.7442271" lon="7.8475324"><ele>366.0</ele><time>2026-04-10T10:27:53.986Z</time></trkpt><trkpt lat="44.7442781" lon="7.8476045"><ele>366.0</ele><time>2026-04-10T10:27:57.986Z</time></trkpt><trkpt lat="44.7442642" lon="7.8476932"><ele>366.0</ele><time>2026-04-10T10:29:10.986Z</time></trkpt><trkpt lat="44.7442794" lon="7.8477871"><ele>366.0</ele><time>2026-04-10T10:29:20.986Z</time></trkpt><trkpt lat="44.7443047" lon="7.8478766"><ele>366.0</ele><time>2026-04-10T10:29:30.986Z</time></trkpt><trkpt lat="44.7442788" lon="7.8479762"><ele>366.0</ele><time>2026-04-10T10:29:39.986Z</time></trkpt><trkpt lat="44.7442322" lon="7.8480391"><ele>366.0</ele><time>2026-04-10T10:29:49.985Z</time></trkpt><trkpt lat="44.744169" lon="7.8480644"><ele>366.0</ele><time>2026-04-10T10:29:56.986Z</time></trkpt><trkpt lat="44.7441017" lon="7.8480998"><ele>366.0</ele><time>2026-04-10T10:30:02.986Z</time></trkpt><trkpt lat="44.7440713" lon="7.8481776"><ele>366.0</ele><time>2026-04-10T10:30:45.985Z</time></trkpt><trkpt lat="44.7440529" lon="7.848275"><ele>366.0</ele><time>2026-04-10T10:30:55.986Z</time></trkpt><trkpt lat="44.7440311" lon="7.8483767"><ele>366.7142857142857</ele><time>2026-04-10T10:31:01.985Z</time></trkpt><trkpt lat="44.7440039" lon="7.8484701"><ele>367.42857142857144</ele><time>2026-04-10T10:31:06.986Z</time></trkpt><trkpt lat="44.7439727" lon="7.848556"><ele>368.1428571428571</ele><time>2026-04-10T10:31:13.986Z</time></trkpt><trkpt lat="44.7439167" lon="7.848606"><ele>368.8571428571429</ele><time>2026-04-10T10:31:18.985Z</time></trkpt><trkpt lat="44.74387" lon="7.8486659"><ele>369.57142857142856</ele><time>2026-04-10T10:31:23.986Z</time></trkpt><trkpt lat="44.7438212" lon="7.8487303"><ele>370.2857142857143</ele><time>2026-04-10T10:31:28.986Z</time></trkpt><trkpt lat="44.7437775" lon="7.8488095"><ele>371.0</ele><time>2026-04-10T10:31:34.985Z</time></trkpt><trkpt lat="44.7437244" lon="7.8488649"><ele>371.0</ele><time>2026-04-10T10:31:46.986Z</time></trkpt><trkpt lat="44.7436629" lon="7.8489152"><ele>371.0</ele><time>2026-04-10T10:31:51.986Z</time></trkpt><trkpt lat="44.7436051" lon="7.8489753"><ele>371.0</ele><time>2026-04-10T10:31:55.986Z</time></trkpt><trkpt lat="44.7435322" lon="7.8490156"><ele>371.0</ele><time>2026-04-10T10:31:59.986Z</time></trkpt><trkpt lat="44.7434544" lon="7.8490529"><ele>371.0</ele><time>2026-04-10T10:32:03.985Z</time></trkpt><trkpt lat="44.7433889" lon="7.8490845"><ele>371.0</ele><time>2026-04-10T10:32:07.986Z</time></trkpt><trkpt lat="44.743325" lon="7.8491221"><ele>371.0</ele><time>2026-04-10T10:32:10.986Z</time></trkpt><trkpt lat="44.7432652" lon="7.8491688"><ele>371.14285714285717</ele><time>2026-04-10T10:32:13.986Z</time></trkpt><trkpt lat="44.7432064" lon="7.8492304"><ele>371.2857142857143</ele><time>2026-04-10T10:32:16.986Z</time></trkpt><trkpt lat="44.7431502" lon="7.8492811"><ele>371.42857142857144</ele><time>2026-04-10T10:32:21.986Z</time></trkpt><trkpt lat="44.7430915" lon="7.849327"><ele>371.57142857142856</ele><time>2026-04-10T10:32:40.985Z</time></trkpt><trkpt lat="44.7430388" lon="7.8493787"><ele>371.7142857142857</ele><time>2026-04-10T10:32:45.977Z</time></trkpt><trkpt lat="44.7429795" lon="7.8494546"><ele>371.8571428571429</ele><time>2026-04-10T10:32:52.973Z</time></trkpt><trkpt lat="44.7429243" lon="7.8495213"><ele>372.0</ele><time>2026-04-10T10:32:56.974Z</time></trkpt><trkpt lat="44.7428906" lon="7.8496142"><ele>372.42857142857144</ele><time>2026-04-10T10:33:00.973Z</time></trkpt><trkpt lat="44.7429444" lon="7.8496646"><ele>372.8571428571429</ele><time>2026-04-10T10:33:10.974Z</time></trkpt><trkpt lat="44.7430098" lon="7.8496906"><ele>373.28571428571433</ele><time>2026-04-10T10:33:31.974Z</time></trkpt><trkpt lat="44.7430822" lon="7.8497118"><ele>373.7142857142857</ele><time>2026-04-10T10:33:42.974Z</time></trkpt><trkpt lat="44.7431206" lon="7.8497888"><ele>374.1428571428571</ele><time>2026-04-10T10:33:50.974Z</time></trkpt><trkpt lat="44.7431472" lon="7.8498794"><ele>374.5714285714286</ele><time>2026-04-10T10:34:36.974Z</time></trkpt><trkpt lat="44.7431689" lon="7.8499697"><ele>375.0</ele><time>2026-04-10T10:34:45.974Z</time></trkpt><trkpt lat="44.7431878" lon="7.8501108"><ele>375.2857142857143</ele><time>2026-04-10T10:35:15.974Z</time></trkpt><trkpt lat="44.7431625" lon="7.8502035"><ele>375.57142857142856</ele><time>2026-04-10T10:35:32.974Z</time></trkpt><trkpt lat="44.7431403" lon="7.8502904"><ele>375.85714285714283</ele><time>2026-04-10T10:35:39.974Z</time></trkpt><trkpt lat="44.743135" lon="7.850379"><ele>376.1428571428571</ele><time>2026-04-10T10:37:07.981Z</time></trkpt><trkpt lat="44.7431351" lon="7.8504738"><ele>376.42857142857144</ele><time>2026-04-10T10:38:55.981Z</time></trkpt><trkpt lat="44.743136" lon="7.8505787"><ele>376.71428571428567</ele><time>2026-04-10T10:39:16.98Z</time></trkpt><trkpt lat="44.7431624" lon="7.8506602"><ele>377.0</ele><time>2026-04-10T10:39:23.981Z</time></trkpt><trkpt lat="44.7431887" lon="7.8507509"><ele>376.99999999999994</ele><time>2026-04-10T10:39:28.981Z</time></trkpt><trkpt lat="44.7431875" lon="7.8508601"><ele>377.0</ele><time>2026-04-10T10:39:33.98Z</time></trkpt><trkpt lat="44.7431725" lon="7.8507716"><ele>377.0</ele><time>2026-04-10T10:39:47.98Z</time></trkpt><trkpt lat="44.7431501" lon="7.8506721"><ele>377.0</ele><time>2026-04-10T10:39:50.981Z</time></trkpt><trkpt lat="44.7431252" lon="7.8505743"><ele>377.0</ele><time>2026-04-10T10:39:54.981Z</time></trkpt><trkpt lat="44.7431075" lon="7.8504743"><ele>376.99999999999994</ele><time>2026-04-10T10:39:58.98Z</time></trkpt><trkpt lat="44.7431032" lon="7.8503694"><ele>377.0</ele><time>2026-04-10T10:40:03.98Z</time></trkpt><trkpt lat="44.7431182" lon="7.8502732"><ele>377.0</ele><time>2026-04-10T10:40:09.98Z</time></trkpt><trkpt lat="44.7431758" lon="7.8502051"><ele>377.0</ele><time>2026-04-10T10:41:10.981Z</time></trkpt><trkpt lat="44.7432306" lon="7.8501364"><ele>377.0</ele><time>2026-04-10T10:41:16.981Z</time></trkpt><trkpt lat="44.7433164" lon="7.8501248"><ele>377.0</ele><time>2026-04-10T10:41:19.981Z</time></trkpt><trkpt lat="44.7433709" lon="7.8500736"><ele>377.0</ele><time>2026-04-10T10:41:22.98Z</time></trkpt><trkpt lat="44.7434229" lon="7.8499834"><ele>377.0</ele><time>2026-04-10T10:41:25.98Z</time></trkpt><trkpt lat="44.7434754" lon="7.8498882"><ele>376.71428571428567</ele><time>2026-04-10T10:41:28.981Z</time></trkpt><trkpt lat="44.7435408" lon="7.8498222"><ele>376.42857142857144</ele><time>2026-04-10T10:41:31.981Z</time></trkpt><trkpt lat="44.7436068" lon="7.8497726"><ele>376.1428571428571</ele><time>2026-04-10T10:41:34.98Z</time></trkpt><trkpt lat="44.7436697" lon="7.8497485"><ele>375.85714285714283</ele><time>2026-04-10T10:41:36.981Z</time></trkpt><trkpt lat="44.7437237" lon="7.8497018"><ele>375.57142857142856</ele><time>2026-04-10T10:41:38.981Z</time></trkpt><trkpt lat="44.7438018" lon="7.8496272"><ele>375.2857142857143</ele><time>2026-04-10T10:41:41.981Z</time></trkpt><trkpt lat="44.7438471" lon="7.8495613"><ele>375.0</ele><time>2026-04-10T10:41:43.98Z</time></trkpt><trkpt lat="44.7438963" lon="7.8494784"><ele>374.3333333333333</ele><time>2026-04-10T10:41:45.981Z</time></trkpt><trkpt lat="44.7439257" lon="7.8493842"><ele>373.6666666666667</ele><time>2026-04-10T10:41:48.981Z</time></trkpt><trkpt lat="44.7439529" lon="7.8492871"><ele>373.0</ele><time>2026-04-10T10:41:51.98Z</time></trkpt><trkpt lat="44.7439956" lon="7.8492175"><ele>372.33333333333337</ele><time>2026-04-10T10:41:54.981Z</time></trkpt><trkpt lat="44.7440691" lon="7.8491666"><ele>371.6666666666667</ele><time>2026-04-10T10:41:58.981Z</time></trkpt><trkpt lat="44.7441733" lon="7.8491481"><ele>371.0</ele><time>2026-04-10T10:42:02.981Z</time></trkpt><trkpt lat="44.7442362" lon="7.8491372"><ele>371.0</ele><time>2026-04-10T10:42:05.981Z</time></trkpt><trkpt lat="44.7443079" lon="7.8491306"><ele>371.0</ele><time>2026-04-10T10:42:35.981Z</time></trkpt><trkpt lat="44.7443803" lon="7.8491508"><ele>371.0</ele><time>2026-04-10T10:42:40.981Z</time></trkpt><trkpt lat="44.7444434" lon="7.8491212"><ele>371.0</ele><time>2026-04-10T10:42:44.981Z</time></trkpt><trkpt lat="44.7444936" lon="7.8490662"><ele>371.0</ele><time>2026-04-10T10:42:48.981Z</time></trkpt><trkpt lat="44.7445529" lon="7.8489964"><ele>371.0</ele><time>2026-04-10T10:42:53.981Z</time></trkpt><trkpt lat="44.744612" lon="7.84894"><ele>371.0</ele><time>2026-04-10T10:42:57.981Z</time></trkpt><trkpt lat="44.7446768" lon="7.8489304"><ele>370.42857142857144</ele><time>2026-04-10T10:43:00.98Z</time></trkpt><trkpt lat="44.7447432" lon="7.8489205"><ele>369.8571428571429</ele><time>2026-04-10T10:43:03.981Z</time></trkpt><trkpt lat="44.7448035" lon="7.8489616"><ele>369.2857142857143</ele><time>2026-04-10T10:43:06.981Z</time></trkpt><trkpt lat="44.7448735" lon="7.8489865"><ele>368.7142857142857</ele><time>2026-04-10T10:43:09.981Z</time></trkpt><trkpt lat="44.7449455" lon="7.8489993"><ele>368.14285714285717</ele><time>2026-04-10T10:43:13.981Z</time></trkpt><trkpt lat="44.7450182" lon="7.8489624"><ele>367.57142857142856</ele><time>2026-04-10T10:43:17.981Z</time></trkpt><trkpt lat="44.7450824" lon="7.8489357"><ele>367.0</ele><time>2026-04-10T10:43:20.981Z</time></trkpt><trkpt lat="44.7451154" lon="7.8488537"><ele>367.0</ele><time>2026-04-10T10:43:24.98Z</time></trkpt><trkpt lat="44.745144" lon="7.8487702"><ele>367.0</ele><time>2026-04-10T10:43:28.981Z</time></trkpt><trkpt lat="44.7451722" lon="7.8486755"><ele>367.0</ele><time>2026-04-10T10:43:32.981Z</time></trkpt><trkpt lat="44.7452079" lon="7.8485929"><ele>367.0</ele><time>2026-04-10T10:43:35.981Z</time></trkpt><trkpt lat="44.7452607" lon="7.8485421"><ele>367.0</ele><time>2026-04-10T10:43:37.981Z</time></trkpt><trkpt lat="44.7453225" lon="7.8484995"><ele>367.0</ele><time>2026-04-10T10:43:39.98Z</time></trkpt><trkpt lat="44.7453998" lon="7.8484441"><ele>367.0</ele><time>2026-04-10T10:43:42.981Z</time></trkpt><trkpt lat="44.7454723" lon="7.8483727"><ele>366.5</ele><time>2026-04-10T10:43:45.981Z</time></trkpt><trkpt lat="44.7455315" lon="7.8483289"><ele>366.0</ele><time>2026-04-10T10:43:47.981Z</time></trkpt><trkpt lat="44.7455928" lon="7.8482843"><ele>365.5</ele><time>2026-04-10T10:43:49.981Z</time></trkpt><trkpt lat="44.7456866" lon="7.8482288"><ele>365.0</ele><time>2026-04-10T10:43:52.98Z</time></trkpt><trkpt lat="44.745766" lon="7.8481985"><ele>364.5</ele><time>2026-04-10T10:43:54.981Z</time></trkpt><trkpt lat="44.7458458" lon="7.8481494"><ele>364.0</ele><time>2026-04-10T10:43:56.98Z</time></trkpt><trkpt lat="44.7459217" lon="7.8481068"><ele>364.0</ele><time>2026-04-10T10:43:58.981Z</time></trkpt><trkpt lat="44.745984" lon="7.8480684"><ele>364.0</ele><time>2026-04-10T10:44:00.981Z</time></trkpt><trkpt lat="44.7460349" lon="7.848013"><ele>364.0</ele><time>2026-04-10T10:44:03.98Z</time></trkpt><trkpt lat="44.7460887" lon="7.8479373"><ele>364.0</ele><time>2026-04-10T10:44:19.981Z</time></trkpt><trkpt lat="44.7461532" lon="7.8478732"><ele>364.0</ele><time>2026-04-10T10:44:23.981Z</time></trkpt><trkpt lat="44.746214" lon="7.8478373"><ele>364.0</ele><time>2026-04-10T10:44:26.98Z</time></trkpt><trkpt lat="44.7462773" lon="7.8478438"><ele>364.0</ele><time>2026-04-10T10:44:30.98Z</time></trkpt><trkpt lat="44.7463555" lon="7.8478249"><ele>363.5</ele><time>2026-04-10T10:44:34.981Z</time></trkpt><trkpt lat="44.7464158" lon="7.8477868"><ele>363.0</ele><time>2026-04-10T10:44:37.981Z</time></trkpt><trkpt lat="44.7464846" lon="7.8477532"><ele>362.5</ele><time>2026-04-10T10:44:40.98Z</time></trkpt><trkpt lat="44.7465532" lon="7.8477293"><ele>362.0</ele><time>2026-04-10T10:44:44.98Z</time></trkpt><trkpt lat="44.7466478" lon="7.8477021"><ele>361.5</ele><time>2026-04-10T10:44:47.98Z</time></trkpt><trkpt lat="44.7467265" lon="7.8476645"><ele>361.0</ele><time>2026-04-10T10:44:49.98Z</time></trkpt><trkpt lat="44.7467949" lon="7.8476111"><ele>361.0</ele><time>2026-04-10T10:44:53.981Z</time></trkpt><trkpt lat="44.7468741" lon="7.847599"><ele>361.0</ele><time>2026-04-10T10:44:56.98Z</time></trkpt><trkpt lat="44.7469634" lon="7.8476479"><ele>361.0</ele><time>2026-04-10T10:45:05.981Z</time></trkpt><trkpt lat="44.7469443" lon="7.8477402"><ele>361.0</ele><time>2026-04-10T10:45:36.981Z</time></trkpt><trkpt lat="44.7469064" lon="7.8478135"><ele>361.0</ele><time>2026-04-10T10:45:39.981Z</time></trkpt><trkpt lat="44.7468721" lon="7.8479085"><ele>361.0</ele><time>2026-04-10T10:45:43.98Z</time></trkpt><trkpt lat="44.7468412" lon="7.8480059"><ele>361.0</ele><time>2026-04-10T10:45:46.98Z</time></trkpt><trkpt lat="44.7468011" lon="7.8480856"><ele>361.0</ele><time>2026-04-10T10:45:49.981Z</time></trkpt><trkpt lat="44.7467529" lon="7.8481639"><ele>361.0</ele><time>2026-04-10T10:45:53.981Z</time></trkpt><trkpt lat="44.7467134" lon="7.8482373"><ele>361.0</ele><time>2026-04-10T10:45:56.98Z</time></trkpt><trkpt lat="44.7466691" lon="7.8483333"><ele>361.0</ele><time>2026-04-10T10:46:00.98Z</time></trkpt><trkpt lat="44.7465968" lon="7.8483795"><ele>361.0</ele><time>2026-04-10T10:46:04.98Z</time></trkpt><trkpt lat="44.746534" lon="7.8484131"><ele>361.0</ele><time>2026-04-10T10:46:08.981Z</time></trkpt><trkpt lat="44.7464733" lon="7.8484792"><ele>361.14285714285717</ele><time>2026-04-10T10:46:13.981Z</time></trkpt><trkpt lat="44.7464172" lon="7.8485314"><ele>361.2857142857143</ele><time>2026-04-10T10:46:16.981Z</time></trkpt><trkpt lat="44.7463453" lon="7.8485514"><ele>361.42857142857144</ele><time>2026-04-10T10:46:19.981Z</time></trkpt><trkpt lat="44.7462801" lon="7.8485669"><ele>361.57142857142856</ele><time>2026-04-10T10:46:24.981Z</time></trkpt><trkpt lat="44.7462152" lon="7.8486087"><ele>361.71428571428567</ele><time>2026-04-10T10:46:29.98Z</time></trkpt><trkpt lat="44.7461528" lon="7.8486487"><ele>361.85714285714283</ele><time>2026-04-10T10:46:33.981Z</time></trkpt><trkpt lat="44.7461089" lon="7.8487218"><ele>362.0</ele><time>2026-04-10T10:46:37.981Z</time></trkpt><trkpt lat="44.7460525" lon="7.8487929"><ele>362.1428571428571</ele><time>2026-04-10T10:46:41.981Z</time></trkpt><trkpt lat="44.7460039" lon="7.8488504"><ele>362.2857142857143</ele><time>2026-04-10T10:46:45.981Z</time></trkpt><trkpt lat="44.7459395" lon="7.848914"><ele>362.42857142857144</ele><time>2026-04-10T10:46:49.981Z</time></trkpt><trkpt lat="44.7458727" lon="7.8489779"><ele>362.57142857142856</ele><time>2026-04-10T10:46:53.98Z</time></trkpt><trkpt lat="44.7458062" lon="7.8490218"><ele>362.7142857142857</ele><time>2026-04-10T10:46:57.981Z</time></trkpt><trkpt lat="44.745754" lon="7.8489719"><ele>362.85714285714283</ele><time>2026-04-10T10:47:24.98Z</time></trkpt><trkpt lat="44.7456929" lon="7.849015"><ele>363.0</ele><time>2026-04-10T10:47:32.981Z</time></trkpt><trkpt lat="44.7456303" lon="7.8490543"><ele>362.99999999999994</ele><time>2026-04-10T10:48:16.979Z</time></trkpt><trkpt lat="44.7455577" lon="7.8490973"><ele>363.0</ele><time>2026-04-10T10:48:21.979Z</time></trkpt><trkpt lat="44.745514" lon="7.8491612"><ele>363.0</ele><time>2026-04-10T10:48:24.979Z</time></trkpt><trkpt lat="44.7454584" lon="7.8492102"><ele>363.0</ele><time>2026-04-10T10:48:27.979Z</time></trkpt><trkpt lat="44.745383" lon="7.8492612"><ele>363.0</ele><time>2026-04-10T10:48:31.979Z</time></trkpt><trkpt lat="44.7453119" lon="7.8493243"><ele>362.99999999999994</ele><time>2026-04-10T10:48:35.978Z</time></trkpt><trkpt lat="44.7452639" lon="7.8493856"><ele>363.0</ele><time>2026-04-10T10:48:39.979Z</time></trkpt><trkpt lat="44.7451943" lon="7.8494279"><ele>363.57142857142856</ele><time>2026-04-10T10:48:43.978Z</time></trkpt><trkpt lat="44.7451278" lon="7.8495171"><ele>364.1428571428571</ele><time>2026-04-10T10:48:48.979Z</time></trkpt><trkpt lat="44.7450782" lon="7.8495883"><ele>364.71428571428567</ele><time>2026-04-10T10:48:51.979Z</time></trkpt><trkpt lat="44.7450304" lon="7.8496575"><ele>365.2857142857143</ele><time>2026-04-10T10:48:59.978Z</time></trkpt><trkpt lat="44.7449939" lon="7.8497353"><ele>365.8571428571429</ele><time>2026-04-10T10:49:31.979Z</time></trkpt><trkpt lat="44.7449778" lon="7.8498219"><ele>366.4285714285714</ele><time>2026-04-10T10:49:36.978Z</time></trkpt><trkpt lat="44.7449194" lon="7.8498898"><ele>367.0</ele><time>2026-04-10T10:49:42.979Z</time></trkpt><trkpt lat="44.7448692" lon="7.8499518"><ele>367.0</ele><time>2026-04-10T10:49:48.979Z</time></trkpt><trkpt lat="44.7448215" lon="7.8500269"><ele>367.0</ele><time>2026-04-10T10:49:53.979Z</time></trkpt><trkpt lat="44.7447722" lon="7.8500963"><ele>367.0</ele><time>2026-04-10T10:49:59.978Z</time></trkpt><trkpt lat="44.7447292" lon="7.8501739"><ele>367.0</ele><time>2026-04-10T10:50:07.979Z</time></trkpt><trkpt lat="44.7446875" lon="7.8502483"><ele>367.0</ele><time>2026-04-10T10:55:37.978Z</time></trkpt><trkpt lat="44.7446272" lon="7.850275"><ele>367.0</ele><time>2026-04-10T10:55:42.979Z</time></trkpt><trkpt lat="44.7445609" lon="7.8503422"><ele>367.0</ele><time>2026-04-10T10:56:18.971Z</time></trkpt><trkpt lat="44.7445111" lon="7.8504137"><ele>367.2857142857143</ele><time>2026-04-10T10:56:22.972Z</time></trkpt><trkpt lat="44.7444643" lon="7.8504836"><ele>367.5714285714286</ele><time>2026-04-10T10:56:26.971Z</time></trkpt><trkpt lat="44.7444189" lon="7.8505529"><ele>367.8571428571429</ele><time>2026-04-10T10:56:29.972Z</time></trkpt><trkpt lat="44.7443609" lon="7.8506221"><ele>368.1428571428571</ele><time>2026-04-10T10:56:33.972Z</time></trkpt><trkpt lat="44.7443105" lon="7.8507028"><ele>368.42857142857144</ele><time>2026-04-10T10:56:37.972Z</time></trkpt><trkpt lat="44.744274" lon="7.8507965"><ele>368.7142857142857</ele><time>2026-04-10T10:56:40.972Z</time></trkpt><trkpt lat="44.7442435" lon="7.8508911"><ele>369.0</ele><time>2026-04-10T10:56:45.972Z</time></trkpt><trkpt lat="44.7442222" lon="7.8509777"><ele>369.7142857142857</ele><time>2026-04-10T10:56:49.972Z</time></trkpt><trkpt lat="44.7441932" lon="7.8510803"><ele>370.42857142857144</ele><time>2026-04-10T10:56:53.972Z</time></trkpt><trkpt lat="44.7441674" lon="7.8511847"><ele>371.1428571428571</ele><time>2026-04-10T10:56:56.972Z</time></trkpt><trkpt lat="44.7441425" lon="7.8512687"><ele>371.8571428571429</ele><time>2026-04-10T10:56:59.971Z</time></trkpt><trkpt lat="44.744109" lon="7.8513665"><ele>372.5714285714286</ele><time>2026-04-10T10:57:07.972Z</time></trkpt><trkpt lat="44.74407" lon="7.8514513"><ele>373.2857142857143</ele><time>2026-04-10T10:57:11.972Z</time></trkpt><trkpt lat="44.7440225" lon="7.8515098"><ele>374.0</ele><time>2026-04-10T10:57:17.971Z</time></trkpt><trkpt lat="44.744001" lon="7.8515934"><ele>374.0</ele><time>2026-04-10T10:57:21.971Z</time></trkpt><trkpt lat="44.7439937" lon="7.8516893"><ele>374.0</ele><time>2026-04-10T10:57:26.971Z</time></trkpt><trkpt lat="44.7439855" lon="7.8517907"><ele>374.0</ele><time>2026-04-10T10:57:31.972Z</time></trkpt><trkpt lat="44.743974" lon="7.8518827"><ele>374.0</ele><time>2026-04-10T10:57:36.972Z</time></trkpt><trkpt lat="44.7439594" lon="7.8519722"><ele>374.0</ele><time>2026-04-10T10:57:40.971Z</time></trkpt><trkpt lat="44.7439169" lon="7.852045"><ele>374.0</ele><time>2026-04-10T10:57:44.972Z</time></trkpt><trkpt lat="44.7438799" lon="7.85213"><ele>374.0</ele><time>2026-04-10T10:57:48.971Z</time></trkpt><trkpt lat="44.7438317" lon="7.8522019"><ele>374.1428571428571</ele><time>2026-04-10T10:57:52.972Z</time></trkpt><trkpt lat="44.7437965" lon="7.8522883"><ele>374.28571428571433</ele><time>2026-04-10T10:57:55.972Z</time></trkpt><trkpt lat="44.7437727" lon="7.8523793"><ele>374.42857142857144</ele><time>2026-04-10T10:57:58.972Z</time></trkpt><trkpt lat="44.7437231" lon="7.8524862"><ele>374.57142857142856</ele><time>2026-04-10T10:58:06.971Z</time></trkpt><trkpt lat="44.7436838" lon="7.8525604"><ele>374.71428571428567</ele><time>2026-04-10T10:58:15.972Z</time></trkpt><trkpt lat="44.7436672" lon="7.8526474"><ele>374.8571428571429</ele><time>2026-04-10T10:58:25.971Z</time></trkpt><trkpt lat="44.7436135" lon="7.8527142"><ele>375.0</ele><time>2026-04-10T10:58:31.972Z</time></trkpt><trkpt lat="44.7435756" lon="7.8527855"><ele>375.2857142857143</ele><time>2026-04-10T10:58:36.972Z</time></trkpt><trkpt lat="44.7435261" lon="7.8528556"><ele>375.57142857142856</ele><time>2026-04-10T10:58:42.972Z</time></trkpt><trkpt lat="44.7434741" lon="7.8529318"><ele>375.85714285714283</ele><time>2026-04-10T10:58:48.972Z</time></trkpt><trkpt lat="44.7434305" lon="7.8530084"><ele>376.1428571428571</ele><time>2026-04-10T10:58:53.972Z</time></trkpt><trkpt lat="44.7433976" lon="7.8530847"><ele>376.42857142857144</ele><time>2026-04-10T10:59:00.972Z</time></trkpt><trkpt lat="44.7433393" lon="7.8531405"><ele>376.71428571428567</ele><time>2026-04-10T10:59:18.972Z</time></trkpt><trkpt lat="44.7432772" lon="7.8531972"><ele>377.0</ele><time>2026-04-10T10:59:23.972Z</time></trkpt><trkpt lat="44.7432163" lon="7.8532446"><ele>376.99999999999994</ele><time>2026-04-10T10:59:29.972Z</time></trkpt><trkpt lat="44.7431493" lon="7.8532799"><ele>377.0</ele><time>2026-04-10T10:59:36.972Z</time></trkpt><trkpt lat="44.7430863" lon="7.8532847"><ele>377.0</ele><time>2026-04-10T10:59:46.971Z</time></trkpt><trkpt lat="44.7430087" lon="7.8532599"><ele>377.0</ele><time>2026-04-10T10:59:54.971Z</time></trkpt><trkpt lat="44.7429432" lon="7.8532847"><ele>377.0</ele><time>2026-04-10T11:00:00.971Z</time></trkpt><trkpt lat="44.7428764" lon="7.853271"><ele>376.99999999999994</ele><time>2026-04-10T11:00:07.972Z</time></trkpt><trkpt lat="44.7428211" lon="7.8532264"><ele>377.0</ele><time>2026-04-10T11:00:14.972Z</time></trkpt><trkpt lat="44.742767" lon="7.8531592"><ele>377.1666666666667</ele><time>2026-04-10T11:00:22.971Z</time></trkpt><trkpt lat="44.742702" lon="7.8531706"><ele>377.33333333333337</ele><time>2026-04-10T11:00:29.972Z</time></trkpt><trkpt lat="44.742686" lon="7.8532657"><ele>377.5</ele><time>2026-04-10T11:00:41.972Z</time></trkpt><trkpt lat="44.7426397" lon="7.8533432"><ele>377.6666666666667</ele><time>2026-04-10T11:00:47.971Z</time></trkpt><trkpt lat="44.7425638" lon="7.8533803"><ele>377.8333333333333</ele><time>2026-04-10T11:00:59.972Z</time></trkpt><trkpt lat="44.7424741" lon="7.8533599"><ele>378.0</ele><time>2026-04-10T11:01:03.972Z</time></trkpt><trkpt lat="44.7423996" lon="7.8532983"><ele>378.0</ele><time>2026-04-10T11:01:06.972Z</time></trkpt><trkpt lat="44.7423617" lon="7.8532153"><ele>378.0</ele><time>2026-04-10T11:01:17.972Z</time></trkpt><trkpt lat="44.742293" lon="7.8531775"><ele>378.0</ele><time>2026-04-10T11:01:31.972Z</time></trkpt><trkpt lat="44.7422242" lon="7.8531792"><ele>378.0</ele><time>2026-04-10T11:01:36.972Z</time></trkpt><trkpt lat="44.7421611" lon="7.8532339"><ele>378.0</ele><time>2026-04-10T11:01:48.972Z</time></trkpt><trkpt lat="44.7420989" lon="7.853265"><ele>378.0</ele><time>2026-04-10T11:01:54.971Z</time></trkpt><trkpt lat="44.7420358" lon="7.8532894"><ele>378.0</ele><time>2026-04-10T11:02:00.972Z</time></trkpt><trkpt lat="44.7419656" lon="7.8532947"><ele>378.0</ele><time>2026-04-10T11:02:21.972Z</time></trkpt><trkpt lat="44.7419024" lon="7.8532846"><ele>378.0</ele><time>2026-04-10T11:02:28.972Z</time></trkpt><trkpt lat="44.7418334" lon="7.853299"><ele>378.0</ele><time>2026-04-10T11:02:36.972Z</time></trkpt><trkpt lat="44.7417655" lon="7.8533199"><ele>378.0</ele><time>2026-04-10T11:02:43.972Z</time></trkpt><trkpt lat="44.7417016" lon="7.85329"><ele>378.0</ele><time>2026-04-10T11:02:49.972Z</time></trkpt><trkpt lat="44.7416297" lon="7.8533015"><ele>378.0</ele><time>2026-04-10T11:02:55.972Z</time></trkpt><trkpt lat="44.7415587" lon="7.8532852"><ele>378.0</ele><time>2026-04-10T11:03:02.972Z</time></trkpt><trkpt lat="44.7414958" lon="7.8533198"><ele>378.57142857142856</ele><time>2026-04-10T11:03:09.971Z</time></trkpt><trkpt lat="44.7414283" lon="7.8533601"><ele>379.1428571428571</ele><time>2026-04-10T11:03:15.972Z</time></trkpt><trkpt lat="44.7413892" lon="7.8534388"><ele>379.7142857142857</ele><time>2026-04-10T11:03:25.972Z</time></trkpt><trkpt lat="44.7413381" lon="7.8534955"><ele>380.2857142857143</ele><time>2026-04-10T11:04:16.972Z</time></trkpt><trkpt lat="44.7412948" lon="7.8535751"><ele>380.85714285714283</ele><time>2026-04-10T11:04:23.972Z</time></trkpt><trkpt lat="44.7412818" lon="7.8536675"><ele>381.42857142857144</ele><time>2026-04-10T11:04:33.972Z</time></trkpt><trkpt lat="44.7412814" lon="7.8537642"><ele>382.0</ele><time>2026-04-10T11:04:56.972Z</time></trkpt><trkpt lat="44.7413042" lon="7.8538559"><ele>382.0</ele><time>2026-04-10T11:05:04.972Z</time></trkpt><trkpt lat="44.7413209" lon="7.8539454"><ele>382.0</ele><time>2026-04-10T11:05:10.972Z</time></trkpt><trkpt lat="44.7413226" lon="7.8540391"><ele>382.0</ele><time>2026-04-10T11:05:15.972Z</time></trkpt><trkpt lat="44.741285" lon="7.8541299"><ele>382.0</ele><time>2026-04-10T11:05:22.972Z</time></trkpt><trkpt lat="44.7412235" lon="7.8541761"><ele>382.0</ele><time>2026-04-10T11:05:28.972Z</time></trkpt><trkpt lat="44.741155" lon="7.8542073"><ele>382.0</ele><time>2026-04-10T11:05:33.971Z</time></trkpt><trkpt lat="44.7410911" lon="7.8542182"><ele>382.0</ele><time>2026-04-10T11:05:37.971Z</time></trkpt><trkpt lat="44.7410302" lon="7.8542572"><ele>382.5714285714286</ele><time>2026-04-10T11:05:43.971Z</time></trkpt><trkpt lat="44.7409663" lon="7.8542547"><ele>383.1428571428571</ele><time>2026-04-10T11:05:48.972Z</time></trkpt><trkpt lat="44.7408994" lon="7.8542773"><ele>383.7142857142857</ele><time>2026-04-10T11:05:53.972Z</time></trkpt><trkpt lat="44.740838" lon="7.8543041"><ele>384.28571428571433</ele><time>2026-04-10T11:05:59.983Z</time></trkpt><trkpt lat="44.7407655" lon="7.8543001"><ele>384.8571428571429</ele><time>2026-04-10T11:06:07.977Z</time></trkpt><trkpt lat="44.7406959" lon="7.8543105"><ele>385.42857142857144</ele><time>2026-04-10T11:06:13.977Z</time></trkpt><trkpt lat="44.7406204" lon="7.8543217"><ele>386.0</ele><time>2026-04-10T11:06:19.977Z</time></trkpt><trkpt lat="44.7405561" lon="7.8543421"><ele>386.42857142857144</ele><time>2026-04-10T11:06:26.977Z</time></trkpt><trkpt lat="44.740495" lon="7.8543881"><ele>386.8571428571429</ele><time>2026-04-10T11:06:33.977Z</time></trkpt><trkpt lat="44.7404258" lon="7.8544159"><ele>387.28571428571433</ele><time>2026-04-10T11:06:39.977Z</time></trkpt><trkpt lat="44.740374" lon="7.8544712"><ele>387.7142857142857</ele><time>2026-04-10T11:06:45.977Z</time></trkpt><trkpt lat="44.7403167" lon="7.8545239"><ele>388.1428571428571</ele><time>2026-04-10T11:06:52.977Z</time></trkpt><trkpt lat="44.7402514" lon="7.8545402"><ele>388.5714285714286</ele><time>2026-04-10T11:06:58.977Z</time></trkpt><trkpt lat="44.7401791" lon="7.8545362"><ele>389.0</ele><time>2026-04-10T11:07:04.977Z</time></trkpt><trkpt lat="44.7401318" lon="7.8546141"><ele>389.0</ele><time>2026-04-10T11:07:10.977Z</time></trkpt><trkpt lat="44.7400754" lon="7.8546762"><ele>389.0</ele><time>2026-04-10T11:07:17.976Z</time></trkpt><trkpt lat="44.740007" lon="7.8546966"><ele>389.0</ele><time>2026-04-10T11:07:50.976Z</time></trkpt><trkpt lat="44.7399315" lon="7.854706"><ele>389.0</ele><time>2026-04-10T11:07:56.977Z</time></trkpt><trkpt lat="44.7398656" lon="7.8547301"><ele>389.0</ele><time>2026-04-10T11:08:02.977Z</time></trkpt><trkpt lat="44.7397912" lon="7.8547484"><ele>389.0</ele><time>2026-04-10T11:08:08.977Z</time></trkpt><trkpt lat="44.7397245" lon="7.8547352"><ele>389.0</ele><time>2026-04-10T11:08:13.977Z</time></trkpt><trkpt lat="44.739658" lon="7.854738"><ele>389.0</ele><time>2026-04-10T11:08:18.976Z</time></trkpt><trkpt lat="44.7395943" lon="7.8547456"><ele>389.0</ele><time>2026-04-10T11:08:23.976Z</time></trkpt><trkpt lat="44.7395297" lon="7.8547467"><ele>389.0</ele><time>2026-04-10T11:08:28.976Z</time></trkpt><trkpt lat="44.7394642" lon="7.8547602"><ele>389.0</ele><time>2026-04-10T11:08:34.977Z</time></trkpt><trkpt lat="44.7394018" lon="7.8547815"><ele>389.0</ele><time>2026-04-10T11:08:39.977Z</time></trkpt><trkpt lat="44.7393511" lon="7.8548512"><ele>389.0</ele><time>2026-04-10T11:08:50.977Z</time></trkpt><trkpt lat="44.7392914" lon="7.8548796"><ele>389.0</ele><time>2026-04-10T11:08:54.977Z</time></trkpt><trkpt lat="44.7392566" lon="7.8549537"><ele>389.2857142857143</ele><time>2026-04-10T11:08:59.977Z</time></trkpt><trkpt lat="44.7392053" lon="7.8550077"><ele>389.57142857142856</ele><time>2026-04-10T11:09:02.977Z</time></trkpt><trkpt lat="44.7391487" lon="7.8550644"><ele>389.85714285714283</ele><time>2026-04-10T11:09:05.976Z</time></trkpt><trkpt lat="44.7390912" lon="7.855127"><ele>390.1428571428571</ele><time>2026-04-10T11:09:08.977Z</time></trkpt><trkpt lat="44.7390412" lon="7.8552072"><ele>390.42857142857144</ele><time>2026-04-10T11:09:11.977Z</time></trkpt><trkpt lat="44.7389754" lon="7.8552656"><ele>390.71428571428567</ele><time>2026-04-10T11:09:16.976Z</time></trkpt><trkpt lat="44.738903" lon="7.8553167"><ele>391.0</ele><time>2026-04-10T11:09:20.977Z</time></trkpt><trkpt lat="44.7388283" lon="7.8553746"><ele>390.4285714285714</ele><time>2026-04-10T11:09:24.977Z</time></trkpt><trkpt lat="44.7387528" lon="7.8554446"><ele>389.85714285714283</ele><time>2026-04-10T11:09:27.977Z</time></trkpt><trkpt lat="44.7386966" lon="7.8555027"><ele>389.2857142857143</ele><time>2026-04-10T11:09:30.977Z</time></trkpt><trkpt lat="44.7386585" lon="7.8555852"><ele>388.71428571428567</ele><time>2026-04-10T11:09:34.977Z</time></trkpt><trkpt lat="44.7386739" lon="7.8557007"><ele>388.14285714285717</ele><time>2026-04-10T11:09:38.977Z</time></trkpt><trkpt lat="44.7386792" lon="7.8557983"><ele>387.57142857142856</ele><time>2026-04-10T11:09:42.977Z</time></trkpt><trkpt lat="44.7386401" lon="7.855869"><ele>387.0</ele><time>2026-04-10T11:09:46.977Z</time></trkpt><trkpt lat="44.7386318" lon="7.8559885"><ele>342.0</ele><time>2026-04-10T11:09:57.976Z</time></trkpt><trkpt lat="44.7494274" lon="7.8541657"><ele>342.0</ele><time>2026-04-10T11:21:31.977Z</time></trkpt><trkpt lat="44.7495207" lon="7.8540786"><ele>342.0</ele><time>2026-04-10T11:21:33.977Z</time></trkpt><trkpt lat="44.7496055" lon="7.8539799"><ele>342.0</ele><time>2026-04-10T11:21:35.976Z</time></trkpt><trkpt lat="44.7496867" lon="7.8538837"><ele>342.0</ele><time>2026-04-10T11:21:37.976Z</time></trkpt><trkpt lat="44.7497649" lon="7.8537909"><ele>342.0</ele><time>2026-04-10T11:21:39.976Z</time></trkpt><trkpt lat="44.7498456" lon="7.8537125"><ele>342.0</ele><time>2026-04-10T11:21:41.977Z</time></trkpt><trkpt lat="44.7499241" lon="7.8536339"><ele>342.0</ele><time>2026-04-10T11:21:43.977Z</time></trkpt><trkpt lat="44.750001" lon="7.8535474"><ele>342.0</ele><time>2026-04-10T11:21:45.976Z</time></trkpt><trkpt lat="44.7500753" lon="7.8534432"><ele>342.0</ele><time>2026-04-10T11:21:47.977Z</time></trkpt><trkpt lat="44.7501509" lon="7.8533575"><ele>342.0</ele><time>2026-04-10T11:21:49.976Z</time></trkpt><trkpt lat="44.7502789" lon="7.8531864"><ele>342.3333333333333</ele><time>2026-04-10T11:21:53.977Z</time></trkpt><trkpt lat="44.7503438" lon="7.8531057"><ele>342.6666666666667</ele><time>2026-04-10T11:21:55.976Z</time></trkpt><trkpt lat="44.7504019" lon="7.8530265"><ele>343.0</ele><time>2026-04-10T11:21:57.976Z</time></trkpt><trkpt lat="44.7504548" lon="7.8529424"><ele>343.33333333333337</ele><time>2026-04-10T11:21:59.977Z</time></trkpt><trkpt lat="44.7505089" lon="7.8528636"><ele>343.6666666666667</ele><time>2026-04-10T11:22:01.976Z</time></trkpt><trkpt lat="44.7505493" lon="7.8527769"><ele>344.0</ele><time>2026-04-10T11:22:03.976Z</time></trkpt><trkpt lat="44.7505895" lon="7.8526841"><ele>343.4</ele><time>2026-04-10T11:22:05.977Z</time></trkpt><trkpt lat="44.7506464" lon="7.8525904"><ele>342.79999999999995</ele><time>2026-04-10T11:22:08.977Z</time></trkpt><trkpt lat="44.7506906" lon="7.8524981"><ele>342.20000000000005</ele><time>2026-04-10T11:22:11.977Z</time></trkpt><trkpt lat="44.7507695" lon="7.8523216"><ele>341.6</ele><time>2026-04-10T11:22:16.976Z</time></trkpt><trkpt lat="44.750802" lon="7.8522227"><ele>341.0</ele><time>2026-04-10T11:22:18.977Z</time></trkpt><trkpt lat="44.7508375" lon="7.8521149"><ele>341.0</ele><time>2026-04-10T11:22:20.976Z</time></trkpt><trkpt lat="44.7508733" lon="7.8520013"><ele>341.0</ele><time>2026-04-10T11:22:22.977Z</time></trkpt><trkpt lat="44.7509133" lon="7.851888"><ele>341.0</ele><time>2026-04-10T11:22:24.976Z</time></trkpt><trkpt lat="44.7509512" lon="7.8517727"><ele>341.0</ele><time>2026-04-10T11:22:26.976Z</time></trkpt><trkpt lat="44.7509908" lon="7.8516602"><ele>341.0</ele><time>2026-04-10T11:22:28.976Z</time></trkpt><trkpt lat="44.7510328" lon="7.8515569"><ele>341.0</ele><time>2026-04-10T11:22:30.977Z</time></trkpt><trkpt lat="44.7510735" lon="7.8514565"><ele>340.6666666666667</ele><time>2026-04-10T11:22:32.977Z</time></trkpt><trkpt lat="44.7511538" lon="7.8512596"><ele>340.33333333333337</ele><time>2026-04-10T11:22:36.977Z</time></trkpt><trkpt lat="44.7511895" lon="7.8511658"><ele>340.0</ele><time>2026-04-10T11:22:38.977Z</time></trkpt><trkpt lat="44.7512269" lon="7.8510802"><ele>339.6666666666667</ele><time>2026-04-10T11:22:40.976Z</time></trkpt><trkpt lat="44.7512642" lon="7.8509986"><ele>339.3333333333333</ele><time>2026-04-10T11:22:42.977Z</time></trkpt><trkpt lat="44.7512983" lon="7.8509235"><ele>339.0</ele><time>2026-04-10T11:22:44.977Z</time></trkpt><trkpt lat="44.751355" lon="7.8508176"><ele>338.5</ele><time>2026-04-10T11:22:47.977Z</time></trkpt><trkpt lat="44.7514099" lon="7.8507068"><ele>338.0</ele><time>2026-04-10T11:22:50.976Z</time></trkpt><trkpt lat="44.7514594" lon="7.850606"><ele>337.5</ele><time>2026-04-10T11:22:53.976Z</time></trkpt><trkpt lat="44.7515953" lon="7.8503526"><ele>337.0</ele><time>2026-04-10T11:23:57.977Z</time></trkpt><trkpt lat="44.7516313" lon="7.850258"><ele>337.0</ele><time>2026-04-10T11:24:01.977Z</time></trkpt><trkpt lat="44.7516696" lon="7.850168"><ele>337.0</ele><time>2026-04-10T11:24:05.977Z</time></trkpt><trkpt lat="44.7517118" lon="7.8500975"><ele>337.0</ele><time>2026-04-10T11:24:09.977Z</time></trkpt><trkpt lat="44.7517603" lon="7.8500324"><ele>337.0</ele><time>2026-04-10T11:24:12.977Z</time></trkpt><trkpt lat="44.751845" lon="7.8499021"><ele>337.0</ele><time>2026-04-10T11:24:18.977Z</time></trkpt><trkpt lat="44.751889" lon="7.8498183"><ele>337.0</ele><time>2026-04-10T11:24:21.977Z</time></trkpt><trkpt lat="44.7519314" lon="7.8497357"><ele>337.0</ele><time>2026-04-10T11:24:24.977Z</time></trkpt><trkpt lat="44.7519721" lon="7.8496608"><ele>337.0</ele><time>2026-04-10T11:24:27.977Z</time></trkpt><trkpt lat="44.7520177" lon="7.849579"><ele>337.0</ele><time>2026-04-10T11:24:30.977Z</time></trkpt><trkpt lat="44.7520616" lon="7.8495018"><ele>337.0</ele><time>2026-04-10T11:24:33.976Z</time></trkpt><trkpt lat="44.7521445" lon="7.8493059"><ele>337.0</ele><time>2026-04-10T11:24:39.977Z</time></trkpt><trkpt lat="44.7521765" lon="7.8492042"><ele>336.6</ele><time>2026-04-10T11:24:42.977Z</time></trkpt><trkpt lat="44.7522138" lon="7.8491126"><ele>336.20000000000005</ele><time>2026-04-10T11:24:45.977Z</time></trkpt><trkpt lat="44.7522581" lon="7.8490077"><ele>335.8</ele><time>2026-04-10T11:24:48.977Z</time></trkpt><trkpt lat="44.7522917" lon="7.8489151"><ele>335.4</ele><time>2026-04-10T11:24:51.977Z</time></trkpt><trkpt lat="44.7523328" lon="7.8488112"><ele>335.0</ele><time>2026-04-10T11:24:54.976Z</time></trkpt><trkpt lat="44.7523985" lon="7.8485956"><ele>335.0</ele><time>2026-04-10T11:25:00.977Z</time></trkpt><trkpt lat="44.7524457" lon="7.8484828"><ele>335.0</ele><time>2026-04-10T11:25:03.976Z</time></trkpt><trkpt lat="44.7524843" lon="7.8484065"><ele>335.0</ele><time>2026-04-10T11:25:05.977Z</time></trkpt><trkpt lat="44.7525224" lon="7.8483174"><ele>335.0</ele><time>2026-04-10T11:25:07.976Z</time></trkpt><trkpt lat="44.752561" lon="7.8482146"><ele>335.0</ele><time>2026-04-10T11:25:09.977Z</time></trkpt><trkpt lat="44.752606" lon="7.8481003"><ele>335.0</ele><time>2026-04-10T11:25:11.977Z</time></trkpt><trkpt lat="44.7526549" lon="7.8479709"><ele>334.6666666666667</ele><time>2026-04-10T11:25:13.977Z</time></trkpt><trkpt lat="44.7527053" lon="7.8478354"><ele>334.3333333333333</ele><time>2026-04-10T11:25:15.977Z</time></trkpt><trkpt lat="44.7528157" lon="7.8475534"><ele>334.0</ele><time>2026-04-10T11:25:19.976Z</time></trkpt><trkpt lat="44.7528777" lon="7.8474156"><ele>333.75</ele><time>2026-04-10T11:25:21.977Z</time></trkpt><trkpt lat="44.7529417" lon="7.8472807"><ele>333.5</ele><time>2026-04-10T11:25:23.977Z</time></trkpt><trkpt lat="44.7530099" lon="7.8471483"><ele>333.25</ele><time>2026-04-10T11:25:25.977Z</time></trkpt><trkpt lat="44.7530796" lon="7.8470193"><ele>333.0</ele><time>2026-04-10T11:25:27.977Z</time></trkpt><trkpt lat="44.7531544" lon="7.8468965"><ele>333.2</ele><time>2026-04-10T11:25:29.977Z</time></trkpt><trkpt lat="44.7532118" lon="7.8467623"><ele>333.4</ele><time>2026-04-10T11:25:31.977Z</time></trkpt><trkpt lat="44.7532439" lon="7.8466167"><ele>333.59999999999997</ele><time>2026-04-10T11:25:33.976Z</time></trkpt><trkpt lat="44.7532461" lon="7.8464737"><ele>333.79999999999995</ele><time>2026-04-10T11:25:35.977Z</time></trkpt><trkpt lat="44.7532442" lon="7.8463297"><ele>334.0</ele><time>2026-04-10T11:25:37.977Z</time></trkpt><trkpt lat="44.7532306" lon="7.8460515"><ele>334.0</ele><time>2026-04-10T11:25:41.977Z</time></trkpt><trkpt lat="44.7532241" lon="7.8459238"><ele>334.0</ele><time>2026-04-10T11:25:43.976Z</time></trkpt><trkpt lat="44.7532151" lon="7.8458037"><ele>334.0</ele><time>2026-04-10T11:25:45.976Z</time></trkpt><trkpt lat="44.7532014" lon="7.8456765"><ele>334.0</ele><time>2026-04-10T11:25:47.977Z</time></trkpt><trkpt lat="44.753175" lon="7.8455638"><ele>334.0</ele><time>2026-04-10T11:25:49.976Z</time></trkpt><trkpt lat="44.7531717" lon="7.8454475"><ele>334.0</ele><time>2026-04-10T11:25:51.976Z</time></trkpt><trkpt lat="44.7531655" lon="7.8453224"><ele>334.0</ele><time>2026-04-10T11:25:53.977Z</time></trkpt><trkpt lat="44.7531671" lon="7.8452007"><ele>334.0</ele><time>2026-04-10T11:25:55.977Z</time></trkpt><trkpt lat="44.7531696" lon="7.8451095"><ele>334.0</ele><time>2026-04-10T11:25:56.977Z</time></trkpt><trkpt lat="44.7531729" lon="7.8450003"><ele>334.0</ele><time>2026-04-10T11:25:58.977Z</time></trkpt><trkpt lat="44.7531708" lon="7.8447859"><ele>334.0</ele><time>2026-04-10T11:26:02.976Z</time></trkpt><trkpt lat="44.7531835" lon="7.8446833"><ele>333.85714285714283</ele><time>2026-04-10T11:26:04.977Z</time></trkpt><trkpt lat="44.7531923" lon="7.8445772"><ele>333.7142857142857</ele><time>2026-04-10T11:26:06.977Z</time></trkpt><trkpt lat="44.7532061" lon="7.8444658"><ele>333.57142857142856</ele><time>2026-04-10T11:26:08.977Z</time></trkpt><trkpt lat="44.7532376" lon="7.8443673"><ele>333.42857142857144</ele><time>2026-04-10T11:26:10.976Z</time></trkpt><trkpt lat="44.7532652" lon="7.8442753"><ele>333.2857142857143</ele><time>2026-04-10T11:26:12.977Z</time></trkpt><trkpt lat="44.7533006" lon="7.8441789"><ele>333.14285714285717</ele><time>2026-04-10T11:26:14.976Z</time></trkpt><trkpt lat="44.7533292" lon="7.8440914"><ele>333.0</ele><time>2026-04-10T11:26:16.976Z</time></trkpt><trkpt lat="44.753357" lon="7.8439974"><ele>332.79999999999995</ele><time>2026-04-10T11:26:18.976Z</time></trkpt><trkpt lat="44.7533858" lon="7.8438958"><ele>332.6</ele><time>2026-04-10T11:26:20.977Z</time></trkpt><trkpt lat="44.7534511" lon="7.8436829"><ele>332.4</ele><time>2026-04-10T11:26:24.976Z</time></trkpt><trkpt lat="44.7534759" lon="7.843585"><ele>332.20000000000005</ele><time>2026-04-10T11:26:26.976Z</time></trkpt><trkpt lat="44.7534887" lon="7.8434756"><ele>332.0</ele><time>2026-04-10T11:26:29.977Z</time></trkpt><trkpt lat="44.7534903" lon="7.8433651"><ele>332.0</ele><time>2026-04-10T11:26:52.976Z</time></trkpt><trkpt lat="44.7534758" lon="7.8431743"><ele>332.0</ele><time>2026-04-10T11:26:58.977Z</time></trkpt><trkpt lat="44.7534845" lon="7.8430765"><ele>332.0</ele><time>2026-04-10T11:27:01.977Z</time></trkpt><trkpt lat="44.7534964" lon="7.8429638"><ele>332.0</ele><time>2026-04-10T11:27:04.977Z</time></trkpt><trkpt lat="44.7535102" lon="7.8428669"><ele>332.0</ele><time>2026-04-10T11:27:07.977Z</time></trkpt><trkpt lat="44.7535346" lon="7.8427747"><ele>332.0</ele><time>2026-04-10T11:27:10.977Z</time></trkpt><trkpt lat="44.7535563" lon="7.8426839"><ele>331.8</ele><time>2026-04-10T11:27:13.977Z</time></trkpt><trkpt lat="44.7536263" lon="7.8424743"><ele>331.6</ele><time>2026-04-10T11:27:19.977Z</time></trkpt><trkpt lat="44.7536582" lon="7.8423687"><ele>331.40000000000003</ele><time>2026-04-10T11:27:22.977Z</time></trkpt><trkpt lat="44.7536933" lon="7.8422569"><ele>331.20000000000005</ele><time>2026-04-10T11:27:25.976Z</time></trkpt><trkpt lat="44.753732" lon="7.8421504"><ele>331.0</ele><time>2026-04-10T11:27:28.977Z</time></trkpt><trkpt lat="44.7537616" lon="7.842071"><ele>331.0</ele><time>2026-04-10T11:27:30.977Z</time></trkpt><trkpt lat="44.7537987" lon="7.8419669"><ele>331.0</ele><time>2026-04-10T11:27:33.977Z</time></trkpt><trkpt lat="44.7538579" lon="7.8418763"><ele>331.0</ele><time>2026-04-10T11:27:36.977Z</time></trkpt><trkpt lat="44.7539698" lon="7.8417064"><ele>331.0</ele><time>2026-04-10T11:27:42.977Z</time></trkpt><trkpt lat="44.7540159" lon="7.841608"><ele>331.0</ele><time>2026-04-10T11:27:45.976Z</time></trkpt><trkpt lat="44.7540633" lon="7.8415468"><ele>330.8333333333333</ele><time>2026-04-10T11:27:47.976Z</time></trkpt><trkpt lat="44.7541187" lon="7.8414941"><ele>330.66666666666663</ele><time>2026-04-10T11:27:49.977Z</time></trkpt><trkpt lat="44.7541608" lon="7.8414113"><ele>330.5</ele><time>2026-04-10T11:27:51.976Z</time></trkpt><trkpt lat="44.7542081" lon="7.8413407"><ele>330.3333333333333</ele><time>2026-04-10T11:27:53.977Z</time></trkpt><trkpt lat="44.7542495" lon="7.8412679"><ele>330.1666666666667</ele><time>2026-04-10T11:27:55.976Z</time></trkpt><trkpt lat="44.7542954" lon="7.8411759"><ele>330.0</ele><time>2026-04-10T11:27:58.977Z</time></trkpt><trkpt lat="44.7543949" lon="7.8409926"><ele>329.5</ele><time>2026-04-10T11:28:04.976Z</time></trkpt><trkpt lat="44.75446" lon="7.8409008"><ele>329.0</ele><time>2026-04-10T11:28:07.976Z</time></trkpt><trkpt lat="44.7545156" lon="7.8408189"><ele>328.5</ele><time>2026-04-10T11:28:10.976Z</time></trkpt><trkpt lat="44.7545788" lon="7.8407646"><ele>328.0</ele><time>2026-04-10T11:28:13.977Z</time></trkpt><trkpt lat="44.754638" lon="7.8406928"><ele>327.5</ele><time>2026-04-10T11:28:16.977Z</time></trkpt><trkpt lat="44.7546981" lon="7.8406047"><ele>327.0</ele><time>2026-04-10T11:28:19.977Z</time></trkpt><trkpt lat="44.7548139" lon="7.8404511"><ele>327.0</ele><time>2026-04-10T11:28:25.977Z</time></trkpt><trkpt lat="44.7548796" lon="7.8403626"><ele>327.0</ele><time>2026-04-10T11:28:28.976Z</time></trkpt><trkpt lat="44.7549127" lon="7.8402756"><ele>327.0</ele><time>2026-04-10T11:28:30.976Z</time></trkpt><trkpt lat="44.7549403" lon="7.8401855"><ele>327.0</ele><time>2026-04-10T11:28:32.977Z</time></trkpt><trkpt lat="44.7549658" lon="7.8401"><ele>327.0</ele><time>2026-04-10T11:28:34.977Z</time></trkpt><trkpt lat="44.7549899" lon="7.8400089"><ele>327.0</ele><time>2026-04-10T11:28:36.977Z</time></trkpt><trkpt lat="44.7550213" lon="7.8399258"><ele>327.0</ele><time>2026-04-10T11:28:38.977Z</time></trkpt><trkpt lat="44.7550508" lon="7.8398412"><ele>327.0</ele><time>2026-04-10T11:28:40.976Z</time></trkpt><trkpt lat="44.7551103" lon="7.8396176"><ele>327.0</ele><time>2026-04-10T11:28:46.976Z</time></trkpt><trkpt lat="44.7551321" lon="7.8395134"><ele>327.0</ele><time>2026-04-10T11:28:49.977Z</time></trkpt><trkpt lat="44.7551473" lon="7.8394261"><ele>327.0</ele><time>2026-04-10T11:28:51.976Z</time></trkpt><trkpt lat="44.7551604" lon="7.8393327"><ele>327.0</ele><time>2026-04-10T11:28:53.977Z</time></trkpt><trkpt lat="44.7551757" lon="7.8392294"><ele>328.0</ele><time>2026-04-10T11:28:55.977Z</time></trkpt><trkpt lat="44.7551763" lon="7.8391341"><ele>328.0</ele><time>2026-04-10T11:28:57.977Z</time></trkpt><trkpt lat="44.755157" lon="7.8390381"><ele>328.0</ele><time>2026-04-10T11:28:59.977Z</time></trkpt><trkpt lat="44.7551346" lon="7.8389504"><ele>328.0</ele><time>2026-04-10T11:29:01.977Z</time></trkpt></trkseg><trkseg><trkpt lat="44.7677404" lon="7.8433942"><ele>339.2857142857143</ele><time>2026-04-10T13:12:14.973Z</time></trkpt><trkpt lat="44.7676896" lon="7.843455"><ele>339.5714285714286</ele><time>2026-04-10T13:12:18.972Z</time></trkpt><trkpt lat="44.7676287" lon="7.8435201"><ele>339.8571428571429</ele><time>2026-04-10T13:12:22.973Z</time></trkpt><trkpt lat="44.7675736" lon="7.8435665"><ele>340.1428571428571</ele><time>2026-04-10T13:12:26.972Z</time></trkpt><trkpt lat="44.7675114" lon="7.8436031"><ele>340.42857142857144</ele><time>2026-04-10T13:12:32.973Z</time></trkpt><trkpt lat="44.7674503" lon="7.8436584"><ele>340.7142857142857</ele><time>2026-04-10T13:12:37.972Z</time></trkpt><trkpt lat="44.7674019" lon="7.8437188"><ele>341.0</ele><time>2026-04-10T13:12:42.972Z</time></trkpt><trkpt lat="44.7673396" lon="7.8437787"><ele>341.0</ele><time>2026-04-10T13:12:47.973Z</time></trkpt><trkpt lat="44.7672747" lon="7.8438351"><ele>341.0</ele><time>2026-04-10T13:12:52.973Z</time></trkpt><trkpt lat="44.7672182" lon="7.8438837"><ele>341.0</ele><time>2026-04-10T13:12:57.972Z</time></trkpt><trkpt lat="44.767168" lon="7.8439376"><ele>341.0</ele><time>2026-04-10T13:13:01.973Z</time></trkpt><trkpt lat="44.7670913" lon="7.8440037"><ele>341.0</ele><time>2026-04-10T13:13:06.973Z</time></trkpt><trkpt lat="44.7670293" lon="7.8440692"><ele>341.0</ele><time>2026-04-10T13:13:11.973Z</time></trkpt><trkpt lat="44.7669774" lon="7.8441203"><ele>341.0</ele><time>2026-04-10T13:13:15.973Z</time></trkpt><trkpt lat="44.7669186" lon="7.8441748"><ele>341.42857142857144</ele><time>2026-04-10T13:13:19.972Z</time></trkpt><trkpt lat="44.7668588" lon="7.8442314"><ele>341.8571428571429</ele><time>2026-04-10T13:13:23.972Z</time></trkpt><trkpt lat="44.7667956" lon="7.8442938"><ele>342.28571428571433</ele><time>2026-04-10T13:13:27.973Z</time></trkpt><trkpt lat="44.7667306" lon="7.8443607"><ele>342.7142857142857</ele><time>2026-04-10T13:13:31.973Z</time></trkpt><trkpt lat="44.7666691" lon="7.8444201"><ele>343.14285714285717</ele><time>2026-04-10T13:13:35.972Z</time></trkpt><trkpt lat="44.7666048" lon="7.8444858"><ele>343.5714285714286</ele><time>2026-04-10T13:13:39.973Z</time></trkpt><trkpt lat="44.7665506" lon="7.8445367"><ele>344.0</ele><time>2026-04-10T13:13:42.973Z</time></trkpt><trkpt lat="44.7664983" lon="7.8445934"><ele>344.00000000000006</ele><time>2026-04-10T13:13:45.973Z</time></trkpt><trkpt lat="44.7664437" lon="7.8446484"><ele>344.0</ele><time>2026-04-10T13:13:48.973Z</time></trkpt><trkpt lat="44.7663894" lon="7.8447052"><ele>344.0</ele><time>2026-04-10T13:13:51.973Z</time></trkpt><trkpt lat="44.7663387" lon="7.8447645"><ele>344.0</ele><time>2026-04-10T13:13:54.972Z</time></trkpt><trkpt lat="44.7662855" lon="7.8448139"><ele>344.0</ele><time>2026-04-10T13:13:57.973Z</time></trkpt><trkpt lat="44.766218" lon="7.8448751"><ele>344.00000000000006</ele><time>2026-04-10T13:14:01.973Z</time></trkpt><trkpt lat="44.7661603" lon="7.8449326"><ele>344.0</ele><time>2026-04-10T13:14:05.973Z</time></trkpt><trkpt lat="44.7661043" lon="7.8449802"><ele>344.0</ele><time>2026-04-10T13:14:08.973Z</time></trkpt><trkpt lat="44.7660405" lon="7.8450372"><ele>344.0</ele><time>2026-04-10T13:14:12.973Z</time></trkpt><trkpt lat="44.765973" lon="7.8451013"><ele>347.0</ele><time>2026-04-10T13:14:16.973Z</time></trkpt><trkpt lat="44.7659094" lon="7.8451652"><ele>349.0</ele><time>2026-04-10T13:14:20.972Z</time></trkpt><trkpt lat="44.7658537" lon="7.845238"><ele>349.0</ele><time>2026-04-10T13:14:25.973Z</time></trkpt><trkpt lat="44.7658038" lon="7.8452993"><ele>349.0</ele><time>2026-04-10T13:14:31.972Z</time></trkpt><trkpt lat="44.7658318" lon="7.8453882"><ele>349.0</ele><time>2026-04-10T13:14:54.973Z</time></trkpt></trkseg><trkseg><trkpt lat="44.7658909" lon="7.8454244"><ele>348.99999999999994</ele><time>2026-04-10T13:26:08.975Z</time></trkpt><trkpt lat="44.7659238" lon="7.8455065"><ele>349.0</ele><time>2026-04-10T13:26:11.974Z</time></trkpt><trkpt lat="44.7659458" lon="7.8456034"><ele>349.0</ele><time>2026-04-10T13:26:14.975Z</time></trkpt><trkpt lat="44.7659936" lon="7.8456926"><ele>349.0</ele><time>2026-04-10T13:26:17.975Z</time></trkpt><trkpt lat="44.766048" lon="7.8457914"><ele>349.0</ele><time>2026-04-10T13:26:20.974Z</time></trkpt><trkpt lat="44.7660926" lon="7.8458586"><ele>348.99999999999994</ele><time>2026-04-10T13:26:22.975Z</time></trkpt><trkpt lat="44.7661406" lon="7.8459255"><ele>349.0</ele><time>2026-04-10T13:26:24.975Z</time></trkpt><trkpt lat="44.7661831" lon="7.8459939"><ele>348.5</ele><time>2026-04-10T13:26:26.974Z</time></trkpt><trkpt lat="44.7662299" lon="7.8460585"><ele>348.0</ele><time>2026-04-10T13:26:28.975Z</time></trkpt><trkpt lat="44.7662851" lon="7.846159"><ele>347.5</ele><time>2026-04-10T13:26:31.974Z</time></trkpt><trkpt lat="44.7663252" lon="7.8462757"><ele>347.0</ele><time>2026-04-10T13:26:34.975Z</time></trkpt><trkpt lat="44.7663715" lon="7.84638"><ele>346.5</ele><time>2026-04-10T13:26:37.975Z</time></trkpt><trkpt lat="44.7664244" lon="7.8464784"><ele>346.0</ele><time>2026-04-10T13:26:40.975Z</time></trkpt><trkpt lat="44.7664626" lon="7.8465826"><ele>346.0</ele><time>2026-04-10T13:26:43.975Z</time></trkpt><trkpt lat="44.7665074" lon="7.8466685"><ele>346.0</ele><time>2026-04-10T13:26:46.975Z</time></trkpt><trkpt lat="44.7665505" lon="7.8467608"><ele>346.0</ele><time>2026-04-10T13:26:49.974Z</time></trkpt><trkpt lat="44.766593" lon="7.8468642"><ele>346.0</ele><time>2026-04-10T13:26:52.974Z</time></trkpt><trkpt lat="44.7666468" lon="7.8469688"><ele>346.0</ele><time>2026-04-10T13:26:55.975Z</time></trkpt><trkpt lat="44.7666947" lon="7.8470819"><ele>346.0</ele><time>2026-04-10T13:26:58.975Z</time></trkpt><trkpt lat="44.7667301" lon="7.8471583"><ele>346.0</ele><time>2026-04-10T13:27:00.975Z</time></trkpt><trkpt lat="44.7667727" lon="7.8472309"><ele>346.0</ele><time>2026-04-10T13:27:02.974Z</time></trkpt><trkpt lat="44.7668297" lon="7.8473362"><ele>346.0</ele><time>2026-04-10T13:27:05.975Z</time></trkpt><trkpt lat="44.7668651" lon="7.8474118"><ele>346.0</ele><time>2026-04-10T13:27:07.975Z</time></trkpt><trkpt lat="44.7668805" lon="7.8475332"><ele>346.0</ele><time>2026-04-10T13:27:10.975Z</time></trkpt><trkpt lat="44.7668484" lon="7.8476355"><ele>346.0</ele><time>2026-04-10T13:27:13.975Z</time></trkpt><trkpt lat="44.7668024" lon="7.8477194"><ele>346.0</ele><time>2026-04-10T13:27:16.975Z</time></trkpt><trkpt lat="44.7667357" lon="7.8477879"><ele>346.0</ele><time>2026-04-10T13:27:19.974Z</time></trkpt><trkpt lat="44.7666654" lon="7.8478573"><ele>346.0</ele><time>2026-04-10T13:27:22.975Z</time></trkpt><trkpt lat="44.7666031" lon="7.8479225"><ele>346.0</ele><time>2026-04-10T13:27:25.975Z</time></trkpt><trkpt lat="44.7665448" lon="7.8479818"><ele>346.0</ele><time>2026-04-10T13:27:28.975Z</time></trkpt><trkpt lat="44.766492" lon="7.8480321"><ele>346.0</ele><time>2026-04-10T13:27:31.974Z</time></trkpt><trkpt lat="44.7664319" lon="7.8480843"><ele>346.0</ele><time>2026-04-10T13:27:34.974Z</time></trkpt><trkpt lat="44.7663742" lon="7.8481503"><ele>346.0</ele><time>2026-04-10T13:27:37.975Z</time></trkpt><trkpt lat="44.766306" lon="7.8481946"><ele>346.0</ele><time>2026-04-10T13:27:40.975Z</time></trkpt><trkpt lat="44.7662242" lon="7.8481962"><ele>346.0</ele><time>2026-04-10T13:27:43.975Z</time></trkpt><trkpt lat="44.7661439" lon="7.848151"><ele>346.0</ele><time>2026-04-10T13:27:46.975Z</time></trkpt><trkpt lat="44.7660655" lon="7.8481079"><ele>346.0</ele><time>2026-04-10T13:27:49.975Z</time></trkpt><trkpt lat="44.7659881" lon="7.8480767"><ele>345.8333333333333</ele><time>2026-04-10T13:27:52.975Z</time></trkpt><trkpt lat="44.7659062" lon="7.8480431"><ele>345.66666666666663</ele><time>2026-04-10T13:27:55.975Z</time></trkpt><trkpt lat="44.7658173" lon="7.848008"><ele>345.5</ele><time>2026-04-10T13:27:58.975Z</time></trkpt><trkpt lat="44.7657559" lon="7.847987"><ele>345.3333333333333</ele><time>2026-04-10T13:28:00.975Z</time></trkpt><trkpt lat="44.7656933" lon="7.8479569"><ele>345.1666666666667</ele><time>2026-04-10T13:28:02.975Z</time></trkpt><trkpt lat="44.7656007" lon="7.8479252"><ele>345.0</ele><time>2026-04-10T13:28:05.975Z</time></trkpt><trkpt lat="44.7655365" lon="7.8479077"><ele>345.0</ele><time>2026-04-10T13:28:07.975Z</time></trkpt><trkpt lat="44.7654651" lon="7.8478999"><ele>345.0</ele><time>2026-04-10T13:28:09.975Z</time></trkpt><trkpt lat="44.765401" lon="7.8479018"><ele>345.0</ele><time>2026-04-10T13:28:11.975Z</time></trkpt><trkpt lat="44.7653121" lon="7.8478936"><ele>345.0</ele><time>2026-04-10T13:28:14.974Z</time></trkpt><trkpt lat="44.7652268" lon="7.8478885"><ele>345.0</ele><time>2026-04-10T13:28:17.975Z</time></trkpt><trkpt lat="44.7651466" lon="7.8478809"><ele>345.0</ele><time>2026-04-10T13:28:21.975Z</time></trkpt><trkpt lat="44.7651452" lon="7.8479773"><ele>345.0</ele><time>2026-04-10T13:28:28.975Z</time></trkpt><trkpt lat="44.7651832" lon="7.8480682"><ele>345.0</ele><time>2026-04-10T13:28:33.975Z</time></trkpt><trkpt lat="44.765184" lon="7.8481673"><ele>345.0</ele><time>2026-04-10T13:28:38.975Z</time></trkpt><trkpt lat="44.7652088" lon="7.8482493"><ele>345.0</ele><time>2026-04-10T13:28:43.975Z</time></trkpt><trkpt lat="44.7652057" lon="7.8483529"><ele>345.0</ele><time>2026-04-10T13:28:48.975Z</time></trkpt><trkpt lat="44.7652089" lon="7.8484546"><ele>345.0</ele><time>2026-04-10T13:28:53.975Z</time></trkpt><trkpt lat="44.7652322" lon="7.8485626"><ele>345.0</ele><time>2026-04-10T13:28:57.975Z</time></trkpt><trkpt lat="44.7652666" lon="7.8486635"><ele>344.7142857142857</ele><time>2026-04-10T13:29:01.975Z</time></trkpt><trkpt lat="44.765332" lon="7.8487259"><ele>344.42857142857144</ele><time>2026-04-10T13:29:05.975Z</time></trkpt><trkpt lat="44.7653893" lon="7.8487783"><ele>344.1428571428571</ele><time>2026-04-10T13:29:08.974Z</time></trkpt><trkpt lat="44.7654434" lon="7.8488253"><ele>343.8571428571429</ele><time>2026-04-10T13:29:11.975Z</time></trkpt><trkpt lat="44.7654928" lon="7.8489231"><ele>343.57142857142856</ele><time>2026-04-10T13:29:15.975Z</time></trkpt><trkpt lat="44.7655183" lon="7.8490301"><ele>343.2857142857143</ele><time>2026-04-10T13:29:18.974Z</time></trkpt><trkpt lat="44.7655312" lon="7.8491236"><ele>343.0</ele><time>2026-04-10T13:29:21.974Z</time></trkpt><trkpt lat="44.765561" lon="7.8492161"><ele>343.42857142857144</ele><time>2026-04-10T13:29:24.974Z</time></trkpt><trkpt lat="44.7655881" lon="7.8492997"><ele>343.8571428571429</ele><time>2026-04-10T13:29:27.974Z</time></trkpt><trkpt lat="44.7656092" lon="7.8494025"><ele>344.2857142857143</ele><time>2026-04-10T13:29:30.975Z</time></trkpt><trkpt lat="44.7656365" lon="7.8494932"><ele>344.7142857142857</ele><time>2026-04-10T13:29:33.974Z</time></trkpt><trkpt lat="44.7656678" lon="7.8495996"><ele>345.14285714285717</ele><time>2026-04-10T13:29:36.977Z</time></trkpt><trkpt lat="44.7656917" lon="7.8496879"><ele>345.57142857142856</ele><time>2026-04-10T13:29:39.975Z</time></trkpt><trkpt lat="44.765712" lon="7.8497839"><ele>346.0</ele><time>2026-04-10T13:29:42.975Z</time></trkpt><trkpt lat="44.7657391" lon="7.8498957"><ele>346.0</ele><time>2026-04-10T13:29:46.975Z</time></trkpt><trkpt lat="44.7657549" lon="7.8499938"><ele>346.0</ele><time>2026-04-10T13:29:50.975Z</time></trkpt><trkpt lat="44.765711" lon="7.8500786"><ele>346.0</ele><time>2026-04-10T13:29:58.975Z</time></trkpt><trkpt lat="44.7656403" lon="7.8501251"><ele>346.0</ele><time>2026-04-10T13:30:12.975Z</time></trkpt><trkpt lat="44.7655708" lon="7.8501548"><ele>346.0</ele><time>2026-04-10T13:30:16.975Z</time></trkpt><trkpt lat="44.7655096" lon="7.8501813"><ele>346.0</ele><time>2026-04-10T13:30:19.975Z</time></trkpt><trkpt lat="44.7654343" lon="7.8501994"><ele>346.0</ele><time>2026-04-10T13:30:23.975Z</time></trkpt><trkpt lat="44.7653571" lon="7.850209"><ele>345.7142857142857</ele><time>2026-04-10T13:30:27.974Z</time></trkpt><trkpt lat="44.7652878" lon="7.8502253"><ele>345.42857142857144</ele><time>2026-04-10T13:30:31.974Z</time></trkpt><trkpt lat="44.7652194" lon="7.8502439"><ele>345.14285714285717</ele><time>2026-04-10T13:30:35.974Z</time></trkpt><trkpt lat="44.765155" lon="7.8502609"><ele>344.8571428571429</ele><time>2026-04-10T13:30:40.975Z</time></trkpt><trkpt lat="44.7650805" lon="7.850263"><ele>344.57142857142856</ele><time>2026-04-10T13:30:44.974Z</time></trkpt><trkpt lat="44.7649995" lon="7.8502676"><ele>344.28571428571433</ele><time>2026-04-10T13:30:48.975Z</time></trkpt><trkpt lat="44.7649166" lon="7.8502594"><ele>344.0</ele><time>2026-04-10T13:30:52.975Z</time></trkpt><trkpt lat="44.7648403" lon="7.8502672"><ele>344.7142857142857</ele><time>2026-04-10T13:30:56.975Z</time></trkpt><trkpt lat="44.7647592" lon="7.8502462"><ele>345.42857142857144</ele><time>2026-04-10T13:31:00.975Z</time></trkpt><trkpt lat="44.7646952" lon="7.8502317"><ele>346.1428571428571</ele><time>2026-04-10T13:31:03.974Z</time></trkpt><trkpt lat="44.764617" lon="7.8502062"><ele>346.8571428571429</ele><time>2026-04-10T13:31:07.975Z</time></trkpt><trkpt lat="44.7645477" lon="7.8501843"><ele>347.57142857142856</ele><time>2026-04-10T13:31:09.975Z</time></trkpt><trkpt lat="44.7644685" lon="7.8501716"><ele>348.2857142857143</ele><time>2026-04-10T13:31:11.974Z</time></trkpt><trkpt lat="44.764403" lon="7.8501786"><ele>349.0</ele><time>2026-04-10T13:31:13.975Z</time></trkpt><trkpt lat="44.7643313" lon="7.8501466"><ele>349.2857142857143</ele><time>2026-04-10T13:31:16.975Z</time></trkpt><trkpt lat="44.7642589" lon="7.850082"><ele>349.57142857142856</ele><time>2026-04-10T13:31:19.975Z</time></trkpt><trkpt lat="44.7641981" lon="7.8500529"><ele>349.8571428571429</ele><time>2026-04-10T13:31:23.974Z</time></trkpt><trkpt lat="44.7641552" lon="7.8501355"><ele>350.1428571428571</ele><time>2026-04-10T13:31:31.974Z</time></trkpt><trkpt lat="44.7641284" lon="7.8502246"><ele>350.42857142857144</ele><time>2026-04-10T13:31:38.975Z</time></trkpt><trkpt lat="44.7640957" lon="7.8503163"><ele>350.7142857142857</ele><time>2026-04-10T13:31:44.974Z</time></trkpt><trkpt lat="44.7640536" lon="7.8503913"><ele>351.0</ele><time>2026-04-10T13:31:51.975Z</time></trkpt><trkpt lat="44.7640238" lon="7.8504776"><ele>351.28571428571433</ele><time>2026-04-10T13:31:57.975Z</time></trkpt><trkpt lat="44.7639537" lon="7.8504714"><ele>351.57142857142856</ele><time>2026-04-10T13:32:04.975Z</time></trkpt><trkpt lat="44.763899" lon="7.850516"><ele>351.8571428571429</ele><time>2026-04-10T13:32:13.975Z</time></trkpt><trkpt lat="44.7638815" lon="7.8506053"><ele>352.14285714285717</ele><time>2026-04-10T13:32:26.974Z</time></trkpt><trkpt lat="44.7638827" lon="7.8507026"><ele>352.42857142857144</ele><time>2026-04-10T13:32:32.975Z</time></trkpt><trkpt lat="44.7638718" lon="7.8507943"><ele>352.7142857142857</ele><time>2026-04-10T13:32:38.974Z</time></trkpt><trkpt lat="44.763851" lon="7.8508791"><ele>353.0</ele><time>2026-04-10T13:32:45.975Z</time></trkpt><trkpt lat="44.7638431" lon="7.8509745"><ele>353.0</ele><time>2026-04-10T13:32:51.974Z</time></trkpt><trkpt lat="44.7638301" lon="7.8510696"><ele>353.0</ele><time>2026-04-10T13:32:57.974Z</time></trkpt><trkpt lat="44.7638364" lon="7.8511585"><ele>353.0</ele><time>2026-04-10T13:33:07.975Z</time></trkpt><trkpt lat="44.7638263" lon="7.8512645"><ele>353.0</ele><time>2026-04-10T13:33:12.975Z</time></trkpt><trkpt lat="44.7638238" lon="7.8513711"><ele>353.0</ele><time>2026-04-10T13:33:16.975Z</time></trkpt><trkpt lat="44.7638069" lon="7.8514725"><ele>353.0</ele><time>2026-04-10T13:33:20.974Z</time></trkpt><trkpt lat="44.7637873" lon="7.851586"><ele>353.0</ele><time>2026-04-10T13:33:24.975Z</time></trkpt><trkpt lat="44.7637725" lon="7.8516974"><ele>353.0</ele><time>2026-04-10T13:33:28.974Z</time></trkpt><trkpt lat="44.763757" lon="7.8517857"><ele>353.0</ele><time>2026-04-10T13:33:31.975Z</time></trkpt><trkpt lat="44.7637433" lon="7.8518963"><ele>353.0</ele><time>2026-04-10T13:33:34.974Z</time></trkpt><trkpt lat="44.7637336" lon="7.851996"><ele>353.0</ele><time>2026-04-10T13:33:36.975Z</time></trkpt><trkpt lat="44.7637258" lon="7.8521092"><ele>353.0</ele><time>2026-04-10T13:33:38.975Z</time></trkpt><trkpt lat="44.763721" lon="7.852221"><ele>353.0</ele><time>2026-04-10T13:33:40.975Z</time></trkpt><trkpt lat="44.7636927" lon="7.852329"><ele>353.1666666666667</ele><time>2026-04-10T13:33:42.975Z</time></trkpt><trkpt lat="44.7636575" lon="7.8524195"><ele>353.33333333333337</ele><time>2026-04-10T13:33:44.974Z</time></trkpt><trkpt lat="44.7635824" lon="7.8524899"><ele>353.5</ele><time>2026-04-10T13:33:47.975Z</time></trkpt><trkpt lat="44.7634953" lon="7.8524836"><ele>353.6666666666667</ele><time>2026-04-10T13:33:50.975Z</time></trkpt><trkpt lat="44.7634113" lon="7.852458"><ele>353.8333333333333</ele><time>2026-04-10T13:33:53.975Z</time></trkpt><trkpt lat="44.7633525" lon="7.8524141"><ele>354.0</ele><time>2026-04-10T13:34:24.975Z</time></trkpt><trkpt lat="44.7632844" lon="7.8524112"><ele>353.3333333333333</ele><time>2026-04-10T13:34:28.975Z</time></trkpt><trkpt lat="44.7632147" lon="7.8523858"><ele>352.6666666666667</ele><time>2026-04-10T13:34:31.975Z</time></trkpt><trkpt lat="44.7631235" lon="7.8523483"><ele>352.0</ele><time>2026-04-10T13:34:34.975Z</time></trkpt><trkpt lat="44.7630628" lon="7.8523202"><ele>351.33333333333337</ele><time>2026-04-10T13:34:36.975Z</time></trkpt><trkpt lat="44.7629992" lon="7.8522906"><ele>350.6666666666667</ele><time>2026-04-10T13:34:38.974Z</time></trkpt><trkpt lat="44.7629107" lon="7.852259"><ele>350.0</ele><time>2026-04-10T13:34:41.975Z</time></trkpt><trkpt lat="44.7628437" lon="7.8522351"><ele>350.0</ele><time>2026-04-10T13:34:43.975Z</time></trkpt><trkpt lat="44.7627762" lon="7.8522049"><ele>350.0</ele><time>2026-04-10T13:34:45.975Z</time></trkpt><trkpt lat="44.7627164" lon="7.8521708"><ele>350.0</ele><time>2026-04-10T13:34:47.974Z</time></trkpt><trkpt lat="44.7626317" lon="7.8521357"><ele>350.0</ele><time>2026-04-10T13:34:50.975Z</time></trkpt><trkpt lat="44.762545" lon="7.8521058"><ele>350.0</ele><time>2026-04-10T13:34:53.975Z</time></trkpt><trkpt lat="44.7624702" lon="7.8520781"><ele>350.0</ele><time>2026-04-10T13:34:56.975Z</time></trkpt><trkpt lat="44.7623937" lon="7.8520374"><ele>349.0</ele><time>2026-04-10T13:34:58.975Z</time></trkpt><trkpt lat="44.762304" lon="7.8519899"><ele>348.0</ele><time>2026-04-10T13:35:00.975Z</time></trkpt><trkpt lat="44.7622068" lon="7.8519311"><ele>347.0</ele><time>2026-04-10T13:35:02.975Z</time></trkpt><trkpt lat="44.7621246" lon="7.8519135"><ele>346.0</ele><time>2026-04-10T13:35:04.974Z</time></trkpt><trkpt lat="44.762062" lon="7.8519534"><ele>345.0</ele><time>2026-04-10T13:35:06.974Z</time></trkpt><trkpt lat="44.7620221" lon="7.8520361"><ele>344.0</ele><time>2026-04-10T13:35:09.975Z</time></trkpt><trkpt lat="44.7619876" lon="7.8521231"><ele>344.00000000000006</ele><time>2026-04-10T13:35:13.975Z</time></trkpt><trkpt lat="44.7619584" lon="7.8522068"><ele>344.0</ele><time>2026-04-10T13:35:18.975Z</time></trkpt><trkpt lat="44.7619271" lon="7.8522914"><ele>344.0</ele><time>2026-04-10T13:35:23.975Z</time></trkpt><trkpt lat="44.7618943" lon="7.8523719"><ele>344.0</ele><time>2026-04-10T13:35:28.975Z</time></trkpt><trkpt lat="44.7618603" lon="7.8524596"><ele>344.0</ele><time>2026-04-10T13:35:33.975Z</time></trkpt><trkpt lat="44.7618174" lon="7.8525433"><ele>344.00000000000006</ele><time>2026-04-10T13:35:49.975Z</time></trkpt><trkpt lat="44.761775" lon="7.8526169"><ele>344.0</ele><time>2026-04-10T13:35:56.974Z</time></trkpt><trkpt lat="44.7617311" lon="7.8526859"><ele>345.28571428571433</ele><time>2026-04-10T13:36:03.974Z</time></trkpt><trkpt lat="44.7616788" lon="7.85275"><ele>346.57142857142856</ele><time>2026-04-10T13:36:12.974Z</time></trkpt><trkpt lat="44.7616281" lon="7.852806"><ele>347.8571428571429</ele><time>2026-04-10T13:36:18.974Z</time></trkpt><trkpt lat="44.7615645" lon="7.8528477"><ele>349.14285714285717</ele><time>2026-04-10T13:36:24.974Z</time></trkpt><trkpt lat="44.7615021" lon="7.8528907"><ele>350.42857142857144</ele><time>2026-04-10T13:36:30.975Z</time></trkpt><trkpt lat="44.7614427" lon="7.8529351"><ele>351.7142857142857</ele><time>2026-04-10T13:36:38.975Z</time></trkpt><trkpt lat="44.7613853" lon="7.8529774"><ele>353.0</ele><time>2026-04-10T13:36:45.975Z</time></trkpt><trkpt lat="44.7613243" lon="7.8530183"><ele>353.0</ele><time>2026-04-10T13:36:52.975Z</time></trkpt><trkpt lat="44.7612592" lon="7.8530636"><ele>353.0</ele><time>2026-04-10T13:36:59.975Z</time></trkpt><trkpt lat="44.7611984" lon="7.8531"><ele>353.0</ele><time>2026-04-10T13:37:06.975Z</time></trkpt><trkpt lat="44.7611345" lon="7.8531247"><ele>353.0</ele><time>2026-04-10T13:37:12.974Z</time></trkpt><trkpt lat="44.7610751" lon="7.8531741"><ele>353.0</ele><time>2026-04-10T13:42:21.974Z</time></trkpt><trkpt lat="44.761012" lon="7.853202"><ele>353.0</ele><time>2026-04-10T13:42:31.974Z</time></trkpt><trkpt lat="44.7609438" lon="7.8532232"><ele>353.0</ele><time>2026-04-10T13:42:39.974Z</time></trkpt><trkpt lat="44.7608769" lon="7.8532426"><ele>354.1428571428571</ele><time>2026-04-10T13:42:45.975Z</time></trkpt><trkpt lat="44.7608073" lon="7.8532616"><ele>355.28571428571433</ele><time>2026-04-10T13:42:52.975Z</time></trkpt><trkpt lat="44.7607453" lon="7.8532884"><ele>356.42857142857144</ele><time>2026-04-10T13:42:59.974Z</time></trkpt><trkpt lat="44.7606786" lon="7.853305"><ele>357.57142857142856</ele><time>2026-04-10T13:43:07.975Z</time></trkpt><trkpt lat="44.7606164" lon="7.853325"><ele>358.71428571428567</ele><time>2026-04-10T13:43:15.975Z</time></trkpt><trkpt lat="44.7605487" lon="7.8533433"><ele>359.8571428571429</ele><time>2026-04-10T13:43:22.975Z</time></trkpt><trkpt lat="44.7604844" lon="7.853366"><ele>361.0</ele><time>2026-04-10T13:43:36.975Z</time></trkpt><trkpt lat="44.7604172" lon="7.8533693"><ele>361.0</ele><time>2026-04-10T13:43:42.974Z</time></trkpt><trkpt lat="44.7603543" lon="7.8533863"><ele>361.0</ele><time>2026-04-10T13:43:47.975Z</time></trkpt><trkpt lat="44.7602911" lon="7.8534107"><ele>361.0</ele><time>2026-04-10T13:43:53.975Z</time></trkpt><trkpt lat="44.7602395" lon="7.8534672"><ele>361.0</ele><time>2026-04-10T13:43:59.974Z</time></trkpt><trkpt lat="44.7601912" lon="7.8535298"><ele>361.0</ele><time>2026-04-10T13:44:05.975Z</time></trkpt><trkpt lat="44.7601642" lon="7.8536163"><ele>361.0</ele><time>2026-04-10T13:44:13.975Z</time></trkpt><trkpt lat="44.760138" lon="7.8537074"><ele>361.0</ele><time>2026-04-10T13:44:22.975Z</time></trkpt><trkpt lat="44.7600927" lon="7.8537875"><ele>361.8571428571429</ele><time>2026-04-10T13:44:27.975Z</time></trkpt><trkpt lat="44.7600548" lon="7.8538663"><ele>362.71428571428567</ele><time>2026-04-10T13:44:34.974Z</time></trkpt><trkpt lat="44.7600204" lon="7.853948"><ele>363.57142857142856</ele><time>2026-04-10T13:44:41.975Z</time></trkpt><trkpt lat="44.76" lon="7.8540405"><ele>364.42857142857144</ele><time>2026-04-10T13:44:48.975Z</time></trkpt><trkpt lat="44.7599694" lon="7.8541196"><ele>365.28571428571433</ele><time>2026-04-10T13:44:54.975Z</time></trkpt><trkpt lat="44.75993" lon="7.8541947"><ele>366.1428571428571</ele><time>2026-04-10T13:45:01.975Z</time></trkpt><trkpt lat="44.7599137" lon="7.8542962"><ele>367.0</ele><time>2026-04-10T13:45:31.975Z</time></trkpt><trkpt lat="44.7598812" lon="7.8543818"><ele>367.2857142857143</ele><time>2026-04-10T13:45:37.975Z</time></trkpt><trkpt lat="44.759846" lon="7.8544603"><ele>367.5714285714286</ele><time>2026-04-10T13:45:44.975Z</time></trkpt><trkpt lat="44.7598267" lon="7.8545489"><ele>367.8571428571429</ele><time>2026-04-10T13:45:50.975Z</time></trkpt><trkpt lat="44.7597895" lon="7.8546366"><ele>368.1428571428571</ele><time>2026-04-10T13:45:56.975Z</time></trkpt><trkpt lat="44.7597628" lon="7.8547192"><ele>368.42857142857144</ele><time>2026-04-10T13:46:03.975Z</time></trkpt><trkpt lat="44.7597426" lon="7.8548132"><ele>368.7142857142857</ele><time>2026-04-10T13:46:09.974Z</time></trkpt><trkpt lat="44.75972" lon="7.8549038"><ele>369.0</ele><time>2026-04-10T13:46:17.974Z</time></trkpt><trkpt lat="44.7596904" lon="7.854986"><ele>369.0</ele><time>2026-04-10T13:46:24.975Z</time></trkpt><trkpt lat="44.7596535" lon="7.8550583"><ele>369.0</ele><time>2026-04-10T13:46:30.975Z</time></trkpt><trkpt lat="44.7596167" lon="7.8551366"><ele>369.0</ele><time>2026-04-10T13:46:36.975Z</time></trkpt><trkpt lat="44.7595724" lon="7.8552177"><ele>369.0</ele><time>2026-04-10T13:46:42.974Z</time></trkpt><trkpt lat="44.7595411" lon="7.8553149"><ele>369.0</ele><time>2026-04-10T13:48:07.975Z</time></trkpt><trkpt lat="44.7594954" lon="7.8553966"><ele>369.0</ele><time>2026-04-10T13:48:12.975Z</time></trkpt><trkpt lat="44.7594625" lon="7.8554834"><ele>369.0</ele><time>2026-04-10T13:48:51.974Z</time></trkpt><trkpt lat="44.7594323" lon="7.8555647"><ele>369.2857142857143</ele><time>2026-04-10T13:48:55.975Z</time></trkpt><trkpt lat="44.759404" lon="7.8556482"><ele>369.57142857142856</ele><time>2026-04-10T13:48:59.975Z</time></trkpt><trkpt lat="44.7593832" lon="7.8557417"><ele>369.8571428571429</ele><time>2026-04-10T13:49:04.974Z</time></trkpt><trkpt lat="44.7593653" lon="7.8558309"><ele>370.1428571428571</ele><time>2026-04-10T13:49:10.975Z</time></trkpt><trkpt lat="44.7593322" lon="7.8559201"><ele>370.42857142857144</ele><time>2026-04-10T13:49:34.974Z</time></trkpt><trkpt lat="44.7593059" lon="7.8560196"><ele>370.7142857142857</ele><time>2026-04-10T13:49:38.974Z</time></trkpt><trkpt lat="44.7592782" lon="7.8561104"><ele>371.0</ele><time>2026-04-10T13:49:43.974Z</time></trkpt><trkpt lat="44.7592525" lon="7.8561951"><ele>372.14285714285717</ele><time>2026-04-10T13:49:47.975Z</time></trkpt><trkpt lat="44.7592282" lon="7.856289"><ele>373.2857142857143</ele><time>2026-04-10T13:49:52.975Z</time></trkpt><trkpt lat="44.7592057" lon="7.8563792"><ele>374.42857142857144</ele><time>2026-04-10T13:49:57.974Z</time></trkpt><trkpt lat="44.7591856" lon="7.8564652"><ele>375.57142857142856</ele><time>2026-04-10T13:50:01.974Z</time></trkpt><trkpt lat="44.7591603" lon="7.8565562"><ele>376.7142857142857</ele><time>2026-04-10T13:50:05.975Z</time></trkpt><trkpt lat="44.759131" lon="7.8566551"><ele>377.8571428571429</ele><time>2026-04-10T13:50:10.974Z</time></trkpt><trkpt lat="44.7590975" lon="7.8567365"><ele>379.0</ele><time>2026-04-10T13:50:14.974Z</time></trkpt><trkpt lat="44.7590669" lon="7.8568382"><ele>379.28571428571433</ele><time>2026-04-10T13:50:18.974Z</time></trkpt><trkpt lat="44.7590441" lon="7.8569266"><ele>379.57142857142856</ele><time>2026-04-10T13:50:22.974Z</time></trkpt><trkpt lat="44.7590157" lon="7.8570069"><ele>379.8571428571429</ele><time>2026-04-10T13:50:26.974Z</time></trkpt><trkpt lat="44.7589826" lon="7.857102"><ele>380.14285714285717</ele><time>2026-04-10T13:50:30.974Z</time></trkpt><trkpt lat="44.7589562" lon="7.8571831"><ele>380.42857142857144</ele><time>2026-04-10T13:50:33.975Z</time></trkpt><trkpt lat="44.758925" lon="7.8572932"><ele>380.7142857142857</ele><time>2026-04-10T13:50:37.974Z</time></trkpt><trkpt lat="44.7588909" lon="7.8573972"><ele>381.0</ele><time>2026-04-10T13:50:41.974Z</time></trkpt><trkpt lat="44.7588606" lon="7.8575021"><ele>381.0</ele><time>2026-04-10T13:50:45.975Z</time></trkpt><trkpt lat="44.758827" lon="7.8575902"><ele>381.0</ele><time>2026-04-10T13:50:49.975Z</time></trkpt><trkpt lat="44.7587877" lon="7.8576884"><ele>381.0</ele><time>2026-04-10T13:50:53.975Z</time></trkpt><trkpt lat="44.7587516" lon="7.8577809"><ele>381.0</ele><time>2026-04-10T13:50:57.975Z</time></trkpt><trkpt lat="44.758726" lon="7.8578701"><ele>381.0</ele><time>2026-04-10T13:51:01.975Z</time></trkpt><trkpt lat="44.7586949" lon="7.8579623"><ele>381.0</ele><time>2026-04-10T13:51:06.975Z</time></trkpt><trkpt lat="44.7586658" lon="7.85806"><ele>381.0</ele><time>2026-04-10T13:51:11.975Z</time></trkpt><trkpt lat="44.7586381" lon="7.8581549"><ele>381.2857142857143</ele><time>2026-04-10T13:51:15.975Z</time></trkpt><trkpt lat="44.7585995" lon="7.8582404"><ele>381.5714285714286</ele><time>2026-04-10T13:51:19.975Z</time></trkpt><trkpt lat="44.7585571" lon="7.8583365"><ele>381.8571428571429</ele><time>2026-04-10T13:51:24.975Z</time></trkpt><trkpt lat="44.7585216" lon="7.858429"><ele>382.1428571428571</ele><time>2026-04-10T13:51:28.974Z</time></trkpt><trkpt lat="44.7584902" lon="7.8585101"><ele>382.42857142857144</ele><time>2026-04-10T13:51:32.974Z</time></trkpt><trkpt lat="44.7584516" lon="7.8586001"><ele>382.7142857142857</ele><time>2026-04-10T13:51:37.974Z</time></trkpt><trkpt lat="44.7584227" lon="7.8586958"><ele>383.0</ele><time>2026-04-10T13:51:42.975Z</time></trkpt><trkpt lat="44.7583908" lon="7.8587846"><ele>383.2857142857143</ele><time>2026-04-10T13:51:47.975Z</time></trkpt><trkpt lat="44.7583722" lon="7.8588875"><ele>383.57142857142856</ele><time>2026-04-10T13:51:53.975Z</time></trkpt><trkpt lat="44.7583392" lon="7.8589872"><ele>383.8571428571429</ele><time>2026-04-10T13:51:58.975Z</time></trkpt><trkpt lat="44.7583078" lon="7.8590767"><ele>384.1428571428571</ele><time>2026-04-10T13:52:03.974Z</time></trkpt><trkpt lat="44.7582715" lon="7.8591608"><ele>384.42857142857144</ele><time>2026-04-10T13:52:08.974Z</time></trkpt><trkpt lat="44.7582356" lon="7.8592513"><ele>384.7142857142857</ele><time>2026-04-10T13:52:13.975Z</time></trkpt><trkpt lat="44.7582098" lon="7.8593341"><ele>385.0</ele><time>2026-04-10T13:52:17.974Z</time></trkpt><trkpt lat="44.7581735" lon="7.8594344"><ele>385.0</ele><time>2026-04-10T13:52:22.974Z</time></trkpt><trkpt lat="44.7581343" lon="7.859528"><ele>385.0</ele><time>2026-04-10T13:52:27.975Z</time></trkpt><trkpt lat="44.758114" lon="7.859626"><ele>385.0</ele><time>2026-04-10T13:52:32.975Z</time></trkpt><trkpt lat="44.7580845" lon="7.8597128"><ele>385.0</ele><time>2026-04-10T13:52:36.974Z</time></trkpt><trkpt lat="44.7580587" lon="7.8598011"><ele>385.0</ele><time>2026-04-10T13:52:40.975Z</time></trkpt><trkpt lat="44.758032" lon="7.8598934"><ele>385.0</ele><time>2026-04-10T13:52:45.974Z</time></trkpt><trkpt lat="44.758009" lon="7.8599907"><ele>385.0</ele><time>2026-04-10T13:52:50.974Z</time></trkpt><trkpt lat="44.7579656" lon="7.8600564"><ele>385.50000000000006</ele><time>2026-04-10T13:52:55.975Z</time></trkpt><trkpt lat="44.7579263" lon="7.8601464"><ele>386.0</ele><time>2026-04-10T13:53:01.975Z</time></trkpt><trkpt lat="44.7578815" lon="7.8602185"><ele>386.5</ele><time>2026-04-10T13:53:07.975Z</time></trkpt><trkpt lat="44.7578427" lon="7.8603138"><ele>387.0</ele><time>2026-04-10T13:54:04.974Z</time></trkpt><trkpt lat="44.7577752" lon="7.860387"><ele>387.50000000000006</ele><time>2026-04-10T13:54:08.975Z</time></trkpt><trkpt lat="44.7577251" lon="7.8604652"><ele>388.0</ele><time>2026-04-10T13:54:11.974Z</time></trkpt><trkpt lat="44.7576697" lon="7.8605372"><ele>388.0</ele><time>2026-04-10T13:54:14.975Z</time></trkpt><trkpt lat="44.7576132" lon="7.8605978"><ele>388.0</ele><time>2026-04-10T13:54:17.975Z</time></trkpt><trkpt lat="44.7575523" lon="7.8606502"><ele>388.0</ele><time>2026-04-10T13:54:20.974Z</time></trkpt><trkpt lat="44.7575001" lon="7.8607057"><ele>388.0</ele><time>2026-04-10T13:54:23.975Z</time></trkpt><trkpt lat="44.7574336" lon="7.8607669"><ele>388.0</ele><time>2026-04-10T13:54:27.974Z</time></trkpt><trkpt lat="44.7573763" lon="7.8608112"><ele>388.0</ele><time>2026-04-10T13:54:30.975Z</time></trkpt><trkpt lat="44.7573149" lon="7.8608566"><ele>388.0</ele><time>2026-04-10T13:54:35.975Z</time></trkpt><trkpt lat="44.7572473" lon="7.860898"><ele>388.0</ele><time>2026-04-10T13:54:40.974Z</time></trkpt><trkpt lat="44.7571874" lon="7.8609435"><ele>388.0</ele><time>2026-04-10T13:54:45.975Z</time></trkpt><trkpt lat="44.7571259" lon="7.8609644"><ele>388.0</ele><time>2026-04-10T13:54:49.975Z</time></trkpt><trkpt lat="44.7570579" lon="7.8609761"><ele>388.0</ele><time>2026-04-10T13:54:54.974Z</time></trkpt><trkpt lat="44.7569876" lon="7.8609857"><ele>388.0</ele><time>2026-04-10T13:54:58.974Z</time></trkpt><trkpt lat="44.7569193" lon="7.8609917"><ele>388.0</ele><time>2026-04-10T13:55:03.974Z</time></trkpt><trkpt lat="44.7568523" lon="7.8609937"><ele>388.0</ele><time>2026-04-10T13:55:08.975Z</time></trkpt><trkpt lat="44.7567865" lon="7.8609916"><ele>387.7142857142857</ele><time>2026-04-10T13:56:18.977Z</time></trkpt><trkpt lat="44.7567141" lon="7.8610131"><ele>387.42857142857144</ele><time>2026-04-10T13:56:22.977Z</time></trkpt><trkpt lat="44.7566414" lon="7.8610176"><ele>387.14285714285717</ele><time>2026-04-10T13:56:27.976Z</time></trkpt><trkpt lat="44.7565692" lon="7.861031"><ele>386.8571428571429</ele><time>2026-04-10T13:56:31.977Z</time></trkpt><trkpt lat="44.7565077" lon="7.8610521"><ele>386.57142857142856</ele><time>2026-04-10T13:56:34.977Z</time></trkpt><trkpt lat="44.7564447" lon="7.8610712"><ele>386.28571428571433</ele><time>2026-04-10T13:56:37.977Z</time></trkpt><trkpt lat="44.7563777" lon="7.8610871"><ele>386.0</ele><time>2026-04-10T13:56:45.977Z</time></trkpt><trkpt lat="44.7563112" lon="7.8611261"><ele>386.00000000000006</ele><time>2026-04-10T13:57:21.976Z</time></trkpt><trkpt lat="44.7562514" lon="7.8611621"><ele>386.0</ele><time>2026-04-10T13:57:27.976Z</time></trkpt><trkpt lat="44.7562005" lon="7.8612146"><ele>386.0</ele><time>2026-04-10T13:57:39.977Z</time></trkpt><trkpt lat="44.7561343" lon="7.8612572"><ele>386.0</ele><time>2026-04-10T13:57:45.976Z</time></trkpt><trkpt lat="44.7560674" lon="7.8612956"><ele>386.0</ele><time>2026-04-10T13:57:51.977Z</time></trkpt><trkpt lat="44.7559956" lon="7.8613301"><ele>386.00000000000006</ele><time>2026-04-10T13:57:56.976Z</time></trkpt><trkpt lat="44.7559261" lon="7.861332"><ele>386.0</ele><time>2026-04-10T13:58:01.977Z</time></trkpt><trkpt lat="44.755857" lon="7.8613494"><ele>386.42857142857144</ele><time>2026-04-10T13:58:06.977Z</time></trkpt><trkpt lat="44.7557861" lon="7.8613782"><ele>386.8571428571429</ele><time>2026-04-10T13:58:11.976Z</time></trkpt><trkpt lat="44.7557168" lon="7.8614094"><ele>387.28571428571433</ele><time>2026-04-10T13:58:17.977Z</time></trkpt><trkpt lat="44.7556524" lon="7.8614073"><ele>387.7142857142857</ele><time>2026-04-10T14:15:19.97Z</time></trkpt><trkpt lat="44.7555953" lon="7.86146"><ele>388.1428571428571</ele><time>2026-04-10T14:16:24.97Z</time></trkpt><trkpt lat="44.7555565" lon="7.861543"><ele>388.5714285714286</ele><time>2026-04-10T14:16:33.97Z</time></trkpt><trkpt lat="44.7554884" lon="7.8616001"><ele>389.0</ele><time>2026-04-10T14:16:37.969Z</time></trkpt><trkpt lat="44.7554315" lon="7.8616583"><ele>389.0</ele><time>2026-04-10T14:16:40.97Z</time></trkpt><trkpt lat="44.7553622" lon="7.8617057"><ele>389.0</ele><time>2026-04-10T14:16:44.97Z</time></trkpt><trkpt lat="44.7552904" lon="7.8617717"><ele>389.0</ele><time>2026-04-10T14:16:47.97Z</time></trkpt><trkpt lat="44.7552409" lon="7.8618343"><ele>389.0</ele><time>2026-04-10T14:16:50.969Z</time></trkpt><trkpt lat="44.7551836" lon="7.8618902"><ele>389.0</ele><time>2026-04-10T14:16:53.969Z</time></trkpt><trkpt lat="44.7551078" lon="7.8619383"><ele>389.0</ele><time>2026-04-10T14:16:56.969Z</time></trkpt><trkpt lat="44.7550474" lon="7.861979"><ele>389.0</ele><time>2026-04-10T14:16:59.97Z</time></trkpt><trkpt lat="44.7549832" lon="7.8620364"><ele>389.3333333333333</ele><time>2026-04-10T14:17:02.97Z</time></trkpt><trkpt lat="44.7549311" lon="7.8620979"><ele>389.66666666666663</ele><time>2026-04-10T14:17:05.97Z</time></trkpt><trkpt lat="44.7548837" lon="7.862178"><ele>390.0</ele><time>2026-04-10T14:17:08.97Z</time></trkpt><trkpt lat="44.7548277" lon="7.8622505"><ele>390.33333333333337</ele><time>2026-04-10T14:17:11.969Z</time></trkpt><trkpt lat="44.7547654" lon="7.8623321"><ele>390.6666666666667</ele><time>2026-04-10T14:17:14.969Z</time></trkpt><trkpt lat="44.7547025" lon="7.8624142"><ele>391.0</ele><time>2026-04-10T14:17:17.97Z</time></trkpt><trkpt lat="44.7546453" lon="7.8624706"><ele>391.00000000000006</ele><time>2026-04-10T14:17:20.969Z</time></trkpt><trkpt lat="44.7545819" lon="7.8625263"><ele>391.0</ele><time>2026-04-10T14:17:23.97Z</time></trkpt><trkpt lat="44.754515" lon="7.8625819"><ele>391.0</ele><time>2026-04-10T14:17:26.969Z</time></trkpt><trkpt lat="44.7544653" lon="7.8626483"><ele>391.0</ele><time>2026-04-10T14:17:29.969Z</time></trkpt><trkpt lat="44.7544147" lon="7.8627213"><ele>391.00000000000006</ele><time>2026-04-10T14:17:32.969Z</time></trkpt><trkpt lat="44.7543547" lon="7.8627974"><ele>391.0</ele><time>2026-04-10T14:17:35.97Z</time></trkpt><trkpt lat="44.7543053" lon="7.8628802"><ele>391.83333333333337</ele><time>2026-04-10T14:17:38.97Z</time></trkpt><trkpt lat="44.7542426" lon="7.8629597"><ele>392.6666666666667</ele><time>2026-04-10T14:17:41.97Z</time></trkpt><trkpt lat="44.7541794" lon="7.8630405"><ele>393.5</ele><time>2026-04-10T14:17:44.97Z</time></trkpt><trkpt lat="44.7541212" lon="7.8631303"><ele>394.33333333333337</ele><time>2026-04-10T14:17:47.97Z</time></trkpt><trkpt lat="44.7540607" lon="7.8632262"><ele>395.1666666666667</ele><time>2026-04-10T14:17:50.969Z</time></trkpt><trkpt lat="44.7539868" lon="7.8633044"><ele>396.0</ele><time>2026-04-10T14:17:53.97Z</time></trkpt><trkpt lat="44.7539174" lon="7.8633918"><ele>396.0</ele><time>2026-04-10T14:17:56.97Z</time></trkpt><trkpt lat="44.7538778" lon="7.8634866"><ele>396.0</ele><time>2026-04-10T14:17:59.97Z</time></trkpt><trkpt lat="44.7538447" lon="7.8635663"><ele>396.0</ele><time>2026-04-10T14:18:02.969Z</time></trkpt><trkpt lat="44.7538001" lon="7.863638"><ele>396.0</ele><time>2026-04-10T14:18:05.97Z</time></trkpt><trkpt lat="44.7537334" lon="7.8637065"><ele>396.0</ele><time>2026-04-10T14:18:09.97Z</time></trkpt><trkpt lat="44.7536727" lon="7.8637451"><ele>396.0</ele><time>2026-04-10T14:18:12.969Z</time></trkpt><trkpt lat="44.7536065" lon="7.8637637"><ele>396.0</ele><time>2026-04-10T14:18:15.969Z</time></trkpt><trkpt lat="44.7535314" lon="7.863773"><ele>396.0</ele><time>2026-04-10T14:18:19.97Z</time></trkpt><trkpt lat="44.7534682" lon="7.8637825"><ele>396.0</ele><time>2026-04-10T14:18:59.97Z</time></trkpt><trkpt lat="44.7533889" lon="7.8637839"><ele>396.0</ele><time>2026-04-10T14:19:03.97Z</time></trkpt><trkpt lat="44.7533236" lon="7.863793"><ele>396.0</ele><time>2026-04-10T14:19:06.97Z</time></trkpt><trkpt lat="44.7532531" lon="7.8638043"><ele>396.0</ele><time>2026-04-10T14:19:09.969Z</time></trkpt><trkpt lat="44.7531734" lon="7.8638237"><ele>396.0</ele><time>2026-04-10T14:19:13.97Z</time></trkpt><trkpt lat="44.7531094" lon="7.863823"><ele>396.0</ele><time>2026-04-10T14:19:16.969Z</time></trkpt><trkpt lat="44.7530264" lon="7.8638344"><ele>396.0</ele><time>2026-04-10T14:19:20.969Z</time></trkpt><trkpt lat="44.7529529" lon="7.8638482"><ele>396.0</ele><time>2026-04-10T14:19:23.969Z</time></trkpt><trkpt lat="44.7528889" lon="7.8638478"><ele>396.0</ele><time>2026-04-10T14:19:26.969Z</time></trkpt><trkpt lat="44.752814" lon="7.8638651"><ele>396.0</ele><time>2026-04-10T14:19:30.97Z</time></trkpt><trkpt lat="44.7527352" lon="7.8638645"><ele>396.0</ele><time>2026-04-10T14:19:35.969Z</time></trkpt><trkpt lat="44.7526577" lon="7.8638826"><ele>396.0</ele><time>2026-04-10T14:19:39.97Z</time></trkpt><trkpt lat="44.7525774" lon="7.8639072"><ele>396.0</ele><time>2026-04-10T14:19:43.97Z</time></trkpt><trkpt lat="44.752513" lon="7.8639253"><ele>396.0</ele><time>2026-04-10T14:19:46.969Z</time></trkpt><trkpt lat="44.7524444" lon="7.8639427"><ele>396.0</ele><time>2026-04-10T14:19:49.97Z</time></trkpt><trkpt lat="44.752373" lon="7.8639575"><ele>396.0</ele><time>2026-04-10T14:19:52.969Z</time></trkpt><trkpt lat="44.7523048" lon="7.863969"><ele>396.0</ele><time>2026-04-10T14:19:55.97Z</time></trkpt><trkpt lat="44.7522372" lon="7.8639828"><ele>396.0</ele><time>2026-04-10T14:19:58.97Z</time></trkpt><trkpt lat="44.7521691" lon="7.8639892"><ele>396.0</ele><time>2026-04-10T14:20:01.969Z</time></trkpt><trkpt lat="44.7521046" lon="7.8639989"><ele>396.0</ele><time>2026-04-10T14:20:04.969Z</time></trkpt><trkpt lat="44.7520372" lon="7.8640088"><ele>396.0</ele><time>2026-04-10T14:20:07.97Z</time></trkpt><trkpt lat="44.7519713" lon="7.8640195"><ele>396.0</ele><time>2026-04-10T14:20:10.97Z</time></trkpt><trkpt lat="44.7518915" lon="7.8640379"><ele>396.0</ele><time>2026-04-10T14:20:14.97Z</time></trkpt><trkpt lat="44.7518189" lon="7.8640431"><ele>396.0</ele><time>2026-04-10T14:20:18.97Z</time></trkpt><trkpt lat="44.7517422" lon="7.8640426"><ele>396.0</ele><time>2026-04-10T14:20:22.97Z</time></trkpt><trkpt lat="44.7516789" lon="7.8639973"><ele>396.0</ele><time>2026-04-10T14:20:26.969Z</time></trkpt><trkpt lat="44.7516466" lon="7.8639"><ele>396.14285714285717</ele><time>2026-04-10T14:20:30.97Z</time></trkpt><trkpt lat="44.7516562" lon="7.8637807"><ele>396.2857142857143</ele><time>2026-04-10T14:20:34.97Z</time></trkpt><trkpt lat="44.7516766" lon="7.8636932"><ele>396.42857142857144</ele><time>2026-04-10T14:20:37.97Z</time></trkpt><trkpt lat="44.7516739" lon="7.8635855"><ele>396.57142857142856</ele><time>2026-04-10T14:20:41.97Z</time></trkpt><trkpt lat="44.7516839" lon="7.863497"><ele>396.71428571428567</ele><time>2026-04-10T14:20:45.969Z</time></trkpt><trkpt lat="44.7516896" lon="7.8634043"><ele>396.85714285714283</ele><time>2026-04-10T14:21:24.978Z</time></trkpt><trkpt lat="44.7516661" lon="7.8633066"><ele>397.0</ele><time>2026-04-10T14:21:29.978Z</time></trkpt><trkpt lat="44.7516565" lon="7.8632095"><ele>396.83333333333337</ele><time>2026-04-10T14:21:32.978Z</time></trkpt><trkpt lat="44.7516444" lon="7.863104"><ele>396.6666666666667</ele><time>2026-04-10T14:21:35.977Z</time></trkpt><trkpt lat="44.7516319" lon="7.8630075"><ele>396.5</ele><time>2026-04-10T14:21:38.978Z</time></trkpt><trkpt lat="44.7516202" lon="7.8628978"><ele>396.33333333333337</ele><time>2026-04-10T14:21:42.978Z</time></trkpt><trkpt lat="44.751612" lon="7.8627747"><ele>396.1666666666667</ele><time>2026-04-10T14:21:46.977Z</time></trkpt><trkpt lat="44.7515859" lon="7.8626874"><ele>396.0</ele><time>2026-04-10T14:21:49.977Z</time></trkpt><trkpt lat="44.7515494" lon="7.8625886"><ele>396.0</ele><time>2026-04-10T14:21:53.977Z</time></trkpt><trkpt lat="44.7514886" lon="7.8625289"><ele>396.0</ele><time>2026-04-10T14:21:57.978Z</time></trkpt><trkpt lat="44.7514045" lon="7.8625294"><ele>396.0</ele><time>2026-04-10T14:22:01.978Z</time></trkpt><trkpt lat="44.751317" lon="7.8625172"><ele>396.0</ele><time>2026-04-10T14:22:04.978Z</time></trkpt><trkpt lat="44.7512194" lon="7.8625084"><ele>396.0</ele><time>2026-04-10T14:22:07.978Z</time></trkpt><trkpt lat="44.7511618" lon="7.8624716"><ele>396.0</ele><time>2026-04-10T14:22:09.977Z</time></trkpt><trkpt lat="44.751104" lon="7.862427"><ele>396.0</ele><time>2026-04-10T14:22:11.978Z</time></trkpt><trkpt lat="44.7510492" lon="7.8623746"><ele>396.0</ele><time>2026-04-10T14:22:13.977Z</time></trkpt><trkpt lat="44.7509904" lon="7.8623079"><ele>396.0</ele><time>2026-04-10T14:22:15.978Z</time></trkpt><trkpt lat="44.7509393" lon="7.8622375"><ele>396.0</ele><time>2026-04-10T14:22:17.978Z</time></trkpt><trkpt lat="44.7509002" lon="7.8621543"><ele>396.0</ele><time>2026-04-10T14:22:19.977Z</time></trkpt><trkpt lat="44.7508469" lon="7.8620491"><ele>396.0</ele><time>2026-04-10T14:22:22.978Z</time></trkpt><trkpt lat="44.7507972" lon="7.8619361"><ele>395.0</ele><time>2026-04-10T14:22:25.978Z</time></trkpt><trkpt lat="44.7507512" lon="7.8618657"><ele>394.0</ele><time>2026-04-10T14:22:27.977Z</time></trkpt><trkpt lat="44.750709" lon="7.861795"><ele>393.0</ele><time>2026-04-10T14:22:29.978Z</time></trkpt><trkpt lat="44.7506483" lon="7.8617517"><ele>392.0</ele><time>2026-04-10T14:22:31.977Z</time></trkpt><trkpt lat="44.7505576" lon="7.8617267"><ele>391.0</ele><time>2026-04-10T14:22:34.978Z</time></trkpt><trkpt lat="44.7504714" lon="7.8617049"><ele>390.0</ele><time>2026-04-10T14:22:37.978Z</time></trkpt><trkpt lat="44.7503935" lon="7.8616444"><ele>390.0</ele><time>2026-04-10T14:22:40.978Z</time></trkpt><trkpt lat="44.7503363" lon="7.861595"><ele>390.0</ele><time>2026-04-10T14:22:42.977Z</time></trkpt><trkpt lat="44.7502803" lon="7.8615518"><ele>390.0</ele><time>2026-04-10T14:22:44.978Z</time></trkpt><trkpt lat="44.7502037" lon="7.8614926"><ele>390.0</ele><time>2026-04-10T14:22:47.978Z</time></trkpt><trkpt lat="44.7501143" lon="7.8614518"><ele>390.0</ele><time>2026-04-10T14:22:50.978Z</time></trkpt><trkpt lat="44.750051" lon="7.861428"><ele>390.0</ele><time>2026-04-10T14:22:52.977Z</time></trkpt><trkpt lat="44.7499889" lon="7.8613971"><ele>390.0</ele><time>2026-04-10T14:22:54.978Z</time></trkpt><trkpt lat="44.7499271" lon="7.8613327"><ele>389.42857142857144</ele><time>2026-04-10T14:22:57.978Z</time></trkpt><trkpt lat="44.7498749" lon="7.861268"><ele>388.85714285714283</ele><time>2026-04-10T14:23:00.977Z</time></trkpt><trkpt lat="44.7498184" lon="7.8611894"><ele>388.28571428571433</ele><time>2026-04-10T14:23:03.978Z</time></trkpt><trkpt lat="44.7497713" lon="7.8611247"><ele>387.7142857142857</ele><time>2026-04-10T14:23:06.977Z</time></trkpt><trkpt lat="44.7497076" lon="7.8610639"><ele>387.14285714285717</ele><time>2026-04-10T14:23:09.977Z</time></trkpt><trkpt lat="44.7496484" lon="7.861011"><ele>386.5714285714286</ele><time>2026-04-10T14:23:12.978Z</time></trkpt><trkpt lat="44.7495942" lon="7.8609382"><ele>386.0</ele><time>2026-04-10T14:23:15.978Z</time></trkpt><trkpt lat="44.7495405" lon="7.8608807"><ele>385.49999999999994</ele><time>2026-04-10T14:23:18.977Z</time></trkpt><trkpt lat="44.7494914" lon="7.860823"><ele>385.0</ele><time>2026-04-10T14:23:21.977Z</time></trkpt><trkpt lat="44.7494239" lon="7.8607664"><ele>384.5</ele><time>2026-04-10T14:23:24.978Z</time></trkpt><trkpt lat="44.7493509" lon="7.8606903"><ele>384.0</ele><time>2026-04-10T14:23:27.978Z</time></trkpt><trkpt lat="44.7492837" lon="7.8606328"><ele>383.5</ele><time>2026-04-10T14:23:30.978Z</time></trkpt><trkpt lat="44.7492275" lon="7.8605519"><ele>383.0</ele><time>2026-04-10T14:23:33.978Z</time></trkpt><trkpt lat="44.749182" lon="7.8604822"><ele>381.85714285714283</ele><time>2026-04-10T14:23:36.977Z</time></trkpt><trkpt lat="44.7491559" lon="7.8603885"><ele>380.71428571428567</ele><time>2026-04-10T14:23:40.977Z</time></trkpt><trkpt lat="44.7491388" lon="7.8602835"><ele>379.57142857142856</ele><time>2026-04-10T14:23:44.978Z</time></trkpt><trkpt lat="44.749112" lon="7.860174"><ele>378.42857142857144</ele><time>2026-04-10T14:23:47.977Z</time></trkpt><trkpt lat="44.7490742" lon="7.8601007"><ele>377.2857142857143</ele><time>2026-04-10T14:23:52.977Z</time></trkpt><trkpt lat="44.7490389" lon="7.8600261"><ele>376.14285714285717</ele><time>2026-04-10T14:23:56.977Z</time></trkpt><trkpt lat="44.7489856" lon="7.8599525"><ele>375.0</ele><time>2026-04-10T14:24:01.978Z</time></trkpt><trkpt lat="44.7489556" lon="7.8598598"><ele>374.2857142857143</ele><time>2026-04-10T14:24:06.978Z</time></trkpt><trkpt lat="44.7489071" lon="7.8597812"><ele>373.57142857142856</ele><time>2026-04-10T14:24:10.978Z</time></trkpt><trkpt lat="44.7488699" lon="7.8596979"><ele>372.85714285714283</ele><time>2026-04-10T14:24:13.978Z</time></trkpt><trkpt lat="44.7488295" lon="7.8596233"><ele>372.1428571428571</ele><time>2026-04-10T14:24:16.977Z</time></trkpt><trkpt lat="44.7487808" lon="7.859542"><ele>371.42857142857144</ele><time>2026-04-10T14:24:20.977Z</time></trkpt><trkpt lat="44.7487203" lon="7.8594798"><ele>370.71428571428567</ele><time>2026-04-10T14:24:24.978Z</time></trkpt><trkpt lat="44.7486594" lon="7.8594509"><ele>370.0</ele><time>2026-04-10T14:24:27.978Z</time></trkpt><trkpt lat="44.7485833" lon="7.8594212"><ele>367.8333333333333</ele><time>2026-04-10T14:24:30.978Z</time></trkpt><trkpt lat="44.7485162" lon="7.8593841"><ele>365.66666666666663</ele><time>2026-04-10T14:25:12.977Z</time></trkpt><trkpt lat="44.7484544" lon="7.859342"><ele>363.5</ele><time>2026-04-10T14:25:16.978Z</time></trkpt><trkpt lat="44.7483927" lon="7.8592904"><ele>361.3333333333333</ele><time>2026-04-10T14:25:20.977Z</time></trkpt><trkpt lat="44.7483204" lon="7.8592077"><ele>359.1666666666667</ele><time>2026-04-10T14:25:24.977Z</time></trkpt><trkpt lat="44.7482635" lon="7.8591334"><ele>357.0</ele><time>2026-04-10T14:25:27.977Z</time></trkpt><trkpt lat="44.7482058" lon="7.8590582"><ele>356.3333333333333</ele><time>2026-04-10T14:25:30.978Z</time></trkpt><trkpt lat="44.7481371" lon="7.8589786"><ele>355.6666666666667</ele><time>2026-04-10T14:25:33.977Z</time></trkpt><trkpt lat="44.7480715" lon="7.8589131"><ele>355.0</ele><time>2026-04-10T14:25:37.978Z</time></trkpt><trkpt lat="44.7480137" lon="7.8588329"><ele>354.33333333333337</ele><time>2026-04-10T14:25:40.978Z</time></trkpt><trkpt lat="44.7479783" lon="7.8587548"><ele>353.6666666666667</ele><time>2026-04-10T14:25:42.978Z</time></trkpt><trkpt lat="44.7479503" lon="7.8586746"><ele>353.0</ele><time>2026-04-10T14:25:44.978Z</time></trkpt><trkpt lat="44.7479187" lon="7.8585836"><ele>353.0</ele><time>2026-04-10T14:25:47.978Z</time></trkpt><trkpt lat="44.7478871" lon="7.8584887"><ele>353.0</ele><time>2026-04-10T14:25:59.977Z</time></trkpt><trkpt lat="44.7478342" lon="7.8584358"><ele>353.0</ele><time>2026-04-10T14:26:08.977Z</time></trkpt><trkpt lat="44.7477799" lon="7.8585129"><ele>353.0</ele><time>2026-04-10T14:28:18.978Z</time></trkpt><trkpt lat="44.7477289" lon="7.8585944"><ele>353.0</ele><time>2026-04-10T14:28:22.978Z</time></trkpt><trkpt lat="44.7476608" lon="7.8586589"><ele>353.0</ele><time>2026-04-10T14:28:26.977Z</time></trkpt><trkpt lat="44.7475868" lon="7.8587087"><ele>352.6666666666667</ele><time>2026-04-10T14:28:30.978Z</time></trkpt><trkpt lat="44.747522" lon="7.8587519"><ele>352.33333333333337</ele><time>2026-04-10T14:28:33.977Z</time></trkpt><trkpt lat="44.7474564" lon="7.8587981"><ele>352.0</ele><time>2026-04-10T14:28:36.978Z</time></trkpt><trkpt lat="44.74739" lon="7.8588416"><ele>351.6666666666667</ele><time>2026-04-10T14:28:39.978Z</time></trkpt><trkpt lat="44.747319" lon="7.8588867"><ele>351.3333333333333</ele><time>2026-04-10T14:28:42.978Z</time></trkpt><trkpt lat="44.7472448" lon="7.8589222"><ele>351.0</ele><time>2026-04-10T14:28:45.978Z</time></trkpt><trkpt lat="44.7471687" lon="7.8589449"><ele>351.00000000000006</ele><time>2026-04-10T14:28:48.978Z</time></trkpt><trkpt lat="44.7470961" lon="7.8589756"><ele>351.0</ele><time>2026-04-10T14:28:51.978Z</time></trkpt><trkpt lat="44.7470276" lon="7.8590209"><ele>351.0</ele><time>2026-04-10T14:28:54.978Z</time></trkpt><trkpt lat="44.746963" lon="7.8590718"><ele>351.0</ele><time>2026-04-10T14:28:57.977Z</time></trkpt><trkpt lat="44.7469058" lon="7.8591307"><ele>351.0</ele><time>2026-04-10T14:29:00.977Z</time></trkpt><trkpt lat="44.7468548" lon="7.8592055"><ele>351.00000000000006</ele><time>2026-04-10T14:29:03.977Z</time></trkpt><trkpt lat="44.7468196" lon="7.8592811"><ele>351.0</ele><time>2026-04-10T14:29:06.977Z</time></trkpt><trkpt lat="44.7467708" lon="7.8593633"><ele>351.28571428571433</ele><time>2026-04-10T14:29:10.978Z</time></trkpt><trkpt lat="44.7467169" lon="7.8594506"><ele>351.57142857142856</ele><time>2026-04-10T14:29:14.978Z</time></trkpt><trkpt lat="44.746664" lon="7.8595305"><ele>351.8571428571429</ele><time>2026-04-10T14:29:18.977Z</time></trkpt><trkpt lat="44.7466087" lon="7.8596156"><ele>352.14285714285717</ele><time>2026-04-10T14:29:22.978Z</time></trkpt><trkpt lat="44.7465655" lon="7.8596873"><ele>352.42857142857144</ele><time>2026-04-10T14:29:25.977Z</time></trkpt><trkpt lat="44.7465205" lon="7.859762"><ele>352.7142857142857</ele><time>2026-04-10T14:29:28.978Z</time></trkpt><trkpt lat="44.7464816" lon="7.8598317"><ele>353.0</ele><time>2026-04-10T14:29:31.978Z</time></trkpt><trkpt lat="44.7464374" lon="7.859897"><ele>353.0</ele><time>2026-04-10T14:29:34.978Z</time></trkpt><trkpt lat="44.7463973" lon="7.8599716"><ele>353.0</ele><time>2026-04-10T14:29:37.978Z</time></trkpt><trkpt lat="44.7463527" lon="7.8600566"><ele>353.0</ele><time>2026-04-10T14:29:41.977Z</time></trkpt><trkpt lat="44.7463114" lon="7.8601471"><ele>353.0</ele><time>2026-04-10T14:29:45.978Z</time></trkpt><trkpt lat="44.7462604" lon="7.8602294"><ele>353.0</ele><time>2026-04-10T14:29:49.978Z</time></trkpt><trkpt lat="44.7462187" lon="7.8603001"><ele>353.0</ele><time>2026-04-10T14:29:53.978Z</time></trkpt><trkpt lat="44.7461737" lon="7.8603923"><ele>353.0</ele><time>2026-04-10T14:29:58.977Z</time></trkpt><trkpt lat="44.7461385" lon="7.8604713"><ele>353.0</ele><time>2026-04-10T14:30:02.978Z</time></trkpt><trkpt lat="44.7461125" lon="7.8605692"><ele>353.0</ele><time>2026-04-10T14:30:06.978Z</time></trkpt><trkpt lat="44.7460806" lon="7.8606575"><ele>353.0</ele><time>2026-04-10T14:30:10.978Z</time></trkpt><trkpt lat="44.7460519" lon="7.8607433"><ele>353.0</ele><time>2026-04-10T14:30:14.978Z</time></trkpt><trkpt lat="44.7460259" lon="7.860833"><ele>353.0</ele><time>2026-04-10T14:30:18.978Z</time></trkpt><trkpt lat="44.7460016" lon="7.860926"><ele>353.0</ele><time>2026-04-10T14:30:22.978Z</time></trkpt><trkpt lat="44.7459873" lon="7.8610191"><ele>353.0</ele><time>2026-04-10T14:30:26.978Z</time></trkpt><trkpt lat="44.7459546" lon="7.8611217"><ele>353.83333333333337</ele><time>2026-04-10T14:30:32.978Z</time></trkpt><trkpt lat="44.7459023" lon="7.8612107"><ele>354.6666666666667</ele><time>2026-04-10T14:30:36.978Z</time></trkpt><trkpt lat="44.7458615" lon="7.8612991"><ele>355.5</ele><time>2026-04-10T14:30:40.978Z</time></trkpt><trkpt lat="44.7458243" lon="7.8613939"><ele>356.3333333333333</ele><time>2026-04-10T14:32:02.977Z</time></trkpt><trkpt lat="44.7457882" lon="7.8614703"><ele>357.16666666666663</ele><time>2026-04-10T14:32:05.977Z</time></trkpt><trkpt lat="44.7457546" lon="7.8615624"><ele>358.0</ele><time>2026-04-10T14:32:09.978Z</time></trkpt><trkpt lat="44.7457251" lon="7.8616662"><ele>358.00000000000006</ele><time>2026-04-10T14:32:13.977Z</time></trkpt><trkpt lat="44.7456933" lon="7.8617457"><ele>358.0</ele><time>2026-04-10T14:32:16.978Z</time></trkpt><trkpt lat="44.7456668" lon="7.8618347"><ele>358.0</ele><time>2026-04-10T14:32:19.977Z</time></trkpt><trkpt lat="44.7456253" lon="7.8619086"><ele>358.0</ele><time>2026-04-10T14:32:22.978Z</time></trkpt><trkpt lat="44.7456008" lon="7.8620125"><ele>358.0</ele><time>2026-04-10T14:32:26.978Z</time></trkpt><trkpt lat="44.7455661" lon="7.8620955"><ele>358.00000000000006</ele><time>2026-04-10T14:32:30.978Z</time></trkpt><trkpt lat="44.7455425" lon="7.8621784"><ele>358.0</ele><time>2026-04-10T14:32:34.978Z</time></trkpt><trkpt lat="44.7455113" lon="7.8622825"><ele>359.00000000000006</ele><time>2026-04-10T14:32:38.977Z</time></trkpt><trkpt lat="44.7454784" lon="7.8623891"><ele>360.0</ele><time>2026-04-10T14:32:42.978Z</time></trkpt><trkpt lat="44.7454464" lon="7.8624958"><ele>361.0</ele><time>2026-04-10T14:32:46.977Z</time></trkpt><trkpt lat="44.7454173" lon="7.8625793"><ele>362.0</ele><time>2026-04-10T14:32:49.978Z</time></trkpt><trkpt lat="44.7453884" lon="7.8626758"><ele>363.0</ele><time>2026-04-10T14:32:54.978Z</time></trkpt><trkpt lat="44.7453611" lon="7.8627714"><ele>364.00000000000006</ele><time>2026-04-10T14:32:58.978Z</time></trkpt><trkpt lat="44.7453263" lon="7.8628459"><ele>365.0</ele><time>2026-04-10T14:33:01.978Z</time></trkpt><trkpt lat="44.7452777" lon="7.8629141"><ele>363.6666666666667</ele><time>2026-04-10T14:33:05.977Z</time></trkpt><trkpt lat="44.7452067" lon="7.8629586"><ele>362.33333333333337</ele><time>2026-04-10T14:33:10.977Z</time></trkpt><trkpt lat="44.7451393" lon="7.8629968"><ele>361.0</ele><time>2026-04-10T14:33:15.978Z</time></trkpt><trkpt lat="44.7450594" lon="7.8630397"><ele>359.6666666666667</ele><time>2026-04-10T14:33:19.978Z</time></trkpt><trkpt lat="44.7449936" lon="7.8630394"><ele>358.3333333333333</ele><time>2026-04-10T14:33:23.978Z</time></trkpt><trkpt lat="44.7449251" lon="7.8630086"><ele>357.0</ele><time>2026-04-10T14:33:26.978Z</time></trkpt><trkpt lat="44.7448573" lon="7.86294"><ele>357.0</ele><time>2026-04-10T14:33:29.978Z</time></trkpt><trkpt lat="44.7447757" lon="7.8628764"><ele>357.0</ele><time>2026-04-10T14:33:32.978Z</time></trkpt><trkpt lat="44.7447178" lon="7.862837"><ele>357.0</ele><time>2026-04-10T14:33:35.977Z</time></trkpt><trkpt lat="44.7446569" lon="7.8627965"><ele>357.0</ele><time>2026-04-10T14:33:38.978Z</time></trkpt><trkpt lat="44.7445966" lon="7.8627386"><ele>357.0</ele><time>2026-04-10T14:33:42.978Z</time></trkpt><trkpt lat="44.7445368" lon="7.8627008"><ele>357.0</ele><time>2026-04-10T14:33:45.977Z</time></trkpt><trkpt lat="44.7444606" lon="7.8626514"><ele>357.0</ele><time>2026-04-10T14:33:48.978Z</time></trkpt><trkpt lat="44.7443998" lon="7.862603"><ele>356.7142857142857</ele><time>2026-04-10T14:33:52.978Z</time></trkpt><trkpt lat="44.7443281" lon="7.8625995"><ele>356.42857142857144</ele><time>2026-04-10T14:33:57.978Z</time></trkpt><trkpt lat="44.7442662" lon="7.8626253"><ele>356.1428571428571</ele><time>2026-04-10T14:34:01.978Z</time></trkpt><trkpt lat="44.7441966" lon="7.8626553"><ele>355.8571428571429</ele><time>2026-04-10T14:34:06.977Z</time></trkpt><trkpt lat="44.744123" lon="7.8626762"><ele>355.57142857142856</ele><time>2026-04-10T14:34:10.977Z</time></trkpt><trkpt lat="44.744054" lon="7.8626917"><ele>355.2857142857143</ele><time>2026-04-10T14:34:14.978Z</time></trkpt><trkpt lat="44.7439755" lon="7.8626998"><ele>355.0</ele><time>2026-04-10T14:34:18.978Z</time></trkpt><trkpt lat="44.7439012" lon="7.8627088"><ele>355.0</ele><time>2026-04-10T14:34:22.978Z</time></trkpt><trkpt lat="44.7438357" lon="7.8627158"><ele>355.0</ele><time>2026-04-10T14:34:25.978Z</time></trkpt><trkpt lat="44.74377" lon="7.8627209"><ele>355.0</ele><time>2026-04-10T14:34:28.978Z</time></trkpt><trkpt lat="44.7437065" lon="7.8627258"><ele>355.0</ele><time>2026-04-10T14:34:32.977Z</time></trkpt><trkpt lat="44.7436317" lon="7.8627075"><ele>355.0</ele><time>2026-04-10T14:34:36.978Z</time></trkpt><trkpt lat="44.7435689" lon="7.8626568"><ele>355.0</ele><time>2026-04-10T14:34:40.977Z</time></trkpt><trkpt lat="44.7435129" lon="7.8626074"><ele>355.0</ele><time>2026-04-10T14:34:46.978Z</time></trkpt><trkpt lat="44.7434473" lon="7.862617"><ele>354.85714285714283</ele><time>2026-04-10T14:35:02.978Z</time></trkpt><trkpt lat="44.7433864" lon="7.8626702"><ele>354.7142857142857</ele><time>2026-04-10T14:35:09.978Z</time></trkpt><trkpt lat="44.7433289" lon="7.8627133"><ele>354.57142857142856</ele><time>2026-04-10T14:35:16.977Z</time></trkpt><trkpt lat="44.7432848" lon="7.8627834"><ele>354.42857142857144</ele><time>2026-04-10T14:35:26.978Z</time></trkpt><trkpt lat="44.7432406" lon="7.8628473"><ele>354.2857142857143</ele><time>2026-04-10T14:36:12.978Z</time></trkpt><trkpt lat="44.7432035" lon="7.8629285"><ele>354.14285714285717</ele><time>2026-04-10T14:36:33.977Z</time></trkpt><trkpt lat="44.7431682" lon="7.8630147"><ele>354.0</ele><time>2026-04-10T14:36:39.978Z</time></trkpt><trkpt lat="44.7431257" lon="7.863091"><ele>354.0</ele><time>2026-04-10T14:36:46.978Z</time></trkpt><trkpt lat="44.743081" lon="7.8631672"><ele>354.0</ele><time>2026-04-10T14:36:53.977Z</time></trkpt><trkpt lat="44.7430518" lon="7.8632473"><ele>354.0</ele><time>2026-04-10T14:36:59.977Z</time></trkpt><trkpt lat="44.7430104" lon="7.8633198"><ele>354.0</ele><time>2026-04-10T14:37:05.977Z</time></trkpt><trkpt lat="44.7429664" lon="7.8633934"><ele>354.0</ele><time>2026-04-10T14:37:11.978Z</time></trkpt><trkpt lat="44.7429307" lon="7.8634682"><ele>354.0</ele><time>2026-04-10T14:37:17.977Z</time></trkpt><trkpt lat="44.7429084" lon="7.8635625"><ele>354.0</ele><time>2026-04-10T14:37:35.978Z</time></trkpt><trkpt lat="44.7428782" lon="7.8636468"><ele>354.14285714285717</ele><time>2026-04-10T14:37:42.978Z</time></trkpt><trkpt lat="44.7428446" lon="7.8637239"><ele>354.2857142857143</ele><time>2026-04-10T14:37:49.978Z</time></trkpt><trkpt lat="44.7428066" lon="7.8637997"><ele>354.42857142857144</ele><time>2026-04-10T14:37:55.978Z</time></trkpt><trkpt lat="44.7427666" lon="7.8638714"><ele>354.57142857142856</ele><time>2026-04-10T14:38:01.977Z</time></trkpt><trkpt lat="44.7427154" lon="7.863953"><ele>354.7142857142857</ele><time>2026-04-10T14:38:07.978Z</time></trkpt><trkpt lat="44.74266" lon="7.8640208"><ele>354.85714285714283</ele><time>2026-04-10T14:38:11.977Z</time></trkpt><trkpt lat="44.7426069" lon="7.8640917"><ele>355.0</ele><time>2026-04-10T14:38:15.977Z</time></trkpt><trkpt lat="44.7425539" lon="7.8641607"><ele>355.0</ele><time>2026-04-10T14:38:19.978Z</time></trkpt><trkpt lat="44.7424955" lon="7.8642356"><ele>355.0</ele><time>2026-04-10T14:38:23.978Z</time></trkpt><trkpt lat="44.7424314" lon="7.8643018"><ele>355.0</ele><time>2026-04-10T14:38:27.978Z</time></trkpt><trkpt lat="44.7423721" lon="7.8643745"><ele>355.0</ele><time>2026-04-10T14:38:31.977Z</time></trkpt><trkpt lat="44.7423189" lon="7.8644309"><ele>355.0</ele><time>2026-04-10T14:38:35.978Z</time></trkpt><trkpt lat="44.7422627" lon="7.8644852"><ele>355.0</ele><time>2026-04-10T14:38:39.977Z</time></trkpt><trkpt lat="44.7422095" lon="7.8645466"><ele>355.0</ele><time>2026-04-10T14:38:42.978Z</time></trkpt><trkpt lat="44.7421626" lon="7.8646107"><ele>355.1428571428571</ele><time>2026-04-10T14:38:45.978Z</time></trkpt><trkpt lat="44.7421141" lon="7.8646739"><ele>355.2857142857143</ele><time>2026-04-10T14:38:48.978Z</time></trkpt><trkpt lat="44.7420559" lon="7.8647518"><ele>355.42857142857144</ele><time>2026-04-10T14:38:52.978Z</time></trkpt><trkpt lat="44.7419965" lon="7.8648262"><ele>355.57142857142856</ele><time>2026-04-10T14:38:56.977Z</time></trkpt><trkpt lat="44.7419357" lon="7.8648932"><ele>355.7142857142857</ele><time>2026-04-10T14:39:00.978Z</time></trkpt><trkpt lat="44.7418852" lon="7.8649481"><ele>355.85714285714283</ele><time>2026-04-10T14:39:03.978Z</time></trkpt><trkpt lat="44.7418351" lon="7.8650088"><ele>356.0</ele><time>2026-04-10T14:39:06.978Z</time></trkpt><trkpt lat="44.7417771" lon="7.8650745"><ele>356.1428571428571</ele><time>2026-04-10T14:39:10.977Z</time></trkpt><trkpt lat="44.7417234" lon="7.865139"><ele>356.2857142857143</ele><time>2026-04-10T14:39:14.978Z</time></trkpt><trkpt lat="44.7416626" lon="7.8652008"><ele>356.42857142857144</ele><time>2026-04-10T14:39:18.978Z</time></trkpt><trkpt lat="44.7416113" lon="7.8652585"><ele>356.57142857142856</ele><time>2026-04-10T14:39:22.977Z</time></trkpt><trkpt lat="44.7415459" lon="7.8653276"><ele>356.7142857142857</ele><time>2026-04-10T14:39:26.978Z</time></trkpt><trkpt lat="44.7414798" lon="7.8654001"><ele>356.85714285714283</ele><time>2026-04-10T14:39:30.978Z</time></trkpt><trkpt lat="44.7414272" lon="7.8654567"><ele>357.0</ele><time>2026-04-10T14:39:33.978Z</time></trkpt><trkpt lat="44.741372" lon="7.8655162"><ele>357.0</ele><time>2026-04-10T14:39:36.978Z</time></trkpt><trkpt lat="44.7413143" lon="7.8655825"><ele>357.0</ele><time>2026-04-10T14:39:39.977Z</time></trkpt><trkpt lat="44.7412528" lon="7.8656647"><ele>357.0</ele><time>2026-04-10T14:39:42.977Z</time></trkpt><trkpt lat="44.7411955" lon="7.8657452"><ele>357.0</ele><time>2026-04-10T14:39:45.977Z</time></trkpt><trkpt lat="44.7411456" lon="7.8658206"><ele>357.0</ele><time>2026-04-10T14:39:48.977Z</time></trkpt><trkpt lat="44.7411017" lon="7.8658862"><ele>357.0</ele><time>2026-04-10T14:39:51.978Z</time></trkpt><trkpt lat="44.7410549" lon="7.8659674"><ele>357.7142857142857</ele><time>2026-04-10T14:39:55.978Z</time></trkpt><trkpt lat="44.7410242" lon="7.8660471"><ele>358.42857142857144</ele><time>2026-04-10T14:39:58.978Z</time></trkpt><trkpt lat="44.7409955" lon="7.8661307"><ele>359.1428571428571</ele><time>2026-04-10T14:40:01.978Z</time></trkpt><trkpt lat="44.7409559" lon="7.8662182"><ele>359.8571428571429</ele><time>2026-04-10T14:40:04.978Z</time></trkpt><trkpt lat="44.7409233" lon="7.8662968"><ele>360.57142857142856</ele><time>2026-04-10T14:40:07.978Z</time></trkpt><trkpt lat="44.7408888" lon="7.8663873"><ele>361.2857142857143</ele><time>2026-04-10T14:40:10.978Z</time></trkpt><trkpt lat="44.7408515" lon="7.8664774"><ele>362.0</ele><time>2026-04-10T14:40:13.978Z</time></trkpt><trkpt lat="44.7408094" lon="7.8665675"><ele>362.0</ele><time>2026-04-10T14:40:16.978Z</time></trkpt><trkpt lat="44.7407631" lon="7.8666529"><ele>362.0</ele><time>2026-04-10T14:40:19.978Z</time></trkpt><trkpt lat="44.7407135" lon="7.8667268"><ele>362.0</ele><time>2026-04-10T14:40:22.977Z</time></trkpt><trkpt lat="44.7406611" lon="7.8668038"><ele>362.0</ele><time>2026-04-10T14:40:25.978Z</time></trkpt><trkpt lat="44.7405997" lon="7.8668762"><ele>362.0</ele><time>2026-04-10T14:40:28.978Z</time></trkpt><trkpt lat="44.740539" lon="7.8669403"><ele>362.0</ele><time>2026-04-10T14:40:31.977Z</time></trkpt><trkpt lat="44.7404801" lon="7.8669981"><ele>362.0</ele><time>2026-04-10T14:40:34.977Z</time></trkpt><trkpt lat="44.7404244" lon="7.8670757"><ele>362.0</ele><time>2026-04-10T14:40:37.978Z</time></trkpt><trkpt lat="44.7403628" lon="7.8671437"><ele>362.0</ele><time>2026-04-10T14:40:40.977Z</time></trkpt><trkpt lat="44.7403035" lon="7.8672145"><ele>362.0</ele><time>2026-04-10T14:40:43.978Z</time></trkpt><trkpt lat="44.7402428" lon="7.8672797"><ele>362.0</ele><time>2026-04-10T14:40:46.978Z</time></trkpt><trkpt lat="44.7401786" lon="7.8673495"><ele>362.0</ele><time>2026-04-10T14:40:49.978Z</time></trkpt><trkpt lat="44.7401165" lon="7.8674195"><ele>361.83333333333337</ele><time>2026-04-10T14:40:52.978Z</time></trkpt><trkpt lat="44.7400552" lon="7.8674915"><ele>361.6666666666667</ele><time>2026-04-10T14:40:55.978Z</time></trkpt><trkpt lat="44.7399911" lon="7.8675683"><ele>361.5</ele><time>2026-04-10T14:40:58.978Z</time></trkpt><trkpt lat="44.739925" lon="7.8676448"><ele>361.3333333333333</ele><time>2026-04-10T14:41:01.978Z</time></trkpt><trkpt lat="44.7398627" lon="7.8677195"><ele>361.16666666666663</ele><time>2026-04-10T14:41:04.978Z</time></trkpt><trkpt lat="44.739798" lon="7.8677906"><ele>361.0</ele><time>2026-04-10T14:41:07.978Z</time></trkpt><trkpt lat="44.7397351" lon="7.8678685"><ele>360.8333333333333</ele><time>2026-04-10T14:41:10.977Z</time></trkpt><trkpt lat="44.7396679" lon="7.8679502"><ele>360.66666666666663</ele><time>2026-04-10T14:41:13.978Z</time></trkpt><trkpt lat="44.7396043" lon="7.8680258"><ele>360.5</ele><time>2026-04-10T14:41:16.977Z</time></trkpt><trkpt lat="44.7395411" lon="7.8681011"><ele>360.3333333333333</ele><time>2026-04-10T14:41:19.977Z</time></trkpt><trkpt lat="44.7394765" lon="7.8681786"><ele>360.1666666666667</ele><time>2026-04-10T14:41:22.978Z</time></trkpt><trkpt lat="44.7394112" lon="7.8682573"><ele>360.0</ele><time>2026-04-10T14:41:25.978Z</time></trkpt><trkpt lat="44.7393457" lon="7.8683353"><ele>360.0</ele><time>2026-04-10T14:41:28.977Z</time></trkpt><trkpt lat="44.7392807" lon="7.8684141"><ele>360.0</ele><time>2026-04-10T14:41:31.977Z</time></trkpt><trkpt lat="44.7392169" lon="7.868491"><ele>360.0</ele><time>2026-04-10T14:41:34.978Z</time></trkpt><trkpt lat="44.7391544" lon="7.8685666"><ele>360.0</ele><time>2026-04-10T14:41:37.978Z</time></trkpt><trkpt lat="44.7390919" lon="7.8686433"><ele>360.0</ele><time>2026-04-10T14:41:40.978Z</time></trkpt><trkpt lat="44.7390267" lon="7.8687168"><ele>360.0</ele><time>2026-04-10T14:41:43.977Z</time></trkpt><trkpt lat="44.7389634" lon="7.8687857"><ele>360.0</ele><time>2026-04-10T14:41:46.978Z</time></trkpt><trkpt lat="44.7389058" lon="7.8688477"><ele>360.0</ele><time>2026-04-10T14:41:49.978Z</time></trkpt><trkpt lat="44.7388474" lon="7.8689113"><ele>360.0</ele><time>2026-04-10T14:41:52.978Z</time></trkpt><trkpt lat="44.7387914" lon="7.8689742"><ele>360.0</ele><time>2026-04-10T14:41:55.978Z</time></trkpt><trkpt lat="44.738726" lon="7.8690312"><ele>360.0</ele><time>2026-04-10T14:41:58.978Z</time></trkpt><trkpt lat="44.7386621" lon="7.8690826"><ele>360.0</ele><time>2026-04-10T14:42:01.978Z</time></trkpt><trkpt lat="44.7386034" lon="7.869142"><ele>360.0</ele><time>2026-04-10T14:42:04.978Z</time></trkpt><trkpt lat="44.7385385" lon="7.8691776"><ele>360.1428571428571</ele><time>2026-04-10T14:42:07.978Z</time></trkpt><trkpt lat="44.7384763" lon="7.869197"><ele>360.28571428571433</ele><time>2026-04-10T14:42:10.977Z</time></trkpt><trkpt lat="44.7384228" lon="7.8692454"><ele>360.42857142857144</ele><time>2026-04-10T14:42:13.977Z</time></trkpt><trkpt lat="44.7383683" lon="7.8692927"><ele>360.57142857142856</ele><time>2026-04-10T14:42:17.978Z</time></trkpt><trkpt lat="44.7383066" lon="7.8693244"><ele>360.71428571428567</ele><time>2026-04-10T14:42:30.978Z</time></trkpt><trkpt lat="44.7382563" lon="7.8694065"><ele>360.8571428571429</ele><time>2026-04-10T14:43:08.978Z</time></trkpt><trkpt lat="44.738206" lon="7.8694804"><ele>361.0</ele><time>2026-04-10T14:43:12.978Z</time></trkpt><trkpt lat="44.738154" lon="7.8695556"><ele>361.0</ele><time>2026-04-10T14:43:16.978Z</time></trkpt><trkpt lat="44.7381029" lon="7.8696357"><ele>361.0</ele><time>2026-04-10T14:43:20.978Z</time></trkpt><trkpt lat="44.7380531" lon="7.8697082"><ele>361.0</ele><time>2026-04-10T14:43:24.977Z</time></trkpt><trkpt lat="44.7380058" lon="7.8697851"><ele>361.0</ele><time>2026-04-10T14:43:28.977Z</time></trkpt><trkpt lat="44.7379534" lon="7.8698584"><ele>361.0</ele><time>2026-04-10T14:43:32.978Z</time></trkpt><trkpt lat="44.7379008" lon="7.8699344"><ele>361.0</ele><time>2026-04-10T14:43:36.978Z</time></trkpt><trkpt lat="44.7378471" lon="7.8700063"><ele>361.0</ele><time>2026-04-10T14:43:40.978Z</time></trkpt><trkpt lat="44.7377898" lon="7.8700855"><ele>361.2857142857143</ele><time>2026-04-10T14:43:45.977Z</time></trkpt><trkpt lat="44.7377316" lon="7.8701674"><ele>361.57142857142856</ele><time>2026-04-10T14:43:49.978Z</time></trkpt><trkpt lat="44.7376829" lon="7.8702276"><ele>361.85714285714283</ele><time>2026-04-10T14:43:52.978Z</time></trkpt><trkpt lat="44.7376292" lon="7.8702834"><ele>362.1428571428571</ele><time>2026-04-10T14:43:55.978Z</time></trkpt><trkpt lat="44.7375709" lon="7.87033"><ele>362.42857142857144</ele><time>2026-04-10T14:43:58.977Z</time></trkpt><trkpt lat="44.7375201" lon="7.8703897"><ele>362.71428571428567</ele><time>2026-04-10T14:44:01.977Z</time></trkpt><trkpt lat="44.7374631" lon="7.8704391"><ele>363.0</ele><time>2026-04-10T14:44:04.978Z</time></trkpt><trkpt lat="44.7374065" lon="7.8704902"><ele>363.1428571428571</ele><time>2026-04-10T14:44:07.978Z</time></trkpt><trkpt lat="44.737353" lon="7.8705402"><ele>363.2857142857143</ele><time>2026-04-10T14:44:10.978Z</time></trkpt><trkpt lat="44.7372887" lon="7.8706103"><ele>363.42857142857144</ele><time>2026-04-10T14:44:14.978Z</time></trkpt><trkpt lat="44.7372305" lon="7.8706882"><ele>363.57142857142856</ele><time>2026-04-10T14:44:18.978Z</time></trkpt><trkpt lat="44.7371805" lon="7.8707489"><ele>363.7142857142857</ele><time>2026-04-10T14:44:22.978Z</time></trkpt><trkpt lat="44.7371301" lon="7.8708262"><ele>363.85714285714283</ele><time>2026-04-10T14:44:27.978Z</time></trkpt><trkpt lat="44.7370809" lon="7.8709034"><ele>364.0</ele><time>2026-04-10T14:44:31.978Z</time></trkpt><trkpt lat="44.7370311" lon="7.8709829"><ele>364.0</ele><time>2026-04-10T14:44:34.978Z</time></trkpt><trkpt lat="44.7369687" lon="7.8710797"><ele>364.0</ele><time>2026-04-10T14:44:37.978Z</time></trkpt><trkpt lat="44.736925" lon="7.87115"><ele>364.0</ele><time>2026-04-10T14:44:39.978Z</time></trkpt><trkpt lat="44.7368776" lon="7.8712233"><ele>364.0</ele><time>2026-04-10T14:44:41.978Z</time></trkpt><trkpt lat="44.7368304" lon="7.8712946"><ele>364.0</ele><time>2026-04-10T14:44:43.977Z</time></trkpt><trkpt lat="44.7367883" lon="7.8713656"><ele>364.0</ele><time>2026-04-10T14:44:45.978Z</time></trkpt><trkpt lat="44.7367371" lon="7.8714661"><ele>364.14285714285717</ele><time>2026-04-10T14:44:48.978Z</time></trkpt><trkpt lat="44.7366901" lon="7.8715565"><ele>364.2857142857143</ele><time>2026-04-10T14:44:51.978Z</time></trkpt><trkpt lat="44.7366645" lon="7.8716486"><ele>364.42857142857144</ele><time>2026-04-10T14:44:54.977Z</time></trkpt><trkpt lat="44.7366194" lon="7.8717463"><ele>364.57142857142856</ele><time>2026-04-10T14:44:58.977Z</time></trkpt><trkpt lat="44.7365695" lon="7.8718114"><ele>364.7142857142857</ele><time>2026-04-10T14:45:01.977Z</time></trkpt><trkpt lat="44.7365259" lon="7.87189"><ele>364.8571428571429</ele><time>2026-04-10T14:45:04.978Z</time></trkpt><trkpt lat="44.7364695" lon="7.8719643"><ele>365.0</ele><time>2026-04-10T14:45:07.977Z</time></trkpt><trkpt lat="44.7364327" lon="7.8720517"><ele>365.14285714285717</ele><time>2026-04-10T14:45:10.978Z</time></trkpt><trkpt lat="44.736391" lon="7.872136"><ele>365.2857142857143</ele><time>2026-04-10T14:45:13.978Z</time></trkpt><trkpt lat="44.7363537" lon="7.8722198"><ele>365.42857142857144</ele><time>2026-04-10T14:45:16.978Z</time></trkpt><trkpt lat="44.7363128" lon="7.8723053"><ele>365.57142857142856</ele><time>2026-04-10T14:45:19.978Z</time></trkpt><trkpt lat="44.7362735" lon="7.8723939"><ele>365.7142857142857</ele><time>2026-04-10T14:45:22.978Z</time></trkpt><trkpt lat="44.7362325" lon="7.8724741"><ele>365.8571428571429</ele><time>2026-04-10T14:45:25.977Z</time></trkpt><trkpt lat="44.7361886" lon="7.872549"><ele>366.0</ele><time>2026-04-10T14:45:28.978Z</time></trkpt><trkpt lat="44.736143" lon="7.8726294"><ele>366.0</ele><time>2026-04-10T14:45:31.978Z</time></trkpt><trkpt lat="44.7360998" lon="7.8727115"><ele>366.0</ele><time>2026-04-10T14:45:34.978Z</time></trkpt><trkpt lat="44.7360533" lon="7.8727918"><ele>366.0</ele><time>2026-04-10T14:45:37.977Z</time></trkpt><trkpt lat="44.7360053" lon="7.8728695"><ele>366.0</ele><time>2026-04-10T14:45:40.978Z</time></trkpt><trkpt lat="44.7359504" lon="7.8729404"><ele>366.0</ele><time>2026-04-10T14:45:43.978Z</time></trkpt><trkpt lat="44.7358968" lon="7.8730176"><ele>366.0</ele><time>2026-04-10T14:45:46.977Z</time></trkpt><trkpt lat="44.7358432" lon="7.8730916"><ele>366.0</ele><time>2026-04-10T14:45:49.978Z</time></trkpt><trkpt lat="44.7357869" lon="7.8731661"><ele>366.1666666666667</ele><time>2026-04-10T14:45:52.978Z</time></trkpt><trkpt lat="44.7357333" lon="7.873238"><ele>366.3333333333333</ele><time>2026-04-10T14:45:55.978Z</time></trkpt><trkpt lat="44.735681" lon="7.8733097"><ele>366.5</ele><time>2026-04-10T14:45:58.978Z</time></trkpt><trkpt lat="44.735621" lon="7.8733866"><ele>366.66666666666663</ele><time>2026-04-10T14:46:01.978Z</time></trkpt><trkpt lat="44.7355691" lon="7.8734701"><ele>366.8333333333333</ele><time>2026-04-10T14:46:04.978Z</time></trkpt><trkpt lat="44.7355102" lon="7.873543"><ele>367.0</ele><time>2026-04-10T14:46:07.977Z</time></trkpt><trkpt lat="44.735457" lon="7.8736218"><ele>367.16666666666663</ele><time>2026-04-10T14:46:10.978Z</time></trkpt><trkpt lat="44.7353995" lon="7.8737047"><ele>367.3333333333333</ele><time>2026-04-10T14:46:13.972Z</time></trkpt><trkpt lat="44.7353429" lon="7.8737867"><ele>367.5</ele><time>2026-04-10T14:46:16.97Z</time></trkpt><trkpt lat="44.7352872" lon="7.873871"><ele>367.6666666666667</ele><time>2026-04-10T14:46:19.971Z</time></trkpt><trkpt lat="44.7352294" lon="7.8739485"><ele>367.83333333333337</ele><time>2026-04-10T14:46:22.971Z</time></trkpt><trkpt lat="44.7351694" lon="7.8740274"><ele>368.0</ele><time>2026-04-10T14:46:25.971Z</time></trkpt><trkpt lat="44.7351151" lon="7.874102"><ele>368.1666666666667</ele><time>2026-04-10T14:46:28.97Z</time></trkpt><trkpt lat="44.735057" lon="7.8741629"><ele>368.33333333333337</ele><time>2026-04-10T14:46:31.971Z</time></trkpt><trkpt lat="44.7349968" lon="7.8742273"><ele>368.5</ele><time>2026-04-10T14:46:34.971Z</time></trkpt><trkpt lat="44.7349374" lon="7.8742979"><ele>368.6666666666667</ele><time>2026-04-10T14:46:37.97Z</time></trkpt><trkpt lat="44.7348787" lon="7.8743715"><ele>368.8333333333333</ele><time>2026-04-10T14:46:40.97Z</time></trkpt><trkpt lat="44.7348152" lon="7.874441"><ele>369.0</ele><time>2026-04-10T14:46:43.971Z</time></trkpt><trkpt lat="44.7347662" lon="7.8745064"><ele>369.0</ele><time>2026-04-10T14:46:46.971Z</time></trkpt><trkpt lat="44.7347078" lon="7.8745566"><ele>369.0</ele><time>2026-04-10T14:46:49.97Z</time></trkpt><trkpt lat="44.7346451" lon="7.8746145"><ele>369.0</ele><time>2026-04-10T14:46:52.97Z</time></trkpt><trkpt lat="44.7345851" lon="7.874678"><ele>369.0</ele><time>2026-04-10T14:46:55.971Z</time></trkpt><trkpt lat="44.7345223" lon="7.8747486"><ele>369.0</ele><time>2026-04-10T14:46:58.97Z</time></trkpt><trkpt lat="44.7344538" lon="7.8748275"><ele>369.0</ele><time>2026-04-10T14:47:01.97Z</time></trkpt><trkpt lat="44.7343881" lon="7.8748997"><ele>369.3333333333333</ele><time>2026-04-10T14:47:04.97Z</time></trkpt><trkpt lat="44.7343171" lon="7.8749752"><ele>369.6666666666667</ele><time>2026-04-10T14:47:07.971Z</time></trkpt><trkpt lat="44.734251" lon="7.8750472"><ele>370.0</ele><time>2026-04-10T14:47:10.971Z</time></trkpt><trkpt lat="44.7341872" lon="7.8751205"><ele>370.33333333333337</ele><time>2026-04-10T14:47:13.971Z</time></trkpt><trkpt lat="44.7341253" lon="7.8751955"><ele>370.6666666666667</ele><time>2026-04-10T14:47:16.971Z</time></trkpt><trkpt lat="44.7340626" lon="7.8752771"><ele>371.0</ele><time>2026-04-10T14:47:19.97Z</time></trkpt><trkpt lat="44.7339979" lon="7.8753626"><ele>371.0</ele><time>2026-04-10T14:47:22.971Z</time></trkpt><trkpt lat="44.7339368" lon="7.8754456"><ele>371.0</ele><time>2026-04-10T14:47:25.971Z</time></trkpt><trkpt lat="44.7338763" lon="7.8755266"><ele>371.0</ele><time>2026-04-10T14:47:28.971Z</time></trkpt><trkpt lat="44.733806" lon="7.8756091"><ele>371.0</ele><time>2026-04-10T14:47:31.971Z</time></trkpt><trkpt lat="44.733737" lon="7.8756918"><ele>371.0</ele><time>2026-04-10T14:47:34.97Z</time></trkpt><trkpt lat="44.7336755" lon="7.8757748"><ele>371.0</ele><time>2026-04-10T14:47:37.971Z</time></trkpt><trkpt lat="44.7336063" lon="7.875859"><ele>371.4</ele><time>2026-04-10T14:47:40.97Z</time></trkpt><trkpt lat="44.7335376" lon="7.8759468"><ele>371.8</ele><time>2026-04-10T14:47:43.971Z</time></trkpt><trkpt lat="44.7334687" lon="7.8760278"><ele>372.2</ele><time>2026-04-10T14:47:46.971Z</time></trkpt><trkpt lat="44.7333993" lon="7.8761046"><ele>372.59999999999997</ele><time>2026-04-10T14:47:49.97Z</time></trkpt><trkpt lat="44.7333301" lon="7.8761891"><ele>373.0</ele><time>2026-04-10T14:47:52.971Z</time></trkpt><trkpt lat="44.7332628" lon="7.8762706"><ele>373.0</ele><time>2026-04-10T14:47:55.97Z</time></trkpt><trkpt lat="44.7331919" lon="7.8763502"><ele>373.0</ele><time>2026-04-10T14:47:58.971Z</time></trkpt><trkpt lat="44.7331174" lon="7.8764213"><ele>373.0</ele><time>2026-04-10T14:48:01.97Z</time></trkpt><trkpt lat="44.7330422" lon="7.8764886"><ele>373.0</ele><time>2026-04-10T14:48:04.971Z</time></trkpt><trkpt lat="44.7329637" lon="7.8765516"><ele>373.0</ele><time>2026-04-10T14:48:07.971Z</time></trkpt><trkpt lat="44.7328876" lon="7.876606"><ele>373.0</ele><time>2026-04-10T14:48:10.97Z</time></trkpt><trkpt lat="44.7328108" lon="7.8766551"><ele>373.0</ele><time>2026-04-10T14:48:13.97Z</time></trkpt><trkpt lat="44.7327316" lon="7.8766968"><ele>373.0</ele><time>2026-04-10T14:48:16.971Z</time></trkpt><trkpt lat="44.7326586" lon="7.8767344"><ele>373.0</ele><time>2026-04-10T14:48:19.97Z</time></trkpt><trkpt lat="44.7325839" lon="7.8767712"><ele>373.0</ele><time>2026-04-10T14:48:22.97Z</time></trkpt><trkpt lat="44.7325042" lon="7.8767974"><ele>373.0</ele><time>2026-04-10T14:48:25.971Z</time></trkpt><trkpt lat="44.7324259" lon="7.8768213"><ele>373.0</ele><time>2026-04-10T14:48:28.971Z</time></trkpt><trkpt lat="44.7323523" lon="7.8768458"><ele>373.0</ele><time>2026-04-10T14:48:31.97Z</time></trkpt><trkpt lat="44.7322709" lon="7.8768611"><ele>373.0</ele><time>2026-04-10T14:48:34.971Z</time></trkpt><trkpt lat="44.7321865" lon="7.8768588"><ele>373.0</ele><time>2026-04-10T14:48:37.971Z</time></trkpt><trkpt lat="44.7321045" lon="7.8768522"><ele>373.0</ele><time>2026-04-10T14:48:40.97Z</time></trkpt><trkpt lat="44.7320334" lon="7.8768419"><ele>373.0</ele><time>2026-04-10T14:48:43.97Z</time></trkpt><trkpt lat="44.7319592" lon="7.8768663"><ele>373.0</ele><time>2026-04-10T14:48:46.97Z</time></trkpt><trkpt lat="44.7318801" lon="7.8768876"><ele>373.3333333333333</ele><time>2026-04-10T14:48:49.97Z</time></trkpt><trkpt lat="44.7318034" lon="7.8769103"><ele>373.66666666666663</ele><time>2026-04-10T14:48:52.971Z</time></trkpt><trkpt lat="44.7317344" lon="7.8769341"><ele>374.0</ele><time>2026-04-10T14:48:55.97Z</time></trkpt><trkpt lat="44.7316699" lon="7.8769574"><ele>374.3333333333333</ele><time>2026-04-10T14:48:58.971Z</time></trkpt><trkpt lat="44.7315898" lon="7.8769815"><ele>374.6666666666667</ele><time>2026-04-10T14:49:01.97Z</time></trkpt><trkpt lat="44.7315089" lon="7.8770297"><ele>375.0</ele><time>2026-04-10T14:49:04.971Z</time></trkpt><trkpt lat="44.7314245" lon="7.8770792"><ele>375.0</ele><time>2026-04-10T14:49:07.971Z</time></trkpt><trkpt lat="44.7313324" lon="7.8771051"><ele>375.0</ele><time>2026-04-10T14:49:10.97Z</time></trkpt><trkpt lat="44.7312416" lon="7.8771384"><ele>375.0</ele><time>2026-04-10T14:49:13.971Z</time></trkpt><trkpt lat="44.7311511" lon="7.8771724"><ele>375.0</ele><time>2026-04-10T14:49:16.971Z</time></trkpt><trkpt lat="44.731061" lon="7.8772045"><ele>375.0</ele><time>2026-04-10T14:49:19.971Z</time></trkpt><trkpt lat="44.7309998" lon="7.8772282"><ele>375.0</ele><time>2026-04-10T14:49:21.971Z</time></trkpt><trkpt lat="44.7309268" lon="7.8772608"><ele>375.0</ele><time>2026-04-10T14:49:23.971Z</time></trkpt><trkpt lat="44.7308631" lon="7.8772816"><ele>375.0</ele><time>2026-04-10T14:49:25.971Z</time></trkpt><trkpt lat="44.7307982" lon="7.8773005"><ele>375.0</ele><time>2026-04-10T14:49:27.971Z</time></trkpt><trkpt lat="44.7307334" lon="7.8773224"><ele>375.0</ele><time>2026-04-10T14:49:29.97Z</time></trkpt><trkpt lat="44.7306664" lon="7.8773471"><ele>375.0</ele><time>2026-04-10T14:49:31.971Z</time></trkpt><trkpt lat="44.7306037" lon="7.8773705"><ele>375.0</ele><time>2026-04-10T14:49:33.97Z</time></trkpt><trkpt lat="44.7305428" lon="7.8773951"><ele>375.0</ele><time>2026-04-10T14:49:35.971Z</time></trkpt><trkpt lat="44.7304784" lon="7.8774213"><ele>375.0</ele><time>2026-04-10T14:49:37.971Z</time></trkpt><trkpt lat="44.7304147" lon="7.8774434"><ele>375.0</ele><time>2026-04-10T14:49:39.971Z</time></trkpt><trkpt lat="44.7303491" lon="7.8774666"><ele>375.0</ele><time>2026-04-10T14:49:41.97Z</time></trkpt><trkpt lat="44.7302776" lon="7.8774895"><ele>375.0</ele><time>2026-04-10T14:49:43.971Z</time></trkpt><trkpt lat="44.7302028" lon="7.8775183"><ele>375.0</ele><time>2026-04-10T14:49:45.971Z</time></trkpt><trkpt lat="44.7301306" lon="7.8775441"><ele>375.0</ele><time>2026-04-10T14:49:47.971Z</time></trkpt><trkpt lat="44.7300565" lon="7.8775697"><ele>375.0</ele><time>2026-04-10T14:49:49.971Z</time></trkpt><trkpt lat="44.7299823" lon="7.877601"><ele>376.2857142857143</ele><time>2026-04-10T14:49:51.971Z</time></trkpt><trkpt lat="44.7299096" lon="7.8776247"><ele>377.57142857142856</ele><time>2026-04-10T14:49:53.971Z</time></trkpt><trkpt lat="44.7298398" lon="7.8776549"><ele>378.85714285714283</ele><time>2026-04-10T14:49:55.971Z</time></trkpt><trkpt lat="44.7297668" lon="7.8776825"><ele>380.1428571428571</ele><time>2026-04-10T14:49:57.971Z</time></trkpt><trkpt lat="44.7296948" lon="7.87771"><ele>381.42857142857144</ele><time>2026-04-10T14:49:59.971Z</time></trkpt><trkpt lat="44.7296204" lon="7.8777351"><ele>382.71428571428567</ele><time>2026-04-10T14:50:01.971Z</time></trkpt><trkpt lat="44.7295489" lon="7.8777638"><ele>384.0</ele><time>2026-04-10T14:50:03.971Z</time></trkpt><trkpt lat="44.7294758" lon="7.877788"><ele>383.99999999999994</ele><time>2026-04-10T14:50:05.971Z</time></trkpt><trkpt lat="44.7294033" lon="7.8778009"><ele>384.0</ele><time>2026-04-10T14:50:07.97Z</time></trkpt><trkpt lat="44.7293336" lon="7.8778106"><ele>384.0</ele><time>2026-04-10T14:50:09.971Z</time></trkpt><trkpt lat="44.7292634" lon="7.8778137"><ele>384.0</ele><time>2026-04-10T14:50:11.971Z</time></trkpt><trkpt lat="44.729191" lon="7.8778122"><ele>384.0</ele><time>2026-04-10T14:50:13.971Z</time></trkpt><trkpt lat="44.7291208" lon="7.8778015"><ele>383.99999999999994</ele><time>2026-04-10T14:50:15.971Z</time></trkpt><trkpt lat="44.7290506" lon="7.8777926"><ele>384.0</ele><time>2026-04-10T14:50:17.971Z</time></trkpt><trkpt lat="44.7289811" lon="7.8777898"><ele>383.57142857142856</ele><time>2026-04-10T14:50:19.971Z</time></trkpt><trkpt lat="44.7289131" lon="7.8777893"><ele>383.1428571428571</ele><time>2026-04-10T14:50:21.971Z</time></trkpt><trkpt lat="44.7288456" lon="7.8777801"><ele>382.71428571428567</ele><time>2026-04-10T14:50:23.97Z</time></trkpt><trkpt lat="44.7287773" lon="7.8777707"><ele>382.2857142857143</ele><time>2026-04-10T14:50:25.971Z</time></trkpt><trkpt lat="44.7287083" lon="7.8777702"><ele>381.8571428571429</ele><time>2026-04-10T14:50:27.97Z</time></trkpt><trkpt lat="44.7286397" lon="7.877771"><ele>381.4285714285714</ele><time>2026-04-10T14:50:29.971Z</time></trkpt><trkpt lat="44.7285701" lon="7.8777808"><ele>381.0</ele><time>2026-04-10T14:50:31.97Z</time></trkpt><trkpt lat="44.7284997" lon="7.8777986"><ele>380.85714285714283</ele><time>2026-04-10T14:50:33.971Z</time></trkpt><trkpt lat="44.7284307" lon="7.8778275"><ele>380.7142857142857</ele><time>2026-04-10T14:50:35.971Z</time></trkpt><trkpt lat="44.7283637" lon="7.8778576"><ele>380.57142857142856</ele><time>2026-04-10T14:50:37.97Z</time></trkpt><trkpt lat="44.7282991" lon="7.8778891"><ele>380.42857142857144</ele><time>2026-04-10T14:50:39.971Z</time></trkpt><trkpt lat="44.7282346" lon="7.8779258"><ele>380.28571428571433</ele><time>2026-04-10T14:50:41.971Z</time></trkpt><trkpt lat="44.7281669" lon="7.8779603"><ele>380.14285714285717</ele><time>2026-04-10T14:50:43.971Z</time></trkpt><trkpt lat="44.7281005" lon="7.8779942"><ele>380.0</ele><time>2026-04-10T14:50:45.971Z</time></trkpt><trkpt lat="44.7280317" lon="7.8780176"><ele>380.0</ele><time>2026-04-10T14:50:47.971Z</time></trkpt><trkpt lat="44.7279646" lon="7.8780409"><ele>380.0</ele><time>2026-04-10T14:50:49.97Z</time></trkpt><trkpt lat="44.7279013" lon="7.8780681"><ele>380.0</ele><time>2026-04-10T14:50:51.97Z</time></trkpt><trkpt lat="44.7278371" lon="7.8780959"><ele>380.0</ele><time>2026-04-10T14:50:53.971Z</time></trkpt><trkpt lat="44.7277741" lon="7.8781198"><ele>380.0</ele><time>2026-04-10T14:50:55.971Z</time></trkpt><trkpt lat="44.7277089" lon="7.878142"><ele>380.0</ele><time>2026-04-10T14:50:57.971Z</time></trkpt><trkpt lat="44.7276445" lon="7.8781648"><ele>380.0</ele><time>2026-04-10T14:50:59.971Z</time></trkpt><trkpt lat="44.727582" lon="7.8781919"><ele>380.42857142857144</ele><time>2026-04-10T14:51:01.971Z</time></trkpt><trkpt lat="44.72752" lon="7.8782169"><ele>380.8571428571429</ele><time>2026-04-10T14:51:03.97Z</time></trkpt><trkpt lat="44.7274579" lon="7.8782373"><ele>381.2857142857143</ele><time>2026-04-10T14:51:05.971Z</time></trkpt><trkpt lat="44.7273964" lon="7.8782603"><ele>381.7142857142857</ele><time>2026-04-10T14:51:07.971Z</time></trkpt><trkpt lat="44.7273309" lon="7.8782878"><ele>382.1428571428571</ele><time>2026-04-10T14:51:09.971Z</time></trkpt><trkpt lat="44.7272641" lon="7.8783128"><ele>382.57142857142856</ele><time>2026-04-10T14:51:11.971Z</time></trkpt><trkpt lat="44.7271984" lon="7.878338"><ele>383.0</ele><time>2026-04-10T14:51:13.97Z</time></trkpt><trkpt lat="44.7271351" lon="7.8783619"><ele>383.0</ele><time>2026-04-10T14:51:15.971Z</time></trkpt><trkpt lat="44.7270725" lon="7.8783903"><ele>383.0</ele><time>2026-04-10T14:51:17.971Z</time></trkpt><trkpt lat="44.7270118" lon="7.8784141"><ele>383.0</ele><time>2026-04-10T14:51:19.97Z</time></trkpt><trkpt lat="44.7269502" lon="7.8784376"><ele>383.0</ele><time>2026-04-10T14:51:21.971Z</time></trkpt><trkpt lat="44.72686" lon="7.878473"><ele>383.0</ele><time>2026-04-10T14:51:24.971Z</time></trkpt><trkpt lat="44.7267702" lon="7.8785074"><ele>383.0</ele><time>2026-04-10T14:51:27.971Z</time></trkpt><trkpt lat="44.7266818" lon="7.878543"><ele>383.0</ele><time>2026-04-10T14:51:30.97Z</time></trkpt><trkpt lat="44.7265947" lon="7.8785799"><ele>383.0</ele><time>2026-04-10T14:51:33.971Z</time></trkpt><trkpt lat="44.7265119" lon="7.8786191"><ele>383.0</ele><time>2026-04-10T14:51:36.971Z</time></trkpt><trkpt lat="44.726434" lon="7.8786585"><ele>383.0</ele><time>2026-04-10T14:51:39.97Z</time></trkpt><trkpt lat="44.7263584" lon="7.8787112"><ele>383.0</ele><time>2026-04-10T14:51:42.971Z</time></trkpt><trkpt lat="44.7262809" lon="7.878765"><ele>383.0</ele><time>2026-04-10T14:51:45.971Z</time></trkpt><trkpt lat="44.7261998" lon="7.8788192"><ele>383.0</ele><time>2026-04-10T14:51:48.971Z</time></trkpt><trkpt lat="44.7261247" lon="7.8788672"><ele>383.0</ele><time>2026-04-10T14:51:51.97Z</time></trkpt><trkpt lat="44.7260422" lon="7.8789218"><ele>383.0</ele><time>2026-04-10T14:51:54.971Z</time></trkpt><trkpt lat="44.7259718" lon="7.8789636"><ele>383.0</ele><time>2026-04-10T14:51:57.97Z</time></trkpt><trkpt lat="44.7259063" lon="7.8790043"><ele>383.0</ele><time>2026-04-10T14:52:00.971Z</time></trkpt><trkpt lat="44.725846" lon="7.8790472"><ele>383.0</ele><time>2026-04-10T14:52:03.971Z</time></trkpt><trkpt lat="44.7257797" lon="7.8790874"><ele>383.42857142857144</ele><time>2026-04-10T14:52:06.971Z</time></trkpt><trkpt lat="44.7257129" lon="7.8791327"><ele>383.85714285714283</ele><time>2026-04-10T14:52:09.971Z</time></trkpt><trkpt lat="44.7256493" lon="7.8791719"><ele>384.28571428571433</ele><time>2026-04-10T14:52:12.97Z</time></trkpt><trkpt lat="44.7255734" lon="7.8792197"><ele>384.7142857142857</ele><time>2026-04-10T14:52:16.971Z</time></trkpt><trkpt lat="44.7255138" lon="7.8792622"><ele>385.14285714285717</ele><time>2026-04-10T14:52:19.97Z</time></trkpt><trkpt lat="44.7254541" lon="7.8792981"><ele>385.5714285714286</ele><time>2026-04-10T14:52:22.971Z</time></trkpt><trkpt lat="44.7253951" lon="7.8793398"><ele>386.0</ele><time>2026-04-10T14:52:25.971Z</time></trkpt><trkpt lat="44.7253329" lon="7.8793771"><ele>385.8571428571429</ele><time>2026-04-10T14:52:28.97Z</time></trkpt><trkpt lat="44.7252745" lon="7.8794149"><ele>385.7142857142857</ele><time>2026-04-10T14:52:31.971Z</time></trkpt><trkpt lat="44.7252045" lon="7.8794698"><ele>385.57142857142856</ele><time>2026-04-10T14:52:35.971Z</time></trkpt><trkpt lat="44.7251433" lon="7.8795079"><ele>385.42857142857144</ele><time>2026-04-10T14:52:38.971Z</time></trkpt><trkpt lat="44.7250804" lon="7.8795426"><ele>385.2857142857143</ele><time>2026-04-10T14:52:41.97Z</time></trkpt><trkpt lat="44.725021" lon="7.8795835"><ele>385.14285714285717</ele><time>2026-04-10T14:52:44.971Z</time></trkpt><trkpt lat="44.7249606" lon="7.8796119"><ele>385.0</ele><time>2026-04-10T14:52:47.971Z</time></trkpt><trkpt lat="44.7248982" lon="7.8796352"><ele>385.0</ele><time>2026-04-10T14:52:50.97Z</time></trkpt><trkpt lat="44.7248353" lon="7.879658"><ele>385.0</ele><time>2026-04-10T14:52:53.971Z</time></trkpt><trkpt lat="44.7247625" lon="7.879689"><ele>385.0</ele><time>2026-04-10T14:52:57.971Z</time></trkpt><trkpt lat="44.7246977" lon="7.8797251"><ele>385.0</ele><time>2026-04-10T14:54:44.964Z</time></trkpt><trkpt lat="44.7246309" lon="7.8797536"><ele>385.0</ele><time>2026-04-10T14:54:51.975Z</time></trkpt><trkpt lat="44.7245681" lon="7.8797862"><ele>385.0</ele><time>2026-04-10T14:54:59.968Z</time></trkpt><trkpt lat="44.7245044" lon="7.8797979"><ele>385.0</ele><time>2026-04-10T14:56:10.964Z</time></trkpt><trkpt lat="44.7244449" lon="7.8798282"><ele>385.2857142857143</ele><time>2026-04-10T14:56:18.963Z</time></trkpt><trkpt lat="44.7243762" lon="7.8798522"><ele>385.57142857142856</ele><time>2026-04-10T14:56:25.97Z</time></trkpt><trkpt lat="44.7243147" lon="7.8798793"><ele>385.8571428571429</ele><time>2026-04-10T14:56:31.966Z</time></trkpt><trkpt lat="44.7242507" lon="7.8799153"><ele>386.1428571428571</ele><time>2026-04-10T14:56:37.966Z</time></trkpt><trkpt lat="44.7241855" lon="7.8799546"><ele>386.42857142857144</ele><time>2026-04-10T14:56:43.966Z</time></trkpt><trkpt lat="44.7241168" lon="7.8799972"><ele>386.7142857142857</ele><time>2026-04-10T14:56:49.969Z</time></trkpt><trkpt lat="44.7240528" lon="7.8800491"><ele>387.0</ele><time>2026-04-10T14:56:55.966Z</time></trkpt><trkpt lat="44.7239929" lon="7.880085"><ele>387.2857142857143</ele><time>2026-04-10T14:57:00.966Z</time></trkpt><trkpt lat="44.7239339" lon="7.8801199"><ele>387.57142857142856</ele><time>2026-04-10T14:57:05.967Z</time></trkpt><trkpt lat="44.723871" lon="7.8801693"><ele>387.8571428571429</ele><time>2026-04-10T14:57:11.969Z</time></trkpt><trkpt lat="44.7238043" lon="7.8802077"><ele>388.1428571428571</ele><time>2026-04-10T14:57:17.967Z</time></trkpt><trkpt lat="44.7237443" lon="7.8802486"><ele>388.4285714285714</ele><time>2026-04-10T14:57:22.972Z</time></trkpt><trkpt lat="44.7236829" lon="7.8802903"><ele>388.7142857142857</ele><time>2026-04-10T14:57:27.965Z</time></trkpt><trkpt lat="44.7236209" lon="7.8803335"><ele>389.0</ele><time>2026-04-10T14:57:32.966Z</time></trkpt><trkpt lat="44.7235602" lon="7.8803711"><ele>389.0</ele><time>2026-04-10T14:57:37.968Z</time></trkpt><trkpt lat="44.7234998" lon="7.880416"><ele>389.0</ele><time>2026-04-10T14:57:42.966Z</time></trkpt><trkpt lat="44.7234334" lon="7.8804532"><ele>389.0</ele><time>2026-04-10T14:57:47.964Z</time></trkpt><trkpt lat="44.7233723" lon="7.8804922"><ele>389.0</ele><time>2026-04-10T14:57:52.969Z</time></trkpt><trkpt lat="44.7233147" lon="7.8805356"><ele>389.0</ele><time>2026-04-10T14:57:57.978Z</time></trkpt><trkpt lat="44.7232561" lon="7.8805711"><ele>389.0</ele><time>2026-04-10T14:58:02.966Z</time></trkpt><trkpt lat="44.7231963" lon="7.8806129"><ele>389.0</ele><time>2026-04-10T14:58:07.967Z</time></trkpt><trkpt lat="44.7231371" lon="7.8806522"><ele>389.0</ele><time>2026-04-10T14:58:12.965Z</time></trkpt><trkpt lat="44.7230733" lon="7.8806873"><ele>389.0</ele><time>2026-04-10T14:58:17.964Z</time></trkpt><trkpt lat="44.7230114" lon="7.8807214"><ele>389.0</ele><time>2026-04-10T14:58:22.967Z</time></trkpt><trkpt lat="44.7229463" lon="7.8807564"><ele>389.0</ele><time>2026-04-10T14:58:27.963Z</time></trkpt><trkpt lat="44.7228824" lon="7.8807711"><ele>389.0</ele><time>2026-04-10T14:58:32.964Z</time></trkpt><trkpt lat="44.7228199" lon="7.8808125"><ele>389.0</ele><time>2026-04-10T14:58:45.972Z</time></trkpt><trkpt lat="44.722756" lon="7.8808591"><ele>389.0</ele><time>2026-04-10T14:58:51.964Z</time></trkpt><trkpt lat="44.7226923" lon="7.8809112"><ele>390.42857142857144</ele><time>2026-04-10T14:58:57.966Z</time></trkpt><trkpt lat="44.7226294" lon="7.8809357"><ele>391.85714285714283</ele><time>2026-04-10T14:59:03.97Z</time></trkpt><trkpt lat="44.7225678" lon="7.8809781"><ele>393.2857142857143</ele><time>2026-04-10T14:59:15.969Z</time></trkpt><trkpt lat="44.7225052" lon="7.8810181"><ele>394.7142857142857</ele><time>2026-04-10T14:59:20.966Z</time></trkpt><trkpt lat="44.7224452" lon="7.8810525"><ele>396.1428571428571</ele><time>2026-04-10T14:59:25.967Z</time></trkpt><trkpt lat="44.722373" lon="7.8810871"><ele>397.57142857142856</ele><time>2026-04-10T14:59:34.967Z</time></trkpt><trkpt lat="44.722305" lon="7.8811008"><ele>399.0</ele><time>2026-04-10T14:59:38.967Z</time></trkpt><trkpt lat="44.7222352" lon="7.8811121"><ele>399.0</ele><time>2026-04-10T14:59:42.967Z</time></trkpt><trkpt lat="44.7221665" lon="7.8810726"><ele>399.0</ele><time>2026-04-10T14:59:45.97Z</time></trkpt><trkpt lat="44.7221048" lon="7.8810218"><ele>399.0</ele><time>2026-04-10T14:59:48.968Z</time></trkpt><trkpt lat="44.7220489" lon="7.880965"><ele>399.0</ele><time>2026-04-10T14:59:51.967Z</time></trkpt><trkpt lat="44.7219911" lon="7.8809122"><ele>399.0</ele><time>2026-04-10T14:59:54.973Z</time></trkpt><trkpt lat="44.721929" lon="7.8808684"><ele>399.0</ele><time>2026-04-10T14:59:57.978Z</time></trkpt><trkpt lat="44.7218519" lon="7.8808217"><ele>399.0</ele><time>2026-04-10T15:00:00.967Z</time></trkpt><trkpt lat="44.7217631" lon="7.8807864"><ele>396.14285714285717</ele><time>2026-04-10T15:00:03.97Z</time></trkpt><trkpt lat="44.7216962" lon="7.8807923"><ele>393.2857142857143</ele><time>2026-04-10T15:00:05.967Z</time></trkpt><trkpt lat="44.7216257" lon="7.880806"><ele>390.42857142857144</ele><time>2026-04-10T15:00:07.977Z</time></trkpt><trkpt lat="44.7215544" lon="7.8808213"><ele>387.57142857142856</ele><time>2026-04-10T15:00:10.005Z</time></trkpt><trkpt lat="44.7214823" lon="7.8808352"><ele>384.7142857142857</ele><time>2026-04-10T15:00:11.97Z</time></trkpt><trkpt lat="44.7214149" lon="7.8808423"><ele>381.8571428571429</ele><time>2026-04-10T15:00:13.969Z</time></trkpt><trkpt lat="44.7213447" lon="7.8808473"><ele>379.0</ele><time>2026-04-10T15:00:15.967Z</time></trkpt><trkpt lat="44.7212733" lon="7.8808563"><ele>379.0</ele><time>2026-04-10T15:00:17.969Z</time></trkpt><trkpt lat="44.7211984" lon="7.8808658"><ele>379.0</ele><time>2026-04-10T15:00:19.977Z</time></trkpt><trkpt lat="44.7211195" lon="7.8808742"><ele>379.0</ele><time>2026-04-10T15:00:21.972Z</time></trkpt><trkpt lat="44.7210401" lon="7.8808813"><ele>379.0</ele><time>2026-04-10T15:00:23.969Z</time></trkpt><trkpt lat="44.7209604" lon="7.8808902"><ele>379.0</ele><time>2026-04-10T15:00:25.966Z</time></trkpt><trkpt lat="44.720879" lon="7.8808984"><ele>379.0</ele><time>2026-04-10T15:00:27.968Z</time></trkpt><trkpt lat="44.7207979" lon="7.8809137"><ele>377.42857142857144</ele><time>2026-04-10T15:00:29.97Z</time></trkpt><trkpt lat="44.7207184" lon="7.8809367"><ele>375.8571428571429</ele><time>2026-04-10T15:00:31.968Z</time></trkpt><trkpt lat="44.7206448" lon="7.8809699"><ele>374.28571428571433</ele><time>2026-04-10T15:00:33.97Z</time></trkpt><trkpt lat="44.720574" lon="7.8810171"><ele>372.7142857142857</ele><time>2026-04-10T15:00:35.971Z</time></trkpt><trkpt lat="44.7205056" lon="7.881078"><ele>371.1428571428571</ele><time>2026-04-10T15:00:37.968Z</time></trkpt><trkpt lat="44.7204546" lon="7.8811317"><ele>369.5714285714286</ele><time>2026-04-10T15:00:39.967Z</time></trkpt><trkpt lat="44.7204049" lon="7.8811884"><ele>368.0</ele><time>2026-04-10T15:00:42.973Z</time></trkpt><trkpt lat="44.7203535" lon="7.8812561"><ele>368.0</ele><time>2026-04-10T15:00:45.968Z</time></trkpt><trkpt lat="44.7203055" lon="7.8813291"><ele>368.0</ele><time>2026-04-10T15:00:48.975Z</time></trkpt><trkpt lat="44.7202474" lon="7.8814148"><ele>368.0</ele><time>2026-04-10T15:00:51.977Z</time></trkpt><trkpt lat="44.7201893" lon="7.8814988"><ele>368.0</ele><time>2026-04-10T15:00:54.966Z</time></trkpt><trkpt lat="44.7201245" lon="7.8815981"><ele>368.0</ele><time>2026-04-10T15:00:57.968Z</time></trkpt><trkpt lat="44.7200762" lon="7.88167"><ele>368.0</ele><time>2026-04-10T15:00:59.98Z</time></trkpt><trkpt lat="44.7200127" lon="7.8817626"><ele>367.33333333333337</ele><time>2026-04-10T15:01:02.969Z</time></trkpt><trkpt lat="44.7199649" lon="7.8818323"><ele>366.6666666666667</ele><time>2026-04-10T15:01:04.965Z</time></trkpt><trkpt lat="44.7199107" lon="7.8819141"><ele>366.0</ele><time>2026-04-10T15:01:06.967Z</time></trkpt><trkpt lat="44.7198562" lon="7.8819965"><ele>365.3333333333333</ele><time>2026-04-10T15:01:08.971Z</time></trkpt><trkpt lat="44.7198079" lon="7.8820795"><ele>364.66666666666663</ele><time>2026-04-10T15:01:10.967Z</time></trkpt><trkpt lat="44.719761" lon="7.8821881"><ele>364.0</ele><time>2026-04-10T15:01:13.965Z</time></trkpt><trkpt lat="44.7197337" lon="7.882281"><ele>364.0</ele><time>2026-04-10T15:01:15.968Z</time></trkpt><trkpt lat="44.7197051" lon="7.8823914"><ele>364.0</ele><time>2026-04-10T15:01:17.969Z</time></trkpt><trkpt lat="44.7196826" lon="7.8825083"><ele>364.0</ele><time>2026-04-10T15:01:19.967Z</time></trkpt><trkpt lat="44.7196699" lon="7.8826142"><ele>364.0</ele><time>2026-04-10T15:01:21.969Z</time></trkpt><trkpt lat="44.7196616" lon="7.8827111"><ele>364.0</ele><time>2026-04-10T15:01:23.967Z</time></trkpt><trkpt lat="44.7196507" lon="7.8828077"><ele>364.0</ele><time>2026-04-10T15:01:25.969Z</time></trkpt><trkpt lat="44.7196394" lon="7.8829085"><ele>362.14285714285717</ele><time>2026-04-10T15:01:27.97Z</time></trkpt><trkpt lat="44.7196307" lon="7.8830029"><ele>360.2857142857143</ele><time>2026-04-10T15:01:29.965Z</time></trkpt><trkpt lat="44.7196185" lon="7.8830899"><ele>358.42857142857144</ele><time>2026-04-10T15:01:32.047Z</time></trkpt><trkpt lat="44.7196118" lon="7.8832227"><ele>356.57142857142856</ele><time>2026-04-10T15:01:34.968Z</time></trkpt><trkpt lat="44.7196033" lon="7.8833196"><ele>354.7142857142857</ele><time>2026-04-10T15:01:36.97Z</time></trkpt><trkpt lat="44.7195919" lon="7.8834083"><ele>352.8571428571429</ele><time>2026-04-10T15:01:38.966Z</time></trkpt><trkpt lat="44.7195695" lon="7.8835165"><ele>351.0</ele><time>2026-04-10T15:01:41.969Z</time></trkpt><trkpt lat="44.7195317" lon="7.8836097"><ele>350.7142857142857</ele><time>2026-04-10T15:01:45.967Z</time></trkpt><trkpt lat="44.719487" lon="7.883688"><ele>350.42857142857144</ele><time>2026-04-10T15:02:29.97Z</time></trkpt><trkpt lat="44.7194222" lon="7.8837552"><ele>350.1428571428571</ele><time>2026-04-10T15:02:34.97Z</time></trkpt><trkpt lat="44.7193671" lon="7.8838176"><ele>349.8571428571429</ele><time>2026-04-10T15:02:38.97Z</time></trkpt><trkpt lat="44.7193091" lon="7.8838814"><ele>349.57142857142856</ele><time>2026-04-10T15:02:41.969Z</time></trkpt><trkpt lat="44.7192542" lon="7.883935"><ele>349.2857142857143</ele><time>2026-04-10T15:02:44.97Z</time></trkpt><trkpt lat="44.7191934" lon="7.8840092"><ele>349.0</ele><time>2026-04-10T15:02:47.969Z</time></trkpt><trkpt lat="44.7191468" lon="7.8840704"><ele>350.1428571428571</ele><time>2026-04-10T15:02:50.97Z</time></trkpt><trkpt lat="44.7190897" lon="7.8841216"><ele>351.2857142857143</ele><time>2026-04-10T15:02:53.969Z</time></trkpt><trkpt lat="44.7190273" lon="7.8841551"><ele>352.42857142857144</ele><time>2026-04-10T15:02:57.97Z</time></trkpt><trkpt lat="44.7189696" lon="7.8842143"><ele>353.57142857142856</ele><time>2026-04-10T15:04:26.969Z</time></trkpt><trkpt lat="44.7189091" lon="7.8842459"><ele>354.7142857142857</ele><time>2026-04-10T15:04:31.97Z</time></trkpt><trkpt lat="44.7188495" lon="7.8842759"><ele>355.85714285714283</ele><time>2026-04-10T15:04:34.97Z</time></trkpt><trkpt lat="44.7187797" lon="7.8843228"><ele>357.0</ele><time>2026-04-10T15:04:38.969Z</time></trkpt><trkpt lat="44.7187177" lon="7.8843683"><ele>355.0</ele><time>2026-04-10T15:04:41.97Z</time></trkpt><trkpt lat="44.7186394" lon="7.8843966"><ele>353.0</ele><time>2026-04-10T15:04:44.969Z</time></trkpt><trkpt lat="44.7185545" lon="7.8844311"><ele>351.0</ele><time>2026-04-10T15:04:47.97Z</time></trkpt><trkpt lat="44.7184885" lon="7.88446"><ele>349.0</ele><time>2026-04-10T15:04:49.97Z</time></trkpt><trkpt lat="44.7184141" lon="7.8844877"><ele>347.0</ele><time>2026-04-10T15:04:52.97Z</time></trkpt><trkpt lat="44.7183383" lon="7.8845177"><ele>345.0</ele><time>2026-04-10T15:04:55.97Z</time></trkpt><trkpt lat="44.7182507" lon="7.8845569"><ele>345.0</ele><time>2026-04-10T15:04:58.97Z</time></trkpt><trkpt lat="44.7181706" lon="7.8845783"><ele>345.0</ele><time>2026-04-10T15:05:01.97Z</time></trkpt><trkpt lat="44.7180899" lon="7.8846219"><ele>345.0</ele><time>2026-04-10T15:05:04.969Z</time></trkpt><trkpt lat="44.718022" lon="7.8846547"><ele>345.0</ele><time>2026-04-10T15:05:07.97Z</time></trkpt><trkpt lat="44.7179526" lon="7.8847278"><ele>345.0</ele><time>2026-04-10T15:05:10.97Z</time></trkpt><trkpt lat="44.7178876" lon="7.8848126"><ele>345.0</ele><time>2026-04-10T15:05:13.97Z</time></trkpt><trkpt lat="44.7178289" lon="7.8849002"><ele>345.0</ele><time>2026-04-10T15:05:16.97Z</time></trkpt><trkpt lat="44.717763" lon="7.8849836"><ele>345.0</ele><time>2026-04-10T15:05:19.97Z</time></trkpt><trkpt lat="44.7177108" lon="7.8850525"><ele>345.0</ele><time>2026-04-10T15:05:22.97Z</time></trkpt><trkpt lat="44.7176564" lon="7.8851219"><ele>345.0</ele><time>2026-04-10T15:05:25.969Z</time></trkpt><trkpt lat="44.7175989" lon="7.8851851"><ele>345.0</ele><time>2026-04-10T15:05:28.97Z</time></trkpt><trkpt lat="44.7175357" lon="7.8852614"><ele>345.0</ele><time>2026-04-10T15:05:31.97Z</time></trkpt><trkpt lat="44.7174836" lon="7.8853238"><ele>344.57142857142856</ele><time>2026-04-10T15:05:33.97Z</time></trkpt><trkpt lat="44.7174198" lon="7.8853807"><ele>344.1428571428571</ele><time>2026-04-10T15:05:35.97Z</time></trkpt><trkpt lat="44.7173591" lon="7.8854269"><ele>343.71428571428567</ele><time>2026-04-10T15:05:37.969Z</time></trkpt><trkpt lat="44.7172969" lon="7.8854643"><ele>343.2857142857143</ele><time>2026-04-10T15:05:39.97Z</time></trkpt><trkpt lat="44.7172273" lon="7.885493"><ele>342.85714285714283</ele><time>2026-04-10T15:05:41.969Z</time></trkpt><trkpt lat="44.7171521" lon="7.8855129"><ele>342.4285714285714</ele><time>2026-04-10T15:05:43.97Z</time></trkpt><trkpt lat="44.7170834" lon="7.8855244"><ele>342.0</ele><time>2026-04-10T15:05:45.97Z</time></trkpt><trkpt lat="44.7170198" lon="7.8855395"><ele>341.99999999999994</ele><time>2026-04-10T15:05:47.97Z</time></trkpt><trkpt lat="44.7169457" lon="7.8855571"><ele>342.0</ele><time>2026-04-10T15:05:49.97Z</time></trkpt><trkpt lat="44.7168681" lon="7.885576"><ele>342.0</ele><time>2026-04-10T15:05:51.97Z</time></trkpt><trkpt lat="44.7167925" lon="7.8855921"><ele>342.0</ele><time>2026-04-10T15:05:53.97Z</time></trkpt><trkpt lat="44.7167172" lon="7.8856355"><ele>342.0</ele><time>2026-04-10T15:05:56.97Z</time></trkpt><trkpt lat="44.7166578" lon="7.8856685"><ele>341.99999999999994</ele><time>2026-04-10T15:06:19.969Z</time></trkpt><trkpt lat="44.7165925" lon="7.8856839"><ele>342.0</ele><time>2026-04-10T15:06:23.97Z</time></trkpt><trkpt lat="44.7165236" lon="7.8856811"><ele>340.4285714285714</ele><time>2026-04-10T15:06:26.97Z</time></trkpt><trkpt lat="44.7164736" lon="7.8856181"><ele>338.85714285714283</ele><time>2026-04-10T15:06:30.97Z</time></trkpt><trkpt lat="44.716445" lon="7.885534"><ele>337.2857142857143</ele><time>2026-04-10T15:06:33.97Z</time></trkpt><trkpt lat="44.7164428" lon="7.8854264"><ele>335.71428571428567</ele><time>2026-04-10T15:06:36.97Z</time></trkpt><trkpt lat="44.7164564" lon="7.8853282"><ele>334.1428571428571</ele><time>2026-04-10T15:06:39.97Z</time></trkpt><trkpt lat="44.7164719" lon="7.8852363"><ele>332.57142857142856</ele><time>2026-04-10T15:06:42.97Z</time></trkpt><trkpt lat="44.7164606" lon="7.8851362"><ele>331.0</ele><time>2026-04-10T15:06:46.97Z</time></trkpt><trkpt lat="44.7163895" lon="7.8850748"><ele>331.0</ele><time>2026-04-10T15:06:50.97Z</time></trkpt><trkpt lat="44.7163191" lon="7.8851058"><ele>331.0</ele><time>2026-04-10T15:06:53.969Z</time></trkpt><trkpt lat="44.716274" lon="7.8852149"><ele>331.0</ele><time>2026-04-10T15:06:56.97Z</time></trkpt><trkpt lat="44.7162653" lon="7.8853381"><ele>331.0</ele><time>2026-04-10T15:06:59.97Z</time></trkpt><trkpt lat="44.7162559" lon="7.8854547"><ele>331.0</ele><time>2026-04-10T15:07:02.97Z</time></trkpt><trkpt lat="44.7162187" lon="7.8855746"><ele>331.0</ele><time>2026-04-10T15:07:05.97Z</time></trkpt><trkpt lat="44.7161682" lon="7.8856392"><ele>331.0</ele><time>2026-04-10T15:07:07.969Z</time></trkpt><trkpt lat="44.7161097" lon="7.885693"><ele>331.0</ele><time>2026-04-10T15:07:09.97Z</time></trkpt><trkpt lat="44.7160548" lon="7.8857459"><ele>331.0</ele><time>2026-04-10T15:07:11.97Z</time></trkpt><trkpt lat="44.7159999" lon="7.8857993"><ele>331.0</ele><time>2026-04-10T15:07:13.97Z</time></trkpt><trkpt lat="44.7159412" lon="7.8858491"><ele>331.0</ele><time>2026-04-10T15:07:15.969Z</time></trkpt><trkpt lat="44.7158957" lon="7.8859174"><ele>331.0</ele><time>2026-04-10T15:07:17.97Z</time></trkpt><trkpt lat="44.7158597" lon="7.8859972"><ele>331.0</ele><time>2026-04-10T15:07:19.97Z</time></trkpt><trkpt lat="44.7158302" lon="7.8860828"><ele>329.8333333333333</ele><time>2026-04-10T15:07:21.97Z</time></trkpt><trkpt lat="44.7158018" lon="7.886171"><ele>328.66666666666663</ele><time>2026-04-10T15:07:23.97Z</time></trkpt><trkpt lat="44.7157602" lon="7.8862456"><ele>327.5</ele><time>2026-04-10T15:07:25.969Z</time></trkpt><trkpt lat="44.7156874" lon="7.8863122"><ele>326.3333333333333</ele><time>2026-04-10T15:07:28.969Z</time></trkpt><trkpt lat="44.7156238" lon="7.8863694"><ele>325.1666666666667</ele><time>2026-04-10T15:07:31.969Z</time></trkpt><trkpt lat="44.715545" lon="7.8864265"><ele>324.0</ele><time>2026-04-10T15:07:34.97Z</time></trkpt><trkpt lat="44.715463" lon="7.886485"><ele>324.0</ele><time>2026-04-10T15:07:37.969Z</time></trkpt><trkpt lat="44.7153821" lon="7.8865334"><ele>324.0</ele><time>2026-04-10T15:07:40.97Z</time></trkpt><trkpt lat="44.7153036" lon="7.8865754"><ele>324.0</ele><time>2026-04-10T15:07:43.97Z</time></trkpt><trkpt lat="44.7152184" lon="7.8866"><ele>324.0</ele><time>2026-04-10T15:07:46.97Z</time></trkpt><trkpt lat="44.7151411" lon="7.886607"><ele>324.0</ele><time>2026-04-10T15:07:49.97Z</time></trkpt><trkpt lat="44.7150699" lon="7.886626"><ele>324.0</ele><time>2026-04-10T15:07:52.97Z</time></trkpt><trkpt lat="44.7150056" lon="7.8866491"><ele>321.6666666666667</ele><time>2026-04-10T15:07:54.97Z</time></trkpt><trkpt lat="44.7149194" lon="7.8866631"><ele>319.3333333333333</ele><time>2026-04-10T15:07:56.969Z</time></trkpt><trkpt lat="44.7148365" lon="7.8866848"><ele>317.0</ele><time>2026-04-10T15:07:58.97Z</time></trkpt><trkpt lat="44.7147656" lon="7.8866967"><ele>314.66666666666663</ele><time>2026-04-10T15:08:00.97Z</time></trkpt><trkpt lat="44.7146906" lon="7.886709"><ele>312.3333333333333</ele><time>2026-04-10T15:08:02.97Z</time></trkpt><trkpt lat="44.7146103" lon="7.8867236"><ele>310.0</ele><time>2026-04-10T15:08:04.97Z</time></trkpt><trkpt lat="44.7145311" lon="7.8867325"><ele>310.0</ele><time>2026-04-10T15:08:06.97Z</time></trkpt><trkpt lat="44.7144581" lon="7.8867542"><ele>310.0</ele><time>2026-04-10T15:08:08.97Z</time></trkpt><trkpt lat="44.7143848" lon="7.8867794"><ele>310.0</ele><time>2026-04-10T15:08:10.97Z</time></trkpt><trkpt lat="44.714322" lon="7.8868012"><ele>310.0</ele><time>2026-04-10T15:08:12.969Z</time></trkpt><trkpt lat="44.7142466" lon="7.8868679"><ele>310.0</ele><time>2026-04-10T15:08:15.97Z</time></trkpt><trkpt lat="44.7141835" lon="7.8869482"><ele>310.0</ele><time>2026-04-10T15:08:18.97Z</time></trkpt><trkpt lat="44.714127" lon="7.8870455"><ele>305.0</ele><time>2026-04-10T15:08:21.97Z</time></trkpt><trkpt lat="44.7140753" lon="7.8871319"><ele>305.0</ele><time>2026-04-10T15:08:24.97Z</time></trkpt><trkpt lat="44.7140257" lon="7.8872108"><ele>305.0</ele><time>2026-04-10T15:08:27.97Z</time></trkpt><trkpt lat="44.7139798" lon="7.8872731"><ele>305.0</ele><time>2026-04-10T15:08:30.969Z</time></trkpt></trkseg><trkseg><trkpt lat="44.638711" lon="7.9333306"><ele>495.71428571428567</ele><time>2026-04-11T06:13:33.116Z</time></trkpt><trkpt lat="44.638732" lon="7.9334203"><ele>496.42857142857144</ele><time>2026-04-11T06:17:03.111Z</time></trkpt><trkpt lat="44.6387854" lon="7.9334753"><ele>497.1428571428571</ele><time>2026-04-11T06:17:38.111Z</time></trkpt><trkpt lat="44.6388264" lon="7.9335538"><ele>497.85714285714283</ele><time>2026-04-11T06:17:46.111Z</time></trkpt><trkpt lat="44.6388706" lon="7.9336185"><ele>498.57142857142856</ele><time>2026-04-11T06:17:52.111Z</time></trkpt><trkpt lat="44.6389061" lon="7.9336936"><ele>499.2857142857143</ele><time>2026-04-11T06:17:58.111Z</time></trkpt><trkpt lat="44.6389452" lon="7.9337868"><ele>500.0</ele><time>2026-04-11T06:18:05.111Z</time></trkpt><trkpt lat="44.6389914" lon="7.9338638"><ele>500.0</ele><time>2026-04-11T06:18:10.11Z</time></trkpt><trkpt lat="44.639022" lon="7.933954"><ele>500.0</ele><time>2026-04-11T06:18:16.111Z</time></trkpt><trkpt lat="44.6390567" lon="7.9340361"><ele>500.0</ele><time>2026-04-11T06:18:22.111Z</time></trkpt><trkpt lat="44.6390502" lon="7.934126"><ele>500.0</ele><time>2026-04-11T06:18:29.11Z</time></trkpt><trkpt lat="44.6390164" lon="7.9342103"><ele>500.0</ele><time>2026-04-11T06:18:36.11Z</time></trkpt><trkpt lat="44.6389517" lon="7.9342397"><ele>500.0</ele><time>2026-04-11T06:18:46.111Z</time></trkpt><trkpt lat="44.6388863" lon="7.9342404"><ele>500.0</ele><time>2026-04-11T06:18:55.111Z</time></trkpt><trkpt lat="44.6388173" lon="7.9342724"><ele>500.0</ele><time>2026-04-11T06:19:10.111Z</time></trkpt><trkpt lat="44.6387556" lon="7.9343049"><ele>500.0</ele><time>2026-04-11T06:19:15.111Z</time></trkpt><trkpt lat="44.6386841" lon="7.9343279"><ele>500.0</ele><time>2026-04-11T06:19:20.111Z</time></trkpt><trkpt lat="44.6386223" lon="7.9343521"><ele>500.0</ele><time>2026-04-11T06:19:24.11Z</time></trkpt><trkpt lat="44.6385562" lon="7.9343692"><ele>500.0</ele><time>2026-04-11T06:19:29.111Z</time></trkpt><trkpt lat="44.6384949" lon="7.9344127"><ele>500.0</ele><time>2026-04-11T06:19:35.111Z</time></trkpt><trkpt lat="44.638424" lon="7.9344317"><ele>500.0</ele><time>2026-04-11T06:19:41.11Z</time></trkpt><trkpt lat="44.6383634" lon="7.9344619"><ele>500.0</ele><time>2026-04-11T06:19:47.11Z</time></trkpt><trkpt lat="44.6383014" lon="7.9344826"><ele>500.0</ele><time>2026-04-11T06:19:54.11Z</time></trkpt><trkpt lat="44.6382368" lon="7.934497"><ele>500.0</ele><time>2026-04-11T06:20:00.111Z</time></trkpt><trkpt lat="44.6381712" lon="7.9345124"><ele>500.0</ele><time>2026-04-11T06:20:06.11Z</time></trkpt><trkpt lat="44.6381036" lon="7.9345417"><ele>500.0</ele><time>2026-04-11T06:20:14.111Z</time></trkpt><trkpt lat="44.6380363" lon="7.9345791"><ele>500.0</ele><time>2026-04-11T06:20:20.11Z</time></trkpt><trkpt lat="44.6379692" lon="7.934594"><ele>500.0</ele><time>2026-04-11T06:20:26.111Z</time></trkpt><trkpt lat="44.6379013" lon="7.9345889"><ele>500.0</ele><time>2026-04-11T06:20:33.11Z</time></trkpt><trkpt lat="44.6378394" lon="7.9345597"><ele>500.0</ele><time>2026-04-11T06:20:39.111Z</time></trkpt><trkpt lat="44.6378016" lon="7.9344755"><ele>500.0</ele><time>2026-04-11T06:20:46.11Z</time></trkpt><trkpt lat="44.637743" lon="7.934442"><ele>500.0</ele><time>2026-04-11T06:20:53.11Z</time></trkpt><trkpt lat="44.6376754" lon="7.9344773"><ele>500.0</ele><time>2026-04-11T06:20:59.11Z</time></trkpt><trkpt lat="44.637618" lon="7.9345377"><ele>500.0</ele><time>2026-04-11T06:21:05.111Z</time></trkpt><trkpt lat="44.6375551" lon="7.9345914"><ele>500.0</ele><time>2026-04-11T06:21:11.111Z</time></trkpt><trkpt lat="44.6375001" lon="7.934636"><ele>499.1428571428571</ele><time>2026-04-11T06:21:17.111Z</time></trkpt><trkpt lat="44.6374375" lon="7.9346643"><ele>498.28571428571433</ele><time>2026-04-11T06:21:24.11Z</time></trkpt><trkpt lat="44.6374846" lon="7.9346048"><ele>497.42857142857144</ele><time>2026-04-11T06:23:39.111Z</time></trkpt><trkpt lat="44.6375578" lon="7.9345647"><ele>496.57142857142856</ele><time>2026-04-11T06:26:18.111Z</time></trkpt><trkpt lat="44.6375908" lon="7.9344689"><ele>495.71428571428567</ele><time>2026-04-11T06:26:22.111Z</time></trkpt><trkpt lat="44.6376298" lon="7.9343833"><ele>494.8571428571429</ele><time>2026-04-11T06:26:26.11Z</time></trkpt><trkpt lat="44.6376864" lon="7.9343009"><ele>494.0</ele><time>2026-04-11T06:26:30.11Z</time></trkpt><trkpt lat="44.6377013" lon="7.9341993"><ele>496.14285714285717</ele><time>2026-04-11T06:26:34.11Z</time></trkpt><trkpt lat="44.6376917" lon="7.9341078"><ele>498.2857142857142</ele><time>2026-04-11T06:26:39.111Z</time></trkpt><trkpt lat="44.6376684" lon="7.934024"><ele>500.4285714285714</ele><time>2026-04-11T06:26:45.11Z</time></trkpt><trkpt lat="44.6375938" lon="7.9339665"><ele>502.57142857142856</ele><time>2026-04-11T06:26:50.11Z</time></trkpt><trkpt lat="44.637543" lon="7.9339081"><ele>504.71428571428567</ele><time>2026-04-11T06:26:53.111Z</time></trkpt><trkpt lat="44.6374735" lon="7.9338261"><ele>506.8571428571428</ele><time>2026-04-11T06:26:56.111Z</time></trkpt><trkpt lat="44.6374145" lon="7.9337662"><ele>508.99999999999994</ele><time>2026-04-11T06:26:58.111Z</time></trkpt><trkpt lat="44.6373642" lon="7.9336921"><ele>508.99999999999994</ele><time>2026-04-11T06:27:00.11Z</time></trkpt><trkpt lat="44.6372985" lon="7.933608"><ele>509.0</ele><time>2026-04-11T06:27:03.111Z</time></trkpt><trkpt lat="44.6372427" lon="7.9335339"><ele>508.99999999999994</ele><time>2026-04-11T06:27:06.111Z</time></trkpt><trkpt lat="44.6371871" lon="7.9334906"><ele>508.99999999999994</ele><time>2026-04-11T06:27:09.111Z</time></trkpt><trkpt lat="44.6371155" lon="7.933471"><ele>509.0</ele><time>2026-04-11T06:27:13.11Z</time></trkpt><trkpt lat="44.6370542" lon="7.9334391"><ele>508.99999999999994</ele><time>2026-04-11T06:27:18.111Z</time></trkpt><trkpt lat="44.6371154" lon="7.9333973"><ele>508.99999999999994</ele><time>2026-04-11T06:27:29.111Z</time></trkpt><trkpt lat="44.6371856" lon="7.9333855"><ele>508.5714285714285</ele><time>2026-04-11T06:27:33.111Z</time></trkpt><trkpt lat="44.6372362" lon="7.9333288"><ele>508.1428571428571</ele><time>2026-04-11T06:27:36.11Z</time></trkpt><trkpt lat="44.637262" lon="7.9332477"><ele>507.7142857142857</ele><time>2026-04-11T06:27:39.11Z</time></trkpt><trkpt lat="44.6372984" lon="7.9331665"><ele>507.2857142857143</ele><time>2026-04-11T06:27:43.111Z</time></trkpt><trkpt lat="44.6373339" lon="7.9330696"><ele>506.8571428571429</ele><time>2026-04-11T06:27:47.111Z</time></trkpt><trkpt lat="44.6373621" lon="7.932983"><ele>506.4285714285715</ele><time>2026-04-11T06:27:50.11Z</time></trkpt><trkpt lat="44.6373939" lon="7.9328834"><ele>506.00000000000006</ele><time>2026-04-11T06:27:53.111Z</time></trkpt><trkpt lat="44.6373951" lon="7.9327667"><ele>506.00000000000006</ele><time>2026-04-11T06:27:57.11Z</time></trkpt><trkpt lat="44.6374175" lon="7.9326624"><ele>506.0</ele><time>2026-04-11T06:28:00.111Z</time></trkpt><trkpt lat="44.6374305" lon="7.9325732"><ele>506.00000000000006</ele><time>2026-04-11T06:28:03.11Z</time></trkpt><trkpt lat="44.6374715" lon="7.9324801"><ele>506.00000000000006</ele><time>2026-04-11T06:28:07.111Z</time></trkpt><trkpt lat="44.6374062" lon="7.9324195"><ele>506.0</ele><time>2026-04-11T06:28:12.111Z</time></trkpt><trkpt lat="44.6373297" lon="7.9323893"><ele>506.00000000000006</ele><time>2026-04-11T06:28:16.111Z</time></trkpt><trkpt lat="44.6372642" lon="7.9323632"><ele>506.00000000000006</ele><time>2026-04-11T06:28:21.11Z</time></trkpt><trkpt lat="44.6372088" lon="7.9322835"><ele>505.00000000000006</ele><time>2026-04-11T06:28:25.11Z</time></trkpt><trkpt lat="44.6371504" lon="7.9322228"><ele>504.0</ele><time>2026-04-11T06:28:28.111Z</time></trkpt><trkpt lat="44.6370734" lon="7.9321813"><ele>503.00000000000006</ele><time>2026-04-11T06:28:31.11Z</time></trkpt><trkpt lat="44.6370159" lon="7.9321423"><ele>502.00000000000006</ele><time>2026-04-11T06:28:38.111Z</time></trkpt><trkpt lat="44.6369653" lon="7.932221"><ele>501.0</ele><time>2026-04-11T06:28:43.111Z</time></trkpt><trkpt lat="44.6369175" lon="7.9322827"><ele>500.00000000000006</ele><time>2026-04-11T06:29:28.11Z</time></trkpt><trkpt lat="44.6368751" lon="7.9323537"><ele>499.00000000000006</ele><time>2026-04-11T06:29:32.111Z</time></trkpt><trkpt lat="44.636829" lon="7.9324172"><ele>498.1428571428572</ele><time>2026-04-11T06:29:36.111Z</time></trkpt><trkpt lat="44.6367826" lon="7.9324902"><ele>497.28571428571433</ele><time>2026-04-11T06:29:41.111Z</time></trkpt><trkpt lat="44.6367345" lon="7.93256"><ele>496.42857142857144</ele><time>2026-04-11T06:29:48.111Z</time></trkpt><trkpt lat="44.6366999" lon="7.9326424"><ele>495.5714285714286</ele><time>2026-04-11T06:29:53.111Z</time></trkpt><trkpt lat="44.6366599" lon="7.9327204"><ele>494.7142857142858</ele><time>2026-04-11T06:29:58.111Z</time></trkpt><trkpt lat="44.6366172" lon="7.9328052"><ele>493.85714285714283</ele><time>2026-04-11T06:30:03.111Z</time></trkpt><trkpt lat="44.6365779" lon="7.93289"><ele>493.0</ele><time>2026-04-11T06:30:09.111Z</time></trkpt><trkpt lat="44.6365395" lon="7.9329782"><ele>493.0</ele><time>2026-04-11T06:30:15.111Z</time></trkpt><trkpt lat="44.6365114" lon="7.932885"><ele>493.0</ele><time>2026-04-11T06:31:06.111Z</time></trkpt><trkpt lat="44.6365216" lon="7.9327929"><ele>493.0</ele><time>2026-04-11T06:31:11.11Z</time></trkpt><trkpt lat="44.636538" lon="7.9326856"><ele>493.0</ele><time>2026-04-11T06:31:15.111Z</time></trkpt><trkpt lat="44.6365628" lon="7.9325729"><ele>493.0</ele><time>2026-04-11T06:31:18.111Z</time></trkpt><trkpt lat="44.6365946" lon="7.9324885"><ele>493.0</ele><time>2026-04-11T06:31:20.111Z</time></trkpt><trkpt lat="44.6366165" lon="7.9323921"><ele>493.0</ele><time>2026-04-11T06:31:22.111Z</time></trkpt><trkpt lat="44.636645" lon="7.9323028"><ele>492.2857142857143</ele><time>2026-04-11T06:31:24.111Z</time></trkpt><trkpt lat="44.6366732" lon="7.932223"><ele>491.57142857142856</ele><time>2026-04-11T06:31:26.111Z</time></trkpt><trkpt lat="44.6367019" lon="7.9321157"><ele>490.85714285714283</ele><time>2026-04-11T06:31:29.11Z</time></trkpt><trkpt lat="44.6367336" lon="7.9320353"><ele>490.1428571428571</ele><time>2026-04-11T06:31:32.111Z</time></trkpt><trkpt lat="44.6367627" lon="7.9319549"><ele>489.42857142857144</ele><time>2026-04-11T06:31:36.111Z</time></trkpt><trkpt lat="44.6367269" lon="7.9318695"><ele>488.71428571428567</ele><time>2026-04-11T06:31:40.11Z</time></trkpt><trkpt lat="44.636658" lon="7.9317968"><ele>487.99999999999994</ele><time>2026-04-11T06:31:43.11Z</time></trkpt><trkpt lat="44.6365929" lon="7.9317711"><ele>487.99999999999994</ele><time>2026-04-11T06:31:46.11Z</time></trkpt><trkpt lat="44.6365256" lon="7.9317466"><ele>488.0</ele><time>2026-04-11T06:31:49.111Z</time></trkpt><trkpt lat="44.6364581" lon="7.9317186"><ele>487.99999999999994</ele><time>2026-04-11T06:31:52.111Z</time></trkpt><trkpt lat="44.6363929" lon="7.9316868"><ele>487.99999999999994</ele><time>2026-04-11T06:31:55.11Z</time></trkpt><trkpt lat="44.6363081" lon="7.9316754"><ele>488.0</ele><time>2026-04-11T06:31:58.111Z</time></trkpt><trkpt lat="44.6362443" lon="7.9316646"><ele>487.99999999999994</ele><time>2026-04-11T06:32:00.111Z</time></trkpt><trkpt lat="44.6361776" lon="7.9316533"><ele>487.99999999999994</ele><time>2026-04-11T06:32:02.11Z</time></trkpt><trkpt lat="44.6361137" lon="7.9316363"><ele>485.49999999999994</ele><time>2026-04-11T06:32:04.11Z</time></trkpt><trkpt lat="44.6360258" lon="7.9316089"><ele>483.0</ele><time>2026-04-11T06:32:07.111Z</time></trkpt><trkpt lat="44.6359318" lon="7.9315898"><ele>480.5</ele><time>2026-04-11T06:32:10.111Z</time></trkpt><trkpt lat="44.6358597" lon="7.9315758"><ele>478.0</ele><time>2026-04-11T06:32:12.111Z</time></trkpt><trkpt lat="44.6357921" lon="7.9315604"><ele>475.49999999999994</ele><time>2026-04-11T06:32:14.111Z</time></trkpt><trkpt lat="44.6357212" lon="7.9315389"><ele>473.0</ele><time>2026-04-11T06:32:16.111Z</time></trkpt><trkpt lat="44.635652" lon="7.9315034"><ele>472.99999999999994</ele><time>2026-04-11T06:32:18.11Z</time></trkpt><trkpt lat="44.6355866" lon="7.9314635"><ele>473.0</ele><time>2026-04-11T06:32:20.11Z</time></trkpt><trkpt lat="44.6355266" lon="7.9314196"><ele>473.0</ele><time>2026-04-11T06:32:22.111Z</time></trkpt><trkpt lat="44.6354495" lon="7.9313716"><ele>473.0</ele><time>2026-04-11T06:32:25.111Z</time></trkpt><trkpt lat="44.6353788" lon="7.9313257"><ele>472.99999999999994</ele><time>2026-04-11T06:32:29.111Z</time></trkpt><trkpt lat="44.6353126" lon="7.9313699"><ele>473.0</ele><time>2026-04-11T06:32:33.111Z</time></trkpt><trkpt lat="44.6352526" lon="7.9314562"><ele>472.3333333333333</ele><time>2026-04-11T06:32:36.111Z</time></trkpt><trkpt lat="44.6351871" lon="7.9315429"><ele>471.66666666666663</ele><time>2026-04-11T06:32:39.111Z</time></trkpt><trkpt lat="44.6351346" lon="7.9316014"><ele>471.0</ele><time>2026-04-11T06:32:41.111Z</time></trkpt><trkpt lat="44.6350714" lon="7.9316539"><ele>470.33333333333337</ele><time>2026-04-11T06:32:43.111Z</time></trkpt><trkpt lat="44.6349937" lon="7.9317033"><ele>469.6666666666667</ele><time>2026-04-11T06:32:45.111Z</time></trkpt><trkpt lat="44.6349336" lon="7.9317576"><ele>469.0</ele><time>2026-04-11T06:32:47.11Z</time></trkpt><trkpt lat="44.6348696" lon="7.931809"><ele>467.6666666666667</ele><time>2026-04-11T06:32:49.111Z</time></trkpt><trkpt lat="44.6348061" lon="7.9318626"><ele>466.33333333333337</ele><time>2026-04-11T06:32:51.111Z</time></trkpt><trkpt lat="44.6347454" lon="7.9319199"><ele>465.0</ele><time>2026-04-11T06:32:53.11Z</time></trkpt><trkpt lat="44.6346816" lon="7.9319749"><ele>463.66666666666663</ele><time>2026-04-11T06:32:55.111Z</time></trkpt><trkpt lat="44.6346125" lon="7.9320376"><ele>462.3333333333333</ele><time>2026-04-11T06:32:57.111Z</time></trkpt><trkpt lat="44.6345381" lon="7.9321042"><ele>461.0</ele><time>2026-04-11T06:32:59.111Z</time></trkpt><trkpt lat="44.6344649" lon="7.9321719"><ele>459.99999999999994</ele><time>2026-04-11T06:33:01.111Z</time></trkpt><trkpt lat="44.6343986" lon="7.9322293"><ele>459.0</ele><time>2026-04-11T06:33:03.111Z</time></trkpt><trkpt lat="44.6343426" lon="7.9322784"><ele>458.0</ele><time>2026-04-11T06:33:05.111Z</time></trkpt><trkpt lat="44.6342876" lon="7.9323447"><ele>457.0</ele><time>2026-04-11T06:33:07.11Z</time></trkpt><trkpt lat="44.6342249" lon="7.932415"><ele>455.99999999999994</ele><time>2026-04-11T06:33:09.111Z</time></trkpt><trkpt lat="44.6341611" lon="7.9324845"><ele>455.0</ele><time>2026-04-11T06:33:11.111Z</time></trkpt><trkpt lat="44.6340992" lon="7.9325567"><ele>452.57142857142856</ele><time>2026-04-11T06:33:13.111Z</time></trkpt><trkpt lat="44.6340474" lon="7.9326222"><ele>450.1428571428571</ele><time>2026-04-11T06:33:15.111Z</time></trkpt><trkpt lat="44.6339986" lon="7.9326934"><ele>447.7142857142857</ele><time>2026-04-11T06:33:17.111Z</time></trkpt><trkpt lat="44.6339373" lon="7.932772"><ele>445.2857142857143</ele><time>2026-04-11T06:33:19.111Z</time></trkpt><trkpt lat="44.6338781" lon="7.9328438"><ele>442.85714285714283</ele><time>2026-04-11T06:33:21.11Z</time></trkpt><trkpt lat="44.6338275" lon="7.9329082"><ele>440.42857142857144</ele><time>2026-04-11T06:33:23.111Z</time></trkpt><trkpt lat="44.6337731" lon="7.9329692"><ele>438.0</ele><time>2026-04-11T06:33:25.111Z</time></trkpt><trkpt lat="44.6337146" lon="7.9330358"><ele>438.0</ele><time>2026-04-11T06:33:27.11Z</time></trkpt><trkpt lat="44.6336543" lon="7.9330973"><ele>438.0</ele><time>2026-04-11T06:33:29.111Z</time></trkpt><trkpt lat="44.633595" lon="7.933165"><ele>438.0</ele><time>2026-04-11T06:33:31.111Z</time></trkpt><trkpt lat="44.6335313" lon="7.9332376"><ele>438.0</ele><time>2026-04-11T06:33:33.11Z</time></trkpt><trkpt lat="44.6334702" lon="7.9332976"><ele>438.0</ele><time>2026-04-11T06:33:35.111Z</time></trkpt><trkpt lat="44.6334125" lon="7.9333521"><ele>438.0</ele><time>2026-04-11T06:33:37.11Z</time></trkpt><trkpt lat="44.6333639" lon="7.9334135"><ele>438.0</ele><time>2026-04-11T06:33:39.111Z</time></trkpt><trkpt lat="44.6332894" lon="7.933451"><ele>436.1666666666667</ele><time>2026-04-11T06:33:41.111Z</time></trkpt><trkpt lat="44.6332174" lon="7.9334928"><ele>434.33333333333337</ele><time>2026-04-11T06:33:43.111Z</time></trkpt><trkpt lat="44.6331367" lon="7.9335351"><ele>432.5</ele><time>2026-04-11T06:33:45.111Z</time></trkpt><trkpt lat="44.6330505" lon="7.9335659"><ele>430.6666666666667</ele><time>2026-04-11T06:33:47.111Z</time></trkpt><trkpt lat="44.6329558" lon="7.9335781"><ele>428.83333333333337</ele><time>2026-04-11T06:33:49.111Z</time></trkpt><trkpt lat="44.6328658" lon="7.9335861"><ele>427.0</ele><time>2026-04-11T06:33:51.11Z</time></trkpt><trkpt lat="44.6327793" lon="7.9335982"><ele>426.83333333333337</ele><time>2026-04-11T06:33:53.111Z</time></trkpt><trkpt lat="44.6326928" lon="7.9336082"><ele>426.6666666666667</ele><time>2026-04-11T06:33:55.111Z</time></trkpt><trkpt lat="44.6326149" lon="7.9336276"><ele>426.5</ele><time>2026-04-11T06:33:57.111Z</time></trkpt><trkpt lat="44.6325445" lon="7.9336714"><ele>426.33333333333337</ele><time>2026-04-11T06:33:59.111Z</time></trkpt><trkpt lat="44.6324897" lon="7.933732"><ele>426.1666666666667</ele><time>2026-04-11T06:34:01.11Z</time></trkpt><trkpt lat="44.6324294" lon="7.9337997"><ele>426.0</ele><time>2026-04-11T06:34:03.111Z</time></trkpt><trkpt lat="44.6323663" lon="7.9338824"><ele>426.0</ele><time>2026-04-11T06:34:05.111Z</time></trkpt><trkpt lat="44.632294" lon="7.9339543"><ele>426.0</ele><time>2026-04-11T06:34:07.111Z</time></trkpt><trkpt lat="44.6322184" lon="7.9340117"><ele>426.0</ele><time>2026-04-11T06:34:09.111Z</time></trkpt><trkpt lat="44.632137" lon="7.9340507"><ele>426.0</ele><time>2026-04-11T06:34:11.11Z</time></trkpt><trkpt lat="44.6320673" lon="7.9340837"><ele>426.0</ele><time>2026-04-11T06:34:13.111Z</time></trkpt><trkpt lat="44.6320081" lon="7.9341177"><ele>426.0</ele><time>2026-04-11T06:34:15.111Z</time></trkpt><trkpt lat="44.6319524" lon="7.9341664"><ele>423.8333333333333</ele><time>2026-04-11T06:34:17.111Z</time></trkpt><trkpt lat="44.6318991" lon="7.9342271"><ele>421.66666666666663</ele><time>2026-04-11T06:34:19.111Z</time></trkpt><trkpt lat="44.6318417" lon="7.9342934"><ele>419.5</ele><time>2026-04-11T06:34:21.111Z</time></trkpt><trkpt lat="44.6317864" lon="7.9343714"><ele>417.3333333333333</ele><time>2026-04-11T06:34:23.11Z</time></trkpt><trkpt lat="44.631734" lon="7.9344448"><ele>415.16666666666663</ele><time>2026-04-11T06:34:25.111Z</time></trkpt><trkpt lat="44.6316808" lon="7.9345245"><ele>413.0</ele><time>2026-04-11T06:34:27.111Z</time></trkpt><trkpt lat="44.6316132" lon="7.934611"><ele>412.99999999999994</ele><time>2026-04-11T06:34:29.111Z</time></trkpt><trkpt lat="44.6315309" lon="7.9347147"><ele>413.0</ele><time>2026-04-11T06:34:31.11Z</time></trkpt><trkpt lat="44.6314776" lon="7.9347678"><ele>413.0</ele><time>2026-04-11T06:34:32.11Z</time></trkpt><trkpt lat="44.6314186" lon="7.9348183"><ele>413.0</ele><time>2026-04-11T06:34:33.111Z</time></trkpt><trkpt lat="44.6313587" lon="7.9348697"><ele>412.99999999999994</ele><time>2026-04-11T06:34:34.111Z</time></trkpt><trkpt lat="44.6313" lon="7.9349252"><ele>413.0</ele><time>2026-04-11T06:34:35.111Z</time></trkpt><trkpt lat="44.631246" lon="7.9349785"><ele>411.79999999999995</ele><time>2026-04-11T06:34:36.11Z</time></trkpt><trkpt lat="44.6311477" lon="7.9350838"><ele>410.6</ele><time>2026-04-11T06:34:38.11Z</time></trkpt><trkpt lat="44.6310569" lon="7.9351848"><ele>409.4</ele><time>2026-04-11T06:34:40.111Z</time></trkpt><trkpt lat="44.6309705" lon="7.9352745"><ele>408.20000000000005</ele><time>2026-04-11T06:34:42.111Z</time></trkpt><trkpt lat="44.6308853" lon="7.9353518"><ele>407.0</ele><time>2026-04-11T06:34:44.11Z</time></trkpt><trkpt lat="44.630804" lon="7.9354248"><ele>406.99999999999994</ele><time>2026-04-11T06:34:46.11Z</time></trkpt><trkpt lat="44.6307359" lon="7.9354928"><ele>407.0</ele><time>2026-04-11T06:34:48.11Z</time></trkpt><trkpt lat="44.630669" lon="7.9355591"><ele>407.0</ele><time>2026-04-11T06:34:50.11Z</time></trkpt><trkpt lat="44.6305934" lon="7.9356192"><ele>407.0</ele><time>2026-04-11T06:34:52.11Z</time></trkpt><trkpt lat="44.6305075" lon="7.9356744"><ele>406.99999999999994</ele><time>2026-04-11T06:34:54.111Z</time></trkpt><trkpt lat="44.6304312" lon="7.9357169"><ele>407.0</ele><time>2026-04-11T06:34:56.111Z</time></trkpt><trkpt lat="44.6303583" lon="7.9357634"><ele>408.16666666666663</ele><time>2026-04-11T06:34:58.111Z</time></trkpt><trkpt lat="44.6302864" lon="7.9358316"><ele>409.3333333333333</ele><time>2026-04-11T06:35:00.111Z</time></trkpt><trkpt lat="44.6302145" lon="7.9359074"><ele>410.5</ele><time>2026-04-11T06:35:02.111Z</time></trkpt><trkpt lat="44.6301443" lon="7.9359844"><ele>411.66666666666663</ele><time>2026-04-11T06:35:04.111Z</time></trkpt><trkpt lat="44.6300709" lon="7.9360604"><ele>412.8333333333333</ele><time>2026-04-11T06:35:06.111Z</time></trkpt><trkpt lat="44.6299929" lon="7.9361207"><ele>414.0</ele><time>2026-04-11T06:35:08.11Z</time></trkpt><trkpt lat="44.6299218" lon="7.9361852"><ele>411.3333333333333</ele><time>2026-04-11T06:35:10.11Z</time></trkpt><trkpt lat="44.6298586" lon="7.9362369"><ele>408.66666666666663</ele><time>2026-04-11T06:35:12.11Z</time></trkpt><trkpt lat="44.6297796" lon="7.9362941"><ele>406.0</ele><time>2026-04-11T06:35:15.111Z</time></trkpt><trkpt lat="44.6297081" lon="7.9363462"><ele>403.3333333333333</ele><time>2026-04-11T06:35:18.111Z</time></trkpt><trkpt lat="44.6296388" lon="7.9363833"><ele>400.66666666666663</ele><time>2026-04-11T06:35:21.111Z</time></trkpt><trkpt lat="44.6295726" lon="7.936433"><ele>398.0</ele><time>2026-04-11T06:35:24.11Z</time></trkpt><trkpt lat="44.6294901" lon="7.9364634"><ele>399.3333333333333</ele><time>2026-04-11T06:35:27.111Z</time></trkpt><trkpt lat="44.629421" lon="7.9364866"><ele>400.66666666666663</ele><time>2026-04-11T06:35:30.111Z</time></trkpt><trkpt lat="44.6293494" lon="7.9365199"><ele>402.0</ele><time>2026-04-11T06:35:33.111Z</time></trkpt><trkpt lat="44.6292747" lon="7.9365593"><ele>403.33333333333337</ele><time>2026-04-11T06:35:36.11Z</time></trkpt><trkpt lat="44.629199" lon="7.9365952"><ele>404.6666666666667</ele><time>2026-04-11T06:35:39.111Z</time></trkpt><trkpt lat="44.6291278" lon="7.9366372"><ele>406.0</ele><time>2026-04-11T06:35:42.111Z</time></trkpt><trkpt lat="44.6290576" lon="7.936679"><ele>404.42857142857144</ele><time>2026-04-11T06:35:45.111Z</time></trkpt><trkpt lat="44.628993" lon="7.936743"><ele>402.8571428571429</ele><time>2026-04-11T06:35:48.11Z</time></trkpt><trkpt lat="44.6289117" lon="7.9367757"><ele>401.2857142857143</ele><time>2026-04-11T06:35:51.11Z</time></trkpt><trkpt lat="44.6288442" lon="7.936795"><ele>399.7142857142857</ele><time>2026-04-11T06:35:54.11Z</time></trkpt><trkpt lat="44.6287758" lon="7.9368439"><ele>398.14285714285717</ele><time>2026-04-11T06:36:22.111Z</time></trkpt><trkpt lat="44.628712" lon="7.9368903"><ele>396.57142857142856</ele><time>2026-04-11T06:36:25.111Z</time></trkpt><trkpt lat="44.6286548" lon="7.9369283"><ele>395.0</ele><time>2026-04-11T06:36:28.111Z</time></trkpt><trkpt lat="44.6286034" lon="7.9370023"><ele>394.99999999999994</ele><time>2026-04-11T06:36:31.11Z</time></trkpt><trkpt lat="44.628563" lon="7.9371165"><ele>395.0</ele><time>2026-04-11T06:36:34.11Z</time></trkpt><trkpt lat="44.6285545" lon="7.9372265"><ele>395.0</ele><time>2026-04-11T06:36:37.111Z</time></trkpt><trkpt lat="44.6285638" lon="7.9373277"><ele>395.0</ele><time>2026-04-11T06:36:40.111Z</time></trkpt><trkpt lat="44.6285879" lon="7.9374214"><ele>394.99999999999994</ele><time>2026-04-11T06:36:44.111Z</time></trkpt><trkpt lat="44.6286146" lon="7.9375135"><ele>395.0</ele><time>2026-04-11T06:36:47.11Z</time></trkpt><trkpt lat="44.6286331" lon="7.9376035"><ele>393.16666666666663</ele><time>2026-04-11T06:36:49.111Z</time></trkpt><trkpt lat="44.6286343" lon="7.9377074"><ele>391.3333333333333</ele><time>2026-04-11T06:36:51.111Z</time></trkpt><trkpt lat="44.6286277" lon="7.9378115"><ele>389.5</ele><time>2026-04-11T06:36:53.111Z</time></trkpt><trkpt lat="44.6286198" lon="7.9379142"><ele>387.66666666666663</ele><time>2026-04-11T06:36:55.11Z</time></trkpt><trkpt lat="44.6286131" lon="7.9380262"><ele>385.8333333333333</ele><time>2026-04-11T06:36:57.111Z</time></trkpt><trkpt lat="44.6286089" lon="7.9381382"><ele>384.0</ele><time>2026-04-11T06:36:59.11Z</time></trkpt><trkpt lat="44.628601" lon="7.938242"><ele>384.0</ele><time>2026-04-11T06:37:01.11Z</time></trkpt><trkpt lat="44.6285885" lon="7.9383719"><ele>384.0</ele><time>2026-04-11T06:37:04.111Z</time></trkpt><trkpt lat="44.6285692" lon="7.9384721"><ele>384.0</ele><time>2026-04-11T06:37:06.111Z</time></trkpt><trkpt lat="44.6285341" lon="7.9385771"><ele>384.0</ele><time>2026-04-11T06:37:08.111Z</time></trkpt><trkpt lat="44.6284926" lon="7.9386706"><ele>384.0</ele><time>2026-04-11T06:37:10.111Z</time></trkpt><trkpt lat="44.6284465" lon="7.9387528"><ele>384.0</ele><time>2026-04-11T06:37:12.111Z</time></trkpt><trkpt lat="44.6284049" lon="7.9388588"><ele>381.0</ele><time>2026-04-11T06:37:14.11Z</time></trkpt><trkpt lat="44.6283981" lon="7.9389817"><ele>378.0</ele><time>2026-04-11T06:37:16.111Z</time></trkpt><trkpt lat="44.6284221" lon="7.9391125"><ele>375.0</ele><time>2026-04-11T06:37:18.111Z</time></trkpt><trkpt lat="44.6284353" lon="7.9392919"><ele>372.0</ele><time>2026-04-11T06:37:20.111Z</time></trkpt><trkpt lat="44.6284369" lon="7.9394021"><ele>369.0</ele><time>2026-04-11T06:37:21.111Z</time></trkpt><trkpt lat="44.6284337" lon="7.9395284"><ele>367.0</ele><time>2026-04-11T06:37:22.111Z</time></trkpt><trkpt lat="44.6284271" lon="7.9396655"><ele>365.0</ele><time>2026-04-11T06:37:23.111Z</time></trkpt><trkpt lat="44.6284204" lon="7.9398081"><ele>363.0</ele><time>2026-04-11T06:37:24.111Z</time></trkpt><trkpt lat="44.6284151" lon="7.939962"><ele>361.0</ele><time>2026-04-11T06:37:25.111Z</time></trkpt><trkpt lat="44.6284059" lon="7.9401103"><ele>359.0</ele><time>2026-04-11T06:37:26.11Z</time></trkpt><trkpt lat="44.6283975" lon="7.9402471"><ele>357.83333333333337</ele><time>2026-04-11T06:37:27.111Z</time></trkpt><trkpt lat="44.6283884" lon="7.9403711"><ele>356.6666666666667</ele><time>2026-04-11T06:37:28.11Z</time></trkpt><trkpt lat="44.6283837" lon="7.9404857"><ele>355.5</ele><time>2026-04-11T06:37:29.111Z</time></trkpt><trkpt lat="44.6283779" lon="7.9405922"><ele>354.3333333333333</ele><time>2026-04-11T06:37:30.111Z</time></trkpt><trkpt lat="44.6283714" lon="7.940686"><ele>353.16666666666663</ele><time>2026-04-11T06:37:31.11Z</time></trkpt><trkpt lat="44.6283636" lon="7.9408413"><ele>352.0</ele><time>2026-04-11T06:37:33.111Z</time></trkpt><trkpt lat="44.6283596" lon="7.940964"><ele>350.8571428571429</ele><time>2026-04-11T06:37:35.11Z</time></trkpt><trkpt lat="44.6283529" lon="7.9410592"><ele>349.7142857142857</ele><time>2026-04-11T06:37:37.111Z</time></trkpt><trkpt lat="44.6283465" lon="7.9411847"><ele>348.57142857142856</ele><time>2026-04-11T06:37:40.111Z</time></trkpt><trkpt lat="44.6283581" lon="7.9412754"><ele>347.42857142857144</ele><time>2026-04-11T06:40:09.11Z</time></trkpt><trkpt lat="44.6283877" lon="7.9413651"><ele>346.2857142857143</ele><time>2026-04-11T06:40:14.11Z</time></trkpt><trkpt lat="44.6284145" lon="7.9414619"><ele>345.14285714285717</ele><time>2026-04-11T06:40:19.111Z</time></trkpt><trkpt lat="44.6284535" lon="7.9415417"><ele>344.0</ele><time>2026-04-11T06:40:23.11Z</time></trkpt><trkpt lat="44.6285005" lon="7.9416209"><ele>343.28571428571433</ele><time>2026-04-11T06:40:27.111Z</time></trkpt><trkpt lat="44.6285201" lon="7.9417212"><ele>342.57142857142856</ele><time>2026-04-11T06:40:32.111Z</time></trkpt><trkpt lat="44.6285309" lon="7.94181"><ele>341.8571428571429</ele><time>2026-04-11T06:40:36.11Z</time></trkpt><trkpt lat="44.6285426" lon="7.9419093"><ele>341.14285714285717</ele><time>2026-04-11T06:40:39.11Z</time></trkpt><trkpt lat="44.628555" lon="7.942012"><ele>340.42857142857144</ele><time>2026-04-11T06:40:53.11Z</time></trkpt><trkpt lat="44.6285527" lon="7.9421268"><ele>339.7142857142857</ele><time>2026-04-11T06:40:57.111Z</time></trkpt><trkpt lat="44.6285463" lon="7.9422265"><ele>339.0</ele><time>2026-04-11T06:41:00.11Z</time></trkpt><trkpt lat="44.6285487" lon="7.9423177"><ele>339.0</ele><time>2026-04-11T06:41:03.111Z</time></trkpt><trkpt lat="44.6285472" lon="7.9424548"><ele>339.0</ele><time>2026-04-11T06:41:06.111Z</time></trkpt><trkpt lat="44.6285644" lon="7.9425863"><ele>339.0</ele><time>2026-04-11T06:41:08.111Z</time></trkpt><trkpt lat="44.6285812" lon="7.9427368"><ele>339.0</ele><time>2026-04-11T06:41:10.111Z</time></trkpt><trkpt lat="44.6285964" lon="7.9428654"><ele>339.0</ele><time>2026-04-11T06:41:12.11Z</time></trkpt><trkpt lat="44.6285747" lon="7.9429873"><ele>337.0</ele><time>2026-04-11T06:41:14.11Z</time></trkpt><trkpt lat="44.6285114" lon="7.9430691"><ele>335.0</ele><time>2026-04-11T06:41:16.111Z</time></trkpt><trkpt lat="44.6284237" lon="7.9430709"><ele>333.0</ele><time>2026-04-11T06:41:18.111Z</time></trkpt><trkpt lat="44.6283463" lon="7.9430522"><ele>331.0</ele><time>2026-04-11T06:41:20.111Z</time></trkpt><trkpt lat="44.6282802" lon="7.943068"><ele>329.0</ele><time>2026-04-11T06:41:22.111Z</time></trkpt><trkpt lat="44.6282285" lon="7.9431539"><ele>327.0</ele><time>2026-04-11T06:41:24.111Z</time></trkpt><trkpt lat="44.6282101" lon="7.9432827"><ele>325.6666666666667</ele><time>2026-04-11T06:41:26.11Z</time></trkpt><trkpt lat="44.6282017" lon="7.9434091"><ele>324.3333333333333</ele><time>2026-04-11T06:41:28.11Z</time></trkpt><trkpt lat="44.6281882" lon="7.9435278"><ele>323.0</ele><time>2026-04-11T06:41:30.11Z</time></trkpt><trkpt lat="44.6281809" lon="7.9436653"><ele>321.66666666666663</ele><time>2026-04-11T06:41:32.11Z</time></trkpt><trkpt lat="44.6281695" lon="7.9437781"><ele>320.3333333333333</ele><time>2026-04-11T06:41:34.111Z</time></trkpt><trkpt lat="44.6281519" lon="7.9438815"><ele>319.0</ele><time>2026-04-11T06:41:36.111Z</time></trkpt><trkpt lat="44.6281319" lon="7.9439937"><ele>319.0</ele><time>2026-04-11T06:41:38.111Z</time></trkpt><trkpt lat="44.6281112" lon="7.9441191"><ele>319.0</ele><time>2026-04-11T06:41:40.11Z</time></trkpt><trkpt lat="44.6280972" lon="7.944244"><ele>319.0</ele><time>2026-04-11T06:41:42.111Z</time></trkpt><trkpt lat="44.6280924" lon="7.9443374"><ele>319.0</ele><time>2026-04-11T06:41:44.111Z</time></trkpt><trkpt lat="44.628095" lon="7.9444348"><ele>319.0</ele><time>2026-04-11T06:41:47.11Z</time></trkpt><trkpt lat="44.6280878" lon="7.9445593"><ele>319.0</ele><time>2026-04-11T06:41:50.111Z</time></trkpt><trkpt lat="44.6280877" lon="7.9446502"><ele>319.0</ele><time>2026-04-11T06:41:52.111Z</time></trkpt><trkpt lat="44.628088" lon="7.9447413"><ele>319.0</ele><time>2026-04-11T06:41:54.11Z</time></trkpt><trkpt lat="44.6280846" lon="7.9448512"><ele>319.0</ele><time>2026-04-11T06:41:57.11Z</time></trkpt><trkpt lat="44.6280833" lon="7.9449482"><ele>319.0</ele><time>2026-04-11T06:42:00.111Z</time></trkpt><trkpt lat="44.6280996" lon="7.9450429"><ele>319.0</ele><time>2026-04-11T06:42:05.111Z</time></trkpt><trkpt lat="44.6281079" lon="7.9451377"><ele>319.0</ele><time>2026-04-11T06:42:09.111Z</time></trkpt><trkpt lat="44.6281223" lon="7.945266"><ele>319.0</ele><time>2026-04-11T06:42:12.11Z</time></trkpt><trkpt lat="44.6281258" lon="7.9453736"><ele>318.5714285714286</ele><time>2026-04-11T06:42:14.111Z</time></trkpt><trkpt lat="44.6281242" lon="7.9454686"><ele>318.1428571428571</ele><time>2026-04-11T06:42:16.111Z</time></trkpt><trkpt lat="44.6281273" lon="7.9455605"><ele>317.7142857142857</ele><time>2026-04-11T06:42:18.111Z</time></trkpt><trkpt lat="44.6281367" lon="7.945669"><ele>317.28571428571433</ele><time>2026-04-11T06:42:20.111Z</time></trkpt><trkpt lat="44.6281574" lon="7.9457767"><ele>316.8571428571429</ele><time>2026-04-11T06:42:22.11Z</time></trkpt><trkpt lat="44.6281782" lon="7.9458774"><ele>316.42857142857144</ele><time>2026-04-11T06:42:24.111Z</time></trkpt><trkpt lat="44.6281931" lon="7.945979"><ele>316.0</ele><time>2026-04-11T06:42:26.111Z</time></trkpt><trkpt lat="44.6282096" lon="7.9460824"><ele>315.0</ele><time>2026-04-11T06:42:28.11Z</time></trkpt><trkpt lat="44.6282281" lon="7.946182"><ele>314.0</ele><time>2026-04-11T06:42:30.11Z</time></trkpt><trkpt lat="44.6282491" lon="7.9462928"><ele>313.0</ele><time>2026-04-11T06:42:32.111Z</time></trkpt><trkpt lat="44.6282785" lon="7.9464017"><ele>312.0</ele><time>2026-04-11T06:42:34.111Z</time></trkpt><trkpt lat="44.628304" lon="7.9465096"><ele>311.0</ele><time>2026-04-11T06:42:36.111Z</time></trkpt><trkpt lat="44.6283244" lon="7.9466174"><ele>310.0</ele><time>2026-04-11T06:42:38.111Z</time></trkpt><trkpt lat="44.6283426" lon="7.9467085"><ele>308.16666666666663</ele><time>2026-04-11T06:42:40.111Z</time></trkpt><trkpt lat="44.6283722" lon="7.9468058"><ele>306.3333333333333</ele><time>2026-04-11T06:42:44.111Z</time></trkpt><trkpt lat="44.6283635" lon="7.9468941"><ele>304.5</ele><time>2026-04-11T06:43:01.11Z</time></trkpt><trkpt lat="44.6283046" lon="7.9469647"><ele>302.6666666666667</ele><time>2026-04-11T06:43:03.11Z</time></trkpt><trkpt lat="44.6282348" lon="7.9470397"><ele>300.83333333333337</ele><time>2026-04-11T06:43:05.111Z</time></trkpt><trkpt lat="44.6281779" lon="7.9471248"><ele>299.0</ele><time>2026-04-11T06:43:07.11Z</time></trkpt><trkpt lat="44.6281128" lon="7.9472133"><ele>299.0</ele><time>2026-04-11T06:43:09.111Z</time></trkpt><trkpt lat="44.6280401" lon="7.9472992"><ele>299.0</ele><time>2026-04-11T06:43:11.11Z</time></trkpt><trkpt lat="44.6279674" lon="7.9473826"><ele>299.0</ele><time>2026-04-11T06:43:13.111Z</time></trkpt><trkpt lat="44.6278905" lon="7.9474531"><ele>299.0</ele><time>2026-04-11T06:43:15.11Z</time></trkpt><trkpt lat="44.6278154" lon="7.9475107"><ele>299.0</ele><time>2026-04-11T06:43:17.111Z</time></trkpt><trkpt lat="44.6277288" lon="7.9475908"><ele>296.2</ele><time>2026-04-11T06:43:19.111Z</time></trkpt><trkpt lat="44.627645" lon="7.9476822"><ele>293.4</ele><time>2026-04-11T06:43:21.111Z</time></trkpt><trkpt lat="44.6275738" lon="7.947788"><ele>290.6</ele><time>2026-04-11T06:43:23.11Z</time></trkpt><trkpt lat="44.6275069" lon="7.9479126"><ele>287.8</ele><time>2026-04-11T06:43:25.11Z</time></trkpt><trkpt lat="44.6274668" lon="7.9479934"><ele>285.0</ele><time>2026-04-11T06:43:26.111Z</time></trkpt><trkpt lat="44.6274246" lon="7.9480832"><ele>285.0</ele><time>2026-04-11T06:43:27.11Z</time></trkpt><trkpt lat="44.6273899" lon="7.9481678"><ele>285.0</ele><time>2026-04-11T06:43:28.111Z</time></trkpt><trkpt lat="44.6273577" lon="7.9482498"><ele>285.0</ele><time>2026-04-11T06:43:29.11Z</time></trkpt><trkpt lat="44.6273257" lon="7.9483312"><ele>285.0</ele><time>2026-04-11T06:43:30.11Z</time></trkpt><trkpt lat="44.6272686" lon="7.9484719"><ele>285.0</ele><time>2026-04-11T06:43:32.111Z</time></trkpt><trkpt lat="44.6272213" lon="7.9485882"><ele>285.0</ele><time>2026-04-11T06:43:34.111Z</time></trkpt><trkpt lat="44.6271771" lon="7.9487082"><ele>282.6666666666667</ele><time>2026-04-11T06:43:36.11Z</time></trkpt><trkpt lat="44.6271351" lon="7.9488661"><ele>280.3333333333333</ele><time>2026-04-11T06:43:38.111Z</time></trkpt><trkpt lat="44.6271126" lon="7.9489562"><ele>278.0</ele><time>2026-04-11T06:43:39.11Z</time></trkpt><trkpt lat="44.6270919" lon="7.9490512"><ele>275.66666666666663</ele><time>2026-04-11T06:43:40.111Z</time></trkpt><trkpt lat="44.6270689" lon="7.9491465"><ele>273.3333333333333</ele><time>2026-04-11T06:43:41.111Z</time></trkpt><trkpt lat="44.6270489" lon="7.9492391"><ele>271.0</ele><time>2026-04-11T06:43:42.111Z</time></trkpt><trkpt lat="44.627029" lon="7.949341"><ele>268.8333333333333</ele><time>2026-04-11T06:43:43.111Z</time></trkpt><trkpt lat="44.6270132" lon="7.949428"><ele>266.66666666666663</ele><time>2026-04-11T06:43:44.111Z</time></trkpt><trkpt lat="44.6269904" lon="7.9495215"><ele>264.5</ele><time>2026-04-11T06:43:45.11Z</time></trkpt><trkpt lat="44.626969" lon="7.9496207"><ele>262.3333333333333</ele><time>2026-04-11T06:43:46.111Z</time></trkpt><trkpt lat="44.626948" lon="7.9497235"><ele>260.1666666666667</ele><time>2026-04-11T06:43:47.111Z</time></trkpt><trkpt lat="44.6269318" lon="7.9498185"><ele>258.0</ele><time>2026-04-11T06:43:48.11Z</time></trkpt><trkpt lat="44.626897" lon="7.9499814"><ele>256.2</ele><time>2026-04-11T06:43:50.111Z</time></trkpt><trkpt lat="44.6268696" lon="7.9501248"><ele>254.4</ele><time>2026-04-11T06:43:52.11Z</time></trkpt><trkpt lat="44.6268465" lon="7.950252"><ele>252.59999999999997</ele><time>2026-04-11T06:43:54.11Z</time></trkpt><trkpt lat="44.6268283" lon="7.9503748"><ele>250.79999999999998</ele><time>2026-04-11T06:43:56.111Z</time></trkpt><trkpt lat="44.6268089" lon="7.9505043"><ele>249.0</ele><time>2026-04-11T06:43:58.11Z</time></trkpt><trkpt lat="44.6267951" lon="7.9506307"><ele>249.0</ele><time>2026-04-11T06:44:00.111Z</time></trkpt><trkpt lat="44.6267811" lon="7.9507561"><ele>249.0</ele><time>2026-04-11T06:44:02.11Z</time></trkpt><trkpt lat="44.6267769" lon="7.9508517"><ele>249.0</ele><time>2026-04-11T06:44:04.111Z</time></trkpt><trkpt lat="44.6267971" lon="7.9509416"><ele>249.0</ele><time>2026-04-11T06:45:51.11Z</time></trkpt><trkpt lat="44.6268538" lon="7.95101"><ele>249.0</ele><time>2026-04-11T06:45:55.111Z</time></trkpt><trkpt lat="44.6269362" lon="7.951036"><ele>249.0</ele><time>2026-04-11T06:45:58.111Z</time></trkpt><trkpt lat="44.6270032" lon="7.9510462"><ele>245.66666666666666</ele><time>2026-04-11T06:46:00.111Z</time></trkpt><trkpt lat="44.6270684" lon="7.9510589"><ele>242.33333333333331</ele><time>2026-04-11T06:46:02.111Z</time></trkpt><trkpt lat="44.6271595" lon="7.9510766"><ele>239.0</ele><time>2026-04-11T06:46:05.11Z</time></trkpt><trkpt lat="44.6272306" lon="7.9511557"><ele>235.66666666666666</ele><time>2026-04-11T06:46:08.111Z</time></trkpt><trkpt lat="44.6272697" lon="7.9512663"><ele>232.33333333333331</ele><time>2026-04-11T06:46:11.111Z</time></trkpt><trkpt lat="44.6272416" lon="7.9513555"><ele>229.0</ele><time>2026-04-11T06:46:14.111Z</time></trkpt><trkpt lat="44.6271966" lon="7.9514333"><ele>228.99999999999997</ele><time>2026-04-11T06:46:17.11Z</time></trkpt><trkpt lat="44.6271447" lon="7.951516"><ele>229.0</ele><time>2026-04-11T06:46:20.111Z</time></trkpt><trkpt lat="44.6271009" lon="7.9515914"><ele>229.0</ele><time>2026-04-11T06:46:22.111Z</time></trkpt><trkpt lat="44.6270333" lon="7.9517068"><ele>229.0</ele><time>2026-04-11T06:46:24.11Z</time></trkpt><trkpt lat="44.626953" lon="7.9518396"><ele>228.99999999999997</ele><time>2026-04-11T06:46:26.11Z</time></trkpt><trkpt lat="44.6269114" lon="7.9519098"><ele>229.0</ele><time>2026-04-11T06:46:27.11Z</time></trkpt><trkpt lat="44.6268702" lon="7.9519824"><ele>227.99999999999997</ele><time>2026-04-11T06:46:28.11Z</time></trkpt><trkpt lat="44.626828" lon="7.9520569"><ele>227.0</ele><time>2026-04-11T06:46:29.11Z</time></trkpt><trkpt lat="44.6267872" lon="7.9521325"><ele>226.0</ele><time>2026-04-11T06:46:30.111Z</time></trkpt><trkpt lat="44.6267452" lon="7.9522028"><ele>225.0</ele><time>2026-04-11T06:46:31.111Z</time></trkpt><trkpt lat="44.6266783" lon="7.9523205"><ele>223.99999999999997</ele><time>2026-04-11T06:46:33.11Z</time></trkpt><trkpt lat="44.6266283" lon="7.9524046"><ele>223.0</ele><time>2026-04-11T06:46:35.11Z</time></trkpt><trkpt lat="44.6265722" lon="7.95251"><ele>222.83333333333331</ele><time>2026-04-11T06:46:38.111Z</time></trkpt><trkpt lat="44.626546" lon="7.9526222"><ele>222.66666666666666</ele><time>2026-04-11T06:46:41.11Z</time></trkpt><trkpt lat="44.6265338" lon="7.9527134"><ele>222.5</ele><time>2026-04-11T06:46:46.11Z</time></trkpt><trkpt lat="44.6265351" lon="7.9528235"><ele>222.33333333333331</ele><time>2026-04-11T06:47:44.111Z</time></trkpt><trkpt lat="44.6265533" lon="7.9529342"><ele>222.16666666666666</ele><time>2026-04-11T06:47:48.11Z</time></trkpt><trkpt lat="44.6265871" lon="7.9530319"><ele>222.0</ele><time>2026-04-11T06:47:52.111Z</time></trkpt><trkpt lat="44.6266139" lon="7.953119"><ele>222.0</ele><time>2026-04-11T06:47:56.11Z</time></trkpt><trkpt lat="44.6266639" lon="7.9532074"><ele>222.0</ele><time>2026-04-11T06:48:01.111Z</time></trkpt><trkpt lat="44.6266965" lon="7.9533095"><ele>222.0</ele><time>2026-04-11T06:48:05.11Z</time></trkpt><trkpt lat="44.6267382" lon="7.9533954"><ele>222.0</ele><time>2026-04-11T06:48:08.11Z</time></trkpt><trkpt lat="44.626789" lon="7.9534948"><ele>222.0</ele><time>2026-04-11T06:48:11.111Z</time></trkpt><trkpt lat="44.626832" lon="7.9535685"><ele>222.0</ele><time>2026-04-11T06:48:13.11Z</time></trkpt><trkpt lat="44.6268759" lon="7.9536487"><ele>222.0</ele><time>2026-04-11T06:48:15.111Z</time></trkpt><trkpt lat="44.6269213" lon="7.9537333"><ele>222.0</ele><time>2026-04-11T06:48:17.111Z</time></trkpt><trkpt lat="44.6269682" lon="7.953815"><ele>222.0</ele><time>2026-04-11T06:48:19.11Z</time></trkpt><trkpt lat="44.6270083" lon="7.9538994"><ele>222.0</ele><time>2026-04-11T06:48:21.111Z</time></trkpt><trkpt lat="44.6270497" lon="7.9539831"><ele>222.0</ele><time>2026-04-11T06:48:23.111Z</time></trkpt><trkpt lat="44.6270971" lon="7.9540597"><ele>222.0</ele><time>2026-04-11T06:48:25.11Z</time></trkpt><trkpt lat="44.6271393" lon="7.9541426"><ele>222.0</ele><time>2026-04-11T06:48:27.111Z</time></trkpt><trkpt lat="44.6271826" lon="7.9542272"><ele>221.7142857142857</ele><time>2026-04-11T06:48:29.11Z</time></trkpt><trkpt lat="44.627227" lon="7.9543125"><ele>221.42857142857144</ele><time>2026-04-11T06:48:31.11Z</time></trkpt><trkpt lat="44.62727" lon="7.9543959"><ele>221.14285714285714</ele><time>2026-04-11T06:48:33.111Z</time></trkpt><trkpt lat="44.6273139" lon="7.9544773"><ele>220.85714285714283</ele><time>2026-04-11T06:48:35.11Z</time></trkpt><trkpt lat="44.6273574" lon="7.9545512"><ele>220.57142857142856</ele><time>2026-04-11T06:48:37.111Z</time></trkpt><trkpt lat="44.6274002" lon="7.9546206"><ele>220.28571428571428</ele><time>2026-04-11T06:48:39.111Z</time></trkpt><trkpt lat="44.6274438" lon="7.954688"><ele>220.0</ele><time>2026-04-11T06:48:41.111Z</time></trkpt><trkpt lat="44.6275032" lon="7.954778"><ele>219.99999999999997</ele><time>2026-04-11T06:48:44.11Z</time></trkpt><trkpt lat="44.6275536" lon="7.9548394"><ele>220.0</ele><time>2026-04-11T06:48:47.111Z</time></trkpt><trkpt lat="44.6276103" lon="7.9548919"><ele>220.0</ele><time>2026-04-11T06:48:50.11Z</time></trkpt><trkpt lat="44.6276679" lon="7.9549772"><ele>220.0</ele><time>2026-04-11T06:48:53.111Z</time></trkpt><trkpt lat="44.6277264" lon="7.9550582"><ele>219.99999999999997</ele><time>2026-04-11T06:48:56.11Z</time></trkpt><trkpt lat="44.6277761" lon="7.9551309"><ele>220.0</ele><time>2026-04-11T06:48:59.111Z</time></trkpt><trkpt lat="44.627836" lon="7.9551997"><ele>219.57142857142856</ele><time>2026-04-11T06:49:02.11Z</time></trkpt><trkpt lat="44.6278821" lon="7.9552681"><ele>219.14285714285714</ele><time>2026-04-11T06:49:05.111Z</time></trkpt><trkpt lat="44.6279293" lon="7.9553464"><ele>218.71428571428572</ele><time>2026-04-11T06:49:10.111Z</time></trkpt><trkpt lat="44.6279889" lon="7.9553134"><ele>218.28571428571428</ele><time>2026-04-11T06:49:14.111Z</time></trkpt><trkpt lat="44.6280139" lon="7.9552122"><ele>217.85714285714286</ele><time>2026-04-11T06:49:21.111Z</time></trkpt><trkpt lat="44.6280597" lon="7.9551159"><ele>217.42857142857142</ele><time>2026-04-11T06:49:25.111Z</time></trkpt><trkpt lat="44.6280999" lon="7.955041"><ele>217.0</ele><time>2026-04-11T06:49:28.111Z</time></trkpt><trkpt lat="44.6281398" lon="7.9549476"><ele>216.99999999999997</ele><time>2026-04-11T06:49:31.111Z</time></trkpt><trkpt lat="44.6281893" lon="7.9548773"><ele>217.0</ele><time>2026-04-11T06:49:34.111Z</time></trkpt><trkpt lat="44.6282375" lon="7.9547972"><ele>217.0</ele><time>2026-04-11T06:49:37.111Z</time></trkpt><trkpt lat="44.6282873" lon="7.9547182"><ele>217.0</ele><time>2026-04-11T06:49:40.111Z</time></trkpt><trkpt lat="44.6283352" lon="7.9546349"><ele>216.99999999999997</ele><time>2026-04-11T06:49:43.111Z</time></trkpt><trkpt lat="44.6283901" lon="7.9545597"><ele>217.0</ele><time>2026-04-11T06:49:46.11Z</time></trkpt><trkpt lat="44.6284485" lon="7.9544816"><ele>216.99999999999997</ele><time>2026-04-11T06:49:49.111Z</time></trkpt><trkpt lat="44.6285143" lon="7.9544075"><ele>217.0</ele><time>2026-04-11T06:49:52.111Z</time></trkpt><trkpt lat="44.6285846" lon="7.9543457"><ele>217.0</ele><time>2026-04-11T06:49:55.111Z</time></trkpt><trkpt lat="44.6286555" lon="7.9542874"><ele>217.0</ele><time>2026-04-11T06:49:58.11Z</time></trkpt><trkpt lat="44.6287227" lon="7.9542286"><ele>216.99999999999997</ele><time>2026-04-11T06:50:01.11Z</time></trkpt><trkpt lat="44.6287889" lon="7.9541716"><ele>217.0</ele><time>2026-04-11T06:50:04.111Z</time></trkpt><trkpt lat="44.6288563" lon="7.9541194"><ele>217.85714285714286</ele><time>2026-04-11T06:50:07.111Z</time></trkpt><trkpt lat="44.6289234" lon="7.954061"><ele>218.71428571428572</ele><time>2026-04-11T06:50:10.11Z</time></trkpt><trkpt lat="44.6289891" lon="7.9540066"><ele>219.57142857142856</ele><time>2026-04-11T06:50:13.11Z</time></trkpt><trkpt lat="44.6290507" lon="7.9539532"><ele>220.42857142857144</ele><time>2026-04-11T06:50:16.11Z</time></trkpt><trkpt lat="44.6291064" lon="7.953901"><ele>221.28571428571428</ele><time>2026-04-11T06:50:19.11Z</time></trkpt><trkpt lat="44.6291621" lon="7.9538528"><ele>222.14285714285714</ele><time>2026-04-11T06:50:22.11Z</time></trkpt><trkpt lat="44.6292185" lon="7.9538023"><ele>223.0</ele><time>2026-04-11T06:50:25.11Z</time></trkpt><trkpt lat="44.6292767" lon="7.9537513"><ele>223.0</ele><time>2026-04-11T06:50:28.111Z</time></trkpt><trkpt lat="44.6293366" lon="7.9536962"><ele>223.0</ele><time>2026-04-11T06:50:31.11Z</time></trkpt><trkpt lat="44.6293936" lon="7.9536432"><ele>223.0</ele><time>2026-04-11T06:50:34.111Z</time></trkpt><trkpt lat="44.6294479" lon="7.9535897"><ele>223.0</ele><time>2026-04-11T06:50:37.11Z</time></trkpt><trkpt lat="44.6295011" lon="7.9535418"><ele>223.0</ele><time>2026-04-11T06:50:40.111Z</time></trkpt><trkpt lat="44.6295711" lon="7.9534855"><ele>223.0</ele><time>2026-04-11T06:50:44.111Z</time></trkpt><trkpt lat="44.6296404" lon="7.9534312"><ele>223.0</ele><time>2026-04-11T06:50:48.111Z</time></trkpt><trkpt lat="44.6297091" lon="7.9533676"><ele>223.71428571428572</ele><time>2026-04-11T06:50:52.111Z</time></trkpt><trkpt lat="44.6297722" lon="7.953304"><ele>224.42857142857142</ele><time>2026-04-11T06:50:56.11Z</time></trkpt><trkpt lat="44.6298335" lon="7.953254"><ele>225.14285714285714</ele><time>2026-04-11T06:51:00.111Z</time></trkpt><trkpt lat="44.629887" lon="7.9531861"><ele>225.85714285714283</ele><time>2026-04-11T06:54:34.11Z</time></trkpt><trkpt lat="44.6299427" lon="7.9531178"><ele>226.57142857142856</ele><time>2026-04-11T06:54:40.111Z</time></trkpt><trkpt lat="44.6299957" lon="7.9530431"><ele>227.28571428571428</ele><time>2026-04-11T06:54:45.111Z</time></trkpt><trkpt lat="44.6300338" lon="7.9529658"><ele>228.0</ele><time>2026-04-11T06:54:49.111Z</time></trkpt><trkpt lat="44.6300886" lon="7.9528957"><ele>228.0</ele><time>2026-04-11T06:54:55.111Z</time></trkpt><trkpt lat="44.630133" lon="7.9528225"><ele>227.99999999999997</ele><time>2026-04-11T06:55:02.111Z</time></trkpt><trkpt lat="44.6301817" lon="7.9527443"><ele>228.0</ele><time>2026-04-11T06:55:09.11Z</time></trkpt><trkpt lat="44.6302424" lon="7.9526598"><ele>228.0</ele><time>2026-04-11T06:55:13.11Z</time></trkpt><trkpt lat="44.6302888" lon="7.9525874"><ele>227.99999999999997</ele><time>2026-04-11T06:55:16.111Z</time></trkpt><trkpt lat="44.6303346" lon="7.9525025"><ele>228.0</ele><time>2026-04-11T06:55:19.111Z</time></trkpt><trkpt lat="44.6303795" lon="7.9524173"><ele>228.0</ele><time>2026-04-11T06:55:22.11Z</time></trkpt><trkpt lat="44.630422" lon="7.9523298"><ele>228.28571428571428</ele><time>2026-04-11T06:55:25.111Z</time></trkpt><trkpt lat="44.6304694" lon="7.9522509"><ele>228.57142857142856</ele><time>2026-04-11T06:55:28.11Z</time></trkpt><trkpt lat="44.6305039" lon="7.952158"><ele>228.85714285714283</ele><time>2026-04-11T06:55:31.11Z</time></trkpt><trkpt lat="44.6305384" lon="7.9520709"><ele>229.1428571428571</ele><time>2026-04-11T06:55:34.11Z</time></trkpt><trkpt lat="44.6305682" lon="7.9519766"><ele>229.42857142857142</ele><time>2026-04-11T06:55:37.11Z</time></trkpt><trkpt lat="44.6305943" lon="7.951886"><ele>229.71428571428567</ele><time>2026-04-11T06:55:40.111Z</time></trkpt><trkpt lat="44.6306161" lon="7.9518008"><ele>229.99999999999997</ele><time>2026-04-11T06:55:43.111Z</time></trkpt><trkpt lat="44.6306498" lon="7.9517197"><ele>229.83333333333334</ele><time>2026-04-11T06:55:46.111Z</time></trkpt><trkpt lat="44.630698" lon="7.9516484"><ele>229.66666666666669</ele><time>2026-04-11T06:55:49.111Z</time></trkpt><trkpt lat="44.6307456" lon="7.9515687"><ele>229.5</ele><time>2026-04-11T06:55:52.111Z</time></trkpt><trkpt lat="44.6308111" lon="7.9514961"><ele>229.33333333333331</ele><time>2026-04-11T06:55:55.111Z</time></trkpt><trkpt lat="44.6308754" lon="7.9514454"><ele>229.16666666666666</ele><time>2026-04-11T06:55:58.111Z</time></trkpt><trkpt lat="44.6309429" lon="7.9513888"><ele>229.0</ele><time>2026-04-11T06:56:01.111Z</time></trkpt><trkpt lat="44.6310101" lon="7.9513266"><ele>228.99999999999997</ele><time>2026-04-11T06:56:04.111Z</time></trkpt><trkpt lat="44.6310787" lon="7.9512642"><ele>229.0</ele><time>2026-04-11T06:56:07.11Z</time></trkpt><trkpt lat="44.6311456" lon="7.9512061"><ele>229.0</ele><time>2026-04-11T06:56:10.11Z</time></trkpt><trkpt lat="44.6312126" lon="7.9511505"><ele>229.0</ele><time>2026-04-11T06:56:13.111Z</time></trkpt><trkpt lat="44.6312768" lon="7.9510934"><ele>228.99999999999997</ele><time>2026-04-11T06:56:16.11Z</time></trkpt><trkpt lat="44.6313396" lon="7.951038"><ele>229.0</ele><time>2026-04-11T06:56:19.11Z</time></trkpt><trkpt lat="44.6314021" lon="7.9509921"><ele>229.14285714285714</ele><time>2026-04-11T06:56:22.11Z</time></trkpt><trkpt lat="44.6314665" lon="7.9509282"><ele>229.28571428571428</ele><time>2026-04-11T06:56:26.111Z</time></trkpt><trkpt lat="44.6315224" lon="7.9508829"><ele>229.42857142857142</ele><time>2026-04-11T06:56:29.11Z</time></trkpt><trkpt lat="44.6315808" lon="7.9508216"><ele>229.57142857142856</ele><time>2026-04-11T06:56:32.111Z</time></trkpt><trkpt lat="44.631647" lon="7.9507657"><ele>229.71428571428572</ele><time>2026-04-11T06:56:35.111Z</time></trkpt><trkpt lat="44.6317141" lon="7.9507106"><ele>229.85714285714283</ele><time>2026-04-11T06:56:38.111Z</time></trkpt><trkpt lat="44.6317671" lon="7.9506437"><ele>229.99999999999997</ele><time>2026-04-11T06:56:41.11Z</time></trkpt><trkpt lat="44.631823" lon="7.950589"><ele>229.99999999999997</ele><time>2026-04-11T06:56:44.111Z</time></trkpt><trkpt lat="44.6318713" lon="7.9505284"><ele>230.0</ele><time>2026-04-11T06:56:47.11Z</time></trkpt><trkpt lat="44.6319201" lon="7.9504678"><ele>229.99999999999997</ele><time>2026-04-11T06:56:50.111Z</time></trkpt><trkpt lat="44.6319773" lon="7.9504098"><ele>229.99999999999997</ele><time>2026-04-11T06:56:53.111Z</time></trkpt><trkpt lat="44.6320394" lon="7.9503587"><ele>230.0</ele><time>2026-04-11T06:56:56.111Z</time></trkpt><trkpt lat="44.6321045" lon="7.9503178"><ele>229.99999999999997</ele><time>2026-04-11T06:56:59.111Z</time></trkpt><trkpt lat="44.6321594" lon="7.9502735"><ele>229.99999999999997</ele><time>2026-04-11T06:57:02.111Z</time></trkpt><trkpt lat="44.6322175" lon="7.9502081"><ele>230.99999999999997</ele><time>2026-04-11T06:57:06.111Z</time></trkpt><trkpt lat="44.6322721" lon="7.9501591"><ele>232.0</ele><time>2026-04-11T06:57:10.111Z</time></trkpt><trkpt lat="44.6323352" lon="7.9500941"><ele>232.99999999999997</ele><time>2026-04-11T06:57:15.111Z</time></trkpt><trkpt lat="44.6323924" lon="7.9500168"><ele>233.99999999999997</ele><time>2026-04-11T06:57:20.111Z</time></trkpt><trkpt lat="44.6324403" lon="7.9499578"><ele>235.0</ele><time>2026-04-11T06:57:24.111Z</time></trkpt><trkpt lat="44.6324982" lon="7.949885"><ele>235.99999999999997</ele><time>2026-04-11T06:57:29.11Z</time></trkpt><trkpt lat="44.6325548" lon="7.9498073"><ele>236.99999999999997</ele><time>2026-04-11T06:57:34.111Z</time></trkpt><trkpt lat="44.632603" lon="7.9497491"><ele>236.99999999999997</ele><time>2026-04-11T06:57:38.111Z</time></trkpt><trkpt lat="44.6326535" lon="7.9496718"><ele>237.0</ele><time>2026-04-11T06:57:43.111Z</time></trkpt><trkpt lat="44.6327009" lon="7.9496135"><ele>236.99999999999997</ele><time>2026-04-11T06:57:47.111Z</time></trkpt><trkpt lat="44.6327553" lon="7.9495356"><ele>236.99999999999997</ele><time>2026-04-11T06:57:52.111Z</time></trkpt><trkpt lat="44.6327988" lon="7.9494562"><ele>237.0</ele><time>2026-04-11T06:57:57.111Z</time></trkpt><trkpt lat="44.6328473" lon="7.9493957"><ele>236.99999999999997</ele><time>2026-04-11T06:58:01.111Z</time></trkpt><trkpt lat="44.6328904" lon="7.9493125"><ele>236.99999999999997</ele><time>2026-04-11T06:58:06.11Z</time></trkpt><trkpt lat="44.6329325" lon="7.9492368"><ele>238.57142857142856</ele><time>2026-04-11T06:58:10.11Z</time></trkpt><trkpt lat="44.6329693" lon="7.9491469"><ele>240.14285714285714</ele><time>2026-04-11T06:58:14.111Z</time></trkpt><trkpt lat="44.6330022" lon="7.9490601"><ele>241.71428571428572</ele><time>2026-04-11T06:58:18.111Z</time></trkpt><trkpt lat="44.6330347" lon="7.9489755"><ele>243.28571428571428</ele><time>2026-04-11T06:58:22.11Z</time></trkpt><trkpt lat="44.6330646" lon="7.9488887"><ele>244.8571428571429</ele><time>2026-04-11T06:58:26.111Z</time></trkpt><trkpt lat="44.6330942" lon="7.9488007"><ele>246.42857142857144</ele><time>2026-04-11T06:58:30.11Z</time></trkpt><trkpt lat="44.6331251" lon="7.9487106"><ele>248.0</ele><time>2026-04-11T06:58:34.111Z</time></trkpt><trkpt lat="44.6331577" lon="7.948621"><ele>248.0</ele><time>2026-04-11T06:58:38.11Z</time></trkpt><trkpt lat="44.6331877" lon="7.9485321"><ele>248.00000000000003</ele><time>2026-04-11T06:58:42.111Z</time></trkpt><trkpt lat="44.6332222" lon="7.9484478"><ele>248.0</ele><time>2026-04-11T06:58:46.11Z</time></trkpt><trkpt lat="44.6332595" lon="7.9483657"><ele>248.0</ele><time>2026-04-11T06:58:50.11Z</time></trkpt><trkpt lat="44.6332908" lon="7.9482807"><ele>248.00000000000003</ele><time>2026-04-11T06:58:54.111Z</time></trkpt><trkpt lat="44.6333243" lon="7.9481963"><ele>248.0</ele><time>2026-04-11T06:58:58.11Z</time></trkpt><trkpt lat="44.6333597" lon="7.9481094"><ele>248.0</ele><time>2026-04-11T06:59:02.11Z</time></trkpt><trkpt lat="44.6333984" lon="7.948015"><ele>247.33333333333334</ele><time>2026-04-11T06:59:06.111Z</time></trkpt><trkpt lat="44.6334359" lon="7.9479146"><ele>246.66666666666669</ele><time>2026-04-11T06:59:10.11Z</time></trkpt><trkpt lat="44.6334784" lon="7.9478168"><ele>246.0</ele><time>2026-04-11T06:59:14.111Z</time></trkpt><trkpt lat="44.6335176" lon="7.9477132"><ele>245.33333333333331</ele><time>2026-04-11T06:59:18.111Z</time></trkpt><trkpt lat="44.6335569" lon="7.9476124"><ele>244.66666666666666</ele><time>2026-04-11T06:59:22.111Z</time></trkpt><trkpt lat="44.6335961" lon="7.9475155"><ele>244.0</ele><time>2026-04-11T06:59:26.11Z</time></trkpt><trkpt lat="44.6336379" lon="7.9474228"><ele>245.49999999999997</ele><time>2026-04-11T06:59:30.111Z</time></trkpt><trkpt lat="44.633674" lon="7.9473168"><ele>247.0</ele><time>2026-04-11T06:59:34.11Z</time></trkpt><trkpt lat="44.6337084" lon="7.9472165"><ele>248.5</ele><time>2026-04-11T06:59:38.11Z</time></trkpt><trkpt lat="44.6337438" lon="7.9471225"><ele>250.0</ele><time>2026-04-11T06:59:42.111Z</time></trkpt><trkpt lat="44.6337804" lon="7.947023"><ele>251.49999999999997</ele><time>2026-04-11T06:59:46.111Z</time></trkpt><trkpt lat="44.6338102" lon="7.9469383"><ele>253.0</ele><time>2026-04-11T06:59:50.11Z</time></trkpt><trkpt lat="44.6338452" lon="7.9468548"><ele>253.00000000000003</ele><time>2026-04-11T06:59:54.111Z</time></trkpt><trkpt lat="44.6338756" lon="7.9467606"><ele>253.0</ele><time>2026-04-11T06:59:58.11Z</time></trkpt><trkpt lat="44.6339052" lon="7.9466817"><ele>253.00000000000003</ele><time>2026-04-11T07:00:01.111Z</time></trkpt><trkpt lat="44.6339395" lon="7.9465932"><ele>253.00000000000003</ele><time>2026-04-11T07:00:05.111Z</time></trkpt><trkpt lat="44.6339789" lon="7.946498"><ele>253.0</ele><time>2026-04-11T07:00:09.111Z</time></trkpt><trkpt lat="44.6340167" lon="7.9464066"><ele>253.00000000000003</ele><time>2026-04-11T07:00:13.111Z</time></trkpt><trkpt lat="44.6340469" lon="7.9463086"><ele>253.00000000000003</ele><time>2026-04-11T07:00:17.11Z</time></trkpt><trkpt lat="44.634069" lon="7.9462116"><ele>253.14285714285717</ele><time>2026-04-11T07:00:22.111Z</time></trkpt><trkpt lat="44.6340859" lon="7.9461211"><ele>253.28571428571428</ele><time>2026-04-11T07:00:26.111Z</time></trkpt><trkpt lat="44.6340919" lon="7.9460257"><ele>253.42857142857144</ele><time>2026-04-11T07:00:38.11Z</time></trkpt><trkpt lat="44.6340899" lon="7.9459338"><ele>253.57142857142858</ele><time>2026-04-11T07:00:47.111Z</time></trkpt><trkpt lat="44.6340869" lon="7.9458365"><ele>253.71428571428572</ele><time>2026-04-11T07:00:56.11Z</time></trkpt><trkpt lat="44.6340778" lon="7.9457399"><ele>253.85714285714286</ele><time>2026-04-11T07:01:05.111Z</time></trkpt><trkpt lat="44.6340619" lon="7.9456488"><ele>254.0</ele><time>2026-04-11T07:01:13.111Z</time></trkpt><trkpt lat="44.6340449" lon="7.9455583"><ele>255.0</ele><time>2026-04-11T07:01:25.111Z</time></trkpt><trkpt lat="44.6340246" lon="7.9454708"><ele>256.0</ele><time>2026-04-11T07:01:32.111Z</time></trkpt><trkpt lat="44.6340065" lon="7.9453784"><ele>257.0</ele><time>2026-04-11T07:01:40.111Z</time></trkpt><trkpt lat="44.633986" lon="7.9452841"><ele>258.0</ele><time>2026-04-11T07:01:48.111Z</time></trkpt><trkpt lat="44.6339727" lon="7.9451849"><ele>259.0</ele><time>2026-04-11T07:01:56.111Z</time></trkpt><trkpt lat="44.6339598" lon="7.94509"><ele>260.0</ele><time>2026-04-11T07:02:04.11Z</time></trkpt><trkpt lat="44.6339555" lon="7.9449906"><ele>261.0</ele><time>2026-04-11T07:02:12.111Z</time></trkpt><trkpt lat="44.6339587" lon="7.9449009"><ele>262.7142857142857</ele><time>2026-04-11T07:02:20.11Z</time></trkpt><trkpt lat="44.6339521" lon="7.9448084"><ele>264.42857142857144</ele><time>2026-04-11T07:02:28.111Z</time></trkpt><trkpt lat="44.6339463" lon="7.9447131"><ele>266.1428571428571</ele><time>2026-04-11T07:02:36.111Z</time></trkpt><trkpt lat="44.6339697" lon="7.9446253"><ele>267.8571428571429</ele><time>2026-04-11T07:02:43.111Z</time></trkpt><trkpt lat="44.63402" lon="7.9446829"><ele>269.57142857142856</ele><time>2026-04-11T07:07:33.111Z</time></trkpt><trkpt lat="44.6340839" lon="7.944758"><ele>271.2857142857143</ele><time>2026-04-11T07:07:37.111Z</time></trkpt><trkpt lat="44.634138" lon="7.9448319"><ele>273.0</ele><time>2026-04-11T07:07:39.111Z</time></trkpt><trkpt lat="44.634188" lon="7.9448995"><ele>273.0</ele><time>2026-04-11T07:07:41.11Z</time></trkpt><trkpt lat="44.6342403" lon="7.9449568"><ele>273.0</ele><time>2026-04-11T07:07:43.111Z</time></trkpt><trkpt lat="44.6342972" lon="7.9450164"><ele>273.0</ele><time>2026-04-11T07:07:45.11Z</time></trkpt><trkpt lat="44.6343556" lon="7.9450775"><ele>273.0</ele><time>2026-04-11T07:07:47.11Z</time></trkpt><trkpt lat="44.6344193" lon="7.9451303"><ele>273.0</ele><time>2026-04-11T07:07:49.111Z</time></trkpt><trkpt lat="44.6344872" lon="7.9451698"><ele>273.0</ele><time>2026-04-11T07:07:51.111Z</time></trkpt><trkpt lat="44.6345501" lon="7.9452026"><ele>273.0</ele><time>2026-04-11T07:07:53.11Z</time></trkpt><trkpt lat="44.6346233" lon="7.9452437"><ele>273.42857142857144</ele><time>2026-04-11T07:07:56.111Z</time></trkpt><trkpt lat="44.6346887" lon="7.9452928"><ele>273.8571428571429</ele><time>2026-04-11T07:08:00.11Z</time></trkpt><trkpt lat="44.6347524" lon="7.9453563"><ele>274.2857142857143</ele><time>2026-04-11T07:08:05.11Z</time></trkpt><trkpt lat="44.6348103" lon="7.9454071"><ele>274.7142857142857</ele><time>2026-04-11T07:08:09.111Z</time></trkpt><trkpt lat="44.6348614" lon="7.9454665"><ele>275.14285714285717</ele><time>2026-04-11T07:08:13.111Z</time></trkpt><trkpt lat="44.6349191" lon="7.9455256"><ele>275.57142857142856</ele><time>2026-04-11T07:08:18.11Z</time></trkpt><trkpt lat="44.6349648" lon="7.9455918"><ele>276.0</ele><time>2026-04-11T07:08:23.11Z</time></trkpt><trkpt lat="44.635019" lon="7.9456601"><ele>276.0</ele><time>2026-04-11T07:08:28.11Z</time></trkpt><trkpt lat="44.6350709" lon="7.9457285"><ele>276.0</ele><time>2026-04-11T07:08:33.11Z</time></trkpt><trkpt lat="44.6351223" lon="7.9457923"><ele>276.0</ele><time>2026-04-11T07:08:38.111Z</time></trkpt><trkpt lat="44.6351751" lon="7.9458656"><ele>276.0</ele><time>2026-04-11T07:08:43.111Z</time></trkpt><trkpt lat="44.6352263" lon="7.9459385"><ele>276.0</ele><time>2026-04-11T07:08:48.111Z</time></trkpt><trkpt lat="44.6352781" lon="7.9460069"><ele>276.0</ele><time>2026-04-11T07:08:58.111Z</time></trkpt><trkpt lat="44.6353275" lon="7.9460791"><ele>276.0</ele><time>2026-04-11T07:09:06.111Z</time></trkpt><trkpt lat="44.6353752" lon="7.9461423"><ele>278.0</ele><time>2026-04-11T07:09:12.11Z</time></trkpt><trkpt lat="44.6354243" lon="7.9462107"><ele>280.0</ele><time>2026-04-11T07:09:19.111Z</time></trkpt><trkpt lat="44.6354667" lon="7.9462771"><ele>282.0</ele><time>2026-04-11T07:09:25.111Z</time></trkpt><trkpt lat="44.6355187" lon="7.946337"><ele>284.0</ele><time>2026-04-11T07:09:32.11Z</time></trkpt><trkpt lat="44.6355646" lon="7.9464027"><ele>286.0</ele><time>2026-04-11T07:09:39.111Z</time></trkpt><trkpt lat="44.6356233" lon="7.9464539"><ele>288.0</ele><time>2026-04-11T07:09:58.11Z</time></trkpt><trkpt lat="44.6356756" lon="7.9465109"><ele>290.0</ele><time>2026-04-11T07:10:06.111Z</time></trkpt><trkpt lat="44.6357299" lon="7.9465646"><ele>290.0</ele><time>2026-04-11T07:10:14.111Z</time></trkpt><trkpt lat="44.6357767" lon="7.9466293"><ele>290.0</ele><time>2026-04-11T07:10:22.11Z</time></trkpt><trkpt lat="44.6358206" lon="7.9467055"><ele>290.0</ele><time>2026-04-11T07:10:31.11Z</time></trkpt><trkpt lat="44.635853" lon="7.9467879"><ele>290.0</ele><time>2026-04-11T07:10:40.111Z</time></trkpt><trkpt lat="44.6358859" lon="7.946872"><ele>290.0</ele><time>2026-04-11T07:10:48.111Z</time></trkpt><trkpt lat="44.6359172" lon="7.9469555"><ele>290.0</ele><time>2026-04-11T07:10:55.111Z</time></trkpt><trkpt lat="44.6359446" lon="7.9470439"><ele>290.0</ele><time>2026-04-11T07:11:02.111Z</time></trkpt><trkpt lat="44.6359763" lon="7.9471311"><ele>290.14285714285717</ele><time>2026-04-11T07:11:10.11Z</time></trkpt><trkpt lat="44.6360031" lon="7.9472225"><ele>290.28571428571433</ele><time>2026-04-11T07:11:18.11Z</time></trkpt><trkpt lat="44.6360299" lon="7.94731"><ele>290.42857142857144</ele><time>2026-04-11T07:11:25.111Z</time></trkpt><trkpt lat="44.6360584" lon="7.9473914"><ele>290.57142857142856</ele><time>2026-04-11T07:11:32.11Z</time></trkpt><trkpt lat="44.6360856" lon="7.9474821"><ele>290.71428571428567</ele><time>2026-04-11T07:11:40.111Z</time></trkpt><trkpt lat="44.6360972" lon="7.9475783"><ele>290.85714285714283</ele><time>2026-04-11T07:11:48.11Z</time></trkpt><trkpt lat="44.6361303" lon="7.9476585"><ele>291.0</ele><time>2026-04-11T07:12:20.111Z</time></trkpt><trkpt lat="44.6361569" lon="7.9477425"><ele>293.42857142857144</ele><time>2026-04-11T07:12:28.11Z</time></trkpt><trkpt lat="44.6361901" lon="7.9478258"><ele>295.85714285714283</ele><time>2026-04-11T07:12:36.11Z</time></trkpt><trkpt lat="44.6362228" lon="7.9479038"><ele>298.2857142857143</ele><time>2026-04-11T07:12:45.111Z</time></trkpt><trkpt lat="44.6362746" lon="7.9479713"><ele>300.7142857142857</ele><time>2026-04-11T07:12:53.111Z</time></trkpt><trkpt lat="44.6363428" lon="7.9479881"><ele>303.1428571428571</ele><time>2026-04-11T07:13:02.111Z</time></trkpt><trkpt lat="44.6364059" lon="7.9479791"><ele>305.57142857142856</ele><time>2026-04-11T07:13:09.111Z</time></trkpt><trkpt lat="44.6364687" lon="7.9479304"><ele>308.0</ele><time>2026-04-11T07:13:17.111Z</time></trkpt><trkpt lat="44.6365155" lon="7.9478674"><ele>308.0</ele><time>2026-04-11T07:13:23.11Z</time></trkpt><trkpt lat="44.6365556" lon="7.9477876"><ele>308.0</ele><time>2026-04-11T07:13:30.111Z</time></trkpt><trkpt lat="44.6365761" lon="7.9477038"><ele>308.0</ele><time>2026-04-11T07:13:37.11Z</time></trkpt><trkpt lat="44.6365988" lon="7.9476157"><ele>308.0</ele><time>2026-04-11T07:13:45.111Z</time></trkpt><trkpt lat="44.6366146" lon="7.9475191"><ele>308.0</ele><time>2026-04-11T07:13:53.111Z</time></trkpt><trkpt lat="44.6366362" lon="7.9474281"><ele>308.0</ele><time>2026-04-11T07:14:01.111Z</time></trkpt><trkpt lat="44.6366611" lon="7.9473422"><ele>308.0</ele><time>2026-04-11T07:14:08.11Z</time></trkpt><trkpt lat="44.6366906" lon="7.9474386"><ele>308.0</ele><time>2026-04-11T07:15:10.111Z</time></trkpt><trkpt lat="44.6366751" lon="7.9475353"><ele>308.0</ele><time>2026-04-11T07:15:13.111Z</time></trkpt><trkpt lat="44.6366514" lon="7.9476591"><ele>308.0</ele><time>2026-04-11T07:15:16.11Z</time></trkpt><trkpt lat="44.6366534" lon="7.9477684"><ele>308.0</ele><time>2026-04-11T07:15:19.11Z</time></trkpt><trkpt lat="44.6366587" lon="7.9478957"><ele>308.0</ele><time>2026-04-11T07:15:22.111Z</time></trkpt><trkpt lat="44.6366674" lon="7.9479836"><ele>308.0</ele><time>2026-04-11T07:15:24.11Z</time></trkpt><trkpt lat="44.6366851" lon="7.9481109"><ele>308.0</ele><time>2026-04-11T07:15:27.111Z</time></trkpt><trkpt lat="44.6367124" lon="7.9482009"><ele>308.0</ele><time>2026-04-11T07:15:29.111Z</time></trkpt><trkpt lat="44.636735" lon="7.9482841"><ele>308.0</ele><time>2026-04-11T07:15:31.11Z</time></trkpt><trkpt lat="44.6367634" lon="7.9483696"><ele>308.0</ele><time>2026-04-11T07:15:33.11Z</time></trkpt><trkpt lat="44.6367911" lon="7.9484515"><ele>308.0</ele><time>2026-04-11T07:15:35.11Z</time></trkpt><trkpt lat="44.6368356" lon="7.9485571"><ele>308.0</ele><time>2026-04-11T07:15:38.11Z</time></trkpt><trkpt lat="44.636881" lon="7.9486666"><ele>308.0</ele><time>2026-04-11T07:15:41.111Z</time></trkpt><trkpt lat="44.6369355" lon="7.9487756"><ele>305.57142857142856</ele><time>2026-04-11T07:15:44.111Z</time></trkpt><trkpt lat="44.6369697" lon="7.9488551"><ele>303.1428571428571</ele><time>2026-04-11T07:15:46.111Z</time></trkpt><trkpt lat="44.6370073" lon="7.9489381"><ele>300.7142857142857</ele><time>2026-04-11T07:15:48.111Z</time></trkpt><trkpt lat="44.6370453" lon="7.9490189"><ele>298.2857142857143</ele><time>2026-04-11T07:15:50.111Z</time></trkpt><trkpt lat="44.6370833" lon="7.9491004"><ele>295.85714285714283</ele><time>2026-04-11T07:15:52.111Z</time></trkpt><trkpt lat="44.6371218" lon="7.9491841"><ele>293.42857142857144</ele><time>2026-04-11T07:15:54.11Z</time></trkpt><trkpt lat="44.6371555" lon="7.9492758"><ele>291.0</ele><time>2026-04-11T07:15:56.111Z</time></trkpt><trkpt lat="44.6371913" lon="7.9493691"><ele>290.6666666666667</ele><time>2026-04-11T07:15:58.111Z</time></trkpt><trkpt lat="44.637213" lon="7.9494681"><ele>290.3333333333333</ele><time>2026-04-11T07:16:00.111Z</time></trkpt><trkpt lat="44.6372437" lon="7.9495743"><ele>290.0</ele><time>2026-04-11T07:16:02.111Z</time></trkpt><trkpt lat="44.6372792" lon="7.9496906"><ele>289.66666666666663</ele><time>2026-04-11T07:16:04.111Z</time></trkpt><trkpt lat="44.6372992" lon="7.9498236"><ele>289.3333333333333</ele><time>2026-04-11T07:16:06.111Z</time></trkpt><trkpt lat="44.6373064" lon="7.9499552"><ele>289.0</ele><time>2026-04-11T07:16:08.11Z</time></trkpt><trkpt lat="44.6373009" lon="7.9500653"><ele>288.7142857142857</ele><time>2026-04-11T07:16:10.11Z</time></trkpt><trkpt lat="44.6372946" lon="7.9501625"><ele>288.42857142857144</ele><time>2026-04-11T07:16:12.111Z</time></trkpt><trkpt lat="44.6372839" lon="7.9502497"><ele>288.1428571428571</ele><time>2026-04-11T07:16:14.111Z</time></trkpt><trkpt lat="44.6372724" lon="7.950382"><ele>287.8571428571429</ele><time>2026-04-11T07:16:17.11Z</time></trkpt><trkpt lat="44.6372566" lon="7.9504712"><ele>287.57142857142856</ele><time>2026-04-11T07:16:19.111Z</time></trkpt><trkpt lat="44.6372446" lon="7.9505593"><ele>287.2857142857143</ele><time>2026-04-11T07:16:21.11Z</time></trkpt><trkpt lat="44.6372325" lon="7.9506877"><ele>287.0</ele><time>2026-04-11T07:16:24.11Z</time></trkpt><trkpt lat="44.6372215" lon="7.9507774"><ele>287.0</ele><time>2026-04-11T07:16:26.11Z</time></trkpt><trkpt lat="44.6372119" lon="7.9508738"><ele>287.0</ele><time>2026-04-11T07:16:28.111Z</time></trkpt><trkpt lat="44.6371968" lon="7.9509699"><ele>287.0</ele><time>2026-04-11T07:16:30.11Z</time></trkpt><trkpt lat="44.6371663" lon="7.951056"><ele>287.0</ele><time>2026-04-11T07:16:32.111Z</time></trkpt><trkpt lat="44.6371273" lon="7.9511338"><ele>287.0</ele><time>2026-04-11T07:16:34.111Z</time></trkpt><trkpt lat="44.6370829" lon="7.9512029"><ele>287.0</ele><time>2026-04-11T07:16:36.11Z</time></trkpt><trkpt lat="44.6370355" lon="7.9512648"><ele>287.0</ele><time>2026-04-11T07:16:38.111Z</time></trkpt><trkpt lat="44.6369799" lon="7.9513182"><ele>287.0</ele><time>2026-04-11T07:16:40.11Z</time></trkpt><trkpt lat="44.6369218" lon="7.9513693"><ele>287.0</ele><time>2026-04-11T07:16:42.111Z</time></trkpt><trkpt lat="44.6368608" lon="7.9514127"><ele>287.0</ele><time>2026-04-11T07:16:44.111Z</time></trkpt><trkpt lat="44.6367931" lon="7.9514498"><ele>287.0</ele><time>2026-04-11T07:16:46.111Z</time></trkpt><trkpt lat="44.636725" lon="7.9515015"><ele>287.0</ele><time>2026-04-11T07:16:48.11Z</time></trkpt><trkpt lat="44.6366501" lon="7.9515487"><ele>287.0</ele><time>2026-04-11T07:16:50.111Z</time></trkpt><trkpt lat="44.6365787" lon="7.9515996"><ele>287.0</ele><time>2026-04-11T07:16:52.111Z</time></trkpt><trkpt lat="44.6365113" lon="7.9516475"><ele>287.0</ele><time>2026-04-11T07:16:54.111Z</time></trkpt><trkpt lat="44.6364502" lon="7.9516871"><ele>287.0</ele><time>2026-04-11T07:16:56.111Z</time></trkpt><trkpt lat="44.6363912" lon="7.9517258"><ele>287.0</ele><time>2026-04-11T07:16:58.11Z</time></trkpt><trkpt lat="44.6363302" lon="7.9517726"><ele>287.0</ele><time>2026-04-11T07:17:00.111Z</time></trkpt><trkpt lat="44.6362631" lon="7.9518132"><ele>287.0</ele><time>2026-04-11T07:17:02.111Z</time></trkpt><trkpt lat="44.6361937" lon="7.9518607"><ele>287.0</ele><time>2026-04-11T07:17:04.111Z</time></trkpt><trkpt lat="44.6361193" lon="7.9519119"><ele>287.0</ele><time>2026-04-11T07:17:06.11Z</time></trkpt><trkpt lat="44.6360397" lon="7.9519653"><ele>286.6</ele><time>2026-04-11T07:17:08.111Z</time></trkpt><trkpt lat="44.6359509" lon="7.952006"><ele>286.2</ele><time>2026-04-11T07:17:10.111Z</time></trkpt><trkpt lat="44.6358657" lon="7.9520664"><ele>285.8</ele><time>2026-04-11T07:17:12.11Z</time></trkpt><trkpt lat="44.6357836" lon="7.9521341"><ele>285.4</ele><time>2026-04-11T07:17:14.111Z</time></trkpt><trkpt lat="44.6357073" lon="7.9522236"><ele>285.0</ele><time>2026-04-11T07:17:16.11Z</time></trkpt><trkpt lat="44.6356431" lon="7.952334"><ele>285.0</ele><time>2026-04-11T07:17:18.111Z</time></trkpt><trkpt lat="44.6355937" lon="7.9524767"><ele>285.0</ele><time>2026-04-11T07:17:20.11Z</time></trkpt><trkpt lat="44.6355674" lon="7.9526259"><ele>285.0</ele><time>2026-04-11T07:17:22.111Z</time></trkpt><trkpt lat="44.6355678" lon="7.9527527"><ele>285.0</ele><time>2026-04-11T07:17:24.11Z</time></trkpt><trkpt lat="44.6355795" lon="7.9528731"><ele>285.0</ele><time>2026-04-11T07:17:26.11Z</time></trkpt><trkpt lat="44.635616" lon="7.9529964"><ele>284.3333333333333</ele><time>2026-04-11T07:17:28.111Z</time></trkpt><trkpt lat="44.6356631" lon="7.9531188"><ele>283.6666666666667</ele><time>2026-04-11T07:17:30.111Z</time></trkpt><trkpt lat="44.6357135" lon="7.9532038"><ele>283.0</ele><time>2026-04-11T07:17:32.111Z</time></trkpt><trkpt lat="44.635776" lon="7.9532744"><ele>282.33333333333337</ele><time>2026-04-11T07:17:35.111Z</time></trkpt><trkpt lat="44.6358414" lon="7.9533205"><ele>281.6666666666667</ele><time>2026-04-11T07:17:38.111Z</time></trkpt><trkpt lat="44.635922" lon="7.9533943"><ele>281.0</ele><time>2026-04-11T07:17:41.111Z</time></trkpt><trkpt lat="44.6359863" lon="7.9534499"><ele>280.1666666666667</ele><time>2026-04-11T07:17:43.111Z</time></trkpt><trkpt lat="44.6360575" lon="7.9535189"><ele>279.33333333333337</ele><time>2026-04-11T07:17:45.111Z</time></trkpt><trkpt lat="44.6361272" lon="7.9535837"><ele>278.5</ele><time>2026-04-11T07:17:47.11Z</time></trkpt><trkpt lat="44.6361942" lon="7.9536439"><ele>277.6666666666667</ele><time>2026-04-11T07:17:49.111Z</time></trkpt><trkpt lat="44.6362633" lon="7.953707"><ele>276.8333333333333</ele><time>2026-04-11T07:17:51.111Z</time></trkpt><trkpt lat="44.6363348" lon="7.9537709"><ele>276.0</ele><time>2026-04-11T07:17:53.11Z</time></trkpt><trkpt lat="44.6364005" lon="7.9538391"><ele>276.0</ele><time>2026-04-11T07:17:55.11Z</time></trkpt><trkpt lat="44.6364624" lon="7.9538989"><ele>276.0</ele><time>2026-04-11T07:17:57.11Z</time></trkpt><trkpt lat="44.6365254" lon="7.9539598"><ele>276.0</ele><time>2026-04-11T07:17:59.111Z</time></trkpt><trkpt lat="44.6365867" lon="7.9540182"><ele>276.0</ele><time>2026-04-11T07:18:01.11Z</time></trkpt><trkpt lat="44.6366457" lon="7.9540737"><ele>276.0</ele><time>2026-04-11T07:18:03.111Z</time></trkpt><trkpt lat="44.6366936" lon="7.9541376"><ele>276.0</ele><time>2026-04-11T07:18:05.11Z</time></trkpt><trkpt lat="44.636754" lon="7.9542334"><ele>274.8333333333333</ele><time>2026-04-11T07:18:08.111Z</time></trkpt><trkpt lat="44.6367927" lon="7.9543074"><ele>273.6666666666667</ele><time>2026-04-11T07:18:10.111Z</time></trkpt><trkpt lat="44.6368293" lon="7.9543804"><ele>272.5</ele><time>2026-04-11T07:18:12.111Z</time></trkpt><trkpt lat="44.6368802" lon="7.9544785"><ele>271.33333333333337</ele><time>2026-04-11T07:18:15.111Z</time></trkpt><trkpt lat="44.6369329" lon="7.9545717"><ele>270.1666666666667</ele><time>2026-04-11T07:18:18.111Z</time></trkpt><trkpt lat="44.6369819" lon="7.9546728"><ele>269.0</ele><time>2026-04-11T07:18:21.111Z</time></trkpt><trkpt lat="44.6370293" lon="7.9547621"><ele>269.0</ele><time>2026-04-11T07:18:24.111Z</time></trkpt><trkpt lat="44.6370765" lon="7.9548478"><ele>269.0</ele><time>2026-04-11T07:18:27.111Z</time></trkpt><trkpt lat="44.6371235" lon="7.9549352"><ele>269.0</ele><time>2026-04-11T07:18:31.11Z</time></trkpt><trkpt lat="44.6371751" lon="7.9550221"><ele>269.0</ele><time>2026-04-11T07:18:35.11Z</time></trkpt><trkpt lat="44.6372173" lon="7.9551189"><ele>269.0</ele><time>2026-04-11T07:18:38.11Z</time></trkpt><trkpt lat="44.6372831" lon="7.9551435"><ele>269.0</ele><time>2026-04-11T07:18:42.111Z</time></trkpt><trkpt lat="44.6373159" lon="7.9550304"><ele>269.0</ele><time>2026-04-11T07:18:46.111Z</time></trkpt><trkpt lat="44.6373313" lon="7.9549079"><ele>269.0</ele><time>2026-04-11T07:18:49.111Z</time></trkpt><trkpt lat="44.6373453" lon="7.9548108"><ele>269.0</ele><time>2026-04-11T07:18:52.111Z</time></trkpt><trkpt lat="44.6373544" lon="7.9547217"><ele>269.0</ele><time>2026-04-11T07:18:55.11Z</time></trkpt><trkpt lat="44.6373714" lon="7.9546333"><ele>269.0</ele><time>2026-04-11T07:18:57.111Z</time></trkpt><trkpt lat="44.6373821" lon="7.9545459"><ele>269.0</ele><time>2026-04-11T07:18:59.111Z</time></trkpt><trkpt lat="44.6373903" lon="7.9544283"><ele>269.0</ele><time>2026-04-11T07:19:02.11Z</time></trkpt><trkpt lat="44.6373925" lon="7.9543377"><ele>269.0</ele><time>2026-04-11T07:19:04.111Z</time></trkpt><trkpt lat="44.6373964" lon="7.9542083"><ele>269.0</ele><time>2026-04-11T07:19:07.11Z</time></trkpt><trkpt lat="44.6374085" lon="7.9540851"><ele>269.0</ele><time>2026-04-11T07:19:10.11Z</time></trkpt><trkpt lat="44.6374187" lon="7.9539621"><ele>269.0</ele><time>2026-04-11T07:19:13.11Z</time></trkpt><trkpt lat="44.6374728" lon="7.9538738"><ele>269.0</ele><time>2026-04-11T07:19:16.11Z</time></trkpt><trkpt lat="44.6375397" lon="7.9538225"><ele>269.0</ele><time>2026-04-11T07:19:18.111Z</time></trkpt><trkpt lat="44.6376132" lon="7.9537854"><ele>268.42857142857144</ele><time>2026-04-11T07:19:20.111Z</time></trkpt><trkpt lat="44.6376816" lon="7.9537554"><ele>267.8571428571429</ele><time>2026-04-11T07:19:22.111Z</time></trkpt><trkpt lat="44.6377496" lon="7.9537277"><ele>267.2857142857143</ele><time>2026-04-11T07:19:24.111Z</time></trkpt><trkpt lat="44.6378212" lon="7.953697"><ele>266.7142857142857</ele><time>2026-04-11T07:19:26.111Z</time></trkpt><trkpt lat="44.6379053" lon="7.9536745"><ele>266.1428571428571</ele><time>2026-04-11T07:19:29.11Z</time></trkpt><trkpt lat="44.6379689" lon="7.9536582"><ele>265.57142857142856</ele><time>2026-04-11T07:19:31.111Z</time></trkpt><trkpt lat="44.6380336" lon="7.9536342"><ele>265.0</ele><time>2026-04-11T07:19:33.11Z</time></trkpt><trkpt lat="44.6381218" lon="7.9535984"><ele>263.71428571428567</ele><time>2026-04-11T07:19:36.11Z</time></trkpt><trkpt lat="44.6382137" lon="7.9535634"><ele>262.42857142857144</ele><time>2026-04-11T07:19:39.111Z</time></trkpt><trkpt lat="44.6382755" lon="7.9535289"><ele>261.1428571428571</ele><time>2026-04-11T07:19:41.111Z</time></trkpt><trkpt lat="44.6383361" lon="7.9535003"><ele>259.85714285714283</ele><time>2026-04-11T07:19:43.111Z</time></trkpt><trkpt lat="44.638404" lon="7.9534683"><ele>258.57142857142856</ele><time>2026-04-11T07:19:45.111Z</time></trkpt><trkpt lat="44.6384753" lon="7.9534373"><ele>257.2857142857143</ele><time>2026-04-11T07:19:47.111Z</time></trkpt><trkpt lat="44.6385396" lon="7.9534049"><ele>256.0</ele><time>2026-04-11T07:19:49.111Z</time></trkpt><trkpt lat="44.6386133" lon="7.9533676"><ele>254.20000000000002</ele><time>2026-04-11T07:19:51.111Z</time></trkpt><trkpt lat="44.6387064" lon="7.9533105"><ele>252.40000000000003</ele><time>2026-04-11T07:19:53.11Z</time></trkpt><trkpt lat="44.6388183" lon="7.953291"><ele>250.6</ele><time>2026-04-11T07:19:55.11Z</time></trkpt><trkpt lat="44.6389332" lon="7.95328"><ele>248.8</ele><time>2026-04-11T07:19:57.111Z</time></trkpt><trkpt lat="44.6390434" lon="7.9533015"><ele>247.0</ele><time>2026-04-11T07:19:59.111Z</time></trkpt><trkpt lat="44.6391556" lon="7.9533389"><ele>246.99999999999997</ele><time>2026-04-11T07:20:01.11Z</time></trkpt><trkpt lat="44.6392589" lon="7.9533799"><ele>247.0</ele><time>2026-04-11T07:20:03.111Z</time></trkpt><trkpt lat="44.6393478" lon="7.9533824"><ele>247.0</ele><time>2026-04-11T07:20:05.11Z</time></trkpt><trkpt lat="44.6394232" lon="7.9533745"><ele>247.0</ele><time>2026-04-11T07:20:07.111Z</time></trkpt><trkpt lat="44.6394957" lon="7.9533705"><ele>246.99999999999997</ele><time>2026-04-11T07:20:09.11Z</time></trkpt><trkpt lat="44.6395798" lon="7.9533855"><ele>247.0</ele><time>2026-04-11T07:20:11.111Z</time></trkpt><trkpt lat="44.6396715" lon="7.9533833"><ele>246.33333333333331</ele><time>2026-04-11T07:20:13.111Z</time></trkpt><trkpt lat="44.6397591" lon="7.9533809"><ele>245.66666666666666</ele><time>2026-04-11T07:20:15.111Z</time></trkpt><trkpt lat="44.6398362" lon="7.9533767"><ele>245.0</ele><time>2026-04-11T07:20:17.11Z</time></trkpt><trkpt lat="44.6399097" lon="7.9533871"><ele>244.33333333333331</ele><time>2026-04-11T07:20:19.111Z</time></trkpt><trkpt lat="44.6399818" lon="7.9533937"><ele>243.66666666666666</ele><time>2026-04-11T07:20:21.111Z</time></trkpt><trkpt lat="44.6400532" lon="7.9533935"><ele>243.0</ele><time>2026-04-11T07:20:23.111Z</time></trkpt><trkpt lat="44.6401205" lon="7.9533891"><ele>243.0</ele><time>2026-04-11T07:20:25.111Z</time></trkpt><trkpt lat="44.6402017" lon="7.953371"><ele>243.0</ele><time>2026-04-11T07:20:28.11Z</time></trkpt><trkpt lat="44.6402915" lon="7.9533544"><ele>243.0</ele><time>2026-04-11T07:20:31.111Z</time></trkpt><trkpt lat="44.6403785" lon="7.9533599"><ele>243.0</ele><time>2026-04-11T07:20:34.111Z</time></trkpt><trkpt lat="44.6404623" lon="7.9533787"><ele>243.0</ele><time>2026-04-11T07:20:37.111Z</time></trkpt><trkpt lat="44.6405423" lon="7.9534028"><ele>243.0</ele><time>2026-04-11T07:20:41.111Z</time></trkpt><trkpt lat="44.6406232" lon="7.9534342"><ele>242.16666666666666</ele><time>2026-04-11T07:20:45.111Z</time></trkpt><trkpt lat="44.6406975" lon="7.9534621"><ele>241.33333333333331</ele><time>2026-04-11T07:20:48.111Z</time></trkpt><trkpt lat="44.6407796" lon="7.953478"><ele>240.5</ele><time>2026-04-11T07:20:51.11Z</time></trkpt><trkpt lat="44.6408718" lon="7.9535007"><ele>239.66666666666666</ele><time>2026-04-11T07:20:54.111Z</time></trkpt><trkpt lat="44.6409367" lon="7.9535079"><ele>238.83333333333331</ele><time>2026-04-11T07:20:56.111Z</time></trkpt><trkpt lat="44.6410021" lon="7.9535188"><ele>238.0</ele><time>2026-04-11T07:20:58.111Z</time></trkpt><trkpt lat="44.6410726" lon="7.9535204"><ele>237.66666666666666</ele><time>2026-04-11T07:21:00.11Z</time></trkpt><trkpt lat="44.6411671" lon="7.9535202"><ele>237.33333333333331</ele><time>2026-04-11T07:21:03.11Z</time></trkpt><trkpt lat="44.64123" lon="7.9535262"><ele>237.0</ele><time>2026-04-11T07:21:05.111Z</time></trkpt><trkpt lat="44.6413177" lon="7.9535313"><ele>236.66666666666669</ele><time>2026-04-11T07:21:08.111Z</time></trkpt><trkpt lat="44.6414031" lon="7.9535366"><ele>236.33333333333334</ele><time>2026-04-11T07:21:11.11Z</time></trkpt><trkpt lat="44.6414757" lon="7.9535173"><ele>236.0</ele><time>2026-04-11T07:21:14.11Z</time></trkpt><trkpt lat="44.6415556" lon="7.9535073"><ele>236.00000000000003</ele><time>2026-04-11T07:21:17.111Z</time></trkpt><trkpt lat="44.6416268" lon="7.9534933"><ele>236.0</ele><time>2026-04-11T07:21:20.111Z</time></trkpt><trkpt lat="44.6417128" lon="7.9534794"><ele>236.0</ele><time>2026-04-11T07:21:23.111Z</time></trkpt><trkpt lat="44.6417772" lon="7.9534667"><ele>236.0</ele><time>2026-04-11T07:21:25.111Z</time></trkpt><trkpt lat="44.6418458" lon="7.9534503"><ele>236.00000000000003</ele><time>2026-04-11T07:21:27.111Z</time></trkpt><trkpt lat="44.6419273" lon="7.9534298"><ele>236.0</ele><time>2026-04-11T07:21:29.111Z</time></trkpt><trkpt lat="44.6420103" lon="7.9534065"><ele>235.20000000000002</ele><time>2026-04-11T07:21:31.111Z</time></trkpt><trkpt lat="44.642114" lon="7.9533857"><ele>234.40000000000003</ele><time>2026-04-11T07:21:33.111Z</time></trkpt><trkpt lat="44.642209" lon="7.9533648"><ele>233.6</ele><time>2026-04-11T07:21:35.111Z</time></trkpt><trkpt lat="44.6422946" lon="7.9533416"><ele>232.8</ele><time>2026-04-11T07:21:37.111Z</time></trkpt><trkpt lat="44.6423826" lon="7.9533112"><ele>232.0</ele><time>2026-04-11T07:21:39.111Z</time></trkpt><trkpt lat="44.6424655" lon="7.9532729"><ele>232.0</ele><time>2026-04-11T07:21:41.11Z</time></trkpt><trkpt lat="44.6425426" lon="7.953219"><ele>232.0</ele><time>2026-04-11T07:21:43.111Z</time></trkpt><trkpt lat="44.6426263" lon="7.9531868"><ele>232.0</ele><time>2026-04-11T07:21:45.111Z</time></trkpt><trkpt lat="44.6427183" lon="7.9531621"><ele>232.0</ele><time>2026-04-11T07:21:47.11Z</time></trkpt><trkpt lat="44.6428117" lon="7.9531317"><ele>232.0</ele><time>2026-04-11T07:21:49.11Z</time></trkpt><trkpt lat="44.6428941" lon="7.953081"><ele>230.99999999999997</ele><time>2026-04-11T07:21:51.111Z</time></trkpt><trkpt lat="44.6429729" lon="7.9530527"><ele>230.0</ele><time>2026-04-11T07:21:53.11Z</time></trkpt><trkpt lat="44.6430346" lon="7.9529995"><ele>229.0</ele><time>2026-04-11T07:21:56.111Z</time></trkpt><trkpt lat="44.643102" lon="7.9529308"><ele>228.0</ele><time>2026-04-11T07:22:00.11Z</time></trkpt><trkpt lat="44.6431654" lon="7.9528659"><ele>226.99999999999997</ele><time>2026-04-11T07:22:03.11Z</time></trkpt><trkpt lat="44.6432175" lon="7.9528099"><ele>226.0</ele><time>2026-04-11T07:22:05.111Z</time></trkpt><trkpt lat="44.6432712" lon="7.952746"><ele>225.99999999999997</ele><time>2026-04-11T07:22:07.11Z</time></trkpt><trkpt lat="44.6433535" lon="7.9526769"><ele>226.0</ele><time>2026-04-11T07:22:09.111Z</time></trkpt><trkpt lat="44.6434252" lon="7.9526197"><ele>226.0</ele><time>2026-04-11T07:22:11.111Z</time></trkpt><trkpt lat="44.6434991" lon="7.9525713"><ele>226.0</ele><time>2026-04-11T07:22:13.11Z</time></trkpt><trkpt lat="44.6435784" lon="7.9525223"><ele>225.99999999999997</ele><time>2026-04-11T07:22:15.111Z</time></trkpt><trkpt lat="44.6436523" lon="7.9524551"><ele>226.0</ele><time>2026-04-11T07:22:17.111Z</time></trkpt><trkpt lat="44.6437183" lon="7.9523836"><ele>225.33333333333331</ele><time>2026-04-11T07:22:19.111Z</time></trkpt><trkpt lat="44.6437727" lon="7.9522886"><ele>224.66666666666666</ele><time>2026-04-11T07:22:21.111Z</time></trkpt><trkpt lat="44.6438192" lon="7.9521952"><ele>224.0</ele><time>2026-04-11T07:22:23.111Z</time></trkpt><trkpt lat="44.6438614" lon="7.9520974"><ele>223.33333333333331</ele><time>2026-04-11T07:22:25.11Z</time></trkpt><trkpt lat="44.6439" lon="7.9519996"><ele>222.66666666666666</ele><time>2026-04-11T07:22:27.111Z</time></trkpt><trkpt lat="44.6439364" lon="7.9519124"><ele>222.0</ele><time>2026-04-11T07:22:29.11Z</time></trkpt><trkpt lat="44.6439769" lon="7.9518327"><ele>222.0</ele><time>2026-04-11T07:22:31.111Z</time></trkpt><trkpt lat="44.644027" lon="7.9517628"><ele>222.0</ele><time>2026-04-11T07:22:33.111Z</time></trkpt><trkpt lat="44.6440888" lon="7.9517139"><ele>222.0</ele><time>2026-04-11T07:22:35.111Z</time></trkpt><trkpt lat="44.6441531" lon="7.9516775"><ele>222.0</ele><time>2026-04-11T07:22:37.11Z</time></trkpt><trkpt lat="44.6442168" lon="7.9516994"><ele>222.0</ele><time>2026-04-11T07:22:39.111Z</time></trkpt><trkpt lat="44.644264" lon="7.9517755"><ele>222.0</ele><time>2026-04-11T07:22:41.111Z</time></trkpt><trkpt lat="44.6442971" lon="7.9518587"><ele>222.0</ele><time>2026-04-11T07:22:43.11Z</time></trkpt><trkpt lat="44.6443457" lon="7.9519694"><ele>222.0</ele><time>2026-04-11T07:22:46.11Z</time></trkpt><trkpt lat="44.6443761" lon="7.9520715"><ele>222.0</ele><time>2026-04-11T07:22:49.111Z</time></trkpt><trkpt lat="44.6444065" lon="7.9521675"><ele>222.0</ele><time>2026-04-11T07:22:52.11Z</time></trkpt><trkpt lat="44.6444304" lon="7.952268"><ele>222.0</ele><time>2026-04-11T07:22:55.11Z</time></trkpt><trkpt lat="44.6444442" lon="7.9523571"><ele>222.0</ele><time>2026-04-11T07:22:58.111Z</time></trkpt><trkpt lat="44.6444665" lon="7.9524731"><ele>222.0</ele><time>2026-04-11T07:23:02.11Z</time></trkpt><trkpt lat="44.6444885" lon="7.9525781"><ele>223.16666666666666</ele><time>2026-04-11T07:23:05.11Z</time></trkpt><trkpt lat="44.6445156" lon="7.9526952"><ele>224.33333333333331</ele><time>2026-04-11T07:23:08.111Z</time></trkpt><trkpt lat="44.6445316" lon="7.9527822"><ele>225.5</ele><time>2026-04-11T07:23:10.11Z</time></trkpt><trkpt lat="44.6445601" lon="7.952904"><ele>226.66666666666666</ele><time>2026-04-11T07:23:13.11Z</time></trkpt><trkpt lat="44.6445943" lon="7.9530155"><ele>227.83333333333331</ele><time>2026-04-11T07:23:16.11Z</time></trkpt><trkpt lat="44.6446197" lon="7.9531218"><ele>229.0</ele><time>2026-04-11T07:23:19.11Z</time></trkpt><trkpt lat="44.6446482" lon="7.9532272"><ele>229.0</ele><time>2026-04-11T07:23:22.11Z</time></trkpt><trkpt lat="44.6446892" lon="7.9533402"><ele>229.0</ele><time>2026-04-11T07:23:25.111Z</time></trkpt><trkpt lat="44.6447308" lon="7.953436"><ele>229.0</ele><time>2026-04-11T07:23:28.11Z</time></trkpt><trkpt lat="44.6447719" lon="7.9535066"><ele>229.0</ele><time>2026-04-11T07:23:30.111Z</time></trkpt><trkpt lat="44.6448111" lon="7.9535852"><ele>229.0</ele><time>2026-04-11T07:23:32.11Z</time></trkpt><trkpt lat="44.644853" lon="7.9536596"><ele>229.0</ele><time>2026-04-11T07:23:34.11Z</time></trkpt><trkpt lat="44.6448924" lon="7.9537337"><ele>229.0</ele><time>2026-04-11T07:23:36.111Z</time></trkpt><trkpt lat="44.6449455" lon="7.9538431"><ele>227.85714285714286</ele><time>2026-04-11T07:23:39.111Z</time></trkpt><trkpt lat="44.6449865" lon="7.9539204"><ele>226.71428571428572</ele><time>2026-04-11T07:23:41.11Z</time></trkpt><trkpt lat="44.6450314" lon="7.9540007"><ele>225.57142857142858</ele><time>2026-04-11T07:23:43.11Z</time></trkpt><trkpt lat="44.645078" lon="7.9540826"><ele>224.42857142857144</ele><time>2026-04-11T07:23:45.11Z</time></trkpt><trkpt lat="44.6451242" lon="7.9541646"><ele>223.28571428571428</ele><time>2026-04-11T07:23:47.11Z</time></trkpt><trkpt lat="44.6451707" lon="7.9542454"><ele>222.14285714285717</ele><time>2026-04-11T07:23:49.111Z</time></trkpt><trkpt lat="44.6452184" lon="7.9543246"><ele>221.0</ele><time>2026-04-11T07:23:51.11Z</time></trkpt><trkpt lat="44.6452798" lon="7.9543999"><ele>220.4</ele><time>2026-04-11T07:23:53.11Z</time></trkpt><trkpt lat="44.6453566" lon="7.9544622"><ele>219.8</ele><time>2026-04-11T07:23:55.111Z</time></trkpt><trkpt lat="44.6454361" lon="7.9545246"><ele>219.20000000000002</ele><time>2026-04-11T07:23:57.111Z</time></trkpt><trkpt lat="44.6455209" lon="7.9545849"><ele>218.60000000000002</ele><time>2026-04-11T07:23:59.11Z</time></trkpt><trkpt lat="44.6456088" lon="7.9546534"><ele>218.0</ele><time>2026-04-11T07:24:01.111Z</time></trkpt><trkpt lat="44.6457045" lon="7.9547205"><ele>218.0</ele><time>2026-04-11T07:24:03.111Z</time></trkpt><trkpt lat="44.6458" lon="7.9547913"><ele>218.0</ele><time>2026-04-11T07:24:05.111Z</time></trkpt><trkpt lat="44.6458913" lon="7.9548635"><ele>218.0</ele><time>2026-04-11T07:24:07.11Z</time></trkpt><trkpt lat="44.6459807" lon="7.954943"><ele>218.0</ele><time>2026-04-11T07:24:09.111Z</time></trkpt><trkpt lat="44.6460668" lon="7.9550161"><ele>218.0</ele><time>2026-04-11T07:24:11.11Z</time></trkpt><trkpt lat="44.6461523" lon="7.9550875"><ele>217.0</ele><time>2026-04-11T07:24:13.111Z</time></trkpt><trkpt lat="44.6462431" lon="7.9551644"><ele>216.0</ele><time>2026-04-11T07:24:15.111Z</time></trkpt><trkpt lat="44.6463377" lon="7.9552436"><ele>215.0</ele><time>2026-04-11T07:24:17.11Z</time></trkpt><trkpt lat="44.6464313" lon="7.9553269"><ele>214.0</ele><time>2026-04-11T07:24:19.111Z</time></trkpt><trkpt lat="44.646518" lon="7.9554044"><ele>213.0</ele><time>2026-04-11T07:24:21.11Z</time></trkpt><trkpt lat="44.6465996" lon="7.9554632"><ele>213.0</ele><time>2026-04-11T07:24:23.111Z</time></trkpt><trkpt lat="44.6466761" lon="7.9555115"><ele>213.0</ele><time>2026-04-11T07:24:25.111Z</time></trkpt><trkpt lat="44.6467508" lon="7.9555676"><ele>213.0</ele><time>2026-04-11T07:24:27.11Z</time></trkpt><trkpt lat="44.6468363" lon="7.9556309"><ele>213.0</ele><time>2026-04-11T07:24:29.11Z</time></trkpt><trkpt lat="44.6469302" lon="7.955696"><ele>213.0</ele><time>2026-04-11T07:24:31.11Z</time></trkpt><trkpt lat="44.6470267" lon="7.9557589"><ele>213.0</ele><time>2026-04-11T07:24:33.111Z</time></trkpt><trkpt lat="44.6471102" lon="7.9558397"><ele>213.0</ele><time>2026-04-11T07:24:35.11Z</time></trkpt><trkpt lat="44.6471885" lon="7.9559289"><ele>213.0</ele><time>2026-04-11T07:24:37.111Z</time></trkpt><trkpt lat="44.6472658" lon="7.95602"><ele>213.0</ele><time>2026-04-11T07:24:39.11Z</time></trkpt><trkpt lat="44.6473379" lon="7.9561162"><ele>213.0</ele><time>2026-04-11T07:24:41.11Z</time></trkpt><trkpt lat="44.6474091" lon="7.9562039"><ele>213.0</ele><time>2026-04-11T07:24:43.11Z</time></trkpt><trkpt lat="44.6474821" lon="7.9562783"><ele>213.0</ele><time>2026-04-11T07:24:45.11Z</time></trkpt><trkpt lat="44.647548" lon="7.9563412"><ele>213.0</ele><time>2026-04-11T07:24:47.111Z</time></trkpt><trkpt lat="44.647606" lon="7.956395"><ele>213.0</ele><time>2026-04-11T07:24:49.11Z</time></trkpt><trkpt lat="44.6476825" lon="7.9564653"><ele>213.0</ele><time>2026-04-11T07:24:52.111Z</time></trkpt><trkpt lat="44.6477558" lon="7.9565346"><ele>213.0</ele><time>2026-04-11T07:24:55.111Z</time></trkpt><trkpt lat="44.6478298" lon="7.956616"><ele>212.66666666666666</ele><time>2026-04-11T07:24:58.111Z</time></trkpt><trkpt lat="44.6478807" lon="7.9566874"><ele>212.33333333333331</ele><time>2026-04-11T07:25:00.111Z</time></trkpt><trkpt lat="44.6479262" lon="7.9567793"><ele>212.0</ele><time>2026-04-11T07:25:02.111Z</time></trkpt><trkpt lat="44.6479608" lon="7.956879"><ele>211.66666666666666</ele><time>2026-04-11T07:25:04.111Z</time></trkpt><trkpt lat="44.6479874" lon="7.956983"><ele>211.33333333333331</ele><time>2026-04-11T07:25:06.111Z</time></trkpt><trkpt lat="44.6480074" lon="7.9570858"><ele>211.0</ele><time>2026-04-11T07:25:08.11Z</time></trkpt><trkpt lat="44.6480298" lon="7.9571898"><ele>210.49999999999997</ele><time>2026-04-11T07:25:10.11Z</time></trkpt><trkpt lat="44.6480495" lon="7.9572942"><ele>210.0</ele><time>2026-04-11T07:25:12.111Z</time></trkpt><trkpt lat="44.6480711" lon="7.9573997"><ele>209.5</ele><time>2026-04-11T07:25:14.111Z</time></trkpt><trkpt lat="44.6481029" lon="7.9574989"><ele>209.0</ele><time>2026-04-11T07:25:16.111Z</time></trkpt><trkpt lat="44.6481257" lon="7.9575956"><ele>208.49999999999997</ele><time>2026-04-11T07:25:18.111Z</time></trkpt><trkpt lat="44.6481516" lon="7.957683"><ele>208.0</ele><time>2026-04-11T07:25:20.111Z</time></trkpt><trkpt lat="44.6481827" lon="7.9578027"><ele>207.83333333333331</ele><time>2026-04-11T07:25:23.11Z</time></trkpt><trkpt lat="44.6482152" lon="7.9579306"><ele>207.66666666666666</ele><time>2026-04-11T07:25:26.11Z</time></trkpt><trkpt lat="44.6482488" lon="7.9580203"><ele>207.5</ele><time>2026-04-11T07:25:28.111Z</time></trkpt><trkpt lat="44.6482821" lon="7.9581086"><ele>207.33333333333331</ele><time>2026-04-11T07:25:30.111Z</time></trkpt><trkpt lat="44.6483262" lon="7.9582064"><ele>207.16666666666666</ele><time>2026-04-11T07:25:32.111Z</time></trkpt><trkpt lat="44.6483717" lon="7.9583257"><ele>207.0</ele><time>2026-04-11T07:25:34.11Z</time></trkpt><trkpt lat="44.6484141" lon="7.9584432"><ele>207.0</ele><time>2026-04-11T07:25:36.11Z</time></trkpt><trkpt lat="44.648457" lon="7.958561"><ele>207.0</ele><time>2026-04-11T07:25:38.111Z</time></trkpt><trkpt lat="44.6485017" lon="7.9586769"><ele>207.0</ele><time>2026-04-11T07:25:40.111Z</time></trkpt><trkpt lat="44.6485387" lon="7.9587938"><ele>207.0</ele><time>2026-04-11T07:25:42.111Z</time></trkpt><trkpt lat="44.6485774" lon="7.9589035"><ele>207.0</ele><time>2026-04-11T07:25:44.111Z</time></trkpt><trkpt lat="44.64861" lon="7.9589936"><ele>207.0</ele><time>2026-04-11T07:25:46.111Z</time></trkpt><trkpt lat="44.6486419" lon="7.9590855"><ele>207.00000000000003</ele><time>2026-04-11T07:25:48.11Z</time></trkpt><trkpt lat="44.6486719" lon="7.9591787"><ele>207.0</ele><time>2026-04-11T07:25:50.11Z</time></trkpt><trkpt lat="44.6487011" lon="7.9592744"><ele>207.0</ele><time>2026-04-11T07:25:52.111Z</time></trkpt><trkpt lat="44.6487288" lon="7.9593716"><ele>207.0</ele><time>2026-04-11T07:25:54.111Z</time></trkpt><trkpt lat="44.6487586" lon="7.959468"><ele>207.0</ele><time>2026-04-11T07:25:56.11Z</time></trkpt><trkpt lat="44.6487864" lon="7.95956"><ele>207.00000000000003</ele><time>2026-04-11T07:25:58.11Z</time></trkpt><trkpt lat="44.6488196" lon="7.9596419"><ele>207.0</ele><time>2026-04-11T07:26:00.111Z</time></trkpt><trkpt lat="44.6488725" lon="7.9597031"><ele>206.71428571428572</ele><time>2026-04-11T07:26:02.111Z</time></trkpt><trkpt lat="44.6489421" lon="7.9597105"><ele>206.42857142857144</ele><time>2026-04-11T07:26:04.11Z</time></trkpt><trkpt lat="44.649009" lon="7.9596839"><ele>206.14285714285717</ele><time>2026-04-11T07:26:06.111Z</time></trkpt><trkpt lat="44.6490747" lon="7.9596577"><ele>205.85714285714286</ele><time>2026-04-11T07:26:08.11Z</time></trkpt><trkpt lat="44.6491513" lon="7.9596217"><ele>205.57142857142856</ele><time>2026-04-11T07:26:10.111Z</time></trkpt><trkpt lat="44.6492236" lon="7.9595803"><ele>205.2857142857143</ele><time>2026-04-11T07:26:12.111Z</time></trkpt><trkpt lat="44.6492884" lon="7.9595532"><ele>205.0</ele><time>2026-04-11T07:26:14.111Z</time></trkpt><trkpt lat="44.6493702" lon="7.9595156"><ele>204.99999999999997</ele><time>2026-04-11T07:26:17.111Z</time></trkpt><trkpt lat="44.6494551" lon="7.9594784"><ele>205.0</ele><time>2026-04-11T07:26:20.111Z</time></trkpt><trkpt lat="44.6495384" lon="7.9594783"><ele>205.0</ele><time>2026-04-11T07:26:23.11Z</time></trkpt><trkpt lat="44.6496169" lon="7.9595381"><ele>205.0</ele><time>2026-04-11T07:26:26.111Z</time></trkpt><trkpt lat="44.6496535" lon="7.9596121"><ele>204.99999999999997</ele><time>2026-04-11T07:26:28.111Z</time></trkpt><trkpt lat="44.6496829" lon="7.9596996"><ele>205.0</ele><time>2026-04-11T07:26:30.111Z</time></trkpt><trkpt lat="44.6497107" lon="7.9597909"><ele>205.42857142857144</ele><time>2026-04-11T07:26:32.11Z</time></trkpt><trkpt lat="44.6497382" lon="7.9598825"><ele>205.85714285714283</ele><time>2026-04-11T07:26:34.111Z</time></trkpt><trkpt lat="44.6497674" lon="7.9599779"><ele>206.28571428571428</ele><time>2026-04-11T07:26:36.11Z</time></trkpt><trkpt lat="44.6497975" lon="7.9600718"><ele>206.71428571428572</ele><time>2026-04-11T07:26:38.111Z</time></trkpt><trkpt lat="44.6498311" lon="7.9601668"><ele>207.14285714285717</ele><time>2026-04-11T07:26:40.11Z</time></trkpt><trkpt lat="44.6498681" lon="7.9602537"><ele>207.57142857142856</ele><time>2026-04-11T07:26:42.111Z</time></trkpt><trkpt lat="44.6498967" lon="7.960342"><ele>208.0</ele><time>2026-04-11T07:26:44.111Z</time></trkpt><trkpt lat="44.649923" lon="7.960435"><ele>207.99999999999997</ele><time>2026-04-11T07:26:46.111Z</time></trkpt><trkpt lat="44.649951" lon="7.9605384"><ele>208.0</ele><time>2026-04-11T07:26:48.111Z</time></trkpt><trkpt lat="44.6499852" lon="7.9606357"><ele>208.0</ele><time>2026-04-11T07:26:50.11Z</time></trkpt><trkpt lat="44.6500123" lon="7.9607328"><ele>208.0</ele><time>2026-04-11T07:26:52.111Z</time></trkpt><trkpt lat="44.6500414" lon="7.9608326"><ele>207.99999999999997</ele><time>2026-04-11T07:26:54.111Z</time></trkpt><trkpt lat="44.6500727" lon="7.9609422"><ele>208.0</ele><time>2026-04-11T07:26:56.11Z</time></trkpt><trkpt lat="44.6501106" lon="7.9610637"><ele>207.0</ele><time>2026-04-11T07:26:58.11Z</time></trkpt><trkpt lat="44.6501495" lon="7.9611906"><ele>206.0</ele><time>2026-04-11T07:27:00.111Z</time></trkpt><trkpt lat="44.6501848" lon="7.9613143"><ele>205.0</ele><time>2026-04-11T07:27:02.11Z</time></trkpt><trkpt lat="44.6502158" lon="7.9614343"><ele>204.0</ele><time>2026-04-11T07:27:04.111Z</time></trkpt><trkpt lat="44.6502533" lon="7.9615539"><ele>203.0</ele><time>2026-04-11T07:27:06.11Z</time></trkpt><trkpt lat="44.6502882" lon="7.9616604"><ele>205.33333333333334</ele><time>2026-04-11T07:27:08.11Z</time></trkpt><trkpt lat="44.650319" lon="7.9617712"><ele>207.66666666666669</ele><time>2026-04-11T07:27:10.111Z</time></trkpt><trkpt lat="44.6503412" lon="7.9618816"><ele>210.0</ele><time>2026-04-11T07:27:12.111Z</time></trkpt><trkpt lat="44.6503696" lon="7.9619878"><ele>212.33333333333331</ele><time>2026-04-11T07:27:14.111Z</time></trkpt><trkpt lat="44.6503987" lon="7.9620902"><ele>214.66666666666666</ele><time>2026-04-11T07:27:16.111Z</time></trkpt><trkpt lat="44.6504252" lon="7.9621932"><ele>217.0</ele><time>2026-04-11T07:27:18.111Z</time></trkpt><trkpt lat="44.65045" lon="7.9622981"><ele>217.0</ele><time>2026-04-11T07:27:20.11Z</time></trkpt><trkpt lat="44.6504703" lon="7.9624005"><ele>217.0</ele><time>2026-04-11T07:27:22.111Z</time></trkpt><trkpt lat="44.650488" lon="7.9625018"><ele>217.0</ele><time>2026-04-11T07:27:24.111Z</time></trkpt><trkpt lat="44.6504993" lon="7.9625996"><ele>217.0</ele><time>2026-04-11T07:27:26.11Z</time></trkpt><trkpt lat="44.650511" lon="7.9626914"><ele>217.0</ele><time>2026-04-11T07:27:28.111Z</time></trkpt><trkpt lat="44.6505202" lon="7.9627803"><ele>217.0</ele><time>2026-04-11T07:27:30.11Z</time></trkpt><trkpt lat="44.6505262" lon="7.9628702"><ele>217.0</ele><time>2026-04-11T07:27:32.111Z</time></trkpt><trkpt lat="44.650538" lon="7.9629616"><ele>216.28571428571428</ele><time>2026-04-11T07:27:34.11Z</time></trkpt><trkpt lat="44.650552" lon="7.9630537"><ele>215.57142857142856</ele><time>2026-04-11T07:27:36.11Z</time></trkpt><trkpt lat="44.6505683" lon="7.9631493"><ele>214.85714285714286</ele><time>2026-04-11T07:27:38.11Z</time></trkpt><trkpt lat="44.650587" lon="7.9632474"><ele>214.14285714285714</ele><time>2026-04-11T07:27:40.11Z</time></trkpt><trkpt lat="44.6506065" lon="7.9633454"><ele>213.42857142857142</ele><time>2026-04-11T07:27:42.11Z</time></trkpt><trkpt lat="44.6506307" lon="7.963445"><ele>212.71428571428572</ele><time>2026-04-11T07:27:44.11Z</time></trkpt><trkpt lat="44.6506617" lon="7.9635419"><ele>212.0</ele><time>2026-04-11T07:27:46.111Z</time></trkpt><trkpt lat="44.6507023" lon="7.9636297"><ele>210.39999999999998</ele><time>2026-04-11T07:27:48.11Z</time></trkpt><trkpt lat="44.6507394" lon="7.9637142"><ele>208.79999999999998</ele><time>2026-04-11T07:27:50.111Z</time></trkpt><trkpt lat="44.6507879" lon="7.9638004"><ele>207.2</ele><time>2026-04-11T07:27:52.111Z</time></trkpt><trkpt lat="44.6508575" lon="7.9638991"><ele>205.6</ele><time>2026-04-11T07:27:54.111Z</time></trkpt><trkpt lat="44.6509388" lon="7.9640049"><ele>204.0</ele><time>2026-04-11T07:27:56.111Z</time></trkpt><trkpt lat="44.6510277" lon="7.964122"><ele>204.0</ele><time>2026-04-11T07:27:58.111Z</time></trkpt><trkpt lat="44.6510736" lon="7.964187"><ele>204.0</ele><time>2026-04-11T07:27:59.111Z</time></trkpt><trkpt lat="44.6511263" lon="7.9642488"><ele>204.0</ele><time>2026-04-11T07:28:00.111Z</time></trkpt><trkpt lat="44.6511736" lon="7.9643097"><ele>204.0</ele><time>2026-04-11T07:28:01.111Z</time></trkpt><trkpt lat="44.6512693" lon="7.964421"><ele>204.0</ele><time>2026-04-11T07:28:03.111Z</time></trkpt><trkpt lat="44.6513568" lon="7.964532"><ele>204.0</ele><time>2026-04-11T07:28:05.111Z</time></trkpt><trkpt lat="44.6514374" lon="7.9646339"><ele>204.33333333333334</ele><time>2026-04-11T07:28:07.11Z</time></trkpt><trkpt lat="44.6515217" lon="7.964745"><ele>204.66666666666669</ele><time>2026-04-11T07:28:09.11Z</time></trkpt><trkpt lat="44.6516138" lon="7.9648647"><ele>205.0</ele><time>2026-04-11T07:28:11.111Z</time></trkpt><trkpt lat="44.651659" lon="7.9649296"><ele>205.33333333333334</ele><time>2026-04-11T07:28:12.11Z</time></trkpt><trkpt lat="44.6517048" lon="7.9650043"><ele>205.66666666666669</ele><time>2026-04-11T07:28:13.111Z</time></trkpt><trkpt lat="44.6517481" lon="7.9650784"><ele>206.0</ele><time>2026-04-11T07:28:14.11Z</time></trkpt><trkpt lat="44.6517923" lon="7.9651514"><ele>206.33333333333334</ele><time>2026-04-11T07:28:15.11Z</time></trkpt><trkpt lat="44.651836" lon="7.9652245"><ele>206.66666666666669</ele><time>2026-04-11T07:28:16.111Z</time></trkpt><trkpt lat="44.6518815" lon="7.9652944"><ele>207.0</ele><time>2026-04-11T07:28:17.11Z</time></trkpt><trkpt lat="44.6519255" lon="7.9653626"><ele>207.33333333333331</ele><time>2026-04-11T07:28:18.111Z</time></trkpt><trkpt lat="44.6519692" lon="7.9654347"><ele>207.66666666666666</ele><time>2026-04-11T07:28:19.111Z</time></trkpt><trkpt lat="44.6520138" lon="7.9655017"><ele>208.0</ele><time>2026-04-11T07:28:20.11Z</time></trkpt><trkpt lat="44.6521008" lon="7.9656206"><ele>208.0</ele><time>2026-04-11T07:28:22.111Z</time></trkpt><trkpt lat="44.6521484" lon="7.9656793"><ele>208.0</ele><time>2026-04-11T07:28:23.11Z</time></trkpt><trkpt lat="44.6522331" lon="7.9657827"><ele>208.0</ele><time>2026-04-11T07:28:25.111Z</time></trkpt><trkpt lat="44.6523203" lon="7.9658785"><ele>208.0</ele><time>2026-04-11T07:28:27.111Z</time></trkpt><trkpt lat="44.6524045" lon="7.9659821"><ele>208.0</ele><time>2026-04-11T07:28:29.111Z</time></trkpt><trkpt lat="44.6524726" lon="7.9661163"><ele>205.0</ele><time>2026-04-11T07:28:31.111Z</time></trkpt><trkpt lat="44.6525198" lon="7.9662724"><ele>202.0</ele><time>2026-04-11T07:28:33.11Z</time></trkpt><trkpt lat="44.6525526" lon="7.9664291"><ele>199.0</ele><time>2026-04-11T07:28:35.11Z</time></trkpt><trkpt lat="44.6525807" lon="7.9665985"><ele>196.0</ele><time>2026-04-11T07:28:37.111Z</time></trkpt><trkpt lat="44.6526206" lon="7.9667624"><ele>195.25</ele><time>2026-04-11T07:28:39.11Z</time></trkpt><trkpt lat="44.6526733" lon="7.9669164"><ele>194.5</ele><time>2026-04-11T07:28:41.111Z</time></trkpt><trkpt lat="44.6527367" lon="7.9670594"><ele>193.75</ele><time>2026-04-11T07:28:43.111Z</time></trkpt><trkpt lat="44.6527885" lon="7.9672031"><ele>193.0</ele><time>2026-04-11T07:28:45.11Z</time></trkpt><trkpt lat="44.6528402" lon="7.9673353"><ele>192.99999999999997</ele><time>2026-04-11T07:28:47.11Z</time></trkpt><trkpt lat="44.6528925" lon="7.9674568"><ele>193.0</ele><time>2026-04-11T07:28:49.111Z</time></trkpt><trkpt lat="44.6529383" lon="7.9675724"><ele>193.0</ele><time>2026-04-11T07:28:51.111Z</time></trkpt><trkpt lat="44.6529848" lon="7.9676838"><ele>193.0</ele><time>2026-04-11T07:28:53.111Z</time></trkpt><trkpt lat="44.6530336" lon="7.9677837"><ele>192.99999999999997</ele><time>2026-04-11T07:28:55.111Z</time></trkpt><trkpt lat="44.6530799" lon="7.9678567"><ele>193.0</ele><time>2026-04-11T07:28:57.11Z</time></trkpt><trkpt lat="44.6531283" lon="7.9679279"><ele>193.00000000000003</ele><time>2026-04-11T07:29:01.111Z</time></trkpt><trkpt lat="44.653193" lon="7.9679745"><ele>193.0</ele><time>2026-04-11T07:29:05.11Z</time></trkpt><trkpt lat="44.6532569" lon="7.9680095"><ele>193.0</ele><time>2026-04-11T07:29:08.111Z</time></trkpt><trkpt lat="44.6533386" lon="7.968031"><ele>193.0</ele><time>2026-04-11T07:29:12.111Z</time></trkpt><trkpt lat="44.653416" lon="7.9680347"><ele>193.0</ele><time>2026-04-11T07:29:16.111Z</time></trkpt><trkpt lat="44.6534942" lon="7.9680224"><ele>193.00000000000003</ele><time>2026-04-11T07:29:20.11Z</time></trkpt><trkpt lat="44.6535625" lon="7.9680355"><ele>193.0</ele><time>2026-04-11T07:29:23.11Z</time></trkpt><trkpt lat="44.6536458" lon="7.9680447"><ele>192.85714285714286</ele><time>2026-04-11T07:29:26.11Z</time></trkpt><trkpt lat="44.6537239" lon="7.9680699"><ele>192.71428571428572</ele><time>2026-04-11T07:29:29.111Z</time></trkpt><trkpt lat="44.6537948" lon="7.9681067"><ele>192.57142857142856</ele><time>2026-04-11T07:29:32.11Z</time></trkpt><trkpt lat="44.6538573" lon="7.968151"><ele>192.42857142857144</ele><time>2026-04-11T07:29:35.111Z</time></trkpt><trkpt lat="44.6539263" lon="7.9681815"><ele>192.28571428571428</ele><time>2026-04-11T07:29:38.111Z</time></trkpt><trkpt lat="44.6539965" lon="7.9682001"><ele>192.14285714285714</ele><time>2026-04-11T07:29:41.111Z</time></trkpt><trkpt lat="44.6540669" lon="7.9681919"><ele>192.0</ele><time>2026-04-11T07:29:44.111Z</time></trkpt><trkpt lat="44.6541325" lon="7.968163"><ele>192.0</ele><time>2026-04-11T07:29:47.111Z</time></trkpt><trkpt lat="44.6541887" lon="7.9681173"><ele>192.0</ele><time>2026-04-11T07:29:50.11Z</time></trkpt><trkpt lat="44.6542413" lon="7.9680527"><ele>192.0</ele><time>2026-04-11T07:29:53.111Z</time></trkpt><trkpt lat="44.6543029" lon="7.9679726"><ele>192.0</ele><time>2026-04-11T07:29:56.111Z</time></trkpt><trkpt lat="44.6543626" lon="7.9678808"><ele>192.0</ele><time>2026-04-11T07:29:59.11Z</time></trkpt><trkpt lat="44.6544321" lon="7.9678088"><ele>192.0</ele><time>2026-04-11T07:30:02.11Z</time></trkpt><trkpt lat="44.6545023" lon="7.9678339"><ele>192.0</ele><time>2026-04-11T07:30:05.111Z</time></trkpt><trkpt lat="44.654531" lon="7.9679136"><ele>192.0</ele><time>2026-04-11T07:30:08.11Z</time></trkpt><trkpt lat="44.6545274" lon="7.9680034"><ele>192.0</ele><time>2026-04-11T07:30:13.111Z</time></trkpt><trkpt lat="44.6545033" lon="7.9680982"><ele>192.0</ele><time>2026-04-11T07:30:47.11Z</time></trkpt><trkpt lat="44.6544621" lon="7.9681916"><ele>192.0</ele><time>2026-04-11T07:30:50.111Z</time></trkpt><trkpt lat="44.6544198" lon="7.9682967"><ele>192.0</ele><time>2026-04-11T07:30:53.111Z</time></trkpt><trkpt lat="44.6543764" lon="7.9684096"><ele>192.14285714285714</ele><time>2026-04-11T07:30:56.111Z</time></trkpt><trkpt lat="44.6543387" lon="7.9685298"><ele>192.28571428571428</ele><time>2026-04-11T07:30:59.111Z</time></trkpt><trkpt lat="44.6543169" lon="7.9686155"><ele>192.42857142857144</ele><time>2026-04-11T07:31:01.11Z</time></trkpt><trkpt lat="44.6542952" lon="7.9687061"><ele>192.57142857142856</ele><time>2026-04-11T07:31:03.11Z</time></trkpt><trkpt lat="44.6542764" lon="7.9688016"><ele>192.71428571428572</ele><time>2026-04-11T07:31:05.11Z</time></trkpt><trkpt lat="44.6542604" lon="7.968896"><ele>192.85714285714286</ele><time>2026-04-11T07:31:07.111Z</time></trkpt><trkpt lat="44.6542453" lon="7.9689924"><ele>193.0</ele><time>2026-04-11T07:31:09.11Z</time></trkpt><trkpt lat="44.654232" lon="7.969089"><ele>193.00000000000003</ele><time>2026-04-11T07:31:11.111Z</time></trkpt><trkpt lat="44.654217" lon="7.9691888"><ele>193.0</ele><time>2026-04-11T07:31:13.11Z</time></trkpt><trkpt lat="44.6542011" lon="7.9692889"><ele>193.0</ele><time>2026-04-11T07:31:15.111Z</time></trkpt><trkpt lat="44.6541869" lon="7.9693883"><ele>193.0</ele><time>2026-04-11T07:31:17.111Z</time></trkpt><trkpt lat="44.6541715" lon="7.969488"><ele>193.0</ele><time>2026-04-11T07:31:19.111Z</time></trkpt><trkpt lat="44.6541573" lon="7.9695875"><ele>193.00000000000003</ele><time>2026-04-11T07:31:21.11Z</time></trkpt><trkpt lat="44.6541386" lon="7.9696887"><ele>193.0</ele><time>2026-04-11T07:31:23.11Z</time></trkpt><trkpt lat="44.6541198" lon="7.9697868"><ele>192.85714285714286</ele><time>2026-04-11T07:31:25.111Z</time></trkpt><trkpt lat="44.6541003" lon="7.9698859"><ele>192.71428571428572</ele><time>2026-04-11T07:31:27.111Z</time></trkpt><trkpt lat="44.6540835" lon="7.9699866"><ele>192.57142857142856</ele><time>2026-04-11T07:31:29.11Z</time></trkpt><trkpt lat="44.6540687" lon="7.9700899"><ele>192.42857142857144</ele><time>2026-04-11T07:31:31.111Z</time></trkpt><trkpt lat="44.6540504" lon="7.9701915"><ele>192.28571428571428</ele><time>2026-04-11T07:31:33.11Z</time></trkpt><trkpt lat="44.6540355" lon="7.9702928"><ele>192.14285714285714</ele><time>2026-04-11T07:31:35.111Z</time></trkpt><trkpt lat="44.6540173" lon="7.970394"><ele>192.0</ele><time>2026-04-11T07:31:37.111Z</time></trkpt><trkpt lat="44.6540025" lon="7.9704965"><ele>192.0</ele><time>2026-04-11T07:31:39.111Z</time></trkpt><trkpt lat="44.6539832" lon="7.9705968"><ele>192.0</ele><time>2026-04-11T07:31:41.11Z</time></trkpt><trkpt lat="44.6539666" lon="7.9707008"><ele>192.0</ele><time>2026-04-11T07:31:43.11Z</time></trkpt><trkpt lat="44.6539525" lon="7.9708084"><ele>192.0</ele><time>2026-04-11T07:31:45.111Z</time></trkpt><trkpt lat="44.6539384" lon="7.9709148"><ele>192.0</ele><time>2026-04-11T07:31:47.11Z</time></trkpt><trkpt lat="44.6539247" lon="7.9710204"><ele>192.0</ele><time>2026-04-11T07:31:49.111Z</time></trkpt><trkpt lat="44.653907" lon="7.9711251"><ele>191.83333333333334</ele><time>2026-04-11T07:31:51.11Z</time></trkpt><trkpt lat="44.6538939" lon="7.9712306"><ele>191.66666666666666</ele><time>2026-04-11T07:31:53.111Z</time></trkpt><trkpt lat="44.6538833" lon="7.9713369"><ele>191.5</ele><time>2026-04-11T07:31:55.111Z</time></trkpt><trkpt lat="44.6538723" lon="7.9714456"><ele>191.33333333333331</ele><time>2026-04-11T07:31:57.111Z</time></trkpt><trkpt lat="44.6538619" lon="7.9715544"><ele>191.16666666666666</ele><time>2026-04-11T07:31:59.111Z</time></trkpt><trkpt lat="44.6538509" lon="7.971661"><ele>191.0</ele><time>2026-04-11T07:32:01.111Z</time></trkpt><trkpt lat="44.6538432" lon="7.9717704"><ele>191.0</ele><time>2026-04-11T07:32:03.111Z</time></trkpt><trkpt lat="44.6538357" lon="7.971875"><ele>191.0</ele><time>2026-04-11T07:32:05.111Z</time></trkpt><trkpt lat="44.6538345" lon="7.9719789"><ele>191.0</ele><time>2026-04-11T07:32:07.111Z</time></trkpt><trkpt lat="44.6538274" lon="7.972085"><ele>191.0</ele><time>2026-04-11T07:32:09.111Z</time></trkpt><trkpt lat="44.6538241" lon="7.9721922"><ele>191.0</ele><time>2026-04-11T07:32:11.11Z</time></trkpt><trkpt lat="44.653824" lon="7.9722999"><ele>191.0</ele><time>2026-04-11T07:32:13.111Z</time></trkpt><trkpt lat="44.6538271" lon="7.9724078"><ele>191.0</ele><time>2026-04-11T07:32:15.111Z</time></trkpt><trkpt lat="44.6538277" lon="7.9725217"><ele>191.0</ele><time>2026-04-11T07:32:17.11Z</time></trkpt><trkpt lat="44.6538321" lon="7.9726404"><ele>191.0</ele><time>2026-04-11T07:32:19.11Z</time></trkpt><trkpt lat="44.6538363" lon="7.972762"><ele>191.0</ele><time>2026-04-11T07:32:21.111Z</time></trkpt><trkpt lat="44.6538442" lon="7.972881"><ele>191.0</ele><time>2026-04-11T07:32:23.111Z</time></trkpt><trkpt lat="44.6538525" lon="7.972991"><ele>191.0</ele><time>2026-04-11T07:32:25.11Z</time></trkpt><trkpt lat="44.6538652" lon="7.9730952"><ele>191.5</ele><time>2026-04-11T07:32:27.11Z</time></trkpt><trkpt lat="44.6538756" lon="7.9732031"><ele>192.0</ele><time>2026-04-11T07:32:29.111Z</time></trkpt><trkpt lat="44.65389" lon="7.9733131"><ele>192.5</ele><time>2026-04-11T07:32:31.111Z</time></trkpt><trkpt lat="44.6539026" lon="7.9734258"><ele>193.0</ele><time>2026-04-11T07:32:33.111Z</time></trkpt><trkpt lat="44.653918" lon="7.973542"><ele>193.50000000000003</ele><time>2026-04-11T07:32:35.11Z</time></trkpt><trkpt lat="44.6539334" lon="7.9736584"><ele>194.0</ele><time>2026-04-11T07:32:37.111Z</time></trkpt><trkpt lat="44.6539476" lon="7.9737757"><ele>194.16666666666669</ele><time>2026-04-11T07:32:39.111Z</time></trkpt><trkpt lat="44.6539599" lon="7.9738954"><ele>194.33333333333334</ele><time>2026-04-11T07:32:41.111Z</time></trkpt><trkpt lat="44.6539728" lon="7.9740081"><ele>194.5</ele><time>2026-04-11T07:32:43.11Z</time></trkpt><trkpt lat="44.653987" lon="7.9741164"><ele>194.66666666666669</ele><time>2026-04-11T07:32:45.111Z</time></trkpt><trkpt lat="44.6540011" lon="7.9742283"><ele>194.83333333333334</ele><time>2026-04-11T07:32:47.111Z</time></trkpt><trkpt lat="44.6540127" lon="7.9743427"><ele>195.0</ele><time>2026-04-11T07:32:49.111Z</time></trkpt><trkpt lat="44.6540262" lon="7.9744585"><ele>194.66666666666666</ele><time>2026-04-11T07:32:51.111Z</time></trkpt><trkpt lat="44.6540394" lon="7.9745761"><ele>194.33333333333331</ele><time>2026-04-11T07:32:53.111Z</time></trkpt><trkpt lat="44.6540543" lon="7.9746962"><ele>194.0</ele><time>2026-04-11T07:32:55.11Z</time></trkpt><trkpt lat="44.6540715" lon="7.9748166"><ele>193.66666666666666</ele><time>2026-04-11T07:32:57.111Z</time></trkpt><trkpt lat="44.6540842" lon="7.9749387"><ele>193.33333333333331</ele><time>2026-04-11T07:32:59.111Z</time></trkpt><trkpt lat="44.654099" lon="7.9750682"><ele>193.0</ele><time>2026-04-11T07:33:01.111Z</time></trkpt><trkpt lat="44.6541152" lon="7.9751967"><ele>192.83333333333331</ele><time>2026-04-11T07:33:03.111Z</time></trkpt><trkpt lat="44.6541303" lon="7.9753129"><ele>192.66666666666666</ele><time>2026-04-11T07:33:05.11Z</time></trkpt><trkpt lat="44.6541452" lon="7.9754351"><ele>192.5</ele><time>2026-04-11T07:33:07.11Z</time></trkpt><trkpt lat="44.6541627" lon="7.9755594"><ele>192.33333333333331</ele><time>2026-04-11T07:33:09.11Z</time></trkpt><trkpt lat="44.6541757" lon="7.9756848"><ele>192.16666666666666</ele><time>2026-04-11T07:33:11.111Z</time></trkpt><trkpt lat="44.6541898" lon="7.9758075"><ele>192.0</ele><time>2026-04-11T07:33:13.111Z</time></trkpt><trkpt lat="44.6542021" lon="7.9759202"><ele>192.0</ele><time>2026-04-11T07:33:15.11Z</time></trkpt><trkpt lat="44.6542186" lon="7.9760279"><ele>192.0</ele><time>2026-04-11T07:33:17.11Z</time></trkpt><trkpt lat="44.6542359" lon="7.9761384"><ele>192.0</ele><time>2026-04-11T07:33:19.111Z</time></trkpt><trkpt lat="44.6542516" lon="7.9762562"><ele>192.0</ele><time>2026-04-11T07:33:21.111Z</time></trkpt><trkpt lat="44.6542664" lon="7.9763735"><ele>192.0</ele><time>2026-04-11T07:33:23.111Z</time></trkpt><trkpt lat="44.6542837" lon="7.9764914"><ele>192.0</ele><time>2026-04-11T07:33:25.11Z</time></trkpt><trkpt lat="44.6542943" lon="7.9766146"><ele>192.33333333333334</ele><time>2026-04-11T07:33:27.111Z</time></trkpt><trkpt lat="44.6543071" lon="7.9767336"><ele>192.66666666666669</ele><time>2026-04-11T07:33:29.11Z</time></trkpt><trkpt lat="44.6543089" lon="7.9768548"><ele>193.0</ele><time>2026-04-11T07:33:31.11Z</time></trkpt><trkpt lat="44.6543334" lon="7.9769875"><ele>193.33333333333334</ele><time>2026-04-11T07:33:33.111Z</time></trkpt><trkpt lat="44.6543496" lon="7.9771128"><ele>193.66666666666669</ele><time>2026-04-11T07:33:35.111Z</time></trkpt><trkpt lat="44.6543648" lon="7.9772262"><ele>194.0</ele><time>2026-04-11T07:33:37.111Z</time></trkpt><trkpt lat="44.65438" lon="7.9773402"><ele>194.00000000000003</ele><time>2026-04-11T07:33:39.111Z</time></trkpt><trkpt lat="44.654399" lon="7.9774546"><ele>194.0</ele><time>2026-04-11T07:33:41.111Z</time></trkpt><trkpt lat="44.6544177" lon="7.9775702"><ele>194.0</ele><time>2026-04-11T07:33:43.11Z</time></trkpt><trkpt lat="44.6544316" lon="7.9776811"><ele>194.0</ele><time>2026-04-11T07:33:45.111Z</time></trkpt><trkpt lat="44.6544436" lon="7.9777921"><ele>194.00000000000003</ele><time>2026-04-11T07:33:47.11Z</time></trkpt><trkpt lat="44.6544578" lon="7.9779079"><ele>194.0</ele><time>2026-04-11T07:33:49.111Z</time></trkpt><trkpt lat="44.6544688" lon="7.9780226"><ele>193.83333333333334</ele><time>2026-04-11T07:33:51.11Z</time></trkpt><trkpt lat="44.6544828" lon="7.9781353"><ele>193.66666666666669</ele><time>2026-04-11T07:33:53.11Z</time></trkpt><trkpt lat="44.6544954" lon="7.9782484"><ele>193.5</ele><time>2026-04-11T07:33:55.111Z</time></trkpt><trkpt lat="44.6545102" lon="7.9783673"><ele>193.33333333333331</ele><time>2026-04-11T07:33:57.111Z</time></trkpt><trkpt lat="44.6545268" lon="7.9784859"><ele>193.16666666666666</ele><time>2026-04-11T07:33:59.111Z</time></trkpt><trkpt lat="44.6545422" lon="7.9786064"><ele>193.0</ele><time>2026-04-11T07:34:01.111Z</time></trkpt><trkpt lat="44.6545567" lon="7.9787213"><ele>192.85714285714286</ele><time>2026-04-11T07:34:03.111Z</time></trkpt><trkpt lat="44.6545694" lon="7.9788302"><ele>192.71428571428572</ele><time>2026-04-11T07:34:05.111Z</time></trkpt><trkpt lat="44.6545816" lon="7.9789384"><ele>192.57142857142856</ele><time>2026-04-11T07:34:07.11Z</time></trkpt><trkpt lat="44.6545933" lon="7.9790412"><ele>192.42857142857144</ele><time>2026-04-11T07:34:09.111Z</time></trkpt><trkpt lat="44.6545987" lon="7.9791402"><ele>192.28571428571428</ele><time>2026-04-11T07:34:11.11Z</time></trkpt><trkpt lat="44.6546141" lon="7.9792372"><ele>192.14285714285714</ele><time>2026-04-11T07:34:13.111Z</time></trkpt><trkpt lat="44.6546308" lon="7.9793331"><ele>192.0</ele><time>2026-04-11T07:34:15.111Z</time></trkpt><trkpt lat="44.6546478" lon="7.979426"><ele>191.99999999999997</ele><time>2026-04-11T07:34:17.111Z</time></trkpt><trkpt lat="44.654659" lon="7.9795204"><ele>192.0</ele><time>2026-04-11T07:34:19.111Z</time></trkpt><trkpt lat="44.6546745" lon="7.9796147"><ele>192.0</ele><time>2026-04-11T07:34:21.11Z</time></trkpt><trkpt lat="44.6546859" lon="7.9797315"><ele>192.0</ele><time>2026-04-11T07:34:24.111Z</time></trkpt><trkpt lat="44.6546893" lon="7.9798199"><ele>192.0</ele><time>2026-04-11T07:34:27.111Z</time></trkpt><trkpt lat="44.6546309" lon="7.9798598"><ele>191.99999999999997</ele><time>2026-04-11T07:37:38.111Z</time></trkpt><trkpt lat="44.6545585" lon="7.9798874"><ele>192.0</ele><time>2026-04-11T07:37:51.111Z</time></trkpt><trkpt lat="44.6544821" lon="7.9798576"><ele>192.33333333333334</ele><time>2026-04-11T07:37:55.111Z</time></trkpt><trkpt lat="44.6544009" lon="7.9798195"><ele>192.66666666666669</ele><time>2026-04-11T07:37:59.111Z</time></trkpt><trkpt lat="44.6543199" lon="7.9797732"><ele>193.0</ele><time>2026-04-11T07:38:02.111Z</time></trkpt><trkpt lat="44.6542286" lon="7.9797352"><ele>193.33333333333334</ele><time>2026-04-11T07:38:05.11Z</time></trkpt><trkpt lat="44.6541672" lon="7.9797055"><ele>193.66666666666669</ele><time>2026-04-11T07:38:07.111Z</time></trkpt><trkpt lat="44.6541065" lon="7.9796735"><ele>194.0</ele><time>2026-04-11T07:38:09.111Z</time></trkpt><trkpt lat="44.6540407" lon="7.9796432"><ele>194.0</ele><time>2026-04-11T07:38:11.11Z</time></trkpt><trkpt lat="44.6539727" lon="7.9796101"><ele>194.0</ele><time>2026-04-11T07:38:13.11Z</time></trkpt><trkpt lat="44.6539016" lon="7.9795796"><ele>194.0</ele><time>2026-04-11T07:38:15.11Z</time></trkpt><trkpt lat="44.6538306" lon="7.9795471"><ele>194.0</ele><time>2026-04-11T07:38:17.11Z</time></trkpt><trkpt lat="44.6537603" lon="7.979515"><ele>194.0</ele><time>2026-04-11T07:38:19.11Z</time></trkpt><trkpt lat="44.6536937" lon="7.9794779"><ele>194.0</ele><time>2026-04-11T07:38:21.11Z</time></trkpt><trkpt lat="44.6536235" lon="7.9794461"><ele>194.0</ele><time>2026-04-11T07:38:23.111Z</time></trkpt><trkpt lat="44.653549" lon="7.979415"><ele>194.33333333333334</ele><time>2026-04-11T07:38:25.111Z</time></trkpt><trkpt lat="44.6534731" lon="7.9793858"><ele>194.66666666666669</ele><time>2026-04-11T07:38:27.11Z</time></trkpt><trkpt lat="44.6534016" lon="7.979357"><ele>195.0</ele><time>2026-04-11T07:38:29.111Z</time></trkpt><trkpt lat="44.6533331" lon="7.9793259"><ele>195.33333333333331</ele><time>2026-04-11T07:38:31.111Z</time></trkpt><trkpt lat="44.6532626" lon="7.9792927"><ele>195.66666666666666</ele><time>2026-04-11T07:38:33.111Z</time></trkpt><trkpt lat="44.6531893" lon="7.9792635"><ele>196.0</ele><time>2026-04-11T07:38:35.111Z</time></trkpt><trkpt lat="44.6531209" lon="7.9792168"><ele>196.0</ele><time>2026-04-11T07:38:37.111Z</time></trkpt><trkpt lat="44.6530482" lon="7.9791842"><ele>196.0</ele><time>2026-04-11T07:38:39.111Z</time></trkpt><trkpt lat="44.6529799" lon="7.9791495"><ele>196.0</ele><time>2026-04-11T07:38:41.111Z</time></trkpt><trkpt lat="44.652914" lon="7.9791171"><ele>196.0</ele><time>2026-04-11T07:38:43.111Z</time></trkpt><trkpt lat="44.6528479" lon="7.9790888"><ele>196.0</ele><time>2026-04-11T07:38:45.11Z</time></trkpt><trkpt lat="44.6527817" lon="7.9790609"><ele>196.0</ele><time>2026-04-11T07:38:47.111Z</time></trkpt><trkpt lat="44.6527156" lon="7.9790264"><ele>196.0</ele><time>2026-04-11T07:38:49.111Z</time></trkpt><trkpt lat="44.652645" lon="7.9790055"><ele>196.0</ele><time>2026-04-11T07:38:51.111Z</time></trkpt><trkpt lat="44.6525751" lon="7.9789837"><ele>196.0</ele><time>2026-04-11T07:38:53.111Z</time></trkpt><trkpt lat="44.6525057" lon="7.9789626"><ele>196.0</ele><time>2026-04-11T07:38:55.111Z</time></trkpt><trkpt lat="44.6524354" lon="7.9789382"><ele>196.0</ele><time>2026-04-11T07:38:57.11Z</time></trkpt><trkpt lat="44.6523639" lon="7.9789122"><ele>196.0</ele><time>2026-04-11T07:38:59.11Z</time></trkpt><trkpt lat="44.652293" lon="7.97889"><ele>196.0</ele><time>2026-04-11T07:39:01.111Z</time></trkpt><trkpt lat="44.6522204" lon="7.9788761"><ele>196.0</ele><time>2026-04-11T07:39:03.111Z</time></trkpt><trkpt lat="44.6521459" lon="7.9788662"><ele>196.0</ele><time>2026-04-11T07:39:05.111Z</time></trkpt><trkpt lat="44.652071" lon="7.978871"><ele>196.0</ele><time>2026-04-11T07:39:07.11Z</time></trkpt><trkpt lat="44.6519992" lon="7.9788905"><ele>196.0</ele><time>2026-04-11T07:39:09.111Z</time></trkpt><trkpt lat="44.6519291" lon="7.9789139"><ele>196.0</ele><time>2026-04-11T07:39:11.111Z</time></trkpt><trkpt lat="44.6518616" lon="7.9789476"><ele>196.0</ele><time>2026-04-11T07:39:13.111Z</time></trkpt><trkpt lat="44.6517941" lon="7.9789825"><ele>196.0</ele><time>2026-04-11T07:39:15.11Z</time></trkpt><trkpt lat="44.6517278" lon="7.9790201"><ele>196.0</ele><time>2026-04-11T07:39:17.111Z</time></trkpt><trkpt lat="44.6516587" lon="7.9790609"><ele>195.85714285714286</ele><time>2026-04-11T07:39:19.111Z</time></trkpt><trkpt lat="44.6515897" lon="7.9791036"><ele>195.71428571428572</ele><time>2026-04-11T07:39:21.111Z</time></trkpt><trkpt lat="44.6515197" lon="7.9791457"><ele>195.57142857142856</ele><time>2026-04-11T07:39:23.111Z</time></trkpt><trkpt lat="44.6514507" lon="7.9791863"><ele>195.42857142857144</ele><time>2026-04-11T07:39:25.11Z</time></trkpt><trkpt lat="44.6513836" lon="7.9792286"><ele>195.28571428571428</ele><time>2026-04-11T07:39:27.11Z</time></trkpt><trkpt lat="44.6513146" lon="7.9792661"><ele>195.14285714285714</ele><time>2026-04-11T07:39:29.111Z</time></trkpt><trkpt lat="44.6512448" lon="7.9793023"><ele>195.0</ele><time>2026-04-11T07:39:31.111Z</time></trkpt><trkpt lat="44.6511748" lon="7.9793301"><ele>195.28571428571428</ele><time>2026-04-11T07:39:33.11Z</time></trkpt><trkpt lat="44.6511035" lon="7.9793569"><ele>195.57142857142856</ele><time>2026-04-11T07:39:35.111Z</time></trkpt><trkpt lat="44.6510304" lon="7.9793753"><ele>195.85714285714286</ele><time>2026-04-11T07:39:37.111Z</time></trkpt><trkpt lat="44.6509558" lon="7.979396"><ele>196.14285714285714</ele><time>2026-04-11T07:39:39.111Z</time></trkpt><trkpt lat="44.650882" lon="7.9794119"><ele>196.42857142857144</ele><time>2026-04-11T07:39:41.111Z</time></trkpt><trkpt lat="44.650809" lon="7.979419"><ele>196.71428571428572</ele><time>2026-04-11T07:39:43.111Z</time></trkpt><trkpt lat="44.6507337" lon="7.9794207"><ele>197.0</ele><time>2026-04-11T07:39:45.11Z</time></trkpt><trkpt lat="44.6506571" lon="7.9794167"><ele>197.0</ele><time>2026-04-11T07:39:47.111Z</time></trkpt><trkpt lat="44.6505817" lon="7.9794116"><ele>197.0</ele><time>2026-04-11T07:39:49.11Z</time></trkpt><trkpt lat="44.6505088" lon="7.9794058"><ele>197.0</ele><time>2026-04-11T07:39:51.111Z</time></trkpt><trkpt lat="44.6504415" lon="7.9793988"><ele>197.0</ele><time>2026-04-11T07:39:53.111Z</time></trkpt><trkpt lat="44.6503731" lon="7.9793932"><ele>197.0</ele><time>2026-04-11T07:39:55.11Z</time></trkpt><trkpt lat="44.6503043" lon="7.9793827"><ele>197.0</ele><time>2026-04-11T07:39:57.111Z</time></trkpt><trkpt lat="44.6502339" lon="7.9793712"><ele>197.0</ele><time>2026-04-11T07:39:59.111Z</time></trkpt><trkpt lat="44.6501617" lon="7.9793631"><ele>197.0</ele><time>2026-04-11T07:40:01.11Z</time></trkpt><trkpt lat="44.6500885" lon="7.9793549"><ele>197.0</ele><time>2026-04-11T07:40:03.111Z</time></trkpt><trkpt lat="44.6500133" lon="7.9793512"><ele>197.0</ele><time>2026-04-11T07:40:05.111Z</time></trkpt><trkpt lat="44.6499406" lon="7.9793486"><ele>197.0</ele><time>2026-04-11T07:40:07.111Z</time></trkpt><trkpt lat="44.6498662" lon="7.979348"><ele>197.0</ele><time>2026-04-11T07:40:09.111Z</time></trkpt><trkpt lat="44.6497916" lon="7.9793469"><ele>197.0</ele><time>2026-04-11T07:40:11.111Z</time></trkpt><trkpt lat="44.6497157" lon="7.9793464"><ele>197.0</ele><time>2026-04-11T07:40:13.111Z</time></trkpt><trkpt lat="44.6496426" lon="7.9793524"><ele>197.0</ele><time>2026-04-11T07:40:15.111Z</time></trkpt><trkpt lat="44.6495721" lon="7.979355"><ele>197.0</ele><time>2026-04-11T07:40:17.11Z</time></trkpt><trkpt lat="44.6494967" lon="7.9793542"><ele>197.0</ele><time>2026-04-11T07:40:19.111Z</time></trkpt><trkpt lat="44.6494214" lon="7.979355"><ele>197.0</ele><time>2026-04-11T07:40:21.111Z</time></trkpt><trkpt lat="44.6493495" lon="7.979353"><ele>197.0</ele><time>2026-04-11T07:40:23.111Z</time></trkpt><trkpt lat="44.6492804" lon="7.9793459"><ele>197.0</ele><time>2026-04-11T07:40:25.111Z</time></trkpt><trkpt lat="44.649211" lon="7.9793338"><ele>197.0</ele><time>2026-04-11T07:40:27.111Z</time></trkpt><trkpt lat="44.6491399" lon="7.9793193"><ele>197.00000000000003</ele><time>2026-04-11T07:40:29.111Z</time></trkpt><trkpt lat="44.6490689" lon="7.9793008"><ele>197.0</ele><time>2026-04-11T07:40:31.111Z</time></trkpt><trkpt lat="44.648998" lon="7.9792784"><ele>197.0</ele><time>2026-04-11T07:40:33.111Z</time></trkpt><trkpt lat="44.6489259" lon="7.9792531"><ele>197.0</ele><time>2026-04-11T07:40:35.111Z</time></trkpt><trkpt lat="44.6488521" lon="7.9792256"><ele>197.00000000000003</ele><time>2026-04-11T07:40:37.111Z</time></trkpt><trkpt lat="44.6487789" lon="7.9791924"><ele>197.0</ele><time>2026-04-11T07:40:39.111Z</time></trkpt><trkpt lat="44.6487046" lon="7.9791598"><ele>197.00000000000003</ele><time>2026-04-11T07:40:41.111Z</time></trkpt><trkpt lat="44.6486291" lon="7.9791292"><ele>197.0</ele><time>2026-04-11T07:40:43.111Z</time></trkpt><trkpt lat="44.6485521" lon="7.9791001"><ele>197.0</ele><time>2026-04-11T07:40:45.111Z</time></trkpt><trkpt lat="44.6484742" lon="7.9790685"><ele>197.0</ele><time>2026-04-11T07:40:47.111Z</time></trkpt><trkpt lat="44.6484013" lon="7.9790346"><ele>197.00000000000003</ele><time>2026-04-11T07:40:49.111Z</time></trkpt><trkpt lat="44.6483292" lon="7.9790061"><ele>197.0</ele><time>2026-04-11T07:40:51.111Z</time></trkpt><trkpt lat="44.6482603" lon="7.9789731"><ele>197.14285714285714</ele><time>2026-04-11T07:40:53.111Z</time></trkpt><trkpt lat="44.6481894" lon="7.978941"><ele>197.28571428571428</ele><time>2026-04-11T07:40:55.11Z</time></trkpt><trkpt lat="44.6481209" lon="7.9789059"><ele>197.42857142857144</ele><time>2026-04-11T07:40:57.111Z</time></trkpt><trkpt lat="44.6480496" lon="7.9788803"><ele>197.57142857142856</ele><time>2026-04-11T07:40:59.111Z</time></trkpt><trkpt lat="44.6479809" lon="7.9788483"><ele>197.7142857142857</ele><time>2026-04-11T07:41:01.111Z</time></trkpt><trkpt lat="44.6479139" lon="7.9788213"><ele>197.85714285714286</ele><time>2026-04-11T07:41:03.11Z</time></trkpt><trkpt lat="44.6478455" lon="7.9787917"><ele>198.0</ele><time>2026-04-11T07:41:05.111Z</time></trkpt><trkpt lat="44.6477761" lon="7.9787638"><ele>198.83333333333334</ele><time>2026-04-11T07:41:07.111Z</time></trkpt><trkpt lat="44.6477055" lon="7.9787367"><ele>199.66666666666669</ele><time>2026-04-11T07:41:09.11Z</time></trkpt><trkpt lat="44.6476334" lon="7.9787089"><ele>200.5</ele><time>2026-04-11T07:41:11.11Z</time></trkpt><trkpt lat="44.6475608" lon="7.9786779"><ele>201.33333333333334</ele><time>2026-04-11T07:41:13.111Z</time></trkpt><trkpt lat="44.6474876" lon="7.9786486"><ele>202.16666666666669</ele><time>2026-04-11T07:41:15.111Z</time></trkpt><trkpt lat="44.6474137" lon="7.9786199"><ele>203.0</ele><time>2026-04-11T07:41:17.11Z</time></trkpt><trkpt lat="44.6473408" lon="7.9785857"><ele>203.00000000000003</ele><time>2026-04-11T07:41:19.111Z</time></trkpt><trkpt lat="44.6472671" lon="7.9785506"><ele>203.0</ele><time>2026-04-11T07:41:21.11Z</time></trkpt><trkpt lat="44.6471962" lon="7.9785085"><ele>203.0</ele><time>2026-04-11T07:41:23.11Z</time></trkpt><trkpt lat="44.6471259" lon="7.9784667"><ele>203.0</ele><time>2026-04-11T07:41:25.111Z</time></trkpt><trkpt lat="44.6470581" lon="7.9784116"><ele>203.00000000000003</ele><time>2026-04-11T07:41:27.111Z</time></trkpt><trkpt lat="44.6469987" lon="7.978342"><ele>203.0</ele><time>2026-04-11T07:41:29.111Z</time></trkpt><trkpt lat="44.6469516" lon="7.9782583"><ele>202.50000000000003</ele><time>2026-04-11T07:41:31.111Z</time></trkpt><trkpt lat="44.6469147" lon="7.9781613"><ele>202.0</ele><time>2026-04-11T07:41:33.111Z</time></trkpt><trkpt lat="44.6468862" lon="7.9780591"><ele>201.5</ele><time>2026-04-11T07:41:35.111Z</time></trkpt><trkpt lat="44.6468509" lon="7.9779681"><ele>201.0</ele><time>2026-04-11T07:41:37.11Z</time></trkpt><trkpt lat="44.6467935" lon="7.9779033"><ele>200.50000000000003</ele><time>2026-04-11T07:41:39.11Z</time></trkpt><trkpt lat="44.6467133" lon="7.977889"><ele>200.0</ele><time>2026-04-11T07:41:41.11Z</time></trkpt><trkpt lat="44.6466404" lon="7.9779448"><ele>200.00000000000003</ele><time>2026-04-11T07:41:43.111Z</time></trkpt><trkpt lat="44.6465886" lon="7.9780307"><ele>200.0</ele><time>2026-04-11T07:41:45.11Z</time></trkpt><trkpt lat="44.6465395" lon="7.9781066"><ele>200.0</ele><time>2026-04-11T07:41:47.111Z</time></trkpt><trkpt lat="44.6465003" lon="7.9781873"><ele>200.0</ele><time>2026-04-11T07:41:49.11Z</time></trkpt><trkpt lat="44.6464138" lon="7.9782397"><ele>200.0</ele><time>2026-04-11T07:41:52.111Z</time></trkpt><trkpt lat="44.6463551" lon="7.9782734"><ele>200.00000000000003</ele><time>2026-04-11T07:41:54.111Z</time></trkpt><trkpt lat="44.6462945" lon="7.9782992"><ele>200.0</ele><time>2026-04-11T07:41:56.111Z</time></trkpt><trkpt lat="44.6462325" lon="7.9783299"><ele>201.50000000000003</ele><time>2026-04-11T07:41:58.111Z</time></trkpt><trkpt lat="44.6461704" lon="7.9783632"><ele>203.0</ele><time>2026-04-11T07:42:00.11Z</time></trkpt><trkpt lat="44.6461086" lon="7.9783996"><ele>204.5</ele><time>2026-04-11T07:42:02.111Z</time></trkpt><trkpt lat="44.6460505" lon="7.9784376"><ele>206.0</ele><time>2026-04-11T07:42:04.111Z</time></trkpt><trkpt lat="44.645968" lon="7.9784825"><ele>207.50000000000003</ele><time>2026-04-11T07:42:07.111Z</time></trkpt><trkpt lat="44.6458822" lon="7.9785244"><ele>209.0</ele><time>2026-04-11T07:42:10.111Z</time></trkpt><trkpt lat="44.6457967" lon="7.9785649"><ele>209.00000000000003</ele><time>2026-04-11T07:42:13.11Z</time></trkpt><trkpt lat="44.6457165" lon="7.9786042"><ele>209.0</ele><time>2026-04-11T07:42:16.111Z</time></trkpt><trkpt lat="44.6456363" lon="7.9786467"><ele>209.0</ele><time>2026-04-11T07:42:19.11Z</time></trkpt><trkpt lat="44.6455557" lon="7.9786907"><ele>209.0</ele><time>2026-04-11T07:42:22.11Z</time></trkpt><trkpt lat="44.6454801" lon="7.9787324"><ele>209.00000000000003</ele><time>2026-04-11T07:42:25.111Z</time></trkpt><trkpt lat="44.6453954" lon="7.978777"><ele>209.0</ele><time>2026-04-11T07:42:28.11Z</time></trkpt><trkpt lat="44.6453109" lon="7.9788217"><ele>208.33333333333334</ele><time>2026-04-11T07:42:31.111Z</time></trkpt><trkpt lat="44.645228" lon="7.9788681"><ele>207.66666666666669</ele><time>2026-04-11T07:42:34.11Z</time></trkpt><trkpt lat="44.6451697" lon="7.978903"><ele>207.0</ele><time>2026-04-11T07:42:36.11Z</time></trkpt><trkpt lat="44.6451097" lon="7.97893"><ele>206.33333333333331</ele><time>2026-04-11T07:42:38.111Z</time></trkpt><trkpt lat="44.6450264" lon="7.9789674"><ele>205.66666666666666</ele><time>2026-04-11T07:42:41.111Z</time></trkpt><trkpt lat="44.6449414" lon="7.9790153"><ele>205.0</ele><time>2026-04-11T07:42:44.111Z</time></trkpt><trkpt lat="44.6448781" lon="7.9790505"><ele>204.99999999999997</ele><time>2026-04-11T07:42:46.11Z</time></trkpt><trkpt lat="44.6447925" lon="7.9790908"><ele>205.0</ele><time>2026-04-11T07:42:49.111Z</time></trkpt><trkpt lat="44.6447143" lon="7.9791334"><ele>205.0</ele><time>2026-04-11T07:42:52.11Z</time></trkpt><trkpt lat="44.6446309" lon="7.9791801"><ele>205.0</ele><time>2026-04-11T07:42:55.111Z</time></trkpt><trkpt lat="44.6445705" lon="7.9792101"><ele>204.99999999999997</ele><time>2026-04-11T07:42:57.111Z</time></trkpt><trkpt lat="44.6445063" lon="7.9792404"><ele>205.0</ele><time>2026-04-11T07:42:59.111Z</time></trkpt><trkpt lat="44.6444456" lon="7.9792748"><ele>206.16666666666666</ele><time>2026-04-11T07:43:01.111Z</time></trkpt><trkpt lat="44.6443865" lon="7.9793128"><ele>207.33333333333331</ele><time>2026-04-11T07:43:03.11Z</time></trkpt><trkpt lat="44.6443017" lon="7.9793647"><ele>208.5</ele><time>2026-04-11T07:43:06.111Z</time></trkpt><trkpt lat="44.6442207" lon="7.9794317"><ele>209.66666666666669</ele><time>2026-04-11T07:43:09.111Z</time></trkpt><trkpt lat="44.6441665" lon="7.9794803"><ele>210.83333333333334</ele><time>2026-04-11T07:43:11.111Z</time></trkpt><trkpt lat="44.644107" lon="7.979534"><ele>212.0</ele><time>2026-04-11T07:43:13.111Z</time></trkpt><trkpt lat="44.6440453" lon="7.9795979"><ele>212.0</ele><time>2026-04-11T07:43:15.11Z</time></trkpt><trkpt lat="44.643986" lon="7.9796623"><ele>212.0</ele><time>2026-04-11T07:43:17.11Z</time></trkpt><trkpt lat="44.6439345" lon="7.9797236"><ele>212.0</ele><time>2026-04-11T07:43:19.111Z</time></trkpt><trkpt lat="44.643884" lon="7.9797794"><ele>212.0</ele><time>2026-04-11T07:43:21.111Z</time></trkpt><trkpt lat="44.6438321" lon="7.9798398"><ele>212.0</ele><time>2026-04-11T07:43:23.111Z</time></trkpt><trkpt lat="44.6437848" lon="7.9799066"><ele>212.0</ele><time>2026-04-11T07:43:25.111Z</time></trkpt><trkpt lat="44.643733" lon="7.9799642"><ele>212.0</ele><time>2026-04-11T07:43:27.111Z</time></trkpt><trkpt lat="44.6436844" lon="7.9800266"><ele>211.57142857142858</ele><time>2026-04-11T07:43:29.11Z</time></trkpt><trkpt lat="44.643631" lon="7.9800847"><ele>211.14285714285714</ele><time>2026-04-11T07:43:31.11Z</time></trkpt><trkpt lat="44.6435808" lon="7.9801462"><ele>210.71428571428572</ele><time>2026-04-11T07:43:33.111Z</time></trkpt><trkpt lat="44.6435321" lon="7.9802077"><ele>210.28571428571428</ele><time>2026-04-11T07:43:35.111Z</time></trkpt><trkpt lat="44.6434803" lon="7.9802689"><ele>209.85714285714283</ele><time>2026-04-11T07:43:37.11Z</time></trkpt><trkpt lat="44.643428" lon="7.9803318"><ele>209.42857142857142</ele><time>2026-04-11T07:43:39.111Z</time></trkpt><trkpt lat="44.6433773" lon="7.9803978"><ele>209.0</ele><time>2026-04-11T07:43:41.111Z</time></trkpt><trkpt lat="44.6433244" lon="7.9804631"><ele>209.0</ele><time>2026-04-11T07:43:43.11Z</time></trkpt><trkpt lat="44.6432677" lon="7.9805252"><ele>209.0</ele><time>2026-04-11T07:43:45.11Z</time></trkpt><trkpt lat="44.6432115" lon="7.9805884"><ele>209.0</ele><time>2026-04-11T07:43:47.111Z</time></trkpt><trkpt lat="44.6431575" lon="7.9806491"><ele>209.0</ele><time>2026-04-11T07:43:49.11Z</time></trkpt><trkpt lat="44.6431005" lon="7.9807021"><ele>209.0</ele><time>2026-04-11T07:43:51.111Z</time></trkpt><trkpt lat="44.6430449" lon="7.9807575"><ele>209.0</ele><time>2026-04-11T07:43:53.111Z</time></trkpt><trkpt lat="44.6429865" lon="7.9808104"><ele>209.0</ele><time>2026-04-11T07:43:55.11Z</time></trkpt><trkpt lat="44.642928" lon="7.9808595"><ele>209.00000000000003</ele><time>2026-04-11T07:43:57.111Z</time></trkpt><trkpt lat="44.6428687" lon="7.9809039"><ele>209.0</ele><time>2026-04-11T07:43:59.11Z</time></trkpt><trkpt lat="44.6428103" lon="7.9809422"><ele>209.0</ele><time>2026-04-11T07:44:01.111Z</time></trkpt><trkpt lat="44.6427245" lon="7.980996"><ele>209.0</ele><time>2026-04-11T07:44:04.111Z</time></trkpt><trkpt lat="44.6426659" lon="7.981036"><ele>209.00000000000003</ele><time>2026-04-11T07:44:06.111Z</time></trkpt><trkpt lat="44.6426095" lon="7.9810782"><ele>209.0</ele><time>2026-04-11T07:44:08.11Z</time></trkpt><trkpt lat="44.642525" lon="7.9811429"><ele>209.00000000000003</ele><time>2026-04-11T07:44:11.111Z</time></trkpt><trkpt lat="44.6424667" lon="7.9811927"><ele>209.0</ele><time>2026-04-11T07:44:13.11Z</time></trkpt><trkpt lat="44.6424051" lon="7.9812491"><ele>209.0</ele><time>2026-04-11T07:44:15.111Z</time></trkpt><trkpt lat="44.6423459" lon="7.9813185"><ele>209.0</ele><time>2026-04-11T07:44:17.111Z</time></trkpt><trkpt lat="44.6422756" lon="7.9813955"><ele>209.00000000000003</ele><time>2026-04-11T07:44:19.111Z</time></trkpt><trkpt lat="44.6422067" lon="7.9814888"><ele>209.0</ele><time>2026-04-11T07:44:21.111Z</time></trkpt><trkpt lat="44.64214" lon="7.9815737"><ele>209.00000000000003</ele><time>2026-04-11T07:44:23.111Z</time></trkpt><trkpt lat="44.6420716" lon="7.981651"><ele>209.0</ele><time>2026-04-11T07:44:25.11Z</time></trkpt><trkpt lat="44.6420023" lon="7.9817247"><ele>209.0</ele><time>2026-04-11T07:44:27.111Z</time></trkpt><trkpt lat="44.641938" lon="7.98179"><ele>209.0</ele><time>2026-04-11T07:44:29.111Z</time></trkpt><trkpt lat="44.6418739" lon="7.9818452"><ele>209.00000000000003</ele><time>2026-04-11T07:44:31.111Z</time></trkpt><trkpt lat="44.6418131" lon="7.9818919"><ele>209.0</ele><time>2026-04-11T07:44:33.111Z</time></trkpt><trkpt lat="44.6417534" lon="7.9819343"><ele>209.00000000000003</ele><time>2026-04-11T07:44:35.11Z</time></trkpt><trkpt lat="44.6416859" lon="7.9819766"><ele>209.0</ele><time>2026-04-11T07:44:37.111Z</time></trkpt><trkpt lat="44.641608" lon="7.9820112"><ele>209.0</ele><time>2026-04-11T07:44:39.111Z</time></trkpt><trkpt lat="44.6415224" lon="7.9820423"><ele>209.0</ele><time>2026-04-11T07:44:41.11Z</time></trkpt><trkpt lat="44.641442" lon="7.9820754"><ele>209.00000000000003</ele><time>2026-04-11T07:44:43.111Z</time></trkpt><trkpt lat="44.6413689" lon="7.9821055"><ele>209.0</ele><time>2026-04-11T07:44:45.11Z</time></trkpt><trkpt lat="44.6412986" lon="7.9821308"><ele>209.0</ele><time>2026-04-11T07:44:47.111Z</time></trkpt><trkpt lat="44.6412287" lon="7.9821556"><ele>209.0</ele><time>2026-04-11T07:44:49.111Z</time></trkpt><trkpt lat="44.6411583" lon="7.9821849"><ele>209.0</ele><time>2026-04-11T07:44:51.111Z</time></trkpt><trkpt lat="44.6410927" lon="7.9822151"><ele>209.0</ele><time>2026-04-11T07:44:53.11Z</time></trkpt><trkpt lat="44.6410302" lon="7.9822288"><ele>209.0</ele><time>2026-04-11T07:44:55.111Z</time></trkpt><trkpt lat="44.6409517" lon="7.9822662"><ele>209.0</ele><time>2026-04-11T07:44:58.111Z</time></trkpt><trkpt lat="44.6408806" lon="7.9822907"><ele>209.0</ele><time>2026-04-11T07:45:01.111Z</time></trkpt><trkpt lat="44.6407992" lon="7.9823198"><ele>208.83333333333334</ele><time>2026-04-11T07:45:04.111Z</time></trkpt><trkpt lat="44.6407063" lon="7.9823507"><ele>208.66666666666669</ele><time>2026-04-11T07:45:07.11Z</time></trkpt><trkpt lat="44.6406151" lon="7.9823839"><ele>208.5</ele><time>2026-04-11T07:45:10.111Z</time></trkpt><trkpt lat="44.6405241" lon="7.9824174"><ele>208.33333333333331</ele><time>2026-04-11T07:45:13.111Z</time></trkpt><trkpt lat="44.6404621" lon="7.9824399"><ele>208.16666666666666</ele><time>2026-04-11T07:45:15.11Z</time></trkpt><trkpt lat="44.6404008" lon="7.9824604"><ele>208.0</ele><time>2026-04-11T07:45:17.11Z</time></trkpt><trkpt lat="44.640309" lon="7.9824919"><ele>207.85714285714286</ele><time>2026-04-11T07:45:20.11Z</time></trkpt><trkpt lat="44.6402456" lon="7.982511"><ele>207.71428571428572</ele><time>2026-04-11T07:45:22.11Z</time></trkpt><trkpt lat="44.6401827" lon="7.9825367"><ele>207.57142857142858</ele><time>2026-04-11T07:45:24.11Z</time></trkpt><trkpt lat="44.6401198" lon="7.9825591"><ele>207.42857142857144</ele><time>2026-04-11T07:45:26.111Z</time></trkpt><trkpt lat="44.6400551" lon="7.9825776"><ele>207.28571428571428</ele><time>2026-04-11T07:45:28.111Z</time></trkpt><trkpt lat="44.6399913" lon="7.9825999"><ele>207.14285714285717</ele><time>2026-04-11T07:45:30.111Z</time></trkpt><trkpt lat="44.6399252" lon="7.9826184"><ele>207.0</ele><time>2026-04-11T07:45:32.111Z</time></trkpt><trkpt lat="44.6398588" lon="7.982634"><ele>208.2857142857143</ele><time>2026-04-11T07:45:34.11Z</time></trkpt><trkpt lat="44.6397914" lon="7.9826436"><ele>209.57142857142858</ele><time>2026-04-11T07:45:36.11Z</time></trkpt><trkpt lat="44.6397255" lon="7.9826514"><ele>210.85714285714286</ele><time>2026-04-11T07:45:38.111Z</time></trkpt><trkpt lat="44.6396616" lon="7.9826597"><ele>212.14285714285717</ele><time>2026-04-11T07:45:40.111Z</time></trkpt><trkpt lat="44.6395972" lon="7.9826728"><ele>213.42857142857142</ele><time>2026-04-11T07:45:42.111Z</time></trkpt><trkpt lat="44.63953" lon="7.98268"><ele>214.71428571428572</ele><time>2026-04-11T07:45:44.111Z</time></trkpt><trkpt lat="44.6394629" lon="7.9826904"><ele>216.0</ele><time>2026-04-11T07:45:46.11Z</time></trkpt><trkpt lat="44.6393965" lon="7.9826983"><ele>216.0</ele><time>2026-04-11T07:45:48.111Z</time></trkpt><trkpt lat="44.6393313" lon="7.9827089"><ele>216.0</ele><time>2026-04-11T07:45:50.111Z</time></trkpt><trkpt lat="44.6392684" lon="7.9827152"><ele>216.0</ele><time>2026-04-11T07:45:52.11Z</time></trkpt><trkpt lat="44.6392052" lon="7.9827261"><ele>216.0</ele><time>2026-04-11T07:45:54.111Z</time></trkpt><trkpt lat="44.6391406" lon="7.9827311"><ele>216.0</ele><time>2026-04-11T07:45:56.11Z</time></trkpt><trkpt lat="44.6390756" lon="7.9827389"><ele>216.0</ele><time>2026-04-11T07:45:58.111Z</time></trkpt><trkpt lat="44.6390102" lon="7.9827462"><ele>216.0</ele><time>2026-04-11T07:46:00.111Z</time></trkpt><trkpt lat="44.6389462" lon="7.9827564"><ele>216.0</ele><time>2026-04-11T07:46:02.11Z</time></trkpt><trkpt lat="44.638859" lon="7.9827712"><ele>216.0</ele><time>2026-04-11T07:46:05.111Z</time></trkpt><trkpt lat="44.6387728" lon="7.9827889"><ele>216.0</ele><time>2026-04-11T07:46:08.11Z</time></trkpt><trkpt lat="44.638692" lon="7.9828114"><ele>216.0</ele><time>2026-04-11T07:46:11.111Z</time></trkpt><trkpt lat="44.6386077" lon="7.9828413"><ele>216.0</ele><time>2026-04-11T07:46:14.111Z</time></trkpt><trkpt lat="44.6385196" lon="7.9828819"><ele>216.0</ele><time>2026-04-11T07:46:17.111Z</time></trkpt><trkpt lat="44.6384595" lon="7.9829151"><ele>215.5</ele><time>2026-04-11T07:46:19.111Z</time></trkpt><trkpt lat="44.6383958" lon="7.9829539"><ele>215.0</ele><time>2026-04-11T07:46:21.111Z</time></trkpt><trkpt lat="44.6383283" lon="7.9829973"><ele>214.5</ele><time>2026-04-11T07:46:23.111Z</time></trkpt><trkpt lat="44.6382596" lon="7.9830473"><ele>214.0</ele><time>2026-04-11T07:46:25.111Z</time></trkpt><trkpt lat="44.6381917" lon="7.9830998"><ele>213.5</ele><time>2026-04-11T07:46:27.11Z</time></trkpt><trkpt lat="44.6381195" lon="7.9831591"><ele>213.0</ele><time>2026-04-11T07:46:29.111Z</time></trkpt><trkpt lat="44.6380444" lon="7.983219"><ele>213.0</ele><time>2026-04-11T07:46:31.11Z</time></trkpt><trkpt lat="44.6379699" lon="7.9832774"><ele>213.0</ele><time>2026-04-11T07:46:33.111Z</time></trkpt><trkpt lat="44.6378947" lon="7.9833323"><ele>213.0</ele><time>2026-04-11T07:46:35.111Z</time></trkpt><trkpt lat="44.6378228" lon="7.9833896"><ele>213.0</ele><time>2026-04-11T07:46:37.11Z</time></trkpt><trkpt lat="44.6377485" lon="7.9834453"><ele>213.0</ele><time>2026-04-11T07:46:39.111Z</time></trkpt><trkpt lat="44.6376749" lon="7.9835005"><ele>213.0</ele><time>2026-04-11T07:46:41.11Z</time></trkpt><trkpt lat="44.6375988" lon="7.9835532"><ele>212.7142857142857</ele><time>2026-04-11T07:46:43.11Z</time></trkpt><trkpt lat="44.6375267" lon="7.9836052"><ele>212.42857142857142</ele><time>2026-04-11T07:46:45.111Z</time></trkpt><trkpt lat="44.6374593" lon="7.9836527"><ele>212.14285714285714</ele><time>2026-04-11T07:46:47.111Z</time></trkpt><trkpt lat="44.6373926" lon="7.9836962"><ele>211.85714285714283</ele><time>2026-04-11T07:46:49.111Z</time></trkpt><trkpt lat="44.6373289" lon="7.9837344"><ele>211.57142857142858</ele><time>2026-04-11T07:46:51.11Z</time></trkpt><trkpt lat="44.6372672" lon="7.9837713"><ele>211.28571428571428</ele><time>2026-04-11T07:46:53.11Z</time></trkpt><trkpt lat="44.6372084" lon="7.9838087"><ele>211.0</ele><time>2026-04-11T07:46:55.11Z</time></trkpt><trkpt lat="44.6371434" lon="7.9838424"><ele>210.99999999999997</ele><time>2026-04-11T07:46:57.11Z</time></trkpt><trkpt lat="44.6370772" lon="7.9838839"><ele>211.0</ele><time>2026-04-11T07:46:59.11Z</time></trkpt><trkpt lat="44.6370087" lon="7.9839252"><ele>211.0</ele><time>2026-04-11T07:47:01.111Z</time></trkpt><trkpt lat="44.6369381" lon="7.9839666"><ele>211.0</ele><time>2026-04-11T07:47:03.111Z</time></trkpt><trkpt lat="44.6368666" lon="7.9840115"><ele>210.99999999999997</ele><time>2026-04-11T07:47:05.111Z</time></trkpt><trkpt lat="44.6367951" lon="7.9840566"><ele>211.0</ele><time>2026-04-11T07:47:07.11Z</time></trkpt><trkpt lat="44.6367238" lon="7.9840977"><ele>211.14285714285714</ele><time>2026-04-11T07:47:09.111Z</time></trkpt><trkpt lat="44.6366567" lon="7.9841366"><ele>211.28571428571428</ele><time>2026-04-11T07:47:11.111Z</time></trkpt><trkpt lat="44.6365908" lon="7.9841757"><ele>211.42857142857144</ele><time>2026-04-11T07:47:13.11Z</time></trkpt><trkpt lat="44.6365242" lon="7.9842125"><ele>211.57142857142856</ele><time>2026-04-11T07:47:15.11Z</time></trkpt><trkpt lat="44.6364613" lon="7.9842529"><ele>211.7142857142857</ele><time>2026-04-11T07:47:17.111Z</time></trkpt><trkpt lat="44.6364003" lon="7.984291"><ele>211.85714285714286</ele><time>2026-04-11T07:47:19.111Z</time></trkpt><trkpt lat="44.6363181" lon="7.9843345"><ele>212.0</ele><time>2026-04-11T07:47:22.111Z</time></trkpt><trkpt lat="44.636251" lon="7.9843606"><ele>212.50000000000003</ele><time>2026-04-11T07:47:25.111Z</time></trkpt><trkpt lat="44.636188" lon="7.984395"><ele>213.0</ele><time>2026-04-11T07:48:57.111Z</time></trkpt><trkpt lat="44.6361208" lon="7.9844311"><ele>213.5</ele><time>2026-04-11T07:49:03.11Z</time></trkpt><trkpt lat="44.6360468" lon="7.9844593"><ele>214.0</ele><time>2026-04-11T07:49:08.11Z</time></trkpt><trkpt lat="44.6359674" lon="7.9844835"><ele>214.50000000000003</ele><time>2026-04-11T07:49:12.111Z</time></trkpt><trkpt lat="44.6358954" lon="7.9845038"><ele>215.0</ele><time>2026-04-11T07:49:15.11Z</time></trkpt><trkpt lat="44.6358149" lon="7.9845227"><ele>215.00000000000003</ele><time>2026-04-11T07:49:18.11Z</time></trkpt><trkpt lat="44.6357318" lon="7.9845404"><ele>215.0</ele><time>2026-04-11T07:49:21.111Z</time></trkpt><trkpt lat="44.6356486" lon="7.9845528"><ele>215.0</ele><time>2026-04-11T07:49:24.11Z</time></trkpt><trkpt lat="44.6355622" lon="7.9845707"><ele>215.0</ele><time>2026-04-11T07:49:27.111Z</time></trkpt><trkpt lat="44.6354708" lon="7.9845866"><ele>215.00000000000003</ele><time>2026-04-11T07:49:30.11Z</time></trkpt><trkpt lat="44.6354067" lon="7.9845964"><ele>215.0</ele><time>2026-04-11T07:49:32.11Z</time></trkpt><trkpt lat="44.6353398" lon="7.9846042"><ele>215.28571428571428</ele><time>2026-04-11T07:49:34.11Z</time></trkpt><trkpt lat="44.6352735" lon="7.9846156"><ele>215.57142857142858</ele><time>2026-04-11T07:49:36.11Z</time></trkpt><trkpt lat="44.6352048" lon="7.9846283"><ele>215.85714285714286</ele><time>2026-04-11T07:49:38.111Z</time></trkpt><trkpt lat="44.6351365" lon="7.9846413"><ele>216.14285714285714</ele><time>2026-04-11T07:49:40.111Z</time></trkpt><trkpt lat="44.6350673" lon="7.9846504"><ele>216.42857142857144</ele><time>2026-04-11T07:49:42.111Z</time></trkpt><trkpt lat="44.6349992" lon="7.9846618"><ele>216.71428571428572</ele><time>2026-04-11T07:49:44.11Z</time></trkpt><trkpt lat="44.6349312" lon="7.9846715"><ele>217.0</ele><time>2026-04-11T07:49:46.111Z</time></trkpt><trkpt lat="44.6348653" lon="7.9846805"><ele>217.0</ele><time>2026-04-11T07:49:48.11Z</time></trkpt><trkpt lat="44.6348026" lon="7.9846885"><ele>217.0</ele><time>2026-04-11T07:49:50.111Z</time></trkpt><trkpt lat="44.6347115" lon="7.9847015"><ele>217.0</ele><time>2026-04-11T07:49:53.111Z</time></trkpt><trkpt lat="44.6346193" lon="7.9847151"><ele>217.0</ele><time>2026-04-11T07:49:56.11Z</time></trkpt><trkpt lat="44.634556" lon="7.9847225"><ele>217.0</ele><time>2026-04-11T07:49:58.11Z</time></trkpt><trkpt lat="44.6344926" lon="7.9847322"><ele>217.0</ele><time>2026-04-11T07:50:00.111Z</time></trkpt><trkpt lat="44.6344282" lon="7.9847452"><ele>217.0</ele><time>2026-04-11T07:50:02.111Z</time></trkpt><trkpt lat="44.6343626" lon="7.9847524"><ele>216.99999999999997</ele><time>2026-04-11T07:50:04.111Z</time></trkpt><trkpt lat="44.6342955" lon="7.984763"><ele>217.0</ele><time>2026-04-11T07:50:06.111Z</time></trkpt><trkpt lat="44.6342302" lon="7.9847688"><ele>217.0</ele><time>2026-04-11T07:50:08.111Z</time></trkpt><trkpt lat="44.6341649" lon="7.9847765"><ele>217.0</ele><time>2026-04-11T07:50:10.111Z</time></trkpt><trkpt lat="44.6341015" lon="7.9847837"><ele>216.99999999999997</ele><time>2026-04-11T07:50:12.111Z</time></trkpt><trkpt lat="44.6340085" lon="7.9847952"><ele>217.0</ele><time>2026-04-11T07:50:15.111Z</time></trkpt><trkpt lat="44.6339144" lon="7.984812"><ele>217.0</ele><time>2026-04-11T07:50:18.11Z</time></trkpt><trkpt lat="44.6338478" lon="7.9848264"><ele>217.0</ele><time>2026-04-11T07:50:20.111Z</time></trkpt><trkpt lat="44.6337823" lon="7.9848381"><ele>217.0</ele><time>2026-04-11T07:50:22.111Z</time></trkpt><trkpt lat="44.6337153" lon="7.9848405"><ele>217.0</ele><time>2026-04-11T07:50:24.111Z</time></trkpt><trkpt lat="44.6336494" lon="7.9848507"><ele>217.0</ele><time>2026-04-11T07:50:26.111Z</time></trkpt><trkpt lat="44.6335828" lon="7.9848599"><ele>217.0</ele><time>2026-04-11T07:50:28.11Z</time></trkpt><trkpt lat="44.6335162" lon="7.9848672"><ele>217.0</ele><time>2026-04-11T07:50:30.111Z</time></trkpt><trkpt lat="44.6334521" lon="7.9848801"><ele>216.99999999999997</ele><time>2026-04-11T07:50:32.111Z</time></trkpt><trkpt lat="44.6333863" lon="7.9848813"><ele>217.0</ele><time>2026-04-11T07:50:34.111Z</time></trkpt><trkpt lat="44.633299" lon="7.9848863"><ele>217.0</ele><time>2026-04-11T07:50:37.11Z</time></trkpt><trkpt lat="44.6332119" lon="7.9848744"><ele>217.0</ele><time>2026-04-11T07:50:40.111Z</time></trkpt><trkpt lat="44.6331164" lon="7.9848599"><ele>216.99999999999997</ele><time>2026-04-11T07:50:43.11Z</time></trkpt><trkpt lat="44.6330464" lon="7.9848522"><ele>217.0</ele><time>2026-04-11T07:50:45.111Z</time></trkpt><trkpt lat="44.6329749" lon="7.9848446"><ele>217.0</ele><time>2026-04-11T07:50:47.11Z</time></trkpt><trkpt lat="44.6329031" lon="7.9848328"><ele>217.0</ele><time>2026-04-11T07:50:49.111Z</time></trkpt><trkpt lat="44.6328337" lon="7.9848285"><ele>217.0</ele><time>2026-04-11T07:50:51.111Z</time></trkpt><trkpt lat="44.6327648" lon="7.9848186"><ele>217.0</ele><time>2026-04-11T07:50:53.11Z</time></trkpt><trkpt lat="44.6326976" lon="7.9848215"><ele>217.0</ele><time>2026-04-11T07:50:55.11Z</time></trkpt><trkpt lat="44.6326325" lon="7.9848212"><ele>217.0</ele><time>2026-04-11T07:50:57.111Z</time></trkpt><trkpt lat="44.6325691" lon="7.9848121"><ele>217.0</ele><time>2026-04-11T07:50:59.11Z</time></trkpt><trkpt lat="44.6324812" lon="7.9848086"><ele>216.83333333333331</ele><time>2026-04-11T07:51:02.111Z</time></trkpt><trkpt lat="44.6324004" lon="7.9848082"><ele>216.66666666666666</ele><time>2026-04-11T07:51:05.11Z</time></trkpt><trkpt lat="44.6323139" lon="7.9848116"><ele>216.5</ele><time>2026-04-11T07:51:08.111Z</time></trkpt><trkpt lat="44.6322464" lon="7.9848167"><ele>216.33333333333331</ele><time>2026-04-11T07:51:10.111Z</time></trkpt><trkpt lat="44.6321762" lon="7.9848286"><ele>216.16666666666666</ele><time>2026-04-11T07:51:12.111Z</time></trkpt><trkpt lat="44.6321018" lon="7.9848371"><ele>216.0</ele><time>2026-04-11T07:51:14.111Z</time></trkpt><trkpt lat="44.6320266" lon="7.9848466"><ele>216.57142857142856</ele><time>2026-04-11T07:51:16.11Z</time></trkpt><trkpt lat="44.6319543" lon="7.984852"><ele>217.14285714285714</ele><time>2026-04-11T07:51:18.111Z</time></trkpt><trkpt lat="44.6318846" lon="7.9848522"><ele>217.71428571428572</ele><time>2026-04-11T07:51:20.111Z</time></trkpt><trkpt lat="44.6318116" lon="7.9848555"><ele>218.28571428571428</ele><time>2026-04-11T07:51:22.111Z</time></trkpt><trkpt lat="44.6317374" lon="7.9848584"><ele>218.85714285714286</ele><time>2026-04-11T07:51:24.111Z</time></trkpt><trkpt lat="44.6316649" lon="7.9848618"><ele>219.42857142857142</ele><time>2026-04-11T07:51:26.11Z</time></trkpt><trkpt lat="44.6315956" lon="7.9848705"><ele>220.0</ele><time>2026-04-11T07:51:28.11Z</time></trkpt><trkpt lat="44.6315284" lon="7.9848833"><ele>219.99999999999997</ele><time>2026-04-11T07:51:30.111Z</time></trkpt><trkpt lat="44.6314576" lon="7.984891"><ele>220.0</ele><time>2026-04-11T07:51:32.111Z</time></trkpt><trkpt lat="44.6313823" lon="7.9848957"><ele>220.0</ele><time>2026-04-11T07:51:34.11Z</time></trkpt><trkpt lat="44.6313052" lon="7.9848954"><ele>220.0</ele><time>2026-04-11T07:51:36.111Z</time></trkpt><trkpt lat="44.6312284" lon="7.9849049"><ele>219.99999999999997</ele><time>2026-04-11T07:51:38.111Z</time></trkpt><trkpt lat="44.6311509" lon="7.9849111"><ele>220.0</ele><time>2026-04-11T07:51:40.11Z</time></trkpt><trkpt lat="44.6310726" lon="7.984922"><ele>219.83333333333331</ele><time>2026-04-11T07:51:42.111Z</time></trkpt><trkpt lat="44.6309935" lon="7.9849301"><ele>219.66666666666666</ele><time>2026-04-11T07:51:44.111Z</time></trkpt><trkpt lat="44.6309137" lon="7.9849335"><ele>219.5</ele><time>2026-04-11T07:51:46.111Z</time></trkpt><trkpt lat="44.6308314" lon="7.9849388"><ele>219.33333333333331</ele><time>2026-04-11T07:51:48.111Z</time></trkpt><trkpt lat="44.6307458" lon="7.9849446"><ele>219.16666666666666</ele><time>2026-04-11T07:51:50.111Z</time></trkpt><trkpt lat="44.6306591" lon="7.9849373"><ele>219.0</ele><time>2026-04-11T07:51:52.111Z</time></trkpt><trkpt lat="44.6305753" lon="7.9849341"><ele>219.0</ele><time>2026-04-11T07:51:54.111Z</time></trkpt><trkpt lat="44.6304936" lon="7.9849154"><ele>219.0</ele><time>2026-04-11T07:51:56.11Z</time></trkpt><trkpt lat="44.6304141" lon="7.9848948"><ele>219.0</ele><time>2026-04-11T07:51:58.111Z</time></trkpt><trkpt lat="44.6303381" lon="7.9848724"><ele>219.0</ele><time>2026-04-11T07:52:00.11Z</time></trkpt><trkpt lat="44.6302598" lon="7.9848437"><ele>219.0</ele><time>2026-04-11T07:52:02.11Z</time></trkpt><trkpt lat="44.630162" lon="7.9848018"><ele>219.0</ele><time>2026-04-11T07:52:04.11Z</time></trkpt><trkpt lat="44.6300514" lon="7.9847557"><ele>218.75</ele><time>2026-04-11T07:52:06.11Z</time></trkpt><trkpt lat="44.6299405" lon="7.9847167"><ele>218.5</ele><time>2026-04-11T07:52:08.111Z</time></trkpt><trkpt lat="44.6298285" lon="7.9846865"><ele>218.25</ele><time>2026-04-11T07:52:10.111Z</time></trkpt><trkpt lat="44.6297085" lon="7.9846746"><ele>218.0</ele><time>2026-04-11T07:52:12.111Z</time></trkpt><trkpt lat="44.6295836" lon="7.9846789"><ele>218.4</ele><time>2026-04-11T07:52:14.111Z</time></trkpt><trkpt lat="44.6294617" lon="7.984687"><ele>218.8</ele><time>2026-04-11T07:52:16.11Z</time></trkpt><trkpt lat="44.629341" lon="7.9846982"><ele>219.2</ele><time>2026-04-11T07:52:18.111Z</time></trkpt><trkpt lat="44.6292772" lon="7.9847025"><ele>219.6</ele><time>2026-04-11T07:52:19.11Z</time></trkpt><trkpt lat="44.6291549" lon="7.9847076"><ele>220.0</ele><time>2026-04-11T07:52:21.111Z</time></trkpt><trkpt lat="44.6290912" lon="7.9847098"><ele>220.0</ele><time>2026-04-11T07:52:22.11Z</time></trkpt><trkpt lat="44.6290279" lon="7.984712"><ele>220.0</ele><time>2026-04-11T07:52:23.11Z</time></trkpt><trkpt lat="44.6289033" lon="7.9847087"><ele>220.0</ele><time>2026-04-11T07:52:25.111Z</time></trkpt><trkpt lat="44.6288398" lon="7.9847079"><ele>220.0</ele><time>2026-04-11T07:52:26.111Z</time></trkpt><trkpt lat="44.6287169" lon="7.9847132"><ele>220.0</ele><time>2026-04-11T07:52:28.111Z</time></trkpt><trkpt lat="44.6286081" lon="7.9847291"><ele>219.8</ele><time>2026-04-11T07:52:30.111Z</time></trkpt><trkpt lat="44.6285054" lon="7.9847486"><ele>219.6</ele><time>2026-04-11T07:52:32.11Z</time></trkpt><trkpt lat="44.628405" lon="7.9847752"><ele>219.39999999999998</ele><time>2026-04-11T07:52:34.11Z</time></trkpt><trkpt lat="44.6283179" lon="7.9847992"><ele>219.2</ele><time>2026-04-11T07:52:36.111Z</time></trkpt><trkpt lat="44.6282335" lon="7.9848238"><ele>219.0</ele><time>2026-04-11T07:52:38.11Z</time></trkpt><trkpt lat="44.6281543" lon="7.9848481"><ele>219.0</ele><time>2026-04-11T07:52:40.111Z</time></trkpt><trkpt lat="44.628076" lon="7.9848719"><ele>219.0</ele><time>2026-04-11T07:52:42.111Z</time></trkpt><trkpt lat="44.6279985" lon="7.984889"><ele>219.0</ele><time>2026-04-11T07:52:44.11Z</time></trkpt><trkpt lat="44.62792" lon="7.9849068"><ele>219.0</ele><time>2026-04-11T07:52:46.111Z</time></trkpt><trkpt lat="44.6278392" lon="7.9849294"><ele>219.0</ele><time>2026-04-11T07:52:48.111Z</time></trkpt><trkpt lat="44.62776" lon="7.984947"><ele>219.0</ele><time>2026-04-11T07:52:50.11Z</time></trkpt><trkpt lat="44.6276831" lon="7.9849605"><ele>218.83333333333334</ele><time>2026-04-11T07:52:52.11Z</time></trkpt><trkpt lat="44.6276091" lon="7.9849808"><ele>218.66666666666669</ele><time>2026-04-11T07:52:54.11Z</time></trkpt><trkpt lat="44.6275397" lon="7.9849961"><ele>218.5</ele><time>2026-04-11T07:52:56.111Z</time></trkpt><trkpt lat="44.6274774" lon="7.9850237"><ele>218.33333333333334</ele><time>2026-04-11T07:52:58.111Z</time></trkpt><trkpt lat="44.6273938" lon="7.9850658"><ele>218.16666666666669</ele><time>2026-04-11T07:53:01.111Z</time></trkpt><trkpt lat="44.6273108" lon="7.9850981"><ele>218.0</ele><time>2026-04-11T07:53:04.111Z</time></trkpt><trkpt lat="44.6272359" lon="7.9851377"><ele>218.57142857142858</ele><time>2026-04-11T07:53:07.111Z</time></trkpt><trkpt lat="44.6271618" lon="7.9851251"><ele>219.14285714285717</ele><time>2026-04-11T07:53:09.11Z</time></trkpt><trkpt lat="44.6270985" lon="7.9851225"><ele>219.71428571428572</ele><time>2026-04-11T07:53:11.111Z</time></trkpt><trkpt lat="44.6270135" lon="7.9851404"><ele>220.28571428571428</ele><time>2026-04-11T07:53:14.111Z</time></trkpt><trkpt lat="44.6269498" lon="7.9851529"><ele>220.85714285714286</ele><time>2026-04-11T07:53:16.11Z</time></trkpt><trkpt lat="44.6268792" lon="7.9851708"><ele>221.42857142857142</ele><time>2026-04-11T07:53:18.11Z</time></trkpt><trkpt lat="44.6268059" lon="7.9851929"><ele>222.0</ele><time>2026-04-11T07:53:20.111Z</time></trkpt><trkpt lat="44.6267355" lon="7.9852124"><ele>222.0</ele><time>2026-04-11T07:53:22.111Z</time></trkpt><trkpt lat="44.6266668" lon="7.9852277"><ele>222.0</ele><time>2026-04-11T07:53:24.111Z</time></trkpt><trkpt lat="44.6266034" lon="7.9852433"><ele>222.0</ele><time>2026-04-11T07:53:26.111Z</time></trkpt><trkpt lat="44.6265355" lon="7.9852613"><ele>222.0</ele><time>2026-04-11T07:53:28.11Z</time></trkpt><trkpt lat="44.626461" lon="7.9852811"><ele>222.0</ele><time>2026-04-11T07:53:30.111Z</time></trkpt><trkpt lat="44.6263817" lon="7.9853028"><ele>222.0</ele><time>2026-04-11T07:53:32.111Z</time></trkpt><trkpt lat="44.6263001" lon="7.9853315"><ele>222.0</ele><time>2026-04-11T07:53:34.11Z</time></trkpt><trkpt lat="44.6262273" lon="7.9853723"><ele>222.0</ele><time>2026-04-11T07:53:36.11Z</time></trkpt><trkpt lat="44.6261621" lon="7.9854197"><ele>222.0</ele><time>2026-04-11T07:53:38.11Z</time></trkpt><trkpt lat="44.6260982" lon="7.9854553"><ele>222.0</ele><time>2026-04-11T07:53:40.111Z</time></trkpt><trkpt lat="44.6260146" lon="7.9855033"><ele>222.0</ele><time>2026-04-11T07:53:43.111Z</time></trkpt><trkpt lat="44.625939" lon="7.9855755"><ele>222.0</ele><time>2026-04-11T07:53:46.111Z</time></trkpt><trkpt lat="44.6258768" lon="7.9856343"><ele>222.0</ele><time>2026-04-11T07:53:48.11Z</time></trkpt><trkpt lat="44.6258109" lon="7.9856936"><ele>221.66666666666666</ele><time>2026-04-11T07:53:50.111Z</time></trkpt><trkpt lat="44.6257442" lon="7.9857562"><ele>221.33333333333331</ele><time>2026-04-11T07:53:52.111Z</time></trkpt><trkpt lat="44.6256773" lon="7.9858189"><ele>221.0</ele><time>2026-04-11T07:53:54.111Z</time></trkpt><trkpt lat="44.625614" lon="7.9858725"><ele>220.66666666666666</ele><time>2026-04-11T07:53:56.111Z</time></trkpt><trkpt lat="44.6255587" lon="7.9859209"><ele>220.33333333333331</ele><time>2026-04-11T07:53:58.11Z</time></trkpt><trkpt lat="44.6254867" lon="7.985984"><ele>220.0</ele><time>2026-04-11T07:54:01.111Z</time></trkpt><trkpt lat="44.6254144" lon="7.986042"><ele>220.49999999999997</ele><time>2026-04-11T07:54:04.111Z</time></trkpt><trkpt lat="44.625334" lon="7.9860987"><ele>221.0</ele><time>2026-04-11T07:54:07.111Z</time></trkpt><trkpt lat="44.625243" lon="7.986136"><ele>221.5</ele><time>2026-04-11T07:54:10.11Z</time></trkpt><trkpt lat="44.6251779" lon="7.9861522"><ele>222.0</ele><time>2026-04-11T07:54:12.111Z</time></trkpt><trkpt lat="44.6251107" lon="7.986167"><ele>222.49999999999997</ele><time>2026-04-11T07:54:14.111Z</time></trkpt><trkpt lat="44.6250417" lon="7.9861837"><ele>223.0</ele><time>2026-04-11T07:54:16.111Z</time></trkpt><trkpt lat="44.6249715" lon="7.9861908"><ele>223.0</ele><time>2026-04-11T07:54:18.111Z</time></trkpt><trkpt lat="44.6249008" lon="7.9862048"><ele>223.0</ele><time>2026-04-11T07:54:20.111Z</time></trkpt><trkpt lat="44.6248314" lon="7.9862173"><ele>223.0</ele><time>2026-04-11T07:54:22.111Z</time></trkpt><trkpt lat="44.6247606" lon="7.9862253"><ele>223.0</ele><time>2026-04-11T07:54:24.111Z</time></trkpt><trkpt lat="44.624686" lon="7.986224"><ele>223.0</ele><time>2026-04-11T07:54:26.11Z</time></trkpt><trkpt lat="44.6246099" lon="7.9862238"><ele>223.0</ele><time>2026-04-11T07:54:28.111Z</time></trkpt><trkpt lat="44.6245359" lon="7.9862143"><ele>223.0</ele><time>2026-04-11T07:54:30.111Z</time></trkpt><trkpt lat="44.6244648" lon="7.9861977"><ele>223.14285714285714</ele><time>2026-04-11T07:54:32.11Z</time></trkpt><trkpt lat="44.624393" lon="7.9861768"><ele>223.28571428571428</ele><time>2026-04-11T07:54:34.111Z</time></trkpt><trkpt lat="44.6243256" lon="7.9861462"><ele>223.42857142857144</ele><time>2026-04-11T07:54:36.111Z</time></trkpt><trkpt lat="44.6242583" lon="7.9861242"><ele>223.57142857142856</ele><time>2026-04-11T07:54:38.111Z</time></trkpt><trkpt lat="44.6241935" lon="7.9860929"><ele>223.71428571428572</ele><time>2026-04-11T07:54:40.111Z</time></trkpt><trkpt lat="44.6241281" lon="7.9860537"><ele>223.85714285714286</ele><time>2026-04-11T07:54:42.11Z</time></trkpt><trkpt lat="44.6240646" lon="7.9860082"><ele>224.0</ele><time>2026-04-11T07:54:44.111Z</time></trkpt><trkpt lat="44.6240049" lon="7.9859496"><ele>224.00000000000003</ele><time>2026-04-11T07:54:46.111Z</time></trkpt><trkpt lat="44.62395" lon="7.9858823"><ele>224.0</ele><time>2026-04-11T07:54:48.111Z</time></trkpt><trkpt lat="44.6238923" lon="7.9858276"><ele>224.0</ele><time>2026-04-11T07:54:50.111Z</time></trkpt><trkpt lat="44.6238375" lon="7.9857697"><ele>224.0</ele><time>2026-04-11T07:54:52.11Z</time></trkpt><trkpt lat="44.6237917" lon="7.9857058"><ele>224.00000000000003</ele><time>2026-04-11T07:54:54.111Z</time></trkpt><trkpt lat="44.6237218" lon="7.9856222"><ele>224.0</ele><time>2026-04-11T07:54:57.111Z</time></trkpt><trkpt lat="44.6236575" lon="7.9855459"><ele>223.71428571428572</ele><time>2026-04-11T07:55:00.111Z</time></trkpt><trkpt lat="44.6236117" lon="7.9854564"><ele>223.42857142857144</ele><time>2026-04-11T07:55:03.11Z</time></trkpt><trkpt lat="44.6235718" lon="7.9853836"><ele>223.14285714285714</ele><time>2026-04-11T07:55:06.11Z</time></trkpt><trkpt lat="44.6235583" lon="7.9852637"><ele>222.85714285714286</ele><time>2026-04-11T07:55:10.111Z</time></trkpt><trkpt lat="44.6235347" lon="7.9851742"><ele>222.57142857142858</ele><time>2026-04-11T07:55:13.111Z</time></trkpt><trkpt lat="44.6235104" lon="7.9850766"><ele>222.28571428571428</ele><time>2026-04-11T07:55:17.111Z</time></trkpt><trkpt lat="44.6235053" lon="7.9849879"><ele>222.0</ele><time>2026-04-11T07:55:21.111Z</time></trkpt><trkpt lat="44.6234842" lon="7.9848787"><ele>222.0</ele><time>2026-04-11T07:55:25.111Z</time></trkpt><trkpt lat="44.6234684" lon="7.984765"><ele>222.0</ele><time>2026-04-11T07:55:29.11Z</time></trkpt><trkpt lat="44.62344" lon="7.9846576"><ele>222.0</ele><time>2026-04-11T07:55:33.11Z</time></trkpt><trkpt lat="44.6234139" lon="7.9845517"><ele>222.0</ele><time>2026-04-11T07:55:37.11Z</time></trkpt><trkpt lat="44.623376" lon="7.9844763"><ele>222.0</ele><time>2026-04-11T07:55:40.111Z</time></trkpt><trkpt lat="44.623324" lon="7.9844109"><ele>222.0</ele><time>2026-04-11T07:55:43.11Z</time></trkpt><trkpt lat="44.6232685" lon="7.9843476"><ele>222.0</ele><time>2026-04-11T07:55:46.111Z</time></trkpt><trkpt lat="44.623201" lon="7.9843131"><ele>222.0</ele><time>2026-04-11T07:55:49.111Z</time></trkpt><trkpt lat="44.6231425" lon="7.9842752"><ele>222.0</ele><time>2026-04-11T07:55:52.111Z</time></trkpt><trkpt lat="44.6230784" lon="7.9842451"><ele>222.0</ele><time>2026-04-11T07:55:55.11Z</time></trkpt><trkpt lat="44.6230082" lon="7.9842124"><ele>222.0</ele><time>2026-04-11T07:55:58.11Z</time></trkpt><trkpt lat="44.6229399" lon="7.9841878"><ele>222.0</ele><time>2026-04-11T07:56:01.111Z</time></trkpt><trkpt lat="44.6228624" lon="7.9841516"><ele>222.0</ele><time>2026-04-11T07:56:05.111Z</time></trkpt><trkpt lat="44.6227839" lon="7.9841184"><ele>222.57142857142856</ele><time>2026-04-11T07:56:09.111Z</time></trkpt><trkpt lat="44.6227044" lon="7.9840896"><ele>223.14285714285717</ele><time>2026-04-11T07:56:13.11Z</time></trkpt><trkpt lat="44.6226257" lon="7.9840645"><ele>223.71428571428572</ele><time>2026-04-11T07:56:17.111Z</time></trkpt><trkpt lat="44.622562" lon="7.9840385"><ele>224.28571428571428</ele><time>2026-04-11T07:56:20.11Z</time></trkpt><trkpt lat="44.6224962" lon="7.9840124"><ele>224.85714285714283</ele><time>2026-04-11T07:56:23.111Z</time></trkpt><trkpt lat="44.6224288" lon="7.9839978"><ele>225.42857142857144</ele><time>2026-04-11T07:56:26.11Z</time></trkpt><trkpt lat="44.6223585" lon="7.9839702"><ele>226.0</ele><time>2026-04-11T07:56:29.11Z</time></trkpt><trkpt lat="44.6222838" lon="7.983951"><ele>225.99999999999997</ele><time>2026-04-11T07:56:32.11Z</time></trkpt><trkpt lat="44.6222116" lon="7.9839316"><ele>226.0</ele><time>2026-04-11T07:56:35.111Z</time></trkpt><trkpt lat="44.6221355" lon="7.9839212"><ele>226.0</ele><time>2026-04-11T07:56:38.111Z</time></trkpt><trkpt lat="44.6220615" lon="7.9839218"><ele>226.0</ele><time>2026-04-11T07:56:41.111Z</time></trkpt><trkpt lat="44.6219826" lon="7.9839343"><ele>225.99999999999997</ele><time>2026-04-11T07:56:44.111Z</time></trkpt><trkpt lat="44.6218992" lon="7.9839494"><ele>226.0</ele><time>2026-04-11T07:56:47.11Z</time></trkpt><trkpt lat="44.6218133" lon="7.9839728"><ele>225.99999999999997</ele><time>2026-04-11T07:56:50.111Z</time></trkpt><trkpt lat="44.6217286" lon="7.9840021"><ele>226.0</ele><time>2026-04-11T07:56:53.111Z</time></trkpt><trkpt lat="44.6216672" lon="7.9840227"><ele>226.0</ele><time>2026-04-11T07:56:55.111Z</time></trkpt><trkpt lat="44.6216029" lon="7.9840385"><ele>226.0</ele><time>2026-04-11T07:56:57.11Z</time></trkpt><trkpt lat="44.6215365" lon="7.9840564"><ele>225.99999999999997</ele><time>2026-04-11T07:56:59.111Z</time></trkpt><trkpt lat="44.6214496" lon="7.9840776"><ele>226.0</ele><time>2026-04-11T07:57:02.111Z</time></trkpt><trkpt lat="44.6213669" lon="7.9840946"><ele>226.0</ele><time>2026-04-11T07:57:05.111Z</time></trkpt><trkpt lat="44.6212761" lon="7.9841018"><ele>226.0</ele><time>2026-04-11T07:57:08.111Z</time></trkpt><trkpt lat="44.6212132" lon="7.984106"><ele>226.0</ele><time>2026-04-11T07:57:10.111Z</time></trkpt><trkpt lat="44.6211466" lon="7.9841131"><ele>226.0</ele><time>2026-04-11T07:57:12.111Z</time></trkpt><trkpt lat="44.621076" lon="7.9841153"><ele>226.0</ele><time>2026-04-11T07:57:14.111Z</time></trkpt><trkpt lat="44.6210044" lon="7.9841164"><ele>226.0</ele><time>2026-04-11T07:57:16.111Z</time></trkpt><trkpt lat="44.6209356" lon="7.9841168"><ele>226.0</ele><time>2026-04-11T07:57:18.111Z</time></trkpt><trkpt lat="44.6208645" lon="7.9841061"><ele>225.85714285714286</ele><time>2026-04-11T07:57:20.111Z</time></trkpt><trkpt lat="44.6207885" lon="7.9840904"><ele>225.71428571428572</ele><time>2026-04-11T07:57:22.111Z</time></trkpt><trkpt lat="44.6207125" lon="7.9840716"><ele>225.57142857142858</ele><time>2026-04-11T07:57:24.111Z</time></trkpt><trkpt lat="44.62064" lon="7.9840468"><ele>225.42857142857144</ele><time>2026-04-11T07:57:26.111Z</time></trkpt><trkpt lat="44.6205694" lon="7.9840242"><ele>225.28571428571428</ele><time>2026-04-11T07:57:28.111Z</time></trkpt><trkpt lat="44.6205015" lon="7.9840059"><ele>225.14285714285717</ele><time>2026-04-11T07:57:30.11Z</time></trkpt><trkpt lat="44.6204352" lon="7.9839906"><ele>225.00000000000003</ele><time>2026-04-11T07:57:32.11Z</time></trkpt><trkpt lat="44.6203428" lon="7.9839854"><ele>226.0</ele><time>2026-04-11T07:57:35.111Z</time></trkpt><trkpt lat="44.6202545" lon="7.9840058"><ele>227.0</ele><time>2026-04-11T07:57:38.111Z</time></trkpt><trkpt lat="44.6201746" lon="7.9840297"><ele>228.0</ele><time>2026-04-11T07:57:41.111Z</time></trkpt><trkpt lat="44.6201045" lon="7.9840573"><ele>229.0</ele><time>2026-04-11T07:57:44.111Z</time></trkpt><trkpt lat="44.6200316" lon="7.9840858"><ele>230.0</ele><time>2026-04-11T07:57:47.111Z</time></trkpt><trkpt lat="44.6199608" lon="7.9841199"><ele>231.0</ele><time>2026-04-11T07:57:50.11Z</time></trkpt><trkpt lat="44.6198947" lon="7.9841429"><ele>230.28571428571428</ele><time>2026-04-11T07:57:53.11Z</time></trkpt><trkpt lat="44.6198309" lon="7.9841872"><ele>229.57142857142856</ele><time>2026-04-11T07:57:56.111Z</time></trkpt><trkpt lat="44.6197699" lon="7.9842184"><ele>228.85714285714286</ele><time>2026-04-11T07:57:59.111Z</time></trkpt><trkpt lat="44.6197063" lon="7.9842437"><ele>228.14285714285714</ele><time>2026-04-11T07:58:02.111Z</time></trkpt><trkpt lat="44.6196433" lon="7.98428"><ele>227.42857142857142</ele><time>2026-04-11T07:58:05.11Z</time></trkpt><trkpt lat="44.6195749" lon="7.9843092"><ele>226.71428571428572</ele><time>2026-04-11T07:58:08.111Z</time></trkpt><trkpt lat="44.619506" lon="7.9843616"><ele>226.0</ele><time>2026-04-11T07:58:11.111Z</time></trkpt><trkpt lat="44.6194514" lon="7.9844078"><ele>226.0</ele><time>2026-04-11T07:58:14.111Z</time></trkpt><trkpt lat="44.6193855" lon="7.9844415"><ele>226.0</ele><time>2026-04-11T07:58:21.111Z</time></trkpt><trkpt lat="44.6193265" lon="7.9844779"><ele>226.0</ele><time>2026-04-11T07:58:27.111Z</time></trkpt><trkpt lat="44.6192596" lon="7.9844923"><ele>226.0</ele><time>2026-04-11T07:58:33.111Z</time></trkpt><trkpt lat="44.6191909" lon="7.9845339"><ele>226.0</ele><time>2026-04-11T07:58:38.111Z</time></trkpt><trkpt lat="44.6191293" lon="7.9845661"><ele>226.0</ele><time>2026-04-11T07:58:42.111Z</time></trkpt><trkpt lat="44.6190597" lon="7.9845928"><ele>226.0</ele><time>2026-04-11T07:58:46.111Z</time></trkpt><trkpt lat="44.6189881" lon="7.9846336"><ele>225.99999999999997</ele><time>2026-04-11T07:58:50.111Z</time></trkpt><trkpt lat="44.6189225" lon="7.984687"><ele>226.0</ele><time>2026-04-11T07:58:54.111Z</time></trkpt><trkpt lat="44.6188496" lon="7.9847134"><ele>226.0</ele><time>2026-04-11T07:58:58.111Z</time></trkpt><trkpt lat="44.618776" lon="7.9847537"><ele>226.0</ele><time>2026-04-11T07:59:02.111Z</time></trkpt><trkpt lat="44.6186971" lon="7.9847925"><ele>225.99999999999997</ele><time>2026-04-11T07:59:06.111Z</time></trkpt><trkpt lat="44.6186369" lon="7.9848324"><ele>226.0</ele><time>2026-04-11T07:59:09.111Z</time></trkpt><trkpt lat="44.6185667" lon="7.9848671"><ele>225.83333333333331</ele><time>2026-04-11T07:59:12.111Z</time></trkpt><trkpt lat="44.6184965" lon="7.9849118"><ele>225.66666666666666</ele><time>2026-04-11T07:59:15.11Z</time></trkpt><trkpt lat="44.6184225" lon="7.9849476"><ele>225.5</ele><time>2026-04-11T07:59:18.111Z</time></trkpt><trkpt lat="44.6183512" lon="7.9849929"><ele>225.33333333333331</ele><time>2026-04-11T07:59:21.111Z</time></trkpt><trkpt lat="44.6182781" lon="7.9850324"><ele>225.16666666666666</ele><time>2026-04-11T07:59:24.111Z</time></trkpt><trkpt lat="44.6182026" lon="7.9850698"><ele>225.0</ele><time>2026-04-11T07:59:27.111Z</time></trkpt><trkpt lat="44.6181288" lon="7.9851039"><ele>225.00000000000003</ele><time>2026-04-11T07:59:30.111Z</time></trkpt><trkpt lat="44.6180497" lon="7.9851461"><ele>225.0</ele><time>2026-04-11T07:59:33.111Z</time></trkpt><trkpt lat="44.6179882" lon="7.9851698"><ele>225.00000000000003</ele><time>2026-04-11T07:59:35.111Z</time></trkpt><trkpt lat="44.6179231" lon="7.9851975"><ele>225.00000000000003</ele><time>2026-04-11T07:59:37.111Z</time></trkpt><trkpt lat="44.6178558" lon="7.9852335"><ele>225.0</ele><time>2026-04-11T07:59:39.111Z</time></trkpt><trkpt lat="44.6177849" lon="7.9852686"><ele>225.00000000000003</ele><time>2026-04-11T07:59:41.11Z</time></trkpt><trkpt lat="44.6177077" lon="7.9852934"><ele>225.00000000000003</ele><time>2026-04-11T07:59:43.111Z</time></trkpt><trkpt lat="44.6176273" lon="7.9853227"><ele>225.33333333333334</ele><time>2026-04-11T07:59:45.11Z</time></trkpt><trkpt lat="44.6175467" lon="7.9853538"><ele>225.66666666666669</ele><time>2026-04-11T07:59:47.111Z</time></trkpt><trkpt lat="44.6174631" lon="7.9853827"><ele>226.0</ele><time>2026-04-11T07:59:49.11Z</time></trkpt><trkpt lat="44.6173731" lon="7.9854078"><ele>226.33333333333334</ele><time>2026-04-11T07:59:51.111Z</time></trkpt><trkpt lat="44.6172813" lon="7.9854313"><ele>226.66666666666669</ele><time>2026-04-11T07:59:53.11Z</time></trkpt><trkpt lat="44.6171875" lon="7.9854462"><ele>227.0</ele><time>2026-04-11T07:59:55.11Z</time></trkpt><trkpt lat="44.6170891" lon="7.9854553"><ele>227.00000000000003</ele><time>2026-04-11T07:59:57.111Z</time></trkpt><trkpt lat="44.616994" lon="7.9854594"><ele>227.0</ele><time>2026-04-11T07:59:59.11Z</time></trkpt><trkpt lat="44.616902" lon="7.9854367"><ele>227.0</ele><time>2026-04-11T08:00:01.11Z</time></trkpt><trkpt lat="44.6168134" lon="7.9854336"><ele>227.0</ele><time>2026-04-11T08:00:03.11Z</time></trkpt><trkpt lat="44.6167341" lon="7.9854167"><ele>227.00000000000003</ele><time>2026-04-11T08:00:05.11Z</time></trkpt><trkpt lat="44.6166629" lon="7.985416"><ele>227.0</ele><time>2026-04-11T08:00:07.111Z</time></trkpt><trkpt lat="44.6165885" lon="7.9854052"><ele>227.2857142857143</ele><time>2026-04-11T08:00:09.111Z</time></trkpt><trkpt lat="44.6165178" lon="7.9854003"><ele>227.5714285714286</ele><time>2026-04-11T08:00:11.111Z</time></trkpt><trkpt lat="44.6164513" lon="7.9853892"><ele>227.85714285714286</ele><time>2026-04-11T08:00:13.111Z</time></trkpt><trkpt lat="44.6163867" lon="7.9853827"><ele>228.14285714285717</ele><time>2026-04-11T08:00:15.111Z</time></trkpt><trkpt lat="44.6163176" lon="7.9853768"><ele>228.42857142857144</ele><time>2026-04-11T08:00:17.111Z</time></trkpt><trkpt lat="44.6162438" lon="7.9853705"><ele>228.71428571428572</ele><time>2026-04-11T08:00:19.11Z</time></trkpt><trkpt lat="44.6161707" lon="7.9853648"><ele>229.0</ele><time>2026-04-11T08:00:21.11Z</time></trkpt><trkpt lat="44.6160995" lon="7.9853555"><ele>229.14285714285714</ele><time>2026-04-11T08:00:23.111Z</time></trkpt><trkpt lat="44.6160298" lon="7.9853386"><ele>229.28571428571428</ele><time>2026-04-11T08:00:25.11Z</time></trkpt><trkpt lat="44.6159615" lon="7.9853287"><ele>229.42857142857142</ele><time>2026-04-11T08:00:27.111Z</time></trkpt><trkpt lat="44.6158874" lon="7.9853182"><ele>229.57142857142856</ele><time>2026-04-11T08:00:29.111Z</time></trkpt><trkpt lat="44.6158143" lon="7.9853031"><ele>229.71428571428572</ele><time>2026-04-11T08:00:31.111Z</time></trkpt><trkpt lat="44.6157454" lon="7.9852903"><ele>229.85714285714283</ele><time>2026-04-11T08:00:33.11Z</time></trkpt><trkpt lat="44.6156784" lon="7.9852723"><ele>229.99999999999997</ele><time>2026-04-11T08:00:35.111Z</time></trkpt><trkpt lat="44.6156144" lon="7.9852569"><ele>229.99999999999997</ele><time>2026-04-11T08:00:37.11Z</time></trkpt><trkpt lat="44.6155528" lon="7.9852374"><ele>230.0</ele><time>2026-04-11T08:00:39.111Z</time></trkpt><trkpt lat="44.6154877" lon="7.98522"><ele>229.99999999999997</ele><time>2026-04-11T08:00:41.11Z</time></trkpt><trkpt lat="44.6154186" lon="7.9852016"><ele>229.99999999999997</ele><time>2026-04-11T08:00:43.111Z</time></trkpt><trkpt lat="44.6153537" lon="7.9851853"><ele>230.0</ele><time>2026-04-11T08:00:45.111Z</time></trkpt><trkpt lat="44.6152718" lon="7.9851753"><ele>229.99999999999997</ele><time>2026-04-11T08:00:48.111Z</time></trkpt><trkpt lat="44.6152072" lon="7.9851625"><ele>229.99999999999997</ele><time>2026-04-11T08:00:51.11Z</time></trkpt><trkpt lat="44.6151333" lon="7.9851687"><ele>230.0</ele><time>2026-04-11T08:00:55.111Z</time></trkpt><trkpt lat="44.6150687" lon="7.9851714"><ele>230.0</ele><time>2026-04-11T08:02:02.111Z</time></trkpt></trkseg><trkseg><trkpt lat="44.602896" lon="7.9800991"><ele>350.14285714285717</ele><time>2026-04-11T08:52:37.131Z</time></trkpt><trkpt lat="44.6028261" lon="7.9800905"><ele>350.2857142857143</ele><time>2026-04-11T08:55:12.131Z</time></trkpt><trkpt lat="44.6027659" lon="7.9800357"><ele>350.42857142857144</ele><time>2026-04-11T08:55:19.141Z</time></trkpt><trkpt lat="44.6027018" lon="7.9799871"><ele>350.57142857142856</ele><time>2026-04-11T08:55:26.131Z</time></trkpt><trkpt lat="44.6026425" lon="7.9799435"><ele>350.7142857142857</ele><time>2026-04-11T08:55:41.131Z</time></trkpt><trkpt lat="44.6025824" lon="7.9799147"><ele>350.8571428571429</ele><time>2026-04-11T08:55:48.131Z</time></trkpt><trkpt lat="44.6025174" lon="7.9798736"><ele>351.0</ele><time>2026-04-11T08:55:55.13Z</time></trkpt><trkpt lat="44.6024604" lon="7.9798323"><ele>354.14285714285717</ele><time>2026-04-11T08:56:01.131Z</time></trkpt><trkpt lat="44.6024002" lon="7.9797903"><ele>357.2857142857143</ele><time>2026-04-11T08:56:07.131Z</time></trkpt><trkpt lat="44.6023374" lon="7.9797534"><ele>360.42857142857144</ele><time>2026-04-11T08:56:14.131Z</time></trkpt><trkpt lat="44.6022787" lon="7.9797109"><ele>363.57142857142856</ele><time>2026-04-11T08:56:20.131Z</time></trkpt><trkpt lat="44.6022131" lon="7.9796807"><ele>366.7142857142857</ele><time>2026-04-11T08:56:26.13Z</time></trkpt><trkpt lat="44.6021468" lon="7.9796473"><ele>369.8571428571429</ele><time>2026-04-11T08:56:33.131Z</time></trkpt><trkpt lat="44.6020892" lon="7.9796042"><ele>373.0</ele><time>2026-04-11T08:56:39.131Z</time></trkpt><trkpt lat="44.6020314" lon="7.9795581"><ele>373.8571428571429</ele><time>2026-04-11T08:56:45.13Z</time></trkpt><trkpt lat="44.6019727" lon="7.9795104"><ele>374.7142857142857</ele><time>2026-04-11T08:56:52.13Z</time></trkpt><trkpt lat="44.601913" lon="7.9794583"><ele>375.57142857142856</ele><time>2026-04-11T08:56:59.13Z</time></trkpt><trkpt lat="44.6018571" lon="7.9794105"><ele>376.42857142857144</ele><time>2026-04-11T08:57:05.131Z</time></trkpt><trkpt lat="44.6017955" lon="7.9793697"><ele>377.2857142857143</ele><time>2026-04-11T08:57:11.131Z</time></trkpt><trkpt lat="44.6017366" lon="7.9793335"><ele>378.14285714285717</ele><time>2026-04-11T08:57:18.131Z</time></trkpt><trkpt lat="44.6016745" lon="7.9793098"><ele>379.0</ele><time>2026-04-11T08:57:31.13Z</time></trkpt><trkpt lat="44.6016102" lon="7.9792673"><ele>379.00000000000006</ele><time>2026-04-11T08:57:37.131Z</time></trkpt><trkpt lat="44.6015498" lon="7.9792164"><ele>379.0</ele><time>2026-04-11T08:57:44.131Z</time></trkpt><trkpt lat="44.6014883" lon="7.9791793"><ele>379.0</ele><time>2026-04-11T08:57:51.131Z</time></trkpt><trkpt lat="44.6014202" lon="7.9791536"><ele>379.0</ele><time>2026-04-11T08:57:58.131Z</time></trkpt><trkpt lat="44.601353" lon="7.979183"><ele>379.0</ele><time>2026-04-11T08:58:05.13Z</time></trkpt><trkpt lat="44.6013005" lon="7.9792467"><ele>379.00000000000006</ele><time>2026-04-11T08:58:12.13Z</time></trkpt><trkpt lat="44.6012671" lon="7.9793255"><ele>379.0</ele><time>2026-04-11T08:58:18.131Z</time></trkpt><trkpt lat="44.6012336" lon="7.9794072"><ele>379.00000000000006</ele><time>2026-04-11T08:58:25.131Z</time></trkpt><trkpt lat="44.6011968" lon="7.979493"><ele>379.0</ele><time>2026-04-11T08:58:32.13Z</time></trkpt><trkpt lat="44.6011621" lon="7.9795723"><ele>379.0</ele><time>2026-04-11T08:58:38.131Z</time></trkpt><trkpt lat="44.6011292" lon="7.9796594"><ele>379.0</ele><time>2026-04-11T08:58:44.131Z</time></trkpt><trkpt lat="44.6010975" lon="7.9797457"><ele>379.0</ele><time>2026-04-11T08:58:50.131Z</time></trkpt><trkpt lat="44.6010731" lon="7.9798424"><ele>379.00000000000006</ele><time>2026-04-11T08:58:57.131Z</time></trkpt><trkpt lat="44.6010725" lon="7.9799312"><ele>379.0</ele><time>2026-04-11T08:59:03.131Z</time></trkpt><trkpt lat="44.6010788" lon="7.9800317"><ele>383.8571428571429</ele><time>2026-04-11T08:59:10.131Z</time></trkpt><trkpt lat="44.6010908" lon="7.9801251"><ele>388.7142857142857</ele><time>2026-04-11T08:59:17.131Z</time></trkpt><trkpt lat="44.6011016" lon="7.9802181"><ele>393.57142857142856</ele><time>2026-04-11T08:59:24.13Z</time></trkpt><trkpt lat="44.6011145" lon="7.9803173"><ele>398.42857142857144</ele><time>2026-04-11T08:59:31.13Z</time></trkpt><trkpt lat="44.6011172" lon="7.9804199"><ele>403.2857142857143</ele><time>2026-04-11T08:59:38.131Z</time></trkpt><trkpt lat="44.601109" lon="7.9805231"><ele>408.14285714285717</ele><time>2026-04-11T08:59:45.13Z</time></trkpt><trkpt lat="44.6010972" lon="7.9806228"><ele>413.0</ele><time>2026-04-11T08:59:52.13Z</time></trkpt><trkpt lat="44.60108" lon="7.9807206"><ele>413.0</ele><time>2026-04-11T08:59:59.131Z</time></trkpt><trkpt lat="44.6010632" lon="7.9808105"><ele>413.0</ele><time>2026-04-11T09:00:05.13Z</time></trkpt><trkpt lat="44.6010532" lon="7.980912"><ele>413.0</ele><time>2026-04-11T09:00:12.131Z</time></trkpt><trkpt lat="44.6010719" lon="7.9810027"><ele>413.0</ele><time>2026-04-11T09:00:18.131Z</time></trkpt><trkpt lat="44.6010971" lon="7.9810983"><ele>413.0</ele><time>2026-04-11T09:00:25.131Z</time></trkpt><trkpt lat="44.601146" lon="7.9811662"><ele>413.0</ele><time>2026-04-11T09:00:32.13Z</time></trkpt><trkpt lat="44.6011774" lon="7.9812558"><ele>413.0</ele><time>2026-04-11T09:00:39.13Z</time></trkpt><trkpt lat="44.601205" lon="7.981339"><ele>411.7142857142857</ele><time>2026-04-11T09:00:45.131Z</time></trkpt><trkpt lat="44.6012318" lon="7.981426"><ele>410.42857142857144</ele><time>2026-04-11T09:00:52.131Z</time></trkpt><trkpt lat="44.6012008" lon="7.9815199"><ele>409.1428571428571</ele><time>2026-04-11T09:00:59.131Z</time></trkpt><trkpt lat="44.6011345" lon="7.9815379"><ele>407.8571428571429</ele><time>2026-04-11T09:01:05.131Z</time></trkpt><trkpt lat="44.601072" lon="7.9814974"><ele>406.57142857142856</ele><time>2026-04-11T09:01:11.13Z</time></trkpt><trkpt lat="44.6010447" lon="7.9814039"><ele>405.2857142857143</ele><time>2026-04-11T09:01:18.13Z</time></trkpt><trkpt lat="44.601014" lon="7.9813137"><ele>404.0</ele><time>2026-04-11T09:01:25.13Z</time></trkpt><trkpt lat="44.6009796" lon="7.9812362"><ele>404.0</ele><time>2026-04-11T09:01:31.131Z</time></trkpt><trkpt lat="44.6009379" lon="7.9811542"><ele>404.0</ele><time>2026-04-11T09:01:38.131Z</time></trkpt><trkpt lat="44.6009015" lon="7.9810731"><ele>404.0</ele><time>2026-04-11T09:01:45.13Z</time></trkpt><trkpt lat="44.6008691" lon="7.9809901"><ele>404.0</ele><time>2026-04-11T09:01:53.13Z</time></trkpt><trkpt lat="44.6008319" lon="7.9809094"><ele>404.0</ele><time>2026-04-11T09:02:02.13Z</time></trkpt><trkpt lat="44.6008046" lon="7.9808242"><ele>404.0</ele><time>2026-04-11T09:02:10.131Z</time></trkpt><trkpt lat="44.6008277" lon="7.9807284"><ele>404.0</ele><time>2026-04-11T09:02:17.131Z</time></trkpt><trkpt lat="44.6008359" lon="7.9806396"><ele>404.0</ele><time>2026-04-11T09:02:24.13Z</time></trkpt><trkpt lat="44.6008197" lon="7.980738"><ele>404.0</ele><time>2026-04-11T09:03:18.131Z</time></trkpt><trkpt lat="44.6008205" lon="7.9808377"><ele>404.0</ele><time>2026-04-11T09:03:24.131Z</time></trkpt><trkpt lat="44.6007926" lon="7.9809313"><ele>404.0</ele><time>2026-04-11T09:03:31.131Z</time></trkpt><trkpt lat="44.600824" lon="7.9808489"><ele>404.0</ele><time>2026-04-11T09:03:40.131Z</time></trkpt><trkpt lat="44.6008309" lon="7.9807517"><ele>404.0</ele><time>2026-04-11T09:03:46.131Z</time></trkpt><trkpt lat="44.6008241" lon="7.98065"><ele>404.0</ele><time>2026-04-11T09:03:53.131Z</time></trkpt><trkpt lat="44.6008253" lon="7.980553"><ele>403.99999999999994</ele><time>2026-04-11T09:04:01.131Z</time></trkpt><trkpt lat="44.6008129" lon="7.9806747"><ele>404.0</ele><time>2026-04-11T09:04:59.131Z</time></trkpt><trkpt lat="44.600821" lon="7.9807906"><ele>404.0</ele><time>2026-04-11T09:05:01.131Z</time></trkpt><trkpt lat="44.6007975" lon="7.9809027"><ele>404.0</ele><time>2026-04-11T09:05:03.131Z</time></trkpt><trkpt lat="44.6007972" lon="7.9810066"><ele>403.99999999999994</ele><time>2026-04-11T09:05:05.131Z</time></trkpt><trkpt lat="44.6008281" lon="7.9811124"><ele>404.0</ele><time>2026-04-11T09:05:08.13Z</time></trkpt><trkpt lat="44.6007933" lon="7.9811927"><ele>404.0</ele><time>2026-04-11T09:05:26.131Z</time></trkpt><trkpt lat="44.600826" lon="7.981117"><ele>404.0</ele><time>2026-04-11T09:05:46.131Z</time></trkpt><trkpt lat="44.6008041" lon="7.9810216"><ele>404.0</ele><time>2026-04-11T09:05:53.13Z</time></trkpt><trkpt lat="44.6007861" lon="7.9809287"><ele>404.0</ele><time>2026-04-11T09:06:13.13Z</time></trkpt><trkpt lat="44.6008204" lon="7.9808385"><ele>404.0</ele><time>2026-04-11T09:06:19.131Z</time></trkpt><trkpt lat="44.6008331" lon="7.9807456"><ele>404.0</ele><time>2026-04-11T09:06:25.13Z</time></trkpt><trkpt lat="44.6008309" lon="7.9806571"><ele>404.0</ele><time>2026-04-11T09:06:31.13Z</time></trkpt><trkpt lat="44.6008266" lon="7.9805663"><ele>404.85714285714283</ele><time>2026-04-11T09:06:37.13Z</time></trkpt><trkpt lat="44.6008142" lon="7.9804716"><ele>405.71428571428567</ele><time>2026-04-11T09:06:43.131Z</time></trkpt><trkpt lat="44.6007911" lon="7.9803752"><ele>406.57142857142856</ele><time>2026-04-11T09:06:49.131Z</time></trkpt><trkpt lat="44.6007561" lon="7.9802845"><ele>407.42857142857144</ele><time>2026-04-11T09:06:56.131Z</time></trkpt><trkpt lat="44.6007128" lon="7.9802008"><ele>408.2857142857143</ele><time>2026-04-11T09:07:03.131Z</time></trkpt><trkpt lat="44.6006807" lon="7.9801118"><ele>409.14285714285717</ele><time>2026-04-11T09:07:10.131Z</time></trkpt><trkpt lat="44.6006505" lon="7.9800308"><ele>410.0</ele><time>2026-04-11T09:07:16.131Z</time></trkpt><trkpt lat="44.600612" lon="7.9799557"><ele>410.0</ele><time>2026-04-11T09:07:22.131Z</time></trkpt><trkpt lat="44.6005643" lon="7.9798811"><ele>410.0</ele><time>2026-04-11T09:07:29.131Z</time></trkpt><trkpt lat="44.6005198" lon="7.9798036"><ele>410.0</ele><time>2026-04-11T09:07:35.131Z</time></trkpt><trkpt lat="44.6004728" lon="7.9797408"><ele>410.0</ele><time>2026-04-11T09:07:41.131Z</time></trkpt><trkpt lat="44.6004447" lon="7.9796601"><ele>410.0</ele><time>2026-04-11T09:07:47.13Z</time></trkpt><trkpt lat="44.6004186" lon="7.9795762"><ele>410.0</ele><time>2026-04-11T09:07:53.131Z</time></trkpt><trkpt lat="44.6004144" lon="7.9794816"><ele>410.0</ele><time>2026-04-11T09:07:59.131Z</time></trkpt><trkpt lat="44.6004162" lon="7.9793896"><ele>410.0</ele><time>2026-04-11T09:08:05.13Z</time></trkpt><trkpt lat="44.60041" lon="7.9792882"><ele>410.0</ele><time>2026-04-11T09:08:12.131Z</time></trkpt><trkpt lat="44.6004084" lon="7.979195"><ele>410.0</ele><time>2026-04-11T09:08:18.131Z</time></trkpt><trkpt lat="44.6004085" lon="7.9791057"><ele>410.0</ele><time>2026-04-11T09:08:24.131Z</time></trkpt><trkpt lat="44.6004131" lon="7.9790057"><ele>410.0</ele><time>2026-04-11T09:08:32.13Z</time></trkpt><trkpt lat="44.6004218" lon="7.9789036"><ele>410.0</ele><time>2026-04-11T09:08:39.131Z</time></trkpt><trkpt lat="44.6004311" lon="7.9788103"><ele>410.0</ele><time>2026-04-11T09:08:47.131Z</time></trkpt><trkpt lat="44.6004888" lon="7.9787516"><ele>411.14285714285717</ele><time>2026-04-11T09:08:54.131Z</time></trkpt><trkpt lat="44.6005329" lon="7.9786719"><ele>412.2857142857143</ele><time>2026-04-11T09:09:01.131Z</time></trkpt><trkpt lat="44.6005859" lon="7.9786014"><ele>413.42857142857144</ele><time>2026-04-11T09:09:08.131Z</time></trkpt><trkpt lat="44.6006455" lon="7.9785434"><ele>414.57142857142856</ele><time>2026-04-11T09:09:14.131Z</time></trkpt><trkpt lat="44.600707" lon="7.9785104"><ele>415.71428571428567</ele><time>2026-04-11T09:09:20.131Z</time></trkpt><trkpt lat="44.6007662" lon="7.9784746"><ele>416.85714285714283</ele><time>2026-04-11T09:09:26.131Z</time></trkpt><trkpt lat="44.6008208" lon="7.978426"><ele>418.0</ele><time>2026-04-11T09:09:32.131Z</time></trkpt><trkpt lat="44.600867" lon="7.9783591"><ele>420.7142857142857</ele><time>2026-04-11T09:09:38.13Z</time></trkpt><trkpt lat="44.6009071" lon="7.9782806"><ele>423.42857142857144</ele><time>2026-04-11T09:09:44.131Z</time></trkpt><trkpt lat="44.6009289" lon="7.9781972"><ele>426.1428571428571</ele><time>2026-04-11T09:09:50.131Z</time></trkpt><trkpt lat="44.6009393" lon="7.9780975"><ele>428.8571428571429</ele><time>2026-04-11T09:09:57.131Z</time></trkpt><trkpt lat="44.6009581" lon="7.9780102"><ele>431.5714285714286</ele><time>2026-04-11T09:10:03.131Z</time></trkpt><trkpt lat="44.6009846" lon="7.9779233"><ele>434.2857142857143</ele><time>2026-04-11T09:10:09.13Z</time></trkpt><trkpt lat="44.6010195" lon="7.9778423"><ele>437.0</ele><time>2026-04-11T09:10:15.131Z</time></trkpt><trkpt lat="44.6010709" lon="7.9777723"><ele>437.0</ele><time>2026-04-11T09:10:21.131Z</time></trkpt><trkpt lat="44.6011233" lon="7.9777121"><ele>437.0</ele><time>2026-04-11T09:10:27.13Z</time></trkpt><trkpt lat="44.6011839" lon="7.9776652"><ele>437.0</ele><time>2026-04-11T09:10:33.131Z</time></trkpt><trkpt lat="44.6012457" lon="7.9776445"><ele>437.0</ele><time>2026-04-11T09:10:39.131Z</time></trkpt><trkpt lat="44.6013152" lon="7.9776235"><ele>437.0</ele><time>2026-04-11T09:10:46.131Z</time></trkpt><trkpt lat="44.6013832" lon="7.9776057"><ele>437.0</ele><time>2026-04-11T09:10:53.13Z</time></trkpt><trkpt lat="44.6014466" lon="7.9775928"><ele>437.0</ele><time>2026-04-11T09:10:59.131Z</time></trkpt><trkpt lat="44.6015161" lon="7.9775723"><ele>435.4285714285714</ele><time>2026-04-11T09:11:06.13Z</time></trkpt><trkpt lat="44.6015796" lon="7.9775638"><ele>433.8571428571429</ele><time>2026-04-11T09:11:13.131Z</time></trkpt><trkpt lat="44.6016475" lon="7.9775676"><ele>432.2857142857143</ele><time>2026-04-11T09:11:19.131Z</time></trkpt><trkpt lat="44.6017166" lon="7.9775907"><ele>430.71428571428567</ele><time>2026-04-11T09:11:26.131Z</time></trkpt><trkpt lat="44.6017767" lon="7.9776419"><ele>429.1428571428571</ele><time>2026-04-11T09:11:32.131Z</time></trkpt><trkpt lat="44.6018335" lon="7.9776853"><ele>427.57142857142856</ele><time>2026-04-11T09:11:38.131Z</time></trkpt><trkpt lat="44.6018956" lon="7.9777255"><ele>426.0</ele><time>2026-04-11T09:11:45.13Z</time></trkpt><trkpt lat="44.6019566" lon="7.977753"><ele>427.99999999999994</ele><time>2026-04-11T09:11:51.131Z</time></trkpt><trkpt lat="44.6020289" lon="7.9777662"><ele>430.0</ele><time>2026-04-11T09:11:58.13Z</time></trkpt><trkpt lat="44.6020944" lon="7.977782"><ele>432.0</ele><time>2026-04-11T09:12:04.13Z</time></trkpt><trkpt lat="44.6021565" lon="7.977806"><ele>434.0</ele><time>2026-04-11T09:12:10.13Z</time></trkpt><trkpt lat="44.6022179" lon="7.977855"><ele>436.0</ele><time>2026-04-11T09:12:17.131Z</time></trkpt><trkpt lat="44.6022676" lon="7.9779186"><ele>437.99999999999994</ele><time>2026-04-11T09:12:24.131Z</time></trkpt><trkpt lat="44.6023243" lon="7.9779823"><ele>440.0</ele><time>2026-04-11T09:12:31.13Z</time></trkpt><trkpt lat="44.6023787" lon="7.9780291"><ele>439.99999999999994</ele><time>2026-04-11T09:12:37.13Z</time></trkpt><trkpt lat="44.6024432" lon="7.978056"><ele>440.0</ele><time>2026-04-11T09:12:44.131Z</time></trkpt><trkpt lat="44.6025124" lon="7.9780668"><ele>440.0</ele><time>2026-04-11T09:12:50.131Z</time></trkpt><trkpt lat="44.6025847" lon="7.9780612"><ele>440.0</ele><time>2026-04-11T09:12:56.13Z</time></trkpt><trkpt lat="44.6026507" lon="7.9780442"><ele>440.0</ele><time>2026-04-11T09:13:02.131Z</time></trkpt><trkpt lat="44.6027137" lon="7.9780055"><ele>439.99999999999994</ele><time>2026-04-11T09:13:08.13Z</time></trkpt><trkpt lat="44.6027634" lon="7.9779464"><ele>440.0</ele><time>2026-04-11T09:13:14.13Z</time></trkpt><trkpt lat="44.6028037" lon="7.9778681"><ele>439.71428571428567</ele><time>2026-04-11T09:13:20.131Z</time></trkpt><trkpt lat="44.6028503" lon="7.9778009"><ele>439.42857142857144</ele><time>2026-04-11T09:13:27.131Z</time></trkpt><trkpt lat="44.6028953" lon="7.9777379"><ele>439.1428571428571</ele><time>2026-04-11T09:13:33.13Z</time></trkpt><trkpt lat="44.6029506" lon="7.9776701"><ele>438.85714285714283</ele><time>2026-04-11T09:13:40.131Z</time></trkpt><trkpt lat="44.603005" lon="7.9776076"><ele>438.57142857142856</ele><time>2026-04-11T09:13:47.131Z</time></trkpt><trkpt lat="44.6030601" lon="7.9775415"><ele>438.2857142857143</ele><time>2026-04-11T09:13:54.13Z</time></trkpt><trkpt lat="44.6031049" lon="7.9774684"><ele>438.0</ele><time>2026-04-11T09:14:01.13Z</time></trkpt><trkpt lat="44.6031448" lon="7.9773862"><ele>441.0</ele><time>2026-04-11T09:14:09.13Z</time></trkpt><trkpt lat="44.6031439" lon="7.9772859"><ele>444.0</ele><time>2026-04-11T09:14:16.131Z</time></trkpt><trkpt lat="44.6030979" lon="7.9772084"><ele>447.0</ele><time>2026-04-11T09:14:23.131Z</time></trkpt><trkpt lat="44.6030368" lon="7.9771725"><ele>450.0</ele><time>2026-04-11T09:14:29.131Z</time></trkpt><trkpt lat="44.6029746" lon="7.9771524"><ele>453.0</ele><time>2026-04-11T09:14:35.131Z</time></trkpt><trkpt lat="44.6029038" lon="7.9771594"><ele>456.0</ele><time>2026-04-11T09:14:41.131Z</time></trkpt><trkpt lat="44.6028303" lon="7.9771683"><ele>459.0</ele><time>2026-04-11T09:14:47.13Z</time></trkpt><trkpt lat="44.6027582" lon="7.9771802"><ele>459.14285714285717</ele><time>2026-04-11T09:14:53.131Z</time></trkpt><trkpt lat="44.6026865" lon="7.9771839"><ele>459.2857142857142</ele><time>2026-04-11T09:14:59.131Z</time></trkpt><trkpt lat="44.6026201" lon="7.9771833"><ele>459.4285714285714</ele><time>2026-04-11T09:15:05.131Z</time></trkpt><trkpt lat="44.6025562" lon="7.9771478"><ele>459.57142857142856</ele><time>2026-04-11T09:15:11.131Z</time></trkpt><trkpt lat="44.6024947" lon="7.9770932"><ele>459.71428571428567</ele><time>2026-04-11T09:15:18.131Z</time></trkpt><trkpt lat="44.6024275" lon="7.9771148"><ele>459.8571428571428</ele><time>2026-04-11T09:15:25.131Z</time></trkpt><trkpt lat="44.6023558" lon="7.9771257"><ele>459.99999999999994</ele><time>2026-04-11T09:15:35.131Z</time></trkpt><trkpt lat="44.6022835" lon="7.9771274"><ele>459.99999999999994</ele><time>2026-04-11T09:15:40.13Z</time></trkpt><trkpt lat="44.6022128" lon="7.9771246"><ele>460.0</ele><time>2026-04-11T09:15:45.131Z</time></trkpt><trkpt lat="44.6021422" lon="7.9771152"><ele>459.99999999999994</ele><time>2026-04-11T09:15:50.131Z</time></trkpt><trkpt lat="44.6020799" lon="7.9771004"><ele>459.99999999999994</ele><time>2026-04-11T09:15:54.131Z</time></trkpt><trkpt lat="44.6020131" lon="7.9770758"><ele>460.0</ele><time>2026-04-11T09:15:58.131Z</time></trkpt><trkpt lat="44.6019423" lon="7.9770548"><ele>459.99999999999994</ele><time>2026-04-11T09:16:02.131Z</time></trkpt><trkpt lat="44.6018795" lon="7.9770337"><ele>459.99999999999994</ele><time>2026-04-11T09:16:05.131Z</time></trkpt><trkpt lat="44.6018179" lon="7.9770139"><ele>459.2857142857142</ele><time>2026-04-11T09:16:08.13Z</time></trkpt><trkpt lat="44.6017388" lon="7.9769983"><ele>458.57142857142856</ele><time>2026-04-11T09:16:12.131Z</time></trkpt><trkpt lat="44.6016565" lon="7.9769968"><ele>457.85714285714283</ele><time>2026-04-11T09:16:16.131Z</time></trkpt><trkpt lat="44.6015932" lon="7.9769914"><ele>457.1428571428571</ele><time>2026-04-11T09:16:19.131Z</time></trkpt><trkpt lat="44.6015286" lon="7.9769984"><ele>456.42857142857144</ele><time>2026-04-11T09:16:22.131Z</time></trkpt><trkpt lat="44.6014623" lon="7.9769999"><ele>455.7142857142857</ele><time>2026-04-11T09:16:25.131Z</time></trkpt><trkpt lat="44.6013826" lon="7.9769934"><ele>455.0</ele><time>2026-04-11T09:16:29.131Z</time></trkpt><trkpt lat="44.6013189" lon="7.9769812"><ele>455.0</ele><time>2026-04-11T09:16:34.131Z</time></trkpt><trkpt lat="44.6012526" lon="7.9769742"><ele>455.0</ele><time>2026-04-11T09:17:13.13Z</time></trkpt><trkpt lat="44.6011876" lon="7.9769585"><ele>455.0</ele><time>2026-04-11T09:17:17.13Z</time></trkpt><trkpt lat="44.6011101" lon="7.9769504"><ele>455.0</ele><time>2026-04-11T09:17:22.13Z</time></trkpt><trkpt lat="44.6010417" lon="7.9769429"><ele>455.0</ele><time>2026-04-11T09:17:26.131Z</time></trkpt><trkpt lat="44.6009717" lon="7.9769485"><ele>455.0</ele><time>2026-04-11T09:17:30.131Z</time></trkpt><trkpt lat="44.6009007" lon="7.9769714"><ele>455.0</ele><time>2026-04-11T09:17:34.131Z</time></trkpt><trkpt lat="44.600838" lon="7.9769937"><ele>456.2857142857143</ele><time>2026-04-11T09:17:38.13Z</time></trkpt><trkpt lat="44.6007704" lon="7.9770224"><ele>457.57142857142856</ele><time>2026-04-11T09:17:42.131Z</time></trkpt><trkpt lat="44.6007041" lon="7.9770634"><ele>458.8571428571429</ele><time>2026-04-11T09:17:46.131Z</time></trkpt><trkpt lat="44.6006341" lon="7.9770993"><ele>460.14285714285717</ele><time>2026-04-11T09:17:50.131Z</time></trkpt><trkpt lat="44.6005695" lon="7.9771451"><ele>461.42857142857144</ele><time>2026-04-11T09:17:54.131Z</time></trkpt><trkpt lat="44.6005083" lon="7.9771944"><ele>462.7142857142858</ele><time>2026-04-11T09:17:58.13Z</time></trkpt><trkpt lat="44.6004507" lon="7.9772514"><ele>464.00000000000006</ele><time>2026-04-11T09:18:02.131Z</time></trkpt><trkpt lat="44.6004008" lon="7.977322"><ele>463.99999999999994</ele><time>2026-04-11T09:18:06.131Z</time></trkpt><trkpt lat="44.6003592" lon="7.977414"><ele>464.0</ele><time>2026-04-11T09:18:10.13Z</time></trkpt><trkpt lat="44.6003238" lon="7.9775077"><ele>464.0</ele><time>2026-04-11T09:18:14.13Z</time></trkpt><trkpt lat="44.6002853" lon="7.9776076"><ele>464.0</ele><time>2026-04-11T09:18:18.131Z</time></trkpt><trkpt lat="44.6002355" lon="7.9776919"><ele>463.99999999999994</ele><time>2026-04-11T09:18:22.131Z</time></trkpt><trkpt lat="44.6001626" lon="7.9777376"><ele>464.0</ele><time>2026-04-11T09:18:26.131Z</time></trkpt><trkpt lat="44.6000897" lon="7.9777512"><ele>464.7142857142858</ele><time>2026-04-11T09:18:30.131Z</time></trkpt><trkpt lat="44.6000203" lon="7.9777614"><ele>465.42857142857144</ele><time>2026-04-11T09:18:34.13Z</time></trkpt><trkpt lat="44.5999513" lon="7.9777907"><ele>466.14285714285717</ele><time>2026-04-11T09:18:38.13Z</time></trkpt><trkpt lat="44.5998769" lon="7.9778089"><ele>466.8571428571429</ele><time>2026-04-11T09:18:43.131Z</time></trkpt><trkpt lat="44.599823" lon="7.9778688"><ele>467.57142857142856</ele><time>2026-04-11T09:18:47.131Z</time></trkpt><trkpt lat="44.5997671" lon="7.9779369"><ele>468.2857142857143</ele><time>2026-04-11T09:18:51.131Z</time></trkpt><trkpt lat="44.5997167" lon="7.9780209"><ele>469.0</ele><time>2026-04-11T09:18:55.131Z</time></trkpt><trkpt lat="44.5996703" lon="7.9781055"><ele>469.0</ele><time>2026-04-11T09:18:59.13Z</time></trkpt><trkpt lat="44.5996118" lon="7.9781544"><ele>469.0</ele><time>2026-04-11T09:19:02.131Z</time></trkpt><trkpt lat="44.5995484" lon="7.9781406"><ele>469.0</ele><time>2026-04-11T09:19:05.131Z</time></trkpt><trkpt lat="44.599488" lon="7.9780964"><ele>469.0</ele><time>2026-04-11T09:19:08.131Z</time></trkpt><trkpt lat="44.5994283" lon="7.9780465"><ele>469.0</ele><time>2026-04-11T09:19:12.131Z</time></trkpt><trkpt lat="44.5993647" lon="7.9779797"><ele>469.0</ele><time>2026-04-11T09:19:16.13Z</time></trkpt><trkpt lat="44.5993124" lon="7.9779221"><ele>469.0</ele><time>2026-04-11T09:19:19.131Z</time></trkpt><trkpt lat="44.5992492" lon="7.977845"><ele>469.1428571428571</ele><time>2026-04-11T09:19:23.13Z</time></trkpt><trkpt lat="44.5991992" lon="7.9777852"><ele>469.2857142857143</ele><time>2026-04-11T09:19:26.13Z</time></trkpt><trkpt lat="44.5991413" lon="7.9777266"><ele>469.42857142857144</ele><time>2026-04-11T09:19:29.131Z</time></trkpt><trkpt lat="44.5990706" lon="7.9776715"><ele>469.57142857142856</ele><time>2026-04-11T09:19:32.13Z</time></trkpt><trkpt lat="44.5989968" lon="7.9776391"><ele>469.71428571428567</ele><time>2026-04-11T09:19:35.13Z</time></trkpt><trkpt lat="44.5989321" lon="7.9776234"><ele>469.85714285714283</ele><time>2026-04-11T09:19:38.131Z</time></trkpt><trkpt lat="44.5988583" lon="7.9776176"><ele>470.0</ele><time>2026-04-11T09:19:41.131Z</time></trkpt><trkpt lat="44.5987841" lon="7.9776195"><ele>469.99999999999994</ele><time>2026-04-11T09:19:44.131Z</time></trkpt><trkpt lat="44.5987057" lon="7.9776305"><ele>470.0</ele><time>2026-04-11T09:19:47.131Z</time></trkpt><trkpt lat="44.5986307" lon="7.9776392"><ele>470.0</ele><time>2026-04-11T09:19:50.131Z</time></trkpt><trkpt lat="44.5985495" lon="7.9776563"><ele>470.0</ele><time>2026-04-11T09:19:53.131Z</time></trkpt><trkpt lat="44.5984624" lon="7.9776807"><ele>469.99999999999994</ele><time>2026-04-11T09:19:56.13Z</time></trkpt><trkpt lat="44.598378" lon="7.9776964"><ele>470.0</ele><time>2026-04-11T09:19:59.131Z</time></trkpt><trkpt lat="44.5982959" lon="7.9777119"><ele>469.57142857142856</ele><time>2026-04-11T09:20:03.131Z</time></trkpt><trkpt lat="44.5982163" lon="7.9777198"><ele>469.1428571428571</ele><time>2026-04-11T09:20:08.13Z</time></trkpt><trkpt lat="44.5981408" lon="7.9777051"><ele>468.71428571428567</ele><time>2026-04-11T09:20:12.13Z</time></trkpt><trkpt lat="44.5980799" lon="7.9776742"><ele>468.2857142857142</ele><time>2026-04-11T09:21:23.13Z</time></trkpt><trkpt lat="44.5980132" lon="7.977708"><ele>467.85714285714283</ele><time>2026-04-11T09:21:30.131Z</time></trkpt><trkpt lat="44.5979498" lon="7.977643"><ele>467.42857142857133</ele><time>2026-04-11T09:21:33.13Z</time></trkpt><trkpt lat="44.5978978" lon="7.9775911"><ele>466.99999999999994</ele><time>2026-04-11T09:21:35.13Z</time></trkpt><trkpt lat="44.5978373" lon="7.9775329"><ele>469.6</ele><time>2026-04-11T09:21:37.131Z</time></trkpt><trkpt lat="44.5977632" lon="7.9774832"><ele>472.20000000000005</ele><time>2026-04-11T09:21:39.131Z</time></trkpt><trkpt lat="44.5976744" lon="7.9774504"><ele>474.8</ele><time>2026-04-11T09:21:41.131Z</time></trkpt><trkpt lat="44.5975756" lon="7.9774182"><ele>477.4</ele><time>2026-04-11T09:21:43.131Z</time></trkpt><trkpt lat="44.5974722" lon="7.9773958"><ele>480.0</ele><time>2026-04-11T09:21:45.131Z</time></trkpt><trkpt lat="44.597366" lon="7.9773773"><ele>480.0</ele><time>2026-04-11T09:21:47.131Z</time></trkpt><trkpt lat="44.5972622" lon="7.977361"><ele>480.0</ele><time>2026-04-11T09:21:49.13Z</time></trkpt><trkpt lat="44.5971596" lon="7.9773478"><ele>480.0</ele><time>2026-04-11T09:21:51.13Z</time></trkpt><trkpt lat="44.5970545" lon="7.9773321"><ele>480.0</ele><time>2026-04-11T09:21:53.131Z</time></trkpt><trkpt lat="44.5969462" lon="7.977299"><ele>480.0</ele><time>2026-04-11T09:21:55.13Z</time></trkpt><trkpt lat="44.5968415" lon="7.9772362"><ele>482.4</ele><time>2026-04-11T09:21:57.13Z</time></trkpt><trkpt lat="44.5967397" lon="7.9771329"><ele>484.8</ele><time>2026-04-11T09:21:59.131Z</time></trkpt><trkpt lat="44.5966347" lon="7.9770245"><ele>487.20000000000005</ele><time>2026-04-11T09:22:01.13Z</time></trkpt><trkpt lat="44.5965812" lon="7.9769666"><ele>489.6</ele><time>2026-04-11T09:22:02.13Z</time></trkpt><trkpt lat="44.5965254" lon="7.9769124"><ele>492.0</ele><time>2026-04-11T09:22:03.131Z</time></trkpt><trkpt lat="44.5964728" lon="7.9768562"><ele>492.00000000000006</ele><time>2026-04-11T09:22:04.131Z</time></trkpt><trkpt lat="44.5964179" lon="7.9767946"><ele>492.0</ele><time>2026-04-11T09:22:05.131Z</time></trkpt><trkpt lat="44.5963603" lon="7.9767387"><ele>492.00000000000006</ele><time>2026-04-11T09:22:06.131Z</time></trkpt><trkpt lat="44.5963045" lon="7.9766856"><ele>492.00000000000006</ele><time>2026-04-11T09:22:07.131Z</time></trkpt><trkpt lat="44.5962511" lon="7.9766294"><ele>492.0</ele><time>2026-04-11T09:22:08.131Z</time></trkpt><trkpt lat="44.5962014" lon="7.9765672"><ele>492.00000000000006</ele><time>2026-04-11T09:22:09.131Z</time></trkpt><trkpt lat="44.5961614" lon="7.9764957"><ele>492.00000000000006</ele><time>2026-04-11T09:22:10.13Z</time></trkpt><trkpt lat="44.5961301" lon="7.9764167"><ele>494.0</ele><time>2026-04-11T09:22:11.131Z</time></trkpt><trkpt lat="44.5961163" lon="7.9763291"><ele>496.00000000000006</ele><time>2026-04-11T09:22:12.13Z</time></trkpt><trkpt lat="44.5961315" lon="7.976165"><ele>498.00000000000006</ele><time>2026-04-11T09:22:14.131Z</time></trkpt><trkpt lat="44.5961635" lon="7.9760128"><ele>500.0</ele><time>2026-04-11T09:22:16.131Z</time></trkpt><trkpt lat="44.5962029" lon="7.975876"><ele>502.0</ele><time>2026-04-11T09:22:18.131Z</time></trkpt><trkpt lat="44.5962543" lon="7.9757375"><ele>495.40000000000003</ele><time>2026-04-11T09:22:20.131Z</time></trkpt><trkpt lat="44.5963063" lon="7.9756085"><ele>488.80000000000007</ele><time>2026-04-11T09:22:22.13Z</time></trkpt><trkpt lat="44.596343" lon="7.9754825"><ele>482.2</ele><time>2026-04-11T09:22:24.13Z</time></trkpt><trkpt lat="44.5963552" lon="7.9753566"><ele>475.6</ele><time>2026-04-11T09:22:26.131Z</time></trkpt><trkpt lat="44.5963447" lon="7.9752401"><ele>469.0</ele><time>2026-04-11T09:22:28.131Z</time></trkpt><trkpt lat="44.5963227" lon="7.9751276"><ele>469.0</ele><time>2026-04-11T09:22:30.13Z</time></trkpt><trkpt lat="44.5962946" lon="7.9750142"><ele>469.0</ele><time>2026-04-11T09:22:32.131Z</time></trkpt><trkpt lat="44.5962647" lon="7.9749094"><ele>469.0</ele><time>2026-04-11T09:22:34.131Z</time></trkpt><trkpt lat="44.596235" lon="7.9748127"><ele>469.0</ele><time>2026-04-11T09:22:36.131Z</time></trkpt><trkpt lat="44.596204" lon="7.9747226"><ele>469.0</ele><time>2026-04-11T09:22:38.131Z</time></trkpt><trkpt lat="44.5961794" lon="7.9746368"><ele>469.0</ele><time>2026-04-11T09:22:40.13Z</time></trkpt><trkpt lat="44.596152" lon="7.9745563"><ele>469.0</ele><time>2026-04-11T09:22:42.131Z</time></trkpt><trkpt lat="44.5961102" lon="7.9744542"><ele>472.33333333333337</ele><time>2026-04-11T09:22:45.131Z</time></trkpt><trkpt lat="44.5960816" lon="7.974354"><ele>475.6666666666667</ele><time>2026-04-11T09:22:48.13Z</time></trkpt><trkpt lat="44.5960354" lon="7.9742658"><ele>479.0</ele><time>2026-04-11T09:22:51.131Z</time></trkpt><trkpt lat="44.5959872" lon="7.9741877"><ele>482.33333333333337</ele><time>2026-04-11T09:22:54.13Z</time></trkpt><trkpt lat="44.5959293" lon="7.9741151"><ele>485.6666666666667</ele><time>2026-04-11T09:22:57.131Z</time></trkpt><trkpt lat="44.5958725" lon="7.9740244"><ele>489.0</ele><time>2026-04-11T09:23:00.13Z</time></trkpt><trkpt lat="44.5958273" lon="7.9739339"><ele>489.0</ele><time>2026-04-11T09:23:03.131Z</time></trkpt><trkpt lat="44.5958061" lon="7.9738134"><ele>489.0</ele><time>2026-04-11T09:23:06.13Z</time></trkpt><trkpt lat="44.5958134" lon="7.9736955"><ele>489.0</ele><time>2026-04-11T09:23:09.13Z</time></trkpt><trkpt lat="44.5958296" lon="7.9735851"><ele>489.0</ele><time>2026-04-11T09:23:12.13Z</time></trkpt><trkpt lat="44.5958297" lon="7.9734734"><ele>489.0</ele><time>2026-04-11T09:23:15.131Z</time></trkpt><trkpt lat="44.5957984" lon="7.9733852"><ele>489.0</ele><time>2026-04-11T09:23:18.131Z</time></trkpt><trkpt lat="44.5957439" lon="7.9733153"><ele>490.1666666666667</ele><time>2026-04-11T09:23:21.131Z</time></trkpt><trkpt lat="44.5956616" lon="7.9732626"><ele>491.33333333333337</ele><time>2026-04-11T09:23:24.131Z</time></trkpt><trkpt lat="44.5955951" lon="7.9732258"><ele>492.5</ele><time>2026-04-11T09:23:26.13Z</time></trkpt><trkpt lat="44.5955174" lon="7.9732024"><ele>493.6666666666667</ele><time>2026-04-11T09:23:28.131Z</time></trkpt><trkpt lat="44.5954454" lon="7.973164"><ele>494.83333333333337</ele><time>2026-04-11T09:23:30.131Z</time></trkpt><trkpt lat="44.5953727" lon="7.9731296"><ele>496.0</ele><time>2026-04-11T09:23:32.131Z</time></trkpt><trkpt lat="44.595298" lon="7.9730978"><ele>496.00000000000006</ele><time>2026-04-11T09:23:34.131Z</time></trkpt><trkpt lat="44.5952259" lon="7.9730493"><ele>496.0</ele><time>2026-04-11T09:23:36.13Z</time></trkpt><trkpt lat="44.5951501" lon="7.9729995"><ele>496.0</ele><time>2026-04-11T09:23:38.131Z</time></trkpt><trkpt lat="44.5950729" lon="7.9729493"><ele>496.0</ele><time>2026-04-11T09:23:40.131Z</time></trkpt><trkpt lat="44.5950012" lon="7.9728838"><ele>496.00000000000006</ele><time>2026-04-11T09:23:42.13Z</time></trkpt><trkpt lat="44.5949471" lon="7.9727924"><ele>496.0</ele><time>2026-04-11T09:23:44.131Z</time></trkpt><trkpt lat="44.5949045" lon="7.972694"><ele>496.0</ele><time>2026-04-11T09:23:46.131Z</time></trkpt><trkpt lat="44.5948673" lon="7.9725988"><ele>496.00000000000006</ele><time>2026-04-11T09:23:48.131Z</time></trkpt><trkpt lat="44.5948352" lon="7.9725112"><ele>496.0</ele><time>2026-04-11T09:23:50.131Z</time></trkpt><trkpt lat="44.5948065" lon="7.9724257"><ele>496.0</ele><time>2026-04-11T09:23:52.13Z</time></trkpt><trkpt lat="44.594778" lon="7.97234"><ele>496.00000000000006</ele><time>2026-04-11T09:23:54.131Z</time></trkpt><trkpt lat="44.5947479" lon="7.9722572"><ele>496.0</ele><time>2026-04-11T09:23:56.13Z</time></trkpt><trkpt lat="44.5947079" lon="7.9721817"><ele>496.0</ele><time>2026-04-11T09:23:58.131Z</time></trkpt><trkpt lat="44.5946703" lon="7.9721029"><ele>496.00000000000006</ele><time>2026-04-11T09:24:00.131Z</time></trkpt><trkpt lat="44.5946279" lon="7.9720353"><ele>496.0</ele><time>2026-04-11T09:24:02.131Z</time></trkpt><trkpt lat="44.59455" lon="7.9719722"><ele>496.0</ele><time>2026-04-11T09:24:05.131Z</time></trkpt><trkpt lat="44.5944618" lon="7.9719553"><ele>496.0</ele><time>2026-04-11T09:24:08.13Z</time></trkpt><trkpt lat="44.5943815" lon="7.9719555"><ele>496.00000000000006</ele><time>2026-04-11T09:24:11.131Z</time></trkpt><trkpt lat="44.5942919" lon="7.9719757"><ele>496.0</ele><time>2026-04-11T09:24:14.131Z</time></trkpt><trkpt lat="44.5942145" lon="7.9719958"><ele>496.0</ele><time>2026-04-11T09:24:17.131Z</time></trkpt><trkpt lat="44.5941442" lon="7.9720045"><ele>496.00000000000006</ele><time>2026-04-11T09:24:23.131Z</time></trkpt><trkpt lat="44.5940711" lon="7.9720359"><ele>496.0</ele><time>2026-04-11T09:24:29.13Z</time></trkpt><trkpt lat="44.594012" lon="7.9720669"><ele>496.0</ele><time>2026-04-11T09:24:33.131Z</time></trkpt><trkpt lat="44.5939317" lon="7.9720819"><ele>496.00000000000006</ele><time>2026-04-11T09:24:37.131Z</time></trkpt><trkpt lat="44.5938618" lon="7.9721038"><ele>496.0</ele><time>2026-04-11T09:24:41.131Z</time></trkpt><trkpt lat="44.5937901" lon="7.9721319"><ele>496.0</ele><time>2026-04-11T09:24:45.131Z</time></trkpt><trkpt lat="44.593718" lon="7.9721233"><ele>497.33333333333337</ele><time>2026-04-11T09:24:48.131Z</time></trkpt><trkpt lat="44.5936473" lon="7.972111"><ele>498.6666666666667</ele><time>2026-04-11T09:24:51.131Z</time></trkpt><trkpt lat="44.5935811" lon="7.9720745"><ele>500.0</ele><time>2026-04-11T09:24:54.13Z</time></trkpt><trkpt lat="44.5935133" lon="7.9720071"><ele>501.33333333333337</ele><time>2026-04-11T09:24:57.13Z</time></trkpt><trkpt lat="44.5934484" lon="7.9719183"><ele>502.6666666666667</ele><time>2026-04-11T09:25:00.13Z</time></trkpt><trkpt lat="44.5934047" lon="7.9718466"><ele>504.0</ele><time>2026-04-11T09:25:03.13Z</time></trkpt><trkpt lat="44.5933624" lon="7.9717733"><ele>504.0</ele><time>2026-04-11T09:25:07.13Z</time></trkpt><trkpt lat="44.5933785" lon="7.9718876"><ele>504.0</ele><time>2026-04-11T09:25:14.131Z</time></trkpt><trkpt lat="44.593421" lon="7.971955"><ele>504.0</ele><time>2026-04-11T09:25:17.131Z</time></trkpt><trkpt lat="44.5934802" lon="7.9720334"><ele>504.0</ele><time>2026-04-11T09:25:21.131Z</time></trkpt><trkpt lat="44.5935419" lon="7.9720876"><ele>504.0</ele><time>2026-04-11T09:25:24.131Z</time></trkpt><trkpt lat="44.5936178" lon="7.9721257"><ele>504.0</ele><time>2026-04-11T09:25:27.131Z</time></trkpt><trkpt lat="44.5937124" lon="7.9721443"><ele>502.6666666666667</ele><time>2026-04-11T09:25:30.131Z</time></trkpt><trkpt lat="44.5938095" lon="7.9721349"><ele>501.33333333333337</ele><time>2026-04-11T09:25:32.131Z</time></trkpt><trkpt lat="44.5938954" lon="7.9721094"><ele>500.0</ele><time>2026-04-11T09:25:34.131Z</time></trkpt><trkpt lat="44.5939799" lon="7.9720937"><ele>498.6666666666667</ele><time>2026-04-11T09:25:36.131Z</time></trkpt><trkpt lat="44.5940618" lon="7.9720659"><ele>497.33333333333337</ele><time>2026-04-11T09:25:38.131Z</time></trkpt><trkpt lat="44.5941417" lon="7.9720371"><ele>496.0</ele><time>2026-04-11T09:25:40.131Z</time></trkpt><trkpt lat="44.5942171" lon="7.9720107"><ele>496.0</ele><time>2026-04-11T09:25:42.13Z</time></trkpt><trkpt lat="44.5942838" lon="7.9719935"><ele>496.00000000000006</ele><time>2026-04-11T09:25:44.131Z</time></trkpt><trkpt lat="44.5943513" lon="7.9719803"><ele>496.0</ele><time>2026-04-11T09:25:47.131Z</time></trkpt><trkpt lat="44.5944209" lon="7.971994"><ele>496.0</ele><time>2026-04-11T09:25:54.131Z</time></trkpt><trkpt lat="44.5943714" lon="7.9720594"><ele>496.00000000000006</ele><time>2026-04-11T09:26:45.13Z</time></trkpt><trkpt lat="44.5942997" lon="7.9720804"><ele>496.0</ele><time>2026-04-11T09:26:50.131Z</time></trkpt><trkpt lat="44.5942321" lon="7.9721163"><ele>496.0</ele><time>2026-04-11T09:26:55.131Z</time></trkpt><trkpt lat="44.594157" lon="7.9721445"><ele>496.0</ele><time>2026-04-11T09:27:00.13Z</time></trkpt><trkpt lat="44.5940877" lon="7.9721679"><ele>496.00000000000006</ele><time>2026-04-11T09:27:05.131Z</time></trkpt><trkpt lat="44.5940146" lon="7.9721896"><ele>496.0</ele><time>2026-04-11T09:27:10.131Z</time></trkpt><trkpt lat="44.5939391" lon="7.9722139"><ele>496.0</ele><time>2026-04-11T09:27:15.13Z</time></trkpt><trkpt lat="44.5938609" lon="7.9722312"><ele>496.00000000000006</ele><time>2026-04-11T09:27:20.131Z</time></trkpt><trkpt lat="44.5937868" lon="7.9722519"><ele>496.0</ele><time>2026-04-11T09:27:24.13Z</time></trkpt><trkpt lat="44.5937169" lon="7.9722669"><ele>496.0</ele><time>2026-04-11T09:27:28.131Z</time></trkpt><trkpt lat="44.5936502" lon="7.9722651"><ele>497.14285714285717</ele><time>2026-04-11T09:27:32.131Z</time></trkpt><trkpt lat="44.5935723" lon="7.9722517"><ele>498.28571428571433</ele><time>2026-04-11T09:27:37.131Z</time></trkpt><trkpt lat="44.5934988" lon="7.9722187"><ele>499.42857142857144</ele><time>2026-04-11T09:27:42.131Z</time></trkpt><trkpt lat="44.5934378" lon="7.9721803"><ele>500.57142857142856</ele><time>2026-04-11T09:27:46.131Z</time></trkpt><trkpt lat="44.5933639" lon="7.9721217"><ele>501.7142857142857</ele><time>2026-04-11T09:27:50.13Z</time></trkpt><trkpt lat="44.593308" lon="7.97207"><ele>502.8571428571429</ele><time>2026-04-11T09:27:53.131Z</time></trkpt><trkpt lat="44.5932439" lon="7.97204"><ele>504.0</ele><time>2026-04-11T09:29:22.131Z</time></trkpt><trkpt lat="44.5931848" lon="7.9719974"><ele>504.0</ele><time>2026-04-11T09:30:20.13Z</time></trkpt><trkpt lat="44.5931162" lon="7.9719855"><ele>504.0</ele><time>2026-04-11T09:30:27.131Z</time></trkpt><trkpt lat="44.5930462" lon="7.9719907"><ele>504.0</ele><time>2026-04-11T09:30:35.131Z</time></trkpt><trkpt lat="44.5929831" lon="7.9720098"><ele>504.0</ele><time>2026-04-11T09:30:41.131Z</time></trkpt><trkpt lat="44.5929137" lon="7.9720298"><ele>504.0</ele><time>2026-04-11T09:30:48.13Z</time></trkpt><trkpt lat="44.5928598" lon="7.9720841"><ele>504.0</ele><time>2026-04-11T09:30:55.131Z</time></trkpt><trkpt lat="44.5928149" lon="7.9721538"><ele>504.0</ele><time>2026-04-11T09:31:02.131Z</time></trkpt><trkpt lat="44.5927699" lon="7.972228"><ele>504.1428571428571</ele><time>2026-04-11T09:31:10.131Z</time></trkpt><trkpt lat="44.592725" lon="7.9722995"><ele>504.2857142857143</ele><time>2026-04-11T09:31:16.13Z</time></trkpt><trkpt lat="44.5926784" lon="7.9723667"><ele>504.42857142857144</ele><time>2026-04-11T09:31:22.131Z</time></trkpt><trkpt lat="44.5926229" lon="7.9724356"><ele>504.57142857142856</ele><time>2026-04-11T09:31:28.131Z</time></trkpt><trkpt lat="44.5925712" lon="7.9724986"><ele>504.71428571428567</ele><time>2026-04-11T09:31:34.131Z</time></trkpt><trkpt lat="44.5925188" lon="7.9725507"><ele>504.85714285714283</ele><time>2026-04-11T09:31:40.131Z</time></trkpt><trkpt lat="44.592464" lon="7.9725977"><ele>505.0</ele><time>2026-04-11T09:31:46.131Z</time></trkpt><trkpt lat="44.5924018" lon="7.9726379"><ele>506.4285714285714</ele><time>2026-04-11T09:31:53.13Z</time></trkpt><trkpt lat="44.5923368" lon="7.9726608"><ele>507.8571428571428</ele><time>2026-04-11T09:32:00.131Z</time></trkpt><trkpt lat="44.5922665" lon="7.9726542"><ele>509.2857142857143</ele><time>2026-04-11T09:32:08.131Z</time></trkpt><trkpt lat="44.5922012" lon="7.9726295"><ele>510.71428571428567</ele><time>2026-04-11T09:32:16.13Z</time></trkpt><trkpt lat="44.592128" lon="7.972629"><ele>512.1428571428571</ele><time>2026-04-11T09:32:25.131Z</time></trkpt><trkpt lat="44.5920617" lon="7.9726357"><ele>513.5714285714286</ele><time>2026-04-11T09:32:32.131Z</time></trkpt><trkpt lat="44.5919977" lon="7.9726299"><ele>515.0</ele><time>2026-04-11T09:32:39.13Z</time></trkpt><trkpt lat="44.5919326" lon="7.9726387"><ele>515.0</ele><time>2026-04-11T09:32:50.131Z</time></trkpt><trkpt lat="44.591861" lon="7.9726357"><ele>515.0</ele><time>2026-04-11T09:32:57.13Z</time></trkpt><trkpt lat="44.5917916" lon="7.9726263"><ele>515.0</ele><time>2026-04-11T09:33:04.131Z</time></trkpt><trkpt lat="44.5917294" lon="7.9726086"><ele>515.0</ele><time>2026-04-11T09:33:10.131Z</time></trkpt><trkpt lat="44.5916597" lon="7.9725968"><ele>515.0</ele><time>2026-04-11T09:33:17.131Z</time></trkpt><trkpt lat="44.5915922" lon="7.9725829"><ele>515.0</ele><time>2026-04-11T09:33:23.131Z</time></trkpt><trkpt lat="44.5915282" lon="7.9725821"><ele>515.0</ele><time>2026-04-11T09:33:29.131Z</time></trkpt><trkpt lat="44.5914593" lon="7.9725726"><ele>515.0</ele><time>2026-04-11T09:33:35.131Z</time></trkpt><trkpt lat="44.5913905" lon="7.9725648"><ele>515.0</ele><time>2026-04-11T09:33:41.13Z</time></trkpt><trkpt lat="44.5913272" lon="7.9725466"><ele>515.0</ele><time>2026-04-11T09:33:47.13Z</time></trkpt><trkpt lat="44.5912747" lon="7.9724838"><ele>515.0</ele><time>2026-04-11T09:33:53.131Z</time></trkpt><trkpt lat="44.5912233" lon="7.9724279"><ele>515.0</ele><time>2026-04-11T09:33:59.131Z</time></trkpt><trkpt lat="44.5911646" lon="7.9723729"><ele>515.0</ele><time>2026-04-11T09:34:06.131Z</time></trkpt><trkpt lat="44.5911137" lon="7.9723175"><ele>515.0</ele><time>2026-04-11T09:34:12.13Z</time></trkpt><trkpt lat="44.5910553" lon="7.9722616"><ele>514.7142857142858</ele><time>2026-04-11T09:34:19.131Z</time></trkpt><trkpt lat="44.5909976" lon="7.9722244"><ele>514.4285714285714</ele><time>2026-04-11T09:34:29.131Z</time></trkpt><trkpt lat="44.5909311" lon="7.9721885"><ele>514.1428571428571</ele><time>2026-04-11T09:34:34.131Z</time></trkpt><trkpt lat="44.5908698" lon="7.972148"><ele>513.8571428571429</ele><time>2026-04-11T09:34:39.13Z</time></trkpt><trkpt lat="44.5908046" lon="7.9721088"><ele>513.5714285714286</ele><time>2026-04-11T09:34:44.13Z</time></trkpt><trkpt lat="44.5907329" lon="7.9720738"><ele>513.2857142857143</ele><time>2026-04-11T09:34:49.131Z</time></trkpt><trkpt lat="44.5906589" lon="7.9720448"><ele>513.0</ele><time>2026-04-11T09:34:53.131Z</time></trkpt><trkpt lat="44.5905976" lon="7.9720114"><ele>513.0000000000001</ele><time>2026-04-11T09:34:56.13Z</time></trkpt><trkpt lat="44.5905363" lon="7.9719712"><ele>513.0</ele><time>2026-04-11T09:34:59.13Z</time></trkpt><trkpt lat="44.5904607" lon="7.971942"><ele>513.0</ele><time>2026-04-11T09:35:03.13Z</time></trkpt><trkpt lat="44.5903945" lon="7.9719034"><ele>513.0</ele><time>2026-04-11T09:35:07.131Z</time></trkpt><trkpt lat="44.5903309" lon="7.9718803"><ele>513.0</ele><time>2026-04-11T09:35:11.131Z</time></trkpt><trkpt lat="44.5902724" lon="7.9718393"><ele>513.0000000000001</ele><time>2026-04-11T09:35:15.131Z</time></trkpt><trkpt lat="44.5902007" lon="7.9718074"><ele>513.0</ele><time>2026-04-11T09:35:19.131Z</time></trkpt><trkpt lat="44.590132" lon="7.9717643"><ele>513.2857142857143</ele><time>2026-04-11T09:35:23.131Z</time></trkpt><trkpt lat="44.5900532" lon="7.9717293"><ele>513.5714285714286</ele><time>2026-04-11T09:35:27.131Z</time></trkpt><trkpt lat="44.5899909" lon="7.9717045"><ele>513.8571428571429</ele><time>2026-04-11T09:35:30.13Z</time></trkpt><trkpt lat="44.5899191" lon="7.9716632"><ele>514.1428571428571</ele><time>2026-04-11T09:35:34.13Z</time></trkpt><trkpt lat="44.5898587" lon="7.9716361"><ele>514.4285714285714</ele><time>2026-04-11T09:35:38.131Z</time></trkpt><trkpt lat="44.589785" lon="7.9715947"><ele>514.7142857142858</ele><time>2026-04-11T09:35:43.131Z</time></trkpt><trkpt lat="44.5897114" lon="7.9715549"><ele>515.0</ele><time>2026-04-11T09:35:47.131Z</time></trkpt><trkpt lat="44.5896447" lon="7.971523"><ele>515.4285714285714</ele><time>2026-04-11T09:35:51.131Z</time></trkpt><trkpt lat="44.5895815" lon="7.9714848"><ele>515.8571428571429</ele><time>2026-04-11T09:35:56.13Z</time></trkpt><trkpt lat="44.5895111" lon="7.9714674"><ele>516.2857142857142</ele><time>2026-04-11T09:36:01.13Z</time></trkpt><trkpt lat="44.5894363" lon="7.971436"><ele>516.7142857142858</ele><time>2026-04-11T09:36:06.131Z</time></trkpt><trkpt lat="44.5893721" lon="7.9714193"><ele>517.1428571428571</ele><time>2026-04-11T09:37:46.13Z</time></trkpt><trkpt lat="44.589318" lon="7.9713442"><ele>517.5714285714286</ele><time>2026-04-11T09:37:51.13Z</time></trkpt><trkpt lat="44.5892729" lon="7.9712641"><ele>518.0</ele><time>2026-04-11T09:37:54.13Z</time></trkpt><trkpt lat="44.589228" lon="7.9712012"><ele>518.5714285714286</ele><time>2026-04-11T09:37:56.131Z</time></trkpt><trkpt lat="44.5891795" lon="7.9711419"><ele>519.1428571428571</ele><time>2026-04-11T09:37:58.131Z</time></trkpt><trkpt lat="44.5891228" lon="7.9710895"><ele>519.7142857142858</ele><time>2026-04-11T09:38:00.13Z</time></trkpt><trkpt lat="44.5890583" lon="7.9710478"><ele>520.2857142857142</ele><time>2026-04-11T09:38:02.13Z</time></trkpt><trkpt lat="44.5889942" lon="7.9710216"><ele>520.8571428571429</ele><time>2026-04-11T09:38:04.131Z</time></trkpt><trkpt lat="44.5889019" lon="7.9710005"><ele>521.4285714285714</ele><time>2026-04-11T09:38:07.131Z</time></trkpt><trkpt lat="44.5888368" lon="7.9709956"><ele>522.0</ele><time>2026-04-11T09:38:09.131Z</time></trkpt><trkpt lat="44.5887665" lon="7.9710004"><ele>522.0</ele><time>2026-04-11T09:38:11.131Z</time></trkpt><trkpt lat="44.5886969" lon="7.9710139"><ele>522.0</ele><time>2026-04-11T09:38:13.131Z</time></trkpt><trkpt lat="44.588625" lon="7.9710288"><ele>522.0</ele><time>2026-04-11T09:38:15.131Z</time></trkpt><trkpt lat="44.5885415" lon="7.9710774"><ele>522.0</ele><time>2026-04-11T09:38:17.131Z</time></trkpt><trkpt lat="44.5884532" lon="7.9711337"><ele>522.0</ele><time>2026-04-11T09:38:19.13Z</time></trkpt><trkpt lat="44.5883647" lon="7.9712009"><ele>522.0</ele><time>2026-04-11T09:38:21.131Z</time></trkpt><trkpt lat="44.5882793" lon="7.9712477"><ele>522.5714285714286</ele><time>2026-04-11T09:38:23.131Z</time></trkpt><trkpt lat="44.5882031" lon="7.97129"><ele>523.1428571428571</ele><time>2026-04-11T09:38:25.131Z</time></trkpt><trkpt lat="44.5881394" lon="7.9713442"><ele>523.7142857142857</ele><time>2026-04-11T09:38:27.13Z</time></trkpt><trkpt lat="44.5880836" lon="7.9713885"><ele>524.2857142857142</ele><time>2026-04-11T09:38:29.131Z</time></trkpt><trkpt lat="44.5880176" lon="7.971434"><ele>524.8571428571428</ele><time>2026-04-11T09:38:38.131Z</time></trkpt><trkpt lat="44.5879484" lon="7.9714199"><ele>525.4285714285714</ele><time>2026-04-11T09:38:50.13Z</time></trkpt><trkpt lat="44.5878895" lon="7.97138"><ele>526.0</ele><time>2026-04-11T09:38:57.131Z</time></trkpt><trkpt lat="44.5878269" lon="7.9713449"><ele>526.0</ele><time>2026-04-11T09:39:04.131Z</time></trkpt><trkpt lat="44.5877616" lon="7.9713083"><ele>526.0</ele><time>2026-04-11T09:39:11.13Z</time></trkpt><trkpt lat="44.587701" lon="7.9712796"><ele>526.0</ele><time>2026-04-11T09:39:17.13Z</time></trkpt><trkpt lat="44.5876327" lon="7.9712451"><ele>526.0</ele><time>2026-04-11T09:39:24.131Z</time></trkpt><trkpt lat="44.5875699" lon="7.9712069"><ele>526.0</ele><time>2026-04-11T09:39:31.131Z</time></trkpt><trkpt lat="44.5875026" lon="7.9711799"><ele>526.0</ele><time>2026-04-11T09:39:38.13Z</time></trkpt><trkpt lat="44.5874378" lon="7.9711732"><ele>526.0</ele><time>2026-04-11T09:39:44.131Z</time></trkpt><trkpt lat="44.5873675" lon="7.971171"><ele>526.0</ele><time>2026-04-11T09:39:51.131Z</time></trkpt><trkpt lat="44.5872962" lon="7.9711856"><ele>526.0</ele><time>2026-04-11T09:39:59.131Z</time></trkpt><trkpt lat="44.5872257" lon="7.9711931"><ele>526.0</ele><time>2026-04-11T09:40:07.131Z</time></trkpt><trkpt lat="44.5871576" lon="7.9712061"><ele>526.0</ele><time>2026-04-11T09:40:15.13Z</time></trkpt><trkpt lat="44.5870912" lon="7.9712135"><ele>526.0</ele><time>2026-04-11T09:40:22.131Z</time></trkpt><trkpt lat="44.5870282" lon="7.9712236"><ele>526.0</ele><time>2026-04-11T09:40:28.13Z</time></trkpt><trkpt lat="44.5869619" lon="7.9712203"><ele>526.0</ele><time>2026-04-11T09:40:34.131Z</time></trkpt><trkpt lat="44.5868981" lon="7.9712073"><ele>527.7142857142857</ele><time>2026-04-11T09:40:40.131Z</time></trkpt><trkpt lat="44.5868334" lon="7.9711835"><ele>529.4285714285713</ele><time>2026-04-11T09:40:47.131Z</time></trkpt><trkpt lat="44.5867615" lon="7.9711622"><ele>531.1428571428571</ele><time>2026-04-11T09:40:54.131Z</time></trkpt><trkpt lat="44.586693" lon="7.9711411"><ele>532.8571428571429</ele><time>2026-04-11T09:41:01.131Z</time></trkpt><trkpt lat="44.5866232" lon="7.9711118"><ele>534.5714285714287</ele><time>2026-04-11T09:41:08.13Z</time></trkpt><trkpt lat="44.586558" lon="7.9710893"><ele>536.2857142857143</ele><time>2026-04-11T09:41:15.131Z</time></trkpt><trkpt lat="44.5864806" lon="7.9710896"><ele>538.0</ele><time>2026-04-11T09:41:58.131Z</time></trkpt><trkpt lat="44.5864199" lon="7.971051"><ele>538.0</ele><time>2026-04-11T09:42:01.13Z</time></trkpt><trkpt lat="44.5863373" lon="7.9710096"><ele>538.0</ele><time>2026-04-11T09:42:04.13Z</time></trkpt><trkpt lat="44.586253" lon="7.9709771"><ele>538.0</ele><time>2026-04-11T09:42:07.131Z</time></trkpt><trkpt lat="44.5861769" lon="7.9709342"><ele>538.0</ele><time>2026-04-11T09:42:10.131Z</time></trkpt><trkpt lat="44.5861099" lon="7.9708731"><ele>538.0</ele><time>2026-04-11T09:42:13.131Z</time></trkpt><trkpt lat="44.5860424" lon="7.9708195"><ele>538.0</ele><time>2026-04-11T09:42:16.131Z</time></trkpt><trkpt lat="44.5859709" lon="7.9707495"><ele>537.6666666666667</ele><time>2026-04-11T09:42:19.13Z</time></trkpt><trkpt lat="44.5859081" lon="7.9706782"><ele>537.3333333333334</ele><time>2026-04-11T09:42:22.131Z</time></trkpt><trkpt lat="44.5858421" lon="7.9706086"><ele>537.0</ele><time>2026-04-11T09:42:25.13Z</time></trkpt><trkpt lat="44.585794" lon="7.9705513"><ele>536.6666666666666</ele><time>2026-04-11T09:42:27.131Z</time></trkpt><trkpt lat="44.5857493" lon="7.970467"><ele>536.3333333333333</ele><time>2026-04-11T09:42:29.13Z</time></trkpt><trkpt lat="44.5856885" lon="7.9703711"><ele>536.0</ele><time>2026-04-11T09:42:31.131Z</time></trkpt><trkpt lat="44.5856264" lon="7.9702714"><ele>536.0</ele><time>2026-04-11T09:42:33.13Z</time></trkpt><trkpt lat="44.5855681" lon="7.9701788"><ele>536.0</ele><time>2026-04-11T09:42:35.13Z</time></trkpt><trkpt lat="44.5855197" lon="7.9700942"><ele>536.0</ele><time>2026-04-11T09:42:37.131Z</time></trkpt><trkpt lat="44.5854596" lon="7.9700032"><ele>536.0</ele><time>2026-04-11T09:42:40.131Z</time></trkpt><trkpt lat="44.5854086" lon="7.9699452"><ele>536.0</ele><time>2026-04-11T09:42:43.13Z</time></trkpt><trkpt lat="44.5853486" lon="7.9698857"><ele>536.0</ele><time>2026-04-11T09:42:48.13Z</time></trkpt><trkpt lat="44.5853334" lon="7.9697849"><ele>534.1666666666666</ele><time>2026-04-11T09:42:52.131Z</time></trkpt><trkpt lat="44.5853224" lon="7.9696542"><ele>532.3333333333333</ele><time>2026-04-11T09:42:55.131Z</time></trkpt><trkpt lat="44.5853229" lon="7.9695309"><ele>530.5</ele><time>2026-04-11T09:42:58.13Z</time></trkpt><trkpt lat="44.5853308" lon="7.9694398"><ele>528.6666666666666</ele><time>2026-04-11T09:43:01.13Z</time></trkpt><trkpt lat="44.5853262" lon="7.9693405"><ele>526.8333333333334</ele><time>2026-04-11T09:43:04.131Z</time></trkpt><trkpt lat="44.5853058" lon="7.9692301"><ele>525.0</ele><time>2026-04-11T09:43:08.131Z</time></trkpt><trkpt lat="44.5852867" lon="7.9691278"><ele>517.0</ele><time>2026-04-11T09:43:12.13Z</time></trkpt><trkpt lat="44.5852531" lon="7.9690442"><ele>517.0</ele><time>2026-04-11T09:43:15.13Z</time></trkpt><trkpt lat="44.5851992" lon="7.9689918"><ele>517.0</ele><time>2026-04-11T09:43:18.131Z</time></trkpt></trkseg><trkseg><trkpt lat="44.5866332" lon="7.9650931"><ele>461.0</ele><time>2026-04-12T06:03:42.342Z</time></trkpt><trkpt lat="44.5866946" lon="7.965114"><ele>461.0</ele><time>2026-04-12T06:04:20.351Z</time></trkpt><trkpt lat="44.5867169" lon="7.9652041"><ele>461.0</ele><time>2026-04-12T06:07:29.346Z</time></trkpt><trkpt lat="44.5866556" lon="7.9652407"><ele>461.0</ele><time>2026-04-12T06:10:36.342Z</time></trkpt></trkseg><trkseg><trkpt lat="44.586567" lon="7.9653095"><ele>461.0</ele><time>2026-04-12T06:25:07.306Z</time></trkpt><trkpt lat="44.5865397" lon="7.9652254"><ele>461.00000000000006</ele><time>2026-04-12T06:25:37.306Z</time></trkpt><trkpt lat="44.5864878" lon="7.9651479"><ele>461.0</ele><time>2026-04-12T06:25:42.305Z</time></trkpt><trkpt lat="44.5864237" lon="7.9650899"><ele>461.0</ele><time>2026-04-12T06:25:47.306Z</time></trkpt><trkpt lat="44.5863635" lon="7.965048"><ele>461.00000000000006</ele><time>2026-04-12T06:25:51.305Z</time></trkpt><trkpt lat="44.5862987" lon="7.9650243"><ele>461.0</ele><time>2026-04-12T06:25:55.305Z</time></trkpt><trkpt lat="44.5862328" lon="7.9649886"><ele>461.0</ele><time>2026-04-12T06:25:59.306Z</time></trkpt><trkpt lat="44.5861698" lon="7.9649739"><ele>460.28571428571433</ele><time>2026-04-12T06:26:02.305Z</time></trkpt><trkpt lat="44.5860991" lon="7.9649765"><ele>459.5714285714286</ele><time>2026-04-12T06:26:05.306Z</time></trkpt><trkpt lat="44.5860253" lon="7.9649989"><ele>458.8571428571429</ele><time>2026-04-12T06:26:08.306Z</time></trkpt><trkpt lat="44.585959" lon="7.9650251"><ele>458.1428571428571</ele><time>2026-04-12T06:26:11.306Z</time></trkpt><trkpt lat="44.5858923" lon="7.9650733"><ele>457.4285714285714</ele><time>2026-04-12T06:26:14.306Z</time></trkpt><trkpt lat="44.585834" lon="7.9651438"><ele>456.71428571428567</ele><time>2026-04-12T06:26:17.305Z</time></trkpt><trkpt lat="44.5857743" lon="7.965218"><ele>456.0</ele><time>2026-04-12T06:26:20.306Z</time></trkpt><trkpt lat="44.5857186" lon="7.9653055"><ele>457.8333333333333</ele><time>2026-04-12T06:26:23.305Z</time></trkpt><trkpt lat="44.5856576" lon="7.9653978"><ele>459.66666666666663</ele><time>2026-04-12T06:26:26.306Z</time></trkpt><trkpt lat="44.5856157" lon="7.9654667"><ele>461.5</ele><time>2026-04-12T06:26:28.306Z</time></trkpt><trkpt lat="44.5855538" lon="7.9655598"><ele>463.3333333333333</ele><time>2026-04-12T06:26:31.306Z</time></trkpt><trkpt lat="44.5854984" lon="7.9656437"><ele>465.16666666666663</ele><time>2026-04-12T06:26:34.305Z</time></trkpt><trkpt lat="44.5854376" lon="7.9657345"><ele>467.0</ele><time>2026-04-12T06:26:37.306Z</time></trkpt><trkpt lat="44.585369" lon="7.96582"><ele>468.71428571428567</ele><time>2026-04-12T06:26:40.306Z</time></trkpt><trkpt lat="44.5853" lon="7.9658993"><ele>470.42857142857144</ele><time>2026-04-12T06:26:43.306Z</time></trkpt><trkpt lat="44.5852221" lon="7.9659707"><ele>472.1428571428571</ele><time>2026-04-12T06:26:46.306Z</time></trkpt><trkpt lat="44.585167" lon="7.9660193"><ele>473.85714285714283</ele><time>2026-04-12T06:26:48.305Z</time></trkpt><trkpt lat="44.5851095" lon="7.966063"><ele>475.57142857142856</ele><time>2026-04-12T06:26:50.306Z</time></trkpt><trkpt lat="44.5850502" lon="7.9661035"><ele>477.2857142857143</ele><time>2026-04-12T06:26:52.306Z</time></trkpt><trkpt lat="44.5849886" lon="7.9661344"><ele>479.0</ele><time>2026-04-12T06:26:54.306Z</time></trkpt><trkpt lat="44.5849246" lon="7.9661658"><ele>479.0</ele><time>2026-04-12T06:26:56.306Z</time></trkpt><trkpt lat="44.5848582" lon="7.9661903"><ele>479.0</ele><time>2026-04-12T06:26:58.305Z</time></trkpt><trkpt lat="44.5847929" lon="7.9662196"><ele>479.0</ele><time>2026-04-12T06:27:00.306Z</time></trkpt><trkpt lat="44.5847054" lon="7.966254"><ele>479.0</ele><time>2026-04-12T06:27:03.305Z</time></trkpt><trkpt lat="44.5846441" lon="7.9662758"><ele>479.0</ele><time>2026-04-12T06:27:05.306Z</time></trkpt><trkpt lat="44.5845613" lon="7.9663033"><ele>479.0</ele><time>2026-04-12T06:27:08.306Z</time></trkpt><trkpt lat="44.5844921" lon="7.9663294"><ele>479.0</ele><time>2026-04-12T06:27:11.306Z</time></trkpt><trkpt lat="44.5844205" lon="7.9663559"><ele>478.99999999999994</ele><time>2026-04-12T06:27:14.306Z</time></trkpt><trkpt lat="44.5843543" lon="7.966369"><ele>479.0</ele><time>2026-04-12T06:27:18.306Z</time></trkpt><trkpt lat="44.5844034" lon="7.9662828"><ele>479.0</ele><time>2026-04-12T06:27:23.305Z</time></trkpt><trkpt lat="44.5844734" lon="7.9661988"><ele>479.0</ele><time>2026-04-12T06:27:26.305Z</time></trkpt><trkpt lat="44.5845301" lon="7.9661397"><ele>478.99999999999994</ele><time>2026-04-12T06:27:28.306Z</time></trkpt><trkpt lat="44.5845953" lon="7.9660795"><ele>479.0</ele><time>2026-04-12T06:27:30.306Z</time></trkpt><trkpt lat="44.5846611" lon="7.9660229"><ele>478.99999999999994</ele><time>2026-04-12T06:27:32.306Z</time></trkpt><trkpt lat="44.584735" lon="7.9659731"><ele>479.0</ele><time>2026-04-12T06:27:34.306Z</time></trkpt><trkpt lat="44.5848154" lon="7.9659404"><ele>479.0</ele><time>2026-04-12T06:27:36.305Z</time></trkpt><trkpt lat="44.5848947" lon="7.965914"><ele>479.0</ele><time>2026-04-12T06:27:38.306Z</time></trkpt><trkpt lat="44.5849707" lon="7.9658809"><ele>478.99999999999994</ele><time>2026-04-12T06:27:40.306Z</time></trkpt><trkpt lat="44.5850409" lon="7.9658448"><ele>479.0</ele><time>2026-04-12T06:27:42.305Z</time></trkpt><trkpt lat="44.5851046" lon="7.9658001"><ele>476.99999999999994</ele><time>2026-04-12T06:27:44.306Z</time></trkpt><trkpt lat="44.585173" lon="7.9657435"><ele>475.0</ele><time>2026-04-12T06:27:46.306Z</time></trkpt><trkpt lat="44.5852364" lon="7.9656793"><ele>473.0</ele><time>2026-04-12T06:27:48.305Z</time></trkpt><trkpt lat="44.5852891" lon="7.9656091"><ele>471.0</ele><time>2026-04-12T06:27:50.305Z</time></trkpt><trkpt lat="44.5853379" lon="7.9655355"><ele>468.99999999999994</ele><time>2026-04-12T06:27:52.306Z</time></trkpt><trkpt lat="44.5853861" lon="7.9654419"><ele>467.0</ele><time>2026-04-12T06:27:54.305Z</time></trkpt><trkpt lat="44.5854349" lon="7.9653311"><ele>467.0</ele><time>2026-04-12T06:27:56.306Z</time></trkpt><trkpt lat="44.5854816" lon="7.9652064"><ele>467.00000000000006</ele><time>2026-04-12T06:27:58.306Z</time></trkpt><trkpt lat="44.5855265" lon="7.9650709"><ele>467.00000000000006</ele><time>2026-04-12T06:28:00.306Z</time></trkpt><trkpt lat="44.5855621" lon="7.9649489"><ele>467.0</ele><time>2026-04-12T06:28:02.306Z</time></trkpt><trkpt lat="44.585597" lon="7.9648182"><ele>467.0</ele><time>2026-04-12T06:28:04.306Z</time></trkpt><trkpt lat="44.5856355" lon="7.9646932"><ele>464.8</ele><time>2026-04-12T06:28:06.306Z</time></trkpt><trkpt lat="44.5856724" lon="7.9645659"><ele>462.6</ele><time>2026-04-12T06:28:08.306Z</time></trkpt><trkpt lat="44.5857104" lon="7.9644393"><ele>460.40000000000003</ele><time>2026-04-12T06:28:10.305Z</time></trkpt><trkpt lat="44.5857478" lon="7.9643193"><ele>458.20000000000005</ele><time>2026-04-12T06:28:12.306Z</time></trkpt><trkpt lat="44.5857853" lon="7.9641965"><ele>456.0</ele><time>2026-04-12T06:28:14.305Z</time></trkpt><trkpt lat="44.5858262" lon="7.9640844"><ele>453.20000000000005</ele><time>2026-04-12T06:28:16.306Z</time></trkpt><trkpt lat="44.585879" lon="7.9639551"><ele>450.40000000000003</ele><time>2026-04-12T06:28:18.306Z</time></trkpt><trkpt lat="44.58593" lon="7.9638292"><ele>447.6</ele><time>2026-04-12T06:28:20.306Z</time></trkpt><trkpt lat="44.5859769" lon="7.9637079"><ele>444.8</ele><time>2026-04-12T06:28:22.305Z</time></trkpt><trkpt lat="44.5860175" lon="7.9635986"><ele>442.0</ele><time>2026-04-12T06:28:24.306Z</time></trkpt><trkpt lat="44.5860553" lon="7.9635039"><ele>442.00000000000006</ele><time>2026-04-12T06:28:26.306Z</time></trkpt><trkpt lat="44.5860865" lon="7.9634211"><ele>442.0</ele><time>2026-04-12T06:28:28.306Z</time></trkpt><trkpt lat="44.5861447" lon="7.9633471"><ele>442.0</ele><time>2026-04-12T06:28:31.305Z</time></trkpt><trkpt lat="44.5862176" lon="7.9633742"><ele>442.0</ele><time>2026-04-12T06:28:34.305Z</time></trkpt><trkpt lat="44.5863043" lon="7.9634184"><ele>442.0</ele><time>2026-04-12T06:28:37.305Z</time></trkpt><trkpt lat="44.5863666" lon="7.9634709"><ele>442.00000000000006</ele><time>2026-04-12T06:28:39.306Z</time></trkpt><trkpt lat="44.5864257" lon="7.9635025"><ele>442.0</ele><time>2026-04-12T06:28:41.306Z</time></trkpt><trkpt lat="44.586483" lon="7.9635394"><ele>441.33333333333337</ele><time>2026-04-12T06:28:43.306Z</time></trkpt><trkpt lat="44.5865437" lon="7.9635872"><ele>440.6666666666667</ele><time>2026-04-12T06:28:45.305Z</time></trkpt><trkpt lat="44.5866125" lon="7.9636258"><ele>440.0</ele><time>2026-04-12T06:28:47.306Z</time></trkpt><trkpt lat="44.5866874" lon="7.9636724"><ele>439.33333333333337</ele><time>2026-04-12T06:28:49.306Z</time></trkpt><trkpt lat="44.5867676" lon="7.9637261"><ele>438.6666666666667</ele><time>2026-04-12T06:28:51.305Z</time></trkpt><trkpt lat="44.5868516" lon="7.9637844"><ele>438.0</ele><time>2026-04-12T06:28:53.306Z</time></trkpt><trkpt lat="44.5869377" lon="7.9638527"><ele>436.59999999999997</ele><time>2026-04-12T06:28:55.306Z</time></trkpt><trkpt lat="44.5870181" lon="7.9639298"><ele>435.19999999999993</ele><time>2026-04-12T06:28:57.306Z</time></trkpt><trkpt lat="44.5870905" lon="7.9640072"><ele>433.8</ele><time>2026-04-12T06:28:59.305Z</time></trkpt><trkpt lat="44.587156" lon="7.9640861"><ele>432.4</ele><time>2026-04-12T06:29:01.306Z</time></trkpt><trkpt lat="44.5872252" lon="7.9641697"><ele>431.0</ele><time>2026-04-12T06:29:03.305Z</time></trkpt><trkpt lat="44.5873019" lon="7.9642512"><ele>431.0</ele><time>2026-04-12T06:29:05.305Z</time></trkpt><trkpt lat="44.5873769" lon="7.9643377"><ele>431.0</ele><time>2026-04-12T06:29:07.306Z</time></trkpt><trkpt lat="44.5874505" lon="7.9644285"><ele>431.0</ele><time>2026-04-12T06:29:09.305Z</time></trkpt><trkpt lat="44.587528" lon="7.9645242"><ele>431.0</ele><time>2026-04-12T06:29:11.306Z</time></trkpt><trkpt lat="44.5875997" lon="7.9646225"><ele>431.0</ele><time>2026-04-12T06:29:13.305Z</time></trkpt><trkpt lat="44.5876617" lon="7.9647104"><ele>431.0</ele><time>2026-04-12T06:29:15.305Z</time></trkpt><trkpt lat="44.5877298" lon="7.9647987"><ele>431.0</ele><time>2026-04-12T06:29:17.306Z</time></trkpt><trkpt lat="44.5877912" lon="7.9648958"><ele>431.0</ele><time>2026-04-12T06:29:19.305Z</time></trkpt><trkpt lat="44.5878599" lon="7.9649824"><ele>431.0</ele><time>2026-04-12T06:29:21.306Z</time></trkpt><trkpt lat="44.5879302" lon="7.9650601"><ele>431.0</ele><time>2026-04-12T06:29:23.306Z</time></trkpt><trkpt lat="44.5879869" lon="7.9651604"><ele>427.99999999999994</ele><time>2026-04-12T06:29:25.306Z</time></trkpt><trkpt lat="44.5880299" lon="7.9652839"><ele>425.0</ele><time>2026-04-12T06:29:27.306Z</time></trkpt><trkpt lat="44.5880527" lon="7.9654113"><ele>422.0</ele><time>2026-04-12T06:29:29.305Z</time></trkpt><trkpt lat="44.588048" lon="7.9655328"><ele>419.0</ele><time>2026-04-12T06:29:31.306Z</time></trkpt><trkpt lat="44.5880403" lon="7.9656455"><ele>415.99999999999994</ele><time>2026-04-12T06:29:33.306Z</time></trkpt><trkpt lat="44.5880302" lon="7.9657497"><ele>413.0</ele><time>2026-04-12T06:29:35.306Z</time></trkpt><trkpt lat="44.5880236" lon="7.965844"><ele>413.99999999999994</ele><time>2026-04-12T06:29:37.306Z</time></trkpt><trkpt lat="44.5880185" lon="7.9659452"><ele>415.0</ele><time>2026-04-12T06:29:39.305Z</time></trkpt><trkpt lat="44.5880238" lon="7.9660613"><ele>416.0</ele><time>2026-04-12T06:29:41.305Z</time></trkpt><trkpt lat="44.5880357" lon="7.9661675"><ele>417.0</ele><time>2026-04-12T06:29:43.306Z</time></trkpt><trkpt lat="44.5880693" lon="7.9662735"><ele>417.99999999999994</ele><time>2026-04-12T06:29:45.306Z</time></trkpt><trkpt lat="44.5881294" lon="7.9663802"><ele>419.0</ele><time>2026-04-12T06:29:47.305Z</time></trkpt><trkpt lat="44.5881814" lon="7.9664615"><ele>418.99999999999994</ele><time>2026-04-12T06:29:49.305Z</time></trkpt><trkpt lat="44.5882551" lon="7.9665023"><ele>419.0</ele><time>2026-04-12T06:29:51.306Z</time></trkpt><trkpt lat="44.5883258" lon="7.9664707"><ele>419.0</ele><time>2026-04-12T06:29:53.306Z</time></trkpt><trkpt lat="44.5883761" lon="7.966412"><ele>419.0</ele><time>2026-04-12T06:29:55.306Z</time></trkpt><trkpt lat="44.5884034" lon="7.9663301"><ele>419.0</ele><time>2026-04-12T06:29:57.306Z</time></trkpt><trkpt lat="44.5884274" lon="7.9662397"><ele>418.99999999999994</ele><time>2026-04-12T06:29:59.306Z</time></trkpt><trkpt lat="44.5884442" lon="7.9661446"><ele>419.0</ele><time>2026-04-12T06:30:01.306Z</time></trkpt><trkpt lat="44.5884779" lon="7.9660594"><ele>418.99999999999994</ele><time>2026-04-12T06:30:03.306Z</time></trkpt><trkpt lat="44.5885245" lon="7.9659619"><ele>419.0</ele><time>2026-04-12T06:30:05.306Z</time></trkpt><trkpt lat="44.5885778" lon="7.965864"><ele>419.0</ele><time>2026-04-12T06:30:07.306Z</time></trkpt><trkpt lat="44.5886379" lon="7.9657718"><ele>419.0</ele><time>2026-04-12T06:30:09.305Z</time></trkpt><trkpt lat="44.5886917" lon="7.9656768"><ele>418.99999999999994</ele><time>2026-04-12T06:30:11.305Z</time></trkpt><trkpt lat="44.5887484" lon="7.9655816"><ele>419.0</ele><time>2026-04-12T06:30:13.306Z</time></trkpt><trkpt lat="44.5888105" lon="7.9654945"><ele>416.6</ele><time>2026-04-12T06:30:15.306Z</time></trkpt><trkpt lat="44.5888783" lon="7.9653996"><ele>414.2</ele><time>2026-04-12T06:30:17.306Z</time></trkpt><trkpt lat="44.5889531" lon="7.9653228"><ele>411.8</ele><time>2026-04-12T06:30:19.306Z</time></trkpt><trkpt lat="44.5890396" lon="7.9652508"><ele>409.40000000000003</ele><time>2026-04-12T06:30:21.306Z</time></trkpt><trkpt lat="44.5891281" lon="7.9651832"><ele>407.0</ele><time>2026-04-12T06:30:23.306Z</time></trkpt><trkpt lat="44.5892188" lon="7.9651326"><ele>407.0</ele><time>2026-04-12T06:30:25.305Z</time></trkpt><trkpt lat="44.5893044" lon="7.9650595"><ele>407.0</ele><time>2026-04-12T06:30:27.306Z</time></trkpt><trkpt lat="44.5893955" lon="7.9649884"><ele>407.0</ele><time>2026-04-12T06:30:29.306Z</time></trkpt><trkpt lat="44.5894833" lon="7.9649242"><ele>407.0</ele><time>2026-04-12T06:30:31.306Z</time></trkpt><trkpt lat="44.5895706" lon="7.9648728"><ele>407.0</ele><time>2026-04-12T06:30:33.305Z</time></trkpt><trkpt lat="44.5896634" lon="7.9648115"><ele>403.0</ele><time>2026-04-12T06:30:35.305Z</time></trkpt><trkpt lat="44.5897531" lon="7.9647458"><ele>399.0</ele><time>2026-04-12T06:30:37.305Z</time></trkpt><trkpt lat="44.5898346" lon="7.9646724"><ele>395.0</ele><time>2026-04-12T06:30:39.306Z</time></trkpt><trkpt lat="44.5899115" lon="7.9645848"><ele>391.0</ele><time>2026-04-12T06:30:41.306Z</time></trkpt><trkpt lat="44.5899766" lon="7.9644861"><ele>387.0</ele><time>2026-04-12T06:30:43.306Z</time></trkpt><trkpt lat="44.5900307" lon="7.9643742"><ele>387.0</ele><time>2026-04-12T06:30:45.306Z</time></trkpt><trkpt lat="44.5900784" lon="7.9642364"><ele>387.0</ele><time>2026-04-12T06:30:47.306Z</time></trkpt><trkpt lat="44.5901248" lon="7.9640905"><ele>387.0</ele><time>2026-04-12T06:30:49.306Z</time></trkpt><trkpt lat="44.5901853" lon="7.963969"><ele>387.0</ele><time>2026-04-12T06:30:51.305Z</time></trkpt><trkpt lat="44.5902719" lon="7.9638968"><ele>387.0</ele><time>2026-04-12T06:30:53.306Z</time></trkpt><trkpt lat="44.590362" lon="7.9638866"><ele>384.6666666666667</ele><time>2026-04-12T06:30:55.305Z</time></trkpt><trkpt lat="44.590436" lon="7.9639052"><ele>382.3333333333333</ele><time>2026-04-12T06:30:58.306Z</time></trkpt><trkpt lat="44.5905014" lon="7.9639232"><ele>380.0</ele><time>2026-04-12T06:31:01.306Z</time></trkpt><trkpt lat="44.5905857" lon="7.9639225"><ele>377.66666666666663</ele><time>2026-04-12T06:31:04.305Z</time></trkpt><trkpt lat="44.5906746" lon="7.9639065"><ele>375.3333333333333</ele><time>2026-04-12T06:31:07.305Z</time></trkpt><trkpt lat="44.5907623" lon="7.9638899"><ele>373.0</ele><time>2026-04-12T06:31:10.306Z</time></trkpt><trkpt lat="44.5908276" lon="7.9638615"><ele>373.0</ele><time>2026-04-12T06:31:12.306Z</time></trkpt><trkpt lat="44.5908961" lon="7.9638319"><ele>373.0</ele><time>2026-04-12T06:31:14.306Z</time></trkpt><trkpt lat="44.5909683" lon="7.9638009"><ele>373.0</ele><time>2026-04-12T06:31:16.306Z</time></trkpt><trkpt lat="44.5910456" lon="7.9637633"><ele>373.0</ele><time>2026-04-12T06:31:18.306Z</time></trkpt><trkpt lat="44.5911228" lon="7.9637328"><ele>373.0</ele><time>2026-04-12T06:31:20.306Z</time></trkpt><trkpt lat="44.5911981" lon="7.9637126"><ele>373.0</ele><time>2026-04-12T06:31:22.306Z</time></trkpt><trkpt lat="44.5912767" lon="7.9637025"><ele>372.0</ele><time>2026-04-12T06:31:24.306Z</time></trkpt><trkpt lat="44.591363" lon="7.9637057"><ele>371.0</ele><time>2026-04-12T06:31:26.306Z</time></trkpt><trkpt lat="44.5914654" lon="7.9637122"><ele>370.0</ele><time>2026-04-12T06:31:28.306Z</time></trkpt><trkpt lat="44.5915709" lon="7.9637361"><ele>369.0</ele><time>2026-04-12T06:31:30.305Z</time></trkpt><trkpt lat="44.5916591" lon="7.9637579"><ele>368.0</ele><time>2026-04-12T06:31:32.305Z</time></trkpt><trkpt lat="44.5917356" lon="7.9637714"><ele>368.0</ele><time>2026-04-12T06:31:34.305Z</time></trkpt><trkpt lat="44.5918205" lon="7.9637824"><ele>368.0</ele><time>2026-04-12T06:31:36.306Z</time></trkpt><trkpt lat="44.5918894" lon="7.9637831"><ele>368.0</ele><time>2026-04-12T06:31:38.306Z</time></trkpt><trkpt lat="44.5919791" lon="7.9637592"><ele>368.0</ele><time>2026-04-12T06:31:41.306Z</time></trkpt><trkpt lat="44.592045" lon="7.9637245"><ele>368.0</ele><time>2026-04-12T06:31:43.306Z</time></trkpt><trkpt lat="44.5921201" lon="7.9636866"><ele>368.0</ele><time>2026-04-12T06:31:45.306Z</time></trkpt><trkpt lat="44.5922009" lon="7.9636418"><ele>367.33333333333337</ele><time>2026-04-12T06:31:47.306Z</time></trkpt><trkpt lat="44.5922814" lon="7.9635874"><ele>366.6666666666667</ele><time>2026-04-12T06:31:49.306Z</time></trkpt><trkpt lat="44.5923611" lon="7.963549"><ele>366.0</ele><time>2026-04-12T06:31:51.306Z</time></trkpt><trkpt lat="44.5924307" lon="7.9635037"><ele>365.3333333333333</ele><time>2026-04-12T06:31:53.305Z</time></trkpt><trkpt lat="44.5925034" lon="7.9634555"><ele>364.66666666666663</ele><time>2026-04-12T06:31:55.306Z</time></trkpt><trkpt lat="44.5925796" lon="7.9633994"><ele>364.0</ele><time>2026-04-12T06:31:57.306Z</time></trkpt><trkpt lat="44.5926557" lon="7.9633396"><ele>362.2</ele><time>2026-04-12T06:31:59.305Z</time></trkpt><trkpt lat="44.5927352" lon="7.9632658"><ele>360.4</ele><time>2026-04-12T06:32:01.306Z</time></trkpt><trkpt lat="44.5928188" lon="7.9631739"><ele>358.6</ele><time>2026-04-12T06:32:03.306Z</time></trkpt><trkpt lat="44.5929098" lon="7.9630889"><ele>356.8</ele><time>2026-04-12T06:32:05.305Z</time></trkpt><trkpt lat="44.5930086" lon="7.9630245"><ele>355.0</ele><time>2026-04-12T06:32:07.306Z</time></trkpt><trkpt lat="44.5930923" lon="7.9629973"><ele>354.6</ele><time>2026-04-12T06:32:09.305Z</time></trkpt><trkpt lat="44.5931735" lon="7.962973"><ele>354.2</ele><time>2026-04-12T06:32:11.306Z</time></trkpt><trkpt lat="44.5932563" lon="7.9629614"><ele>353.79999999999995</ele><time>2026-04-12T06:32:13.306Z</time></trkpt><trkpt lat="44.59335" lon="7.9629542"><ele>353.4</ele><time>2026-04-12T06:32:15.306Z</time></trkpt><trkpt lat="44.5934565" lon="7.9629361"><ele>353.0</ele><time>2026-04-12T06:32:17.305Z</time></trkpt><trkpt lat="44.5935635" lon="7.9629187"><ele>352.6666666666667</ele><time>2026-04-12T06:32:19.305Z</time></trkpt><trkpt lat="44.5936795" lon="7.9629132"><ele>352.33333333333337</ele><time>2026-04-12T06:32:21.305Z</time></trkpt><trkpt lat="44.5937903" lon="7.9629097"><ele>352.0</ele><time>2026-04-12T06:32:23.306Z</time></trkpt><trkpt lat="44.5938694" lon="7.9628967"><ele>351.6666666666667</ele><time>2026-04-12T06:32:24.306Z</time></trkpt><trkpt lat="44.5939387" lon="7.9628791"><ele>351.3333333333333</ele><time>2026-04-12T06:32:25.306Z</time></trkpt><trkpt lat="44.5940089" lon="7.962854"><ele>351.0</ele><time>2026-04-12T06:32:26.305Z</time></trkpt><trkpt lat="44.5940754" lon="7.9628268"><ele>351.00000000000006</ele><time>2026-04-12T06:32:27.306Z</time></trkpt><trkpt lat="44.594142" lon="7.9627984"><ele>351.0</ele><time>2026-04-12T06:32:28.306Z</time></trkpt><trkpt lat="44.5942067" lon="7.9627708"><ele>351.0</ele><time>2026-04-12T06:32:29.306Z</time></trkpt><trkpt lat="44.5942693" lon="7.9627384"><ele>351.0</ele><time>2026-04-12T06:32:30.305Z</time></trkpt><trkpt lat="44.5943339" lon="7.96271"><ele>351.0</ele><time>2026-04-12T06:32:31.306Z</time></trkpt><trkpt lat="44.5943979" lon="7.9626828"><ele>351.00000000000006</ele><time>2026-04-12T06:32:32.305Z</time></trkpt><trkpt lat="44.5944586" lon="7.9626499"><ele>351.0</ele><time>2026-04-12T06:32:33.305Z</time></trkpt><trkpt lat="44.5945192" lon="7.9626133"><ele>350.6</ele><time>2026-04-12T06:32:34.306Z</time></trkpt><trkpt lat="44.594625" lon="7.9625627"><ele>350.20000000000005</ele><time>2026-04-12T06:32:36.305Z</time></trkpt><trkpt lat="44.594721" lon="7.9625201"><ele>349.79999999999995</ele><time>2026-04-12T06:32:38.305Z</time></trkpt><trkpt lat="44.5948028" lon="7.9624697"><ele>349.4</ele><time>2026-04-12T06:32:40.305Z</time></trkpt><trkpt lat="44.5948797" lon="7.9624328"><ele>349.0</ele><time>2026-04-12T06:32:42.305Z</time></trkpt><trkpt lat="44.5949515" lon="7.962401"><ele>347.85714285714283</ele><time>2026-04-12T06:32:44.305Z</time></trkpt><trkpt lat="44.595014" lon="7.9623779"><ele>346.7142857142857</ele><time>2026-04-12T06:32:46.305Z</time></trkpt><trkpt lat="44.5950931" lon="7.9623472"><ele>345.57142857142856</ele><time>2026-04-12T06:32:49.306Z</time></trkpt><trkpt lat="44.5951536" lon="7.9623182"><ele>344.42857142857144</ele><time>2026-04-12T06:32:51.305Z</time></trkpt><trkpt lat="44.5952208" lon="7.9622851"><ele>343.2857142857143</ele><time>2026-04-12T06:32:53.306Z</time></trkpt><trkpt lat="44.5952914" lon="7.9622637"><ele>342.1428571428571</ele><time>2026-04-12T06:32:55.306Z</time></trkpt><trkpt lat="44.5953686" lon="7.9622766"><ele>341.0</ele><time>2026-04-12T06:32:57.306Z</time></trkpt><trkpt lat="44.5954456" lon="7.9622919"><ele>341.0</ele><time>2026-04-12T06:32:59.306Z</time></trkpt><trkpt lat="44.5955191" lon="7.9623152"><ele>341.0</ele><time>2026-04-12T06:33:01.306Z</time></trkpt><trkpt lat="44.5955867" lon="7.9623425"><ele>341.0</ele><time>2026-04-12T06:33:03.305Z</time></trkpt><trkpt lat="44.5956741" lon="7.9624122"><ele>341.0</ele><time>2026-04-12T06:33:06.305Z</time></trkpt><trkpt lat="44.5957413" lon="7.9625047"><ele>341.0</ele><time>2026-04-12T06:33:08.305Z</time></trkpt><trkpt lat="44.5957929" lon="7.9626095"><ele>341.0</ele><time>2026-04-12T06:33:10.306Z</time></trkpt><trkpt lat="44.5958705" lon="7.9626702"><ele>341.0</ele><time>2026-04-12T06:33:12.305Z</time></trkpt><trkpt lat="44.5959551" lon="7.9626654"><ele>341.0</ele><time>2026-04-12T06:33:14.306Z</time></trkpt><trkpt lat="44.5960112" lon="7.9626036"><ele>341.0</ele><time>2026-04-12T06:33:16.305Z</time></trkpt><trkpt lat="44.5960597" lon="7.9625123"><ele>341.0</ele><time>2026-04-12T06:33:19.306Z</time></trkpt><trkpt lat="44.5960754" lon="7.9624228"><ele>341.0</ele><time>2026-04-12T06:33:22.306Z</time></trkpt><trkpt lat="44.5960891" lon="7.9623333"><ele>341.0</ele><time>2026-04-12T06:33:25.305Z</time></trkpt><trkpt lat="44.5960865" lon="7.9622166"><ele>340.6666666666667</ele><time>2026-04-12T06:33:29.305Z</time></trkpt><trkpt lat="44.5960823" lon="7.9621118"><ele>340.33333333333337</ele><time>2026-04-12T06:33:33.306Z</time></trkpt><trkpt lat="44.5960823" lon="7.9619973"><ele>340.0</ele><time>2026-04-12T06:33:37.306Z</time></trkpt><trkpt lat="44.5960939" lon="7.9618821"><ele>339.6666666666667</ele><time>2026-04-12T06:33:40.306Z</time></trkpt><trkpt lat="44.5961249" lon="7.9617649"><ele>339.3333333333333</ele><time>2026-04-12T06:33:43.305Z</time></trkpt><trkpt lat="44.5961612" lon="7.9616912"><ele>339.0</ele><time>2026-04-12T06:33:45.305Z</time></trkpt><trkpt lat="44.5962052" lon="7.9616246"><ele>339.0</ele><time>2026-04-12T06:33:47.305Z</time></trkpt><trkpt lat="44.5962509" lon="7.961562"><ele>339.0</ele><time>2026-04-12T06:33:49.305Z</time></trkpt><trkpt lat="44.5963031" lon="7.9615063"><ele>339.0</ele><time>2026-04-12T06:33:51.306Z</time></trkpt><trkpt lat="44.5963575" lon="7.9614502"><ele>339.0</ele><time>2026-04-12T06:33:53.305Z</time></trkpt><trkpt lat="44.5964119" lon="7.9614012"><ele>339.0</ele><time>2026-04-12T06:33:55.306Z</time></trkpt><trkpt lat="44.5964685" lon="7.9613445"><ele>339.0</ele><time>2026-04-12T06:33:57.306Z</time></trkpt><trkpt lat="44.5965237" lon="7.9612906"><ele>339.0</ele><time>2026-04-12T06:33:59.306Z</time></trkpt><trkpt lat="44.5965817" lon="7.9612266"><ele>339.0</ele><time>2026-04-12T06:34:02.306Z</time></trkpt><trkpt lat="44.5966454" lon="7.9611767"><ele>339.0</ele><time>2026-04-12T06:34:10.306Z</time></trkpt><trkpt lat="44.5966909" lon="7.9610993"><ele>339.0</ele><time>2026-04-12T06:35:27.306Z</time></trkpt><trkpt lat="44.5967496" lon="7.9610097"><ele>339.0</ele><time>2026-04-12T06:35:31.305Z</time></trkpt><trkpt lat="44.5968256" lon="7.9609387"><ele>339.0</ele><time>2026-04-12T06:35:34.306Z</time></trkpt><trkpt lat="44.5969067" lon="7.9608936"><ele>339.0</ele><time>2026-04-12T06:35:37.306Z</time></trkpt><trkpt lat="44.5969808" lon="7.9608467"><ele>338.2857142857143</ele><time>2026-04-12T06:35:41.305Z</time></trkpt><trkpt lat="44.5970443" lon="7.9608228"><ele>337.5714285714286</ele><time>2026-04-12T06:35:46.306Z</time></trkpt><trkpt lat="44.5970888" lon="7.9607569"><ele>336.8571428571429</ele><time>2026-04-12T06:35:50.305Z</time></trkpt><trkpt lat="44.5971449" lon="7.9607002"><ele>336.1428571428571</ele><time>2026-04-12T06:35:55.306Z</time></trkpt><trkpt lat="44.5972047" lon="7.9606644"><ele>335.42857142857144</ele><time>2026-04-12T06:36:02.305Z</time></trkpt><trkpt lat="44.5972707" lon="7.9606425"><ele>334.7142857142857</ele><time>2026-04-12T06:36:08.306Z</time></trkpt><trkpt lat="44.5973458" lon="7.9606423"><ele>334.0</ele><time>2026-04-12T06:36:12.306Z</time></trkpt><trkpt lat="44.5974365" lon="7.9606457"><ele>334.0</ele><time>2026-04-12T06:36:15.306Z</time></trkpt><trkpt lat="44.597506" lon="7.9606451"><ele>334.0</ele><time>2026-04-12T06:36:17.306Z</time></trkpt><trkpt lat="44.5975787" lon="7.9606426"><ele>334.0</ele><time>2026-04-12T06:36:19.305Z</time></trkpt><trkpt lat="44.5976517" lon="7.9606353"><ele>334.0</ele><time>2026-04-12T06:36:21.305Z</time></trkpt><trkpt lat="44.5977234" lon="7.9606184"><ele>334.0</ele><time>2026-04-12T06:36:23.306Z</time></trkpt><trkpt lat="44.5977873" lon="7.9605922"><ele>334.0</ele><time>2026-04-12T06:36:25.306Z</time></trkpt><trkpt lat="44.5978687" lon="7.9605577"><ele>334.0</ele><time>2026-04-12T06:36:28.305Z</time></trkpt><trkpt lat="44.5979417" lon="7.960535"><ele>333.85714285714283</ele><time>2026-04-12T06:36:31.305Z</time></trkpt><trkpt lat="44.5980091" lon="7.9605287"><ele>333.7142857142857</ele><time>2026-04-12T06:36:34.305Z</time></trkpt><trkpt lat="44.5980853" lon="7.9605496"><ele>333.57142857142856</ele><time>2026-04-12T06:36:37.306Z</time></trkpt><trkpt lat="44.5981545" lon="7.9605869"><ele>333.42857142857144</ele><time>2026-04-12T06:36:40.306Z</time></trkpt><trkpt lat="44.5982219" lon="7.9606174"><ele>333.2857142857143</ele><time>2026-04-12T06:36:43.306Z</time></trkpt><trkpt lat="44.5982897" lon="7.9606449"><ele>333.14285714285717</ele><time>2026-04-12T06:36:46.306Z</time></trkpt><trkpt lat="44.5983534" lon="7.9606619"><ele>333.0</ele><time>2026-04-12T06:36:49.306Z</time></trkpt><trkpt lat="44.5984204" lon="7.9606695"><ele>333.0</ele><time>2026-04-12T06:36:52.306Z</time></trkpt><trkpt lat="44.5984997" lon="7.9606475"><ele>333.0</ele><time>2026-04-12T06:36:55.306Z</time></trkpt><trkpt lat="44.5985853" lon="7.960604"><ele>333.0</ele><time>2026-04-12T06:36:58.306Z</time></trkpt><trkpt lat="44.5986622" lon="7.9605297"><ele>333.0</ele><time>2026-04-12T06:37:01.306Z</time></trkpt><trkpt lat="44.5987315" lon="7.9604557"><ele>333.0</ele><time>2026-04-12T06:37:04.305Z</time></trkpt><trkpt lat="44.5987653" lon="7.9603573"><ele>333.0</ele><time>2026-04-12T06:37:07.306Z</time></trkpt><trkpt lat="44.598792" lon="7.9602314"><ele>332.5</ele><time>2026-04-12T06:37:10.306Z</time></trkpt><trkpt lat="44.5988094" lon="7.9601459"><ele>332.0</ele><time>2026-04-12T06:37:12.306Z</time></trkpt><trkpt lat="44.5988272" lon="7.9600317"><ele>331.5</ele><time>2026-04-12T06:37:15.306Z</time></trkpt><trkpt lat="44.5988363" lon="7.9599249"><ele>331.0</ele><time>2026-04-12T06:37:18.305Z</time></trkpt><trkpt lat="44.5988469" lon="7.959801"><ele>330.5</ele><time>2026-04-12T06:37:21.306Z</time></trkpt><trkpt lat="44.5988597" lon="7.9596847"><ele>330.0</ele><time>2026-04-12T06:37:24.306Z</time></trkpt><trkpt lat="44.5988712" lon="7.959592"><ele>328.8333333333333</ele><time>2026-04-12T06:37:27.306Z</time></trkpt><trkpt lat="44.5988859" lon="7.9594733"><ele>327.6666666666667</ele><time>2026-04-12T06:37:30.306Z</time></trkpt><trkpt lat="44.5988972" lon="7.9593498"><ele>326.5</ele><time>2026-04-12T06:37:33.306Z</time></trkpt><trkpt lat="44.5989021" lon="7.9592281"><ele>325.33333333333337</ele><time>2026-04-12T06:37:36.306Z</time></trkpt><trkpt lat="44.5989184" lon="7.9591209"><ele>324.1666666666667</ele><time>2026-04-12T06:37:40.306Z</time></trkpt><trkpt lat="44.5989375" lon="7.9590211"><ele>323.0</ele><time>2026-04-12T06:37:45.306Z</time></trkpt><trkpt lat="44.5989839" lon="7.9589606"><ele>322.14285714285717</ele><time>2026-04-12T06:37:48.306Z</time></trkpt><trkpt lat="44.5990336" lon="7.9588601"><ele>321.2857142857143</ele><time>2026-04-12T06:37:51.306Z</time></trkpt><trkpt lat="44.5990518" lon="7.9587672"><ele>320.42857142857144</ele><time>2026-04-12T06:37:53.305Z</time></trkpt><trkpt lat="44.5990511" lon="7.9586762"><ele>319.57142857142856</ele><time>2026-04-12T06:37:55.305Z</time></trkpt><trkpt lat="44.5990562" lon="7.9585792"><ele>318.7142857142857</ele><time>2026-04-12T06:37:57.306Z</time></trkpt><trkpt lat="44.5990684" lon="7.9584824"><ele>317.8571428571429</ele><time>2026-04-12T06:37:59.306Z</time></trkpt><trkpt lat="44.5990876" lon="7.9583804"><ele>317.0</ele><time>2026-04-12T06:38:01.306Z</time></trkpt><trkpt lat="44.5991131" lon="7.9582783"><ele>315.6666666666667</ele><time>2026-04-12T06:38:03.306Z</time></trkpt><trkpt lat="44.5991545" lon="7.9581886"><ele>314.33333333333337</ele><time>2026-04-12T06:38:05.306Z</time></trkpt><trkpt lat="44.5992054" lon="7.9581036"><ele>313.0</ele><time>2026-04-12T06:38:07.305Z</time></trkpt><trkpt lat="44.5992631" lon="7.9580173"><ele>311.6666666666667</ele><time>2026-04-12T06:38:09.305Z</time></trkpt><trkpt lat="44.5993291" lon="7.9579301"><ele>310.3333333333333</ele><time>2026-04-12T06:38:11.306Z</time></trkpt><trkpt lat="44.5993969" lon="7.9578432"><ele>309.0</ele><time>2026-04-12T06:38:13.306Z</time></trkpt><trkpt lat="44.5994611" lon="7.957768"><ele>309.3333333333333</ele><time>2026-04-12T06:38:15.305Z</time></trkpt><trkpt lat="44.599519" lon="7.9577005"><ele>309.6666666666667</ele><time>2026-04-12T06:38:17.306Z</time></trkpt><trkpt lat="44.5995714" lon="7.957636"><ele>310.0</ele><time>2026-04-12T06:38:19.306Z</time></trkpt><trkpt lat="44.5996244" lon="7.9575727"><ele>310.33333333333337</ele><time>2026-04-12T06:38:21.306Z</time></trkpt><trkpt lat="44.5996819" lon="7.9575043"><ele>310.6666666666667</ele><time>2026-04-12T06:38:23.306Z</time></trkpt><trkpt lat="44.5997409" lon="7.9574166"><ele>311.0</ele><time>2026-04-12T06:38:25.306Z</time></trkpt><trkpt lat="44.5998098" lon="7.9573176"><ele>311.0</ele><time>2026-04-12T06:38:27.305Z</time></trkpt><trkpt lat="44.5998722" lon="7.9572326"><ele>311.0</ele><time>2026-04-12T06:38:29.306Z</time></trkpt><trkpt lat="44.5999235" lon="7.9571631"><ele>311.0</ele><time>2026-04-12T06:38:31.305Z</time></trkpt><trkpt lat="44.5999685" lon="7.9571008"><ele>311.0</ele><time>2026-04-12T06:38:33.305Z</time></trkpt><trkpt lat="44.6000264" lon="7.9570398"><ele>311.0</ele><time>2026-04-12T06:38:36.306Z</time></trkpt><trkpt lat="44.6000836" lon="7.9569692"><ele>311.0</ele><time>2026-04-12T06:38:39.305Z</time></trkpt><trkpt lat="44.600147" lon="7.956888"><ele>311.0</ele><time>2026-04-12T06:38:42.306Z</time></trkpt><trkpt lat="44.6002077" lon="7.9568093"><ele>311.0</ele><time>2026-04-12T06:38:45.306Z</time></trkpt><trkpt lat="44.6002682" lon="7.9567522"><ele>311.0</ele><time>2026-04-12T06:38:48.305Z</time></trkpt><trkpt lat="44.600339" lon="7.9567032"><ele>311.0</ele><time>2026-04-12T06:38:51.305Z</time></trkpt><trkpt lat="44.600404" lon="7.9566662"><ele>311.0</ele><time>2026-04-12T06:38:53.306Z</time></trkpt><trkpt lat="44.6004779" lon="7.9566232"><ele>311.0</ele><time>2026-04-12T06:38:55.305Z</time></trkpt><trkpt lat="44.6005535" lon="7.9565851"><ele>310.1666666666667</ele><time>2026-04-12T06:38:57.306Z</time></trkpt><trkpt lat="44.600628" lon="7.9565474"><ele>309.33333333333337</ele><time>2026-04-12T06:38:59.306Z</time></trkpt><trkpt lat="44.600703" lon="7.9565062"><ele>308.5</ele><time>2026-04-12T06:39:01.305Z</time></trkpt><trkpt lat="44.6007743" lon="7.9564621"><ele>307.6666666666667</ele><time>2026-04-12T06:39:03.306Z</time></trkpt><trkpt lat="44.6008433" lon="7.9564218"><ele>306.8333333333333</ele><time>2026-04-12T06:39:05.306Z</time></trkpt><trkpt lat="44.6009126" lon="7.956388"><ele>306.0</ele><time>2026-04-12T06:39:07.305Z</time></trkpt><trkpt lat="44.600978" lon="7.9563578"><ele>306.0</ele><time>2026-04-12T06:39:09.305Z</time></trkpt><trkpt lat="44.6010403" lon="7.9563277"><ele>306.0</ele><time>2026-04-12T06:39:11.306Z</time></trkpt><trkpt lat="44.6011322" lon="7.9562957"><ele>306.0</ele><time>2026-04-12T06:39:14.306Z</time></trkpt><trkpt lat="44.6011907" lon="7.9562614"><ele>306.0</ele><time>2026-04-12T06:39:16.305Z</time></trkpt><trkpt lat="44.6012554" lon="7.9562248"><ele>306.0</ele><time>2026-04-12T06:39:18.306Z</time></trkpt><trkpt lat="44.6013246" lon="7.9561909"><ele>306.0</ele><time>2026-04-12T06:39:20.306Z</time></trkpt><trkpt lat="44.6013946" lon="7.9561676"><ele>306.0</ele><time>2026-04-12T06:39:22.306Z</time></trkpt><trkpt lat="44.6014641" lon="7.9561437"><ele>305.0</ele><time>2026-04-12T06:39:24.306Z</time></trkpt><trkpt lat="44.6015359" lon="7.9561205"><ele>304.0</ele><time>2026-04-12T06:39:26.306Z</time></trkpt><trkpt lat="44.6016023" lon="7.9560918"><ele>303.0</ele><time>2026-04-12T06:39:28.306Z</time></trkpt><trkpt lat="44.6016768" lon="7.9560759"><ele>302.0</ele><time>2026-04-12T06:39:30.305Z</time></trkpt><trkpt lat="44.601746" lon="7.9560643"><ele>301.0</ele><time>2026-04-12T06:39:32.306Z</time></trkpt><trkpt lat="44.6018269" lon="7.9560432"><ele>300.0</ele><time>2026-04-12T06:39:35.305Z</time></trkpt><trkpt lat="44.601879" lon="7.9559593"><ele>299.99999999999994</ele><time>2026-04-12T06:39:39.306Z</time></trkpt><trkpt lat="44.6019181" lon="7.9558783"><ele>300.0</ele><time>2026-04-12T06:39:42.305Z</time></trkpt><trkpt lat="44.6019544" lon="7.9558034"><ele>300.0</ele><time>2026-04-12T06:39:45.306Z</time></trkpt><trkpt lat="44.6020009" lon="7.9557157"><ele>300.0</ele><time>2026-04-12T06:39:48.306Z</time></trkpt><trkpt lat="44.6020497" lon="7.9556086"><ele>300.0</ele><time>2026-04-12T06:39:51.306Z</time></trkpt><trkpt lat="44.6020868" lon="7.955533"><ele>299.99999999999994</ele><time>2026-04-12T06:39:53.306Z</time></trkpt><trkpt lat="44.6021263" lon="7.9554507"><ele>300.0</ele><time>2026-04-12T06:39:55.305Z</time></trkpt><trkpt lat="44.6021769" lon="7.9553704"><ele>297.85714285714283</ele><time>2026-04-12T06:39:57.305Z</time></trkpt><trkpt lat="44.6022233" lon="7.9553072"><ele>295.7142857142857</ele><time>2026-04-12T06:39:59.305Z</time></trkpt><trkpt lat="44.6022699" lon="7.9552339"><ele>293.57142857142856</ele><time>2026-04-12T06:40:02.305Z</time></trkpt><trkpt lat="44.6023192" lon="7.9551536"><ele>291.42857142857144</ele><time>2026-04-12T06:40:05.305Z</time></trkpt><trkpt lat="44.6023719" lon="7.9551027"><ele>289.2857142857143</ele><time>2026-04-12T06:40:08.306Z</time></trkpt><trkpt lat="44.6024475" lon="7.9550859"><ele>287.1428571428571</ele><time>2026-04-12T06:40:11.306Z</time></trkpt><trkpt lat="44.6025177" lon="7.9551183"><ele>285.0</ele><time>2026-04-12T06:40:15.306Z</time></trkpt><trkpt lat="44.6025814" lon="7.9550918"><ele>284.4</ele><time>2026-04-12T06:40:20.306Z</time></trkpt><trkpt lat="44.6026299" lon="7.9550253"><ele>283.8</ele><time>2026-04-12T06:40:23.306Z</time></trkpt><trkpt lat="44.6026925" lon="7.9549226"><ele>283.2</ele><time>2026-04-12T06:40:26.306Z</time></trkpt><trkpt lat="44.6027517" lon="7.954837"><ele>282.6</ele><time>2026-04-12T06:40:28.306Z</time></trkpt><trkpt lat="44.6028157" lon="7.9547269"><ele>282.0</ele><time>2026-04-12T06:40:30.306Z</time></trkpt><trkpt lat="44.6028841" lon="7.9546166"><ele>282.0</ele><time>2026-04-12T06:40:32.306Z</time></trkpt><trkpt lat="44.6029381" lon="7.9545318"><ele>282.0</ele><time>2026-04-12T06:40:34.305Z</time></trkpt><trkpt lat="44.6029861" lon="7.9544566"><ele>282.0</ele><time>2026-04-12T06:40:36.306Z</time></trkpt><trkpt lat="44.6030369" lon="7.9543835"><ele>282.0</ele><time>2026-04-12T06:40:38.305Z</time></trkpt><trkpt lat="44.6031028" lon="7.9543285"><ele>282.0</ele><time>2026-04-12T06:40:40.306Z</time></trkpt><trkpt lat="44.6031687" lon="7.9542858"><ele>282.0</ele><time>2026-04-12T06:40:42.306Z</time></trkpt><trkpt lat="44.6032408" lon="7.9542493"><ele>282.0</ele><time>2026-04-12T06:40:45.306Z</time></trkpt><trkpt lat="44.6033131" lon="7.9542067"><ele>282.0</ele><time>2026-04-12T06:40:48.306Z</time></trkpt><trkpt lat="44.6033835" lon="7.9541674"><ele>282.0</ele><time>2026-04-12T06:40:51.305Z</time></trkpt><trkpt lat="44.6034497" lon="7.9541128"><ele>282.0</ele><time>2026-04-12T06:40:54.306Z</time></trkpt><trkpt lat="44.6035213" lon="7.9540326"><ele>282.0</ele><time>2026-04-12T06:40:57.305Z</time></trkpt><trkpt lat="44.6035656" lon="7.9539573"><ele>282.0</ele><time>2026-04-12T06:40:59.306Z</time></trkpt><trkpt lat="44.6035948" lon="7.9538763"><ele>281.14285714285717</ele><time>2026-04-12T06:41:01.305Z</time></trkpt><trkpt lat="44.6036053" lon="7.9537752"><ele>280.2857142857143</ele><time>2026-04-12T06:41:03.305Z</time></trkpt><trkpt lat="44.6036204" lon="7.9536705"><ele>279.42857142857144</ele><time>2026-04-12T06:41:05.306Z</time></trkpt><trkpt lat="44.6036605" lon="7.9535588"><ele>278.57142857142856</ele><time>2026-04-12T06:41:08.305Z</time></trkpt><trkpt lat="44.6036857" lon="7.95347"><ele>277.7142857142857</ele><time>2026-04-12T06:41:11.306Z</time></trkpt><trkpt lat="44.6037238" lon="7.9533792"><ele>276.8571428571429</ele><time>2026-04-12T06:41:15.306Z</time></trkpt><trkpt lat="44.6037586" lon="7.9533037"><ele>276.0</ele><time>2026-04-12T06:41:17.306Z</time></trkpt><trkpt lat="44.6038023" lon="7.9532246"><ele>275.1666666666667</ele><time>2026-04-12T06:41:19.306Z</time></trkpt><trkpt lat="44.6038729" lon="7.9531615"><ele>274.3333333333333</ele><time>2026-04-12T06:41:21.306Z</time></trkpt><trkpt lat="44.6039509" lon="7.9531305"><ele>273.5</ele><time>2026-04-12T06:41:23.305Z</time></trkpt><trkpt lat="44.6040279" lon="7.9531369"><ele>272.66666666666663</ele><time>2026-04-12T06:41:25.305Z</time></trkpt><trkpt lat="44.6041157" lon="7.9531539"><ele>271.8333333333333</ele><time>2026-04-12T06:41:27.306Z</time></trkpt><trkpt lat="44.6041992" lon="7.9531682"><ele>271.0</ele><time>2026-04-12T06:41:29.306Z</time></trkpt><trkpt lat="44.6042841" lon="7.9531634"><ele>271.0</ele><time>2026-04-12T06:41:31.306Z</time></trkpt><trkpt lat="44.604369" lon="7.9531339"><ele>271.0</ele><time>2026-04-12T06:41:33.306Z</time></trkpt><trkpt lat="44.604456" lon="7.9530914"><ele>271.0</ele><time>2026-04-12T06:41:35.305Z</time></trkpt><trkpt lat="44.6045446" lon="7.95305"><ele>271.0</ele><time>2026-04-12T06:41:37.305Z</time></trkpt><trkpt lat="44.6046376" lon="7.9530053"><ele>271.0</ele><time>2026-04-12T06:41:39.306Z</time></trkpt><trkpt lat="44.6047281" lon="7.9529678"><ele>270.5</ele><time>2026-04-12T06:41:41.306Z</time></trkpt><trkpt lat="44.6048232" lon="7.9529431"><ele>270.0</ele><time>2026-04-12T06:41:43.306Z</time></trkpt><trkpt lat="44.6049194" lon="7.9529309"><ele>269.5</ele><time>2026-04-12T06:41:45.306Z</time></trkpt><trkpt lat="44.6050086" lon="7.9529373"><ele>269.0</ele><time>2026-04-12T06:41:47.306Z</time></trkpt><trkpt lat="44.6050899" lon="7.9529528"><ele>268.5</ele><time>2026-04-12T06:41:49.306Z</time></trkpt><trkpt lat="44.6051708" lon="7.9529423"><ele>268.0</ele><time>2026-04-12T06:41:51.306Z</time></trkpt><trkpt lat="44.6052472" lon="7.9529199"><ele>268.0</ele><time>2026-04-12T06:41:53.305Z</time></trkpt><trkpt lat="44.6053089" lon="7.9528955"><ele>268.0</ele><time>2026-04-12T06:41:55.305Z</time></trkpt><trkpt lat="44.6053504" lon="7.9528207"><ele>268.0</ele><time>2026-04-12T06:41:58.305Z</time></trkpt><trkpt lat="44.6053439" lon="7.9527065"><ele>268.0</ele><time>2026-04-12T06:42:02.306Z</time></trkpt><trkpt lat="44.6053145" lon="7.9526156"><ele>268.0</ele><time>2026-04-12T06:42:05.306Z</time></trkpt><trkpt lat="44.6053223" lon="7.9525175"><ele>268.0</ele><time>2026-04-12T06:42:08.306Z</time></trkpt><trkpt lat="44.6053612" lon="7.9524261"><ele>268.0</ele><time>2026-04-12T06:42:11.306Z</time></trkpt><trkpt lat="44.6054096" lon="7.9523256"><ele>267.0</ele><time>2026-04-12T06:42:14.306Z</time></trkpt><trkpt lat="44.6054642" lon="7.9522277"><ele>266.0</ele><time>2026-04-12T06:42:17.306Z</time></trkpt><trkpt lat="44.60552" lon="7.9521423"><ele>265.0</ele><time>2026-04-12T06:42:20.306Z</time></trkpt><trkpt lat="44.6056014" lon="7.9520579"><ele>264.0</ele><time>2026-04-12T06:42:23.306Z</time></trkpt><trkpt lat="44.6056735" lon="7.9520045"><ele>263.0</ele><time>2026-04-12T06:42:25.306Z</time></trkpt><trkpt lat="44.6057663" lon="7.9519701"><ele>263.0</ele><time>2026-04-12T06:42:27.306Z</time></trkpt><trkpt lat="44.6058363" lon="7.9519347"><ele>263.0</ele><time>2026-04-12T06:42:29.305Z</time></trkpt><trkpt lat="44.605902" lon="7.951885"><ele>263.0</ele><time>2026-04-12T06:42:31.305Z</time></trkpt><trkpt lat="44.6060005" lon="7.9518056"><ele>263.0</ele><time>2026-04-12T06:42:34.305Z</time></trkpt><trkpt lat="44.6060685" lon="7.9516964"><ele>263.0</ele><time>2026-04-12T06:42:36.306Z</time></trkpt><trkpt lat="44.6061337" lon="7.951606"><ele>262.6666666666667</ele><time>2026-04-12T06:42:38.305Z</time></trkpt><trkpt lat="44.6062004" lon="7.9515235"><ele>262.33333333333337</ele><time>2026-04-12T06:42:40.268Z</time></trkpt><trkpt lat="44.6062786" lon="7.9514447"><ele>262.0</ele><time>2026-04-12T06:42:42.306Z</time></trkpt><trkpt lat="44.6063491" lon="7.951365"><ele>261.6666666666667</ele><time>2026-04-12T06:42:44.306Z</time></trkpt><trkpt lat="44.6064202" lon="7.9512985"><ele>261.3333333333333</ele><time>2026-04-12T06:42:46.306Z</time></trkpt><trkpt lat="44.6064867" lon="7.9512407"><ele>261.0</ele><time>2026-04-12T06:42:48.306Z</time></trkpt><trkpt lat="44.6065465" lon="7.9511985"><ele>261.0</ele><time>2026-04-12T06:42:50.306Z</time></trkpt><trkpt lat="44.6066432" lon="7.9511867"><ele>261.0</ele><time>2026-04-12T06:42:53.306Z</time></trkpt><trkpt lat="44.6067179" lon="7.9512234"><ele>261.0</ele><time>2026-04-12T06:42:55.306Z</time></trkpt><trkpt lat="44.6067923" lon="7.9512992"><ele>261.0</ele><time>2026-04-12T06:42:57.305Z</time></trkpt><trkpt lat="44.6068838" lon="7.9513414"><ele>261.0</ele><time>2026-04-12T06:42:59.305Z</time></trkpt><trkpt lat="44.6069866" lon="7.9513321"><ele>260.8</ele><time>2026-04-12T06:43:01.306Z</time></trkpt><trkpt lat="44.6070844" lon="7.9512965"><ele>260.6</ele><time>2026-04-12T06:43:03.306Z</time></trkpt><trkpt lat="44.6071792" lon="7.9512412"><ele>260.4</ele><time>2026-04-12T06:43:05.305Z</time></trkpt><trkpt lat="44.6072644" lon="7.9511798"><ele>260.2</ele><time>2026-04-12T06:43:07.305Z</time></trkpt><trkpt lat="44.6073434" lon="7.951118"><ele>260.0</ele><time>2026-04-12T06:43:09.305Z</time></trkpt><trkpt lat="44.6074197" lon="7.9510605"><ele>260.0</ele><time>2026-04-12T06:43:11.305Z</time></trkpt><trkpt lat="44.6075041" lon="7.9510229"><ele>260.0</ele><time>2026-04-12T06:43:13.306Z</time></trkpt><trkpt lat="44.6075925" lon="7.9509913"><ele>260.0</ele><time>2026-04-12T06:43:15.306Z</time></trkpt><trkpt lat="44.6076854" lon="7.9509594"><ele>260.0</ele><time>2026-04-12T06:43:17.306Z</time></trkpt><trkpt lat="44.6077829" lon="7.9509295"><ele>260.0</ele><time>2026-04-12T06:43:19.306Z</time></trkpt><trkpt lat="44.6078868" lon="7.950909"><ele>259.6</ele><time>2026-04-12T06:43:21.306Z</time></trkpt><trkpt lat="44.6079927" lon="7.9508969"><ele>259.2</ele><time>2026-04-12T06:43:23.306Z</time></trkpt><trkpt lat="44.608096" lon="7.9508877"><ele>258.8</ele><time>2026-04-12T06:43:25.306Z</time></trkpt><trkpt lat="44.6081988" lon="7.9508886"><ele>258.4</ele><time>2026-04-12T06:43:27.306Z</time></trkpt><trkpt lat="44.6083057" lon="7.9508848"><ele>258.0</ele><time>2026-04-12T06:43:29.305Z</time></trkpt><trkpt lat="44.6084143" lon="7.9508732"><ele>256.75</ele><time>2026-04-12T06:43:31.306Z</time></trkpt><trkpt lat="44.6085334" lon="7.9508613"><ele>255.5</ele><time>2026-04-12T06:43:33.305Z</time></trkpt><trkpt lat="44.6086577" lon="7.9508516"><ele>254.25</ele><time>2026-04-12T06:43:35.306Z</time></trkpt><trkpt lat="44.608781" lon="7.9508445"><ele>253.0</ele><time>2026-04-12T06:43:37.305Z</time></trkpt><trkpt lat="44.608906" lon="7.9508384"><ele>252.25</ele><time>2026-04-12T06:43:39.305Z</time></trkpt><trkpt lat="44.609028" lon="7.9508315"><ele>251.5</ele><time>2026-04-12T06:43:41.306Z</time></trkpt><trkpt lat="44.6091507" lon="7.9508223"><ele>250.75</ele><time>2026-04-12T06:43:43.305Z</time></trkpt><trkpt lat="44.6092702" lon="7.9508155"><ele>250.0</ele><time>2026-04-12T06:43:45.306Z</time></trkpt><trkpt lat="44.6093849" lon="7.9508003"><ele>249.25</ele><time>2026-04-12T06:43:47.306Z</time></trkpt><trkpt lat="44.6095055" lon="7.9507725"><ele>248.5</ele><time>2026-04-12T06:43:49.305Z</time></trkpt><trkpt lat="44.6096221" lon="7.9507396"><ele>247.75</ele><time>2026-04-12T06:43:51.306Z</time></trkpt><trkpt lat="44.6097282" lon="7.9507129"><ele>247.0</ele><time>2026-04-12T06:43:53.306Z</time></trkpt><trkpt lat="44.6098346" lon="7.9506893"><ele>247.0</ele><time>2026-04-12T06:43:55.306Z</time></trkpt><trkpt lat="44.6099478" lon="7.9506611"><ele>247.0</ele><time>2026-04-12T06:43:57.306Z</time></trkpt><trkpt lat="44.6100433" lon="7.9506473"><ele>247.0</ele><time>2026-04-12T06:43:59.306Z</time></trkpt><trkpt lat="44.6101429" lon="7.9506384"><ele>247.0</ele><time>2026-04-12T06:44:01.305Z</time></trkpt><trkpt lat="44.6102396" lon="7.9506263"><ele>247.0</ele><time>2026-04-12T06:44:03.305Z</time></trkpt><trkpt lat="44.6103372" lon="7.9506137"><ele>246.6</ele><time>2026-04-12T06:44:05.306Z</time></trkpt><trkpt lat="44.6104272" lon="7.9505864"><ele>246.2</ele><time>2026-04-12T06:44:07.306Z</time></trkpt><trkpt lat="44.6105222" lon="7.9505454"><ele>245.8</ele><time>2026-04-12T06:44:09.306Z</time></trkpt><trkpt lat="44.6106105" lon="7.9504927"><ele>245.4</ele><time>2026-04-12T06:44:11.305Z</time></trkpt><trkpt lat="44.6107087" lon="7.9504432"><ele>245.0</ele><time>2026-04-12T06:44:13.305Z</time></trkpt><trkpt lat="44.6108106" lon="7.9504262"><ele>245.0</ele><time>2026-04-12T06:44:15.306Z</time></trkpt><trkpt lat="44.6109146" lon="7.9504201"><ele>245.0</ele><time>2026-04-12T06:44:17.306Z</time></trkpt><trkpt lat="44.6110162" lon="7.9504203"><ele>245.0</ele><time>2026-04-12T06:44:19.306Z</time></trkpt><trkpt lat="44.6111165" lon="7.9504145"><ele>245.0</ele><time>2026-04-12T06:44:21.305Z</time></trkpt><trkpt lat="44.6112119" lon="7.9504037"><ele>245.0</ele><time>2026-04-12T06:44:23.306Z</time></trkpt><trkpt lat="44.6113031" lon="7.9503724"><ele>244.4</ele><time>2026-04-12T06:44:25.306Z</time></trkpt><trkpt lat="44.6113891" lon="7.9503277"><ele>243.8</ele><time>2026-04-12T06:44:27.306Z</time></trkpt><trkpt lat="44.6114666" lon="7.9502589"><ele>243.2</ele><time>2026-04-12T06:44:29.306Z</time></trkpt><trkpt lat="44.611542" lon="7.9501778"><ele>242.6</ele><time>2026-04-12T06:44:31.305Z</time></trkpt><trkpt lat="44.6116255" lon="7.9501123"><ele>242.0</ele><time>2026-04-12T06:44:33.305Z</time></trkpt><trkpt lat="44.6117135" lon="7.9500715"><ele>242.00000000000003</ele><time>2026-04-12T06:44:35.306Z</time></trkpt><trkpt lat="44.6117995" lon="7.9500539"><ele>242.0</ele><time>2026-04-12T06:44:37.306Z</time></trkpt><trkpt lat="44.6118859" lon="7.9500572"><ele>242.0</ele><time>2026-04-12T06:44:39.306Z</time></trkpt><trkpt lat="44.6119695" lon="7.9500607"><ele>242.0</ele><time>2026-04-12T06:44:41.306Z</time></trkpt><trkpt lat="44.6120429" lon="7.9500758"><ele>242.00000000000003</ele><time>2026-04-12T06:44:43.306Z</time></trkpt><trkpt lat="44.6121117" lon="7.950096"><ele>242.0</ele><time>2026-04-12T06:44:45.305Z</time></trkpt><trkpt lat="44.6121786" lon="7.95011"><ele>241.85714285714283</ele><time>2026-04-12T06:44:47.306Z</time></trkpt><trkpt lat="44.6122429" lon="7.9501251"><ele>241.7142857142857</ele><time>2026-04-12T06:44:49.306Z</time></trkpt><trkpt lat="44.6123282" lon="7.9501416"><ele>241.57142857142856</ele><time>2026-04-12T06:44:52.305Z</time></trkpt><trkpt lat="44.6124024" lon="7.9501567"><ele>241.42857142857144</ele><time>2026-04-12T06:44:55.305Z</time></trkpt><trkpt lat="44.6124692" lon="7.9501625"><ele>241.2857142857143</ele><time>2026-04-12T06:44:58.305Z</time></trkpt><trkpt lat="44.6125324" lon="7.9501685"><ele>241.14285714285717</ele><time>2026-04-12T06:45:01.306Z</time></trkpt><trkpt lat="44.6125992" lon="7.9501763"><ele>241.0</ele><time>2026-04-12T06:45:04.306Z</time></trkpt><trkpt lat="44.6126675" lon="7.950174"><ele>241.0</ele><time>2026-04-12T06:45:07.306Z</time></trkpt><trkpt lat="44.6127371" lon="7.9501762"><ele>241.00000000000003</ele><time>2026-04-12T06:45:10.305Z</time></trkpt><trkpt lat="44.612802" lon="7.9501743"><ele>241.0</ele><time>2026-04-12T06:45:18.306Z</time></trkpt><trkpt lat="44.6128665" lon="7.9501644"><ele>241.0</ele><time>2026-04-12T06:45:25.306Z</time></trkpt><trkpt lat="44.6129394" lon="7.9501486"><ele>241.00000000000003</ele><time>2026-04-12T06:45:32.305Z</time></trkpt><trkpt lat="44.61301" lon="7.9501396"><ele>241.0</ele><time>2026-04-12T06:45:39.306Z</time></trkpt><trkpt lat="44.613073" lon="7.9501438"><ele>241.0</ele><time>2026-04-12T06:45:46.305Z</time></trkpt><trkpt lat="44.613146" lon="7.9501491"><ele>240.85714285714286</ele><time>2026-04-12T06:45:53.305Z</time></trkpt><trkpt lat="44.6132169" lon="7.9501527"><ele>240.71428571428572</ele><time>2026-04-12T06:46:00.306Z</time></trkpt><trkpt lat="44.6132826" lon="7.9501675"><ele>240.57142857142858</ele><time>2026-04-12T06:46:07.306Z</time></trkpt><trkpt lat="44.6133477" lon="7.9501727"><ele>240.42857142857144</ele><time>2026-04-12T06:46:14.306Z</time></trkpt><trkpt lat="44.6134191" lon="7.9501823"><ele>240.28571428571428</ele><time>2026-04-12T06:46:22.306Z</time></trkpt><trkpt lat="44.6134832" lon="7.9501858"><ele>240.14285714285717</ele><time>2026-04-12T06:46:29.306Z</time></trkpt><trkpt lat="44.6135514" lon="7.9501604"><ele>240.0</ele><time>2026-04-12T06:46:36.306Z</time></trkpt><trkpt lat="44.6136147" lon="7.950115"><ele>241.28571428571428</ele><time>2026-04-12T06:46:43.306Z</time></trkpt><trkpt lat="44.6136658" lon="7.9500504"><ele>242.57142857142856</ele><time>2026-04-12T06:46:50.305Z</time></trkpt><trkpt lat="44.6137036" lon="7.9499648"><ele>243.85714285714283</ele><time>2026-04-12T06:46:57.306Z</time></trkpt><trkpt lat="44.6137173" lon="7.9498761"><ele>245.14285714285714</ele><time>2026-04-12T06:47:04.306Z</time></trkpt><trkpt lat="44.613699" lon="7.949783"><ele>246.4285714285714</ele><time>2026-04-12T06:47:13.306Z</time></trkpt><trkpt lat="44.61365" lon="7.9497159"><ele>247.7142857142857</ele><time>2026-04-12T06:48:39.306Z</time></trkpt><trkpt lat="44.6136136" lon="7.9496436"><ele>249.0</ele><time>2026-04-12T06:48:44.306Z</time></trkpt><trkpt lat="44.6135896" lon="7.9495498"><ele>250.16666666666666</ele><time>2026-04-12T06:48:49.306Z</time></trkpt><trkpt lat="44.613586" lon="7.9494584"><ele>251.33333333333331</ele><time>2026-04-12T06:48:53.305Z</time></trkpt><trkpt lat="44.6135813" lon="7.9493452"><ele>252.5</ele><time>2026-04-12T06:48:56.306Z</time></trkpt><trkpt lat="44.6135723" lon="7.9492171"><ele>253.66666666666666</ele><time>2026-04-12T06:48:59.306Z</time></trkpt><trkpt lat="44.6135622" lon="7.9490922"><ele>254.83333333333331</ele><time>2026-04-12T06:49:02.305Z</time></trkpt><trkpt lat="44.6135562" lon="7.9489833"><ele>256.0</ele><time>2026-04-12T06:49:05.306Z</time></trkpt><trkpt lat="44.6135352" lon="7.9488665"><ele>255.83333333333331</ele><time>2026-04-12T06:49:08.305Z</time></trkpt><trkpt lat="44.6135278" lon="7.9487727"><ele>255.66666666666666</ele><time>2026-04-12T06:49:10.306Z</time></trkpt><trkpt lat="44.6135142" lon="7.9486836"><ele>255.5</ele><time>2026-04-12T06:49:12.306Z</time></trkpt><trkpt lat="44.6134908" lon="7.9485583"><ele>255.33333333333331</ele><time>2026-04-12T06:49:15.305Z</time></trkpt><trkpt lat="44.6134738" lon="7.9484634"><ele>255.16666666666666</ele><time>2026-04-12T06:49:17.305Z</time></trkpt><trkpt lat="44.6134464" lon="7.9483636"><ele>255.0</ele><time>2026-04-12T06:49:19.306Z</time></trkpt><trkpt lat="44.613412" lon="7.9482578"><ele>255.0</ele><time>2026-04-12T06:49:21.305Z</time></trkpt><trkpt lat="44.6133733" lon="7.9481441"><ele>255.0</ele><time>2026-04-12T06:49:23.306Z</time></trkpt><trkpt lat="44.613345" lon="7.9480391"><ele>255.0</ele><time>2026-04-12T06:49:25.305Z</time></trkpt><trkpt lat="44.6133133" lon="7.9479489"><ele>255.0</ele><time>2026-04-12T06:49:27.305Z</time></trkpt><trkpt lat="44.6132849" lon="7.9478377"><ele>255.0</ele><time>2026-04-12T06:49:29.306Z</time></trkpt><trkpt lat="44.6132543" lon="7.9477283"><ele>255.0</ele><time>2026-04-12T06:49:31.305Z</time></trkpt><trkpt lat="44.6132332" lon="7.9476255"><ele>253.83333333333334</ele><time>2026-04-12T06:49:33.306Z</time></trkpt><trkpt lat="44.6132204" lon="7.9475255"><ele>252.66666666666669</ele><time>2026-04-12T06:49:35.306Z</time></trkpt><trkpt lat="44.6132253" lon="7.947409"><ele>251.5</ele><time>2026-04-12T06:49:37.305Z</time></trkpt><trkpt lat="44.6132357" lon="7.9472859"><ele>250.33333333333334</ele><time>2026-04-12T06:49:39.306Z</time></trkpt><trkpt lat="44.6132505" lon="7.9471609"><ele>249.16666666666669</ele><time>2026-04-12T06:49:41.305Z</time></trkpt><trkpt lat="44.6132655" lon="7.9470485"><ele>248.0</ele><time>2026-04-12T06:49:43.306Z</time></trkpt><trkpt lat="44.6132813" lon="7.946939"><ele>248.0</ele><time>2026-04-12T06:49:45.305Z</time></trkpt><trkpt lat="44.6133045" lon="7.9468238"><ele>248.00000000000003</ele><time>2026-04-12T06:49:47.306Z</time></trkpt><trkpt lat="44.6133223" lon="7.9467161"><ele>248.0</ele><time>2026-04-12T06:49:49.306Z</time></trkpt><trkpt lat="44.6133391" lon="7.9466231"><ele>248.0</ele><time>2026-04-12T06:49:51.305Z</time></trkpt><trkpt lat="44.6133552" lon="7.946532"><ele>248.00000000000003</ele><time>2026-04-12T06:49:53.306Z</time></trkpt><trkpt lat="44.6133601" lon="7.9464141"><ele>248.0</ele><time>2026-04-12T06:49:56.306Z</time></trkpt><trkpt lat="44.6133322" lon="7.9463335"><ele>248.0</ele><time>2026-04-12T06:49:59.305Z</time></trkpt><trkpt lat="44.6132827" lon="7.9462523"><ele>247.83333333333334</ele><time>2026-04-12T06:50:03.305Z</time></trkpt><trkpt lat="44.6132331" lon="7.9461723"><ele>247.66666666666669</ele><time>2026-04-12T06:50:07.305Z</time></trkpt><trkpt lat="44.6131841" lon="7.9461013"><ele>247.5</ele><time>2026-04-12T06:50:11.305Z</time></trkpt><trkpt lat="44.6131315" lon="7.9460309"><ele>247.33333333333331</ele><time>2026-04-12T06:50:15.306Z</time></trkpt><trkpt lat="44.6130674" lon="7.945967"><ele>247.16666666666666</ele><time>2026-04-12T06:50:19.305Z</time></trkpt><trkpt lat="44.613005" lon="7.9459008"><ele>247.0</ele><time>2026-04-12T06:50:23.306Z</time></trkpt><trkpt lat="44.6129336" lon="7.9458582"><ele>247.71428571428572</ele><time>2026-04-12T06:50:27.306Z</time></trkpt><trkpt lat="44.6128563" lon="7.9458251"><ele>248.42857142857142</ele><time>2026-04-12T06:50:31.306Z</time></trkpt><trkpt lat="44.6127878" lon="7.9458095"><ele>249.14285714285714</ele><time>2026-04-12T06:50:34.305Z</time></trkpt><trkpt lat="44.6127137" lon="7.9457961"><ele>249.85714285714286</ele><time>2026-04-12T06:50:37.306Z</time></trkpt><trkpt lat="44.6126542" lon="7.945761"><ele>250.57142857142856</ele><time>2026-04-12T06:50:40.306Z</time></trkpt><trkpt lat="44.6125769" lon="7.9457189"><ele>251.28571428571428</ele><time>2026-04-12T06:50:44.306Z</time></trkpt><trkpt lat="44.6125051" lon="7.9456845"><ele>252.0</ele><time>2026-04-12T06:50:48.306Z</time></trkpt><trkpt lat="44.6124309" lon="7.9456454"><ele>252.0</ele><time>2026-04-12T06:50:52.305Z</time></trkpt><trkpt lat="44.6123592" lon="7.9456036"><ele>252.0</ele><time>2026-04-12T06:50:56.306Z</time></trkpt><trkpt lat="44.6122843" lon="7.9455684"><ele>252.0</ele><time>2026-04-12T06:51:00.305Z</time></trkpt><trkpt lat="44.6122176" lon="7.9455297"><ele>252.0</ele><time>2026-04-12T06:51:04.306Z</time></trkpt><trkpt lat="44.6121501" lon="7.9454897"><ele>252.0</ele><time>2026-04-12T06:51:08.306Z</time></trkpt><trkpt lat="44.6120935" lon="7.9454488"><ele>252.0</ele><time>2026-04-12T06:51:11.306Z</time></trkpt><trkpt lat="44.6120143" lon="7.9453983"><ele>252.71428571428572</ele><time>2026-04-12T06:51:14.306Z</time></trkpt><trkpt lat="44.6119503" lon="7.9453652"><ele>253.42857142857144</ele><time>2026-04-12T06:51:17.306Z</time></trkpt><trkpt lat="44.6118762" lon="7.9453328"><ele>254.14285714285714</ele><time>2026-04-12T06:51:22.306Z</time></trkpt><trkpt lat="44.611815" lon="7.9453113"><ele>254.85714285714286</ele><time>2026-04-12T06:51:27.306Z</time></trkpt><trkpt lat="44.6117881" lon="7.9452256"><ele>255.57142857142858</ele><time>2026-04-12T06:51:33.306Z</time></trkpt><trkpt lat="44.6117229" lon="7.9452057"><ele>256.2857142857143</ele><time>2026-04-12T06:51:49.306Z</time></trkpt><trkpt lat="44.6116614" lon="7.9451852"><ele>257.0</ele><time>2026-04-12T06:51:58.306Z</time></trkpt><trkpt lat="44.6115954" lon="7.9451487"><ele>257.0</ele><time>2026-04-12T06:52:09.305Z</time></trkpt><trkpt lat="44.6115316" lon="7.9451164"><ele>257.0</ele><time>2026-04-12T06:52:18.306Z</time></trkpt><trkpt lat="44.6114695" lon="7.9450747"><ele>257.0</ele><time>2026-04-12T06:52:28.306Z</time></trkpt><trkpt lat="44.6114102" lon="7.9450424"><ele>257.0</ele><time>2026-04-12T06:52:36.306Z</time></trkpt><trkpt lat="44.6113518" lon="7.9449934"><ele>257.0</ele><time>2026-04-12T06:52:45.306Z</time></trkpt><trkpt lat="44.61129" lon="7.944954"><ele>257.0</ele><time>2026-04-12T06:52:55.305Z</time></trkpt><trkpt lat="44.6112284" lon="7.944923"><ele>257.0</ele><time>2026-04-12T06:53:05.305Z</time></trkpt><trkpt lat="44.6111664" lon="7.9448858"><ele>259.1428571428571</ele><time>2026-04-12T06:53:15.306Z</time></trkpt><trkpt lat="44.6111068" lon="7.9448388"><ele>261.2857142857143</ele><time>2026-04-12T06:53:26.306Z</time></trkpt><trkpt lat="44.611054" lon="7.9447861"><ele>263.42857142857144</ele><time>2026-04-12T06:53:37.305Z</time></trkpt><trkpt lat="44.6109939" lon="7.9447388"><ele>265.57142857142856</ele><time>2026-04-12T06:53:47.305Z</time></trkpt><trkpt lat="44.6109377" lon="7.944687"><ele>267.7142857142857</ele><time>2026-04-12T06:53:57.306Z</time></trkpt><trkpt lat="44.6108844" lon="7.9446291"><ele>269.85714285714283</ele><time>2026-04-12T06:54:07.305Z</time></trkpt><trkpt lat="44.6108403" lon="7.9445654"><ele>272.0</ele><time>2026-04-12T06:54:15.306Z</time></trkpt><trkpt lat="44.6108053" lon="7.9444814"><ele>271.99999999999994</ele><time>2026-04-12T06:54:23.306Z</time></trkpt><trkpt lat="44.6107663" lon="7.9444112"><ele>272.0</ele><time>2026-04-12T06:54:32.306Z</time></trkpt><trkpt lat="44.6107441" lon="7.9443214"><ele>272.0</ele><time>2026-04-12T06:54:42.305Z</time></trkpt><trkpt lat="44.6106923" lon="7.9442668"><ele>272.0</ele><time>2026-04-12T06:54:48.306Z</time></trkpt><trkpt lat="44.6106289" lon="7.9442263"><ele>272.0</ele><time>2026-04-12T06:54:56.306Z</time></trkpt><trkpt lat="44.6105722" lon="7.9440878"><ele>271.99999999999994</ele><time>2026-04-12T06:57:34.305Z</time></trkpt><trkpt lat="44.6106323" lon="7.944051"><ele>272.0</ele><time>2026-04-12T06:57:42.306Z</time></trkpt><trkpt lat="44.6107039" lon="7.9440286"><ele>275.4285714285714</ele><time>2026-04-12T06:57:50.306Z</time></trkpt><trkpt lat="44.610769" lon="7.9439917"><ele>278.85714285714283</ele><time>2026-04-12T06:57:57.306Z</time></trkpt><trkpt lat="44.6107987" lon="7.943911"><ele>282.2857142857143</ele><time>2026-04-12T06:58:09.306Z</time></trkpt><trkpt lat="44.6108176" lon="7.9438261"><ele>285.71428571428567</ele><time>2026-04-12T06:58:19.306Z</time></trkpt><trkpt lat="44.6108367" lon="7.9437317"><ele>289.1428571428571</ele><time>2026-04-12T06:58:29.305Z</time></trkpt><trkpt lat="44.6108186" lon="7.9436381"><ele>292.57142857142856</ele><time>2026-04-12T06:58:37.306Z</time></trkpt><trkpt lat="44.6108015" lon="7.9435493"><ele>296.0</ele><time>2026-04-12T06:58:44.306Z</time></trkpt><trkpt lat="44.6107681" lon="7.943462"><ele>296.7142857142857</ele><time>2026-04-12T06:58:52.305Z</time></trkpt><trkpt lat="44.6107422" lon="7.9433767"><ele>297.42857142857144</ele><time>2026-04-12T06:59:00.306Z</time></trkpt><trkpt lat="44.6107172" lon="7.9432819"><ele>298.1428571428571</ele><time>2026-04-12T06:59:07.305Z</time></trkpt><trkpt lat="44.6106851" lon="7.9432037"><ele>298.8571428571429</ele><time>2026-04-12T06:59:15.306Z</time></trkpt><trkpt lat="44.6106485" lon="7.943115"><ele>299.57142857142856</ele><time>2026-04-12T06:59:22.306Z</time></trkpt><trkpt lat="44.610626" lon="7.9430319"><ele>300.2857142857143</ele><time>2026-04-12T06:59:27.306Z</time></trkpt><trkpt lat="44.6105869" lon="7.9429492"><ele>301.0</ele><time>2026-04-12T06:59:33.306Z</time></trkpt><trkpt lat="44.6105499" lon="7.942869"><ele>301.0</ele><time>2026-04-12T06:59:39.305Z</time></trkpt><trkpt lat="44.6105149" lon="7.9427906"><ele>301.0</ele><time>2026-04-12T06:59:46.305Z</time></trkpt><trkpt lat="44.6105186" lon="7.9426909"><ele>301.0</ele><time>2026-04-12T07:00:11.305Z</time></trkpt><trkpt lat="44.6104562" lon="7.9426668"><ele>301.0</ele><time>2026-04-12T07:06:43.315Z</time></trkpt><trkpt lat="44.6104491" lon="7.9425597"><ele>301.0</ele><time>2026-04-12T07:07:12.331Z</time></trkpt><trkpt lat="44.6103853" lon="7.9426006"><ele>301.0</ele><time>2026-04-12T07:07:32.306Z</time></trkpt><trkpt lat="44.6103532" lon="7.942518"><ele>301.0</ele><time>2026-04-12T07:07:36.311Z</time></trkpt><trkpt lat="44.6103121" lon="7.9424496"><ele>301.0</ele><time>2026-04-12T07:07:39.308Z</time></trkpt><trkpt lat="44.6102487" lon="7.9423961"><ele>301.0</ele><time>2026-04-12T07:07:44.308Z</time></trkpt><trkpt lat="44.6102188" lon="7.9423136"><ele>301.0</ele><time>2026-04-12T07:07:49.308Z</time></trkpt><trkpt lat="44.610205" lon="7.9422261"><ele>301.0</ele><time>2026-04-12T07:07:53.308Z</time></trkpt><trkpt lat="44.6102003" lon="7.9421331"><ele>301.0</ele><time>2026-04-12T07:07:58.307Z</time></trkpt><trkpt lat="44.6101823" lon="7.9420377"><ele>301.0</ele><time>2026-04-12T07:08:03.307Z</time></trkpt><trkpt lat="44.6101465" lon="7.9419561"><ele>301.0</ele><time>2026-04-12T07:08:09.308Z</time></trkpt><trkpt lat="44.6101818" lon="7.9418437"><ele>301.0</ele><time>2026-04-12T07:08:11.308Z</time></trkpt><trkpt lat="44.6101578" lon="7.941752"><ele>301.0</ele><time>2026-04-12T07:08:19.307Z</time></trkpt><trkpt lat="44.6101585" lon="7.9416539"><ele>301.0</ele><time>2026-04-12T07:08:26.307Z</time></trkpt><trkpt lat="44.6101652" lon="7.9415548"><ele>301.0</ele><time>2026-04-12T07:08:32.307Z</time></trkpt><trkpt lat="44.6101727" lon="7.9414642"><ele>301.0</ele><time>2026-04-12T07:08:38.308Z</time></trkpt><trkpt lat="44.6101752" lon="7.9413709"><ele>301.0</ele><time>2026-04-12T07:08:44.308Z</time></trkpt><trkpt lat="44.6101992" lon="7.9412841"><ele>301.0</ele><time>2026-04-12T07:08:52.307Z</time></trkpt><trkpt lat="44.610179" lon="7.9411902"><ele>301.2857142857143</ele><time>2026-04-12T07:08:57.308Z</time></trkpt><trkpt lat="44.6101611" lon="7.9411005"><ele>301.57142857142856</ele><time>2026-04-12T07:09:03.307Z</time></trkpt><trkpt lat="44.6101854" lon="7.9409791"><ele>301.8571428571429</ele><time>2026-04-12T07:13:05.308Z</time></trkpt><trkpt lat="44.6101809" lon="7.9408857"><ele>302.1428571428571</ele><time>2026-04-12T07:13:12.308Z</time></trkpt><trkpt lat="44.6101867" lon="7.9407858"><ele>302.42857142857144</ele><time>2026-04-12T07:13:19.308Z</time></trkpt><trkpt lat="44.6101861" lon="7.9406789"><ele>302.7142857142857</ele><time>2026-04-12T07:13:25.308Z</time></trkpt><trkpt lat="44.6101847" lon="7.9405851"><ele>303.0</ele><time>2026-04-12T07:13:30.308Z</time></trkpt><trkpt lat="44.610183" lon="7.9404903"><ele>303.42857142857144</ele><time>2026-04-12T07:13:35.308Z</time></trkpt><trkpt lat="44.610177" lon="7.9403863"><ele>303.85714285714283</ele><time>2026-04-12T07:13:41.308Z</time></trkpt><trkpt lat="44.6101441" lon="7.9403095"><ele>304.2857142857143</ele><time>2026-04-12T07:14:25.308Z</time></trkpt><trkpt lat="44.6100765" lon="7.9402714"><ele>304.7142857142857</ele><time>2026-04-12T07:14:31.308Z</time></trkpt><trkpt lat="44.6100699" lon="7.9401777"><ele>305.14285714285717</ele><time>2026-04-12T07:14:37.307Z</time></trkpt><trkpt lat="44.6100559" lon="7.9400835"><ele>305.57142857142856</ele><time>2026-04-12T07:14:43.308Z</time></trkpt><trkpt lat="44.6100499" lon="7.9399943"><ele>306.0</ele><time>2026-04-12T07:14:49.307Z</time></trkpt><trkpt lat="44.610037" lon="7.9398933"><ele>307.1428571428571</ele><time>2026-04-12T07:14:55.308Z</time></trkpt><trkpt lat="44.6100251" lon="7.9397898"><ele>308.2857142857143</ele><time>2026-04-12T07:15:01.308Z</time></trkpt><trkpt lat="44.6099993" lon="7.9397039"><ele>309.42857142857144</ele><time>2026-04-12T07:15:06.307Z</time></trkpt><trkpt lat="44.6099705" lon="7.9396133"><ele>310.57142857142856</ele><time>2026-04-12T07:15:12.308Z</time></trkpt><trkpt lat="44.609933" lon="7.9395303"><ele>311.7142857142857</ele><time>2026-04-12T07:15:19.307Z</time></trkpt><trkpt lat="44.6098801" lon="7.9394348"><ele>312.85714285714283</ele><time>2026-04-12T07:15:26.308Z</time></trkpt><trkpt lat="44.60983" lon="7.9393631"><ele>314.0</ele><time>2026-04-12T07:15:34.308Z</time></trkpt><trkpt lat="44.609771" lon="7.9393243"><ele>313.99999999999994</ele><time>2026-04-12T07:15:41.308Z</time></trkpt><trkpt lat="44.609704" lon="7.9393212"><ele>314.0</ele><time>2026-04-12T07:15:47.308Z</time></trkpt><trkpt lat="44.6096358" lon="7.939318"><ele>314.0</ele><time>2026-04-12T07:15:53.308Z</time></trkpt><trkpt lat="44.6095698" lon="7.9392958"><ele>314.0</ele><time>2026-04-12T07:16:01.307Z</time></trkpt><trkpt lat="44.6094982" lon="7.9392759"><ele>314.0</ele><time>2026-04-12T07:16:08.308Z</time></trkpt><trkpt lat="44.6094317" lon="7.9392342"><ele>313.99999999999994</ele><time>2026-04-12T07:16:15.308Z</time></trkpt><trkpt lat="44.6093679" lon="7.9391859"><ele>314.0</ele><time>2026-04-12T07:16:22.308Z</time></trkpt><trkpt lat="44.6093007" lon="7.939154"><ele>315.57142857142856</ele><time>2026-04-12T07:16:29.308Z</time></trkpt><trkpt lat="44.6092347" lon="7.9391125"><ele>317.1428571428571</ele><time>2026-04-12T07:16:36.308Z</time></trkpt><trkpt lat="44.6091695" lon="7.939067"><ele>318.71428571428567</ele><time>2026-04-12T07:16:43.308Z</time></trkpt><trkpt lat="44.609103" lon="7.9390361"><ele>320.2857142857143</ele><time>2026-04-12T07:16:50.307Z</time></trkpt><trkpt lat="44.6090396" lon="7.9390463"><ele>321.8571428571429</ele><time>2026-04-12T07:16:56.308Z</time></trkpt><trkpt lat="44.6089777" lon="7.9390887"><ele>323.4285714285714</ele><time>2026-04-12T07:17:10.308Z</time></trkpt><trkpt lat="44.6089177" lon="7.9391301"><ele>325.0</ele><time>2026-04-12T07:17:14.308Z</time></trkpt><trkpt lat="44.6088558" lon="7.9391697"><ele>325.0</ele><time>2026-04-12T07:17:19.308Z</time></trkpt><trkpt lat="44.6089322" lon="7.9391435"><ele>325.0</ele><time>2026-04-12T07:17:26.308Z</time></trkpt><trkpt lat="44.609009" lon="7.9391"><ele>325.0</ele><time>2026-04-12T07:17:30.308Z</time></trkpt><trkpt lat="44.6090775" lon="7.9390147"><ele>325.0</ele><time>2026-04-12T07:17:33.307Z</time></trkpt><trkpt lat="44.609067" lon="7.9389119"><ele>325.0</ele><time>2026-04-12T07:17:37.307Z</time></trkpt><trkpt lat="44.6090283" lon="7.9388323"><ele>325.0</ele><time>2026-04-12T07:17:47.307Z</time></trkpt><trkpt lat="44.6089663" lon="7.9387886"><ele>325.0</ele><time>2026-04-12T07:17:54.307Z</time></trkpt><trkpt lat="44.6088978" lon="7.9387628"><ele>325.0</ele><time>2026-04-12T07:18:00.307Z</time></trkpt><trkpt lat="44.6088317" lon="7.9387348"><ele>325.0</ele><time>2026-04-12T07:18:06.307Z</time></trkpt><trkpt lat="44.6087701" lon="7.9387109"><ele>325.0</ele><time>2026-04-12T07:18:12.308Z</time></trkpt><trkpt lat="44.6087038" lon="7.9386843"><ele>325.0</ele><time>2026-04-12T07:18:18.308Z</time></trkpt><trkpt lat="44.6086394" lon="7.938653"><ele>325.0</ele><time>2026-04-12T07:18:24.307Z</time></trkpt><trkpt lat="44.6085733" lon="7.9386135"><ele>325.0</ele><time>2026-04-12T07:18:31.308Z</time></trkpt><trkpt lat="44.6085105" lon="7.9385896"><ele>326.1428571428571</ele><time>2026-04-12T07:18:37.307Z</time></trkpt><trkpt lat="44.6084453" lon="7.9385754"><ele>327.28571428571433</ele><time>2026-04-12T07:18:43.308Z</time></trkpt><trkpt lat="44.6083788" lon="7.9385632"><ele>328.42857142857144</ele><time>2026-04-12T07:18:59.308Z</time></trkpt><trkpt lat="44.6083131" lon="7.9385612"><ele>329.57142857142856</ele><time>2026-04-12T07:19:05.308Z</time></trkpt><trkpt lat="44.6082482" lon="7.9385462"><ele>330.71428571428567</ele><time>2026-04-12T07:19:11.308Z</time></trkpt><trkpt lat="44.6081765" lon="7.9385428"><ele>331.8571428571429</ele><time>2026-04-12T07:19:18.308Z</time></trkpt><trkpt lat="44.6081053" lon="7.9385192"><ele>333.0</ele><time>2026-04-12T07:19:25.307Z</time></trkpt><trkpt lat="44.6080443" lon="7.9384846"><ele>333.0</ele><time>2026-04-12T07:19:32.307Z</time></trkpt><trkpt lat="44.6079812" lon="7.9384448"><ele>333.0</ele><time>2026-04-12T07:19:42.308Z</time></trkpt><trkpt lat="44.6079175" lon="7.9384072"><ele>333.0</ele><time>2026-04-12T07:19:50.308Z</time></trkpt><trkpt lat="44.607854" lon="7.9383728"><ele>333.0</ele><time>2026-04-12T07:19:58.308Z</time></trkpt><trkpt lat="44.6077904" lon="7.9383353"><ele>333.0</ele><time>2026-04-12T07:20:07.308Z</time></trkpt><trkpt lat="44.6077277" lon="7.9383154"><ele>333.0</ele><time>2026-04-12T07:20:18.307Z</time></trkpt><trkpt lat="44.6076635" lon="7.9382919"><ele>333.0</ele><time>2026-04-12T07:20:23.307Z</time></trkpt><trkpt lat="44.6075986" lon="7.9382593"><ele>334.5714285714286</ele><time>2026-04-12T07:20:27.307Z</time></trkpt><trkpt lat="44.6075303" lon="7.9382296"><ele>336.1428571428571</ele><time>2026-04-12T07:20:31.307Z</time></trkpt><trkpt lat="44.6074707" lon="7.9381929"><ele>337.7142857142857</ele><time>2026-04-12T07:20:35.308Z</time></trkpt><trkpt lat="44.6074055" lon="7.9381455"><ele>339.28571428571433</ele><time>2026-04-12T07:20:39.308Z</time></trkpt><trkpt lat="44.6073476" lon="7.9380994"><ele>340.8571428571429</ele><time>2026-04-12T07:20:43.308Z</time></trkpt><trkpt lat="44.6072855" lon="7.9380562"><ele>342.42857142857144</ele><time>2026-04-12T07:20:47.308Z</time></trkpt><trkpt lat="44.60723" lon="7.9380127"><ele>344.0</ele><time>2026-04-12T07:20:51.307Z</time></trkpt><trkpt lat="44.607174" lon="7.9379592"><ele>344.0</ele><time>2026-04-12T07:20:55.308Z</time></trkpt><trkpt lat="44.6071148" lon="7.9379138"><ele>344.0</ele><time>2026-04-12T07:20:58.308Z</time></trkpt><trkpt lat="44.60705" lon="7.9378669"><ele>344.0</ele><time>2026-04-12T07:21:01.307Z</time></trkpt><trkpt lat="44.6069822" lon="7.9378494"><ele>344.0</ele><time>2026-04-12T07:21:07.308Z</time></trkpt><trkpt lat="44.6069113" lon="7.9378741"><ele>344.0</ele><time>2026-04-12T07:21:13.308Z</time></trkpt><trkpt lat="44.6068439" lon="7.9379444"><ele>344.0</ele><time>2026-04-12T07:21:16.308Z</time></trkpt><trkpt lat="44.6067802" lon="7.9380211"><ele>343.83333333333337</ele><time>2026-04-12T07:21:19.308Z</time></trkpt><trkpt lat="44.6067117" lon="7.9380689"><ele>343.6666666666667</ele><time>2026-04-12T07:21:21.307Z</time></trkpt><trkpt lat="44.6066279" lon="7.9380833"><ele>343.5</ele><time>2026-04-12T07:21:23.307Z</time></trkpt><trkpt lat="44.6065407" lon="7.9380766"><ele>343.3333333333333</ele><time>2026-04-12T07:21:25.308Z</time></trkpt><trkpt lat="44.6064567" lon="7.9380574"><ele>343.16666666666663</ele><time>2026-04-12T07:21:27.308Z</time></trkpt><trkpt lat="44.6063721" lon="7.9380396"><ele>343.0</ele><time>2026-04-12T07:21:29.307Z</time></trkpt><trkpt lat="44.6063047" lon="7.9380358"><ele>343.0</ele><time>2026-04-12T07:21:31.308Z</time></trkpt><trkpt lat="44.6062297" lon="7.9380368"><ele>343.0</ele><time>2026-04-12T07:21:34.308Z</time></trkpt><trkpt lat="44.6061569" lon="7.938026"><ele>343.0</ele><time>2026-04-12T07:21:37.308Z</time></trkpt><trkpt lat="44.6060847" lon="7.9380234"><ele>343.0</ele><time>2026-04-12T07:21:40.308Z</time></trkpt><trkpt lat="44.6060042" lon="7.9380127"><ele>343.0</ele><time>2026-04-12T07:21:44.307Z</time></trkpt><trkpt lat="44.6059381" lon="7.9380031"><ele>343.0</ele><time>2026-04-12T07:21:48.308Z</time></trkpt><trkpt lat="44.6058699" lon="7.9379805"><ele>343.0</ele><time>2026-04-12T07:21:57.308Z</time></trkpt><trkpt lat="44.6058074" lon="7.9379679"><ele>343.14285714285717</ele><time>2026-04-12T07:22:04.307Z</time></trkpt><trkpt lat="44.605748" lon="7.9379309"><ele>343.2857142857143</ele><time>2026-04-12T07:22:11.308Z</time></trkpt><trkpt lat="44.6056879" lon="7.9379022"><ele>343.42857142857144</ele><time>2026-04-12T07:27:12.308Z</time></trkpt><trkpt lat="44.6056146" lon="7.9378892"><ele>343.57142857142856</ele><time>2026-04-12T07:27:17.308Z</time></trkpt><trkpt lat="44.6055392" lon="7.9378868"><ele>343.7142857142857</ele><time>2026-04-12T07:27:22.308Z</time></trkpt><trkpt lat="44.6054625" lon="7.9378835"><ele>343.8571428571429</ele><time>2026-04-12T07:27:26.308Z</time></trkpt><trkpt lat="44.6053822" lon="7.9378965"><ele>344.0</ele><time>2026-04-12T07:27:30.308Z</time></trkpt><trkpt lat="44.6053148" lon="7.9378956"><ele>345.6666666666667</ele><time>2026-04-12T07:27:33.307Z</time></trkpt><trkpt lat="44.605238" lon="7.9379053"><ele>347.33333333333337</ele><time>2026-04-12T07:27:36.307Z</time></trkpt><trkpt lat="44.6051443" lon="7.9379085"><ele>349.0</ele><time>2026-04-12T07:27:39.308Z</time></trkpt><trkpt lat="44.6050765" lon="7.9379278"><ele>350.6666666666667</ele><time>2026-04-12T07:27:41.308Z</time></trkpt><trkpt lat="44.6050128" lon="7.937961"><ele>352.3333333333333</ele><time>2026-04-12T07:27:43.308Z</time></trkpt><trkpt lat="44.6049418" lon="7.9380101"><ele>354.0</ele><time>2026-04-12T07:27:46.308Z</time></trkpt><trkpt lat="44.6048833" lon="7.9380624"><ele>354.0</ele><time>2026-04-12T07:27:49.307Z</time></trkpt><trkpt lat="44.6048212" lon="7.9381211"><ele>354.0</ele><time>2026-04-12T07:27:52.308Z</time></trkpt><trkpt lat="44.6047613" lon="7.9381718"><ele>354.0</ele><time>2026-04-12T07:27:55.308Z</time></trkpt><trkpt lat="44.6047039" lon="7.9382163"><ele>354.0</ele><time>2026-04-12T07:27:58.308Z</time></trkpt><trkpt lat="44.6046331" lon="7.9382695"><ele>354.0</ele><time>2026-04-12T07:28:02.307Z</time></trkpt><trkpt lat="44.6045736" lon="7.9383042"><ele>354.0</ele><time>2026-04-12T07:28:05.307Z</time></trkpt><trkpt lat="44.6045128" lon="7.9383341"><ele>354.0</ele><time>2026-04-12T07:28:08.308Z</time></trkpt><trkpt lat="44.6044434" lon="7.9383548"><ele>353.5714285714286</ele><time>2026-04-12T07:28:11.308Z</time></trkpt><trkpt lat="44.6043789" lon="7.9383672"><ele>353.1428571428571</ele><time>2026-04-12T07:28:14.308Z</time></trkpt><trkpt lat="44.6042964" lon="7.9383771"><ele>352.7142857142857</ele><time>2026-04-12T07:28:18.308Z</time></trkpt><trkpt lat="44.6042332" lon="7.9383844"><ele>352.28571428571433</ele><time>2026-04-12T07:28:21.308Z</time></trkpt><trkpt lat="44.6041517" lon="7.9383865"><ele>351.8571428571429</ele><time>2026-04-12T07:28:25.308Z</time></trkpt><trkpt lat="44.6040794" lon="7.9383899"><ele>351.42857142857144</ele><time>2026-04-12T07:28:30.308Z</time></trkpt><trkpt lat="44.6040086" lon="7.9383919"><ele>351.0</ele><time>2026-04-12T07:28:36.307Z</time></trkpt><trkpt lat="44.6039425" lon="7.9384115"><ele>351.00000000000006</ele><time>2026-04-12T07:28:40.308Z</time></trkpt><trkpt lat="44.6038683" lon="7.9384275"><ele>351.0</ele><time>2026-04-12T07:28:45.307Z</time></trkpt><trkpt lat="44.6037971" lon="7.9384446"><ele>351.0</ele><time>2026-04-12T07:28:49.308Z</time></trkpt><trkpt lat="44.6037189" lon="7.9384604"><ele>351.0</ele><time>2026-04-12T07:28:53.308Z</time></trkpt><trkpt lat="44.603655" lon="7.9384726"><ele>351.0</ele><time>2026-04-12T07:28:56.308Z</time></trkpt><trkpt lat="44.6035848" lon="7.9384793"><ele>351.00000000000006</ele><time>2026-04-12T07:29:00.308Z</time></trkpt><trkpt lat="44.6035165" lon="7.9384914"><ele>351.0</ele><time>2026-04-12T07:29:03.308Z</time></trkpt><trkpt lat="44.6034466" lon="7.9385138"><ele>352.5714285714286</ele><time>2026-04-12T07:29:11.307Z</time></trkpt><trkpt lat="44.6033729" lon="7.9385306"><ele>354.14285714285717</ele><time>2026-04-12T07:29:18.308Z</time></trkpt><trkpt lat="44.603302" lon="7.9385527"><ele>355.7142857142857</ele><time>2026-04-12T07:29:24.308Z</time></trkpt><trkpt lat="44.6032374" lon="7.9385699"><ele>357.28571428571433</ele><time>2026-04-12T07:29:30.308Z</time></trkpt><trkpt lat="44.6031744" lon="7.9385806"><ele>358.85714285714283</ele><time>2026-04-12T07:29:37.308Z</time></trkpt><trkpt lat="44.6031067" lon="7.9385993"><ele>360.42857142857144</ele><time>2026-04-12T07:29:47.308Z</time></trkpt><trkpt lat="44.6030371" lon="7.9386185"><ele>362.0</ele><time>2026-04-12T07:29:55.308Z</time></trkpt><trkpt lat="44.6029737" lon="7.938628"><ele>362.0</ele><time>2026-04-12T07:30:05.307Z</time></trkpt><trkpt lat="44.602902" lon="7.9386264"><ele>362.0</ele><time>2026-04-12T07:30:14.307Z</time></trkpt><trkpt lat="44.602833" lon="7.9386107"><ele>362.0</ele><time>2026-04-12T07:30:22.308Z</time></trkpt><trkpt lat="44.6027699" lon="7.9386204"><ele>362.0</ele><time>2026-04-12T07:30:29.308Z</time></trkpt><trkpt lat="44.6027014" lon="7.9386113"><ele>362.0</ele><time>2026-04-12T07:30:37.308Z</time></trkpt><trkpt lat="44.602638" lon="7.938603"><ele>362.0</ele><time>2026-04-12T07:30:43.307Z</time></trkpt><trkpt lat="44.6025631" lon="7.9385888"><ele>362.0</ele><time>2026-04-12T07:32:43.307Z</time></trkpt><trkpt lat="44.6025009" lon="7.9385673"><ele>363.1666666666667</ele><time>2026-04-12T07:32:51.308Z</time></trkpt><trkpt lat="44.6024327" lon="7.9385477"><ele>364.33333333333337</ele><time>2026-04-12T07:32:58.308Z</time></trkpt><trkpt lat="44.6023643" lon="7.9385281"><ele>365.5</ele><time>2026-04-12T07:33:05.308Z</time></trkpt><trkpt lat="44.6022852" lon="7.9385014"><ele>366.6666666666667</ele><time>2026-04-12T07:33:09.308Z</time></trkpt><trkpt lat="44.6021919" lon="7.9384565"><ele>367.8333333333333</ele><time>2026-04-12T07:33:12.308Z</time></trkpt><trkpt lat="44.6021075" lon="7.9384194"><ele>369.0</ele><time>2026-04-12T07:33:14.308Z</time></trkpt><trkpt lat="44.6020082" lon="7.938372"><ele>370.2</ele><time>2026-04-12T07:33:16.308Z</time></trkpt><trkpt lat="44.6019037" lon="7.938326"><ele>371.4</ele><time>2026-04-12T07:33:18.308Z</time></trkpt><trkpt lat="44.6018029" lon="7.9382779"><ele>372.6</ele><time>2026-04-12T07:33:20.308Z</time></trkpt><trkpt lat="44.6017088" lon="7.9382407"><ele>373.8</ele><time>2026-04-12T07:33:22.308Z</time></trkpt><trkpt lat="44.6016438" lon="7.9382039"><ele>375.0</ele><time>2026-04-12T07:33:24.308Z</time></trkpt><trkpt lat="44.6015753" lon="7.9381703"><ele>375.0</ele><time>2026-04-12T07:33:27.308Z</time></trkpt><trkpt lat="44.6015114" lon="7.938131"><ele>375.0</ele><time>2026-04-12T07:33:30.307Z</time></trkpt><trkpt lat="44.601435" lon="7.9380847"><ele>375.0</ele><time>2026-04-12T07:33:34.308Z</time></trkpt><trkpt lat="44.6013747" lon="7.9380575"><ele>375.0</ele><time>2026-04-12T07:33:37.308Z</time></trkpt><trkpt lat="44.6012952" lon="7.9380215"><ele>375.0</ele><time>2026-04-12T07:33:41.308Z</time></trkpt><trkpt lat="44.6012141" lon="7.9379886"><ele>375.0</ele><time>2026-04-12T07:33:44.307Z</time></trkpt><trkpt lat="44.6011437" lon="7.9379551"><ele>373.2</ele><time>2026-04-12T07:33:46.307Z</time></trkpt><trkpt lat="44.6010556" lon="7.9379168"><ele>371.4</ele><time>2026-04-12T07:33:48.307Z</time></trkpt><trkpt lat="44.6009479" lon="7.9378962"><ele>369.6</ele><time>2026-04-12T07:33:50.308Z</time></trkpt><trkpt lat="44.6008325" lon="7.9378833"><ele>367.8</ele><time>2026-04-12T07:33:52.307Z</time></trkpt><trkpt lat="44.6007123" lon="7.9378526"><ele>366.0</ele><time>2026-04-12T07:33:54.308Z</time></trkpt><trkpt lat="44.6005932" lon="7.9378128"><ele>366.0</ele><time>2026-04-12T07:33:56.308Z</time></trkpt><trkpt lat="44.6004944" lon="7.9377653"><ele>366.0</ele><time>2026-04-12T07:33:58.307Z</time></trkpt><trkpt lat="44.6004214" lon="7.9377209"><ele>366.0</ele><time>2026-04-12T07:34:00.308Z</time></trkpt><trkpt lat="44.6003567" lon="7.9376927"><ele>366.0</ele><time>2026-04-12T07:34:02.307Z</time></trkpt><trkpt lat="44.6002813" lon="7.9376524"><ele>366.0</ele><time>2026-04-12T07:34:05.307Z</time></trkpt><trkpt lat="44.6002085" lon="7.9376228"><ele>366.0</ele><time>2026-04-12T07:34:08.308Z</time></trkpt><trkpt lat="44.6001336" lon="7.9375875"><ele>367.57142857142856</ele><time>2026-04-12T07:34:11.307Z</time></trkpt><trkpt lat="44.600061" lon="7.9375471"><ele>369.14285714285717</ele><time>2026-04-12T07:34:14.308Z</time></trkpt><trkpt lat="44.5999945" lon="7.9375111"><ele>370.71428571428567</ele><time>2026-04-12T07:34:17.308Z</time></trkpt><trkpt lat="44.5999143" lon="7.9374792"><ele>372.2857142857143</ele><time>2026-04-12T07:34:20.308Z</time></trkpt><trkpt lat="44.5998476" lon="7.9374515"><ele>373.85714285714283</ele><time>2026-04-12T07:34:22.307Z</time></trkpt><trkpt lat="44.5997751" lon="7.9374337"><ele>375.4285714285714</ele><time>2026-04-12T07:34:24.308Z</time></trkpt><trkpt lat="44.5997086" lon="7.9374238"><ele>377.0</ele><time>2026-04-12T07:34:26.307Z</time></trkpt><trkpt lat="44.5996411" lon="7.93742"><ele>376.99999999999994</ele><time>2026-04-12T07:34:28.308Z</time></trkpt><trkpt lat="44.5995686" lon="7.9374254"><ele>377.0</ele><time>2026-04-12T07:34:30.308Z</time></trkpt><trkpt lat="44.5994902" lon="7.9374201"><ele>377.0</ele><time>2026-04-12T07:34:33.307Z</time></trkpt><trkpt lat="44.5994183" lon="7.9374028"><ele>377.0</ele><time>2026-04-12T07:34:36.308Z</time></trkpt><trkpt lat="44.5993531" lon="7.9373945"><ele>377.0</ele><time>2026-04-12T07:34:39.308Z</time></trkpt><trkpt lat="44.5992882" lon="7.9373834"><ele>376.99999999999994</ele><time>2026-04-12T07:34:42.307Z</time></trkpt><trkpt lat="44.5992158" lon="7.9373711"><ele>377.0</ele><time>2026-04-12T07:34:45.308Z</time></trkpt><trkpt lat="44.599144" lon="7.9373615"><ele>377.6666666666667</ele><time>2026-04-12T07:34:48.307Z</time></trkpt><trkpt lat="44.5990606" lon="7.9373474"><ele>378.33333333333337</ele><time>2026-04-12T07:34:52.307Z</time></trkpt><trkpt lat="44.5989802" lon="7.9373387"><ele>379.0</ele><time>2026-04-12T07:34:56.308Z</time></trkpt><trkpt lat="44.5989025" lon="7.9373266"><ele>379.6666666666667</ele><time>2026-04-12T07:35:00.308Z</time></trkpt><trkpt lat="44.5988332" lon="7.937319"><ele>380.3333333333333</ele><time>2026-04-12T07:35:04.308Z</time></trkpt><trkpt lat="44.5987589" lon="7.9373136"><ele>381.0</ele><time>2026-04-12T07:35:08.308Z</time></trkpt><trkpt lat="44.5986794" lon="7.9373184"><ele>382.2857142857143</ele><time>2026-04-12T07:35:12.308Z</time></trkpt><trkpt lat="44.5986047" lon="7.9373349"><ele>383.5714285714286</ele><time>2026-04-12T07:35:16.307Z</time></trkpt><trkpt lat="44.5985374" lon="7.9373512"><ele>384.8571428571429</ele><time>2026-04-12T07:35:20.308Z</time></trkpt><trkpt lat="44.5984664" lon="7.9373631"><ele>386.1428571428571</ele><time>2026-04-12T07:35:24.307Z</time></trkpt><trkpt lat="44.5983939" lon="7.9373865"><ele>387.42857142857144</ele><time>2026-04-12T07:35:37.307Z</time></trkpt><trkpt lat="44.5983212" lon="7.9374043"><ele>388.7142857142857</ele><time>2026-04-12T07:35:43.308Z</time></trkpt><trkpt lat="44.5982497" lon="7.9374175"><ele>390.0</ele><time>2026-04-12T07:35:49.308Z</time></trkpt><trkpt lat="44.5981809" lon="7.9374264"><ele>390.0</ele><time>2026-04-12T07:35:55.308Z</time></trkpt><trkpt lat="44.598108" lon="7.9374403"><ele>390.0</ele><time>2026-04-12T07:36:01.307Z</time></trkpt><trkpt lat="44.5980385" lon="7.9374487"><ele>390.0</ele><time>2026-04-12T07:36:08.308Z</time></trkpt><trkpt lat="44.5979862" lon="7.9373916"><ele>390.0</ele><time>2026-04-12T07:37:03.307Z</time></trkpt><trkpt lat="44.5979307" lon="7.937349"><ele>390.0</ele><time>2026-04-12T07:41:20.308Z</time></trkpt><trkpt lat="44.5978776" lon="7.9372676"><ele>390.0</ele><time>2026-04-12T07:41:25.307Z</time></trkpt><trkpt lat="44.5978229" lon="7.9371915"><ele>390.0</ele><time>2026-04-12T07:41:30.308Z</time></trkpt><trkpt lat="44.5977642" lon="7.9371305"><ele>389.2857142857143</ele><time>2026-04-12T07:41:35.308Z</time></trkpt><trkpt lat="44.5977176" lon="7.9370566"><ele>388.57142857142856</ele><time>2026-04-12T07:41:40.307Z</time></trkpt><trkpt lat="44.5976715" lon="7.9369921"><ele>387.8571428571429</ele><time>2026-04-12T07:41:45.308Z</time></trkpt><trkpt lat="44.597627" lon="7.9369253"><ele>387.1428571428571</ele><time>2026-04-12T07:41:50.308Z</time></trkpt><trkpt lat="44.5975821" lon="7.9368606"><ele>386.42857142857144</ele><time>2026-04-12T07:41:55.307Z</time></trkpt><trkpt lat="44.5975338" lon="7.9367929"><ele>385.7142857142857</ele><time>2026-04-12T07:42:00.308Z</time></trkpt><trkpt lat="44.5974853" lon="7.9367204"><ele>385.0</ele><time>2026-04-12T07:42:05.308Z</time></trkpt><trkpt lat="44.5974355" lon="7.9366429"><ele>386.7142857142857</ele><time>2026-04-12T07:42:10.308Z</time></trkpt><trkpt lat="44.5973891" lon="7.9365565"><ele>388.42857142857144</ele><time>2026-04-12T07:42:15.308Z</time></trkpt><trkpt lat="44.597348" lon="7.9364876"><ele>390.1428571428571</ele><time>2026-04-12T07:42:19.308Z</time></trkpt><trkpt lat="44.5973031" lon="7.9364207"><ele>391.8571428571429</ele><time>2026-04-12T07:42:23.308Z</time></trkpt><trkpt lat="44.5972542" lon="7.9363623"><ele>393.57142857142856</ele><time>2026-04-12T07:42:27.308Z</time></trkpt><trkpt lat="44.5971911" lon="7.9363126"><ele>395.2857142857143</ele><time>2026-04-12T07:42:31.308Z</time></trkpt><trkpt lat="44.5971258" lon="7.9362594"><ele>397.0</ele><time>2026-04-12T07:42:35.308Z</time></trkpt><trkpt lat="44.5970754" lon="7.9362053"><ele>397.00000000000006</ele><time>2026-04-12T07:42:38.308Z</time></trkpt><trkpt lat="44.5970167" lon="7.9361407"><ele>397.0</ele><time>2026-04-12T07:42:41.308Z</time></trkpt><trkpt lat="44.596968" lon="7.9360846"><ele>397.0</ele><time>2026-04-12T07:42:43.308Z</time></trkpt><trkpt lat="44.5969086" lon="7.9360208"><ele>397.0</ele><time>2026-04-12T07:42:45.307Z</time></trkpt><trkpt lat="44.5968315" lon="7.9359728"><ele>397.00000000000006</ele><time>2026-04-12T07:42:47.308Z</time></trkpt><trkpt lat="44.5967255" lon="7.9359466"><ele>397.0</ele><time>2026-04-12T07:42:49.308Z</time></trkpt><trkpt lat="44.596611" lon="7.9359379"><ele>396.00000000000006</ele><time>2026-04-12T07:42:51.307Z</time></trkpt><trkpt lat="44.5965124" lon="7.9359489"><ele>395.0</ele><time>2026-04-12T07:42:53.308Z</time></trkpt><trkpt lat="44.5964383" lon="7.9359464"><ele>394.0</ele><time>2026-04-12T07:42:55.308Z</time></trkpt><trkpt lat="44.5963664" lon="7.9359566"><ele>393.0</ele><time>2026-04-12T07:42:58.308Z</time></trkpt><trkpt lat="44.5962988" lon="7.9359678"><ele>392.00000000000006</ele><time>2026-04-12T07:43:01.308Z</time></trkpt><trkpt lat="44.5962249" lon="7.9359877"><ele>391.0</ele><time>2026-04-12T07:43:05.308Z</time></trkpt><trkpt lat="44.5961478" lon="7.9360036"><ele>392.99999999999994</ele><time>2026-04-12T07:43:10.307Z</time></trkpt><trkpt lat="44.5960712" lon="7.9360185"><ele>395.0</ele><time>2026-04-12T07:43:15.307Z</time></trkpt><trkpt lat="44.5959953" lon="7.9360405"><ele>397.0</ele><time>2026-04-12T07:43:20.307Z</time></trkpt><trkpt lat="44.595924" lon="7.9360514"><ele>399.0</ele><time>2026-04-12T07:43:25.308Z</time></trkpt><trkpt lat="44.5958584" lon="7.9360601"><ele>401.0</ele><time>2026-04-12T07:43:33.307Z</time></trkpt><trkpt lat="44.5957964" lon="7.9360778"><ele>402.99999999999994</ele><time>2026-04-12T07:43:39.308Z</time></trkpt><trkpt lat="44.5957299" lon="7.9360889"><ele>405.0</ele><time>2026-04-12T07:43:45.307Z</time></trkpt><trkpt lat="44.5956659" lon="7.9361134"><ele>404.99999999999994</ele><time>2026-04-12T07:43:51.308Z</time></trkpt><trkpt lat="44.5956013" lon="7.9361344"><ele>405.0</ele><time>2026-04-12T07:43:57.308Z</time></trkpt><trkpt lat="44.5955323" lon="7.9361588"><ele>405.0</ele><time>2026-04-12T07:44:03.308Z</time></trkpt><trkpt lat="44.5954595" lon="7.9361782"><ele>405.0</ele><time>2026-04-12T07:44:10.307Z</time></trkpt><trkpt lat="44.5953898" lon="7.9361926"><ele>405.0</ele><time>2026-04-12T07:44:16.308Z</time></trkpt><trkpt lat="44.5953215" lon="7.9362051"><ele>404.99999999999994</ele><time>2026-04-12T07:44:22.308Z</time></trkpt><trkpt lat="44.5952554" lon="7.9362241"><ele>405.0</ele><time>2026-04-12T07:44:28.307Z</time></trkpt><trkpt lat="44.5951883" lon="7.9362174"><ele>406.57142857142856</ele><time>2026-04-12T07:44:34.307Z</time></trkpt><trkpt lat="44.595134" lon="7.9361699"><ele>408.1428571428571</ele><time>2026-04-12T07:44:40.307Z</time></trkpt><trkpt lat="44.5950711" lon="7.9361377"><ele>409.71428571428567</ele><time>2026-04-12T07:44:46.308Z</time></trkpt><trkpt lat="44.5950158" lon="7.9360886"><ele>411.2857142857143</ele><time>2026-04-12T07:44:53.308Z</time></trkpt><trkpt lat="44.5949474" lon="7.9360836"><ele>412.8571428571429</ele><time>2026-04-12T07:47:30.308Z</time></trkpt><trkpt lat="44.5949345" lon="7.9361791"><ele>414.4285714285714</ele><time>2026-04-12T07:47:34.308Z</time></trkpt><trkpt lat="44.5948821" lon="7.9362511"><ele>416.0</ele><time>2026-04-12T07:47:38.307Z</time></trkpt><trkpt lat="44.5948103" lon="7.9362687"><ele>415.99999999999994</ele><time>2026-04-12T07:47:42.308Z</time></trkpt><trkpt lat="44.5947446" lon="7.9362439"><ele>416.0</ele><time>2026-04-12T07:47:45.308Z</time></trkpt><trkpt lat="44.5946697" lon="7.9361626"><ele>416.0</ele><time>2026-04-12T07:47:48.308Z</time></trkpt><trkpt lat="44.5945999" lon="7.93609"><ele>416.0</ele><time>2026-04-12T07:47:51.308Z</time></trkpt><trkpt lat="44.594547" lon="7.9360395"><ele>415.99999999999994</ele><time>2026-04-12T07:47:53.307Z</time></trkpt><trkpt lat="44.5944866" lon="7.9359947"><ele>416.0</ele><time>2026-04-12T07:47:55.307Z</time></trkpt><trkpt lat="44.5944178" lon="7.9359597"><ele>414.2857142857143</ele><time>2026-04-12T07:47:57.308Z</time></trkpt><trkpt lat="44.5943482" lon="7.9359263"><ele>412.5714285714286</ele><time>2026-04-12T07:47:59.308Z</time></trkpt><trkpt lat="44.5942778" lon="7.9359107"><ele>410.8571428571429</ele><time>2026-04-12T07:48:01.308Z</time></trkpt><trkpt lat="44.5942089" lon="7.9359042"><ele>409.1428571428571</ele><time>2026-04-12T07:48:03.307Z</time></trkpt><trkpt lat="44.5941364" lon="7.9358853"><ele>407.42857142857144</ele><time>2026-04-12T07:48:05.307Z</time></trkpt><trkpt lat="44.5940696" lon="7.9358632"><ele>405.7142857142857</ele><time>2026-04-12T07:48:07.308Z</time></trkpt><trkpt lat="44.5940068" lon="7.9358337"><ele>404.0</ele><time>2026-04-12T07:48:09.308Z</time></trkpt><trkpt lat="44.5939472" lon="7.93579"><ele>403.99999999999994</ele><time>2026-04-12T07:48:11.308Z</time></trkpt><trkpt lat="44.5938881" lon="7.9357451"><ele>404.0</ele><time>2026-04-12T07:48:13.308Z</time></trkpt><trkpt lat="44.593831" lon="7.9356923"><ele>404.0</ele><time>2026-04-12T07:48:15.308Z</time></trkpt><trkpt lat="44.593751" lon="7.9356231"><ele>404.0</ele><time>2026-04-12T07:48:18.307Z</time></trkpt><trkpt lat="44.5936963" lon="7.9355729"><ele>403.99999999999994</ele><time>2026-04-12T07:48:20.308Z</time></trkpt><trkpt lat="44.593618" lon="7.9355039"><ele>404.0</ele><time>2026-04-12T07:48:23.308Z</time></trkpt><trkpt lat="44.5935583" lon="7.9354587"><ele>401.3333333333333</ele><time>2026-04-12T07:48:25.307Z</time></trkpt><trkpt lat="44.5934999" lon="7.9354141"><ele>398.66666666666663</ele><time>2026-04-12T07:48:27.307Z</time></trkpt><trkpt lat="44.5934152" lon="7.9353721"><ele>396.0</ele><time>2026-04-12T07:48:30.308Z</time></trkpt><trkpt lat="44.5933341" lon="7.9353475"><ele>393.33333333333337</ele><time>2026-04-12T07:48:33.307Z</time></trkpt><trkpt lat="44.5932566" lon="7.9353263"><ele>390.6666666666667</ele><time>2026-04-12T07:48:36.308Z</time></trkpt><trkpt lat="44.5931886" lon="7.9352904"><ele>388.0</ele><time>2026-04-12T07:48:40.307Z</time></trkpt><trkpt lat="44.5931236" lon="7.9353025"><ele>388.0</ele><time>2026-04-12T07:49:01.308Z</time></trkpt><trkpt lat="44.5930566" lon="7.9352987"><ele>388.0</ele><time>2026-04-12T07:49:11.307Z</time></trkpt><trkpt lat="44.5929939" lon="7.9352827"><ele>388.0</ele><time>2026-04-12T07:49:18.308Z</time></trkpt><trkpt lat="44.5929237" lon="7.9352855"><ele>388.0</ele><time>2026-04-12T07:49:28.307Z</time></trkpt><trkpt lat="44.5928805" lon="7.9352153"><ele>388.0</ele><time>2026-04-12T07:49:37.308Z</time></trkpt><trkpt lat="44.5928752" lon="7.9351235"><ele>388.0</ele><time>2026-04-12T07:49:51.308Z</time></trkpt><trkpt lat="44.5928719" lon="7.9350351"><ele>388.0</ele><time>2026-04-12T07:50:01.307Z</time></trkpt><trkpt lat="44.5928611" lon="7.9349454"><ele>389.4285714285714</ele><time>2026-04-12T07:50:10.308Z</time></trkpt><trkpt lat="44.5928579" lon="7.9348569"><ele>390.8571428571429</ele><time>2026-04-12T07:50:18.308Z</time></trkpt><trkpt lat="44.5928576" lon="7.9347619"><ele>392.2857142857143</ele><time>2026-04-12T07:50:26.307Z</time></trkpt><trkpt lat="44.5928532" lon="7.9346613"><ele>393.71428571428567</ele><time>2026-04-12T07:50:35.307Z</time></trkpt><trkpt lat="44.5928525" lon="7.9345604"><ele>395.1428571428571</ele><time>2026-04-12T07:50:42.307Z</time></trkpt><trkpt lat="44.59286" lon="7.9344682"><ele>396.57142857142856</ele><time>2026-04-12T07:50:48.308Z</time></trkpt><trkpt lat="44.5928807" lon="7.9343847"><ele>398.0</ele><time>2026-04-12T07:50:54.308Z</time></trkpt><trkpt lat="44.5929017" lon="7.9342949"><ele>399.99999999999994</ele><time>2026-04-12T07:51:01.307Z</time></trkpt><trkpt lat="44.5929126" lon="7.9341955"><ele>402.0</ele><time>2026-04-12T07:51:08.307Z</time></trkpt><trkpt lat="44.5928943" lon="7.9341106"><ele>404.0</ele><time>2026-04-12T07:51:21.307Z</time></trkpt><trkpt lat="44.5928822" lon="7.9340203"><ele>406.0</ele><time>2026-04-12T07:51:33.308Z</time></trkpt><trkpt lat="44.5928401" lon="7.933922"><ele>408.0</ele><time>2026-04-12T07:52:18.307Z</time></trkpt><trkpt lat="44.5928248" lon="7.9338259"><ele>409.99999999999994</ele><time>2026-04-12T07:52:21.308Z</time></trkpt><trkpt lat="44.5928061" lon="7.9336998"><ele>412.0</ele><time>2026-04-12T07:52:24.308Z</time></trkpt><trkpt lat="44.5927841" lon="7.9335909"><ele>408.85714285714283</ele><time>2026-04-12T07:52:26.307Z</time></trkpt><trkpt lat="44.5927631" lon="7.9334831"><ele>405.7142857142857</ele><time>2026-04-12T07:52:28.308Z</time></trkpt><trkpt lat="44.5927413" lon="7.9333866"><ele>402.57142857142856</ele><time>2026-04-12T07:52:30.308Z</time></trkpt><trkpt lat="44.5927053" lon="7.9332888"><ele>399.42857142857144</ele><time>2026-04-12T07:52:33.307Z</time></trkpt><trkpt lat="44.5926776" lon="7.9332011"><ele>396.2857142857143</ele><time>2026-04-12T07:52:36.307Z</time></trkpt><trkpt lat="44.592656" lon="7.9331137"><ele>393.1428571428571</ele><time>2026-04-12T07:52:39.308Z</time></trkpt><trkpt lat="44.5926368" lon="7.933012"><ele>390.0</ele><time>2026-04-12T07:52:43.308Z</time></trkpt><trkpt lat="44.5926254" lon="7.932914"><ele>390.0</ele><time>2026-04-12T07:52:47.308Z</time></trkpt><trkpt lat="44.5926478" lon="7.9328108"><ele>390.0</ele><time>2026-04-12T07:52:52.308Z</time></trkpt><trkpt lat="44.5926647" lon="7.9327183"><ele>390.0</ele><time>2026-04-12T07:52:59.308Z</time></trkpt><trkpt lat="44.5926517" lon="7.9326203"><ele>390.0</ele><time>2026-04-12T07:53:05.308Z</time></trkpt><trkpt lat="44.5926192" lon="7.9325333"><ele>390.0</ele><time>2026-04-12T07:53:11.307Z</time></trkpt><trkpt lat="44.5925856" lon="7.9324546"><ele>390.0</ele><time>2026-04-12T07:53:16.307Z</time></trkpt><trkpt lat="44.5925549" lon="7.9323721"><ele>390.0</ele><time>2026-04-12T07:53:21.307Z</time></trkpt><trkpt lat="44.592525" lon="7.9322818"><ele>391.2857142857143</ele><time>2026-04-12T07:53:26.307Z</time></trkpt><trkpt lat="44.5924926" lon="7.9321921"><ele>392.57142857142856</ele><time>2026-04-12T07:53:31.308Z</time></trkpt><trkpt lat="44.5924735" lon="7.9320898"><ele>393.8571428571429</ele><time>2026-04-12T07:53:37.308Z</time></trkpt><trkpt lat="44.5924512" lon="7.931997"><ele>395.1428571428571</ele><time>2026-04-12T07:53:43.308Z</time></trkpt><trkpt lat="44.5924295" lon="7.9319071"><ele>396.42857142857144</ele><time>2026-04-12T07:53:48.308Z</time></trkpt><trkpt lat="44.5923977" lon="7.9318303"><ele>397.7142857142857</ele><time>2026-04-12T07:53:52.307Z</time></trkpt><trkpt lat="44.5923628" lon="7.9317546"><ele>399.0</ele><time>2026-04-12T07:53:57.308Z</time></trkpt><trkpt lat="44.5923216" lon="7.9316744"><ele>398.0</ele><time>2026-04-12T07:54:02.308Z</time></trkpt><trkpt lat="44.5922804" lon="7.9315945"><ele>397.0</ele><time>2026-04-12T07:54:07.307Z</time></trkpt><trkpt lat="44.592219" lon="7.9315404"><ele>396.0</ele><time>2026-04-12T07:54:12.308Z</time></trkpt><trkpt lat="44.5921543" lon="7.9314841"><ele>395.0</ele><time>2026-04-12T07:54:17.308Z</time></trkpt><trkpt lat="44.592086" lon="7.9314297"><ele>394.0</ele><time>2026-04-12T07:54:21.308Z</time></trkpt><trkpt lat="44.5920253" lon="7.9313734"><ele>393.0</ele><time>2026-04-12T07:54:25.308Z</time></trkpt><trkpt lat="44.5919635" lon="7.9313197"><ele>392.0</ele><time>2026-04-12T07:54:30.308Z</time></trkpt><trkpt lat="44.5918907" lon="7.9312812"><ele>392.0</ele><time>2026-04-12T07:54:34.308Z</time></trkpt><trkpt lat="44.5918219" lon="7.9312381"><ele>392.0</ele><time>2026-04-12T07:54:37.307Z</time></trkpt><trkpt lat="44.5917443" lon="7.9312071"><ele>392.0</ele><time>2026-04-12T07:54:40.307Z</time></trkpt><trkpt lat="44.5916791" lon="7.9311505"><ele>392.0</ele><time>2026-04-12T07:54:43.307Z</time></trkpt><trkpt lat="44.5916208" lon="7.9310963"><ele>392.0</ele><time>2026-04-12T07:54:46.308Z</time></trkpt><trkpt lat="44.5915659" lon="7.9310463"><ele>392.0</ele><time>2026-04-12T07:54:49.308Z</time></trkpt><trkpt lat="44.5915079" lon="7.9309984"><ele>392.0</ele><time>2026-04-12T07:54:52.308Z</time></trkpt><trkpt lat="44.5914504" lon="7.9309457"><ele>392.0</ele><time>2026-04-12T07:54:55.308Z</time></trkpt><trkpt lat="44.5913877" lon="7.9308968"><ele>392.0</ele><time>2026-04-12T07:54:59.308Z</time></trkpt><trkpt lat="44.5913204" lon="7.9308644"><ele>392.0</ele><time>2026-04-12T07:55:03.308Z</time></trkpt><trkpt lat="44.5912607" lon="7.9308243"><ele>392.0</ele><time>2026-04-12T07:55:07.308Z</time></trkpt><trkpt lat="44.5912006" lon="7.9307726"><ele>392.0</ele><time>2026-04-12T07:55:12.307Z</time></trkpt><trkpt lat="44.5911355" lon="7.9307351"><ele>392.0</ele><time>2026-04-12T07:55:17.307Z</time></trkpt><trkpt lat="44.5910647" lon="7.9307027"><ele>392.0</ele><time>2026-04-12T07:55:22.308Z</time></trkpt><trkpt lat="44.5909992" lon="7.9306807"><ele>393.7142857142857</ele><time>2026-04-12T07:55:27.307Z</time></trkpt><trkpt lat="44.5909296" lon="7.9306562"><ele>395.42857142857144</ele><time>2026-04-12T07:55:32.308Z</time></trkpt><trkpt lat="44.5908595" lon="7.9306314"><ele>397.1428571428571</ele><time>2026-04-12T07:55:37.308Z</time></trkpt><trkpt lat="44.5907883" lon="7.9306149"><ele>398.8571428571429</ele><time>2026-04-12T07:55:42.308Z</time></trkpt><trkpt lat="44.5907165" lon="7.9305836"><ele>400.57142857142856</ele><time>2026-04-12T07:55:47.308Z</time></trkpt><trkpt lat="44.5906408" lon="7.9305702"><ele>402.2857142857143</ele><time>2026-04-12T07:55:53.307Z</time></trkpt><trkpt lat="44.5905759" lon="7.930534"><ele>404.0</ele><time>2026-04-12T07:55:59.307Z</time></trkpt><trkpt lat="44.5905081" lon="7.9305061"><ele>404.0</ele><time>2026-04-12T07:56:05.308Z</time></trkpt><trkpt lat="44.5904351" lon="7.9304899"><ele>404.0</ele><time>2026-04-12T07:56:11.308Z</time></trkpt><trkpt lat="44.5903721" lon="7.9304715"><ele>404.0</ele><time>2026-04-12T07:56:16.308Z</time></trkpt><trkpt lat="44.5903049" lon="7.9304493"><ele>404.0</ele><time>2026-04-12T07:56:30.308Z</time></trkpt><trkpt lat="44.5902361" lon="7.9304414"><ele>404.0</ele><time>2026-04-12T07:56:38.308Z</time></trkpt><trkpt lat="44.5901704" lon="7.9304297"><ele>404.0</ele><time>2026-04-12T07:56:45.308Z</time></trkpt><trkpt lat="44.5901054" lon="7.9304128"><ele>404.0</ele><time>2026-04-12T07:56:52.307Z</time></trkpt><trkpt lat="44.5900442" lon="7.9303793"><ele>404.57142857142856</ele><time>2026-04-12T07:56:59.307Z</time></trkpt><trkpt lat="44.5899823" lon="7.9303533"><ele>405.1428571428571</ele><time>2026-04-12T07:57:05.307Z</time></trkpt><trkpt lat="44.5899235" lon="7.9303186"><ele>405.7142857142857</ele><time>2026-04-12T07:57:11.308Z</time></trkpt><trkpt lat="44.5898575" lon="7.9302906"><ele>406.2857142857143</ele><time>2026-04-12T07:57:17.308Z</time></trkpt><trkpt lat="44.5897858" lon="7.9302655"><ele>406.8571428571429</ele><time>2026-04-12T07:57:23.307Z</time></trkpt><trkpt lat="44.5897215" lon="7.9302408"><ele>407.42857142857144</ele><time>2026-04-12T07:57:28.308Z</time></trkpt><trkpt lat="44.5896516" lon="7.9302069"><ele>408.0</ele><time>2026-04-12T07:57:34.308Z</time></trkpt><trkpt lat="44.5895931" lon="7.9301535"><ele>408.0</ele><time>2026-04-12T07:57:41.308Z</time></trkpt><trkpt lat="44.5895372" lon="7.9300959"><ele>408.0</ele><time>2026-04-12T07:57:50.308Z</time></trkpt><trkpt lat="44.5894904" lon="7.930022"><ele>408.0</ele><time>2026-04-12T07:57:58.308Z</time></trkpt><trkpt lat="44.5894412" lon="7.9299509"><ele>408.0</ele><time>2026-04-12T07:58:05.308Z</time></trkpt><trkpt lat="44.589403" lon="7.92987"><ele>408.0</ele><time>2026-04-12T07:58:12.308Z</time></trkpt><trkpt lat="44.5893412" lon="7.9298237"><ele>408.0</ele><time>2026-04-12T07:58:20.308Z</time></trkpt><trkpt lat="44.5892976" lon="7.9297583"><ele>408.0</ele><time>2026-04-12T07:58:27.308Z</time></trkpt><trkpt lat="44.5892602" lon="7.9296734"><ele>409.42857142857144</ele><time>2026-04-12T07:58:35.307Z</time></trkpt><trkpt lat="44.5892246" lon="7.9295937"><ele>410.8571428571429</ele><time>2026-04-12T07:58:42.307Z</time></trkpt><trkpt lat="44.5892046" lon="7.9295019"><ele>412.2857142857143</ele><time>2026-04-12T07:58:49.308Z</time></trkpt><trkpt lat="44.5891877" lon="7.9294072"><ele>413.7142857142857</ele><time>2026-04-12T07:58:56.308Z</time></trkpt><trkpt lat="44.5891655" lon="7.9293179"><ele>415.1428571428571</ele><time>2026-04-12T07:59:03.308Z</time></trkpt><trkpt lat="44.589125" lon="7.9292371"><ele>416.57142857142856</ele><time>2026-04-12T07:59:10.308Z</time></trkpt><trkpt lat="44.5890662" lon="7.9291899"><ele>418.0</ele><time>2026-04-12T07:59:16.308Z</time></trkpt><trkpt lat="44.5890029" lon="7.929166"><ele>420.42857142857144</ele><time>2026-04-12T07:59:23.307Z</time></trkpt><trkpt lat="44.5889415" lon="7.9291353"><ele>422.85714285714283</ele><time>2026-04-12T07:59:31.307Z</time></trkpt><trkpt lat="44.5888835" lon="7.9290901"><ele>425.28571428571433</ele><time>2026-04-12T07:59:38.307Z</time></trkpt><trkpt lat="44.5888238" lon="7.9290535"><ele>427.7142857142857</ele><time>2026-04-12T07:59:46.308Z</time></trkpt><trkpt lat="44.5887569" lon="7.9290387"><ele>430.14285714285717</ele><time>2026-04-12T07:59:54.308Z</time></trkpt><trkpt lat="44.5886827" lon="7.929048"><ele>432.5714285714286</ele><time>2026-04-12T08:00:01.308Z</time></trkpt><trkpt lat="44.5886129" lon="7.9290465"><ele>435.0</ele><time>2026-04-12T08:00:11.308Z</time></trkpt><trkpt lat="44.588552" lon="7.9290724"><ele>436.00000000000006</ele><time>2026-04-12T08:00:18.308Z</time></trkpt><trkpt lat="44.5884858" lon="7.9290953"><ele>437.0</ele><time>2026-04-12T08:00:26.308Z</time></trkpt><trkpt lat="44.5884185" lon="7.9291262"><ele>438.0</ele><time>2026-04-12T08:00:33.308Z</time></trkpt><trkpt lat="44.5883517" lon="7.9291542"><ele>439.0</ele><time>2026-04-12T08:00:40.307Z</time></trkpt><trkpt lat="44.5882906" lon="7.9291813"><ele>440.0</ele><time>2026-04-12T08:00:47.308Z</time></trkpt><trkpt lat="44.5882187" lon="7.9292064"><ele>441.00000000000006</ele><time>2026-04-12T08:00:54.307Z</time></trkpt><trkpt lat="44.5881564" lon="7.9292357"><ele>442.0</ele><time>2026-04-12T08:01:00.308Z</time></trkpt><trkpt lat="44.5880951" lon="7.9292561"><ele>442.42857142857144</ele><time>2026-04-12T08:01:06.308Z</time></trkpt><trkpt lat="44.5880284" lon="7.9292697"><ele>442.8571428571429</ele><time>2026-04-12T08:01:13.308Z</time></trkpt><trkpt lat="44.5879618" lon="7.9292669"><ele>443.28571428571433</ele><time>2026-04-12T08:01:20.308Z</time></trkpt><trkpt lat="44.5878934" lon="7.9292696"><ele>443.7142857142857</ele><time>2026-04-12T08:01:28.307Z</time></trkpt><trkpt lat="44.5878293" lon="7.9292547"><ele>444.1428571428571</ele><time>2026-04-12T08:01:35.308Z</time></trkpt><trkpt lat="44.5877641" lon="7.9292338"><ele>444.5714285714286</ele><time>2026-04-12T08:01:43.308Z</time></trkpt><trkpt lat="44.5877244" lon="7.9291612"><ele>445.0</ele><time>2026-04-12T08:01:49.307Z</time></trkpt><trkpt lat="44.5877419" lon="7.9290641"><ele>445.0</ele><time>2026-04-12T08:02:01.307Z</time></trkpt><trkpt lat="44.587791" lon="7.9290083"><ele>445.0</ele><time>2026-04-12T08:02:13.308Z</time></trkpt><trkpt lat="44.5878406" lon="7.9289538"><ele>445.0</ele><time>2026-04-12T08:02:23.308Z</time></trkpt><trkpt lat="44.5878977" lon="7.9289112"><ele>445.0</ele><time>2026-04-12T08:02:38.307Z</time></trkpt><trkpt lat="44.5879529" lon="7.928859"><ele>445.0</ele><time>2026-04-12T08:02:46.308Z</time></trkpt><trkpt lat="44.5879992" lon="7.9287902"><ele>445.0</ele><time>2026-04-12T08:02:55.308Z</time></trkpt><trkpt lat="44.5880521" lon="7.9287397"><ele>445.0</ele><time>2026-04-12T08:03:02.307Z</time></trkpt><trkpt lat="44.5880992" lon="7.9286735"><ele>444.5714285714286</ele><time>2026-04-12T08:03:11.308Z</time></trkpt><trkpt lat="44.5881436" lon="7.928606"><ele>444.1428571428571</ele><time>2026-04-12T08:03:22.308Z</time></trkpt><trkpt lat="44.5881994" lon="7.9285586"><ele>443.7142857142857</ele><time>2026-04-12T08:04:51.308Z</time></trkpt><trkpt lat="44.5882199" lon="7.9284646"><ele>443.28571428571433</ele><time>2026-04-12T08:04:58.308Z</time></trkpt><trkpt lat="44.5882467" lon="7.9283767"><ele>442.8571428571429</ele><time>2026-04-12T08:05:05.307Z</time></trkpt><trkpt lat="44.5882885" lon="7.9282702"><ele>442.42857142857144</ele><time>2026-04-12T08:05:13.307Z</time></trkpt><trkpt lat="44.5883084" lon="7.9281768"><ele>442.0</ele><time>2026-04-12T08:05:20.308Z</time></trkpt><trkpt lat="44.5883315" lon="7.9280934"><ele>444.8571428571429</ele><time>2026-04-12T08:05:27.308Z</time></trkpt><trkpt lat="44.5883577" lon="7.9280102"><ele>447.7142857142857</ele><time>2026-04-12T08:05:35.307Z</time></trkpt><trkpt lat="44.5883986" lon="7.9279196"><ele>450.57142857142856</ele><time>2026-04-12T08:05:42.308Z</time></trkpt><trkpt lat="44.5884426" lon="7.9278388"><ele>453.42857142857144</ele><time>2026-04-12T08:05:48.307Z</time></trkpt><trkpt lat="44.5884897" lon="7.9277678"><ele>456.2857142857143</ele><time>2026-04-12T08:05:55.308Z</time></trkpt><trkpt lat="44.5885357" lon="7.9276982"><ele>459.14285714285717</ele><time>2026-04-12T08:06:01.308Z</time></trkpt><trkpt lat="44.5885854" lon="7.9276366"><ele>462.0</ele><time>2026-04-12T08:06:06.308Z</time></trkpt><trkpt lat="44.5886424" lon="7.9275984"><ele>463.0</ele><time>2026-04-12T08:06:11.308Z</time></trkpt><trkpt lat="44.5887059" lon="7.927547"><ele>464.0</ele><time>2026-04-12T08:06:18.307Z</time></trkpt><trkpt lat="44.5887552" lon="7.9274867"><ele>465.0</ele><time>2026-04-12T08:06:24.307Z</time></trkpt><trkpt lat="44.5887143" lon="7.927416"><ele>466.0</ele><time>2026-04-12T08:06:34.308Z</time></trkpt><trkpt lat="44.5886475" lon="7.9274393"><ele>467.0</ele><time>2026-04-12T08:06:40.308Z</time></trkpt><trkpt lat="44.5885821" lon="7.9274699"><ele>468.0</ele><time>2026-04-12T08:06:46.307Z</time></trkpt><trkpt lat="44.5885212" lon="7.927508"><ele>469.0</ele><time>2026-04-12T08:06:52.308Z</time></trkpt><trkpt lat="44.5884566" lon="7.9275392"><ele>468.0</ele><time>2026-04-12T08:06:58.308Z</time></trkpt><trkpt lat="44.5884036" lon="7.9275966"><ele>467.0</ele><time>2026-04-12T08:07:05.308Z</time></trkpt><trkpt lat="44.5883761" lon="7.9276959"><ele>466.0</ele><time>2026-04-12T08:07:11.308Z</time></trkpt><trkpt lat="44.5883394" lon="7.9277742"><ele>465.0</ele><time>2026-04-12T08:07:17.307Z</time></trkpt><trkpt lat="44.5883133" lon="7.9278651"><ele>464.0</ele><time>2026-04-12T08:07:24.308Z</time></trkpt><trkpt lat="44.5882627" lon="7.9279229"><ele>463.0</ele><time>2026-04-12T08:07:37.308Z</time></trkpt><trkpt lat="44.5883183" lon="7.9279743"><ele>462.0</ele><time>2026-04-12T08:08:07.308Z</time></trkpt><trkpt lat="44.5883561" lon="7.9279"><ele>462.0</ele><time>2026-04-12T08:09:34.308Z</time></trkpt><trkpt lat="44.5883793" lon="7.9278124"><ele>462.0</ele><time>2026-04-12T08:09:42.308Z</time></trkpt><trkpt lat="44.5883867" lon="7.9277131"><ele>462.0</ele><time>2026-04-12T08:10:02.307Z</time></trkpt><trkpt lat="44.5884049" lon="7.9276272"><ele>462.0</ele><time>2026-04-12T08:10:11.308Z</time></trkpt><trkpt lat="44.5883747" lon="7.9275439"><ele>462.0</ele><time>2026-04-12T08:10:23.308Z</time></trkpt><trkpt lat="44.5883046" lon="7.927538"><ele>462.0</ele><time>2026-04-12T08:10:33.308Z</time></trkpt><trkpt lat="44.5882353" lon="7.9275496"><ele>462.0</ele><time>2026-04-12T08:10:40.307Z</time></trkpt><trkpt lat="44.5881691" lon="7.9275544"><ele>462.0</ele><time>2026-04-12T08:10:47.308Z</time></trkpt><trkpt lat="44.5881002" lon="7.9275575"><ele>462.0</ele><time>2026-04-12T08:10:54.308Z</time></trkpt><trkpt lat="44.588032" lon="7.9275741"><ele>462.0</ele><time>2026-04-12T08:11:00.308Z</time></trkpt><trkpt lat="44.5879635" lon="7.9275885"><ele>462.0</ele><time>2026-04-12T08:11:06.308Z</time></trkpt><trkpt lat="44.5879" lon="7.9276177"><ele>462.0</ele><time>2026-04-12T08:11:14.308Z</time></trkpt><trkpt lat="44.5879539" lon="7.9275678"><ele>462.0</ele><time>2026-04-12T08:12:48.307Z</time></trkpt><trkpt lat="44.5880266" lon="7.9275936"><ele>462.0</ele><time>2026-04-12T08:14:10.307Z</time></trkpt><trkpt lat="44.5881104" lon="7.9275677"><ele>462.0</ele><time>2026-04-12T08:14:14.307Z</time></trkpt><trkpt lat="44.5882035" lon="7.9275469"><ele>462.0</ele><time>2026-04-12T08:14:19.308Z</time></trkpt><trkpt lat="44.5882793" lon="7.9275685"><ele>462.0</ele><time>2026-04-12T08:14:21.307Z</time></trkpt><trkpt lat="44.5883765" lon="7.9275847"><ele>462.0</ele><time>2026-04-12T08:14:24.307Z</time></trkpt><trkpt lat="44.5884524" lon="7.9276309"><ele>462.0</ele><time>2026-04-12T08:14:27.308Z</time></trkpt><trkpt lat="44.5885152" lon="7.9276233"><ele>462.0</ele><time>2026-04-12T08:14:30.308Z</time></trkpt><trkpt lat="44.5885742" lon="7.9275865"><ele>463.0</ele><time>2026-04-12T08:14:32.308Z</time></trkpt><trkpt lat="44.5886313" lon="7.9275453"><ele>464.0</ele><time>2026-04-12T08:14:34.308Z</time></trkpt><trkpt lat="44.5886876" lon="7.9274962"><ele>465.0</ele><time>2026-04-12T08:14:36.307Z</time></trkpt><trkpt lat="44.5887675" lon="7.9274538"><ele>466.0</ele><time>2026-04-12T08:14:39.308Z</time></trkpt><trkpt lat="44.5888395" lon="7.9274362"><ele>467.0</ele><time>2026-04-12T08:14:42.308Z</time></trkpt><trkpt lat="44.5889207" lon="7.927451"><ele>468.0</ele><time>2026-04-12T08:14:47.308Z</time></trkpt><trkpt lat="44.5889845" lon="7.9274647"><ele>469.0</ele><time>2026-04-12T08:14:50.307Z</time></trkpt><trkpt lat="44.5890649" lon="7.9274951"><ele>469.00000000000006</ele><time>2026-04-12T08:14:53.308Z</time></trkpt><trkpt lat="44.5891471" lon="7.9275293"><ele>469.0</ele><time>2026-04-12T08:14:56.307Z</time></trkpt><trkpt lat="44.589218" lon="7.9275709"><ele>469.0</ele><time>2026-04-12T08:14:59.308Z</time></trkpt><trkpt lat="44.5892978" lon="7.9276057"><ele>469.0</ele><time>2026-04-12T08:15:02.308Z</time></trkpt><trkpt lat="44.5893852" lon="7.9276491"><ele>469.00000000000006</ele><time>2026-04-12T08:15:05.308Z</time></trkpt><trkpt lat="44.5894778" lon="7.927692"><ele>469.0</ele><time>2026-04-12T08:15:08.308Z</time></trkpt><trkpt lat="44.5895467" lon="7.9277126"><ele>468.1428571428571</ele><time>2026-04-12T08:15:10.308Z</time></trkpt><trkpt lat="44.5896205" lon="7.927736"><ele>467.2857142857143</ele><time>2026-04-12T08:15:12.308Z</time></trkpt><trkpt lat="44.5896939" lon="7.9277634"><ele>466.42857142857144</ele><time>2026-04-12T08:15:14.308Z</time></trkpt><trkpt lat="44.5897531" lon="7.9278119"><ele>465.57142857142856</ele><time>2026-04-12T08:15:16.308Z</time></trkpt><trkpt lat="44.5898067" lon="7.9278596"><ele>464.71428571428567</ele><time>2026-04-12T08:15:18.308Z</time></trkpt><trkpt lat="44.5898822" lon="7.9279113"><ele>463.85714285714283</ele><time>2026-04-12T08:15:21.308Z</time></trkpt><trkpt lat="44.5899422" lon="7.9279638"><ele>463.0</ele><time>2026-04-12T08:15:23.308Z</time></trkpt><trkpt lat="44.5900052" lon="7.9280163"><ele>463.0</ele><time>2026-04-12T08:15:25.308Z</time></trkpt><trkpt lat="44.5900661" lon="7.9280687"><ele>462.99999999999994</ele><time>2026-04-12T08:15:27.308Z</time></trkpt><trkpt lat="44.5901247" lon="7.9281232"><ele>463.0</ele><time>2026-04-12T08:15:29.308Z</time></trkpt><trkpt lat="44.590185" lon="7.9281734"><ele>463.0</ele><time>2026-04-12T08:15:32.308Z</time></trkpt><trkpt lat="44.5902487" lon="7.9282184"><ele>462.99999999999994</ele><time>2026-04-12T08:15:38.308Z</time></trkpt><trkpt lat="44.5903182" lon="7.9282437"><ele>463.0</ele><time>2026-04-12T08:15:41.308Z</time></trkpt><trkpt lat="44.5903904" lon="7.9282655"><ele>463.0</ele><time>2026-04-12T08:15:44.308Z</time></trkpt><trkpt lat="44.5904534" lon="7.9282808"><ele>463.1428571428571</ele><time>2026-04-12T08:15:48.308Z</time></trkpt><trkpt lat="44.5905312" lon="7.9282978"><ele>463.2857142857142</ele><time>2026-04-12T08:15:56.308Z</time></trkpt><trkpt lat="44.5906099" lon="7.9282928"><ele>463.42857142857144</ele><time>2026-04-12T08:15:59.308Z</time></trkpt><trkpt lat="44.5906564" lon="7.9282209"><ele>463.57142857142856</ele><time>2026-04-12T08:16:02.308Z</time></trkpt><trkpt lat="44.5906747" lon="7.9281298"><ele>463.7142857142857</ele><time>2026-04-12T08:16:05.307Z</time></trkpt><trkpt lat="44.590688" lon="7.9280362"><ele>463.8571428571429</ele><time>2026-04-12T08:16:08.307Z</time></trkpt><trkpt lat="44.5907241" lon="7.9279481"><ele>464.00000000000006</ele><time>2026-04-12T08:16:13.308Z</time></trkpt><trkpt lat="44.5906761" lon="7.928019"><ele>464.00000000000006</ele><time>2026-04-12T08:27:20.307Z</time></trkpt><trkpt lat="44.5906288" lon="7.9280919"><ele>464.0</ele><time>2026-04-12T08:27:25.307Z</time></trkpt><trkpt lat="44.5905909" lon="7.928182"><ele>464.00000000000006</ele><time>2026-04-12T08:27:31.308Z</time></trkpt><trkpt lat="44.5905252" lon="7.928193"><ele>464.00000000000006</ele><time>2026-04-12T08:27:36.308Z</time></trkpt><trkpt lat="44.5904568" lon="7.9281727"><ele>464.0</ele><time>2026-04-12T08:27:43.308Z</time></trkpt><trkpt lat="44.5903909" lon="7.9281443"><ele>464.00000000000006</ele><time>2026-04-12T08:27:48.308Z</time></trkpt><trkpt lat="44.5903294" lon="7.9281213"><ele>464.00000000000006</ele><time>2026-04-12T08:27:53.308Z</time></trkpt><trkpt lat="44.5902573" lon="7.9281135"><ele>463.8571428571429</ele><time>2026-04-12T08:27:57.307Z</time></trkpt><trkpt lat="44.5901951" lon="7.9280765"><ele>463.7142857142857</ele><time>2026-04-12T08:28:00.307Z</time></trkpt><trkpt lat="44.5901194" lon="7.9280254"><ele>463.57142857142856</ele><time>2026-04-12T08:28:03.308Z</time></trkpt><trkpt lat="44.5900535" lon="7.9279781"><ele>463.42857142857144</ele><time>2026-04-12T08:28:06.308Z</time></trkpt><trkpt lat="44.5899971" lon="7.9279199"><ele>463.2857142857142</ele><time>2026-04-12T08:28:09.308Z</time></trkpt><trkpt lat="44.5899325" lon="7.927878"><ele>463.1428571428571</ele><time>2026-04-12T08:28:12.308Z</time></trkpt><trkpt lat="44.5898722" lon="7.927826"><ele>463.0</ele><time>2026-04-12T08:28:15.308Z</time></trkpt><trkpt lat="44.5898063" lon="7.927783"><ele>463.00000000000006</ele><time>2026-04-12T08:28:18.307Z</time></trkpt><trkpt lat="44.5897271" lon="7.927737"><ele>463.0</ele><time>2026-04-12T08:28:21.308Z</time></trkpt><trkpt lat="44.5896482" lon="7.9277017"><ele>463.0</ele><time>2026-04-12T08:28:24.308Z</time></trkpt><trkpt lat="44.5896034" lon="7.9276377"><ele>463.0</ele><time>2026-04-12T08:28:29.308Z</time></trkpt><trkpt lat="44.5896245" lon="7.9275363"><ele>463.00000000000006</ele><time>2026-04-12T08:28:32.307Z</time></trkpt><trkpt lat="44.5896615" lon="7.927433"><ele>463.0</ele><time>2026-04-12T08:28:35.308Z</time></trkpt><trkpt lat="44.5897047" lon="7.9273408"><ele>463.2857142857143</ele><time>2026-04-12T08:28:38.308Z</time></trkpt><trkpt lat="44.5897485" lon="7.9272731"><ele>463.57142857142856</ele><time>2026-04-12T08:28:41.307Z</time></trkpt><trkpt lat="44.5898067" lon="7.9272274"><ele>463.85714285714283</ele><time>2026-04-12T08:28:44.307Z</time></trkpt><trkpt lat="44.5898778" lon="7.9272105"><ele>464.1428571428571</ele><time>2026-04-12T08:28:47.307Z</time></trkpt><trkpt lat="44.5899506" lon="7.9272022"><ele>464.42857142857144</ele><time>2026-04-12T08:28:50.308Z</time></trkpt><trkpt lat="44.5900314" lon="7.9271985"><ele>464.71428571428567</ele><time>2026-04-12T08:28:53.308Z</time></trkpt><trkpt lat="44.5901191" lon="7.9271949"><ele>465.0</ele><time>2026-04-12T08:28:56.308Z</time></trkpt><trkpt lat="44.5901842" lon="7.927192"><ele>465.0</ele><time>2026-04-12T08:28:58.307Z</time></trkpt><trkpt lat="44.5902556" lon="7.9271858"><ele>465.0</ele><time>2026-04-12T08:29:00.308Z</time></trkpt><trkpt lat="44.5903319" lon="7.9271829"><ele>465.0</ele><time>2026-04-12T08:29:02.308Z</time></trkpt><trkpt lat="44.5904091" lon="7.9271785"><ele>465.0</ele><time>2026-04-12T08:29:04.308Z</time></trkpt><trkpt lat="44.5904884" lon="7.9271781"><ele>465.0</ele><time>2026-04-12T08:29:06.307Z</time></trkpt><trkpt lat="44.5905686" lon="7.9271796"><ele>465.0</ele><time>2026-04-12T08:29:08.308Z</time></trkpt><trkpt lat="44.590645" lon="7.9271854"><ele>464.5</ele><time>2026-04-12T08:29:10.308Z</time></trkpt><trkpt lat="44.5907304" lon="7.9271845"><ele>464.0</ele><time>2026-04-12T08:29:12.308Z</time></trkpt><trkpt lat="44.5908199" lon="7.927172"><ele>463.5</ele><time>2026-04-12T08:29:14.307Z</time></trkpt><trkpt lat="44.5908962" lon="7.9271711"><ele>463.0</ele><time>2026-04-12T08:29:16.307Z</time></trkpt><trkpt lat="44.5909678" lon="7.9271658"><ele>462.5</ele><time>2026-04-12T08:29:18.308Z</time></trkpt><trkpt lat="44.5910358" lon="7.9271641"><ele>462.0</ele><time>2026-04-12T08:29:20.308Z</time></trkpt><trkpt lat="44.5911214" lon="7.927165"><ele>462.0</ele><time>2026-04-12T08:29:23.308Z</time></trkpt><trkpt lat="44.5911855" lon="7.9271703"><ele>462.0</ele><time>2026-04-12T08:29:27.308Z</time></trkpt><trkpt lat="44.5912436" lon="7.9271312"><ele>462.0</ele><time>2026-04-12T08:29:30.307Z</time></trkpt><trkpt lat="44.5912463" lon="7.9270426"><ele>462.0</ele><time>2026-04-12T08:29:32.308Z</time></trkpt><trkpt lat="44.59124" lon="7.9269451"><ele>462.0</ele><time>2026-04-12T08:29:34.308Z</time></trkpt><trkpt lat="44.591208" lon="7.9268407"><ele>462.0</ele><time>2026-04-12T08:29:37.307Z</time></trkpt><trkpt lat="44.591135" lon="7.9268246"><ele>462.0</ele><time>2026-04-12T08:29:40.308Z</time></trkpt><trkpt lat="44.591072" lon="7.9267993"><ele>462.0</ele><time>2026-04-12T08:30:09.308Z</time></trkpt><trkpt lat="44.5910669" lon="7.9267011"><ele>447.0</ele><time>2026-04-12T08:30:28.308Z</time></trkpt><trkpt lat="44.5910561" lon="7.9266021"><ele>447.0</ele><time>2026-04-12T08:30:31.308Z</time></trkpt></trkseg><trkseg><trkpt lat="44.6241168" lon="7.8663423"><ele>292.0</ele><time>2026-04-12T09:29:20.322Z</time></trkpt><trkpt lat="44.6241257" lon="7.8662532"><ele>292.0</ele><time>2026-04-12T09:32:31.321Z</time></trkpt><trkpt lat="44.6240979" lon="7.8661517"><ele>292.0</ele><time>2026-04-12T09:32:36.321Z</time></trkpt><trkpt lat="44.6240723" lon="7.8660635"><ele>292.0</ele><time>2026-04-12T09:32:39.322Z</time></trkpt><trkpt lat="44.6240454" lon="7.8659665"><ele>292.0</ele><time>2026-04-12T09:32:42.322Z</time></trkpt><trkpt lat="44.6240231" lon="7.865873"><ele>292.0</ele><time>2026-04-12T09:32:45.322Z</time></trkpt><trkpt lat="44.624015" lon="7.8657772"><ele>292.0</ele><time>2026-04-12T09:32:48.322Z</time></trkpt><trkpt lat="44.6239771" lon="7.8656814"><ele>292.16666666666663</ele><time>2026-04-12T09:32:51.321Z</time></trkpt><trkpt lat="44.6239439" lon="7.8655693"><ele>292.3333333333333</ele><time>2026-04-12T09:32:54.322Z</time></trkpt><trkpt lat="44.6239227" lon="7.8654434"><ele>292.5</ele><time>2026-04-12T09:32:57.321Z</time></trkpt><trkpt lat="44.6239111" lon="7.8653561"><ele>292.6666666666667</ele><time>2026-04-12T09:32:59.321Z</time></trkpt><trkpt lat="44.623906" lon="7.8652247"><ele>292.83333333333337</ele><time>2026-04-12T09:33:02.322Z</time></trkpt><trkpt lat="44.6239077" lon="7.8651016"><ele>293.0</ele><time>2026-04-12T09:33:05.322Z</time></trkpt><trkpt lat="44.6239656" lon="7.8650239"><ele>293.1666666666667</ele><time>2026-04-12T09:33:08.321Z</time></trkpt><trkpt lat="44.6240496" lon="7.8649567"><ele>293.33333333333337</ele><time>2026-04-12T09:33:11.322Z</time></trkpt><trkpt lat="44.624108" lon="7.8649031"><ele>293.5</ele><time>2026-04-12T09:33:13.321Z</time></trkpt><trkpt lat="44.6241654" lon="7.8648384"><ele>293.6666666666667</ele><time>2026-04-12T09:33:15.322Z</time></trkpt><trkpt lat="44.6242256" lon="7.8647692"><ele>293.8333333333333</ele><time>2026-04-12T09:33:17.321Z</time></trkpt><trkpt lat="44.6242877" lon="7.8647036"><ele>294.0</ele><time>2026-04-12T09:33:19.321Z</time></trkpt><trkpt lat="44.6243496" lon="7.8646358"><ele>294.0</ele><time>2026-04-12T09:33:21.322Z</time></trkpt><trkpt lat="44.6244146" lon="7.8645712"><ele>294.0</ele><time>2026-04-12T09:33:23.321Z</time></trkpt><trkpt lat="44.6244802" lon="7.8645022"><ele>294.0</ele><time>2026-04-12T09:33:25.322Z</time></trkpt><trkpt lat="44.6245476" lon="7.8644344"><ele>294.0</ele><time>2026-04-12T09:33:27.322Z</time></trkpt><trkpt lat="44.6246121" lon="7.8643601"><ele>294.0</ele><time>2026-04-12T09:33:29.322Z</time></trkpt><trkpt lat="44.6246783" lon="7.8642808"><ele>294.0</ele><time>2026-04-12T09:33:31.322Z</time></trkpt><trkpt lat="44.624749" lon="7.8642108"><ele>293.6666666666667</ele><time>2026-04-12T09:33:33.322Z</time></trkpt><trkpt lat="44.6248179" lon="7.8641431"><ele>293.3333333333333</ele><time>2026-04-12T09:33:35.321Z</time></trkpt><trkpt lat="44.6248854" lon="7.8640764"><ele>293.0</ele><time>2026-04-12T09:33:37.322Z</time></trkpt><trkpt lat="44.6249497" lon="7.86401"><ele>292.66666666666663</ele><time>2026-04-12T09:33:39.322Z</time></trkpt><trkpt lat="44.6250215" lon="7.8639635"><ele>292.3333333333333</ele><time>2026-04-12T09:33:41.322Z</time></trkpt><trkpt lat="44.6250891" lon="7.8639149"><ele>292.0</ele><time>2026-04-12T09:33:43.322Z</time></trkpt><trkpt lat="44.6251528" lon="7.8638694"><ele>292.0</ele><time>2026-04-12T09:33:45.322Z</time></trkpt><trkpt lat="44.6252253" lon="7.8638163"><ele>292.0</ele><time>2026-04-12T09:33:48.322Z</time></trkpt><trkpt lat="44.6252897" lon="7.8637777"><ele>292.0</ele><time>2026-04-12T09:33:51.322Z</time></trkpt><trkpt lat="44.6253447" lon="7.8637212"><ele>292.0</ele><time>2026-04-12T09:33:54.321Z</time></trkpt><trkpt lat="44.6254042" lon="7.863653"><ele>292.0</ele><time>2026-04-12T09:33:57.322Z</time></trkpt><trkpt lat="44.625461" lon="7.8635838"><ele>292.0</ele><time>2026-04-12T09:34:00.321Z</time></trkpt><trkpt lat="44.6255143" lon="7.8635303"><ele>292.0</ele><time>2026-04-12T09:34:02.322Z</time></trkpt><trkpt lat="44.6255767" lon="7.8634913"><ele>291.8</ele><time>2026-04-12T09:34:04.322Z</time></trkpt><trkpt lat="44.6256489" lon="7.8634692"><ele>291.6</ele><time>2026-04-12T09:34:06.322Z</time></trkpt><trkpt lat="44.6257306" lon="7.8634849"><ele>291.40000000000003</ele><time>2026-04-12T09:34:08.322Z</time></trkpt><trkpt lat="44.6258251" lon="7.8635009"><ele>291.2</ele><time>2026-04-12T09:34:10.322Z</time></trkpt><trkpt lat="44.6259285" lon="7.8635491"><ele>291.0</ele><time>2026-04-12T09:34:12.322Z</time></trkpt><trkpt lat="44.6260348" lon="7.8635986"><ele>291.0</ele><time>2026-04-12T09:34:14.321Z</time></trkpt><trkpt lat="44.6261403" lon="7.8636482"><ele>291.0</ele><time>2026-04-12T09:34:16.322Z</time></trkpt><trkpt lat="44.6262384" lon="7.8636993"><ele>291.0</ele><time>2026-04-12T09:34:18.322Z</time></trkpt><trkpt lat="44.6263403" lon="7.8637242"><ele>291.0</ele><time>2026-04-12T09:34:20.321Z</time></trkpt><trkpt lat="44.6264485" lon="7.863738"><ele>291.0</ele><time>2026-04-12T09:34:22.322Z</time></trkpt><trkpt lat="44.6265513" lon="7.8637242"><ele>290.40000000000003</ele><time>2026-04-12T09:34:24.321Z</time></trkpt><trkpt lat="44.6266538" lon="7.8636894"><ele>289.8</ele><time>2026-04-12T09:34:26.322Z</time></trkpt><trkpt lat="44.6267439" lon="7.8636494"><ele>289.20000000000005</ele><time>2026-04-12T09:34:28.322Z</time></trkpt><trkpt lat="44.6268369" lon="7.8636067"><ele>288.6</ele><time>2026-04-12T09:34:30.322Z</time></trkpt><trkpt lat="44.6269259" lon="7.8635562"><ele>288.0</ele><time>2026-04-12T09:34:32.321Z</time></trkpt><trkpt lat="44.6270103" lon="7.8634998"><ele>288.6666666666667</ele><time>2026-04-12T09:34:34.321Z</time></trkpt><trkpt lat="44.6270934" lon="7.8634544"><ele>289.3333333333333</ele><time>2026-04-12T09:34:36.322Z</time></trkpt><trkpt lat="44.6271721" lon="7.8634015"><ele>290.0</ele><time>2026-04-12T09:34:38.322Z</time></trkpt><trkpt lat="44.6272476" lon="7.8633527"><ele>290.66666666666663</ele><time>2026-04-12T09:34:40.322Z</time></trkpt><trkpt lat="44.6273228" lon="7.8633019"><ele>291.3333333333333</ele><time>2026-04-12T09:34:42.321Z</time></trkpt><trkpt lat="44.6273954" lon="7.8632468"><ele>292.0</ele><time>2026-04-12T09:34:44.321Z</time></trkpt><trkpt lat="44.6274675" lon="7.8631931"><ele>292.0</ele><time>2026-04-12T09:34:46.322Z</time></trkpt><trkpt lat="44.6275399" lon="7.8631423"><ele>292.0</ele><time>2026-04-12T09:34:48.322Z</time></trkpt><trkpt lat="44.6276106" lon="7.8630888"><ele>292.0</ele><time>2026-04-12T09:34:50.322Z</time></trkpt><trkpt lat="44.6276848" lon="7.8630369"><ele>292.0</ele><time>2026-04-12T09:34:52.322Z</time></trkpt><trkpt lat="44.6277591" lon="7.8629774"><ele>292.0</ele><time>2026-04-12T09:34:54.322Z</time></trkpt><trkpt lat="44.6278377" lon="7.8629109"><ele>292.0</ele><time>2026-04-12T09:34:56.321Z</time></trkpt><trkpt lat="44.6279171" lon="7.8628483"><ele>292.2</ele><time>2026-04-12T09:34:58.321Z</time></trkpt><trkpt lat="44.6280015" lon="7.8627851"><ele>292.4</ele><time>2026-04-12T09:35:00.322Z</time></trkpt><trkpt lat="44.6280877" lon="7.8627386"><ele>292.6</ele><time>2026-04-12T09:35:02.322Z</time></trkpt><trkpt lat="44.6281699" lon="7.8626827"><ele>292.8</ele><time>2026-04-12T09:35:04.322Z</time></trkpt><trkpt lat="44.6282577" lon="7.8626346"><ele>293.0</ele><time>2026-04-12T09:35:06.322Z</time></trkpt><trkpt lat="44.6283329" lon="7.8625791"><ele>293.0</ele><time>2026-04-12T09:35:08.322Z</time></trkpt><trkpt lat="44.6284094" lon="7.8625223"><ele>293.0</ele><time>2026-04-12T09:35:10.322Z</time></trkpt><trkpt lat="44.6284827" lon="7.8624615"><ele>293.0</ele><time>2026-04-12T09:35:12.322Z</time></trkpt><trkpt lat="44.6285578" lon="7.8623935"><ele>293.0</ele><time>2026-04-12T09:35:14.322Z</time></trkpt><trkpt lat="44.6286355" lon="7.8623271"><ele>293.0</ele><time>2026-04-12T09:35:16.322Z</time></trkpt><trkpt lat="44.6287135" lon="7.8622596"><ele>293.0</ele><time>2026-04-12T09:35:18.322Z</time></trkpt><trkpt lat="44.6287904" lon="7.8621935"><ele>292.2</ele><time>2026-04-12T09:35:20.322Z</time></trkpt><trkpt lat="44.6288696" lon="7.8621387"><ele>291.4</ele><time>2026-04-12T09:35:22.322Z</time></trkpt><trkpt lat="44.6289533" lon="7.862087"><ele>290.59999999999997</ele><time>2026-04-12T09:35:24.321Z</time></trkpt><trkpt lat="44.6290388" lon="7.8620399"><ele>289.8</ele><time>2026-04-12T09:35:26.322Z</time></trkpt><trkpt lat="44.6291311" lon="7.8620117"><ele>289.0</ele><time>2026-04-12T09:35:28.321Z</time></trkpt><trkpt lat="44.6292248" lon="7.861993"><ele>289.0</ele><time>2026-04-12T09:35:30.321Z</time></trkpt><trkpt lat="44.6293172" lon="7.861981"><ele>289.0</ele><time>2026-04-12T09:35:32.321Z</time></trkpt><trkpt lat="44.6294111" lon="7.8619738"><ele>289.0</ele><time>2026-04-12T09:35:34.322Z</time></trkpt><trkpt lat="44.6295001" lon="7.8619788"><ele>289.0</ele><time>2026-04-12T09:35:36.322Z</time></trkpt><trkpt lat="44.6295883" lon="7.8619877"><ele>289.0</ele><time>2026-04-12T09:35:38.322Z</time></trkpt><trkpt lat="44.6296803" lon="7.8620039"><ele>288.8</ele><time>2026-04-12T09:35:40.322Z</time></trkpt><trkpt lat="44.6297721" lon="7.8620304"><ele>288.59999999999997</ele><time>2026-04-12T09:35:42.322Z</time></trkpt><trkpt lat="44.6298618" lon="7.8620575"><ele>288.4</ele><time>2026-04-12T09:35:44.322Z</time></trkpt><trkpt lat="44.6299573" lon="7.8620784"><ele>288.2</ele><time>2026-04-12T09:35:46.322Z</time></trkpt><trkpt lat="44.6300458" lon="7.8620994"><ele>288.0</ele><time>2026-04-12T09:35:48.322Z</time></trkpt><trkpt lat="44.6301349" lon="7.8621094"><ele>288.0</ele><time>2026-04-12T09:35:50.321Z</time></trkpt><trkpt lat="44.6302211" lon="7.8621072"><ele>288.0</ele><time>2026-04-12T09:35:52.321Z</time></trkpt><trkpt lat="44.630312" lon="7.862101"><ele>288.0</ele><time>2026-04-12T09:35:54.322Z</time></trkpt><trkpt lat="44.6303998" lon="7.8620913"><ele>288.0</ele><time>2026-04-12T09:35:56.321Z</time></trkpt><trkpt lat="44.6304879" lon="7.8620839"><ele>288.0</ele><time>2026-04-12T09:35:58.322Z</time></trkpt><trkpt lat="44.6305782" lon="7.8620743"><ele>288.0</ele><time>2026-04-12T09:36:00.322Z</time></trkpt><trkpt lat="44.6306711" lon="7.8620429"><ele>287.6666666666667</ele><time>2026-04-12T09:36:02.321Z</time></trkpt><trkpt lat="44.6307629" lon="7.862007"><ele>287.3333333333333</ele><time>2026-04-12T09:36:04.322Z</time></trkpt><trkpt lat="44.6308477" lon="7.861976"><ele>287.0</ele><time>2026-04-12T09:36:06.322Z</time></trkpt><trkpt lat="44.6309327" lon="7.8619431"><ele>286.66666666666663</ele><time>2026-04-12T09:36:08.321Z</time></trkpt><trkpt lat="44.6310179" lon="7.8619177"><ele>286.3333333333333</ele><time>2026-04-12T09:36:10.322Z</time></trkpt><trkpt lat="44.6311068" lon="7.8618945"><ele>286.0</ele><time>2026-04-12T09:36:12.322Z</time></trkpt><trkpt lat="44.631196" lon="7.8618651"><ele>285.8</ele><time>2026-04-12T09:36:14.322Z</time></trkpt><trkpt lat="44.6312878" lon="7.8618354"><ele>285.6</ele><time>2026-04-12T09:36:16.321Z</time></trkpt><trkpt lat="44.6313805" lon="7.8618065"><ele>285.4</ele><time>2026-04-12T09:36:18.322Z</time></trkpt><trkpt lat="44.6314796" lon="7.8617896"><ele>285.2</ele><time>2026-04-12T09:36:20.322Z</time></trkpt><trkpt lat="44.6315783" lon="7.861775"><ele>285.0</ele><time>2026-04-12T09:36:22.321Z</time></trkpt><trkpt lat="44.6316758" lon="7.8617571"><ele>285.8</ele><time>2026-04-12T09:36:24.322Z</time></trkpt><trkpt lat="44.6317701" lon="7.8617481"><ele>286.6</ele><time>2026-04-12T09:36:26.322Z</time></trkpt><trkpt lat="44.6318664" lon="7.8617425"><ele>287.4</ele><time>2026-04-12T09:36:28.321Z</time></trkpt><trkpt lat="44.6319642" lon="7.8617382"><ele>288.2</ele><time>2026-04-12T09:36:30.322Z</time></trkpt><trkpt lat="44.6320584" lon="7.8617413"><ele>289.0</ele><time>2026-04-12T09:36:32.321Z</time></trkpt><trkpt lat="44.6321557" lon="7.8617419"><ele>289.0</ele><time>2026-04-12T09:36:34.322Z</time></trkpt><trkpt lat="44.6322542" lon="7.8617432"><ele>289.0</ele><time>2026-04-12T09:36:36.321Z</time></trkpt><trkpt lat="44.6323487" lon="7.8617495"><ele>289.0</ele><time>2026-04-12T09:36:38.321Z</time></trkpt><trkpt lat="44.6324442" lon="7.861754"><ele>289.0</ele><time>2026-04-12T09:36:40.322Z</time></trkpt><trkpt lat="44.6325329" lon="7.8617585"><ele>289.0</ele><time>2026-04-12T09:36:42.321Z</time></trkpt><trkpt lat="44.6326191" lon="7.8617665"><ele>289.0</ele><time>2026-04-12T09:36:44.322Z</time></trkpt><trkpt lat="44.6327112" lon="7.8617749"><ele>289.0</ele><time>2026-04-12T09:36:46.322Z</time></trkpt><trkpt lat="44.6328029" lon="7.8617816"><ele>289.0</ele><time>2026-04-12T09:36:48.322Z</time></trkpt><trkpt lat="44.632894" lon="7.8617699"><ele>289.0</ele><time>2026-04-12T09:36:50.322Z</time></trkpt><trkpt lat="44.6329879" lon="7.8617604"><ele>289.0</ele><time>2026-04-12T09:36:52.321Z</time></trkpt><trkpt lat="44.6330881" lon="7.8617464"><ele>289.0</ele><time>2026-04-12T09:36:54.322Z</time></trkpt><trkpt lat="44.6331825" lon="7.8617083"><ele>289.0</ele><time>2026-04-12T09:36:56.322Z</time></trkpt><trkpt lat="44.6332804" lon="7.8616709"><ele>289.0</ele><time>2026-04-12T09:36:58.322Z</time></trkpt><trkpt lat="44.6333755" lon="7.8616299"><ele>289.0</ele><time>2026-04-12T09:37:00.322Z</time></trkpt><trkpt lat="44.6334695" lon="7.861585"><ele>289.0</ele><time>2026-04-12T09:37:02.322Z</time></trkpt><trkpt lat="44.6335655" lon="7.8615411"><ele>288.2</ele><time>2026-04-12T09:37:04.321Z</time></trkpt><trkpt lat="44.6336574" lon="7.8615021"><ele>287.4</ele><time>2026-04-12T09:37:06.322Z</time></trkpt><trkpt lat="44.6337488" lon="7.8614559"><ele>286.6</ele><time>2026-04-12T09:37:08.322Z</time></trkpt><trkpt lat="44.6338391" lon="7.8614173"><ele>285.8</ele><time>2026-04-12T09:37:10.321Z</time></trkpt><trkpt lat="44.6339298" lon="7.861371"><ele>285.0</ele><time>2026-04-12T09:37:12.322Z</time></trkpt><trkpt lat="44.6340254" lon="7.8613311"><ele>285.0</ele><time>2026-04-12T09:37:14.322Z</time></trkpt><trkpt lat="44.6341242" lon="7.8612935"><ele>285.0</ele><time>2026-04-12T09:37:16.322Z</time></trkpt><trkpt lat="44.6342182" lon="7.8612524"><ele>285.0</ele><time>2026-04-12T09:37:18.322Z</time></trkpt><trkpt lat="44.6343035" lon="7.8612133"><ele>285.0</ele><time>2026-04-12T09:37:20.321Z</time></trkpt><trkpt lat="44.634386" lon="7.8611784"><ele>285.0</ele><time>2026-04-12T09:37:22.322Z</time></trkpt><trkpt lat="44.6344645" lon="7.8611354"><ele>285.6</ele><time>2026-04-12T09:37:24.321Z</time></trkpt><trkpt lat="44.6345453" lon="7.8610871"><ele>286.2</ele><time>2026-04-12T09:37:26.322Z</time></trkpt><trkpt lat="44.6346231" lon="7.8610337"><ele>286.8</ele><time>2026-04-12T09:37:28.322Z</time></trkpt><trkpt lat="44.6347042" lon="7.8609662"><ele>287.4</ele><time>2026-04-12T09:37:30.322Z</time></trkpt><trkpt lat="44.634779" lon="7.8608858"><ele>288.0</ele><time>2026-04-12T09:37:32.321Z</time></trkpt><trkpt lat="44.634851" lon="7.8607978"><ele>288.0</ele><time>2026-04-12T09:37:34.321Z</time></trkpt><trkpt lat="44.6349243" lon="7.8607086"><ele>288.0</ele><time>2026-04-12T09:37:36.322Z</time></trkpt><trkpt lat="44.6349862" lon="7.8606223"><ele>288.0</ele><time>2026-04-12T09:37:38.322Z</time></trkpt><trkpt lat="44.6350456" lon="7.8605391"><ele>288.0</ele><time>2026-04-12T09:37:40.321Z</time></trkpt><trkpt lat="44.6351112" lon="7.8604635"><ele>288.0</ele><time>2026-04-12T09:37:42.322Z</time></trkpt><trkpt lat="44.6351727" lon="7.8603784"><ele>288.0</ele><time>2026-04-12T09:37:44.321Z</time></trkpt><trkpt lat="44.635241" lon="7.8603059"><ele>288.0</ele><time>2026-04-12T09:37:46.322Z</time></trkpt><trkpt lat="44.6353024" lon="7.8602222"><ele>288.0</ele><time>2026-04-12T09:37:48.321Z</time></trkpt><trkpt lat="44.6353582" lon="7.8601301"><ele>288.0</ele><time>2026-04-12T09:37:50.322Z</time></trkpt><trkpt lat="44.6354084" lon="7.8600345"><ele>288.0</ele><time>2026-04-12T09:37:52.322Z</time></trkpt><trkpt lat="44.6354518" lon="7.8599325"><ele>288.0</ele><time>2026-04-12T09:37:54.321Z</time></trkpt><trkpt lat="44.6354985" lon="7.8598393"><ele>288.0</ele><time>2026-04-12T09:37:56.321Z</time></trkpt><trkpt lat="44.6355459" lon="7.8597572"><ele>287.8333333333333</ele><time>2026-04-12T09:37:58.322Z</time></trkpt><trkpt lat="44.6356002" lon="7.8596815"><ele>287.6666666666667</ele><time>2026-04-12T09:38:00.322Z</time></trkpt><trkpt lat="44.6356648" lon="7.8596235"><ele>287.5</ele><time>2026-04-12T09:38:02.322Z</time></trkpt><trkpt lat="44.635735" lon="7.8595862"><ele>287.33333333333337</ele><time>2026-04-12T09:38:04.322Z</time></trkpt><trkpt lat="44.6358113" lon="7.8595667"><ele>287.1666666666667</ele><time>2026-04-12T09:38:06.322Z</time></trkpt><trkpt lat="44.635893" lon="7.8595616"><ele>287.0</ele><time>2026-04-12T09:38:08.321Z</time></trkpt><trkpt lat="44.6359794" lon="7.8595682"><ele>287.0</ele><time>2026-04-12T09:38:10.322Z</time></trkpt><trkpt lat="44.6360676" lon="7.8595822"><ele>287.0</ele><time>2026-04-12T09:38:12.321Z</time></trkpt><trkpt lat="44.6361608" lon="7.8596106"><ele>287.0</ele><time>2026-04-12T09:38:14.322Z</time></trkpt><trkpt lat="44.6362496" lon="7.8596499"><ele>287.0</ele><time>2026-04-12T09:38:16.321Z</time></trkpt><trkpt lat="44.6363382" lon="7.8596895"><ele>287.0</ele><time>2026-04-12T09:38:18.322Z</time></trkpt><trkpt lat="44.636426" lon="7.8597344"><ele>286.8</ele><time>2026-04-12T09:38:20.322Z</time></trkpt><trkpt lat="44.6365184" lon="7.8597723"><ele>286.6</ele><time>2026-04-12T09:38:22.321Z</time></trkpt><trkpt lat="44.6366126" lon="7.8597972"><ele>286.40000000000003</ele><time>2026-04-12T09:38:24.322Z</time></trkpt><trkpt lat="44.6367087" lon="7.8598221"><ele>286.2</ele><time>2026-04-12T09:38:26.322Z</time></trkpt><trkpt lat="44.636803" lon="7.8598487"><ele>286.0</ele><time>2026-04-12T09:38:28.322Z</time></trkpt><trkpt lat="44.6368937" lon="7.8598743"><ele>286.3333333333333</ele><time>2026-04-12T09:38:30.322Z</time></trkpt><trkpt lat="44.63698" lon="7.8598947"><ele>286.66666666666663</ele><time>2026-04-12T09:38:32.322Z</time></trkpt><trkpt lat="44.6370615" lon="7.8599109"><ele>287.0</ele><time>2026-04-12T09:38:34.321Z</time></trkpt><trkpt lat="44.6371405" lon="7.859928"><ele>287.3333333333333</ele><time>2026-04-12T09:38:36.322Z</time></trkpt><trkpt lat="44.6372184" lon="7.8599408"><ele>287.6666666666667</ele><time>2026-04-12T09:38:38.322Z</time></trkpt><trkpt lat="44.6372991" lon="7.859948"><ele>288.0</ele><time>2026-04-12T09:38:40.321Z</time></trkpt><trkpt lat="44.6373822" lon="7.8599476"><ele>288.0</ele><time>2026-04-12T09:38:42.321Z</time></trkpt><trkpt lat="44.6374667" lon="7.8599514"><ele>288.0</ele><time>2026-04-12T09:38:44.321Z</time></trkpt><trkpt lat="44.6375494" lon="7.8599536"><ele>288.0</ele><time>2026-04-12T09:38:46.321Z</time></trkpt><trkpt lat="44.6376349" lon="7.8599584"><ele>288.0</ele><time>2026-04-12T09:38:48.321Z</time></trkpt><trkpt lat="44.6377237" lon="7.8599669"><ele>288.0</ele><time>2026-04-12T09:38:50.322Z</time></trkpt><trkpt lat="44.6378135" lon="7.8599834"><ele>288.0</ele><time>2026-04-12T09:38:52.322Z</time></trkpt><trkpt lat="44.6379065" lon="7.8599905"><ele>287.8</ele><time>2026-04-12T09:38:54.321Z</time></trkpt><trkpt lat="44.6379972" lon="7.8599888"><ele>287.6</ele><time>2026-04-12T09:38:56.322Z</time></trkpt><trkpt lat="44.6380929" lon="7.8599899"><ele>287.4</ele><time>2026-04-12T09:38:58.322Z</time></trkpt><trkpt lat="44.6381912" lon="7.8599893"><ele>287.2</ele><time>2026-04-12T09:39:00.322Z</time></trkpt><trkpt lat="44.6382902" lon="7.8599877"><ele>287.0</ele><time>2026-04-12T09:39:02.322Z</time></trkpt><trkpt lat="44.63839" lon="7.8599736"><ele>287.0</ele><time>2026-04-12T09:39:04.322Z</time></trkpt><trkpt lat="44.6384872" lon="7.8599694"><ele>287.0</ele><time>2026-04-12T09:39:06.321Z</time></trkpt><trkpt lat="44.6385856" lon="7.8599592"><ele>287.0</ele><time>2026-04-12T09:39:08.321Z</time></trkpt><trkpt lat="44.6386828" lon="7.8599634"><ele>287.0</ele><time>2026-04-12T09:39:10.321Z</time></trkpt><trkpt lat="44.638771" lon="7.859956"><ele>287.0</ele><time>2026-04-12T09:39:12.321Z</time></trkpt><trkpt lat="44.6388611" lon="7.8599481"><ele>286.83333333333337</ele><time>2026-04-12T09:39:14.321Z</time></trkpt><trkpt lat="44.6389532" lon="7.8599383"><ele>286.6666666666667</ele><time>2026-04-12T09:39:16.322Z</time></trkpt><trkpt lat="44.6390438" lon="7.8599302"><ele>286.5</ele><time>2026-04-12T09:39:18.322Z</time></trkpt><trkpt lat="44.639131" lon="7.8599189"><ele>286.3333333333333</ele><time>2026-04-12T09:39:20.322Z</time></trkpt><trkpt lat="44.6392169" lon="7.8599043"><ele>286.16666666666663</ele><time>2026-04-12T09:39:22.322Z</time></trkpt><trkpt lat="44.6393077" lon="7.8598938"><ele>286.0</ele><time>2026-04-12T09:39:24.322Z</time></trkpt><trkpt lat="44.6393985" lon="7.8598788"><ele>286.0</ele><time>2026-04-12T09:39:26.322Z</time></trkpt><trkpt lat="44.6394908" lon="7.8598708"><ele>286.0</ele><time>2026-04-12T09:39:28.322Z</time></trkpt><trkpt lat="44.6395777" lon="7.8598793"><ele>286.0</ele><time>2026-04-12T09:39:30.322Z</time></trkpt><trkpt lat="44.639662" lon="7.8598684"><ele>286.0</ele><time>2026-04-12T09:39:32.322Z</time></trkpt><trkpt lat="44.6397356" lon="7.8598364"><ele>286.0</ele><time>2026-04-12T09:39:34.322Z</time></trkpt><trkpt lat="44.6398072" lon="7.8598114"><ele>286.0</ele><time>2026-04-12T09:39:36.321Z</time></trkpt><trkpt lat="44.6398854" lon="7.8598119"><ele>286.0</ele><time>2026-04-12T09:39:38.322Z</time></trkpt><trkpt lat="44.6399754" lon="7.8598136"><ele>286.0</ele><time>2026-04-12T09:39:40.322Z</time></trkpt><trkpt lat="44.640068" lon="7.8598065"><ele>286.0</ele><time>2026-04-12T09:39:42.321Z</time></trkpt><trkpt lat="44.6401592" lon="7.8598097"><ele>286.0</ele><time>2026-04-12T09:39:44.322Z</time></trkpt><trkpt lat="44.640254" lon="7.8598255"><ele>286.0</ele><time>2026-04-12T09:39:46.321Z</time></trkpt><trkpt lat="44.6403524" lon="7.8598438"><ele>285.8333333333333</ele><time>2026-04-12T09:39:48.321Z</time></trkpt><trkpt lat="44.6404521" lon="7.859862"><ele>285.66666666666663</ele><time>2026-04-12T09:39:50.321Z</time></trkpt><trkpt lat="44.640548" lon="7.8598782"><ele>285.5</ele><time>2026-04-12T09:39:52.322Z</time></trkpt><trkpt lat="44.6406367" lon="7.8598848"><ele>285.3333333333333</ele><time>2026-04-12T09:39:54.321Z</time></trkpt><trkpt lat="44.6407186" lon="7.8598944"><ele>285.1666666666667</ele><time>2026-04-12T09:39:56.322Z</time></trkpt><trkpt lat="44.6407946" lon="7.8599048"><ele>285.0</ele><time>2026-04-12T09:39:58.321Z</time></trkpt><trkpt lat="44.6408668" lon="7.8599204"><ele>285.0</ele><time>2026-04-12T09:40:00.322Z</time></trkpt><trkpt lat="44.6409325" lon="7.8599483"><ele>285.0</ele><time>2026-04-12T09:40:02.321Z</time></trkpt><trkpt lat="44.6409975" lon="7.8599942"><ele>285.0</ele><time>2026-04-12T09:40:04.322Z</time></trkpt><trkpt lat="44.6410637" lon="7.8600314"><ele>285.0</ele><time>2026-04-12T09:40:06.321Z</time></trkpt><trkpt lat="44.6411344" lon="7.8600502"><ele>285.0</ele><time>2026-04-12T09:40:08.321Z</time></trkpt><trkpt lat="44.6412037" lon="7.8600924"><ele>285.0</ele><time>2026-04-12T09:40:10.321Z</time></trkpt><trkpt lat="44.6412745" lon="7.8601427"><ele>285.0</ele><time>2026-04-12T09:40:12.322Z</time></trkpt><trkpt lat="44.6413465" lon="7.8601961"><ele>284.1666666666667</ele><time>2026-04-12T09:40:14.322Z</time></trkpt><trkpt lat="44.6414211" lon="7.8602522"><ele>283.3333333333333</ele><time>2026-04-12T09:40:16.322Z</time></trkpt><trkpt lat="44.6415045" lon="7.8603064"><ele>282.5</ele><time>2026-04-12T09:40:18.321Z</time></trkpt><trkpt lat="44.6415914" lon="7.8603489"><ele>281.66666666666663</ele><time>2026-04-12T09:40:20.322Z</time></trkpt><trkpt lat="44.6416776" lon="7.8603685"><ele>280.8333333333333</ele><time>2026-04-12T09:40:22.321Z</time></trkpt><trkpt lat="44.6417591" lon="7.8603709"><ele>280.0</ele><time>2026-04-12T09:40:24.321Z</time></trkpt><trkpt lat="44.6418318" lon="7.8603897"><ele>280.0</ele><time>2026-04-12T09:40:26.322Z</time></trkpt><trkpt lat="44.6419074" lon="7.8604075"><ele>280.0</ele><time>2026-04-12T09:40:28.322Z</time></trkpt><trkpt lat="44.6419884" lon="7.8604214"><ele>280.0</ele><time>2026-04-12T09:40:30.322Z</time></trkpt><trkpt lat="44.6420724" lon="7.8604272"><ele>280.0</ele><time>2026-04-12T09:40:32.321Z</time></trkpt><trkpt lat="44.6421577" lon="7.8604348"><ele>280.0</ele><time>2026-04-12T09:40:34.322Z</time></trkpt><trkpt lat="44.6422454" lon="7.8604458"><ele>280.0</ele><time>2026-04-12T09:40:36.321Z</time></trkpt><trkpt lat="44.6423277" lon="7.8604659"><ele>280.5</ele><time>2026-04-12T09:40:38.321Z</time></trkpt><trkpt lat="44.6424072" lon="7.8604832"><ele>281.0</ele><time>2026-04-12T09:40:40.322Z</time></trkpt><trkpt lat="44.6424864" lon="7.8605012"><ele>281.5</ele><time>2026-04-12T09:40:42.321Z</time></trkpt><trkpt lat="44.6425685" lon="7.8605234"><ele>282.0</ele><time>2026-04-12T09:40:44.322Z</time></trkpt><trkpt lat="44.6426461" lon="7.860569"><ele>282.5</ele><time>2026-04-12T09:40:46.322Z</time></trkpt><trkpt lat="44.6427175" lon="7.8606398"><ele>283.0</ele><time>2026-04-12T09:40:48.322Z</time></trkpt><trkpt lat="44.6427951" lon="7.8607052"><ele>282.66666666666663</ele><time>2026-04-12T09:40:50.321Z</time></trkpt><trkpt lat="44.64287" lon="7.8607675"><ele>282.3333333333333</ele><time>2026-04-12T09:40:52.321Z</time></trkpt><trkpt lat="44.6429452" lon="7.8608382"><ele>282.0</ele><time>2026-04-12T09:40:54.322Z</time></trkpt><trkpt lat="44.6430225" lon="7.860898"><ele>281.6666666666667</ele><time>2026-04-12T09:40:56.322Z</time></trkpt><trkpt lat="44.6430973" lon="7.8609673"><ele>281.33333333333337</ele><time>2026-04-12T09:40:58.321Z</time></trkpt><trkpt lat="44.6431753" lon="7.8610327"><ele>281.0</ele><time>2026-04-12T09:41:00.321Z</time></trkpt><trkpt lat="44.643261" lon="7.8610837"><ele>281.0</ele><time>2026-04-12T09:41:02.321Z</time></trkpt><trkpt lat="44.6433496" lon="7.8611269"><ele>281.0</ele><time>2026-04-12T09:41:04.322Z</time></trkpt><trkpt lat="44.6434379" lon="7.8611571"><ele>281.0</ele><time>2026-04-12T09:41:06.321Z</time></trkpt><trkpt lat="44.6435231" lon="7.8611767"><ele>281.0</ele><time>2026-04-12T09:41:08.322Z</time></trkpt><trkpt lat="44.6436095" lon="7.8612022"><ele>281.0</ele><time>2026-04-12T09:41:10.322Z</time></trkpt><trkpt lat="44.6436979" lon="7.8612373"><ele>281.8</ele><time>2026-04-12T09:41:12.321Z</time></trkpt><trkpt lat="44.6437865" lon="7.8612704"><ele>282.6</ele><time>2026-04-12T09:41:14.321Z</time></trkpt><trkpt lat="44.6438704" lon="7.8613368"><ele>283.4</ele><time>2026-04-12T09:41:16.322Z</time></trkpt><trkpt lat="44.6439516" lon="7.8614076"><ele>284.2</ele><time>2026-04-12T09:41:18.322Z</time></trkpt><trkpt lat="44.6440368" lon="7.8614675"><ele>285.0</ele><time>2026-04-12T09:41:20.321Z</time></trkpt><trkpt lat="44.6441177" lon="7.8615341"><ele>285.0</ele><time>2026-04-12T09:41:22.322Z</time></trkpt><trkpt lat="44.6442014" lon="7.861601"><ele>285.0</ele><time>2026-04-12T09:41:24.322Z</time></trkpt><trkpt lat="44.6442871" lon="7.8616515"><ele>285.0</ele><time>2026-04-12T09:41:26.322Z</time></trkpt><trkpt lat="44.6443701" lon="7.8617005"><ele>285.0</ele><time>2026-04-12T09:41:28.322Z</time></trkpt><trkpt lat="44.6444549" lon="7.8617536"><ele>285.0</ele><time>2026-04-12T09:41:30.322Z</time></trkpt><trkpt lat="44.6445452" lon="7.8617947"><ele>283.4</ele><time>2026-04-12T09:41:32.322Z</time></trkpt><trkpt lat="44.6446419" lon="7.8618318"><ele>281.8</ele><time>2026-04-12T09:41:34.322Z</time></trkpt><trkpt lat="44.6447337" lon="7.8618594"><ele>280.2</ele><time>2026-04-12T09:41:36.322Z</time></trkpt><trkpt lat="44.6448212" lon="7.8618809"><ele>278.6</ele><time>2026-04-12T09:41:38.322Z</time></trkpt><trkpt lat="44.6449034" lon="7.861909"><ele>277.0</ele><time>2026-04-12T09:41:40.322Z</time></trkpt><trkpt lat="44.6449839" lon="7.8619402"><ele>277.0</ele><time>2026-04-12T09:41:42.322Z</time></trkpt><trkpt lat="44.6450751" lon="7.8619559"><ele>277.0</ele><time>2026-04-12T09:41:44.321Z</time></trkpt><trkpt lat="44.645171" lon="7.8619706"><ele>277.0</ele><time>2026-04-12T09:41:46.322Z</time></trkpt><trkpt lat="44.6452668" lon="7.8619828"><ele>277.0</ele><time>2026-04-12T09:41:48.322Z</time></trkpt><trkpt lat="44.645364" lon="7.8619886"><ele>277.0</ele><time>2026-04-12T09:41:50.322Z</time></trkpt><trkpt lat="44.6454538" lon="7.8619849"><ele>277.0</ele><time>2026-04-12T09:41:52.322Z</time></trkpt><trkpt lat="44.6455391" lon="7.8619811"><ele>277.0</ele><time>2026-04-12T09:41:54.322Z</time></trkpt><trkpt lat="44.6456168" lon="7.8619743"><ele>277.0</ele><time>2026-04-12T09:41:56.322Z</time></trkpt><trkpt lat="44.645699" lon="7.8619789"><ele>277.0</ele><time>2026-04-12T09:41:58.322Z</time></trkpt><trkpt lat="44.6457833" lon="7.8619787"><ele>277.0</ele><time>2026-04-12T09:42:00.322Z</time></trkpt><trkpt lat="44.6458703" lon="7.8619749"><ele>277.0</ele><time>2026-04-12T09:42:02.322Z</time></trkpt><trkpt lat="44.6459661" lon="7.8619755"><ele>277.0</ele><time>2026-04-12T09:42:04.322Z</time></trkpt><trkpt lat="44.64606" lon="7.861989"><ele>277.0</ele><time>2026-04-12T09:42:06.321Z</time></trkpt><trkpt lat="44.6461495" lon="7.8619829"><ele>277.0</ele><time>2026-04-12T09:42:08.322Z</time></trkpt><trkpt lat="44.6462339" lon="7.861978"><ele>277.0</ele><time>2026-04-12T09:42:10.322Z</time></trkpt><trkpt lat="44.6463202" lon="7.8619652"><ele>277.0</ele><time>2026-04-12T09:42:12.322Z</time></trkpt><trkpt lat="44.646403" lon="7.8619508"><ele>277.0</ele><time>2026-04-12T09:42:14.322Z</time></trkpt><trkpt lat="44.6464797" lon="7.8619318"><ele>276.16666666666663</ele><time>2026-04-12T09:42:16.322Z</time></trkpt><trkpt lat="44.6465557" lon="7.8618978"><ele>275.3333333333333</ele><time>2026-04-12T09:42:18.321Z</time></trkpt><trkpt lat="44.6466351" lon="7.8618717"><ele>274.5</ele><time>2026-04-12T09:42:20.322Z</time></trkpt><trkpt lat="44.6467181" lon="7.8618381"><ele>273.6666666666667</ele><time>2026-04-12T09:42:22.322Z</time></trkpt><trkpt lat="44.6468006" lon="7.8618073"><ele>272.83333333333337</ele><time>2026-04-12T09:42:24.321Z</time></trkpt><trkpt lat="44.6468841" lon="7.8617807"><ele>272.0</ele><time>2026-04-12T09:42:26.322Z</time></trkpt><trkpt lat="44.6469757" lon="7.8617544"><ele>275.2</ele><time>2026-04-12T09:42:28.322Z</time></trkpt><trkpt lat="44.6470693" lon="7.8617498"><ele>278.4</ele><time>2026-04-12T09:42:30.322Z</time></trkpt><trkpt lat="44.6471644" lon="7.8617406"><ele>281.6</ele><time>2026-04-12T09:42:32.322Z</time></trkpt><trkpt lat="44.6472623" lon="7.8617361"><ele>284.8</ele><time>2026-04-12T09:42:34.322Z</time></trkpt><trkpt lat="44.6473605" lon="7.8617248"><ele>288.0</ele><time>2026-04-12T09:42:36.322Z</time></trkpt><trkpt lat="44.6474558" lon="7.8617212"><ele>288.0</ele><time>2026-04-12T09:42:38.322Z</time></trkpt><trkpt lat="44.6475387" lon="7.8616985"><ele>288.0</ele><time>2026-04-12T09:42:40.322Z</time></trkpt><trkpt lat="44.6476088" lon="7.8616499"><ele>288.0</ele><time>2026-04-12T09:42:42.321Z</time></trkpt><trkpt lat="44.6476716" lon="7.8615835"><ele>288.0</ele><time>2026-04-12T09:42:44.322Z</time></trkpt><trkpt lat="44.6477173" lon="7.8614933"><ele>288.0</ele><time>2026-04-12T09:42:46.322Z</time></trkpt><trkpt lat="44.6477577" lon="7.8613994"><ele>288.0</ele><time>2026-04-12T09:42:48.321Z</time></trkpt><trkpt lat="44.6477991" lon="7.8613082"><ele>287.8333333333333</ele><time>2026-04-12T09:42:50.321Z</time></trkpt><trkpt lat="44.6478563" lon="7.8612397"><ele>287.6666666666667</ele><time>2026-04-12T09:42:52.322Z</time></trkpt><trkpt lat="44.6479273" lon="7.8612049"><ele>287.5</ele><time>2026-04-12T09:42:54.322Z</time></trkpt><trkpt lat="44.6480088" lon="7.8611966"><ele>287.33333333333337</ele><time>2026-04-12T09:42:56.321Z</time></trkpt><trkpt lat="44.6480966" lon="7.8611897"><ele>287.1666666666667</ele><time>2026-04-12T09:42:58.321Z</time></trkpt><trkpt lat="44.6481906" lon="7.8611989"><ele>287.0</ele><time>2026-04-12T09:43:00.322Z</time></trkpt><trkpt lat="44.6482785" lon="7.8611933"><ele>287.0</ele><time>2026-04-12T09:43:02.322Z</time></trkpt><trkpt lat="44.6483711" lon="7.86119"><ele>287.0</ele><time>2026-04-12T09:43:04.322Z</time></trkpt><trkpt lat="44.6484591" lon="7.8611796"><ele>287.0</ele><time>2026-04-12T09:43:06.321Z</time></trkpt><trkpt lat="44.6485448" lon="7.8611805"><ele>287.0</ele><time>2026-04-12T09:43:08.322Z</time></trkpt><trkpt lat="44.6486321" lon="7.8611697"><ele>287.0</ele><time>2026-04-12T09:43:10.321Z</time></trkpt><trkpt lat="44.6487149" lon="7.8611683"><ele>287.0</ele><time>2026-04-12T09:43:12.322Z</time></trkpt><trkpt lat="44.6487957" lon="7.8611635"><ele>287.6666666666667</ele><time>2026-04-12T09:43:14.322Z</time></trkpt><trkpt lat="44.6488789" lon="7.8611584"><ele>288.33333333333337</ele><time>2026-04-12T09:43:16.321Z</time></trkpt><trkpt lat="44.6489663" lon="7.861157"><ele>289.0</ele><time>2026-04-12T09:43:18.322Z</time></trkpt><trkpt lat="44.64905" lon="7.8611529"><ele>289.6666666666667</ele><time>2026-04-12T09:43:20.322Z</time></trkpt><trkpt lat="44.6491302" lon="7.8611513"><ele>290.3333333333333</ele><time>2026-04-12T09:43:22.321Z</time></trkpt><trkpt lat="44.6492028" lon="7.8611504"><ele>291.0</ele><time>2026-04-12T09:43:24.321Z</time></trkpt><trkpt lat="44.6492713" lon="7.8611482"><ele>291.0</ele><time>2026-04-12T09:43:26.322Z</time></trkpt><trkpt lat="44.649339" lon="7.8611476"><ele>291.0</ele><time>2026-04-12T09:43:28.322Z</time></trkpt><trkpt lat="44.6494045" lon="7.8611495"><ele>291.0</ele><time>2026-04-12T09:43:30.322Z</time></trkpt><trkpt lat="44.6494685" lon="7.8611394"><ele>291.0</ele><time>2026-04-12T09:43:32.322Z</time></trkpt><trkpt lat="44.6495492" lon="7.861134"><ele>291.0</ele><time>2026-04-12T09:43:35.321Z</time></trkpt><trkpt lat="44.649613" lon="7.8610604"><ele>291.0</ele><time>2026-04-12T09:43:39.321Z</time></trkpt><trkpt lat="44.6496192" lon="7.8609602"><ele>291.0</ele><time>2026-04-12T09:43:42.321Z</time></trkpt><trkpt lat="44.6496059" lon="7.8608386"><ele>291.0</ele><time>2026-04-12T09:43:45.322Z</time></trkpt><trkpt lat="44.6496038" lon="7.8607416"><ele>291.0</ele><time>2026-04-12T09:43:47.322Z</time></trkpt><trkpt lat="44.6496105" lon="7.8606298"><ele>291.0</ele><time>2026-04-12T09:43:50.322Z</time></trkpt><trkpt lat="44.6496091" lon="7.8605261"><ele>291.0</ele><time>2026-04-12T09:43:52.322Z</time></trkpt><trkpt lat="44.6496035" lon="7.8604357"><ele>291.0</ele><time>2026-04-12T09:43:54.322Z</time></trkpt><trkpt lat="44.6495995" lon="7.8603247"><ele>291.0</ele><time>2026-04-12T09:43:56.322Z</time></trkpt><trkpt lat="44.6495963" lon="7.8602264"><ele>291.0</ele><time>2026-04-12T09:43:58.322Z</time></trkpt><trkpt lat="44.6495864" lon="7.8601106"><ele>290.8333333333333</ele><time>2026-04-12T09:44:00.321Z</time></trkpt><trkpt lat="44.6495825" lon="7.860001"><ele>290.6666666666667</ele><time>2026-04-12T09:44:02.321Z</time></trkpt><trkpt lat="44.6495897" lon="7.8598967"><ele>290.5</ele><time>2026-04-12T09:44:04.322Z</time></trkpt><trkpt lat="44.6495799" lon="7.8597882"><ele>290.33333333333337</ele><time>2026-04-12T09:44:06.321Z</time></trkpt><trkpt lat="44.6495815" lon="7.859687"><ele>290.1666666666667</ele><time>2026-04-12T09:44:08.322Z</time></trkpt><trkpt lat="44.6495777" lon="7.8595842"><ele>290.0</ele><time>2026-04-12T09:44:10.322Z</time></trkpt><trkpt lat="44.6495756" lon="7.8594798"><ele>290.0</ele><time>2026-04-12T09:44:12.322Z</time></trkpt><trkpt lat="44.6495818" lon="7.8593809"><ele>290.0</ele><time>2026-04-12T09:44:14.321Z</time></trkpt><trkpt lat="44.6495825" lon="7.8592694"><ele>290.0</ele><time>2026-04-12T09:44:16.322Z</time></trkpt><trkpt lat="44.6495814" lon="7.8591537"><ele>290.0</ele><time>2026-04-12T09:44:18.321Z</time></trkpt><trkpt lat="44.6495812" lon="7.8590499"><ele>290.0</ele><time>2026-04-12T09:44:20.321Z</time></trkpt><trkpt lat="44.6495706" lon="7.858957"><ele>290.0</ele><time>2026-04-12T09:44:22.322Z</time></trkpt><trkpt lat="44.6495728" lon="7.8588245"><ele>290.0</ele><time>2026-04-12T09:44:25.321Z</time></trkpt><trkpt lat="44.649566" lon="7.8587238"><ele>290.0</ele><time>2026-04-12T09:44:27.322Z</time></trkpt><trkpt lat="44.6495675" lon="7.8586329"><ele>290.0</ele><time>2026-04-12T09:44:29.322Z</time></trkpt><trkpt lat="44.6495641" lon="7.8585437"><ele>290.0</ele><time>2026-04-12T09:44:31.322Z</time></trkpt><trkpt lat="44.6495633" lon="7.858428"><ele>290.0</ele><time>2026-04-12T09:44:34.322Z</time></trkpt><trkpt lat="44.6495573" lon="7.8583248"><ele>290.0</ele><time>2026-04-12T09:44:38.322Z</time></trkpt><trkpt lat="44.6495814" lon="7.8582301"><ele>290.0</ele><time>2026-04-12T09:44:42.322Z</time></trkpt><trkpt lat="44.6496567" lon="7.8581839"><ele>290.33333333333337</ele><time>2026-04-12T09:44:47.321Z</time></trkpt><trkpt lat="44.649739" lon="7.8581917"><ele>290.6666666666667</ele><time>2026-04-12T09:44:50.321Z</time></trkpt><trkpt lat="44.6498301" lon="7.8581878"><ele>291.0</ele><time>2026-04-12T09:44:53.321Z</time></trkpt><trkpt lat="44.6498932" lon="7.8581801"><ele>291.3333333333333</ele><time>2026-04-12T09:44:55.321Z</time></trkpt><trkpt lat="44.6499577" lon="7.8581781"><ele>291.66666666666663</ele><time>2026-04-12T09:44:57.322Z</time></trkpt><trkpt lat="44.6500448" lon="7.8581761"><ele>292.0</ele><time>2026-04-12T09:45:00.321Z</time></trkpt><trkpt lat="44.6501269" lon="7.8581826"><ele>292.0</ele><time>2026-04-12T09:45:03.322Z</time></trkpt><trkpt lat="44.6502036" lon="7.8581765"><ele>292.0</ele><time>2026-04-12T09:45:06.322Z</time></trkpt><trkpt lat="44.6502689" lon="7.8581666"><ele>292.0</ele><time>2026-04-12T09:45:09.321Z</time></trkpt><trkpt lat="44.6503559" lon="7.8581642"><ele>292.0</ele><time>2026-04-12T09:45:13.322Z</time></trkpt><trkpt lat="44.6504288" lon="7.8581518"><ele>292.0</ele><time>2026-04-12T09:45:16.322Z</time></trkpt><trkpt lat="44.6505113" lon="7.8581371"><ele>292.0</ele><time>2026-04-12T09:45:19.321Z</time></trkpt><trkpt lat="44.650606" lon="7.8581358"><ele>292.3333333333333</ele><time>2026-04-12T09:45:22.322Z</time></trkpt><trkpt lat="44.6506979" lon="7.8581404"><ele>292.66666666666663</ele><time>2026-04-12T09:45:25.322Z</time></trkpt><trkpt lat="44.6507934" lon="7.8581393"><ele>293.0</ele><time>2026-04-12T09:45:28.322Z</time></trkpt><trkpt lat="44.6508611" lon="7.8581349"><ele>293.3333333333333</ele><time>2026-04-12T09:45:30.322Z</time></trkpt><trkpt lat="44.6509257" lon="7.8581286"><ele>293.6666666666667</ele><time>2026-04-12T09:45:32.321Z</time></trkpt><trkpt lat="44.6510016" lon="7.8581204"><ele>294.0</ele><time>2026-04-12T09:45:35.322Z</time></trkpt><trkpt lat="44.6510982" lon="7.8581247"><ele>293.85714285714283</ele><time>2026-04-12T09:45:38.321Z</time></trkpt><trkpt lat="44.6511703" lon="7.8581351"><ele>293.7142857142857</ele><time>2026-04-12T09:45:40.322Z</time></trkpt><trkpt lat="44.6512389" lon="7.8581251"><ele>293.57142857142856</ele><time>2026-04-12T09:45:42.322Z</time></trkpt><trkpt lat="44.6513044" lon="7.8581193"><ele>293.42857142857144</ele><time>2026-04-12T09:45:44.321Z</time></trkpt><trkpt lat="44.6513752" lon="7.8581148"><ele>293.2857142857143</ele><time>2026-04-12T09:45:46.322Z</time></trkpt><trkpt lat="44.6514409" lon="7.8581182"><ele>293.1428571428571</ele><time>2026-04-12T09:45:48.321Z</time></trkpt><trkpt lat="44.6515309" lon="7.8581112"><ele>293.0</ele><time>2026-04-12T09:45:51.322Z</time></trkpt><trkpt lat="44.6515955" lon="7.8581028"><ele>293.0</ele><time>2026-04-12T09:45:53.322Z</time></trkpt><trkpt lat="44.6516615" lon="7.8581018"><ele>293.0</ele><time>2026-04-12T09:45:55.321Z</time></trkpt><trkpt lat="44.6517561" lon="7.8580914"><ele>293.0</ele><time>2026-04-12T09:45:58.321Z</time></trkpt><trkpt lat="44.6518433" lon="7.8580749"><ele>293.0</ele><time>2026-04-12T09:46:01.322Z</time></trkpt><trkpt lat="44.6519208" lon="7.8580563"><ele>293.0</ele><time>2026-04-12T09:46:04.322Z</time></trkpt><trkpt lat="44.6519928" lon="7.8580397"><ele>293.0</ele><time>2026-04-12T09:46:07.321Z</time></trkpt><trkpt lat="44.6520641" lon="7.8580453"><ele>292.99999999999994</ele><time>2026-04-12T09:46:10.321Z</time></trkpt><trkpt lat="44.6521301" lon="7.8580415"><ele>293.0</ele><time>2026-04-12T09:46:13.322Z</time></trkpt><trkpt lat="44.6521959" lon="7.8580448"><ele>293.0</ele><time>2026-04-12T09:46:17.322Z</time></trkpt><trkpt lat="44.652268" lon="7.8580344"><ele>293.0</ele><time>2026-04-12T09:46:21.322Z</time></trkpt><trkpt lat="44.6523517" lon="7.8580277"><ele>293.0</ele><time>2026-04-12T09:46:25.322Z</time></trkpt><trkpt lat="44.652423" lon="7.8580298"><ele>292.99999999999994</ele><time>2026-04-12T09:46:28.322Z</time></trkpt><trkpt lat="44.6524923" lon="7.8580387"><ele>293.0</ele><time>2026-04-12T09:46:31.322Z</time></trkpt><trkpt lat="44.6525622" lon="7.8580372"><ele>292.99999999999994</ele><time>2026-04-12T09:46:34.321Z</time></trkpt><trkpt lat="44.6526302" lon="7.8580301"><ele>293.0</ele><time>2026-04-12T09:46:37.322Z</time></trkpt><trkpt lat="44.652696" lon="7.8580198"><ele>293.0</ele><time>2026-04-12T09:46:40.322Z</time></trkpt><trkpt lat="44.6527612" lon="7.8579938"><ele>293.0</ele><time>2026-04-12T09:46:43.322Z</time></trkpt><trkpt lat="44.6528266" lon="7.8579853"><ele>293.0</ele><time>2026-04-12T09:46:46.322Z</time></trkpt><trkpt lat="44.6529042" lon="7.8579889"><ele>292.99999999999994</ele><time>2026-04-12T09:46:50.321Z</time></trkpt><trkpt lat="44.6529634" lon="7.8580309"><ele>293.0</ele><time>2026-04-12T09:46:53.322Z</time></trkpt><trkpt lat="44.6530388" lon="7.858056"><ele>292.85714285714283</ele><time>2026-04-12T09:46:56.321Z</time></trkpt><trkpt lat="44.6531016" lon="7.858023"><ele>292.7142857142857</ele><time>2026-04-12T09:46:59.321Z</time></trkpt><trkpt lat="44.6531632" lon="7.8579852"><ele>292.57142857142856</ele><time>2026-04-12T09:47:02.321Z</time></trkpt><trkpt lat="44.6532306" lon="7.8579534"><ele>292.42857142857144</ele><time>2026-04-12T09:47:04.321Z</time></trkpt><trkpt lat="44.6532934" lon="7.8579432"><ele>292.2857142857143</ele><time>2026-04-12T09:47:06.321Z</time></trkpt><trkpt lat="44.6533703" lon="7.8579504"><ele>292.1428571428571</ele><time>2026-04-12T09:47:09.322Z</time></trkpt><trkpt lat="44.6534479" lon="7.8579631"><ele>292.0</ele><time>2026-04-12T09:47:12.321Z</time></trkpt><trkpt lat="44.6535181" lon="7.8579725"><ele>292.0</ele><time>2026-04-12T09:47:15.322Z</time></trkpt><trkpt lat="44.6535968" lon="7.8579667"><ele>292.0</ele><time>2026-04-12T09:47:19.322Z</time></trkpt><trkpt lat="44.653663" lon="7.8579491"><ele>292.0</ele><time>2026-04-12T09:47:22.322Z</time></trkpt><trkpt lat="44.6537383" lon="7.8579349"><ele>292.0</ele><time>2026-04-12T09:47:26.322Z</time></trkpt><trkpt lat="44.6538159" lon="7.8579479"><ele>292.0</ele><time>2026-04-12T09:47:30.322Z</time></trkpt><trkpt lat="44.6538791" lon="7.8579282"><ele>292.0</ele><time>2026-04-12T09:47:33.322Z</time></trkpt><trkpt lat="44.6539678" lon="7.8579157"><ele>292.0</ele><time>2026-04-12T09:47:36.322Z</time></trkpt><trkpt lat="44.6540548" lon="7.8579132"><ele>292.0</ele><time>2026-04-12T09:47:39.322Z</time></trkpt><trkpt lat="44.6541297" lon="7.857909"><ele>292.0</ele><time>2026-04-12T09:47:42.322Z</time></trkpt><trkpt lat="44.6541994" lon="7.8579242"><ele>292.0</ele><time>2026-04-12T09:47:45.322Z</time></trkpt><trkpt lat="44.6542644" lon="7.8579234"><ele>292.0</ele><time>2026-04-12T09:47:48.322Z</time></trkpt><trkpt lat="44.6543289" lon="7.857911"><ele>292.0</ele><time>2026-04-12T09:47:52.321Z</time></trkpt><trkpt lat="44.6543972" lon="7.8579267"><ele>292.0</ele><time>2026-04-12T09:47:56.321Z</time></trkpt><trkpt lat="44.6544622" lon="7.85791"><ele>292.0</ele><time>2026-04-12T09:48:01.322Z</time></trkpt><trkpt lat="44.6545232" lon="7.8579488"><ele>292.0</ele><time>2026-04-12T09:48:30.322Z</time></trkpt><trkpt lat="44.6545947" lon="7.8579299"><ele>292.0</ele><time>2026-04-12T09:48:35.321Z</time></trkpt><trkpt lat="44.654524" lon="7.8579463"><ele>292.0</ele><time>2026-04-12T09:50:17.324Z</time></trkpt><trkpt lat="44.6544589" lon="7.857934"><ele>292.0</ele><time>2026-04-12T09:50:22.328Z</time></trkpt><trkpt lat="44.6543959" lon="7.8578997"><ele>292.0</ele><time>2026-04-12T09:50:26.327Z</time></trkpt><trkpt lat="44.6543317" lon="7.8578954"><ele>292.0</ele><time>2026-04-12T09:53:23.325Z</time></trkpt><trkpt lat="44.654253" lon="7.8579069"><ele>292.0</ele><time>2026-04-12T09:53:27.325Z</time></trkpt><trkpt lat="44.6541899" lon="7.8579126"><ele>292.0</ele><time>2026-04-12T09:53:30.325Z</time></trkpt><trkpt lat="44.6541259" lon="7.8579121"><ele>292.0</ele><time>2026-04-12T09:53:33.325Z</time></trkpt><trkpt lat="44.6540412" lon="7.8579232"><ele>292.0</ele><time>2026-04-12T09:53:37.324Z</time></trkpt><trkpt lat="44.653965" lon="7.8579239"><ele>292.0</ele><time>2026-04-12T09:53:40.325Z</time></trkpt><trkpt lat="44.653895" lon="7.8579286"><ele>292.0</ele><time>2026-04-12T09:53:43.325Z</time></trkpt><trkpt lat="44.6538217" lon="7.8579187"><ele>292.0</ele><time>2026-04-12T09:53:46.325Z</time></trkpt><trkpt lat="44.6537503" lon="7.8579134"><ele>292.0</ele><time>2026-04-12T09:53:49.324Z</time></trkpt><trkpt lat="44.6536821" lon="7.8579095"><ele>292.0</ele><time>2026-04-12T09:53:53.325Z</time></trkpt><trkpt lat="44.653606" lon="7.8579235"><ele>292.0</ele><time>2026-04-12T09:53:58.324Z</time></trkpt><trkpt lat="44.6535306" lon="7.8579607"><ele>292.0</ele><time>2026-04-12T09:54:03.325Z</time></trkpt><trkpt lat="44.6534618" lon="7.8579561"><ele>292.0</ele><time>2026-04-12T09:54:08.325Z</time></trkpt><trkpt lat="44.6533949" lon="7.8579468"><ele>292.0</ele><time>2026-04-12T09:54:15.324Z</time></trkpt><trkpt lat="44.6533303" lon="7.8579359"><ele>292.0</ele><time>2026-04-12T09:54:21.324Z</time></trkpt><trkpt lat="44.6532695" lon="7.8579842"><ele>292.0</ele><time>2026-04-12T09:55:06.323Z</time></trkpt><trkpt lat="44.6532076" lon="7.8579639"><ele>292.0</ele><time>2026-04-12T09:55:11.324Z</time></trkpt><trkpt lat="44.6531356" lon="7.8579424"><ele>292.0</ele><time>2026-04-12T09:55:15.326Z</time></trkpt><trkpt lat="44.6530675" lon="7.8579385"><ele>292.0</ele><time>2026-04-12T09:55:19.326Z</time></trkpt><trkpt lat="44.6529813" lon="7.8579491"><ele>292.0</ele><time>2026-04-12T09:55:23.323Z</time></trkpt><trkpt lat="44.6529119" lon="7.857958"><ele>292.0</ele><time>2026-04-12T09:55:27.323Z</time></trkpt><trkpt lat="44.6528303" lon="7.8579549"><ele>292.0</ele><time>2026-04-12T09:55:31.321Z</time></trkpt><trkpt lat="44.652751" lon="7.8579504"><ele>292.16666666666663</ele><time>2026-04-12T09:55:34.32Z</time></trkpt><trkpt lat="44.6526702" lon="7.8579521"><ele>292.3333333333333</ele><time>2026-04-12T09:55:37.319Z</time></trkpt><trkpt lat="44.6525807" lon="7.8579599"><ele>292.5</ele><time>2026-04-12T09:55:40.325Z</time></trkpt><trkpt lat="44.6524917" lon="7.8579553"><ele>292.6666666666667</ele><time>2026-04-12T09:55:43.32Z</time></trkpt><trkpt lat="44.652406" lon="7.8579595"><ele>292.83333333333337</ele><time>2026-04-12T09:55:46.323Z</time></trkpt><trkpt lat="44.6523288" lon="7.8579551"><ele>293.0</ele><time>2026-04-12T09:55:49.321Z</time></trkpt><trkpt lat="44.6522485" lon="7.857954"><ele>292.99999999999994</ele><time>2026-04-12T09:55:53.323Z</time></trkpt><trkpt lat="44.6521762" lon="7.8579192"><ele>293.0</ele><time>2026-04-12T09:55:57.323Z</time></trkpt><trkpt lat="44.6521185" lon="7.8578625"><ele>293.0</ele><time>2026-04-12T09:56:01.322Z</time></trkpt><trkpt lat="44.6521008" lon="7.8577731"><ele>293.0</ele><time>2026-04-12T09:56:07.323Z</time></trkpt><trkpt lat="44.6520745" lon="7.8576894"><ele>293.0</ele><time>2026-04-12T09:56:13.322Z</time></trkpt><trkpt lat="44.6520739" lon="7.8575858"><ele>292.99999999999994</ele><time>2026-04-12T09:56:17.323Z</time></trkpt><trkpt lat="44.6520712" lon="7.8574973"><ele>293.0</ele><time>2026-04-12T09:56:21.323Z</time></trkpt><trkpt lat="44.6520189" lon="7.857443"><ele>293.0</ele><time>2026-04-12T09:56:25.323Z</time></trkpt><trkpt lat="44.6519865" lon="7.8573386"><ele>293.0</ele><time>2026-04-12T09:56:33.322Z</time></trkpt><trkpt lat="44.6520032" lon="7.8574265"><ele>293.0</ele><time>2026-04-12T09:57:00.324Z</time></trkpt><trkpt lat="44.6520337" lon="7.8575267"><ele>293.0</ele><time>2026-04-12T09:57:03.326Z</time></trkpt><trkpt lat="44.65208" lon="7.8576692"><ele>293.0</ele><time>2026-04-12T09:57:06.321Z</time></trkpt><trkpt lat="44.6521092" lon="7.857766"><ele>293.0</ele><time>2026-04-12T09:57:10.326Z</time></trkpt><trkpt lat="44.6520989" lon="7.8578938"><ele>292.99999999999994</ele><time>2026-04-12T09:57:14.318Z</time></trkpt><trkpt lat="44.6521171" lon="7.8579967"><ele>293.0</ele><time>2026-04-12T09:57:19.317Z</time></trkpt><trkpt lat="44.6521389" lon="7.858083"><ele>293.0</ele><time>2026-04-12T09:57:28.318Z</time></trkpt><trkpt lat="44.6521229" lon="7.8581794"><ele>293.0</ele><time>2026-04-12T09:57:42.318Z</time></trkpt><trkpt lat="44.6521048" lon="7.8582716"><ele>293.0</ele><time>2026-04-12T09:57:51.325Z</time></trkpt><trkpt lat="44.6521236" lon="7.8583687"><ele>292.99999999999994</ele><time>2026-04-12T09:57:56.325Z</time></trkpt><trkpt lat="44.6521651" lon="7.8584569"><ele>293.0</ele><time>2026-04-12T09:58:01.324Z</time></trkpt><trkpt lat="44.6521539" lon="7.8585524"><ele>292.85714285714283</ele><time>2026-04-12T09:58:06.322Z</time></trkpt><trkpt lat="44.6521503" lon="7.8586431"><ele>292.7142857142857</ele><time>2026-04-12T09:58:11.327Z</time></trkpt><trkpt lat="44.6521517" lon="7.8587327"><ele>292.57142857142856</ele><time>2026-04-12T09:58:15.331Z</time></trkpt><trkpt lat="44.6521557" lon="7.8588238"><ele>292.42857142857144</ele><time>2026-04-12T09:58:20.327Z</time></trkpt><trkpt lat="44.6521507" lon="7.8589246"><ele>292.2857142857143</ele><time>2026-04-12T09:58:26.319Z</time></trkpt><trkpt lat="44.6521023" lon="7.8590043"><ele>292.1428571428571</ele><time>2026-04-12T09:58:47.319Z</time></trkpt><trkpt lat="44.6521174" lon="7.8589059"><ele>292.0</ele><time>2026-04-12T10:09:21.319Z</time></trkpt><trkpt lat="44.6521175" lon="7.858799"><ele>292.0</ele><time>2026-04-12T10:09:27.318Z</time></trkpt><trkpt lat="44.6521216" lon="7.8587012"><ele>292.0</ele><time>2026-04-12T10:09:33.318Z</time></trkpt><trkpt lat="44.6521335" lon="7.8586132"><ele>292.0</ele><time>2026-04-12T10:09:38.318Z</time></trkpt><trkpt lat="44.6521195" lon="7.8585172"><ele>292.0</ele><time>2026-04-12T10:09:43.318Z</time></trkpt><trkpt lat="44.6521104" lon="7.8584188"><ele>292.0</ele><time>2026-04-12T10:09:48.319Z</time></trkpt><trkpt lat="44.6520944" lon="7.8583316"><ele>292.0</ele><time>2026-04-12T10:09:53.318Z</time></trkpt><trkpt lat="44.652098" lon="7.858238"><ele>292.0</ele><time>2026-04-12T10:09:58.319Z</time></trkpt><trkpt lat="44.6520968" lon="7.858142"><ele>292.1428571428571</ele><time>2026-04-12T10:10:03.319Z</time></trkpt><trkpt lat="44.6521007" lon="7.8580389"><ele>292.2857142857143</ele><time>2026-04-12T10:10:09.318Z</time></trkpt><trkpt lat="44.6521668" lon="7.8580262"><ele>292.42857142857144</ele><time>2026-04-12T10:10:20.319Z</time></trkpt><trkpt lat="44.6522301" lon="7.857994"><ele>292.57142857142856</ele><time>2026-04-12T10:10:23.318Z</time></trkpt><trkpt lat="44.6523079" lon="7.8579986"><ele>292.7142857142857</ele><time>2026-04-12T10:10:26.318Z</time></trkpt><trkpt lat="44.6523742" lon="7.8580246"><ele>292.85714285714283</ele><time>2026-04-12T10:10:29.319Z</time></trkpt><trkpt lat="44.6524371" lon="7.8580385"><ele>293.0</ele><time>2026-04-12T10:10:32.319Z</time></trkpt><trkpt lat="44.6525087" lon="7.8580308"><ele>292.99999999999994</ele><time>2026-04-12T10:10:35.319Z</time></trkpt><trkpt lat="44.6525893" lon="7.8580308"><ele>293.0</ele><time>2026-04-12T10:10:39.319Z</time></trkpt><trkpt lat="44.6526697" lon="7.8580238"><ele>293.0</ele><time>2026-04-12T10:10:43.318Z</time></trkpt><trkpt lat="44.6527487" lon="7.8580174"><ele>293.0</ele><time>2026-04-12T10:10:47.318Z</time></trkpt><trkpt lat="44.6528113" lon="7.858006"><ele>293.0</ele><time>2026-04-12T10:10:50.319Z</time></trkpt><trkpt lat="44.652875" lon="7.8580035"><ele>292.99999999999994</ele><time>2026-04-12T10:10:53.319Z</time></trkpt><trkpt lat="44.652951" lon="7.8580238"><ele>293.0</ele><time>2026-04-12T10:10:57.319Z</time></trkpt><trkpt lat="44.6530179" lon="7.8580421"><ele>292.85714285714283</ele><time>2026-04-12T10:11:03.319Z</time></trkpt><trkpt lat="44.6530749" lon="7.8579932"><ele>292.7142857142857</ele><time>2026-04-12T10:11:09.318Z</time></trkpt><trkpt lat="44.6531322" lon="7.8579458"><ele>292.57142857142856</ele><time>2026-04-12T10:25:12.329Z</time></trkpt><trkpt lat="44.6532007" lon="7.8579439"><ele>292.42857142857144</ele><time>2026-04-12T10:25:16.329Z</time></trkpt><trkpt lat="44.6532659" lon="7.857943"><ele>292.2857142857143</ele><time>2026-04-12T10:25:19.329Z</time></trkpt><trkpt lat="44.653334" lon="7.8579448"><ele>292.1428571428571</ele><time>2026-04-12T10:25:22.328Z</time></trkpt><trkpt lat="44.653402" lon="7.8579424"><ele>292.0</ele><time>2026-04-12T10:25:25.328Z</time></trkpt><trkpt lat="44.6534788" lon="7.8579475"><ele>292.0</ele><time>2026-04-12T10:25:28.329Z</time></trkpt><trkpt lat="44.6535536" lon="7.857945"><ele>292.0</ele><time>2026-04-12T10:25:31.328Z</time></trkpt><trkpt lat="44.6536254" lon="7.8579442"><ele>292.0</ele><time>2026-04-12T10:25:34.329Z</time></trkpt><trkpt lat="44.6536921" lon="7.8579325"><ele>292.0</ele><time>2026-04-12T10:25:37.329Z</time></trkpt><trkpt lat="44.6537563" lon="7.8579285"><ele>292.0</ele><time>2026-04-12T10:25:40.329Z</time></trkpt><trkpt lat="44.6538254" lon="7.8579242"><ele>292.0</ele><time>2026-04-12T10:25:44.329Z</time></trkpt><trkpt lat="44.6538598" lon="7.8578115"><ele>292.0</ele><time>2026-04-12T10:25:49.329Z</time></trkpt><trkpt lat="44.6538477" lon="7.8576794"><ele>292.0</ele><time>2026-04-12T10:25:52.329Z</time></trkpt><trkpt lat="44.6538467" lon="7.8575804"><ele>292.0</ele><time>2026-04-12T10:25:54.328Z</time></trkpt><trkpt lat="44.6538451" lon="7.8574843"><ele>292.0</ele><time>2026-04-12T10:25:56.328Z</time></trkpt><trkpt lat="44.6538353" lon="7.8573836"><ele>292.0</ele><time>2026-04-12T10:25:58.329Z</time></trkpt><trkpt lat="44.6538324" lon="7.8572804"><ele>292.0</ele><time>2026-04-12T10:26:00.329Z</time></trkpt><trkpt lat="44.6538268" lon="7.8571725"><ele>292.0</ele><time>2026-04-12T10:26:02.329Z</time></trkpt><trkpt lat="44.6538305" lon="7.8570663"><ele>292.0</ele><time>2026-04-12T10:26:04.329Z</time></trkpt><trkpt lat="44.6538338" lon="7.8569689"><ele>292.0</ele><time>2026-04-12T10:26:06.329Z</time></trkpt><trkpt lat="44.6538332" lon="7.8568762"><ele>292.0</ele><time>2026-04-12T10:26:08.329Z</time></trkpt><trkpt lat="44.6538341" lon="7.8567763"><ele>292.0</ele><time>2026-04-12T10:26:10.328Z</time></trkpt><trkpt lat="44.65383" lon="7.8566708"><ele>292.0</ele><time>2026-04-12T10:26:12.328Z</time></trkpt><trkpt lat="44.6538264" lon="7.8565664"><ele>292.0</ele><time>2026-04-12T10:26:14.329Z</time></trkpt><trkpt lat="44.6538189" lon="7.8564593"><ele>292.0</ele><time>2026-04-12T10:26:16.328Z</time></trkpt><trkpt lat="44.6538173" lon="7.8563529"><ele>292.0</ele><time>2026-04-12T10:26:18.328Z</time></trkpt><trkpt lat="44.6538119" lon="7.8562514"><ele>292.1428571428571</ele><time>2026-04-12T10:26:20.329Z</time></trkpt><trkpt lat="44.6538049" lon="7.8561549"><ele>292.2857142857143</ele><time>2026-04-12T10:26:22.328Z</time></trkpt><trkpt lat="44.6537976" lon="7.8560559"><ele>292.42857142857144</ele><time>2026-04-12T10:26:24.329Z</time></trkpt><trkpt lat="44.6537903" lon="7.8559553"><ele>292.57142857142856</ele><time>2026-04-12T10:26:26.329Z</time></trkpt><trkpt lat="44.6537892" lon="7.8558551"><ele>292.7142857142857</ele><time>2026-04-12T10:26:28.328Z</time></trkpt><trkpt lat="44.6537817" lon="7.8557398"><ele>292.85714285714283</ele><time>2026-04-12T10:26:30.329Z</time></trkpt><trkpt lat="44.6537732" lon="7.8556245"><ele>293.0</ele><time>2026-04-12T10:26:32.329Z</time></trkpt><trkpt lat="44.65376" lon="7.8554981"><ele>292.33333333333337</ele><time>2026-04-12T10:26:34.329Z</time></trkpt><trkpt lat="44.6537517" lon="7.8553741"><ele>291.6666666666667</ele><time>2026-04-12T10:26:36.328Z</time></trkpt><trkpt lat="44.6537402" lon="7.8552597"><ele>291.0</ele><time>2026-04-12T10:26:38.328Z</time></trkpt><trkpt lat="44.6537339" lon="7.8551443"><ele>290.3333333333333</ele><time>2026-04-12T10:26:40.329Z</time></trkpt><trkpt lat="44.6537302" lon="7.8550277"><ele>289.66666666666663</ele><time>2026-04-12T10:26:42.329Z</time></trkpt><trkpt lat="44.6537152" lon="7.8549337"><ele>289.0</ele><time>2026-04-12T10:26:44.329Z</time></trkpt><trkpt lat="44.6537439" lon="7.8548245"><ele>287.59999999999997</ele><time>2026-04-12T10:26:56.329Z</time></trkpt><trkpt lat="44.6538109" lon="7.8547731"><ele>286.2</ele><time>2026-04-12T10:26:58.328Z</time></trkpt><trkpt lat="44.6538965" lon="7.8547128"><ele>284.79999999999995</ele><time>2026-04-12T10:27:00.329Z</time></trkpt><trkpt lat="44.6539935" lon="7.8546622"><ele>283.4</ele><time>2026-04-12T10:27:02.328Z</time></trkpt><trkpt lat="44.6540942" lon="7.854609"><ele>282.0</ele><time>2026-04-12T10:27:04.329Z</time></trkpt><trkpt lat="44.6541866" lon="7.8545504"><ele>282.0</ele><time>2026-04-12T10:27:06.328Z</time></trkpt><trkpt lat="44.6542774" lon="7.8544733"><ele>282.0</ele><time>2026-04-12T10:27:08.329Z</time></trkpt><trkpt lat="44.6543587" lon="7.8543832"><ele>282.0</ele><time>2026-04-12T10:27:10.328Z</time></trkpt><trkpt lat="44.6544308" lon="7.8542885"><ele>282.0</ele><time>2026-04-12T10:27:12.329Z</time></trkpt><trkpt lat="44.6544971" lon="7.8541958"><ele>282.0</ele><time>2026-04-12T10:27:14.329Z</time></trkpt><trkpt lat="44.6545722" lon="7.8540977"><ele>279.0</ele><time>2026-04-12T10:27:16.329Z</time></trkpt><trkpt lat="44.6546562" lon="7.854017"><ele>276.0</ele><time>2026-04-12T10:27:18.328Z</time></trkpt><trkpt lat="44.6547439" lon="7.8539634"><ele>273.0</ele><time>2026-04-12T10:27:20.329Z</time></trkpt><trkpt lat="44.6548328" lon="7.8539523"><ele>270.0</ele><time>2026-04-12T10:27:22.328Z</time></trkpt><trkpt lat="44.6549223" lon="7.8539941"><ele>267.0</ele><time>2026-04-12T10:27:24.329Z</time></trkpt><trkpt lat="44.6550116" lon="7.8540819"><ele>267.0</ele><time>2026-04-12T10:27:26.328Z</time></trkpt><trkpt lat="44.6550746" lon="7.8542016"><ele>267.0</ele><time>2026-04-12T10:27:28.329Z</time></trkpt><trkpt lat="44.6551303" lon="7.8543179"><ele>267.0</ele><time>2026-04-12T10:27:30.329Z</time></trkpt><trkpt lat="44.6551622" lon="7.8544418"><ele>267.0</ele><time>2026-04-12T10:27:32.329Z</time></trkpt><trkpt lat="44.6552063" lon="7.8545383"><ele>267.0</ele><time>2026-04-12T10:27:34.329Z</time></trkpt><trkpt lat="44.6552742" lon="7.8545929"><ele>267.0</ele><time>2026-04-12T10:27:36.328Z</time></trkpt><trkpt lat="44.6553375" lon="7.8545449"><ele>267.0</ele><time>2026-04-12T10:27:38.329Z</time></trkpt><trkpt lat="44.655352" lon="7.8544431"><ele>267.0</ele><time>2026-04-12T10:27:40.328Z</time></trkpt><trkpt lat="44.6553303" lon="7.8543246"><ele>267.0</ele><time>2026-04-12T10:27:42.329Z</time></trkpt><trkpt lat="44.6552864" lon="7.8541924"><ele>267.0</ele><time>2026-04-12T10:27:44.329Z</time></trkpt><trkpt lat="44.6552367" lon="7.8540676"><ele>267.0</ele><time>2026-04-12T10:27:46.329Z</time></trkpt><trkpt lat="44.6551916" lon="7.8539463"><ele>267.0</ele><time>2026-04-12T10:27:48.329Z</time></trkpt><trkpt lat="44.6551387" lon="7.8538266"><ele>267.0</ele><time>2026-04-12T10:27:50.329Z</time></trkpt><trkpt lat="44.6550949" lon="7.8537296"><ele>267.0</ele><time>2026-04-12T10:27:52.329Z</time></trkpt><trkpt lat="44.6550824" lon="7.8536412"><ele>267.0</ele><time>2026-04-12T10:27:54.329Z</time></trkpt><trkpt lat="44.6551383" lon="7.8535865"><ele>267.0</ele><time>2026-04-12T10:27:56.329Z</time></trkpt><trkpt lat="44.6552172" lon="7.8536402"><ele>267.0</ele><time>2026-04-12T10:27:58.329Z</time></trkpt><trkpt lat="44.6552783" lon="7.8537563"><ele>264.0</ele><time>2026-04-12T10:28:00.329Z</time></trkpt><trkpt lat="44.6553393" lon="7.8538743"><ele>261.0</ele><time>2026-04-12T10:28:02.329Z</time></trkpt><trkpt lat="44.6554056" lon="7.8539976"><ele>258.0</ele><time>2026-04-12T10:28:04.329Z</time></trkpt><trkpt lat="44.6554686" lon="7.8541265"><ele>255.0</ele><time>2026-04-12T10:28:06.328Z</time></trkpt><trkpt lat="44.6555315" lon="7.8542565"><ele>252.0</ele><time>2026-04-12T10:28:08.329Z</time></trkpt><trkpt lat="44.6555917" lon="7.8543843"><ele>252.0</ele><time>2026-04-12T10:28:10.329Z</time></trkpt><trkpt lat="44.6556556" lon="7.85452"><ele>252.0</ele><time>2026-04-12T10:28:12.329Z</time></trkpt><trkpt lat="44.6557211" lon="7.8546587"><ele>252.0</ele><time>2026-04-12T10:28:14.329Z</time></trkpt><trkpt lat="44.6557865" lon="7.8548058"><ele>252.0</ele><time>2026-04-12T10:28:16.328Z</time></trkpt><trkpt lat="44.6558494" lon="7.8549547"><ele>252.0</ele><time>2026-04-12T10:28:18.328Z</time></trkpt><trkpt lat="44.6558862" lon="7.8551125"><ele>252.0</ele><time>2026-04-12T10:28:20.328Z</time></trkpt><trkpt lat="44.6559147" lon="7.8552715"><ele>252.0</ele><time>2026-04-12T10:28:22.329Z</time></trkpt><trkpt lat="44.6559407" lon="7.855426"><ele>252.0</ele><time>2026-04-12T10:28:24.328Z</time></trkpt><trkpt lat="44.6559639" lon="7.8555856"><ele>252.75</ele><time>2026-04-12T10:28:26.329Z</time></trkpt><trkpt lat="44.6559916" lon="7.8557435"><ele>253.5</ele><time>2026-04-12T10:28:28.329Z</time></trkpt><trkpt lat="44.6560218" lon="7.855909"><ele>254.25</ele><time>2026-04-12T10:28:30.329Z</time></trkpt><trkpt lat="44.6560491" lon="7.8560761"><ele>255.0</ele><time>2026-04-12T10:28:32.329Z</time></trkpt><trkpt lat="44.6560726" lon="7.8562388"><ele>255.0</ele><time>2026-04-12T10:28:34.329Z</time></trkpt><trkpt lat="44.6561042" lon="7.8564077"><ele>255.0</ele><time>2026-04-12T10:28:36.328Z</time></trkpt><trkpt lat="44.6561244" lon="7.8565569"><ele>255.0</ele><time>2026-04-12T10:28:38.329Z</time></trkpt><trkpt lat="44.6561584" lon="7.8566813"><ele>255.0</ele><time>2026-04-12T10:28:40.329Z</time></trkpt><trkpt lat="44.6562363" lon="7.856736"><ele>255.0</ele><time>2026-04-12T10:28:42.329Z</time></trkpt><trkpt lat="44.6563278" lon="7.856703"><ele>247.6</ele><time>2026-04-12T10:28:44.329Z</time></trkpt><trkpt lat="44.6564168" lon="7.8566489"><ele>240.2</ele><time>2026-04-12T10:28:46.329Z</time></trkpt><trkpt lat="44.6565043" lon="7.8566028"><ele>232.8</ele><time>2026-04-12T10:28:48.329Z</time></trkpt><trkpt lat="44.6565841" lon="7.856553"><ele>225.4</ele><time>2026-04-12T10:28:50.329Z</time></trkpt><trkpt lat="44.6566638" lon="7.8564926"><ele>218.0</ele><time>2026-04-12T10:28:52.328Z</time></trkpt><trkpt lat="44.6567505" lon="7.8564414"><ele>218.00000000000003</ele><time>2026-04-12T10:28:54.329Z</time></trkpt><trkpt lat="44.6568354" lon="7.8563888"><ele>218.0</ele><time>2026-04-12T10:28:56.329Z</time></trkpt><trkpt lat="44.6569097" lon="7.8563461"><ele>218.0</ele><time>2026-04-12T10:28:58.329Z</time></trkpt><trkpt lat="44.6569843" lon="7.8563034"><ele>218.0</ele><time>2026-04-12T10:29:01.328Z</time></trkpt><trkpt lat="44.6570418" lon="7.8562673"><ele>218.00000000000003</ele><time>2026-04-12T10:29:04.329Z</time></trkpt><trkpt lat="44.6571077" lon="7.8562545"><ele>218.0</ele><time>2026-04-12T10:29:09.329Z</time></trkpt><trkpt lat="44.6571893" lon="7.8562684"><ele>217.00000000000003</ele><time>2026-04-12T10:29:42.328Z</time></trkpt><trkpt lat="44.6572558" lon="7.8562389"><ele>216.0</ele><time>2026-04-12T10:29:44.329Z</time></trkpt><trkpt lat="44.6573163" lon="7.8561857"><ele>215.0</ele><time>2026-04-12T10:29:46.328Z</time></trkpt><trkpt lat="44.6573825" lon="7.8561366"><ele>214.0</ele><time>2026-04-12T10:29:48.329Z</time></trkpt><trkpt lat="44.6574523" lon="7.8560867"><ele>213.00000000000003</ele><time>2026-04-12T10:29:50.329Z</time></trkpt><trkpt lat="44.6575283" lon="7.8560478"><ele>212.0</ele><time>2026-04-12T10:29:52.329Z</time></trkpt><trkpt lat="44.6576051" lon="7.8560127"><ele>212.00000000000003</ele><time>2026-04-12T10:29:54.329Z</time></trkpt><trkpt lat="44.6576842" lon="7.8559838"><ele>212.0</ele><time>2026-04-12T10:29:56.329Z</time></trkpt><trkpt lat="44.6577656" lon="7.8559541"><ele>212.0</ele><time>2026-04-12T10:29:58.329Z</time></trkpt><trkpt lat="44.6578464" lon="7.8559271"><ele>212.0</ele><time>2026-04-12T10:30:00.329Z</time></trkpt><trkpt lat="44.6579266" lon="7.8559002"><ele>212.00000000000003</ele><time>2026-04-12T10:30:02.329Z</time></trkpt><trkpt lat="44.6580028" lon="7.8558715"><ele>212.0</ele><time>2026-04-12T10:30:04.329Z</time></trkpt><trkpt lat="44.6580826" lon="7.8558404"><ele>211.66666666666669</ele><time>2026-04-12T10:30:06.329Z</time></trkpt><trkpt lat="44.6581633" lon="7.8558088"><ele>211.33333333333334</ele><time>2026-04-12T10:30:08.328Z</time></trkpt><trkpt lat="44.6582446" lon="7.8557766"><ele>211.0</ele><time>2026-04-12T10:30:10.329Z</time></trkpt><trkpt lat="44.6583284" lon="7.8557427"><ele>210.66666666666669</ele><time>2026-04-12T10:30:12.328Z</time></trkpt><trkpt lat="44.6584149" lon="7.8557106"><ele>210.33333333333334</ele><time>2026-04-12T10:30:14.329Z</time></trkpt><trkpt lat="44.6584985" lon="7.8556781"><ele>210.0</ele><time>2026-04-12T10:30:16.328Z</time></trkpt><trkpt lat="44.6585815" lon="7.8556471"><ele>208.83333333333334</ele><time>2026-04-12T10:30:18.329Z</time></trkpt><trkpt lat="44.6586665" lon="7.8556156"><ele>207.66666666666669</ele><time>2026-04-12T10:30:20.329Z</time></trkpt><trkpt lat="44.6587519" lon="7.8555823"><ele>206.5</ele><time>2026-04-12T10:30:22.329Z</time></trkpt><trkpt lat="44.6588381" lon="7.8555495"><ele>205.33333333333334</ele><time>2026-04-12T10:30:24.329Z</time></trkpt><trkpt lat="44.6589241" lon="7.8555186"><ele>204.16666666666669</ele><time>2026-04-12T10:30:26.328Z</time></trkpt><trkpt lat="44.6590104" lon="7.855484"><ele>203.0</ele><time>2026-04-12T10:30:28.328Z</time></trkpt><trkpt lat="44.6590947" lon="7.8554448"><ele>203.00000000000003</ele><time>2026-04-12T10:30:30.329Z</time></trkpt><trkpt lat="44.6591794" lon="7.855409"><ele>203.0</ele><time>2026-04-12T10:30:32.328Z</time></trkpt><trkpt lat="44.6592642" lon="7.8553752"><ele>203.0</ele><time>2026-04-12T10:30:34.328Z</time></trkpt><trkpt lat="44.6593487" lon="7.8553409"><ele>203.0</ele><time>2026-04-12T10:30:36.329Z</time></trkpt><trkpt lat="44.6594306" lon="7.8553086"><ele>203.00000000000003</ele><time>2026-04-12T10:30:38.329Z</time></trkpt><trkpt lat="44.6595129" lon="7.8552754"><ele>203.0</ele><time>2026-04-12T10:30:40.328Z</time></trkpt><trkpt lat="44.6595954" lon="7.8552412"><ele>203.33333333333334</ele><time>2026-04-12T10:30:42.329Z</time></trkpt><trkpt lat="44.6596822" lon="7.8552104"><ele>203.66666666666669</ele><time>2026-04-12T10:30:44.329Z</time></trkpt><trkpt lat="44.6597647" lon="7.8551789"><ele>204.0</ele><time>2026-04-12T10:30:46.328Z</time></trkpt><trkpt lat="44.6598461" lon="7.8551506"><ele>204.33333333333331</ele><time>2026-04-12T10:30:48.329Z</time></trkpt><trkpt lat="44.6599217" lon="7.8551244"><ele>204.66666666666666</ele><time>2026-04-12T10:30:50.329Z</time></trkpt><trkpt lat="44.6599952" lon="7.8550967"><ele>205.0</ele><time>2026-04-12T10:30:52.329Z</time></trkpt><trkpt lat="44.6600695" lon="7.8550711"><ele>205.49999999999997</ele><time>2026-04-12T10:30:54.328Z</time></trkpt><trkpt lat="44.6601453" lon="7.8550427"><ele>206.0</ele><time>2026-04-12T10:30:56.329Z</time></trkpt><trkpt lat="44.6602183" lon="7.8550144"><ele>206.5</ele><time>2026-04-12T10:30:58.329Z</time></trkpt><trkpt lat="44.6602911" lon="7.8549853"><ele>207.0</ele><time>2026-04-12T10:31:00.328Z</time></trkpt><trkpt lat="44.6603647" lon="7.854959"><ele>207.49999999999997</ele><time>2026-04-12T10:31:02.329Z</time></trkpt><trkpt lat="44.6604391" lon="7.8549304"><ele>208.0</ele><time>2026-04-12T10:31:04.328Z</time></trkpt><trkpt lat="44.6605141" lon="7.8549034"><ele>207.99999999999997</ele><time>2026-04-12T10:31:06.329Z</time></trkpt><trkpt lat="44.6605866" lon="7.8548751"><ele>208.0</ele><time>2026-04-12T10:31:08.329Z</time></trkpt><trkpt lat="44.6606605" lon="7.8548488"><ele>208.0</ele><time>2026-04-12T10:31:10.329Z</time></trkpt><trkpt lat="44.6607368" lon="7.8548213"><ele>208.0</ele><time>2026-04-12T10:31:12.328Z</time></trkpt><trkpt lat="44.6608119" lon="7.8547926"><ele>207.99999999999997</ele><time>2026-04-12T10:31:14.328Z</time></trkpt><trkpt lat="44.6608842" lon="7.8547684"><ele>208.0</ele><time>2026-04-12T10:31:16.329Z</time></trkpt><trkpt lat="44.6609574" lon="7.8547523"><ele>208.0</ele><time>2026-04-12T10:31:18.329Z</time></trkpt><trkpt lat="44.661032" lon="7.8547382"><ele>208.0</ele><time>2026-04-12T10:31:20.328Z</time></trkpt><trkpt lat="44.6611062" lon="7.8547265"><ele>208.0</ele><time>2026-04-12T10:31:22.329Z</time></trkpt><trkpt lat="44.6611762" lon="7.8547131"><ele>208.0</ele><time>2026-04-12T10:31:24.328Z</time></trkpt><trkpt lat="44.6612424" lon="7.8546983"><ele>208.0</ele><time>2026-04-12T10:31:26.329Z</time></trkpt><trkpt lat="44.6613104" lon="7.8546891"><ele>208.0</ele><time>2026-04-12T10:31:28.329Z</time></trkpt><trkpt lat="44.6613772" lon="7.8546784"><ele>208.0</ele><time>2026-04-12T10:31:30.329Z</time></trkpt><trkpt lat="44.6614431" lon="7.8546692"><ele>209.42857142857142</ele><time>2026-04-12T10:31:32.329Z</time></trkpt><trkpt lat="44.6615089" lon="7.8546649"><ele>210.85714285714286</ele><time>2026-04-12T10:31:34.329Z</time></trkpt><trkpt lat="44.6615741" lon="7.8546558"><ele>212.28571428571428</ele><time>2026-04-12T10:31:36.329Z</time></trkpt><trkpt lat="44.6616406" lon="7.854647"><ele>213.71428571428572</ele><time>2026-04-12T10:31:38.329Z</time></trkpt><trkpt lat="44.6617087" lon="7.8546408"><ele>215.14285714285717</ele><time>2026-04-12T10:31:40.328Z</time></trkpt><trkpt lat="44.6617757" lon="7.8546368"><ele>216.57142857142858</ele><time>2026-04-12T10:31:42.329Z</time></trkpt><trkpt lat="44.6618398" lon="7.8546305"><ele>218.0</ele><time>2026-04-12T10:31:44.329Z</time></trkpt><trkpt lat="44.6619299" lon="7.8546293"><ele>217.83333333333334</ele><time>2026-04-12T10:31:47.329Z</time></trkpt><trkpt lat="44.6620095" lon="7.8546354"><ele>217.66666666666669</ele><time>2026-04-12T10:31:50.329Z</time></trkpt><trkpt lat="44.6620702" lon="7.8546617"><ele>217.5</ele><time>2026-04-12T10:31:53.328Z</time></trkpt><trkpt lat="44.6621523" lon="7.8547237"><ele>217.33333333333331</ele><time>2026-04-12T10:31:57.328Z</time></trkpt><trkpt lat="44.6622134" lon="7.8547882"><ele>217.16666666666666</ele><time>2026-04-12T10:31:59.329Z</time></trkpt><trkpt lat="44.6622766" lon="7.8548438"><ele>217.0</ele><time>2026-04-12T10:32:01.329Z</time></trkpt><trkpt lat="44.6623452" lon="7.8548764"><ele>217.0</ele><time>2026-04-12T10:32:03.328Z</time></trkpt><trkpt lat="44.6624095" lon="7.8548961"><ele>217.0</ele><time>2026-04-12T10:32:05.328Z</time></trkpt><trkpt lat="44.6624953" lon="7.8548509"><ele>217.0</ele><time>2026-04-12T10:32:07.329Z</time></trkpt><trkpt lat="44.6625667" lon="7.8548664"><ele>217.0</ele><time>2026-04-12T10:32:09.329Z</time></trkpt><trkpt lat="44.6626362" lon="7.8548893"><ele>217.0</ele><time>2026-04-12T10:32:11.329Z</time></trkpt><trkpt lat="44.662697" lon="7.8549424"><ele>217.0</ele><time>2026-04-12T10:32:13.329Z</time></trkpt><trkpt lat="44.6627485" lon="7.8550126"><ele>217.0</ele><time>2026-04-12T10:32:15.329Z</time></trkpt><trkpt lat="44.6627672" lon="7.85511"><ele>216.85714285714286</ele><time>2026-04-12T10:32:17.329Z</time></trkpt><trkpt lat="44.662765" lon="7.8552157"><ele>216.71428571428572</ele><time>2026-04-12T10:32:19.328Z</time></trkpt><trkpt lat="44.6627647" lon="7.8553221"><ele>216.57142857142856</ele><time>2026-04-12T10:32:21.329Z</time></trkpt><trkpt lat="44.6627636" lon="7.8554244"><ele>216.42857142857144</ele><time>2026-04-12T10:32:23.328Z</time></trkpt><trkpt lat="44.6627631" lon="7.855524"><ele>216.28571428571428</ele><time>2026-04-12T10:32:25.329Z</time></trkpt><trkpt lat="44.6627683" lon="7.8556262"><ele>216.14285714285714</ele><time>2026-04-12T10:32:27.329Z</time></trkpt><trkpt lat="44.662777" lon="7.8557278"><ele>216.0</ele><time>2026-04-12T10:32:29.328Z</time></trkpt><trkpt lat="44.6627857" lon="7.8558328"><ele>216.0</ele><time>2026-04-12T10:32:31.329Z</time></trkpt><trkpt lat="44.6627973" lon="7.8559395"><ele>216.0</ele><time>2026-04-12T10:32:33.329Z</time></trkpt><trkpt lat="44.6628139" lon="7.8560473"><ele>216.0</ele><time>2026-04-12T10:32:35.329Z</time></trkpt><trkpt lat="44.6628325" lon="7.8561596"><ele>216.0</ele><time>2026-04-12T10:32:37.329Z</time></trkpt><trkpt lat="44.6628505" lon="7.8562676"><ele>216.0</ele><time>2026-04-12T10:32:39.329Z</time></trkpt><trkpt lat="44.6628707" lon="7.8563758"><ele>216.0</ele><time>2026-04-12T10:32:41.328Z</time></trkpt><trkpt lat="44.6628852" lon="7.8564868"><ele>216.0</ele><time>2026-04-12T10:32:43.329Z</time></trkpt><trkpt lat="44.6629129" lon="7.8565948"><ele>216.0</ele><time>2026-04-12T10:32:45.329Z</time></trkpt><trkpt lat="44.6629348" lon="7.8567036"><ele>216.0</ele><time>2026-04-12T10:32:47.329Z</time></trkpt><trkpt lat="44.6629535" lon="7.8568156"><ele>216.0</ele><time>2026-04-12T10:32:49.329Z</time></trkpt><trkpt lat="44.6629783" lon="7.8569351"><ele>216.0</ele><time>2026-04-12T10:32:51.328Z</time></trkpt><trkpt lat="44.6629877" lon="7.8570589"><ele>216.0</ele><time>2026-04-12T10:32:53.329Z</time></trkpt><trkpt lat="44.6629854" lon="7.8571883"><ele>216.0</ele><time>2026-04-12T10:32:55.329Z</time></trkpt><trkpt lat="44.6629883" lon="7.8573194"><ele>216.00000000000003</ele><time>2026-04-12T10:32:57.329Z</time></trkpt><trkpt lat="44.6629871" lon="7.8574451"><ele>216.00000000000003</ele><time>2026-04-12T10:32:59.329Z</time></trkpt><trkpt lat="44.6629952" lon="7.8575762"><ele>216.0</ele><time>2026-04-12T10:33:01.328Z</time></trkpt><trkpt lat="44.663008" lon="7.8577102"><ele>216.0</ele><time>2026-04-12T10:33:03.329Z</time></trkpt><trkpt lat="44.663021" lon="7.8578522"><ele>216.0</ele><time>2026-04-12T10:33:05.329Z</time></trkpt><trkpt lat="44.6630337" lon="7.8580003"><ele>216.00000000000003</ele><time>2026-04-12T10:33:07.329Z</time></trkpt><trkpt lat="44.6630439" lon="7.8581564"><ele>216.00000000000003</ele><time>2026-04-12T10:33:09.329Z</time></trkpt><trkpt lat="44.6630669" lon="7.8583142"><ele>216.0</ele><time>2026-04-12T10:33:11.329Z</time></trkpt><trkpt lat="44.663092" lon="7.8584664"><ele>216.0</ele><time>2026-04-12T10:33:13.329Z</time></trkpt><trkpt lat="44.6631171" lon="7.858621"><ele>215.8</ele><time>2026-04-12T10:33:15.329Z</time></trkpt><trkpt lat="44.6631339" lon="7.8587745"><ele>215.60000000000002</ele><time>2026-04-12T10:33:17.329Z</time></trkpt><trkpt lat="44.6631555" lon="7.8589191"><ele>215.4</ele><time>2026-04-12T10:33:19.329Z</time></trkpt><trkpt lat="44.663174" lon="7.8590665"><ele>215.2</ele><time>2026-04-12T10:33:21.329Z</time></trkpt><trkpt lat="44.6632018" lon="7.8592174"><ele>215.0</ele><time>2026-04-12T10:33:23.329Z</time></trkpt><trkpt lat="44.6632477" lon="7.8593456"><ele>215.0</ele><time>2026-04-12T10:33:25.329Z</time></trkpt><trkpt lat="44.6632963" lon="7.8594744"><ele>215.0</ele><time>2026-04-12T10:33:27.329Z</time></trkpt><trkpt lat="44.6633444" lon="7.859599"><ele>215.0</ele><time>2026-04-12T10:33:29.329Z</time></trkpt><trkpt lat="44.6633913" lon="7.8597176"><ele>215.0</ele><time>2026-04-12T10:33:31.329Z</time></trkpt><trkpt lat="44.6634324" lon="7.8598396"><ele>215.0</ele><time>2026-04-12T10:33:33.328Z</time></trkpt><trkpt lat="44.6634738" lon="7.8599582"><ele>215.00000000000003</ele><time>2026-04-12T10:33:35.329Z</time></trkpt><trkpt lat="44.6635094" lon="7.8600687"><ele>215.0</ele><time>2026-04-12T10:33:37.328Z</time></trkpt><trkpt lat="44.6635483" lon="7.8601781"><ele>215.0</ele><time>2026-04-12T10:33:39.329Z</time></trkpt><trkpt lat="44.6635898" lon="7.8602873"><ele>215.0</ele><time>2026-04-12T10:33:41.328Z</time></trkpt><trkpt lat="44.6636315" lon="7.8603961"><ele>215.00000000000003</ele><time>2026-04-12T10:33:43.329Z</time></trkpt><trkpt lat="44.6636753" lon="7.8605033"><ele>215.0</ele><time>2026-04-12T10:33:45.329Z</time></trkpt><trkpt lat="44.6637153" lon="7.8606147"><ele>215.00000000000003</ele><time>2026-04-12T10:33:47.329Z</time></trkpt><trkpt lat="44.6637521" lon="7.8607266"><ele>215.0</ele><time>2026-04-12T10:33:49.329Z</time></trkpt><trkpt lat="44.6637897" lon="7.8608295"><ele>215.0</ele><time>2026-04-12T10:33:51.329Z</time></trkpt><trkpt lat="44.663826" lon="7.8609269"><ele>215.0</ele><time>2026-04-12T10:33:53.329Z</time></trkpt><trkpt lat="44.663864" lon="7.8610243"><ele>215.00000000000003</ele><time>2026-04-12T10:33:55.328Z</time></trkpt><trkpt lat="44.6639025" lon="7.8611175"><ele>215.0</ele><time>2026-04-12T10:33:57.329Z</time></trkpt><trkpt lat="44.6639406" lon="7.8612077"><ele>215.0</ele><time>2026-04-12T10:33:59.329Z</time></trkpt><trkpt lat="44.6639751" lon="7.861293"><ele>215.0</ele><time>2026-04-12T10:34:01.329Z</time></trkpt><trkpt lat="44.6640138" lon="7.8613716"><ele>215.0</ele><time>2026-04-12T10:34:03.329Z</time></trkpt><trkpt lat="44.6640532" lon="7.8614476"><ele>215.0</ele><time>2026-04-12T10:34:05.329Z</time></trkpt><trkpt lat="44.6640981" lon="7.8615319"><ele>215.0</ele><time>2026-04-12T10:34:07.329Z</time></trkpt><trkpt lat="44.6641403" lon="7.8616177"><ele>215.0</ele><time>2026-04-12T10:34:09.329Z</time></trkpt><trkpt lat="44.6641703" lon="7.8617177"><ele>215.0</ele><time>2026-04-12T10:34:11.329Z</time></trkpt><trkpt lat="44.6642003" lon="7.8618146"><ele>214.85714285714286</ele><time>2026-04-12T10:34:13.329Z</time></trkpt><trkpt lat="44.6642294" lon="7.8619043"><ele>214.71428571428572</ele><time>2026-04-12T10:34:15.329Z</time></trkpt><trkpt lat="44.664257" lon="7.862001"><ele>214.57142857142858</ele><time>2026-04-12T10:34:17.329Z</time></trkpt><trkpt lat="44.6642874" lon="7.8620978"><ele>214.42857142857144</ele><time>2026-04-12T10:34:19.329Z</time></trkpt><trkpt lat="44.6643174" lon="7.8621942"><ele>214.28571428571428</ele><time>2026-04-12T10:34:21.328Z</time></trkpt><trkpt lat="44.6643498" lon="7.8622858"><ele>214.14285714285717</ele><time>2026-04-12T10:34:23.329Z</time></trkpt><trkpt lat="44.6643819" lon="7.8623832"><ele>214.0</ele><time>2026-04-12T10:34:25.329Z</time></trkpt><trkpt lat="44.6644146" lon="7.8624759"><ele>213.99999999999997</ele><time>2026-04-12T10:34:27.329Z</time></trkpt><trkpt lat="44.6644445" lon="7.8625564"><ele>214.0</ele><time>2026-04-12T10:34:29.329Z</time></trkpt><trkpt lat="44.6644844" lon="7.8626781"><ele>214.0</ele><time>2026-04-12T10:34:32.329Z</time></trkpt><trkpt lat="44.6645158" lon="7.8627699"><ele>214.0</ele><time>2026-04-12T10:34:34.329Z</time></trkpt><trkpt lat="44.6645465" lon="7.8628658"><ele>213.99999999999997</ele><time>2026-04-12T10:34:36.328Z</time></trkpt><trkpt lat="44.6645765" lon="7.8629644"><ele>214.0</ele><time>2026-04-12T10:34:38.329Z</time></trkpt><trkpt lat="44.664607" lon="7.8630556"><ele>213.85714285714286</ele><time>2026-04-12T10:34:40.328Z</time></trkpt><trkpt lat="44.6646331" lon="7.8631422"><ele>213.71428571428572</ele><time>2026-04-12T10:34:42.329Z</time></trkpt><trkpt lat="44.6646614" lon="7.8632346"><ele>213.57142857142856</ele><time>2026-04-12T10:34:44.329Z</time></trkpt><trkpt lat="44.6646937" lon="7.8633323"><ele>213.42857142857144</ele><time>2026-04-12T10:34:46.328Z</time></trkpt><trkpt lat="44.6647246" lon="7.8634265"><ele>213.28571428571428</ele><time>2026-04-12T10:34:48.329Z</time></trkpt><trkpt lat="44.6647547" lon="7.863512"><ele>213.14285714285714</ele><time>2026-04-12T10:34:50.329Z</time></trkpt><trkpt lat="44.6647868" lon="7.8636"><ele>213.0</ele><time>2026-04-12T10:34:52.329Z</time></trkpt><trkpt lat="44.6648224" lon="7.8636941"><ele>212.99999999999997</ele><time>2026-04-12T10:34:54.329Z</time></trkpt><trkpt lat="44.6648566" lon="7.8637815"><ele>213.0</ele><time>2026-04-12T10:34:56.329Z</time></trkpt><trkpt lat="44.6648894" lon="7.8638631"><ele>213.0</ele><time>2026-04-12T10:34:58.329Z</time></trkpt><trkpt lat="44.6649204" lon="7.8639482"><ele>213.0</ele><time>2026-04-12T10:35:00.329Z</time></trkpt><trkpt lat="44.664952" lon="7.8640397"><ele>213.0</ele><time>2026-04-12T10:35:02.329Z</time></trkpt><trkpt lat="44.6649861" lon="7.8641358"><ele>212.99999999999997</ele><time>2026-04-12T10:35:04.328Z</time></trkpt><trkpt lat="44.6650189" lon="7.8642325"><ele>213.0</ele><time>2026-04-12T10:35:06.328Z</time></trkpt><trkpt lat="44.6650523" lon="7.8643378"><ele>212.99999999999997</ele><time>2026-04-12T10:35:08.329Z</time></trkpt><trkpt lat="44.6650874" lon="7.8644499"><ele>213.0</ele><time>2026-04-12T10:35:10.328Z</time></trkpt><trkpt lat="44.6651229" lon="7.8645426"><ele>213.0</ele><time>2026-04-12T10:35:12.329Z</time></trkpt><trkpt lat="44.6651566" lon="7.8646351"><ele>213.0</ele><time>2026-04-12T10:35:14.329Z</time></trkpt><trkpt lat="44.6651892" lon="7.8647286"><ele>213.0</ele><time>2026-04-12T10:35:16.329Z</time></trkpt><trkpt lat="44.6652229" lon="7.8648166"><ele>212.99999999999997</ele><time>2026-04-12T10:35:18.329Z</time></trkpt><trkpt lat="44.6652532" lon="7.8648986"><ele>213.0</ele><time>2026-04-12T10:35:20.329Z</time></trkpt><trkpt lat="44.6652827" lon="7.8649835"><ele>212.99999999999997</ele><time>2026-04-12T10:35:22.329Z</time></trkpt><trkpt lat="44.6653182" lon="7.8650764"><ele>213.0</ele><time>2026-04-12T10:35:24.329Z</time></trkpt><trkpt lat="44.6653546" lon="7.8651681"><ele>213.0</ele><time>2026-04-12T10:35:26.329Z</time></trkpt><trkpt lat="44.6653932" lon="7.8652558"><ele>213.0</ele><time>2026-04-12T10:35:28.329Z</time></trkpt><trkpt lat="44.6654285" lon="7.8653476"><ele>213.0</ele><time>2026-04-12T10:35:30.328Z</time></trkpt><trkpt lat="44.6654652" lon="7.8654394"><ele>212.99999999999997</ele><time>2026-04-12T10:35:32.328Z</time></trkpt><trkpt lat="44.6654957" lon="7.8655312"><ele>213.0</ele><time>2026-04-12T10:35:34.329Z</time></trkpt><trkpt lat="44.665524" lon="7.8656126"><ele>212.83333333333334</ele><time>2026-04-12T10:35:36.328Z</time></trkpt><trkpt lat="44.6655693" lon="7.8657247"><ele>212.66666666666669</ele><time>2026-04-12T10:35:39.329Z</time></trkpt><trkpt lat="44.6655983" lon="7.8658061"><ele>212.5</ele><time>2026-04-12T10:35:41.329Z</time></trkpt><trkpt lat="44.6656398" lon="7.8659231"><ele>212.33333333333334</ele><time>2026-04-12T10:35:44.328Z</time></trkpt><trkpt lat="44.6656815" lon="7.8660322"><ele>212.16666666666669</ele><time>2026-04-12T10:35:47.329Z</time></trkpt><trkpt lat="44.665717" lon="7.8661126"><ele>212.0</ele><time>2026-04-12T10:35:49.329Z</time></trkpt><trkpt lat="44.6657535" lon="7.8661972"><ele>212.0</ele><time>2026-04-12T10:35:51.328Z</time></trkpt><trkpt lat="44.6657923" lon="7.8662815"><ele>212.0</ele><time>2026-04-12T10:35:53.329Z</time></trkpt><trkpt lat="44.6658326" lon="7.8663614"><ele>212.0</ele><time>2026-04-12T10:35:55.328Z</time></trkpt><trkpt lat="44.6658756" lon="7.8664481"><ele>212.0</ele><time>2026-04-12T10:35:57.329Z</time></trkpt><trkpt lat="44.6659148" lon="7.8665326"><ele>212.0</ele><time>2026-04-12T10:35:59.328Z</time></trkpt><trkpt lat="44.6659478" lon="7.8666102"><ele>212.0</ele><time>2026-04-12T10:36:01.329Z</time></trkpt><trkpt lat="44.6659899" lon="7.8667196"><ele>212.0</ele><time>2026-04-12T10:36:04.328Z</time></trkpt><trkpt lat="44.6660299" lon="7.866836"><ele>212.00000000000003</ele><time>2026-04-12T10:36:07.328Z</time></trkpt><trkpt lat="44.6660619" lon="7.8669229"><ele>212.0</ele><time>2026-04-12T10:36:09.328Z</time></trkpt><trkpt lat="44.6661021" lon="7.8670289"><ele>212.0</ele><time>2026-04-12T10:36:11.329Z</time></trkpt><trkpt lat="44.6661478" lon="7.8671211"><ele>212.0</ele><time>2026-04-12T10:36:13.329Z</time></trkpt><trkpt lat="44.666183" lon="7.8672163"><ele>212.00000000000003</ele><time>2026-04-12T10:36:15.329Z</time></trkpt><trkpt lat="44.6662174" lon="7.8673074"><ele>212.0</ele><time>2026-04-12T10:36:17.329Z</time></trkpt><trkpt lat="44.6662528" lon="7.8673924"><ele>212.0</ele><time>2026-04-12T10:36:19.329Z</time></trkpt><trkpt lat="44.6662915" lon="7.867479"><ele>212.0</ele><time>2026-04-12T10:36:21.328Z</time></trkpt><trkpt lat="44.6663284" lon="7.8675654"><ele>212.0</ele><time>2026-04-12T10:36:23.329Z</time></trkpt><trkpt lat="44.6663606" lon="7.8676477"><ele>212.0</ele><time>2026-04-12T10:36:25.328Z</time></trkpt><trkpt lat="44.6663928" lon="7.8677358"><ele>212.0</ele><time>2026-04-12T10:36:27.329Z</time></trkpt><trkpt lat="44.6664242" lon="7.8678255"><ele>212.0</ele><time>2026-04-12T10:36:29.329Z</time></trkpt><trkpt lat="44.6664524" lon="7.8679162"><ele>212.0</ele><time>2026-04-12T10:36:31.328Z</time></trkpt><trkpt lat="44.6664789" lon="7.8680129"><ele>212.00000000000003</ele><time>2026-04-12T10:36:33.328Z</time></trkpt><trkpt lat="44.6664981" lon="7.8681132"><ele>212.0</ele><time>2026-04-12T10:36:35.328Z</time></trkpt><trkpt lat="44.6665101" lon="7.8682166"><ele>212.0</ele><time>2026-04-12T10:36:37.329Z</time></trkpt><trkpt lat="44.6665193" lon="7.8683228"><ele>212.0</ele><time>2026-04-12T10:36:39.328Z</time></trkpt><trkpt lat="44.6665304" lon="7.8684245"><ele>212.00000000000003</ele><time>2026-04-12T10:36:41.328Z</time></trkpt><trkpt lat="44.6665589" lon="7.8685498"><ele>212.0</ele><time>2026-04-12T10:36:44.329Z</time></trkpt><trkpt lat="44.66658" lon="7.8686335"><ele>211.85714285714286</ele><time>2026-04-12T10:36:46.328Z</time></trkpt><trkpt lat="44.6666065" lon="7.8687148"><ele>211.7142857142857</ele><time>2026-04-12T10:36:48.328Z</time></trkpt><trkpt lat="44.6666309" lon="7.8687978"><ele>211.57142857142856</ele><time>2026-04-12T10:36:50.328Z</time></trkpt><trkpt lat="44.6666544" lon="7.8688832"><ele>211.42857142857144</ele><time>2026-04-12T10:36:52.329Z</time></trkpt><trkpt lat="44.6666758" lon="7.8689716"><ele>211.28571428571428</ele><time>2026-04-12T10:36:54.329Z</time></trkpt><trkpt lat="44.6667008" lon="7.8690623"><ele>211.14285714285714</ele><time>2026-04-12T10:36:56.329Z</time></trkpt><trkpt lat="44.6667338" lon="7.8691433"><ele>211.0</ele><time>2026-04-12T10:36:58.329Z</time></trkpt><trkpt lat="44.6667718" lon="7.8692542"><ele>210.83333333333331</ele><time>2026-04-12T10:37:01.328Z</time></trkpt><trkpt lat="44.6667972" lon="7.8693517"><ele>210.66666666666666</ele><time>2026-04-12T10:37:04.329Z</time></trkpt><trkpt lat="44.6668198" lon="7.8694536"><ele>210.5</ele><time>2026-04-12T10:37:07.328Z</time></trkpt><trkpt lat="44.6668325" lon="7.8695578"><ele>210.33333333333331</ele><time>2026-04-12T10:37:10.329Z</time></trkpt><trkpt lat="44.6668486" lon="7.8696639"><ele>210.16666666666666</ele><time>2026-04-12T10:37:13.329Z</time></trkpt><trkpt lat="44.666862" lon="7.8697673"><ele>210.0</ele><time>2026-04-12T10:37:16.328Z</time></trkpt><trkpt lat="44.6668754" lon="7.8698758"><ele>210.0</ele><time>2026-04-12T10:37:19.329Z</time></trkpt><trkpt lat="44.6668843" lon="7.8699858"><ele>210.0</ele><time>2026-04-12T10:37:22.329Z</time></trkpt><trkpt lat="44.6669025" lon="7.8701066"><ele>210.0</ele><time>2026-04-12T10:37:25.329Z</time></trkpt><trkpt lat="44.666915" lon="7.8702299"><ele>210.0</ele><time>2026-04-12T10:37:28.329Z</time></trkpt><trkpt lat="44.6669429" lon="7.8703362"><ele>210.0</ele><time>2026-04-12T10:37:31.329Z</time></trkpt><trkpt lat="44.6669726" lon="7.870435"><ele>210.0</ele><time>2026-04-12T10:37:34.329Z</time></trkpt><trkpt lat="44.6669979" lon="7.8705283"><ele>210.14285714285714</ele><time>2026-04-12T10:37:37.329Z</time></trkpt><trkpt lat="44.6670256" lon="7.8706208"><ele>210.28571428571428</ele><time>2026-04-12T10:37:40.329Z</time></trkpt><trkpt lat="44.6670553" lon="7.8707033"><ele>210.42857142857144</ele><time>2026-04-12T10:37:44.329Z</time></trkpt><trkpt lat="44.6670757" lon="7.870789"><ele>210.57142857142856</ele><time>2026-04-12T10:37:46.328Z</time></trkpt><trkpt lat="44.667094" lon="7.8708909"><ele>210.71428571428572</ele><time>2026-04-12T10:37:48.329Z</time></trkpt><trkpt lat="44.6671084" lon="7.8709925"><ele>210.85714285714286</ele><time>2026-04-12T10:37:50.329Z</time></trkpt><trkpt lat="44.6671274" lon="7.8710776"><ele>211.0</ele><time>2026-04-12T10:37:52.329Z</time></trkpt><trkpt lat="44.6671655" lon="7.8711768"><ele>210.99999999999997</ele><time>2026-04-12T10:37:55.329Z</time></trkpt><trkpt lat="44.6672422" lon="7.8711855"><ele>211.0</ele><time>2026-04-12T10:37:59.329Z</time></trkpt><trkpt lat="44.6673041" lon="7.8712379"><ele>211.0</ele><time>2026-04-12T10:38:02.328Z</time></trkpt><trkpt lat="44.667357" lon="7.8713316"><ele>211.0</ele><time>2026-04-12T10:38:05.329Z</time></trkpt><trkpt lat="44.667411" lon="7.8714374"><ele>210.99999999999997</ele><time>2026-04-12T10:38:08.329Z</time></trkpt><trkpt lat="44.6674587" lon="7.8715433"><ele>211.0</ele><time>2026-04-12T10:38:11.329Z</time></trkpt><trkpt lat="44.6675065" lon="7.8716518"><ele>211.0</ele><time>2026-04-12T10:38:14.329Z</time></trkpt><trkpt lat="44.6675385" lon="7.8717322"><ele>211.0</ele><time>2026-04-12T10:38:16.329Z</time></trkpt><trkpt lat="44.6675713" lon="7.8718101"><ele>211.0</ele><time>2026-04-12T10:38:18.329Z</time></trkpt><trkpt lat="44.6676045" lon="7.8718858"><ele>211.0</ele><time>2026-04-12T10:38:20.329Z</time></trkpt><trkpt lat="44.6676555" lon="7.8719862"><ele>211.0</ele><time>2026-04-12T10:38:23.329Z</time></trkpt><trkpt lat="44.6676921" lon="7.8720614"><ele>211.0</ele><time>2026-04-12T10:38:25.329Z</time></trkpt><trkpt lat="44.667749" lon="7.8721526"><ele>211.0</ele><time>2026-04-12T10:38:28.329Z</time></trkpt><trkpt lat="44.6678016" lon="7.8722592"><ele>210.85714285714286</ele><time>2026-04-12T10:38:31.329Z</time></trkpt><trkpt lat="44.6678382" lon="7.872338"><ele>210.71428571428572</ele><time>2026-04-12T10:38:33.329Z</time></trkpt><trkpt lat="44.6678745" lon="7.8724171"><ele>210.57142857142856</ele><time>2026-04-12T10:38:35.328Z</time></trkpt><trkpt lat="44.6678951" lon="7.8725019"><ele>210.42857142857144</ele><time>2026-04-12T10:38:37.328Z</time></trkpt><trkpt lat="44.6679238" lon="7.8726231"><ele>210.28571428571428</ele><time>2026-04-12T10:38:40.329Z</time></trkpt><trkpt lat="44.6679662" lon="7.8727234"><ele>210.14285714285714</ele><time>2026-04-12T10:38:43.328Z</time></trkpt><trkpt lat="44.6679911" lon="7.8728066"><ele>210.0</ele><time>2026-04-12T10:38:45.329Z</time></trkpt><trkpt lat="44.6680176" lon="7.8728943"><ele>210.0</ele><time>2026-04-12T10:38:47.329Z</time></trkpt><trkpt lat="44.668044" lon="7.8729835"><ele>210.0</ele><time>2026-04-12T10:38:49.329Z</time></trkpt><trkpt lat="44.6680722" lon="7.8730696"><ele>210.0</ele><time>2026-04-12T10:38:51.328Z</time></trkpt><trkpt lat="44.6681008" lon="7.8731546"><ele>210.0</ele><time>2026-04-12T10:38:53.329Z</time></trkpt><trkpt lat="44.6681174" lon="7.8732406"><ele>210.0</ele><time>2026-04-12T10:38:55.329Z</time></trkpt><trkpt lat="44.6681353" lon="7.8733283"><ele>210.0</ele><time>2026-04-12T10:38:57.328Z</time></trkpt><trkpt lat="44.668162" lon="7.8734231"><ele>210.0</ele><time>2026-04-12T10:38:59.328Z</time></trkpt><trkpt lat="44.6681852" lon="7.8735151"><ele>210.0</ele><time>2026-04-12T10:39:01.329Z</time></trkpt><trkpt lat="44.6682053" lon="7.8736097"><ele>210.0</ele><time>2026-04-12T10:39:03.328Z</time></trkpt><trkpt lat="44.6682253" lon="7.8737052"><ele>210.0</ele><time>2026-04-12T10:39:05.329Z</time></trkpt><trkpt lat="44.6682425" lon="7.8737951"><ele>210.0</ele><time>2026-04-12T10:39:07.329Z</time></trkpt><trkpt lat="44.6682621" lon="7.8738814"><ele>210.0</ele><time>2026-04-12T10:39:09.329Z</time></trkpt><trkpt lat="44.6682836" lon="7.8739759"><ele>210.0</ele><time>2026-04-12T10:39:11.329Z</time></trkpt><trkpt lat="44.6683101" lon="7.8740745"><ele>210.0</ele><time>2026-04-12T10:39:13.329Z</time></trkpt><trkpt lat="44.6683369" lon="7.8741736"><ele>210.0</ele><time>2026-04-12T10:39:15.329Z</time></trkpt><trkpt lat="44.668364" lon="7.8742653"><ele>210.0</ele><time>2026-04-12T10:39:17.329Z</time></trkpt><trkpt lat="44.6683967" lon="7.8743683"><ele>210.0</ele><time>2026-04-12T10:39:19.329Z</time></trkpt><trkpt lat="44.6684301" lon="7.8744717"><ele>210.0</ele><time>2026-04-12T10:39:21.329Z</time></trkpt><trkpt lat="44.6684605" lon="7.8745729"><ele>210.0</ele><time>2026-04-12T10:39:23.329Z</time></trkpt><trkpt lat="44.6684902" lon="7.874668"><ele>210.0</ele><time>2026-04-12T10:39:25.329Z</time></trkpt><trkpt lat="44.6685213" lon="7.8747676"><ele>210.0</ele><time>2026-04-12T10:39:27.329Z</time></trkpt><trkpt lat="44.6685535" lon="7.8748717"><ele>210.0</ele><time>2026-04-12T10:39:29.329Z</time></trkpt><trkpt lat="44.6685882" lon="7.8749697"><ele>210.0</ele><time>2026-04-12T10:39:31.329Z</time></trkpt><trkpt lat="44.6686193" lon="7.8750577"><ele>210.0</ele><time>2026-04-12T10:39:33.329Z</time></trkpt><trkpt lat="44.6686523" lon="7.8751443"><ele>210.0</ele><time>2026-04-12T10:39:35.329Z</time></trkpt><trkpt lat="44.6686849" lon="7.8752289"><ele>210.0</ele><time>2026-04-12T10:39:37.329Z</time></trkpt><trkpt lat="44.6687166" lon="7.8753177"><ele>210.0</ele><time>2026-04-12T10:39:39.329Z</time></trkpt><trkpt lat="44.6687419" lon="7.8754099"><ele>210.0</ele><time>2026-04-12T10:39:41.328Z</time></trkpt><trkpt lat="44.6687649" lon="7.8754999"><ele>210.0</ele><time>2026-04-12T10:39:43.329Z</time></trkpt><trkpt lat="44.6687902" lon="7.8755859"><ele>210.0</ele><time>2026-04-12T10:39:45.329Z</time></trkpt><trkpt lat="44.6688162" lon="7.8756724"><ele>210.0</ele><time>2026-04-12T10:39:47.329Z</time></trkpt><trkpt lat="44.6688549" lon="7.875788"><ele>210.0</ele><time>2026-04-12T10:39:50.328Z</time></trkpt><trkpt lat="44.6688937" lon="7.8759"><ele>210.0</ele><time>2026-04-12T10:39:53.329Z</time></trkpt><trkpt lat="44.6689223" lon="7.8759883"><ele>210.0</ele><time>2026-04-12T10:39:55.329Z</time></trkpt><trkpt lat="44.6689532" lon="7.8760839"><ele>210.0</ele><time>2026-04-12T10:39:57.328Z</time></trkpt><trkpt lat="44.6689861" lon="7.8761791"><ele>210.0</ele><time>2026-04-12T10:39:59.329Z</time></trkpt><trkpt lat="44.6690202" lon="7.8762706"><ele>210.0</ele><time>2026-04-12T10:40:01.328Z</time></trkpt><trkpt lat="44.6690522" lon="7.8763601"><ele>210.0</ele><time>2026-04-12T10:40:03.328Z</time></trkpt><trkpt lat="44.6690824" lon="7.8764434"><ele>210.0</ele><time>2026-04-12T10:40:05.329Z</time></trkpt><trkpt lat="44.669111" lon="7.8765238"><ele>210.0</ele><time>2026-04-12T10:40:07.328Z</time></trkpt><trkpt lat="44.6691405" lon="7.8766069"><ele>210.0</ele><time>2026-04-12T10:40:09.329Z</time></trkpt><trkpt lat="44.6691688" lon="7.8766939"><ele>210.14285714285714</ele><time>2026-04-12T10:40:11.329Z</time></trkpt><trkpt lat="44.6691883" lon="7.8767895"><ele>210.28571428571428</ele><time>2026-04-12T10:40:13.328Z</time></trkpt><trkpt lat="44.6692037" lon="7.8768779"><ele>210.42857142857144</ele><time>2026-04-12T10:40:15.329Z</time></trkpt><trkpt lat="44.6692184" lon="7.8769655"><ele>210.57142857142856</ele><time>2026-04-12T10:40:17.329Z</time></trkpt><trkpt lat="44.6692314" lon="7.8770526"><ele>210.71428571428572</ele><time>2026-04-12T10:40:19.329Z</time></trkpt><trkpt lat="44.6692465" lon="7.8771422"><ele>210.85714285714286</ele><time>2026-04-12T10:40:21.329Z</time></trkpt><trkpt lat="44.6692695" lon="7.8772364"><ele>211.0</ele><time>2026-04-12T10:40:23.329Z</time></trkpt><trkpt lat="44.6692968" lon="7.8773219"><ele>211.0</ele><time>2026-04-12T10:40:25.328Z</time></trkpt><trkpt lat="44.6693204" lon="7.8774044"><ele>211.0</ele><time>2026-04-12T10:40:27.328Z</time></trkpt><trkpt lat="44.6693443" lon="7.8774951"><ele>211.0</ele><time>2026-04-12T10:40:29.328Z</time></trkpt><trkpt lat="44.6693695" lon="7.8775807"><ele>211.0</ele><time>2026-04-12T10:40:31.328Z</time></trkpt><trkpt lat="44.6694037" lon="7.8776689"><ele>211.0</ele><time>2026-04-12T10:40:33.329Z</time></trkpt><trkpt lat="44.6694361" lon="7.8777553"><ele>211.0</ele><time>2026-04-12T10:40:35.328Z</time></trkpt><trkpt lat="44.6694685" lon="7.8778378"><ele>211.0</ele><time>2026-04-12T10:40:37.329Z</time></trkpt><trkpt lat="44.669516" lon="7.8779461"><ele>210.83333333333331</ele><time>2026-04-12T10:40:40.329Z</time></trkpt><trkpt lat="44.6695807" lon="7.8780814"><ele>210.66666666666666</ele><time>2026-04-12T10:40:44.328Z</time></trkpt><trkpt lat="44.6696318" lon="7.8781706"><ele>210.5</ele><time>2026-04-12T10:40:47.328Z</time></trkpt><trkpt lat="44.6696848" lon="7.8782608"><ele>210.33333333333331</ele><time>2026-04-12T10:40:50.329Z</time></trkpt><trkpt lat="44.6697386" lon="7.8783419"><ele>210.16666666666666</ele><time>2026-04-12T10:40:53.329Z</time></trkpt><trkpt lat="44.6697962" lon="7.8784155"><ele>210.0</ele><time>2026-04-12T10:40:56.328Z</time></trkpt><trkpt lat="44.6698608" lon="7.8784723"><ele>210.0</ele><time>2026-04-12T10:40:59.328Z</time></trkpt><trkpt lat="44.6699494" lon="7.8784829"><ele>210.0</ele><time>2026-04-12T10:41:03.328Z</time></trkpt><trkpt lat="44.6700231" lon="7.8784896"><ele>210.0</ele><time>2026-04-12T10:41:07.329Z</time></trkpt><trkpt lat="44.6700882" lon="7.878553"><ele>210.0</ele><time>2026-04-12T10:41:11.328Z</time></trkpt><trkpt lat="44.6701598" lon="7.8785798"><ele>210.0</ele><time>2026-04-12T10:41:15.329Z</time></trkpt><trkpt lat="44.6702378" lon="7.8785259"><ele>210.0</ele><time>2026-04-12T10:41:18.329Z</time></trkpt><trkpt lat="44.6703154" lon="7.8784802"><ele>209.33333333333334</ele><time>2026-04-12T10:41:21.329Z</time></trkpt><trkpt lat="44.6703905" lon="7.8784397"><ele>208.66666666666669</ele><time>2026-04-12T10:41:24.328Z</time></trkpt><trkpt lat="44.6704502" lon="7.8783898"><ele>208.0</ele><time>2026-04-12T10:41:27.328Z</time></trkpt><trkpt lat="44.6705194" lon="7.8783406"><ele>207.33333333333334</ele><time>2026-04-12T10:41:30.329Z</time></trkpt><trkpt lat="44.6705984" lon="7.8782973"><ele>206.66666666666669</ele><time>2026-04-12T10:41:33.329Z</time></trkpt><trkpt lat="44.6706769" lon="7.8782597"><ele>206.0</ele><time>2026-04-12T10:41:36.329Z</time></trkpt><trkpt lat="44.6707505" lon="7.8782069"><ele>206.00000000000003</ele><time>2026-04-12T10:41:39.329Z</time></trkpt><trkpt lat="44.6708272" lon="7.8781572"><ele>206.0</ele><time>2026-04-12T10:41:42.328Z</time></trkpt><trkpt lat="44.6708894" lon="7.8780982"><ele>206.0</ele><time>2026-04-12T10:41:45.328Z</time></trkpt><trkpt lat="44.6709671" lon="7.8780555"><ele>206.0</ele><time>2026-04-12T10:41:48.328Z</time></trkpt><trkpt lat="44.6710477" lon="7.8780058"><ele>206.00000000000003</ele><time>2026-04-12T10:41:51.329Z</time></trkpt><trkpt lat="44.6711276" lon="7.8779851"><ele>206.0</ele><time>2026-04-12T10:41:54.329Z</time></trkpt><trkpt lat="44.6712088" lon="7.8779325"><ele>206.16666666666669</ele><time>2026-04-12T10:41:57.329Z</time></trkpt><trkpt lat="44.6712926" lon="7.8778822"><ele>206.33333333333334</ele><time>2026-04-12T10:42:00.329Z</time></trkpt><trkpt lat="44.671375" lon="7.8778276"><ele>206.5</ele><time>2026-04-12T10:42:03.329Z</time></trkpt><trkpt lat="44.6714545" lon="7.8777768"><ele>206.66666666666669</ele><time>2026-04-12T10:42:06.329Z</time></trkpt><trkpt lat="44.6715132" lon="7.8777385"><ele>206.83333333333334</ele><time>2026-04-12T10:42:08.329Z</time></trkpt><trkpt lat="44.6715726" lon="7.8776996"><ele>207.0</ele><time>2026-04-12T10:42:10.329Z</time></trkpt><trkpt lat="44.6716516" lon="7.8776291"><ele>207.0</ele><time>2026-04-12T10:42:13.329Z</time></trkpt><trkpt lat="44.6717108" lon="7.8775945"><ele>207.0</ele><time>2026-04-12T10:42:15.329Z</time></trkpt><trkpt lat="44.6717937" lon="7.8775416"><ele>207.0</ele><time>2026-04-12T10:42:18.329Z</time></trkpt><trkpt lat="44.6718703" lon="7.8774855"><ele>207.0</ele><time>2026-04-12T10:42:21.328Z</time></trkpt><trkpt lat="44.6719575" lon="7.8774435"><ele>207.0</ele><time>2026-04-12T10:42:24.329Z</time></trkpt><trkpt lat="44.6720184" lon="7.8774185"><ele>207.0</ele><time>2026-04-12T10:42:26.329Z</time></trkpt><trkpt lat="44.6720798" lon="7.8773832"><ele>207.0</ele><time>2026-04-12T10:42:28.328Z</time></trkpt><trkpt lat="44.6721394" lon="7.877348"><ele>207.0</ele><time>2026-04-12T10:42:30.328Z</time></trkpt><trkpt lat="44.672214" lon="7.8772802"><ele>207.0</ele><time>2026-04-12T10:42:33.328Z</time></trkpt><trkpt lat="44.6722959" lon="7.8772264"><ele>207.0</ele><time>2026-04-12T10:42:36.329Z</time></trkpt><trkpt lat="44.672382" lon="7.8771866"><ele>207.0</ele><time>2026-04-12T10:42:39.329Z</time></trkpt><trkpt lat="44.672454" lon="7.8771427"><ele>207.0</ele><time>2026-04-12T10:42:42.328Z</time></trkpt><trkpt lat="44.6725337" lon="7.8770928"><ele>207.0</ele><time>2026-04-12T10:42:45.328Z</time></trkpt><trkpt lat="44.6726115" lon="7.8770253"><ele>207.0</ele><time>2026-04-12T10:42:48.329Z</time></trkpt><trkpt lat="44.672696" lon="7.8769694"><ele>207.0</ele><time>2026-04-12T10:42:51.329Z</time></trkpt><trkpt lat="44.6727816" lon="7.8769214"><ele>207.0</ele><time>2026-04-12T10:42:54.329Z</time></trkpt><trkpt lat="44.6728393" lon="7.8768844"><ele>207.0</ele><time>2026-04-12T10:42:56.329Z</time></trkpt><trkpt lat="44.6729234" lon="7.8768314"><ele>207.0</ele><time>2026-04-12T10:42:59.329Z</time></trkpt><trkpt lat="44.6730089" lon="7.8767783"><ele>207.14285714285717</ele><time>2026-04-12T10:43:02.328Z</time></trkpt><trkpt lat="44.6730685" lon="7.8767428"><ele>207.28571428571428</ele><time>2026-04-12T10:43:04.328Z</time></trkpt><trkpt lat="44.6731303" lon="7.8767045"><ele>207.42857142857144</ele><time>2026-04-12T10:43:06.329Z</time></trkpt><trkpt lat="44.6731984" lon="7.8766725"><ele>207.57142857142858</ele><time>2026-04-12T10:43:08.329Z</time></trkpt><trkpt lat="44.6732584" lon="7.876632"><ele>207.71428571428572</ele><time>2026-04-12T10:43:10.329Z</time></trkpt><trkpt lat="44.6733149" lon="7.8765897"><ele>207.85714285714286</ele><time>2026-04-12T10:43:12.329Z</time></trkpt><trkpt lat="44.6733734" lon="7.8765524"><ele>208.0</ele><time>2026-04-12T10:43:14.329Z</time></trkpt><trkpt lat="44.6734328" lon="7.8765155"><ele>208.0</ele><time>2026-04-12T10:43:16.328Z</time></trkpt><trkpt lat="44.6734912" lon="7.8764766"><ele>208.0</ele><time>2026-04-12T10:43:18.329Z</time></trkpt><trkpt lat="44.6735784" lon="7.876422"><ele>208.0</ele><time>2026-04-12T10:43:21.328Z</time></trkpt><trkpt lat="44.6736413" lon="7.8763872"><ele>208.0</ele><time>2026-04-12T10:43:23.329Z</time></trkpt><trkpt lat="44.6737048" lon="7.876346"><ele>208.0</ele><time>2026-04-12T10:43:25.328Z</time></trkpt><trkpt lat="44.6737696" lon="7.8763031"><ele>208.0</ele><time>2026-04-12T10:43:27.329Z</time></trkpt><trkpt lat="44.6738377" lon="7.8762621"><ele>208.0</ele><time>2026-04-12T10:43:29.328Z</time></trkpt><trkpt lat="44.6739069" lon="7.8762212"><ele>208.0</ele><time>2026-04-12T10:43:31.328Z</time></trkpt><trkpt lat="44.6739736" lon="7.8761786"><ele>208.0</ele><time>2026-04-12T10:43:33.329Z</time></trkpt><trkpt lat="44.6740336" lon="7.876143"><ele>208.0</ele><time>2026-04-12T10:43:35.329Z</time></trkpt><trkpt lat="44.6741072" lon="7.8760925"><ele>208.0</ele><time>2026-04-12T10:43:38.328Z</time></trkpt><trkpt lat="44.6741907" lon="7.8760377"><ele>208.0</ele><time>2026-04-12T10:43:41.329Z</time></trkpt><trkpt lat="44.6742519" lon="7.8760022"><ele>208.0</ele><time>2026-04-12T10:43:43.329Z</time></trkpt><trkpt lat="44.6743164" lon="7.8759625"><ele>208.0</ele><time>2026-04-12T10:43:45.329Z</time></trkpt><trkpt lat="44.6743819" lon="7.8759233"><ele>207.7142857142857</ele><time>2026-04-12T10:43:47.328Z</time></trkpt><trkpt lat="44.6744489" lon="7.8758813"><ele>207.42857142857144</ele><time>2026-04-12T10:43:49.329Z</time></trkpt><trkpt lat="44.6745141" lon="7.8758409"><ele>207.14285714285714</ele><time>2026-04-12T10:43:51.329Z</time></trkpt><trkpt lat="44.6745779" lon="7.8757941"><ele>206.85714285714283</ele><time>2026-04-12T10:43:53.329Z</time></trkpt><trkpt lat="44.6746362" lon="7.8757583"><ele>206.57142857142856</ele><time>2026-04-12T10:43:55.329Z</time></trkpt><trkpt lat="44.6747096" lon="7.8757137"><ele>206.28571428571428</ele><time>2026-04-12T10:43:58.328Z</time></trkpt><trkpt lat="44.6747884" lon="7.8756616"><ele>206.0</ele><time>2026-04-12T10:44:01.328Z</time></trkpt><trkpt lat="44.674875" lon="7.8756146"><ele>205.99999999999997</ele><time>2026-04-12T10:44:04.329Z</time></trkpt><trkpt lat="44.6749359" lon="7.8755776"><ele>206.0</ele><time>2026-04-12T10:44:06.329Z</time></trkpt><trkpt lat="44.6749964" lon="7.8755422"><ele>206.0</ele><time>2026-04-12T10:44:08.328Z</time></trkpt><trkpt lat="44.67506" lon="7.8755057"><ele>206.0</ele><time>2026-04-12T10:44:10.329Z</time></trkpt><trkpt lat="44.6751238" lon="7.8754698"><ele>206.0</ele><time>2026-04-12T10:44:12.329Z</time></trkpt><trkpt lat="44.6751823" lon="7.8754349"><ele>205.99999999999997</ele><time>2026-04-12T10:44:14.329Z</time></trkpt><trkpt lat="44.6752415" lon="7.8753941"><ele>206.0</ele><time>2026-04-12T10:44:16.329Z</time></trkpt><trkpt lat="44.6753027" lon="7.8753599"><ele>206.33333333333334</ele><time>2026-04-12T10:44:18.329Z</time></trkpt><trkpt lat="44.6753663" lon="7.8753176"><ele>206.66666666666669</ele><time>2026-04-12T10:44:20.328Z</time></trkpt><trkpt lat="44.6754268" lon="7.8752773"><ele>207.0</ele><time>2026-04-12T10:44:22.329Z</time></trkpt><trkpt lat="44.6755035" lon="7.8752347"><ele>207.33333333333331</ele><time>2026-04-12T10:44:25.329Z</time></trkpt><trkpt lat="44.6755752" lon="7.8751854"><ele>207.66666666666666</ele><time>2026-04-12T10:44:28.329Z</time></trkpt><trkpt lat="44.6756499" lon="7.8751576"><ele>208.0</ele><time>2026-04-12T10:44:31.329Z</time></trkpt><trkpt lat="44.6757274" lon="7.8751061"><ele>208.16666666666666</ele><time>2026-04-12T10:44:34.329Z</time></trkpt><trkpt lat="44.6758113" lon="7.8750608"><ele>208.33333333333331</ele><time>2026-04-12T10:44:37.328Z</time></trkpt><trkpt lat="44.6758945" lon="7.8750073"><ele>208.5</ele><time>2026-04-12T10:44:40.329Z</time></trkpt><trkpt lat="44.6759742" lon="7.8749488"><ele>208.66666666666669</ele><time>2026-04-12T10:44:43.328Z</time></trkpt><trkpt lat="44.6760518" lon="7.8749102"><ele>208.83333333333334</ele><time>2026-04-12T10:44:46.329Z</time></trkpt><trkpt lat="44.676123" lon="7.8748521"><ele>209.0</ele><time>2026-04-12T10:44:49.329Z</time></trkpt><trkpt lat="44.6761979" lon="7.8748142"><ele>209.00000000000003</ele><time>2026-04-12T10:44:52.328Z</time></trkpt><trkpt lat="44.6762605" lon="7.8747476"><ele>209.0</ele><time>2026-04-12T10:44:55.328Z</time></trkpt><trkpt lat="44.6763366" lon="7.8747024"><ele>209.0</ele><time>2026-04-12T10:44:58.328Z</time></trkpt><trkpt lat="44.6764209" lon="7.874649"><ele>209.0</ele><time>2026-04-12T10:45:01.329Z</time></trkpt><trkpt lat="44.6765031" lon="7.8745953"><ele>209.00000000000003</ele><time>2026-04-12T10:45:04.329Z</time></trkpt><trkpt lat="44.6765634" lon="7.8745636"><ele>209.0</ele><time>2026-04-12T10:45:06.329Z</time></trkpt><trkpt lat="44.6766237" lon="7.8745248"><ele>209.00000000000003</ele><time>2026-04-12T10:45:08.329Z</time></trkpt><trkpt lat="44.6766804" lon="7.8744857"><ele>209.0</ele><time>2026-04-12T10:45:10.328Z</time></trkpt><trkpt lat="44.6767393" lon="7.8744515"><ele>209.0</ele><time>2026-04-12T10:45:12.328Z</time></trkpt><trkpt lat="44.6768201" lon="7.8744007"><ele>209.0</ele><time>2026-04-12T10:45:15.328Z</time></trkpt><trkpt lat="44.6769035" lon="7.8743628"><ele>209.00000000000003</ele><time>2026-04-12T10:45:18.329Z</time></trkpt><trkpt lat="44.6769806" lon="7.8743205"><ele>209.0</ele><time>2026-04-12T10:45:21.329Z</time></trkpt><trkpt lat="44.6770544" lon="7.8742742"><ele>209.14285714285714</ele><time>2026-04-12T10:45:24.329Z</time></trkpt><trkpt lat="44.6771141" lon="7.8742384"><ele>209.28571428571428</ele><time>2026-04-12T10:45:27.329Z</time></trkpt><trkpt lat="44.6771684" lon="7.8741872"><ele>209.42857142857144</ele><time>2026-04-12T10:46:32.329Z</time></trkpt><trkpt lat="44.6772321" lon="7.8741941"><ele>209.57142857142856</ele><time>2026-04-12T10:46:42.329Z</time></trkpt><trkpt lat="44.6773003" lon="7.8741595"><ele>209.71428571428572</ele><time>2026-04-12T10:46:56.329Z</time></trkpt><trkpt lat="44.6773084" lon="7.8740638"><ele>209.85714285714286</ele><time>2026-04-12T10:47:00.329Z</time></trkpt><trkpt lat="44.6772849" lon="7.8739636"><ele>210.0</ele><time>2026-04-12T10:47:03.329Z</time></trkpt><trkpt lat="44.677259" lon="7.8738512"><ele>210.0</ele><time>2026-04-12T10:47:06.329Z</time></trkpt><trkpt lat="44.6772303" lon="7.8737363"><ele>210.0</ele><time>2026-04-12T10:47:09.329Z</time></trkpt><trkpt lat="44.6772057" lon="7.8736185"><ele>210.0</ele><time>2026-04-12T10:47:12.328Z</time></trkpt><trkpt lat="44.6771733" lon="7.8734981"><ele>210.0</ele><time>2026-04-12T10:47:15.328Z</time></trkpt><trkpt lat="44.6771443" lon="7.8733753"><ele>210.0</ele><time>2026-04-12T10:47:18.329Z</time></trkpt><trkpt lat="44.6771257" lon="7.8732888"><ele>210.0</ele><time>2026-04-12T10:47:20.329Z</time></trkpt><trkpt lat="44.6771048" lon="7.8732008"><ele>210.0</ele><time>2026-04-12T10:47:22.329Z</time></trkpt><trkpt lat="44.6770837" lon="7.8731119"><ele>210.0</ele><time>2026-04-12T10:47:24.329Z</time></trkpt><trkpt lat="44.6770635" lon="7.8730211"><ele>210.0</ele><time>2026-04-12T10:47:26.328Z</time></trkpt><trkpt lat="44.6770408" lon="7.8729309"><ele>210.0</ele><time>2026-04-12T10:47:28.329Z</time></trkpt><trkpt lat="44.6770184" lon="7.8728466"><ele>210.0</ele><time>2026-04-12T10:47:30.329Z</time></trkpt><trkpt lat="44.6770011" lon="7.8727564"><ele>210.0</ele><time>2026-04-12T10:47:32.328Z</time></trkpt><trkpt lat="44.6769762" lon="7.8726661"><ele>210.0</ele><time>2026-04-12T10:47:34.328Z</time></trkpt><trkpt lat="44.6769544" lon="7.8725818"><ele>209.83333333333334</ele><time>2026-04-12T10:47:36.329Z</time></trkpt><trkpt lat="44.676927" lon="7.8724762"><ele>209.66666666666669</ele><time>2026-04-12T10:47:39.328Z</time></trkpt><trkpt lat="44.6769065" lon="7.8723657"><ele>209.5</ele><time>2026-04-12T10:47:42.329Z</time></trkpt><trkpt lat="44.6769082" lon="7.8722609"><ele>209.33333333333334</ele><time>2026-04-12T10:47:45.329Z</time></trkpt><trkpt lat="44.6769896" lon="7.8721984"><ele>209.16666666666669</ele><time>2026-04-12T10:47:48.329Z</time></trkpt><trkpt lat="44.6770613" lon="7.8721455"><ele>209.0</ele><time>2026-04-12T10:47:50.329Z</time></trkpt><trkpt lat="44.6771319" lon="7.8720805"><ele>209.33333333333334</ele><time>2026-04-12T10:47:52.328Z</time></trkpt><trkpt lat="44.6772003" lon="7.8720359"><ele>209.66666666666669</ele><time>2026-04-12T10:47:54.329Z</time></trkpt><trkpt lat="44.6772679" lon="7.8719846"><ele>210.0</ele><time>2026-04-12T10:47:56.328Z</time></trkpt><trkpt lat="44.6773326" lon="7.871937"><ele>210.33333333333331</ele><time>2026-04-12T10:47:58.328Z</time></trkpt><trkpt lat="44.6774015" lon="7.871883"><ele>210.66666666666666</ele><time>2026-04-12T10:48:00.328Z</time></trkpt><trkpt lat="44.6774755" lon="7.8718259"><ele>211.0</ele><time>2026-04-12T10:48:02.328Z</time></trkpt><trkpt lat="44.6775559" lon="7.8717712"><ele>211.20000000000002</ele><time>2026-04-12T10:48:04.328Z</time></trkpt><trkpt lat="44.6776405" lon="7.8717121"><ele>211.4</ele><time>2026-04-12T10:48:06.329Z</time></trkpt><trkpt lat="44.6777254" lon="7.8716648"><ele>211.6</ele><time>2026-04-12T10:48:08.328Z</time></trkpt><trkpt lat="44.6778076" lon="7.87161"><ele>211.8</ele><time>2026-04-12T10:48:10.328Z</time></trkpt><trkpt lat="44.6778884" lon="7.8715625"><ele>212.0</ele><time>2026-04-12T10:48:12.329Z</time></trkpt><trkpt lat="44.6779681" lon="7.8715193"><ele>212.00000000000003</ele><time>2026-04-12T10:48:14.328Z</time></trkpt><trkpt lat="44.6780379" lon="7.8714731"><ele>212.0</ele><time>2026-04-12T10:48:16.328Z</time></trkpt><trkpt lat="44.6781083" lon="7.8714201"><ele>212.0</ele><time>2026-04-12T10:48:18.328Z</time></trkpt><trkpt lat="44.6781796" lon="7.8713647"><ele>212.0</ele><time>2026-04-12T10:48:20.329Z</time></trkpt><trkpt lat="44.6782504" lon="7.8713094"><ele>212.00000000000003</ele><time>2026-04-12T10:48:22.329Z</time></trkpt><trkpt lat="44.6783165" lon="7.8712615"><ele>212.0</ele><time>2026-04-12T10:48:24.328Z</time></trkpt><trkpt lat="44.6783749" lon="7.8712154"><ele>212.0</ele><time>2026-04-12T10:48:26.328Z</time></trkpt><trkpt lat="44.6784547" lon="7.8711431"><ele>212.0</ele><time>2026-04-12T10:48:29.329Z</time></trkpt><trkpt lat="44.6785143" lon="7.8711015"><ele>212.0</ele><time>2026-04-12T10:48:31.328Z</time></trkpt><trkpt lat="44.6785749" lon="7.8710631"><ele>212.0</ele><time>2026-04-12T10:48:33.328Z</time></trkpt><trkpt lat="44.678635" lon="7.871034"><ele>212.0</ele><time>2026-04-12T10:48:35.329Z</time></trkpt><trkpt lat="44.6786939" lon="7.8710027"><ele>212.0</ele><time>2026-04-12T10:48:37.328Z</time></trkpt><trkpt lat="44.6787534" lon="7.8709691"><ele>212.0</ele><time>2026-04-12T10:48:39.329Z</time></trkpt><trkpt lat="44.6788198" lon="7.8709423"><ele>211.71428571428572</ele><time>2026-04-12T10:48:41.329Z</time></trkpt><trkpt lat="44.6788863" lon="7.8709043"><ele>211.42857142857142</ele><time>2026-04-12T10:48:43.329Z</time></trkpt><trkpt lat="44.6789518" lon="7.8708624"><ele>211.14285714285714</ele><time>2026-04-12T10:48:45.328Z</time></trkpt><trkpt lat="44.6790164" lon="7.8708145"><ele>210.85714285714286</ele><time>2026-04-12T10:48:47.328Z</time></trkpt><trkpt lat="44.6790853" lon="7.8707725"><ele>210.57142857142856</ele><time>2026-04-12T10:48:49.329Z</time></trkpt><trkpt lat="44.679154" lon="7.8707274"><ele>210.28571428571428</ele><time>2026-04-12T10:48:51.329Z</time></trkpt><trkpt lat="44.6792231" lon="7.8706862"><ele>210.0</ele><time>2026-04-12T10:48:53.329Z</time></trkpt><trkpt lat="44.6792949" lon="7.8706491"><ele>210.0</ele><time>2026-04-12T10:48:55.329Z</time></trkpt><trkpt lat="44.6793661" lon="7.8706095"><ele>210.0</ele><time>2026-04-12T10:48:57.329Z</time></trkpt><trkpt lat="44.679436" lon="7.870571"><ele>210.0</ele><time>2026-04-12T10:48:59.329Z</time></trkpt><trkpt lat="44.6795062" lon="7.8705286"><ele>210.0</ele><time>2026-04-12T10:49:01.329Z</time></trkpt><trkpt lat="44.6795805" lon="7.8704913"><ele>210.0</ele><time>2026-04-12T10:49:03.328Z</time></trkpt><trkpt lat="44.6796546" lon="7.8704504"><ele>210.0</ele><time>2026-04-12T10:49:05.328Z</time></trkpt><trkpt lat="44.6797304" lon="7.8704151"><ele>210.16666666666666</ele><time>2026-04-12T10:49:07.329Z</time></trkpt><trkpt lat="44.6798071" lon="7.8703789"><ele>210.33333333333331</ele><time>2026-04-12T10:49:09.328Z</time></trkpt><trkpt lat="44.6798828" lon="7.8703439"><ele>210.5</ele><time>2026-04-12T10:49:11.328Z</time></trkpt><trkpt lat="44.6799556" lon="7.8703138"><ele>210.66666666666666</ele><time>2026-04-12T10:49:13.328Z</time></trkpt><trkpt lat="44.680024" lon="7.87028"><ele>210.83333333333331</ele><time>2026-04-12T10:49:15.328Z</time></trkpt><trkpt lat="44.6800892" lon="7.8702336"><ele>211.0</ele><time>2026-04-12T10:49:17.329Z</time></trkpt><trkpt lat="44.6801548" lon="7.8701894"><ele>211.0</ele><time>2026-04-12T10:49:19.328Z</time></trkpt><trkpt lat="44.6802198" lon="7.8701444"><ele>211.0</ele><time>2026-04-12T10:49:21.329Z</time></trkpt><trkpt lat="44.6802848" lon="7.8700995"><ele>211.0</ele><time>2026-04-12T10:49:23.328Z</time></trkpt><trkpt lat="44.6803467" lon="7.8700511"><ele>211.0</ele><time>2026-04-12T10:49:25.329Z</time></trkpt><trkpt lat="44.6804095" lon="7.8700045"><ele>211.0</ele><time>2026-04-12T10:49:27.329Z</time></trkpt><trkpt lat="44.6804741" lon="7.8699557"><ele>211.0</ele><time>2026-04-12T10:49:29.329Z</time></trkpt><trkpt lat="44.6805376" lon="7.8699088"><ele>211.0</ele><time>2026-04-12T10:49:31.329Z</time></trkpt><trkpt lat="44.6806018" lon="7.8698625"><ele>211.28571428571428</ele><time>2026-04-12T10:49:33.328Z</time></trkpt><trkpt lat="44.6806637" lon="7.8698124"><ele>211.57142857142858</ele><time>2026-04-12T10:49:35.329Z</time></trkpt><trkpt lat="44.6807256" lon="7.869762"><ele>211.85714285714283</ele><time>2026-04-12T10:49:37.329Z</time></trkpt><trkpt lat="44.6807872" lon="7.8697162"><ele>212.14285714285714</ele><time>2026-04-12T10:49:39.328Z</time></trkpt><trkpt lat="44.6808472" lon="7.8696636"><ele>212.42857142857142</ele><time>2026-04-12T10:49:41.329Z</time></trkpt><trkpt lat="44.6809071" lon="7.8696138"><ele>212.7142857142857</ele><time>2026-04-12T10:49:43.329Z</time></trkpt><trkpt lat="44.6809663" lon="7.8695625"><ele>213.0</ele><time>2026-04-12T10:49:45.329Z</time></trkpt><trkpt lat="44.6810222" lon="7.8695097"><ele>212.99999999999997</ele><time>2026-04-12T10:49:47.329Z</time></trkpt><trkpt lat="44.6810759" lon="7.869408"><ele>213.0</ele><time>2026-04-12T10:49:50.328Z</time></trkpt><trkpt lat="44.6810998" lon="7.8693254"><ele>213.0</ele><time>2026-04-12T10:49:52.329Z</time></trkpt><trkpt lat="44.6811308" lon="7.8692455"><ele>213.0</ele><time>2026-04-12T10:49:54.329Z</time></trkpt><trkpt lat="44.6811649" lon="7.8691658"><ele>213.0</ele><time>2026-04-12T10:49:56.329Z</time></trkpt><trkpt lat="44.6811961" lon="7.8690822"><ele>212.99999999999997</ele><time>2026-04-12T10:49:58.328Z</time></trkpt><trkpt lat="44.6812288" lon="7.8690035"><ele>213.0</ele><time>2026-04-12T10:50:00.329Z</time></trkpt><trkpt lat="44.6812562" lon="7.8689227"><ele>212.99999999999997</ele><time>2026-04-12T10:50:02.329Z</time></trkpt><trkpt lat="44.6812822" lon="7.8688376"><ele>213.0</ele><time>2026-04-12T10:50:04.329Z</time></trkpt><trkpt lat="44.6813079" lon="7.8687541"><ele>213.0</ele><time>2026-04-12T10:50:06.328Z</time></trkpt><trkpt lat="44.6813287" lon="7.8686665"><ele>213.0</ele><time>2026-04-12T10:50:08.329Z</time></trkpt><trkpt lat="44.6813472" lon="7.8685799"><ele>213.0</ele><time>2026-04-12T10:50:10.329Z</time></trkpt><trkpt lat="44.6813636" lon="7.8684907"><ele>212.99999999999997</ele><time>2026-04-12T10:50:12.329Z</time></trkpt><trkpt lat="44.6813814" lon="7.8684004"><ele>213.0</ele><time>2026-04-12T10:50:14.328Z</time></trkpt><trkpt lat="44.6813995" lon="7.8683091"><ele>212.99999999999997</ele><time>2026-04-12T10:50:16.328Z</time></trkpt><trkpt lat="44.6814231" lon="7.8682196"><ele>213.0</ele><time>2026-04-12T10:50:18.328Z</time></trkpt><trkpt lat="44.6814437" lon="7.8681281"><ele>213.0</ele><time>2026-04-12T10:50:20.329Z</time></trkpt><trkpt lat="44.6814658" lon="7.8680367"><ele>213.0</ele><time>2026-04-12T10:50:22.329Z</time></trkpt><trkpt lat="44.6814867" lon="7.8679505"><ele>213.0</ele><time>2026-04-12T10:50:24.329Z</time></trkpt><trkpt lat="44.6815137" lon="7.867824"><ele>212.99999999999997</ele><time>2026-04-12T10:50:27.328Z</time></trkpt><trkpt lat="44.6815345" lon="7.8677394"><ele>213.0</ele><time>2026-04-12T10:50:29.328Z</time></trkpt><trkpt lat="44.6815472" lon="7.8676508"><ele>212.99999999999997</ele><time>2026-04-12T10:50:31.328Z</time></trkpt><trkpt lat="44.6815645" lon="7.8675619"><ele>213.0</ele><time>2026-04-12T10:50:33.329Z</time></trkpt><trkpt lat="44.6815776" lon="7.8674697"><ele>213.0</ele><time>2026-04-12T10:50:35.329Z</time></trkpt><trkpt lat="44.6815906" lon="7.8673764"><ele>213.0</ele><time>2026-04-12T10:50:37.328Z</time></trkpt><trkpt lat="44.6816073" lon="7.867285"><ele>213.0</ele><time>2026-04-12T10:50:39.328Z</time></trkpt><trkpt lat="44.6816256" lon="7.8671969"><ele>212.99999999999997</ele><time>2026-04-12T10:50:41.329Z</time></trkpt><trkpt lat="44.6816435" lon="7.8671105"><ele>213.0</ele><time>2026-04-12T10:50:43.329Z</time></trkpt><trkpt lat="44.6816674" lon="7.8669865"><ele>213.0</ele><time>2026-04-12T10:50:46.329Z</time></trkpt><trkpt lat="44.6816909" lon="7.8668612"><ele>213.0</ele><time>2026-04-12T10:50:49.329Z</time></trkpt><trkpt lat="44.6817177" lon="7.8667353"><ele>213.0</ele><time>2026-04-12T10:50:52.328Z</time></trkpt><trkpt lat="44.6817348" lon="7.8666482"><ele>213.0</ele><time>2026-04-12T10:50:54.329Z</time></trkpt><trkpt lat="44.681754" lon="7.8665569"><ele>213.0</ele><time>2026-04-12T10:50:56.328Z</time></trkpt><trkpt lat="44.6817728" lon="7.8664659"><ele>213.0</ele><time>2026-04-12T10:50:58.329Z</time></trkpt><trkpt lat="44.6817968" lon="7.866379"><ele>212.99999999999997</ele><time>2026-04-12T10:51:00.329Z</time></trkpt><trkpt lat="44.681815" lon="7.8662929"><ele>213.0</ele><time>2026-04-12T10:51:02.329Z</time></trkpt><trkpt lat="44.6818438" lon="7.8661789"><ele>213.0</ele><time>2026-04-12T10:51:05.329Z</time></trkpt><trkpt lat="44.681867" lon="7.8660811"><ele>213.0</ele><time>2026-04-12T10:51:08.328Z</time></trkpt><trkpt lat="44.6818829" lon="7.8659776"><ele>213.0</ele><time>2026-04-12T10:51:12.329Z</time></trkpt><trkpt lat="44.6819055" lon="7.8658789"><ele>212.99999999999997</ele><time>2026-04-12T10:51:16.329Z</time></trkpt><trkpt lat="44.681934" lon="7.8657784"><ele>213.0</ele><time>2026-04-12T10:51:19.329Z</time></trkpt><trkpt lat="44.6819594" lon="7.8656523"><ele>212.7142857142857</ele><time>2026-04-12T10:51:22.328Z</time></trkpt><trkpt lat="44.6819783" lon="7.8655649"><ele>212.42857142857142</ele><time>2026-04-12T10:51:24.328Z</time></trkpt><trkpt lat="44.6820016" lon="7.8654764"><ele>212.14285714285714</ele><time>2026-04-12T10:51:26.329Z</time></trkpt><trkpt lat="44.6820385" lon="7.8653925"><ele>211.85714285714283</ele><time>2026-04-12T10:51:28.328Z</time></trkpt><trkpt lat="44.6820936" lon="7.8653272"><ele>211.57142857142858</ele><time>2026-04-12T10:51:30.329Z</time></trkpt><trkpt lat="44.6821564" lon="7.8652702"><ele>211.28571428571428</ele><time>2026-04-12T10:51:32.329Z</time></trkpt><trkpt lat="44.6822186" lon="7.8652208"><ele>211.0</ele><time>2026-04-12T10:51:34.329Z</time></trkpt><trkpt lat="44.6822814" lon="7.8651727"><ele>210.99999999999997</ele><time>2026-04-12T10:51:36.329Z</time></trkpt><trkpt lat="44.6823457" lon="7.8651237"><ele>211.0</ele><time>2026-04-12T10:51:38.329Z</time></trkpt><trkpt lat="44.6824103" lon="7.8650838"><ele>211.0</ele><time>2026-04-12T10:51:40.329Z</time></trkpt><trkpt lat="44.6824785" lon="7.8650309"><ele>211.0</ele><time>2026-04-12T10:51:42.329Z</time></trkpt><trkpt lat="44.6825485" lon="7.8649768"><ele>210.99999999999997</ele><time>2026-04-12T10:51:44.329Z</time></trkpt><trkpt lat="44.6826198" lon="7.8649229"><ele>211.0</ele><time>2026-04-12T10:51:46.329Z</time></trkpt><trkpt lat="44.6826889" lon="7.8648702"><ele>211.33333333333331</ele><time>2026-04-12T10:51:48.328Z</time></trkpt><trkpt lat="44.6827606" lon="7.864821"><ele>211.66666666666666</ele><time>2026-04-12T10:51:50.329Z</time></trkpt><trkpt lat="44.68283" lon="7.8647663"><ele>212.0</ele><time>2026-04-12T10:51:52.328Z</time></trkpt><trkpt lat="44.6828885" lon="7.8646899"><ele>212.33333333333331</ele><time>2026-04-12T10:51:54.328Z</time></trkpt><trkpt lat="44.6829191" lon="7.8645887"><ele>212.66666666666666</ele><time>2026-04-12T10:51:56.329Z</time></trkpt><trkpt lat="44.682921" lon="7.8644776"><ele>213.0</ele><time>2026-04-12T10:51:58.329Z</time></trkpt><trkpt lat="44.682911" lon="7.8643709"><ele>213.0</ele><time>2026-04-12T10:52:00.329Z</time></trkpt><trkpt lat="44.6829115" lon="7.8642653"><ele>213.0</ele><time>2026-04-12T10:52:02.329Z</time></trkpt><trkpt lat="44.6829322" lon="7.8641683"><ele>213.0</ele><time>2026-04-12T10:52:04.329Z</time></trkpt><trkpt lat="44.682964" lon="7.8640799"><ele>213.0</ele><time>2026-04-12T10:52:06.329Z</time></trkpt><trkpt lat="44.6830168" lon="7.8640037"><ele>213.0</ele><time>2026-04-12T10:52:08.329Z</time></trkpt><trkpt lat="44.6830709" lon="7.8639256"><ele>213.0</ele><time>2026-04-12T10:52:10.329Z</time></trkpt><trkpt lat="44.6831299" lon="7.8638497"><ele>213.0</ele><time>2026-04-12T10:52:12.329Z</time></trkpt><trkpt lat="44.683182" lon="7.8637673"><ele>213.0</ele><time>2026-04-12T10:52:14.328Z</time></trkpt><trkpt lat="44.683236" lon="7.8636836"><ele>213.0</ele><time>2026-04-12T10:52:16.329Z</time></trkpt><trkpt lat="44.6832882" lon="7.8636044"><ele>213.0</ele><time>2026-04-12T10:52:18.329Z</time></trkpt><trkpt lat="44.6833388" lon="7.8635239"><ele>213.0</ele><time>2026-04-12T10:52:20.329Z</time></trkpt><trkpt lat="44.6833949" lon="7.8634411"><ele>213.0</ele><time>2026-04-12T10:52:22.329Z</time></trkpt><trkpt lat="44.6834508" lon="7.8633574"><ele>213.16666666666666</ele><time>2026-04-12T10:52:24.329Z</time></trkpt><trkpt lat="44.6835063" lon="7.8632711"><ele>213.33333333333331</ele><time>2026-04-12T10:52:26.329Z</time></trkpt><trkpt lat="44.6835621" lon="7.8631871"><ele>213.5</ele><time>2026-04-12T10:52:28.328Z</time></trkpt><trkpt lat="44.6836199" lon="7.8631032"><ele>213.66666666666666</ele><time>2026-04-12T10:52:30.329Z</time></trkpt><trkpt lat="44.6836757" lon="7.863018"><ele>213.83333333333331</ele><time>2026-04-12T10:52:32.328Z</time></trkpt><trkpt lat="44.6837288" lon="7.86293"><ele>214.0</ele><time>2026-04-12T10:52:34.328Z</time></trkpt><trkpt lat="44.6837816" lon="7.8628434"><ele>213.83333333333331</ele><time>2026-04-12T10:52:36.328Z</time></trkpt><trkpt lat="44.6838412" lon="7.8627661"><ele>213.66666666666666</ele><time>2026-04-12T10:52:38.329Z</time></trkpt><trkpt lat="44.6838963" lon="7.8626755"><ele>213.5</ele><time>2026-04-12T10:52:40.329Z</time></trkpt><trkpt lat="44.6839519" lon="7.8625867"><ele>213.33333333333331</ele><time>2026-04-12T10:52:42.329Z</time></trkpt><trkpt lat="44.6840078" lon="7.8625017"><ele>213.16666666666666</ele><time>2026-04-12T10:52:44.328Z</time></trkpt><trkpt lat="44.6840558" lon="7.8624083"><ele>213.0</ele><time>2026-04-12T10:52:46.329Z</time></trkpt><trkpt lat="44.6841045" lon="7.862325"><ele>213.0</ele><time>2026-04-12T10:52:48.329Z</time></trkpt><trkpt lat="44.6841493" lon="7.8622412"><ele>213.0</ele><time>2026-04-12T10:52:50.329Z</time></trkpt><trkpt lat="44.6841881" lon="7.8621517"><ele>213.0</ele><time>2026-04-12T10:52:52.328Z</time></trkpt><trkpt lat="44.6842331" lon="7.8620661"><ele>213.0</ele><time>2026-04-12T10:52:54.328Z</time></trkpt><trkpt lat="44.6842823" lon="7.8619822"><ele>213.0</ele><time>2026-04-12T10:52:56.328Z</time></trkpt><trkpt lat="44.684338" lon="7.8619018"><ele>213.0</ele><time>2026-04-12T10:52:58.329Z</time></trkpt><trkpt lat="44.6844005" lon="7.8618321"><ele>213.16666666666666</ele><time>2026-04-12T10:53:00.329Z</time></trkpt><trkpt lat="44.6844747" lon="7.8617863"><ele>213.33333333333331</ele><time>2026-04-12T10:53:02.328Z</time></trkpt><trkpt lat="44.6845547" lon="7.8617694"><ele>213.5</ele><time>2026-04-12T10:53:04.329Z</time></trkpt><trkpt lat="44.684627" lon="7.8617618"><ele>213.66666666666666</ele><time>2026-04-12T10:53:06.329Z</time></trkpt><trkpt lat="44.6847091" lon="7.8617505"><ele>213.83333333333331</ele><time>2026-04-12T10:53:08.329Z</time></trkpt><trkpt lat="44.6847981" lon="7.8617401"><ele>214.0</ele><time>2026-04-12T10:53:10.329Z</time></trkpt><trkpt lat="44.6848942" lon="7.8617215"><ele>214.0</ele><time>2026-04-12T10:53:12.329Z</time></trkpt><trkpt lat="44.6849897" lon="7.861693"><ele>213.99999999999997</ele><time>2026-04-12T10:53:14.328Z</time></trkpt><trkpt lat="44.6850871" lon="7.8616661"><ele>213.99999999999997</ele><time>2026-04-12T10:53:16.328Z</time></trkpt><trkpt lat="44.6851762" lon="7.8616351"><ele>214.0</ele><time>2026-04-12T10:53:18.329Z</time></trkpt><trkpt lat="44.6852664" lon="7.8615984"><ele>214.0</ele><time>2026-04-12T10:53:20.329Z</time></trkpt><trkpt lat="44.6853577" lon="7.8615725"><ele>214.16666666666666</ele><time>2026-04-12T10:53:22.329Z</time></trkpt><trkpt lat="44.6854511" lon="7.8615449"><ele>214.33333333333331</ele><time>2026-04-12T10:53:24.328Z</time></trkpt><trkpt lat="44.6855472" lon="7.8615295"><ele>214.5</ele><time>2026-04-12T10:53:26.329Z</time></trkpt><trkpt lat="44.6856313" lon="7.861511"><ele>214.66666666666669</ele><time>2026-04-12T10:53:28.329Z</time></trkpt><trkpt lat="44.685712" lon="7.8614868"><ele>214.83333333333334</ele><time>2026-04-12T10:53:30.329Z</time></trkpt><trkpt lat="44.6857964" lon="7.8614637"><ele>215.0</ele><time>2026-04-12T10:53:32.329Z</time></trkpt><trkpt lat="44.6858837" lon="7.8614481"><ele>215.00000000000003</ele><time>2026-04-12T10:53:34.329Z</time></trkpt><trkpt lat="44.6859742" lon="7.8614243"><ele>215.0</ele><time>2026-04-12T10:53:36.329Z</time></trkpt><trkpt lat="44.6860672" lon="7.8614162"><ele>215.0</ele><time>2026-04-12T10:53:38.329Z</time></trkpt><trkpt lat="44.6861483" lon="7.86139"><ele>215.0</ele><time>2026-04-12T10:53:40.328Z</time></trkpt><trkpt lat="44.6862254" lon="7.8613661"><ele>215.00000000000003</ele><time>2026-04-12T10:53:42.329Z</time></trkpt><trkpt lat="44.6863066" lon="7.8613452"><ele>215.0</ele><time>2026-04-12T10:53:44.329Z</time></trkpt><trkpt lat="44.6863845" lon="7.8613135"><ele>215.00000000000003</ele><time>2026-04-12T10:53:46.329Z</time></trkpt><trkpt lat="44.6864617" lon="7.8612817"><ele>215.0</ele><time>2026-04-12T10:53:48.329Z</time></trkpt><trkpt lat="44.686536" lon="7.861259"><ele>215.0</ele><time>2026-04-12T10:53:50.329Z</time></trkpt><trkpt lat="44.6865993" lon="7.8612375"><ele>215.0</ele><time>2026-04-12T10:53:52.329Z</time></trkpt><trkpt lat="44.6866819" lon="7.8612173"><ele>215.00000000000003</ele><time>2026-04-12T10:53:55.329Z</time></trkpt><trkpt lat="44.6867735" lon="7.8612064"><ele>215.0</ele><time>2026-04-12T10:53:58.329Z</time></trkpt><trkpt lat="44.6868458" lon="7.8611927"><ele>215.00000000000003</ele><time>2026-04-12T10:54:00.329Z</time></trkpt><trkpt lat="44.6869147" lon="7.8611797"><ele>215.0</ele><time>2026-04-12T10:54:02.328Z</time></trkpt><trkpt lat="44.6870021" lon="7.8611366"><ele>215.0</ele><time>2026-04-12T10:54:05.328Z</time></trkpt><trkpt lat="44.6870647" lon="7.8611065"><ele>215.0</ele><time>2026-04-12T10:54:08.329Z</time></trkpt><trkpt lat="44.6871355" lon="7.8610433"><ele>215.00000000000003</ele><time>2026-04-12T10:54:11.328Z</time></trkpt><trkpt lat="44.6872021" lon="7.860981"><ele>215.0</ele><time>2026-04-12T10:54:14.329Z</time></trkpt><trkpt lat="44.6872734" lon="7.860939"><ele>215.57142857142856</ele><time>2026-04-12T10:54:17.328Z</time></trkpt><trkpt lat="44.687332" lon="7.8608925"><ele>216.14285714285717</ele><time>2026-04-12T10:54:20.329Z</time></trkpt><trkpt lat="44.6873921" lon="7.8608591"><ele>216.71428571428572</ele><time>2026-04-12T10:54:23.328Z</time></trkpt><trkpt lat="44.6874502" lon="7.8608165"><ele>217.28571428571428</ele><time>2026-04-12T10:54:26.328Z</time></trkpt><trkpt lat="44.6875266" lon="7.8607847"><ele>217.85714285714283</ele><time>2026-04-12T10:54:30.329Z</time></trkpt><trkpt lat="44.6875866" lon="7.8607312"><ele>218.42857142857144</ele><time>2026-04-12T10:54:44.328Z</time></trkpt><trkpt lat="44.6876489" lon="7.860698"><ele>219.0</ele><time>2026-04-12T10:54:48.329Z</time></trkpt><trkpt lat="44.687709" lon="7.860665"><ele>220.57142857142858</ele><time>2026-04-12T10:54:52.329Z</time></trkpt><trkpt lat="44.6877635" lon="7.8606155"><ele>222.1428571428571</ele><time>2026-04-12T10:54:56.329Z</time></trkpt><trkpt lat="44.6878294" lon="7.8605925"><ele>223.7142857142857</ele><time>2026-04-12T10:55:00.328Z</time></trkpt><trkpt lat="44.687904" lon="7.8605699"><ele>225.28571428571428</ele><time>2026-04-12T10:55:05.328Z</time></trkpt><trkpt lat="44.6879715" lon="7.8605532"><ele>226.85714285714283</ele><time>2026-04-12T10:55:09.329Z</time></trkpt><trkpt lat="44.6880491" lon="7.8605506"><ele>228.4285714285714</ele><time>2026-04-12T10:55:14.328Z</time></trkpt><trkpt lat="44.6881185" lon="7.860549"><ele>229.99999999999997</ele><time>2026-04-12T10:55:18.329Z</time></trkpt><trkpt lat="44.6881761" lon="7.8605127"><ele>229.99999999999997</ele><time>2026-04-12T10:55:22.328Z</time></trkpt><trkpt lat="44.6882279" lon="7.8604441"><ele>230.0</ele><time>2026-04-12T10:55:26.329Z</time></trkpt><trkpt lat="44.6882884" lon="7.8603857"><ele>229.99999999999997</ele><time>2026-04-12T10:55:30.329Z</time></trkpt><trkpt lat="44.6883441" lon="7.8603157"><ele>229.99999999999997</ele><time>2026-04-12T10:55:34.328Z</time></trkpt><trkpt lat="44.6883968" lon="7.8602453"><ele>230.0</ele><time>2026-04-12T10:55:38.328Z</time></trkpt><trkpt lat="44.6884314" lon="7.8601557"><ele>229.99999999999997</ele><time>2026-04-12T10:55:42.329Z</time></trkpt><trkpt lat="44.6884566" lon="7.8600671"><ele>229.99999999999997</ele><time>2026-04-12T10:55:46.329Z</time></trkpt><trkpt lat="44.6884667" lon="7.8599713"><ele>230.28571428571425</ele><time>2026-04-12T10:55:50.328Z</time></trkpt><trkpt lat="44.6884704" lon="7.8598754"><ele>230.57142857142856</ele><time>2026-04-12T10:55:54.329Z</time></trkpt><trkpt lat="44.6884536" lon="7.8597765"><ele>230.85714285714286</ele><time>2026-04-12T10:55:58.329Z</time></trkpt><trkpt lat="44.6884453" lon="7.8596779"><ele>231.14285714285714</ele><time>2026-04-12T10:56:02.328Z</time></trkpt><trkpt lat="44.6884152" lon="7.8595878"><ele>231.42857142857144</ele><time>2026-04-12T10:57:32.329Z</time></trkpt><trkpt lat="44.688401" lon="7.859498"><ele>231.71428571428575</ele><time>2026-04-12T10:57:37.329Z</time></trkpt><trkpt lat="44.6883819" lon="7.8594063"><ele>232.00000000000003</ele><time>2026-04-12T10:57:43.329Z</time></trkpt><trkpt lat="44.6883592" lon="7.8593053"><ele>232.71428571428575</ele><time>2026-04-12T10:57:49.329Z</time></trkpt><trkpt lat="44.6883327" lon="7.8592064"><ele>233.42857142857144</ele><time>2026-04-12T10:57:55.329Z</time></trkpt><trkpt lat="44.6883178" lon="7.8591133"><ele>234.14285714285714</ele><time>2026-04-12T10:58:01.328Z</time></trkpt><trkpt lat="44.6883027" lon="7.8590105"><ele>234.85714285714286</ele><time>2026-04-12T10:58:07.328Z</time></trkpt><trkpt lat="44.6882823" lon="7.8589198"><ele>235.57142857142856</ele><time>2026-04-12T10:58:12.328Z</time></trkpt><trkpt lat="44.6882581" lon="7.8588208"><ele>236.28571428571425</ele><time>2026-04-12T10:58:18.329Z</time></trkpt><trkpt lat="44.6882439" lon="7.8587311"><ele>236.99999999999997</ele><time>2026-04-12T10:58:23.329Z</time></trkpt><trkpt lat="44.6882362" lon="7.858641"><ele>236.99999999999997</ele><time>2026-04-12T10:58:28.329Z</time></trkpt><trkpt lat="44.6882301" lon="7.8585471"><ele>237.0</ele><time>2026-04-12T10:58:34.328Z</time></trkpt><trkpt lat="44.6882116" lon="7.8584509"><ele>236.99999999999997</ele><time>2026-04-12T10:58:40.329Z</time></trkpt><trkpt lat="44.688194" lon="7.8583546"><ele>236.99999999999997</ele><time>2026-04-12T10:58:45.329Z</time></trkpt><trkpt lat="44.6881681" lon="7.8582614"><ele>237.0</ele><time>2026-04-12T10:58:50.328Z</time></trkpt><trkpt lat="44.6881443" lon="7.8581731"><ele>236.99999999999997</ele><time>2026-04-12T10:58:55.329Z</time></trkpt><trkpt lat="44.6881254" lon="7.8580802"><ele>236.99999999999997</ele><time>2026-04-12T10:59:00.328Z</time></trkpt><trkpt lat="44.6881066" lon="7.8579923"><ele>238.1428571428571</ele><time>2026-04-12T10:59:05.328Z</time></trkpt><trkpt lat="44.6880952" lon="7.8578982"><ele>239.28571428571428</ele><time>2026-04-12T10:59:10.329Z</time></trkpt><trkpt lat="44.6880853" lon="7.8578078"><ele>240.42857142857142</ele><time>2026-04-12T10:59:15.328Z</time></trkpt><trkpt lat="44.6880757" lon="7.8577122"><ele>241.57142857142856</ele><time>2026-04-12T10:59:20.329Z</time></trkpt><trkpt lat="44.6880815" lon="7.8576074"><ele>242.71428571428572</ele><time>2026-04-12T10:59:26.329Z</time></trkpt><trkpt lat="44.6880777" lon="7.8575055"><ele>243.85714285714286</ele><time>2026-04-12T11:00:36.328Z</time></trkpt><trkpt lat="44.6880895" lon="7.8574021"><ele>245.0</ele><time>2026-04-12T11:00:43.328Z</time></trkpt><trkpt lat="44.6880939" lon="7.8573054"><ele>246.14285714285714</ele><time>2026-04-12T11:00:49.328Z</time></trkpt><trkpt lat="44.6880908" lon="7.8572159"><ele>247.28571428571428</ele><time>2026-04-12T11:00:55.329Z</time></trkpt><trkpt lat="44.6880923" lon="7.8571195"><ele>248.42857142857144</ele><time>2026-04-12T11:01:01.329Z</time></trkpt><trkpt lat="44.688089" lon="7.8570234"><ele>249.57142857142858</ele><time>2026-04-12T11:01:07.329Z</time></trkpt><trkpt lat="44.6880829" lon="7.8569224"><ele>250.71428571428572</ele><time>2026-04-12T11:01:13.328Z</time></trkpt><trkpt lat="44.6880735" lon="7.8568234"><ele>251.8571428571429</ele><time>2026-04-12T11:01:19.329Z</time></trkpt><trkpt lat="44.6880699" lon="7.8567336"><ele>253.00000000000003</ele><time>2026-04-12T11:01:24.328Z</time></trkpt><trkpt lat="44.6880637" lon="7.8566311"><ele>254.42857142857144</ele><time>2026-04-12T11:01:30.329Z</time></trkpt><trkpt lat="44.6880585" lon="7.8565395"><ele>255.85714285714286</ele><time>2026-04-12T11:01:35.328Z</time></trkpt><trkpt lat="44.688035" lon="7.8564423"><ele>257.2857142857143</ele><time>2026-04-12T11:01:43.329Z</time></trkpt><trkpt lat="44.6880622" lon="7.8563602"><ele>258.7142857142857</ele><time>2026-04-12T11:01:50.329Z</time></trkpt><trkpt lat="44.6880826" lon="7.8562752"><ele>260.1428571428571</ele><time>2026-04-12T11:01:58.328Z</time></trkpt><trkpt lat="44.6881016" lon="7.8561897"><ele>261.57142857142856</ele><time>2026-04-12T11:02:06.328Z</time></trkpt><trkpt lat="44.6881389" lon="7.8561138"><ele>263.0</ele><time>2026-04-12T11:02:17.329Z</time></trkpt><trkpt lat="44.6882042" lon="7.8561203"><ele>263.0</ele><time>2026-04-12T11:02:41.329Z</time></trkpt><trkpt lat="44.6882713" lon="7.8560938"><ele>263.0</ele><time>2026-04-12T11:04:27.328Z</time></trkpt><trkpt lat="44.6883134" lon="7.856016"><ele>263.0</ele><time>2026-04-12T11:04:34.329Z</time></trkpt><trkpt lat="44.6883276" lon="7.8559207"><ele>263.0</ele><time>2026-04-12T11:04:42.328Z</time></trkpt><trkpt lat="44.6883336" lon="7.8558291"><ele>263.0</ele><time>2026-04-12T11:04:49.329Z</time></trkpt><trkpt lat="44.6883479" lon="7.8557398"><ele>263.0</ele><time>2026-04-12T11:04:56.328Z</time></trkpt><trkpt lat="44.6883673" lon="7.8556542"><ele>263.0</ele><time>2026-04-12T11:05:03.328Z</time></trkpt><trkpt lat="44.6883936" lon="7.8555723"><ele>264.0</ele><time>2026-04-12T11:05:10.329Z</time></trkpt><trkpt lat="44.6884366" lon="7.8555062"><ele>265.0</ele><time>2026-04-12T11:05:17.328Z</time></trkpt><trkpt lat="44.6884961" lon="7.8554565"><ele>266.0</ele><time>2026-04-12T11:05:25.328Z</time></trkpt><trkpt lat="44.688561" lon="7.8554528"><ele>267.0</ele><time>2026-04-12T11:05:32.329Z</time></trkpt><trkpt lat="44.6886286" lon="7.8554594"><ele>268.0</ele><time>2026-04-12T11:05:39.328Z</time></trkpt><trkpt lat="44.6886986" lon="7.8554649"><ele>269.0</ele><time>2026-04-12T11:05:47.329Z</time></trkpt><trkpt lat="44.6887606" lon="7.8554485"><ele>270.0</ele><time>2026-04-12T11:05:53.329Z</time></trkpt><trkpt lat="44.6888205" lon="7.8553933"><ele>271.2857142857143</ele><time>2026-04-12T11:06:00.329Z</time></trkpt><trkpt lat="44.6888439" lon="7.8553109"><ele>272.57142857142856</ele><time>2026-04-12T11:06:06.329Z</time></trkpt><trkpt lat="44.6888402" lon="7.8552193"><ele>273.85714285714283</ele><time>2026-04-12T11:06:12.329Z</time></trkpt><trkpt lat="44.6888045" lon="7.8551291"><ele>275.1428571428571</ele><time>2026-04-12T11:06:19.329Z</time></trkpt><trkpt lat="44.6887877" lon="7.8550398"><ele>276.42857142857144</ele><time>2026-04-12T11:06:27.329Z</time></trkpt><trkpt lat="44.6888519" lon="7.8550438"><ele>277.71428571428567</ele><time>2026-04-12T11:06:37.329Z</time></trkpt><trkpt lat="44.688925" lon="7.8550726"><ele>279.0</ele><time>2026-04-12T11:06:42.329Z</time></trkpt><trkpt lat="44.6889872" lon="7.8550953"><ele>278.99999999999994</ele><time>2026-04-12T11:06:46.329Z</time></trkpt><trkpt lat="44.6890561" lon="7.8551078"><ele>279.0</ele><time>2026-04-12T11:06:50.329Z</time></trkpt><trkpt lat="44.689136" lon="7.8551268"><ele>279.0</ele><time>2026-04-12T11:06:54.329Z</time></trkpt><trkpt lat="44.6892122" lon="7.8551472"><ele>279.0</ele><time>2026-04-12T11:06:58.329Z</time></trkpt><trkpt lat="44.6892912" lon="7.8551732"><ele>279.0</ele><time>2026-04-12T11:07:02.329Z</time></trkpt><trkpt lat="44.6893623" lon="7.855194"><ele>278.99999999999994</ele><time>2026-04-12T11:07:06.328Z</time></trkpt><trkpt lat="44.689429" lon="7.8551792"><ele>279.0</ele><time>2026-04-12T11:07:09.329Z</time></trkpt><trkpt lat="44.6894973" lon="7.8551705"><ele>278.99999999999994</ele><time>2026-04-12T11:07:12.329Z</time></trkpt><trkpt lat="44.6895609" lon="7.8551652"><ele>279.0</ele><time>2026-04-12T11:07:15.329Z</time></trkpt><trkpt lat="44.6896269" lon="7.8551575"><ele>279.0</ele><time>2026-04-12T11:07:18.329Z</time></trkpt><trkpt lat="44.689702" lon="7.8551457"><ele>279.0</ele><time>2026-04-12T11:07:21.328Z</time></trkpt><trkpt lat="44.689778" lon="7.8551283"><ele>279.0</ele><time>2026-04-12T11:07:24.328Z</time></trkpt><trkpt lat="44.6898506" lon="7.8551099"><ele>278.99999999999994</ele><time>2026-04-12T11:07:27.328Z</time></trkpt><trkpt lat="44.6899225" lon="7.8550873"><ele>279.0</ele><time>2026-04-12T11:07:30.329Z</time></trkpt><trkpt lat="44.6899897" lon="7.8550685"><ele>278.99999999999994</ele><time>2026-04-12T11:07:33.328Z</time></trkpt><trkpt lat="44.6900528" lon="7.8550535"><ele>279.0</ele><time>2026-04-12T11:07:36.329Z</time></trkpt><trkpt lat="44.6901174" lon="7.8550298"><ele>279.0</ele><time>2026-04-12T11:07:39.328Z</time></trkpt><trkpt lat="44.6901842" lon="7.8550041"><ele>279.0</ele><time>2026-04-12T11:07:42.328Z</time></trkpt><trkpt lat="44.6902511" lon="7.8549661"><ele>279.0</ele><time>2026-04-12T11:07:45.329Z</time></trkpt><trkpt lat="44.6903316" lon="7.8549212"><ele>278.99999999999994</ele><time>2026-04-12T11:07:48.329Z</time></trkpt><trkpt lat="44.6903914" lon="7.854885"><ele>279.0</ele><time>2026-04-12T11:07:50.328Z</time></trkpt><trkpt lat="44.6904529" lon="7.8548581"><ele>279.1666666666667</ele><time>2026-04-12T11:07:52.328Z</time></trkpt><trkpt lat="44.6905441" lon="7.8548328"><ele>279.3333333333333</ele><time>2026-04-12T11:07:55.329Z</time></trkpt><trkpt lat="44.6906276" lon="7.8548237"><ele>279.5</ele><time>2026-04-12T11:07:58.329Z</time></trkpt><trkpt lat="44.6906926" lon="7.8548258"><ele>279.66666666666663</ele><time>2026-04-12T11:08:00.328Z</time></trkpt><trkpt lat="44.6907622" lon="7.8548326"><ele>279.8333333333333</ele><time>2026-04-12T11:08:02.328Z</time></trkpt><trkpt lat="44.6908337" lon="7.8548399"><ele>280.0</ele><time>2026-04-12T11:08:04.329Z</time></trkpt><trkpt lat="44.6909092" lon="7.854851"><ele>280.0</ele><time>2026-04-12T11:08:06.329Z</time></trkpt><trkpt lat="44.6909881" lon="7.8548643"><ele>280.0</ele><time>2026-04-12T11:08:08.329Z</time></trkpt><trkpt lat="44.6910694" lon="7.854877"><ele>280.0</ele><time>2026-04-12T11:08:10.329Z</time></trkpt><trkpt lat="44.691148" lon="7.8548887"><ele>280.0</ele><time>2026-04-12T11:08:12.329Z</time></trkpt><trkpt lat="44.6912242" lon="7.854902"><ele>280.0</ele><time>2026-04-12T11:08:14.329Z</time></trkpt><trkpt lat="44.6913027" lon="7.8549123"><ele>280.0</ele><time>2026-04-12T11:08:16.329Z</time></trkpt><trkpt lat="44.6913842" lon="7.8549194"><ele>280.0</ele><time>2026-04-12T11:08:18.329Z</time></trkpt><trkpt lat="44.6914631" lon="7.8549256"><ele>280.0</ele><time>2026-04-12T11:08:20.328Z</time></trkpt><trkpt lat="44.6915385" lon="7.854932"><ele>280.0</ele><time>2026-04-12T11:08:22.329Z</time></trkpt><trkpt lat="44.6916093" lon="7.8549456"><ele>280.0</ele><time>2026-04-12T11:08:24.328Z</time></trkpt><trkpt lat="44.6916776" lon="7.8549611"><ele>280.0</ele><time>2026-04-12T11:08:26.328Z</time></trkpt><trkpt lat="44.6917487" lon="7.8549728"><ele>280.0</ele><time>2026-04-12T11:08:28.329Z</time></trkpt><trkpt lat="44.6918206" lon="7.8549823"><ele>280.0</ele><time>2026-04-12T11:08:30.328Z</time></trkpt><trkpt lat="44.69189" lon="7.8549924"><ele>279.8333333333333</ele><time>2026-04-12T11:08:32.328Z</time></trkpt><trkpt lat="44.6919582" lon="7.8550025"><ele>279.66666666666663</ele><time>2026-04-12T11:08:34.328Z</time></trkpt><trkpt lat="44.692025" lon="7.8550124"><ele>279.5</ele><time>2026-04-12T11:08:36.329Z</time></trkpt><trkpt lat="44.6921102" lon="7.855023"><ele>279.3333333333333</ele><time>2026-04-12T11:08:39.328Z</time></trkpt><trkpt lat="44.6921854" lon="7.8550327"><ele>279.1666666666667</ele><time>2026-04-12T11:08:42.329Z</time></trkpt><trkpt lat="44.6922756" lon="7.8550519"><ele>279.0</ele><time>2026-04-12T11:08:45.329Z</time></trkpt><trkpt lat="44.6923402" lon="7.8550559"><ele>279.0</ele><time>2026-04-12T11:08:47.328Z</time></trkpt><trkpt lat="44.6924108" lon="7.855045"><ele>279.0</ele><time>2026-04-12T11:08:49.329Z</time></trkpt><trkpt lat="44.6924864" lon="7.8550404"><ele>279.0</ele><time>2026-04-12T11:08:51.328Z</time></trkpt><trkpt lat="44.6925676" lon="7.8550548"><ele>279.0</ele><time>2026-04-12T11:08:53.329Z</time></trkpt><trkpt lat="44.69265" lon="7.8550567"><ele>279.0</ele><time>2026-04-12T11:08:55.329Z</time></trkpt><trkpt lat="44.6927307" lon="7.8550639"><ele>279.0</ele><time>2026-04-12T11:08:57.328Z</time></trkpt><trkpt lat="44.692806" lon="7.8550646"><ele>279.4285714285714</ele><time>2026-04-12T11:08:59.329Z</time></trkpt><trkpt lat="44.6928839" lon="7.855061"><ele>279.85714285714283</ele><time>2026-04-12T11:09:01.329Z</time></trkpt><trkpt lat="44.6929573" lon="7.8550512"><ele>280.2857142857143</ele><time>2026-04-12T11:09:03.328Z</time></trkpt><trkpt lat="44.6930289" lon="7.8550456"><ele>280.71428571428567</ele><time>2026-04-12T11:09:05.328Z</time></trkpt><trkpt lat="44.693095" lon="7.855039"><ele>281.1428571428571</ele><time>2026-04-12T11:09:07.328Z</time></trkpt><trkpt lat="44.6931623" lon="7.855038"><ele>281.57142857142856</ele><time>2026-04-12T11:09:09.328Z</time></trkpt><trkpt lat="44.6932277" lon="7.8550417"><ele>282.0</ele><time>2026-04-12T11:09:11.329Z</time></trkpt><trkpt lat="44.6933206" lon="7.8550305"><ele>282.0</ele><time>2026-04-12T11:09:14.329Z</time></trkpt><trkpt lat="44.693408" lon="7.8550108"><ele>282.0</ele><time>2026-04-12T11:09:17.329Z</time></trkpt><trkpt lat="44.6934764" lon="7.8550054"><ele>282.0</ele><time>2026-04-12T11:09:19.328Z</time></trkpt><trkpt lat="44.6935519" lon="7.854998"><ele>282.0</ele><time>2026-04-12T11:09:21.328Z</time></trkpt><trkpt lat="44.6936293" lon="7.8549787"><ele>282.0</ele><time>2026-04-12T11:09:23.328Z</time></trkpt><trkpt lat="44.6936948" lon="7.8549671"><ele>282.0</ele><time>2026-04-12T11:09:25.328Z</time></trkpt><trkpt lat="44.6937583" lon="7.854954"><ele>282.0</ele><time>2026-04-12T11:09:27.328Z</time></trkpt><trkpt lat="44.6938291" lon="7.8549488"><ele>282.1666666666667</ele><time>2026-04-12T11:09:29.329Z</time></trkpt><trkpt lat="44.6939001" lon="7.8549214"><ele>282.3333333333333</ele><time>2026-04-12T11:09:31.328Z</time></trkpt><trkpt lat="44.6939771" lon="7.854908"><ele>282.5</ele><time>2026-04-12T11:09:33.329Z</time></trkpt><trkpt lat="44.69405" lon="7.8548965"><ele>282.66666666666663</ele><time>2026-04-12T11:09:35.329Z</time></trkpt><trkpt lat="44.6941404" lon="7.8548917"><ele>282.8333333333333</ele><time>2026-04-12T11:09:37.328Z</time></trkpt><trkpt lat="44.6942262" lon="7.8548719"><ele>283.0</ele><time>2026-04-12T11:09:39.328Z</time></trkpt><trkpt lat="44.6943048" lon="7.8548475"><ele>283.0</ele><time>2026-04-12T11:09:41.329Z</time></trkpt><trkpt lat="44.694376" lon="7.8548229"><ele>283.0</ele><time>2026-04-12T11:09:43.329Z</time></trkpt><trkpt lat="44.6944488" lon="7.8548051"><ele>283.0</ele><time>2026-04-12T11:09:45.329Z</time></trkpt><trkpt lat="44.6945205" lon="7.8547725"><ele>283.0</ele><time>2026-04-12T11:09:47.329Z</time></trkpt><trkpt lat="44.6946108" lon="7.8547375"><ele>283.0</ele><time>2026-04-12T11:09:50.329Z</time></trkpt><trkpt lat="44.6947004" lon="7.8547135"><ele>283.0</ele><time>2026-04-12T11:09:53.329Z</time></trkpt><trkpt lat="44.6947844" lon="7.8546774"><ele>283.3333333333333</ele><time>2026-04-12T11:09:56.329Z</time></trkpt><trkpt lat="44.6948741" lon="7.8546393"><ele>283.66666666666663</ele><time>2026-04-12T11:09:59.328Z</time></trkpt><trkpt lat="44.6949473" lon="7.8545998"><ele>284.0</ele><time>2026-04-12T11:10:02.328Z</time></trkpt><trkpt lat="44.6950167" lon="7.8546677"><ele>284.3333333333333</ele><time>2026-04-12T11:10:05.328Z</time></trkpt><trkpt lat="44.6950359" lon="7.8547541"><ele>284.6666666666667</ele><time>2026-04-12T11:10:07.329Z</time></trkpt><trkpt lat="44.6950477" lon="7.8548428"><ele>285.0</ele><time>2026-04-12T11:10:09.329Z</time></trkpt><trkpt lat="44.6950754" lon="7.8549694"><ele>285.0</ele><time>2026-04-12T11:10:12.329Z</time></trkpt><trkpt lat="44.6950966" lon="7.8550562"><ele>285.0</ele><time>2026-04-12T11:10:14.329Z</time></trkpt><trkpt lat="44.6951149" lon="7.8551452"><ele>285.0</ele><time>2026-04-12T11:10:16.329Z</time></trkpt><trkpt lat="44.6951387" lon="7.8552306"><ele>285.0</ele><time>2026-04-12T11:10:18.329Z</time></trkpt><trkpt lat="44.6951584" lon="7.8553184"><ele>285.0</ele><time>2026-04-12T11:10:20.328Z</time></trkpt><trkpt lat="44.6951762" lon="7.8554083"><ele>285.0</ele><time>2026-04-12T11:10:22.329Z</time></trkpt><trkpt lat="44.6951927" lon="7.8554974"><ele>285.0</ele><time>2026-04-12T11:10:24.328Z</time></trkpt><trkpt lat="44.695222" lon="7.8556222"><ele>285.0</ele><time>2026-04-12T11:10:27.329Z</time></trkpt><trkpt lat="44.6952524" lon="7.8557404"><ele>285.0</ele><time>2026-04-12T11:10:30.329Z</time></trkpt><trkpt lat="44.6952853" lon="7.8558582"><ele>285.0</ele><time>2026-04-12T11:10:33.328Z</time></trkpt><trkpt lat="44.6953179" lon="7.8559794"><ele>285.0</ele><time>2026-04-12T11:10:36.329Z</time></trkpt><trkpt lat="44.6953516" lon="7.8561029"><ele>285.0</ele><time>2026-04-12T11:10:39.329Z</time></trkpt><trkpt lat="44.6953918" lon="7.8562174"><ele>285.3333333333333</ele><time>2026-04-12T11:10:42.329Z</time></trkpt><trkpt lat="44.6954283" lon="7.856334"><ele>285.6666666666667</ele><time>2026-04-12T11:10:45.328Z</time></trkpt><trkpt lat="44.695467" lon="7.8564419"><ele>286.0</ele><time>2026-04-12T11:10:48.329Z</time></trkpt><trkpt lat="44.6955055" lon="7.8565461"><ele>286.33333333333337</ele><time>2026-04-12T11:10:51.328Z</time></trkpt><trkpt lat="44.6955415" lon="7.85665"><ele>286.6666666666667</ele><time>2026-04-12T11:10:54.329Z</time></trkpt><trkpt lat="44.6955875" lon="7.8567142"><ele>287.0</ele><time>2026-04-12T11:10:57.328Z</time></trkpt><trkpt lat="44.695657" lon="7.8567048"><ele>287.0</ele><time>2026-04-12T11:11:01.329Z</time></trkpt><trkpt lat="44.6957201" lon="7.8566665"><ele>287.0</ele><time>2026-04-12T11:11:04.329Z</time></trkpt><trkpt lat="44.6957846" lon="7.8566331"><ele>287.0</ele><time>2026-04-12T11:11:07.329Z</time></trkpt><trkpt lat="44.695846" lon="7.8565866"><ele>287.0</ele><time>2026-04-12T11:11:10.328Z</time></trkpt><trkpt lat="44.6959063" lon="7.8565386"><ele>287.0</ele><time>2026-04-12T11:11:13.328Z</time></trkpt><trkpt lat="44.6959843" lon="7.8565362"><ele>287.0</ele><time>2026-04-12T11:11:17.329Z</time></trkpt><trkpt lat="44.6960441" lon="7.8564991"><ele>287.0</ele><time>2026-04-12T11:11:20.329Z</time></trkpt><trkpt lat="44.696103" lon="7.8564673"><ele>287.57142857142856</ele><time>2026-04-12T11:11:23.329Z</time></trkpt><trkpt lat="44.6961581" lon="7.8564217"><ele>288.1428571428571</ele><time>2026-04-12T11:11:26.329Z</time></trkpt><trkpt lat="44.6962257" lon="7.8563808"><ele>288.7142857142857</ele><time>2026-04-12T11:11:29.329Z</time></trkpt><trkpt lat="44.6962956" lon="7.856339"><ele>289.2857142857143</ele><time>2026-04-12T11:11:32.329Z</time></trkpt><trkpt lat="44.696371" lon="7.856294"><ele>289.85714285714283</ele><time>2026-04-12T11:11:35.328Z</time></trkpt><trkpt lat="44.6964393" lon="7.8562552"><ele>290.42857142857144</ele><time>2026-04-12T11:11:38.329Z</time></trkpt><trkpt lat="44.6965011" lon="7.8562268"><ele>291.0</ele><time>2026-04-12T11:11:41.329Z</time></trkpt><trkpt lat="44.6965673" lon="7.856212"><ele>291.0</ele><time>2026-04-12T11:11:45.328Z</time></trkpt><trkpt lat="44.6966274" lon="7.8561786"><ele>291.0</ele><time>2026-04-12T11:11:48.329Z</time></trkpt><trkpt lat="44.6966899" lon="7.856122"><ele>291.0</ele><time>2026-04-12T11:11:51.328Z</time></trkpt><trkpt lat="44.6967498" lon="7.8560489"><ele>291.0</ele><time>2026-04-12T11:11:54.328Z</time></trkpt><trkpt lat="44.696809" lon="7.8559486"><ele>291.0</ele><time>2026-04-12T11:11:57.329Z</time></trkpt><trkpt lat="44.6968544" lon="7.8558857"><ele>291.0</ele><time>2026-04-12T11:11:59.329Z</time></trkpt><trkpt lat="44.6969002" lon="7.85582"><ele>291.0</ele><time>2026-04-12T11:12:01.329Z</time></trkpt><trkpt lat="44.696946" lon="7.8557504"><ele>291.2857142857143</ele><time>2026-04-12T11:12:03.328Z</time></trkpt><trkpt lat="44.6969934" lon="7.8556836"><ele>291.57142857142856</ele><time>2026-04-12T11:12:05.328Z</time></trkpt><trkpt lat="44.6970414" lon="7.8556172"><ele>291.85714285714283</ele><time>2026-04-12T11:12:07.329Z</time></trkpt><trkpt lat="44.6970875" lon="7.8555491"><ele>292.1428571428571</ele><time>2026-04-12T11:12:09.329Z</time></trkpt><trkpt lat="44.6971346" lon="7.855483"><ele>292.42857142857144</ele><time>2026-04-12T11:12:11.329Z</time></trkpt><trkpt lat="44.6972026" lon="7.8554044"><ele>292.71428571428567</ele><time>2026-04-12T11:12:14.329Z</time></trkpt><trkpt lat="44.6972571" lon="7.8553463"><ele>293.0</ele><time>2026-04-12T11:12:17.328Z</time></trkpt><trkpt lat="44.6973119" lon="7.8552858"><ele>292.99999999999994</ele><time>2026-04-12T11:12:21.328Z</time></trkpt><trkpt lat="44.6973625" lon="7.855226"><ele>293.0</ele><time>2026-04-12T11:12:25.329Z</time></trkpt><trkpt lat="44.6974083" lon="7.8551533"><ele>293.0</ele><time>2026-04-12T11:12:28.328Z</time></trkpt><trkpt lat="44.6974613" lon="7.8550766"><ele>293.0</ele><time>2026-04-12T11:12:31.328Z</time></trkpt><trkpt lat="44.6975176" lon="7.8550119"><ele>293.0</ele><time>2026-04-12T11:12:34.328Z</time></trkpt><trkpt lat="44.6975662" lon="7.8549456"><ele>292.99999999999994</ele><time>2026-04-12T11:12:37.328Z</time></trkpt><trkpt lat="44.6976149" lon="7.8548845"><ele>293.0</ele><time>2026-04-12T11:12:40.328Z</time></trkpt><trkpt lat="44.6976711" lon="7.8548066"><ele>292.85714285714283</ele><time>2026-04-12T11:12:44.329Z</time></trkpt><trkpt lat="44.697719" lon="7.8547398"><ele>292.7142857142857</ele><time>2026-04-12T11:12:48.329Z</time></trkpt><trkpt lat="44.6977651" lon="7.85467"><ele>292.57142857142856</ele><time>2026-04-12T11:12:52.328Z</time></trkpt><trkpt lat="44.6978109" lon="7.8546043"><ele>292.42857142857144</ele><time>2026-04-12T11:12:56.329Z</time></trkpt><trkpt lat="44.6977889" lon="7.8545025"><ele>292.2857142857143</ele><time>2026-04-12T11:13:04.329Z</time></trkpt><trkpt lat="44.6977523" lon="7.8543901"><ele>292.1428571428571</ele><time>2026-04-12T11:13:08.329Z</time></trkpt><trkpt lat="44.6977329" lon="7.8542907"><ele>292.0</ele><time>2026-04-12T11:13:11.328Z</time></trkpt><trkpt lat="44.6976997" lon="7.8541967"><ele>292.0</ele><time>2026-04-12T11:13:14.328Z</time></trkpt><trkpt lat="44.6976648" lon="7.8541207"><ele>292.0</ele><time>2026-04-12T11:13:17.328Z</time></trkpt><trkpt lat="44.6976411" lon="7.8540181"><ele>292.0</ele><time>2026-04-12T11:13:24.328Z</time></trkpt><trkpt lat="44.6976077" lon="7.8539426"><ele>292.0</ele><time>2026-04-12T11:13:27.329Z</time></trkpt><trkpt lat="44.697572" lon="7.8538335"><ele>292.0</ele><time>2026-04-12T11:13:30.329Z</time></trkpt><trkpt lat="44.6975425" lon="7.853755"><ele>292.0</ele><time>2026-04-12T11:13:32.329Z</time></trkpt><trkpt lat="44.6975127" lon="7.8536742"><ele>292.0</ele><time>2026-04-12T11:13:34.329Z</time></trkpt><trkpt lat="44.6974738" lon="7.8535952"><ele>292.0</ele><time>2026-04-12T11:13:36.329Z</time></trkpt><trkpt lat="44.6974306" lon="7.8534862"><ele>292.0</ele><time>2026-04-12T11:13:39.329Z</time></trkpt><trkpt lat="44.697393" lon="7.8533722"><ele>292.0</ele><time>2026-04-12T11:13:42.329Z</time></trkpt><trkpt lat="44.6973655" lon="7.8532868"><ele>292.0</ele><time>2026-04-12T11:13:44.329Z</time></trkpt><trkpt lat="44.6973286" lon="7.853182"><ele>292.0</ele><time>2026-04-12T11:13:47.328Z</time></trkpt><trkpt lat="44.6973897" lon="7.8531302"><ele>292.0</ele><time>2026-04-12T11:13:50.328Z</time></trkpt><trkpt lat="44.6974558" lon="7.8530918"><ele>291.66666666666663</ele><time>2026-04-12T11:13:53.328Z</time></trkpt><trkpt lat="44.6975434" lon="7.8530415"><ele>291.3333333333333</ele><time>2026-04-12T11:13:56.329Z</time></trkpt><trkpt lat="44.6975975" lon="7.8529956"><ele>291.0</ele><time>2026-04-12T11:13:58.329Z</time></trkpt><trkpt lat="44.6976743" lon="7.8529332"><ele>290.6666666666667</ele><time>2026-04-12T11:14:01.328Z</time></trkpt><trkpt lat="44.6977572" lon="7.852886"><ele>290.33333333333337</ele><time>2026-04-12T11:14:04.329Z</time></trkpt><trkpt lat="44.6978332" lon="7.8528076"><ele>290.0</ele><time>2026-04-12T11:14:07.328Z</time></trkpt><trkpt lat="44.6978851" lon="7.8527497"><ele>289.83333333333337</ele><time>2026-04-12T11:14:09.329Z</time></trkpt><trkpt lat="44.6979463" lon="7.8526461"><ele>289.6666666666667</ele><time>2026-04-12T11:14:12.329Z</time></trkpt><trkpt lat="44.6979856" lon="7.8525704"><ele>289.5</ele><time>2026-04-12T11:14:14.329Z</time></trkpt><trkpt lat="44.6980402" lon="7.8524639"><ele>289.3333333333333</ele><time>2026-04-12T11:14:17.329Z</time></trkpt><trkpt lat="44.6980847" lon="7.8523592"><ele>289.16666666666663</ele><time>2026-04-12T11:14:20.329Z</time></trkpt><trkpt lat="44.6981385" lon="7.8522632"><ele>289.0</ele><time>2026-04-12T11:14:23.329Z</time></trkpt><trkpt lat="44.6981881" lon="7.8521601"><ele>288.8333333333333</ele><time>2026-04-12T11:14:26.329Z</time></trkpt><trkpt lat="44.6982304" lon="7.852059"><ele>288.66666666666663</ele><time>2026-04-12T11:14:29.328Z</time></trkpt><trkpt lat="44.6982724" lon="7.8519556"><ele>288.5</ele><time>2026-04-12T11:14:32.328Z</time></trkpt><trkpt lat="44.6983127" lon="7.8518572"><ele>288.3333333333333</ele><time>2026-04-12T11:14:35.329Z</time></trkpt><trkpt lat="44.6983534" lon="7.8517636"><ele>288.1666666666667</ele><time>2026-04-12T11:14:38.329Z</time></trkpt><trkpt lat="44.6983768" lon="7.8516549"><ele>288.0</ele><time>2026-04-12T11:14:41.329Z</time></trkpt><trkpt lat="44.6984011" lon="7.8515398"><ele>288.00000000000006</ele><time>2026-04-12T11:14:44.329Z</time></trkpt><trkpt lat="44.6984307" lon="7.8514327"><ele>288.0</ele><time>2026-04-12T11:14:47.329Z</time></trkpt><trkpt lat="44.6984614" lon="7.8513511"><ele>288.0</ele><time>2026-04-12T11:14:49.329Z</time></trkpt><trkpt lat="44.6984968" lon="7.8512613"><ele>288.0</ele><time>2026-04-12T11:14:51.329Z</time></trkpt><trkpt lat="44.6985339" lon="7.8511745"><ele>288.0</ele><time>2026-04-12T11:14:53.329Z</time></trkpt><trkpt lat="44.6985671" lon="7.8510921"><ele>288.00000000000006</ele><time>2026-04-12T11:14:55.329Z</time></trkpt><trkpt lat="44.6985966" lon="7.851011"><ele>288.0</ele><time>2026-04-12T11:14:57.329Z</time></trkpt><trkpt lat="44.698628" lon="7.8509281"><ele>287.6666666666667</ele><time>2026-04-12T11:14:59.328Z</time></trkpt><trkpt lat="44.6986682" lon="7.850831"><ele>287.3333333333333</ele><time>2026-04-12T11:15:01.329Z</time></trkpt><trkpt lat="44.6987095" lon="7.8507341"><ele>287.0</ele><time>2026-04-12T11:15:03.328Z</time></trkpt><trkpt lat="44.6987466" lon="7.8506388"><ele>286.66666666666663</ele><time>2026-04-12T11:15:05.329Z</time></trkpt><trkpt lat="44.6987867" lon="7.8505551"><ele>286.3333333333333</ele><time>2026-04-12T11:15:07.328Z</time></trkpt><trkpt lat="44.698824" lon="7.850473"><ele>286.0</ele><time>2026-04-12T11:15:09.329Z</time></trkpt><trkpt lat="44.6988667" lon="7.8503917"><ele>285.99999999999994</ele><time>2026-04-12T11:15:11.329Z</time></trkpt><trkpt lat="44.6989068" lon="7.8503076"><ele>286.0</ele><time>2026-04-12T11:15:13.329Z</time></trkpt><trkpt lat="44.6989432" lon="7.8502321"><ele>286.0</ele><time>2026-04-12T11:15:15.328Z</time></trkpt><trkpt lat="44.6990036" lon="7.8501344"><ele>286.0</ele><time>2026-04-12T11:15:18.328Z</time></trkpt><trkpt lat="44.6990489" lon="7.8500603"><ele>286.0</ele><time>2026-04-12T11:15:20.329Z</time></trkpt><trkpt lat="44.6991047" lon="7.849995"><ele>285.99999999999994</ele><time>2026-04-12T11:15:22.329Z</time></trkpt><trkpt lat="44.6991596" lon="7.8499321"><ele>286.0</ele><time>2026-04-12T11:15:24.328Z</time></trkpt><trkpt lat="44.6992137" lon="7.8498625"><ele>285.8333333333333</ele><time>2026-04-12T11:15:26.329Z</time></trkpt><trkpt lat="44.699271" lon="7.8497992"><ele>285.66666666666663</ele><time>2026-04-12T11:15:28.329Z</time></trkpt><trkpt lat="44.6993257" lon="7.8497332"><ele>285.5</ele><time>2026-04-12T11:15:30.329Z</time></trkpt><trkpt lat="44.6993731" lon="7.8496697"><ele>285.3333333333333</ele><time>2026-04-12T11:15:32.329Z</time></trkpt><trkpt lat="44.6994379" lon="7.8495872"><ele>285.1666666666667</ele><time>2026-04-12T11:15:35.328Z</time></trkpt><trkpt lat="44.6995027" lon="7.8495028"><ele>285.0</ele><time>2026-04-12T11:15:38.328Z</time></trkpt><trkpt lat="44.6995629" lon="7.8494055"><ele>285.1428571428571</ele><time>2026-04-12T11:15:41.329Z</time></trkpt><trkpt lat="44.6996022" lon="7.8493348"><ele>285.2857142857143</ele><time>2026-04-12T11:15:43.328Z</time></trkpt><trkpt lat="44.6996461" lon="7.8492653"><ele>285.42857142857144</ele><time>2026-04-12T11:15:45.329Z</time></trkpt><trkpt lat="44.6997056" lon="7.8491624"><ele>285.57142857142856</ele><time>2026-04-12T11:15:48.329Z</time></trkpt><trkpt lat="44.6997504" lon="7.849093"><ele>285.7142857142857</ele><time>2026-04-12T11:15:50.329Z</time></trkpt><trkpt lat="44.6997918" lon="7.8490238"><ele>285.85714285714283</ele><time>2026-04-12T11:15:52.329Z</time></trkpt><trkpt lat="44.69985" lon="7.8489286"><ele>286.0</ele><time>2026-04-12T11:15:55.328Z</time></trkpt><trkpt lat="44.6999087" lon="7.8488339"><ele>285.99999999999994</ele><time>2026-04-12T11:15:58.328Z</time></trkpt><trkpt lat="44.6999555" lon="7.8487745"><ele>286.0</ele><time>2026-04-12T11:16:00.329Z</time></trkpt><trkpt lat="44.700004" lon="7.8487135"><ele>286.0</ele><time>2026-04-12T11:16:02.329Z</time></trkpt><trkpt lat="44.7000565" lon="7.8486572"><ele>286.0</ele><time>2026-04-12T11:16:04.329Z</time></trkpt><trkpt lat="44.7001171" lon="7.8486098"><ele>286.0</ele><time>2026-04-12T11:16:06.329Z</time></trkpt><trkpt lat="44.7001822" lon="7.8485661"><ele>285.99999999999994</ele><time>2026-04-12T11:16:08.328Z</time></trkpt><trkpt lat="44.7002512" lon="7.848528"><ele>286.0</ele><time>2026-04-12T11:16:10.328Z</time></trkpt><trkpt lat="44.7003163" lon="7.8484858"><ele>285.99999999999994</ele><time>2026-04-12T11:16:12.328Z</time></trkpt><trkpt lat="44.7003786" lon="7.8484394"><ele>286.0</ele><time>2026-04-12T11:16:14.329Z</time></trkpt><trkpt lat="44.7004399" lon="7.8483994"><ele>286.0</ele><time>2026-04-12T11:16:16.328Z</time></trkpt><trkpt lat="44.7005001" lon="7.8483584"><ele>286.0</ele><time>2026-04-12T11:16:18.329Z</time></trkpt><trkpt lat="44.7005612" lon="7.8483272"><ele>286.0</ele><time>2026-04-12T11:16:20.329Z</time></trkpt><trkpt lat="44.7006247" lon="7.8483065"><ele>285.99999999999994</ele><time>2026-04-12T11:16:22.329Z</time></trkpt><trkpt lat="44.70069" lon="7.8482814"><ele>286.0</ele><time>2026-04-12T11:16:24.328Z</time></trkpt><trkpt lat="44.7007527" lon="7.8482577"><ele>285.99999999999994</ele><time>2026-04-12T11:16:26.329Z</time></trkpt><trkpt lat="44.7008144" lon="7.8482374"><ele>286.0</ele><time>2026-04-12T11:16:28.328Z</time></trkpt><trkpt lat="44.7008782" lon="7.8482182"><ele>286.0</ele><time>2026-04-12T11:16:30.329Z</time></trkpt><trkpt lat="44.7009417" lon="7.848202"><ele>286.0</ele><time>2026-04-12T11:16:32.329Z</time></trkpt><trkpt lat="44.7010344" lon="7.8481725"><ele>286.0</ele><time>2026-04-12T11:16:35.329Z</time></trkpt><trkpt lat="44.7010976" lon="7.8481536"><ele>285.99999999999994</ele><time>2026-04-12T11:16:37.329Z</time></trkpt><trkpt lat="44.7011591" lon="7.8481259"><ele>286.0</ele><time>2026-04-12T11:16:39.329Z</time></trkpt><trkpt lat="44.7012506" lon="7.8481018"><ele>286.8333333333333</ele><time>2026-04-12T11:16:42.329Z</time></trkpt><trkpt lat="44.7013343" lon="7.8480848"><ele>287.66666666666663</ele><time>2026-04-12T11:16:45.329Z</time></trkpt><trkpt lat="44.7014209" lon="7.8480696"><ele>288.5</ele><time>2026-04-12T11:16:48.329Z</time></trkpt><trkpt lat="44.7015075" lon="7.8480646"><ele>289.3333333333333</ele><time>2026-04-12T11:16:51.328Z</time></trkpt><trkpt lat="44.7015847" lon="7.8480612"><ele>290.1666666666667</ele><time>2026-04-12T11:16:54.329Z</time></trkpt><trkpt lat="44.7016754" lon="7.8480674"><ele>291.0</ele><time>2026-04-12T11:16:57.329Z</time></trkpt><trkpt lat="44.7017574" lon="7.8480749"><ele>291.0</ele><time>2026-04-12T11:17:00.328Z</time></trkpt><trkpt lat="44.7018242" lon="7.8480367"><ele>291.0</ele><time>2026-04-12T11:17:04.329Z</time></trkpt><trkpt lat="44.7018669" lon="7.8479587"><ele>291.0</ele><time>2026-04-12T11:17:07.329Z</time></trkpt><trkpt lat="44.7018839" lon="7.8478628"><ele>291.0</ele><time>2026-04-12T11:17:10.329Z</time></trkpt><trkpt lat="44.7018972" lon="7.8477577"><ele>291.0</ele><time>2026-04-12T11:17:13.328Z</time></trkpt><trkpt lat="44.7019119" lon="7.8476459"><ele>291.0</ele><time>2026-04-12T11:17:16.329Z</time></trkpt><trkpt lat="44.701927" lon="7.8475371"><ele>291.0</ele><time>2026-04-12T11:17:19.329Z</time></trkpt><trkpt lat="44.7019708" lon="7.8474724"><ele>291.0</ele><time>2026-04-12T11:17:22.329Z</time></trkpt><trkpt lat="44.7020347" lon="7.8474246"><ele>291.0</ele><time>2026-04-12T11:17:27.329Z</time></trkpt><trkpt lat="44.702094" lon="7.847378"><ele>291.0</ele><time>2026-04-12T11:17:31.329Z</time></trkpt><trkpt lat="44.7021516" lon="7.8473213"><ele>291.0</ele><time>2026-04-12T11:17:37.328Z</time></trkpt><trkpt lat="44.7022189" lon="7.8472519"><ele>291.0</ele><time>2026-04-12T11:17:42.328Z</time></trkpt><trkpt lat="44.7022711" lon="7.8471916"><ele>291.0</ele><time>2026-04-12T11:17:45.329Z</time></trkpt><trkpt lat="44.7023326" lon="7.8471271"><ele>291.0</ele><time>2026-04-12T11:17:48.329Z</time></trkpt><trkpt lat="44.7023871" lon="7.8470796"><ele>291.0</ele><time>2026-04-12T11:17:51.328Z</time></trkpt><trkpt lat="44.7024464" lon="7.8470196"><ele>291.0</ele><time>2026-04-12T11:17:56.329Z</time></trkpt><trkpt lat="44.702508" lon="7.84695"><ele>291.0</ele><time>2026-04-12T11:19:06.329Z</time></trkpt><trkpt lat="44.702575" lon="7.8468862"><ele>291.0</ele><time>2026-04-12T11:19:10.328Z</time></trkpt><trkpt lat="44.7026345" lon="7.8468314"><ele>291.0</ele><time>2026-04-12T11:19:13.328Z</time></trkpt><trkpt lat="44.7026956" lon="7.8467777"><ele>291.0</ele><time>2026-04-12T11:19:16.329Z</time></trkpt><trkpt lat="44.7027537" lon="7.8467311"><ele>291.0</ele><time>2026-04-12T11:19:19.329Z</time></trkpt><trkpt lat="44.7028231" lon="7.8466751"><ele>290.8333333333333</ele><time>2026-04-12T11:19:23.329Z</time></trkpt><trkpt lat="44.702884" lon="7.8466255"><ele>290.6666666666667</ele><time>2026-04-12T11:19:26.328Z</time></trkpt><trkpt lat="44.702948" lon="7.846562"><ele>290.5</ele><time>2026-04-12T11:19:29.329Z</time></trkpt><trkpt lat="44.7030146" lon="7.8464868"><ele>290.33333333333337</ele><time>2026-04-12T11:19:32.329Z</time></trkpt><trkpt lat="44.7030807" lon="7.8464133"><ele>290.1666666666667</ele><time>2026-04-12T11:19:35.329Z</time></trkpt><trkpt lat="44.7031332" lon="7.8463571"><ele>290.0</ele><time>2026-04-12T11:19:37.329Z</time></trkpt><trkpt lat="44.703204" lon="7.8462826"><ele>290.0</ele><time>2026-04-12T11:19:40.329Z</time></trkpt><trkpt lat="44.7032602" lon="7.8462286"><ele>290.0</ele><time>2026-04-12T11:19:43.329Z</time></trkpt><trkpt lat="44.7033136" lon="7.8461779"><ele>290.0</ele><time>2026-04-12T11:19:46.328Z</time></trkpt><trkpt lat="44.7033678" lon="7.8461295"><ele>290.0</ele><time>2026-04-12T11:19:49.329Z</time></trkpt><trkpt lat="44.7034316" lon="7.8460691"><ele>290.0</ele><time>2026-04-12T11:19:52.329Z</time></trkpt><trkpt lat="44.7034837" lon="7.8460049"><ele>290.0</ele><time>2026-04-12T11:19:56.329Z</time></trkpt><trkpt lat="44.703443" lon="7.8459211"><ele>290.0</ele><time>2026-04-12T11:20:01.328Z</time></trkpt><trkpt lat="44.7034039" lon="7.8458357"><ele>289.83333333333337</ele><time>2026-04-12T11:20:05.329Z</time></trkpt><trkpt lat="44.7034748" lon="7.8457677"><ele>289.6666666666667</ele><time>2026-04-12T11:20:09.329Z</time></trkpt><trkpt lat="44.7035479" lon="7.8457144"><ele>289.5</ele><time>2026-04-12T11:20:13.329Z</time></trkpt><trkpt lat="44.7036026" lon="7.8456429"><ele>289.3333333333333</ele><time>2026-04-12T11:20:17.329Z</time></trkpt><trkpt lat="44.703666" lon="7.8455937"><ele>289.16666666666663</ele><time>2026-04-12T11:20:22.329Z</time></trkpt><trkpt lat="44.703719" lon="7.8455424"><ele>289.0</ele><time>2026-04-12T11:20:25.329Z</time></trkpt><trkpt lat="44.7037783" lon="7.8454789"><ele>289.0</ele><time>2026-04-12T11:20:28.329Z</time></trkpt><trkpt lat="44.7038371" lon="7.84542"><ele>289.0</ele><time>2026-04-12T11:20:31.329Z</time></trkpt><trkpt lat="44.7039037" lon="7.8453738"><ele>289.0</ele><time>2026-04-12T11:20:34.329Z</time></trkpt><trkpt lat="44.7039596" lon="7.8453284"><ele>289.0</ele><time>2026-04-12T11:20:37.329Z</time></trkpt><trkpt lat="44.7040139" lon="7.8452721"><ele>289.0</ele><time>2026-04-12T11:20:41.329Z</time></trkpt><trkpt lat="44.703955" lon="7.8453246"><ele>289.0</ele><time>2026-04-12T11:20:52.329Z</time></trkpt><trkpt lat="44.7039016" lon="7.8453726"><ele>289.0</ele><time>2026-04-12T11:20:55.329Z</time></trkpt><trkpt lat="44.7038374" lon="7.8454446"><ele>289.0</ele><time>2026-04-12T11:20:59.329Z</time></trkpt><trkpt lat="44.7037728" lon="7.8455036"><ele>289.0</ele><time>2026-04-12T11:21:02.329Z</time></trkpt><trkpt lat="44.7037003" lon="7.8455608"><ele>289.0</ele><time>2026-04-12T11:21:05.329Z</time></trkpt><trkpt lat="44.7036308" lon="7.8456175"><ele>289.0</ele><time>2026-04-12T11:21:08.329Z</time></trkpt><trkpt lat="44.7035547" lon="7.8456105"><ele>289.0</ele><time>2026-04-12T11:21:11.328Z</time></trkpt><trkpt lat="44.7035183" lon="7.8455303"><ele>289.0</ele><time>2026-04-12T11:21:13.329Z</time></trkpt><trkpt lat="44.7034697" lon="7.8454432"><ele>288.8</ele><time>2026-04-12T11:21:15.328Z</time></trkpt><trkpt lat="44.7034097" lon="7.8453486"><ele>288.59999999999997</ele><time>2026-04-12T11:21:17.329Z</time></trkpt><trkpt lat="44.703362" lon="7.845237"><ele>288.4</ele><time>2026-04-12T11:21:19.328Z</time></trkpt><trkpt lat="44.7033157" lon="7.8451343"><ele>288.2</ele><time>2026-04-12T11:21:21.328Z</time></trkpt><trkpt lat="44.7033047" lon="7.8450098"><ele>288.0</ele><time>2026-04-12T11:21:23.329Z</time></trkpt><trkpt lat="44.7033778" lon="7.844921"><ele>287.6666666666667</ele><time>2026-04-12T11:21:25.329Z</time></trkpt><trkpt lat="44.7034636" lon="7.84485"><ele>287.3333333333333</ele><time>2026-04-12T11:21:27.329Z</time></trkpt><trkpt lat="44.7035233" lon="7.8447631"><ele>287.0</ele><time>2026-04-12T11:21:29.329Z</time></trkpt><trkpt lat="44.7035235" lon="7.8446545"><ele>286.66666666666663</ele><time>2026-04-12T11:21:31.329Z</time></trkpt><trkpt lat="44.703492" lon="7.8445509"><ele>286.3333333333333</ele><time>2026-04-12T11:21:33.329Z</time></trkpt><trkpt lat="44.7034539" lon="7.8444581"><ele>286.0</ele><time>2026-04-12T11:21:35.328Z</time></trkpt><trkpt lat="44.7034197" lon="7.844368"><ele>285.8333333333333</ele><time>2026-04-12T11:21:37.329Z</time></trkpt><trkpt lat="44.7034138" lon="7.8442735"><ele>285.66666666666663</ele><time>2026-04-12T11:21:39.328Z</time></trkpt><trkpt lat="44.7034295" lon="7.8441475"><ele>285.5</ele><time>2026-04-12T11:21:42.328Z</time></trkpt><trkpt lat="44.7034788" lon="7.8440547"><ele>285.3333333333333</ele><time>2026-04-12T11:21:45.328Z</time></trkpt><trkpt lat="44.7035434" lon="7.8439703"><ele>285.1666666666667</ele><time>2026-04-12T11:21:48.329Z</time></trkpt><trkpt lat="44.7035927" lon="7.8439035"><ele>285.0</ele><time>2026-04-12T11:21:50.329Z</time></trkpt><trkpt lat="44.7036478" lon="7.8438308"><ele>285.0</ele><time>2026-04-12T11:21:52.329Z</time></trkpt><trkpt lat="44.7037058" lon="7.843755"><ele>285.0</ele><time>2026-04-12T11:21:54.329Z</time></trkpt><trkpt lat="44.7037139" lon="7.8436502"><ele>285.0</ele><time>2026-04-12T11:21:56.329Z</time></trkpt><trkpt lat="44.7036764" lon="7.843554"><ele>285.0</ele><time>2026-04-12T11:21:58.329Z</time></trkpt><trkpt lat="44.7036341" lon="7.8434613"><ele>285.0</ele><time>2026-04-12T11:22:00.329Z</time></trkpt><trkpt lat="44.7035878" lon="7.843373"><ele>285.0</ele><time>2026-04-12T11:22:02.329Z</time></trkpt><trkpt lat="44.7035458" lon="7.8432781"><ele>284.6666666666667</ele><time>2026-04-12T11:22:04.329Z</time></trkpt><trkpt lat="44.7035049" lon="7.8431829"><ele>284.3333333333333</ele><time>2026-04-12T11:22:06.328Z</time></trkpt><trkpt lat="44.7034579" lon="7.8430923"><ele>284.0</ele><time>2026-04-12T11:22:08.329Z</time></trkpt><trkpt lat="44.7034287" lon="7.8430108"><ele>283.66666666666663</ele><time>2026-04-12T11:22:10.328Z</time></trkpt><trkpt lat="44.7034857" lon="7.8429271"><ele>283.3333333333333</ele><time>2026-04-12T11:22:13.328Z</time></trkpt><trkpt lat="44.7034977" lon="7.8428052"><ele>283.0</ele><time>2026-04-12T11:22:16.328Z</time></trkpt><trkpt lat="44.7034571" lon="7.8427116"><ele>282.8333333333333</ele><time>2026-04-12T11:22:18.328Z</time></trkpt><trkpt lat="44.7034153" lon="7.8426198"><ele>282.66666666666663</ele><time>2026-04-12T11:22:20.329Z</time></trkpt><trkpt lat="44.7033807" lon="7.8425371"><ele>282.5</ele><time>2026-04-12T11:22:22.329Z</time></trkpt><trkpt lat="44.7033294" lon="7.8424621"><ele>282.3333333333333</ele><time>2026-04-12T11:22:24.328Z</time></trkpt><trkpt lat="44.7032911" lon="7.8423837"><ele>282.1666666666667</ele><time>2026-04-12T11:22:26.329Z</time></trkpt><trkpt lat="44.7032516" lon="7.8422842"><ele>282.0</ele><time>2026-04-12T11:22:28.329Z</time></trkpt><trkpt lat="44.7032098" lon="7.8421854"><ele>282.0</ele><time>2026-04-12T11:22:30.329Z</time></trkpt><trkpt lat="44.7031635" lon="7.8420967"><ele>282.0</ele><time>2026-04-12T11:22:32.336Z</time></trkpt><trkpt lat="44.7031199" lon="7.8419891"><ele>282.0</ele><time>2026-04-12T11:22:35.333Z</time></trkpt><trkpt lat="44.7031106" lon="7.8418827"><ele>282.0</ele><time>2026-04-12T11:22:38.333Z</time></trkpt><trkpt lat="44.70318" lon="7.8418214"><ele>282.0</ele><time>2026-04-12T11:22:41.333Z</time></trkpt><trkpt lat="44.7032384" lon="7.8417831"><ele>282.0</ele><time>2026-04-12T11:22:43.333Z</time></trkpt><trkpt lat="44.7032974" lon="7.8417428"><ele>281.7142857142857</ele><time>2026-04-12T11:22:45.333Z</time></trkpt><trkpt lat="44.7033563" lon="7.8417022"><ele>281.42857142857144</ele><time>2026-04-12T11:22:47.333Z</time></trkpt><trkpt lat="44.7034122" lon="7.841661"><ele>281.1428571428571</ele><time>2026-04-12T11:22:49.332Z</time></trkpt><trkpt lat="44.7034631" lon="7.8416049"><ele>280.8571428571429</ele><time>2026-04-12T11:22:51.333Z</time></trkpt><trkpt lat="44.7035224" lon="7.8415534"><ele>280.57142857142856</ele><time>2026-04-12T11:22:53.333Z</time></trkpt><trkpt lat="44.7035803" lon="7.8415045"><ele>280.2857142857143</ele><time>2026-04-12T11:22:55.333Z</time></trkpt><trkpt lat="44.7036404" lon="7.8414568"><ele>280.0</ele><time>2026-04-12T11:22:57.333Z</time></trkpt><trkpt lat="44.7036996" lon="7.8414"><ele>280.0</ele><time>2026-04-12T11:22:59.333Z</time></trkpt><trkpt lat="44.7037588" lon="7.8413424"><ele>280.0</ele><time>2026-04-12T11:23:01.333Z</time></trkpt><trkpt lat="44.703817" lon="7.8412862"><ele>280.0</ele><time>2026-04-12T11:23:03.333Z</time></trkpt><trkpt lat="44.7038795" lon="7.8412308"><ele>280.0</ele><time>2026-04-12T11:23:05.333Z</time></trkpt><trkpt lat="44.7039452" lon="7.8411714"><ele>280.0</ele><time>2026-04-12T11:23:07.332Z</time></trkpt><trkpt lat="44.7040148" lon="7.8411109"><ele>280.0</ele><time>2026-04-12T11:23:09.333Z</time></trkpt><trkpt lat="44.7040808" lon="7.8410547"><ele>280.0</ele><time>2026-04-12T11:23:11.333Z</time></trkpt><trkpt lat="44.7041494" lon="7.8409956"><ele>280.0</ele><time>2026-04-12T11:23:13.333Z</time></trkpt><trkpt lat="44.7042229" lon="7.840932"><ele>280.0</ele><time>2026-04-12T11:23:15.332Z</time></trkpt><trkpt lat="44.7042919" lon="7.84087"><ele>280.0</ele><time>2026-04-12T11:23:17.333Z</time></trkpt><trkpt lat="44.7043586" lon="7.8408074"><ele>280.0</ele><time>2026-04-12T11:23:19.332Z</time></trkpt><trkpt lat="44.7044306" lon="7.8407477"><ele>280.0</ele><time>2026-04-12T11:23:21.333Z</time></trkpt><trkpt lat="44.704507" lon="7.8406854"><ele>280.0</ele><time>2026-04-12T11:23:23.333Z</time></trkpt><trkpt lat="44.704581" lon="7.840618"><ele>280.0</ele><time>2026-04-12T11:23:25.332Z</time></trkpt><trkpt lat="44.7046524" lon="7.8405589"><ele>280.0</ele><time>2026-04-12T11:23:27.333Z</time></trkpt><trkpt lat="44.7047147" lon="7.8404965"><ele>280.0</ele><time>2026-04-12T11:23:29.332Z</time></trkpt><trkpt lat="44.704777" lon="7.8404459"><ele>280.0</ele><time>2026-04-12T11:23:31.332Z</time></trkpt><trkpt lat="44.7048346" lon="7.8403982"><ele>280.0</ele><time>2026-04-12T11:23:33.333Z</time></trkpt><trkpt lat="44.7048936" lon="7.8403034"><ele>280.0</ele><time>2026-04-12T11:23:36.332Z</time></trkpt><trkpt lat="44.7048649" lon="7.840179"><ele>280.0</ele><time>2026-04-12T11:23:39.333Z</time></trkpt><trkpt lat="44.7048212" lon="7.840089"><ele>280.0</ele><time>2026-04-12T11:23:41.333Z</time></trkpt><trkpt lat="44.7047828" lon="7.8400047"><ele>280.0</ele><time>2026-04-12T11:23:43.332Z</time></trkpt><trkpt lat="44.7047598" lon="7.8399132"><ele>280.0</ele><time>2026-04-12T11:23:45.333Z</time></trkpt><trkpt lat="44.7047865" lon="7.839815"><ele>280.0</ele><time>2026-04-12T11:23:47.332Z</time></trkpt><trkpt lat="44.7048343" lon="7.8397353"><ele>279.66666666666663</ele><time>2026-04-12T11:23:49.332Z</time></trkpt><trkpt lat="44.7048763" lon="7.8396493"><ele>279.3333333333333</ele><time>2026-04-12T11:23:51.333Z</time></trkpt><trkpt lat="44.704919" lon="7.8395576"><ele>279.0</ele><time>2026-04-12T11:23:53.332Z</time></trkpt><trkpt lat="44.7049475" lon="7.8394479"><ele>278.6666666666667</ele><time>2026-04-12T11:23:55.332Z</time></trkpt><trkpt lat="44.7049738" lon="7.8393295"><ele>278.33333333333337</ele><time>2026-04-12T11:23:57.333Z</time></trkpt><trkpt lat="44.7049851" lon="7.8392104"><ele>278.0</ele><time>2026-04-12T11:23:59.332Z</time></trkpt><trkpt lat="44.7049867" lon="7.8390965"><ele>277.6666666666667</ele><time>2026-04-12T11:24:01.332Z</time></trkpt><trkpt lat="44.704979" lon="7.8389831"><ele>277.33333333333337</ele><time>2026-04-12T11:24:03.332Z</time></trkpt><trkpt lat="44.7049568" lon="7.8388682"><ele>277.0</ele><time>2026-04-12T11:24:05.333Z</time></trkpt><trkpt lat="44.7049238" lon="7.838762"><ele>276.6666666666667</ele><time>2026-04-12T11:24:07.333Z</time></trkpt><trkpt lat="44.7048862" lon="7.8386623"><ele>276.3333333333333</ele><time>2026-04-12T11:24:09.332Z</time></trkpt><trkpt lat="44.7048552" lon="7.8385679"><ele>276.0</ele><time>2026-04-12T11:24:11.333Z</time></trkpt><trkpt lat="44.7048417" lon="7.8384733"><ele>275.8333333333333</ele><time>2026-04-12T11:24:13.333Z</time></trkpt><trkpt lat="44.7048755" lon="7.8383946"><ele>275.6666666666667</ele><time>2026-04-12T11:24:15.333Z</time></trkpt><trkpt lat="44.7049459" lon="7.8383086"><ele>275.5</ele><time>2026-04-12T11:24:18.333Z</time></trkpt><trkpt lat="44.7050014" lon="7.8382496"><ele>275.33333333333337</ele><time>2026-04-12T11:24:20.333Z</time></trkpt><trkpt lat="44.7050551" lon="7.8381762"><ele>275.1666666666667</ele><time>2026-04-12T11:24:22.333Z</time></trkpt><trkpt lat="44.7051141" lon="7.8381025"><ele>275.0</ele><time>2026-04-12T11:24:24.333Z</time></trkpt><trkpt lat="44.7051733" lon="7.8380244"><ele>275.0</ele><time>2026-04-12T11:24:26.332Z</time></trkpt><trkpt lat="44.7052402" lon="7.8379446"><ele>275.0</ele><time>2026-04-12T11:24:28.333Z</time></trkpt><trkpt lat="44.7053117" lon="7.8378626"><ele>275.0</ele><time>2026-04-12T11:24:30.333Z</time></trkpt><trkpt lat="44.7053811" lon="7.8377716"><ele>275.0</ele><time>2026-04-12T11:24:32.333Z</time></trkpt><trkpt lat="44.7054521" lon="7.837679"><ele>275.0</ele><time>2026-04-12T11:24:34.332Z</time></trkpt><trkpt lat="44.7055129" lon="7.8375813"><ele>275.5</ele><time>2026-04-12T11:24:36.332Z</time></trkpt><trkpt lat="44.7055757" lon="7.8374844"><ele>276.0</ele><time>2026-04-12T11:24:38.333Z</time></trkpt><trkpt lat="44.7056338" lon="7.8373954"><ele>276.5</ele><time>2026-04-12T11:24:40.333Z</time></trkpt><trkpt lat="44.7056932" lon="7.8373186"><ele>277.0</ele><time>2026-04-12T11:24:42.332Z</time></trkpt><trkpt lat="44.705753" lon="7.8372431"><ele>277.5</ele><time>2026-04-12T11:24:44.333Z</time></trkpt><trkpt lat="44.7058115" lon="7.8371672"><ele>278.0</ele><time>2026-04-12T11:24:46.333Z</time></trkpt><trkpt lat="44.7058678" lon="7.8370933"><ele>278.0</ele><time>2026-04-12T11:24:48.333Z</time></trkpt><trkpt lat="44.7059267" lon="7.8370149"><ele>278.0</ele><time>2026-04-12T11:24:50.332Z</time></trkpt><trkpt lat="44.7059855" lon="7.836933"><ele>278.0</ele><time>2026-04-12T11:24:52.332Z</time></trkpt><trkpt lat="44.7060453" lon="7.8368515"><ele>278.0</ele><time>2026-04-12T11:24:54.333Z</time></trkpt><trkpt lat="44.7061091" lon="7.8367758"><ele>278.0</ele><time>2026-04-12T11:24:56.333Z</time></trkpt><trkpt lat="44.7061757" lon="7.8367058"><ele>278.0</ele><time>2026-04-12T11:24:58.333Z</time></trkpt><trkpt lat="44.7062499" lon="7.8366478"><ele>278.33333333333337</ele><time>2026-04-12T11:25:00.332Z</time></trkpt><trkpt lat="44.7063251" lon="7.8365877"><ele>278.6666666666667</ele><time>2026-04-12T11:25:02.333Z</time></trkpt><trkpt lat="44.7063985" lon="7.8365239"><ele>279.0</ele><time>2026-04-12T11:25:04.332Z</time></trkpt><trkpt lat="44.7064713" lon="7.8364571"><ele>279.3333333333333</ele><time>2026-04-12T11:25:06.333Z</time></trkpt><trkpt lat="44.7065412" lon="7.8363917"><ele>279.66666666666663</ele><time>2026-04-12T11:25:08.332Z</time></trkpt><trkpt lat="44.7066104" lon="7.8363291"><ele>280.0</ele><time>2026-04-12T11:25:10.333Z</time></trkpt><trkpt lat="44.7066828" lon="7.8362717"><ele>280.0</ele><time>2026-04-12T11:25:12.333Z</time></trkpt><trkpt lat="44.70675" lon="7.8362065"><ele>280.0</ele><time>2026-04-12T11:25:14.333Z</time></trkpt><trkpt lat="44.7068153" lon="7.8361469"><ele>280.0</ele><time>2026-04-12T11:25:16.332Z</time></trkpt><trkpt lat="44.7068705" lon="7.8360964"><ele>280.0</ele><time>2026-04-12T11:25:18.333Z</time></trkpt><trkpt lat="44.7069351" lon="7.8360431"><ele>280.0</ele><time>2026-04-12T11:25:21.333Z</time></trkpt><trkpt lat="44.7069965" lon="7.8359905"><ele>280.0</ele><time>2026-04-12T11:25:25.333Z</time></trkpt><trkpt lat="44.7070193" lon="7.8358759"><ele>280.0</ele><time>2026-04-12T11:25:29.333Z</time></trkpt><trkpt lat="44.7069991" lon="7.8357557"><ele>280.0</ele><time>2026-04-12T11:25:32.332Z</time></trkpt><trkpt lat="44.7069645" lon="7.8356331"><ele>280.0</ele><time>2026-04-12T11:25:35.332Z</time></trkpt><trkpt lat="44.7069415" lon="7.8355476"><ele>280.0</ele><time>2026-04-12T11:25:37.333Z</time></trkpt><trkpt lat="44.7069121" lon="7.8354622"><ele>280.0</ele><time>2026-04-12T11:25:39.333Z</time></trkpt><trkpt lat="44.7068839" lon="7.8353722"><ele>280.0</ele><time>2026-04-12T11:25:41.332Z</time></trkpt><trkpt lat="44.706865" lon="7.8352801"><ele>280.0</ele><time>2026-04-12T11:25:43.332Z</time></trkpt><trkpt lat="44.706846" lon="7.835188"><ele>280.0</ele><time>2026-04-12T11:25:45.333Z</time></trkpt><trkpt lat="44.7068224" lon="7.835089"><ele>280.0</ele><time>2026-04-12T11:25:47.332Z</time></trkpt><trkpt lat="44.7068069" lon="7.8349782"><ele>280.0</ele><time>2026-04-12T11:25:49.333Z</time></trkpt><trkpt lat="44.70679" lon="7.8348719"><ele>280.0</ele><time>2026-04-12T11:25:51.332Z</time></trkpt><trkpt lat="44.7067758" lon="7.8347628"><ele>280.0</ele><time>2026-04-12T11:25:53.333Z</time></trkpt><trkpt lat="44.7067667" lon="7.8346536"><ele>280.0</ele><time>2026-04-12T11:25:55.332Z</time></trkpt><trkpt lat="44.706762" lon="7.8345474"><ele>280.0</ele><time>2026-04-12T11:25:57.332Z</time></trkpt><trkpt lat="44.7067617" lon="7.8344428"><ele>280.0</ele><time>2026-04-12T11:25:59.333Z</time></trkpt><trkpt lat="44.7067698" lon="7.8343371"><ele>280.0</ele><time>2026-04-12T11:26:01.333Z</time></trkpt><trkpt lat="44.7067801" lon="7.8342196"><ele>280.0</ele><time>2026-04-12T11:26:03.332Z</time></trkpt><trkpt lat="44.7067917" lon="7.834105"><ele>280.0</ele><time>2026-04-12T11:26:05.332Z</time></trkpt><trkpt lat="44.7068048" lon="7.8339949"><ele>279.8333333333333</ele><time>2026-04-12T11:26:07.333Z</time></trkpt><trkpt lat="44.7068213" lon="7.8338833"><ele>279.66666666666663</ele><time>2026-04-12T11:26:09.333Z</time></trkpt><trkpt lat="44.7068414" lon="7.8337791"><ele>279.5</ele><time>2026-04-12T11:26:11.333Z</time></trkpt><trkpt lat="44.7068639" lon="7.8336764"><ele>279.3333333333333</ele><time>2026-04-12T11:26:13.332Z</time></trkpt><trkpt lat="44.7068882" lon="7.8335723"><ele>279.1666666666667</ele><time>2026-04-12T11:26:15.333Z</time></trkpt><trkpt lat="44.7069156" lon="7.8334701"><ele>279.0</ele><time>2026-04-12T11:26:17.332Z</time></trkpt><trkpt lat="44.7069386" lon="7.8333694"><ele>278.71428571428567</ele><time>2026-04-12T11:26:19.333Z</time></trkpt><trkpt lat="44.7069602" lon="7.8332696"><ele>278.42857142857144</ele><time>2026-04-12T11:26:21.332Z</time></trkpt><trkpt lat="44.706984" lon="7.8331703"><ele>278.1428571428571</ele><time>2026-04-12T11:26:23.332Z</time></trkpt><trkpt lat="44.7070062" lon="7.8330714"><ele>277.85714285714283</ele><time>2026-04-12T11:26:25.333Z</time></trkpt><trkpt lat="44.7070293" lon="7.8329737"><ele>277.57142857142856</ele><time>2026-04-12T11:26:27.332Z</time></trkpt><trkpt lat="44.7070529" lon="7.8328734"><ele>277.2857142857143</ele><time>2026-04-12T11:26:29.332Z</time></trkpt><trkpt lat="44.7070741" lon="7.8327765"><ele>277.0</ele><time>2026-04-12T11:26:31.333Z</time></trkpt><trkpt lat="44.707097" lon="7.8326838"><ele>276.85714285714283</ele><time>2026-04-12T11:26:33.332Z</time></trkpt><trkpt lat="44.7071177" lon="7.8325909"><ele>276.71428571428567</ele><time>2026-04-12T11:26:35.333Z</time></trkpt><trkpt lat="44.7071373" lon="7.8324968"><ele>276.57142857142856</ele><time>2026-04-12T11:26:37.333Z</time></trkpt><trkpt lat="44.707156" lon="7.8324028"><ele>276.42857142857144</ele><time>2026-04-12T11:26:39.333Z</time></trkpt><trkpt lat="44.7071747" lon="7.832309"><ele>276.28571428571433</ele><time>2026-04-12T11:26:41.332Z</time></trkpt><trkpt lat="44.7071959" lon="7.8322108"><ele>276.14285714285717</ele><time>2026-04-12T11:26:43.332Z</time></trkpt><trkpt lat="44.7072168" lon="7.832108"><ele>276.0</ele><time>2026-04-12T11:26:45.333Z</time></trkpt><trkpt lat="44.7072403" lon="7.8320031"><ele>276.0</ele><time>2026-04-12T11:26:47.333Z</time></trkpt><trkpt lat="44.7072627" lon="7.8318971"><ele>276.0</ele><time>2026-04-12T11:26:49.333Z</time></trkpt><trkpt lat="44.7072853" lon="7.8317962"><ele>276.0</ele><time>2026-04-12T11:26:51.332Z</time></trkpt><trkpt lat="44.707328" lon="7.8317147"><ele>276.0</ele><time>2026-04-12T11:26:53.333Z</time></trkpt><trkpt lat="44.7073993" lon="7.8316704"><ele>276.0</ele><time>2026-04-12T11:26:55.333Z</time></trkpt><trkpt lat="44.7074715" lon="7.831626"><ele>276.0</ele><time>2026-04-12T11:26:57.332Z</time></trkpt><trkpt lat="44.7075379" lon="7.8315813"><ele>276.2857142857143</ele><time>2026-04-12T11:26:59.333Z</time></trkpt><trkpt lat="44.7076058" lon="7.8315392"><ele>276.5714285714286</ele><time>2026-04-12T11:27:01.333Z</time></trkpt><trkpt lat="44.7076768" lon="7.8315177"><ele>276.8571428571429</ele><time>2026-04-12T11:27:03.332Z</time></trkpt><trkpt lat="44.7077499" lon="7.8315417"><ele>277.14285714285717</ele><time>2026-04-12T11:27:05.332Z</time></trkpt><trkpt lat="44.7078124" lon="7.8316059"><ele>277.42857142857144</ele><time>2026-04-12T11:27:07.333Z</time></trkpt><trkpt lat="44.7078688" lon="7.8316722"><ele>277.7142857142857</ele><time>2026-04-12T11:27:09.332Z</time></trkpt><trkpt lat="44.7079269" lon="7.8317372"><ele>278.0</ele><time>2026-04-12T11:27:11.332Z</time></trkpt><trkpt lat="44.7079843" lon="7.8317992"><ele>278.33333333333337</ele><time>2026-04-12T11:27:13.333Z</time></trkpt><trkpt lat="44.7080352" lon="7.8318574"><ele>278.6666666666667</ele><time>2026-04-12T11:27:15.332Z</time></trkpt><trkpt lat="44.7081112" lon="7.8319176"><ele>279.0</ele><time>2026-04-12T11:27:18.333Z</time></trkpt><trkpt lat="44.7081927" lon="7.831938"><ele>279.3333333333333</ele><time>2026-04-12T11:27:21.332Z</time></trkpt><trkpt lat="44.7082723" lon="7.8319537"><ele>279.66666666666663</ele><time>2026-04-12T11:27:24.332Z</time></trkpt><trkpt lat="44.7083474" lon="7.8320149"><ele>280.0</ele><time>2026-04-12T11:27:27.333Z</time></trkpt><trkpt lat="44.7084037" lon="7.8320681"><ele>280.0</ele><time>2026-04-12T11:27:29.333Z</time></trkpt><trkpt lat="44.7084661" lon="7.8321178"><ele>280.0</ele><time>2026-04-12T11:27:31.333Z</time></trkpt><trkpt lat="44.7085447" lon="7.8321777"><ele>280.0</ele><time>2026-04-12T11:27:34.333Z</time></trkpt><trkpt lat="44.7086282" lon="7.8322159"><ele>280.0</ele><time>2026-04-12T11:27:37.333Z</time></trkpt><trkpt lat="44.7086885" lon="7.8322823"><ele>280.0</ele><time>2026-04-12T11:27:40.333Z</time></trkpt><trkpt lat="44.7087546" lon="7.8323481"><ele>280.0</ele><time>2026-04-12T11:27:43.333Z</time></trkpt><trkpt lat="44.708822" lon="7.832408"><ele>280.3333333333333</ele><time>2026-04-12T11:27:46.333Z</time></trkpt><trkpt lat="44.7088986" lon="7.8324473"><ele>280.66666666666663</ele><time>2026-04-12T11:27:49.333Z</time></trkpt><trkpt lat="44.7089754" lon="7.8325029"><ele>281.0</ele><time>2026-04-12T11:27:52.333Z</time></trkpt><trkpt lat="44.7090394" lon="7.8325601"><ele>281.3333333333333</ele><time>2026-04-12T11:27:55.333Z</time></trkpt><trkpt lat="44.7091103" lon="7.8326121"><ele>281.6666666666667</ele><time>2026-04-12T11:27:58.332Z</time></trkpt><trkpt lat="44.7091938" lon="7.8326469"><ele>282.0</ele><time>2026-04-12T11:28:01.333Z</time></trkpt><trkpt lat="44.7092727" lon="7.8326726"><ele>282.3333333333333</ele><time>2026-04-12T11:28:04.332Z</time></trkpt><trkpt lat="44.7093516" lon="7.8327125"><ele>282.6666666666667</ele><time>2026-04-12T11:28:07.333Z</time></trkpt><trkpt lat="44.7094352" lon="7.8327287"><ele>283.0</ele><time>2026-04-12T11:28:10.332Z</time></trkpt><trkpt lat="44.7095049" lon="7.8327537"><ele>283.33333333333337</ele><time>2026-04-12T11:28:13.333Z</time></trkpt><trkpt lat="44.7095711" lon="7.832812"><ele>283.6666666666667</ele><time>2026-04-12T11:28:16.333Z</time></trkpt><trkpt lat="44.7096415" lon="7.8328672"><ele>284.0</ele><time>2026-04-12T11:28:19.332Z</time></trkpt><trkpt lat="44.709724" lon="7.8329013"><ele>283.42857142857144</ele><time>2026-04-12T11:28:22.333Z</time></trkpt><trkpt lat="44.7097949" lon="7.8329466"><ele>282.85714285714283</ele><time>2026-04-12T11:28:25.332Z</time></trkpt><trkpt lat="44.7098636" lon="7.8329903"><ele>282.2857142857143</ele><time>2026-04-12T11:28:28.333Z</time></trkpt><trkpt lat="44.7099284" lon="7.8330132"><ele>281.7142857142857</ele><time>2026-04-12T11:28:31.332Z</time></trkpt><trkpt lat="44.7099964" lon="7.8330048"><ele>281.1428571428571</ele><time>2026-04-12T11:28:43.333Z</time></trkpt><trkpt lat="44.7100684" lon="7.8330105"><ele>280.57142857142856</ele><time>2026-04-12T11:28:51.333Z</time></trkpt><trkpt lat="44.7101371" lon="7.8330115"><ele>280.0</ele><time>2026-04-12T11:28:56.333Z</time></trkpt><trkpt lat="44.7102076" lon="7.8330518"><ele>280.42857142857144</ele><time>2026-04-12T11:32:16.333Z</time></trkpt><trkpt lat="44.7102676" lon="7.833107"><ele>280.8571428571429</ele><time>2026-04-12T11:32:36.332Z</time></trkpt><trkpt lat="44.7103331" lon="7.8331046"><ele>281.2857142857143</ele><time>2026-04-12T11:32:41.333Z</time></trkpt><trkpt lat="44.7103924" lon="7.8330595"><ele>281.7142857142857</ele><time>2026-04-12T11:32:44.332Z</time></trkpt><trkpt lat="44.7104428" lon="7.8329944"><ele>282.14285714285717</ele><time>2026-04-12T11:32:47.333Z</time></trkpt><trkpt lat="44.7104928" lon="7.8329231"><ele>282.57142857142856</ele><time>2026-04-12T11:32:51.333Z</time></trkpt><trkpt lat="44.7105437" lon="7.8328687"><ele>283.0</ele><time>2026-04-12T11:32:54.333Z</time></trkpt><trkpt lat="44.7106049" lon="7.832824"><ele>283.0</ele><time>2026-04-12T11:32:57.333Z</time></trkpt><trkpt lat="44.7106667" lon="7.8327518"><ele>283.0</ele><time>2026-04-12T11:33:00.333Z</time></trkpt><trkpt lat="44.7107227" lon="7.8326898"><ele>283.0</ele><time>2026-04-12T11:33:02.333Z</time></trkpt><trkpt lat="44.7107919" lon="7.8326292"><ele>283.0</ele><time>2026-04-12T11:33:04.333Z</time></trkpt><trkpt lat="44.7108605" lon="7.8325598"><ele>283.0</ele><time>2026-04-12T11:33:06.332Z</time></trkpt><trkpt lat="44.7109315" lon="7.832489"><ele>283.0</ele><time>2026-04-12T11:33:08.333Z</time></trkpt><trkpt lat="44.7110029" lon="7.8324003"><ele>282.3333333333333</ele><time>2026-04-12T11:33:10.333Z</time></trkpt><trkpt lat="44.7110909" lon="7.8323139"><ele>281.66666666666663</ele><time>2026-04-12T11:33:12.333Z</time></trkpt><trkpt lat="44.7111839" lon="7.8322158"><ele>281.0</ele><time>2026-04-12T11:33:14.333Z</time></trkpt><trkpt lat="44.7112355" lon="7.8321602"><ele>280.3333333333333</ele><time>2026-04-12T11:33:15.332Z</time></trkpt><trkpt lat="44.7112878" lon="7.8321073"><ele>279.6666666666667</ele><time>2026-04-12T11:33:16.333Z</time></trkpt><trkpt lat="44.711343" lon="7.8320541"><ele>279.0</ele><time>2026-04-12T11:33:17.332Z</time></trkpt><trkpt lat="44.7113966" lon="7.8319999"><ele>278.99999999999994</ele><time>2026-04-12T11:33:18.333Z</time></trkpt><trkpt lat="44.711456" lon="7.831944"><ele>279.0</ele><time>2026-04-12T11:33:19.332Z</time></trkpt><trkpt lat="44.7115102" lon="7.8318832"><ele>279.0</ele><time>2026-04-12T11:33:20.333Z</time></trkpt><trkpt lat="44.7115693" lon="7.8318244"><ele>279.0</ele><time>2026-04-12T11:33:21.333Z</time></trkpt><trkpt lat="44.7116283" lon="7.8317639"><ele>279.0</ele><time>2026-04-12T11:33:22.333Z</time></trkpt><trkpt lat="44.7116895" lon="7.8317018"><ele>278.99999999999994</ele><time>2026-04-12T11:33:23.333Z</time></trkpt><trkpt lat="44.7117552" lon="7.8316385"><ele>279.0</ele><time>2026-04-12T11:33:24.332Z</time></trkpt><trkpt lat="44.7118168" lon="7.8315773"><ele>278.3333333333333</ele><time>2026-04-12T11:33:25.332Z</time></trkpt><trkpt lat="44.7118775" lon="7.8315199"><ele>277.6666666666667</ele><time>2026-04-12T11:33:26.333Z</time></trkpt><trkpt lat="44.7119369" lon="7.8314628"><ele>277.0</ele><time>2026-04-12T11:33:27.333Z</time></trkpt><trkpt lat="44.7119943" lon="7.8314161"><ele>276.33333333333337</ele><time>2026-04-12T11:33:28.332Z</time></trkpt><trkpt lat="44.7120504" lon="7.8313689"><ele>275.6666666666667</ele><time>2026-04-12T11:33:29.333Z</time></trkpt><trkpt lat="44.7121438" lon="7.8312881"><ele>275.0</ele><time>2026-04-12T11:33:31.333Z</time></trkpt><trkpt lat="44.7122248" lon="7.8312107"><ele>275.0</ele><time>2026-04-12T11:33:33.333Z</time></trkpt><trkpt lat="44.7123083" lon="7.8311334"><ele>275.0</ele><time>2026-04-12T11:33:35.332Z</time></trkpt><trkpt lat="44.7123905" lon="7.8310531"><ele>275.0</ele><time>2026-04-12T11:33:37.333Z</time></trkpt><trkpt lat="44.7124673" lon="7.8309782"><ele>275.0</ele><time>2026-04-12T11:33:39.332Z</time></trkpt><trkpt lat="44.7125483" lon="7.8308955"><ele>275.0</ele><time>2026-04-12T11:33:41.333Z</time></trkpt><trkpt lat="44.712629" lon="7.8308099"><ele>275.0</ele><time>2026-04-12T11:33:43.332Z</time></trkpt><trkpt lat="44.7127111" lon="7.8307183"><ele>275.0</ele><time>2026-04-12T11:33:45.332Z</time></trkpt><trkpt lat="44.7128068" lon="7.8306218"><ele>275.0</ele><time>2026-04-12T11:33:47.333Z</time></trkpt><trkpt lat="44.7128964" lon="7.8305239"><ele>275.0</ele><time>2026-04-12T11:33:49.333Z</time></trkpt><trkpt lat="44.7129888" lon="7.8304244"><ele>274.8</ele><time>2026-04-12T11:33:51.333Z</time></trkpt><trkpt lat="44.7130746" lon="7.8303296"><ele>274.6</ele><time>2026-04-12T11:33:53.332Z</time></trkpt><trkpt lat="44.7131587" lon="7.8302332"><ele>274.4</ele><time>2026-04-12T11:33:55.332Z</time></trkpt><trkpt lat="44.7132486" lon="7.830142"><ele>274.2</ele><time>2026-04-12T11:33:57.333Z</time></trkpt><trkpt lat="44.7133349" lon="7.8300525"><ele>274.0</ele><time>2026-04-12T11:33:59.333Z</time></trkpt><trkpt lat="44.7134142" lon="7.8299603"><ele>273.8</ele><time>2026-04-12T11:34:01.333Z</time></trkpt><trkpt lat="44.7134956" lon="7.8298785"><ele>273.59999999999997</ele><time>2026-04-12T11:34:03.333Z</time></trkpt><trkpt lat="44.7135751" lon="7.8297913"><ele>273.4</ele><time>2026-04-12T11:34:05.332Z</time></trkpt><trkpt lat="44.7136597" lon="7.8297127"><ele>273.2</ele><time>2026-04-12T11:34:07.333Z</time></trkpt><trkpt lat="44.7137441" lon="7.8296282"><ele>273.0</ele><time>2026-04-12T11:34:09.332Z</time></trkpt><trkpt lat="44.7138286" lon="7.8295555"><ele>273.6666666666667</ele><time>2026-04-12T11:34:11.332Z</time></trkpt><trkpt lat="44.7139054" lon="7.8294854"><ele>274.3333333333333</ele><time>2026-04-12T11:34:13.333Z</time></trkpt><trkpt lat="44.7139762" lon="7.8294224"><ele>275.0</ele><time>2026-04-12T11:34:15.332Z</time></trkpt><trkpt lat="44.7140473" lon="7.8293699"><ele>275.66666666666663</ele><time>2026-04-12T11:34:17.333Z</time></trkpt><trkpt lat="44.7141129" lon="7.8293206"><ele>276.3333333333333</ele><time>2026-04-12T11:34:19.333Z</time></trkpt><trkpt lat="44.714174" lon="7.8292821"><ele>277.0</ele><time>2026-04-12T11:34:21.333Z</time></trkpt><trkpt lat="44.7142634" lon="7.8292374"><ele>277.0</ele><time>2026-04-12T11:34:24.333Z</time></trkpt><trkpt lat="44.7143274" lon="7.829221"><ele>277.0</ele><time>2026-04-12T11:34:26.333Z</time></trkpt><trkpt lat="44.7144201" lon="7.8291862"><ele>277.0</ele><time>2026-04-12T11:34:29.333Z</time></trkpt><trkpt lat="44.7144838" lon="7.8291361"><ele>277.0</ele><time>2026-04-12T11:34:31.333Z</time></trkpt><trkpt lat="44.7145501" lon="7.8290668"><ele>277.0</ele><time>2026-04-12T11:34:33.333Z</time></trkpt><trkpt lat="44.7146143" lon="7.8289871"><ele>277.0</ele><time>2026-04-12T11:34:35.332Z</time></trkpt><trkpt lat="44.7146772" lon="7.8289067"><ele>276.5</ele><time>2026-04-12T11:34:37.333Z</time></trkpt><trkpt lat="44.714738" lon="7.828823"><ele>276.0</ele><time>2026-04-12T11:34:39.333Z</time></trkpt><trkpt lat="44.7148038" lon="7.8287477"><ele>275.5</ele><time>2026-04-12T11:34:41.332Z</time></trkpt><trkpt lat="44.7148639" lon="7.8286682"><ele>275.0</ele><time>2026-04-12T11:34:43.332Z</time></trkpt><trkpt lat="44.7149275" lon="7.8285956"><ele>274.5</ele><time>2026-04-12T11:34:45.333Z</time></trkpt><trkpt lat="44.7149877" lon="7.82852"><ele>274.0</ele><time>2026-04-12T11:34:47.332Z</time></trkpt><trkpt lat="44.7150481" lon="7.828437"><ele>273.8333333333333</ele><time>2026-04-12T11:34:49.332Z</time></trkpt><trkpt lat="44.7151112" lon="7.8283563"><ele>273.66666666666663</ele><time>2026-04-12T11:34:51.333Z</time></trkpt><trkpt lat="44.7151713" lon="7.8282769"><ele>273.5</ele><time>2026-04-12T11:34:53.333Z</time></trkpt><trkpt lat="44.7152309" lon="7.8282105"><ele>273.3333333333333</ele><time>2026-04-12T11:34:55.332Z</time></trkpt><trkpt lat="44.7152885" lon="7.8281443"><ele>273.1666666666667</ele><time>2026-04-12T11:34:57.333Z</time></trkpt><trkpt lat="44.7153487" lon="7.8280768"><ele>273.0</ele><time>2026-04-12T11:34:59.333Z</time></trkpt><trkpt lat="44.7154119" lon="7.8280078"><ele>273.0</ele><time>2026-04-12T11:35:01.332Z</time></trkpt><trkpt lat="44.7154799" lon="7.8279442"><ele>273.0</ele><time>2026-04-12T11:35:03.332Z</time></trkpt><trkpt lat="44.7155516" lon="7.8278847"><ele>273.0</ele><time>2026-04-12T11:35:05.333Z</time></trkpt><trkpt lat="44.7156217" lon="7.8278187"><ele>273.0</ele><time>2026-04-12T11:35:07.333Z</time></trkpt><trkpt lat="44.7156942" lon="7.827758"><ele>273.0</ele><time>2026-04-12T11:35:09.333Z</time></trkpt><trkpt lat="44.7157656" lon="7.8276864"><ele>273.0</ele><time>2026-04-12T11:35:11.333Z</time></trkpt><trkpt lat="44.7158404" lon="7.8276117"><ele>273.1666666666667</ele><time>2026-04-12T11:35:13.332Z</time></trkpt><trkpt lat="44.7159171" lon="7.8275435"><ele>273.3333333333333</ele><time>2026-04-12T11:35:15.333Z</time></trkpt><trkpt lat="44.7159861" lon="7.8274822"><ele>273.5</ele><time>2026-04-12T11:35:17.333Z</time></trkpt><trkpt lat="44.7160477" lon="7.8274185"><ele>273.66666666666663</ele><time>2026-04-12T11:35:19.332Z</time></trkpt><trkpt lat="44.7161162" lon="7.8273541"><ele>273.8333333333333</ele><time>2026-04-12T11:35:21.332Z</time></trkpt><trkpt lat="44.7161867" lon="7.8272854"><ele>274.0</ele><time>2026-04-12T11:35:23.333Z</time></trkpt><trkpt lat="44.7162587" lon="7.8272136"><ele>274.16666666666663</ele><time>2026-04-12T11:35:25.333Z</time></trkpt><trkpt lat="44.7163307" lon="7.8271401"><ele>274.3333333333333</ele><time>2026-04-12T11:35:27.332Z</time></trkpt><trkpt lat="44.7164071" lon="7.8270674"><ele>274.5</ele><time>2026-04-12T11:35:29.332Z</time></trkpt><trkpt lat="44.7164759" lon="7.8269952"><ele>274.6666666666667</ele><time>2026-04-12T11:35:31.332Z</time></trkpt><trkpt lat="44.7165423" lon="7.8269316"><ele>274.83333333333337</ele><time>2026-04-12T11:35:33.332Z</time></trkpt><trkpt lat="44.7166053" lon="7.8268646"><ele>275.0</ele><time>2026-04-12T11:35:35.333Z</time></trkpt><trkpt lat="44.7166705" lon="7.8267986"><ele>275.0</ele><time>2026-04-12T11:35:37.332Z</time></trkpt><trkpt lat="44.7167322" lon="7.8267252"><ele>275.0</ele><time>2026-04-12T11:35:39.333Z</time></trkpt><trkpt lat="44.7167988" lon="7.8266551"><ele>275.0</ele><time>2026-04-12T11:35:41.333Z</time></trkpt><trkpt lat="44.7168624" lon="7.8265735"><ele>275.0</ele><time>2026-04-12T11:35:43.332Z</time></trkpt><trkpt lat="44.7169272" lon="7.8264917"><ele>275.0</ele><time>2026-04-12T11:35:45.332Z</time></trkpt><trkpt lat="44.7169997" lon="7.8264238"><ele>275.0</ele><time>2026-04-12T11:35:47.333Z</time></trkpt><trkpt lat="44.717068" lon="7.8263479"><ele>275.1666666666667</ele><time>2026-04-12T11:35:49.333Z</time></trkpt><trkpt lat="44.717131" lon="7.826263"><ele>275.33333333333337</ele><time>2026-04-12T11:35:51.333Z</time></trkpt><trkpt lat="44.7171963" lon="7.8261952"><ele>275.5</ele><time>2026-04-12T11:35:53.333Z</time></trkpt><trkpt lat="44.717261" lon="7.8261369"><ele>275.6666666666667</ele><time>2026-04-12T11:35:55.333Z</time></trkpt><trkpt lat="44.7173198" lon="7.8260715"><ele>275.8333333333333</ele><time>2026-04-12T11:35:57.333Z</time></trkpt><trkpt lat="44.7173828" lon="7.8260112"><ele>276.0</ele><time>2026-04-12T11:35:59.333Z</time></trkpt><trkpt lat="44.7174432" lon="7.8259553"><ele>276.0</ele><time>2026-04-12T11:36:01.333Z</time></trkpt><trkpt lat="44.7175003" lon="7.8259016"><ele>276.0</ele><time>2026-04-12T11:36:03.333Z</time></trkpt><trkpt lat="44.7175786" lon="7.8258361"><ele>276.0</ele><time>2026-04-12T11:36:06.333Z</time></trkpt><trkpt lat="44.7176464" lon="7.8257936"><ele>276.0</ele><time>2026-04-12T11:36:09.332Z</time></trkpt><trkpt lat="44.7177243" lon="7.8257582"><ele>276.0</ele><time>2026-04-12T11:36:13.332Z</time></trkpt><trkpt lat="44.7178002" lon="7.825729"><ele>276.0</ele><time>2026-04-12T11:36:16.332Z</time></trkpt><trkpt lat="44.7178625" lon="7.8256873"><ele>276.3333333333333</ele><time>2026-04-12T11:36:18.333Z</time></trkpt><trkpt lat="44.7179172" lon="7.8256219"><ele>276.6666666666667</ele><time>2026-04-12T11:36:20.332Z</time></trkpt><trkpt lat="44.7179696" lon="7.8255541"><ele>277.0</ele><time>2026-04-12T11:36:22.333Z</time></trkpt><trkpt lat="44.7180271" lon="7.8254855"><ele>277.33333333333337</ele><time>2026-04-12T11:36:24.332Z</time></trkpt><trkpt lat="44.7180906" lon="7.8254108"><ele>277.6666666666667</ele><time>2026-04-12T11:36:26.332Z</time></trkpt><trkpt lat="44.7181626" lon="7.8253341"><ele>278.0</ele><time>2026-04-12T11:36:28.333Z</time></trkpt><trkpt lat="44.718238" lon="7.8252526"><ele>278.0</ele><time>2026-04-12T11:36:30.333Z</time></trkpt><trkpt lat="44.718318" lon="7.8251673"><ele>278.0</ele><time>2026-04-12T11:36:32.332Z</time></trkpt><trkpt lat="44.7183964" lon="7.8250828"><ele>278.0</ele><time>2026-04-12T11:36:34.333Z</time></trkpt><trkpt lat="44.7184793" lon="7.8249991"><ele>278.0</ele><time>2026-04-12T11:36:36.333Z</time></trkpt><trkpt lat="44.7185577" lon="7.8249117"><ele>278.0</ele><time>2026-04-12T11:36:38.333Z</time></trkpt><trkpt lat="44.7186375" lon="7.824828"><ele>277.8</ele><time>2026-04-12T11:36:40.333Z</time></trkpt><trkpt lat="44.7187194" lon="7.8247474"><ele>277.6</ele><time>2026-04-12T11:36:42.333Z</time></trkpt><trkpt lat="44.7187967" lon="7.8246626"><ele>277.4</ele><time>2026-04-12T11:36:44.333Z</time></trkpt><trkpt lat="44.7188642" lon="7.8245817"><ele>277.2</ele><time>2026-04-12T11:36:46.332Z</time></trkpt><trkpt lat="44.7189304" lon="7.8245026"><ele>277.0</ele><time>2026-04-12T11:36:48.333Z</time></trkpt><trkpt lat="44.7189981" lon="7.8244251"><ele>277.0</ele><time>2026-04-12T11:36:50.332Z</time></trkpt><trkpt lat="44.7190666" lon="7.8243528"><ele>277.0</ele><time>2026-04-12T11:36:52.333Z</time></trkpt><trkpt lat="44.7191325" lon="7.8242781"><ele>277.0</ele><time>2026-04-12T11:36:54.333Z</time></trkpt><trkpt lat="44.7191995" lon="7.824206"><ele>277.0</ele><time>2026-04-12T11:36:56.333Z</time></trkpt><trkpt lat="44.7192665" lon="7.8241361"><ele>277.0</ele><time>2026-04-12T11:36:58.332Z</time></trkpt><trkpt lat="44.719331" lon="7.8240641"><ele>277.0</ele><time>2026-04-12T11:37:00.333Z</time></trkpt><trkpt lat="44.7193931" lon="7.8239996"><ele>277.16666666666663</ele><time>2026-04-12T11:37:02.333Z</time></trkpt><trkpt lat="44.7194454" lon="7.8239364"><ele>277.3333333333333</ele><time>2026-04-12T11:37:04.333Z</time></trkpt><trkpt lat="44.7195162" lon="7.8238578"><ele>277.5</ele><time>2026-04-12T11:37:07.333Z</time></trkpt><trkpt lat="44.7195885" lon="7.8237832"><ele>277.6666666666667</ele><time>2026-04-12T11:37:10.333Z</time></trkpt><trkpt lat="44.7196509" lon="7.8237281"><ele>277.83333333333337</ele><time>2026-04-12T11:37:12.332Z</time></trkpt><trkpt lat="44.7197095" lon="7.8236665"><ele>278.0</ele><time>2026-04-12T11:37:14.332Z</time></trkpt><trkpt lat="44.7197607" lon="7.8236078"><ele>278.0</ele><time>2026-04-12T11:37:16.332Z</time></trkpt><trkpt lat="44.7198146" lon="7.8235549"><ele>278.0</ele><time>2026-04-12T11:37:18.333Z</time></trkpt><trkpt lat="44.7198739" lon="7.8234991"><ele>278.0</ele><time>2026-04-12T11:37:20.333Z</time></trkpt><trkpt lat="44.719931" lon="7.823437"><ele>278.0</ele><time>2026-04-12T11:37:22.333Z</time></trkpt><trkpt lat="44.7199919" lon="7.8233764"><ele>278.0</ele><time>2026-04-12T11:37:24.333Z</time></trkpt><trkpt lat="44.7200536" lon="7.8233184"><ele>278.0</ele><time>2026-04-12T11:37:26.332Z</time></trkpt><trkpt lat="44.7201118" lon="7.8232662"><ele>278.0</ele><time>2026-04-12T11:37:28.333Z</time></trkpt><trkpt lat="44.7201648" lon="7.8232093"><ele>277.85714285714283</ele><time>2026-04-12T11:37:30.333Z</time></trkpt><trkpt lat="44.7202239" lon="7.8231594"><ele>277.7142857142857</ele><time>2026-04-12T11:37:32.332Z</time></trkpt><trkpt lat="44.7202792" lon="7.8230944"><ele>277.57142857142856</ele><time>2026-04-12T11:37:34.333Z</time></trkpt><trkpt lat="44.7203397" lon="7.8230356"><ele>277.42857142857144</ele><time>2026-04-12T11:37:36.333Z</time></trkpt><trkpt lat="44.7203998" lon="7.8229733"><ele>277.2857142857143</ele><time>2026-04-12T11:37:38.332Z</time></trkpt><trkpt lat="44.7204573" lon="7.8229121"><ele>277.1428571428571</ele><time>2026-04-12T11:37:40.333Z</time></trkpt><trkpt lat="44.7205191" lon="7.8228564"><ele>277.0</ele><time>2026-04-12T11:37:42.332Z</time></trkpt><trkpt lat="44.7205812" lon="7.8228017"><ele>277.0</ele><time>2026-04-12T11:37:44.332Z</time></trkpt><trkpt lat="44.7206413" lon="7.8227398"><ele>277.0</ele><time>2026-04-12T11:37:46.333Z</time></trkpt><trkpt lat="44.720708" lon="7.8226878"><ele>277.0</ele><time>2026-04-12T11:37:48.333Z</time></trkpt><trkpt lat="44.7207703" lon="7.8226316"><ele>277.0</ele><time>2026-04-12T11:37:50.333Z</time></trkpt><trkpt lat="44.7208321" lon="7.8225788"><ele>277.0</ele><time>2026-04-12T11:37:52.333Z</time></trkpt><trkpt lat="44.7208905" lon="7.8225152"><ele>277.0</ele><time>2026-04-12T11:37:54.333Z</time></trkpt><trkpt lat="44.7209472" lon="7.8224608"><ele>277.0</ele><time>2026-04-12T11:37:56.333Z</time></trkpt><trkpt lat="44.7210017" lon="7.8224137"><ele>276.7142857142857</ele><time>2026-04-12T11:37:58.333Z</time></trkpt><trkpt lat="44.7210513" lon="7.8223567"><ele>276.4285714285714</ele><time>2026-04-12T11:38:00.333Z</time></trkpt><trkpt lat="44.7211097" lon="7.8223023"><ele>276.1428571428571</ele><time>2026-04-12T11:38:02.333Z</time></trkpt><trkpt lat="44.7211714" lon="7.8222418"><ele>275.85714285714283</ele><time>2026-04-12T11:38:04.333Z</time></trkpt><trkpt lat="44.7212365" lon="7.8221837"><ele>275.57142857142856</ele><time>2026-04-12T11:38:06.332Z</time></trkpt><trkpt lat="44.7213065" lon="7.8221275"><ele>275.2857142857143</ele><time>2026-04-12T11:38:08.333Z</time></trkpt><trkpt lat="44.7213777" lon="7.8220744"><ele>275.0</ele><time>2026-04-12T11:38:10.332Z</time></trkpt><trkpt lat="44.721449" lon="7.82202"><ele>275.0</ele><time>2026-04-12T11:38:12.333Z</time></trkpt><trkpt lat="44.7215209" lon="7.8219692"><ele>275.0</ele><time>2026-04-12T11:38:14.332Z</time></trkpt><trkpt lat="44.7215903" lon="7.8219106"><ele>275.0</ele><time>2026-04-12T11:38:16.333Z</time></trkpt><trkpt lat="44.7216564" lon="7.8218483"><ele>275.0</ele><time>2026-04-12T11:38:18.332Z</time></trkpt><trkpt lat="44.7217197" lon="7.8217884"><ele>275.0</ele><time>2026-04-12T11:38:20.332Z</time></trkpt><trkpt lat="44.7217808" lon="7.8217255"><ele>275.0</ele><time>2026-04-12T11:38:22.332Z</time></trkpt><trkpt lat="44.7218414" lon="7.8216725"><ele>274.8571428571429</ele><time>2026-04-12T11:38:24.333Z</time></trkpt><trkpt lat="44.721892" lon="7.8216118"><ele>274.7142857142857</ele><time>2026-04-12T11:38:26.333Z</time></trkpt><trkpt lat="44.7219465" lon="7.821559"><ele>274.57142857142856</ele><time>2026-04-12T11:38:28.333Z</time></trkpt><trkpt lat="44.7220026" lon="7.8215021"><ele>274.42857142857144</ele><time>2026-04-12T11:38:30.333Z</time></trkpt><trkpt lat="44.7220594" lon="7.8214384"><ele>274.2857142857143</ele><time>2026-04-12T11:38:32.332Z</time></trkpt><trkpt lat="44.7221243" lon="7.8213809"><ele>274.14285714285717</ele><time>2026-04-12T11:38:34.332Z</time></trkpt><trkpt lat="44.7221819" lon="7.8213192"><ele>274.0</ele><time>2026-04-12T11:38:36.333Z</time></trkpt><trkpt lat="44.7222351" lon="7.8212612"><ele>274.00000000000006</ele><time>2026-04-12T11:38:38.332Z</time></trkpt><trkpt lat="44.72229" lon="7.8212098"><ele>274.0</ele><time>2026-04-12T11:38:40.333Z</time></trkpt><trkpt lat="44.7223431" lon="7.8211501"><ele>274.0</ele><time>2026-04-12T11:38:42.333Z</time></trkpt><trkpt lat="44.7223902" lon="7.8210865"><ele>274.0</ele><time>2026-04-12T11:38:44.333Z</time></trkpt><trkpt lat="44.7224437" lon="7.8210318"><ele>274.0</ele><time>2026-04-12T11:38:46.332Z</time></trkpt><trkpt lat="44.7224966" lon="7.8209712"><ele>274.00000000000006</ele><time>2026-04-12T11:38:48.333Z</time></trkpt><trkpt lat="44.7225456" lon="7.8209038"><ele>274.0</ele><time>2026-04-12T11:38:50.332Z</time></trkpt><trkpt lat="44.7225967" lon="7.8208377"><ele>274.0</ele><time>2026-04-12T11:38:52.332Z</time></trkpt><trkpt lat="44.722652" lon="7.820772"><ele>274.0</ele><time>2026-04-12T11:38:54.333Z</time></trkpt><trkpt lat="44.7227135" lon="7.8207045"><ele>274.0</ele><time>2026-04-12T11:38:56.333Z</time></trkpt><trkpt lat="44.7227804" lon="7.8206356"><ele>274.0</ele><time>2026-04-12T11:38:58.333Z</time></trkpt><trkpt lat="44.722847" lon="7.8205651"><ele>274.0</ele><time>2026-04-12T11:39:00.332Z</time></trkpt><trkpt lat="44.7229125" lon="7.8204924"><ele>274.0</ele><time>2026-04-12T11:39:02.333Z</time></trkpt><trkpt lat="44.7229761" lon="7.8204216"><ele>274.0</ele><time>2026-04-12T11:39:04.332Z</time></trkpt><trkpt lat="44.7230373" lon="7.8203515"><ele>274.0</ele><time>2026-04-12T11:39:06.333Z</time></trkpt><trkpt lat="44.7231004" lon="7.8202872"><ele>274.0</ele><time>2026-04-12T11:39:08.333Z</time></trkpt><trkpt lat="44.7231581" lon="7.8202114"><ele>274.0</ele><time>2026-04-12T11:39:10.332Z</time></trkpt><trkpt lat="44.7232197" lon="7.8201395"><ele>274.0</ele><time>2026-04-12T11:39:12.333Z</time></trkpt><trkpt lat="44.7232824" lon="7.8200713"><ele>274.0</ele><time>2026-04-12T11:39:14.332Z</time></trkpt><trkpt lat="44.7233518" lon="7.8199973"><ele>273.8</ele><time>2026-04-12T11:39:16.333Z</time></trkpt><trkpt lat="44.723432" lon="7.8199245"><ele>273.59999999999997</ele><time>2026-04-12T11:39:18.332Z</time></trkpt><trkpt lat="44.7235065" lon="7.8198575"><ele>273.4</ele><time>2026-04-12T11:39:20.333Z</time></trkpt><trkpt lat="44.723576" lon="7.8197774"><ele>273.2</ele><time>2026-04-12T11:39:22.333Z</time></trkpt><trkpt lat="44.7236428" lon="7.8197117"><ele>273.0</ele><time>2026-04-12T11:39:24.332Z</time></trkpt><trkpt lat="44.7237173" lon="7.8196288"><ele>273.0</ele><time>2026-04-12T11:39:27.333Z</time></trkpt><trkpt lat="44.7237723" lon="7.8195541"><ele>273.0</ele><time>2026-04-12T11:39:29.333Z</time></trkpt><trkpt lat="44.7238463" lon="7.8195027"><ele>273.0</ele><time>2026-04-12T11:39:31.333Z</time></trkpt><trkpt lat="44.7239209" lon="7.8194347"><ele>273.0</ele><time>2026-04-12T11:39:33.332Z</time></trkpt><trkpt lat="44.7239913" lon="7.8193613"><ele>273.0</ele><time>2026-04-12T11:39:35.332Z</time></trkpt><trkpt lat="44.7240585" lon="7.8192935"><ele>273.0</ele><time>2026-04-12T11:39:37.333Z</time></trkpt><trkpt lat="44.7241164" lon="7.8192241"><ele>273.0</ele><time>2026-04-12T11:39:39.333Z</time></trkpt><trkpt lat="44.7241735" lon="7.8191615"><ele>273.0</ele><time>2026-04-12T11:39:41.333Z</time></trkpt><trkpt lat="44.7242379" lon="7.8191029"><ele>273.0</ele><time>2026-04-12T11:39:43.332Z</time></trkpt><trkpt lat="44.7243049" lon="7.8190399"><ele>273.0</ele><time>2026-04-12T11:39:45.332Z</time></trkpt><trkpt lat="44.7243771" lon="7.818984"><ele>273.0</ele><time>2026-04-12T11:39:47.332Z</time></trkpt><trkpt lat="44.724443" lon="7.8189184"><ele>273.0</ele><time>2026-04-12T11:39:49.333Z</time></trkpt><trkpt lat="44.7245058" lon="7.8188508"><ele>273.0</ele><time>2026-04-12T11:39:51.333Z</time></trkpt><trkpt lat="44.7245646" lon="7.8187868"><ele>273.0</ele><time>2026-04-12T11:39:53.332Z</time></trkpt><trkpt lat="44.7246245" lon="7.8187216"><ele>273.0</ele><time>2026-04-12T11:39:55.332Z</time></trkpt><trkpt lat="44.7246882" lon="7.8186562"><ele>273.0</ele><time>2026-04-12T11:39:57.333Z</time></trkpt><trkpt lat="44.7247554" lon="7.8185964"><ele>273.0</ele><time>2026-04-12T11:39:59.332Z</time></trkpt><trkpt lat="44.7248221" lon="7.8185329"><ele>273.0</ele><time>2026-04-12T11:40:01.333Z</time></trkpt><trkpt lat="44.7248914" lon="7.8184685"><ele>272.8333333333333</ele><time>2026-04-12T11:40:03.332Z</time></trkpt><trkpt lat="44.7249608" lon="7.8184057"><ele>272.6666666666667</ele><time>2026-04-12T11:40:05.333Z</time></trkpt><trkpt lat="44.7250277" lon="7.8183362"><ele>272.5</ele><time>2026-04-12T11:40:07.332Z</time></trkpt><trkpt lat="44.7250934" lon="7.8182666"><ele>272.33333333333337</ele><time>2026-04-12T11:40:09.332Z</time></trkpt><trkpt lat="44.7251496" lon="7.8181984"><ele>272.1666666666667</ele><time>2026-04-12T11:40:11.332Z</time></trkpt><trkpt lat="44.725209" lon="7.8181586"><ele>272.0</ele><time>2026-04-12T11:40:13.333Z</time></trkpt><trkpt lat="44.7252634" lon="7.8181136"><ele>272.5</ele><time>2026-04-12T11:40:15.332Z</time></trkpt><trkpt lat="44.7253405" lon="7.8180531"><ele>273.0</ele><time>2026-04-12T11:40:18.333Z</time></trkpt><trkpt lat="44.7254236" lon="7.8180356"><ele>273.5</ele><time>2026-04-12T11:40:21.333Z</time></trkpt><trkpt lat="44.7254909" lon="7.8179554"><ele>274.0</ele><time>2026-04-12T11:40:24.333Z</time></trkpt><trkpt lat="44.725563" lon="7.8178789"><ele>274.5</ele><time>2026-04-12T11:40:27.332Z</time></trkpt><trkpt lat="44.7256377" lon="7.8178024"><ele>275.0</ele><time>2026-04-12T11:40:30.333Z</time></trkpt><trkpt lat="44.7257069" lon="7.8177193"><ele>275.0</ele><time>2026-04-12T11:40:33.332Z</time></trkpt><trkpt lat="44.7257898" lon="7.8177021"><ele>275.0</ele><time>2026-04-12T11:40:36.333Z</time></trkpt><trkpt lat="44.7258481" lon="7.8178062"><ele>275.0</ele><time>2026-04-12T11:40:39.333Z</time></trkpt><trkpt lat="44.7258901" lon="7.8178797"><ele>275.0</ele><time>2026-04-12T11:40:41.332Z</time></trkpt><trkpt lat="44.7259321" lon="7.8179554"><ele>275.0</ele><time>2026-04-12T11:40:43.333Z</time></trkpt><trkpt lat="44.7259734" lon="7.8180321"><ele>275.0</ele><time>2026-04-12T11:40:45.333Z</time></trkpt><trkpt lat="44.7260165" lon="7.8181065"><ele>275.0</ele><time>2026-04-12T11:40:47.332Z</time></trkpt><trkpt lat="44.726059" lon="7.8181793"><ele>275.0</ele><time>2026-04-12T11:40:49.333Z</time></trkpt><trkpt lat="44.7260975" lon="7.8182559"><ele>275.0</ele><time>2026-04-12T11:40:51.332Z</time></trkpt><trkpt lat="44.7261376" lon="7.8183268"><ele>275.0</ele><time>2026-04-12T11:40:53.333Z</time></trkpt><trkpt lat="44.7261947" lon="7.8184315"><ele>275.0</ele><time>2026-04-12T11:40:56.333Z</time></trkpt><trkpt lat="44.7262473" lon="7.8185358"><ele>275.0</ele><time>2026-04-12T11:40:59.332Z</time></trkpt><trkpt lat="44.7263039" lon="7.8186356"><ele>275.2857142857143</ele><time>2026-04-12T11:41:02.333Z</time></trkpt><trkpt lat="44.7263675" lon="7.8187347"><ele>275.57142857142856</ele><time>2026-04-12T11:41:05.332Z</time></trkpt><trkpt lat="44.72641" lon="7.8188033"><ele>275.85714285714283</ele><time>2026-04-12T11:41:07.333Z</time></trkpt><trkpt lat="44.7264486" lon="7.8188751"><ele>276.1428571428571</ele><time>2026-04-12T11:41:09.332Z</time></trkpt><trkpt lat="44.7264899" lon="7.8189447"><ele>276.4285714285714</ele><time>2026-04-12T11:41:11.333Z</time></trkpt><trkpt lat="44.726552" lon="7.8190368"><ele>276.7142857142857</ele><time>2026-04-12T11:41:14.333Z</time></trkpt><trkpt lat="44.7265981" lon="7.8191013"><ele>277.0</ele><time>2026-04-12T11:41:18.333Z</time></trkpt><trkpt lat="44.7266404" lon="7.8191846"><ele>277.0</ele><time>2026-04-12T11:41:42.333Z</time></trkpt><trkpt lat="44.7266958" lon="7.8192608"><ele>277.0</ele><time>2026-04-12T11:41:45.332Z</time></trkpt><trkpt lat="44.7267492" lon="7.8193509"><ele>277.0</ele><time>2026-04-12T11:41:48.332Z</time></trkpt><trkpt lat="44.7267949" lon="7.8194343"><ele>277.0</ele><time>2026-04-12T11:41:51.333Z</time></trkpt><trkpt lat="44.7268396" lon="7.8195045"><ele>277.0</ele><time>2026-04-12T11:41:54.333Z</time></trkpt><trkpt lat="44.7268893" lon="7.819571"><ele>277.0</ele><time>2026-04-12T11:41:57.332Z</time></trkpt><trkpt lat="44.7269362" lon="7.8196654"><ele>277.7142857142857</ele><time>2026-04-12T11:42:01.333Z</time></trkpt><trkpt lat="44.7269739" lon="7.8197404"><ele>278.4285714285714</ele><time>2026-04-12T11:42:04.332Z</time></trkpt><trkpt lat="44.7270092" lon="7.8198179"><ele>279.1428571428571</ele><time>2026-04-12T11:42:07.333Z</time></trkpt><trkpt lat="44.7270555" lon="7.8199151"><ele>279.85714285714283</ele><time>2026-04-12T11:42:11.332Z</time></trkpt><trkpt lat="44.7270884" lon="7.8200091"><ele>280.57142857142856</ele><time>2026-04-12T11:42:15.333Z</time></trkpt><trkpt lat="44.7271335" lon="7.8201066"><ele>281.2857142857143</ele><time>2026-04-12T11:42:19.333Z</time></trkpt><trkpt lat="44.7271813" lon="7.8201742"><ele>282.0</ele><time>2026-04-12T11:42:22.333Z</time></trkpt><trkpt lat="44.7272332" lon="7.8202533"><ele>282.0</ele><time>2026-04-12T11:42:26.333Z</time></trkpt><trkpt lat="44.7272963" lon="7.820269"><ele>282.0</ele><time>2026-04-12T11:42:30.333Z</time></trkpt><trkpt lat="44.7273465" lon="7.8202073"><ele>282.0</ele><time>2026-04-12T11:45:45.333Z</time></trkpt><trkpt lat="44.7274124" lon="7.8201319"><ele>282.0</ele><time>2026-04-12T11:45:49.332Z</time></trkpt><trkpt lat="44.7274847" lon="7.8200933"><ele>282.0</ele><time>2026-04-12T11:45:52.332Z</time></trkpt><trkpt lat="44.7275504" lon="7.8200516"><ele>282.0</ele><time>2026-04-12T11:45:55.332Z</time></trkpt><trkpt lat="44.7276045" lon="7.8200004"><ele>282.0</ele><time>2026-04-12T11:45:58.333Z</time></trkpt><trkpt lat="44.7276636" lon="7.8199537"><ele>282.0</ele><time>2026-04-12T11:46:01.333Z</time></trkpt><trkpt lat="44.7277252" lon="7.8199137"><ele>282.0</ele><time>2026-04-12T11:46:04.333Z</time></trkpt><trkpt lat="44.727786" lon="7.8198815"><ele>282.0</ele><time>2026-04-12T11:46:07.333Z</time></trkpt><trkpt lat="44.7278458" lon="7.8198526"><ele>282.0</ele><time>2026-04-12T11:46:10.333Z</time></trkpt><trkpt lat="44.7279293" lon="7.8198541"><ele>282.0</ele><time>2026-04-12T11:46:14.333Z</time></trkpt><trkpt lat="44.7280106" lon="7.8198704"><ele>282.0</ele><time>2026-04-12T11:46:18.333Z</time></trkpt><trkpt lat="44.7280793" lon="7.8198888"><ele>282.0</ele><time>2026-04-12T11:46:22.333Z</time></trkpt><trkpt lat="44.7281481" lon="7.8199003"><ele>283.57142857142856</ele><time>2026-04-12T11:46:26.333Z</time></trkpt><trkpt lat="44.7282107" lon="7.8199156"><ele>285.1428571428571</ele><time>2026-04-12T11:46:30.333Z</time></trkpt><trkpt lat="44.7282827" lon="7.8199287"><ele>286.71428571428567</ele><time>2026-04-12T11:46:35.333Z</time></trkpt><trkpt lat="44.7283508" lon="7.8199463"><ele>288.2857142857143</ele><time>2026-04-12T11:46:40.332Z</time></trkpt><trkpt lat="44.7284168" lon="7.8199659"><ele>289.85714285714283</ele><time>2026-04-12T11:46:45.333Z</time></trkpt><trkpt lat="44.7284867" lon="7.819988"><ele>291.4285714285714</ele><time>2026-04-12T11:46:51.332Z</time></trkpt><trkpt lat="44.7285548" lon="7.8200069"><ele>293.0</ele><time>2026-04-12T11:46:57.333Z</time></trkpt><trkpt lat="44.728622" lon="7.8200276"><ele>293.99999999999994</ele><time>2026-04-12T11:47:03.333Z</time></trkpt><trkpt lat="44.7286919" lon="7.8200472"><ele>295.0</ele><time>2026-04-12T11:47:09.333Z</time></trkpt><trkpt lat="44.7287571" lon="7.8200596"><ele>296.0</ele><time>2026-04-12T11:47:14.333Z</time></trkpt><trkpt lat="44.7288283" lon="7.8200948"><ele>297.0</ele><time>2026-04-12T11:47:20.333Z</time></trkpt><trkpt lat="44.7289018" lon="7.8201084"><ele>298.0</ele><time>2026-04-12T11:47:26.333Z</time></trkpt><trkpt lat="44.728961" lon="7.8201434"><ele>298.99999999999994</ele><time>2026-04-12T11:47:31.332Z</time></trkpt><trkpt lat="44.7290248" lon="7.8201859"><ele>300.0</ele><time>2026-04-12T11:47:36.333Z</time></trkpt><trkpt lat="44.7290515" lon="7.8202737"><ele>302.57142857142856</ele><time>2026-04-12T11:47:41.332Z</time></trkpt><trkpt lat="44.7290301" lon="7.8203689"><ele>305.1428571428571</ele><time>2026-04-12T11:47:46.333Z</time></trkpt><trkpt lat="44.7289892" lon="7.8204486"><ele>307.71428571428567</ele><time>2026-04-12T11:47:51.333Z</time></trkpt><trkpt lat="44.7289504" lon="7.8205307"><ele>310.2857142857143</ele><time>2026-04-12T11:47:56.333Z</time></trkpt><trkpt lat="44.7289136" lon="7.8206171"><ele>312.8571428571429</ele><time>2026-04-12T11:48:01.333Z</time></trkpt><trkpt lat="44.7288694" lon="7.820696"><ele>315.4285714285714</ele><time>2026-04-12T11:48:06.333Z</time></trkpt><trkpt lat="44.7288496" lon="7.8207926"><ele>318.0</ele><time>2026-04-12T11:48:13.333Z</time></trkpt><trkpt lat="44.728839" lon="7.8208843"><ele>318.0</ele><time>2026-04-12T11:48:20.332Z</time></trkpt><trkpt lat="44.7288008" lon="7.8209626"><ele>318.0</ele><time>2026-04-12T11:48:26.333Z</time></trkpt><trkpt lat="44.7288513" lon="7.8208827"><ele>318.0</ele><time>2026-04-12T11:48:38.333Z</time></trkpt><trkpt lat="44.7288813" lon="7.8208005"><ele>318.0</ele><time>2026-04-12T11:48:44.332Z</time></trkpt><trkpt lat="44.7288398" lon="7.8208712"><ele>318.0</ele><time>2026-04-12T11:49:53.333Z</time></trkpt><trkpt lat="44.7288056" lon="7.8209458"><ele>318.0</ele><time>2026-04-12T11:49:59.333Z</time></trkpt><trkpt lat="44.7287658" lon="7.8210169"><ele>318.0</ele><time>2026-04-12T11:50:05.332Z</time></trkpt><trkpt lat="44.7287159" lon="7.8210851"><ele>317.7142857142857</ele><time>2026-04-12T11:50:11.333Z</time></trkpt><trkpt lat="44.7286635" lon="7.8211441"><ele>317.42857142857144</ele><time>2026-04-12T11:50:17.332Z</time></trkpt><trkpt lat="44.7286037" lon="7.8212069"><ele>317.14285714285717</ele><time>2026-04-12T11:50:23.332Z</time></trkpt><trkpt lat="44.728549" lon="7.8212695"><ele>316.8571428571429</ele><time>2026-04-12T11:50:29.332Z</time></trkpt><trkpt lat="44.7284928" lon="7.8213182"><ele>316.57142857142856</ele><time>2026-04-12T11:50:35.333Z</time></trkpt><trkpt lat="44.7284212" lon="7.82136"><ele>316.28571428571433</ele><time>2026-04-12T11:50:41.333Z</time></trkpt><trkpt lat="44.7283582" lon="7.821384"><ele>316.0</ele><time>2026-04-12T11:50:47.333Z</time></trkpt><trkpt lat="44.7282898" lon="7.8213893"><ele>316.00000000000006</ele><time>2026-04-12T11:50:53.333Z</time></trkpt><trkpt lat="44.7282171" lon="7.8213967"><ele>316.0</ele><time>2026-04-12T11:50:57.332Z</time></trkpt><trkpt lat="44.7281538" lon="7.8213889"><ele>316.0</ele><time>2026-04-12T11:51:01.333Z</time></trkpt><trkpt lat="44.7280739" lon="7.8214098"><ele>316.0</ele><time>2026-04-12T11:51:05.333Z</time></trkpt><trkpt lat="44.7280085" lon="7.8214198"><ele>316.0</ele><time>2026-04-12T11:51:09.332Z</time></trkpt><trkpt lat="44.727939" lon="7.8214157"><ele>316.00000000000006</ele><time>2026-04-12T11:51:13.333Z</time></trkpt><trkpt lat="44.7278752" lon="7.8214328"><ele>316.0</ele><time>2026-04-12T11:51:16.333Z</time></trkpt><trkpt lat="44.7277994" lon="7.8214809"><ele>316.00000000000006</ele><time>2026-04-12T11:51:20.332Z</time></trkpt><trkpt lat="44.7277449" lon="7.8215536"><ele>316.0</ele><time>2026-04-12T11:51:23.332Z</time></trkpt><trkpt lat="44.7276916" lon="7.8216336"><ele>316.0</ele><time>2026-04-12T11:51:27.333Z</time></trkpt><trkpt lat="44.7276418" lon="7.8217153"><ele>316.0</ele><time>2026-04-12T11:51:31.333Z</time></trkpt><trkpt lat="44.7276737" lon="7.8217966"><ele>316.0</ele><time>2026-04-12T11:51:38.333Z</time></trkpt><trkpt lat="44.7277248" lon="7.8218554"><ele>316.00000000000006</ele><time>2026-04-12T11:51:42.333Z</time></trkpt><trkpt lat="44.7277878" lon="7.8218372"><ele>316.0</ele><time>2026-04-12T11:51:47.333Z</time></trkpt><trkpt lat="44.7278284" lon="7.821916"><ele>316.5714285714286</ele><time>2026-04-12T11:51:53.333Z</time></trkpt><trkpt lat="44.7278825" lon="7.8219797"><ele>317.14285714285717</ele><time>2026-04-12T11:51:59.332Z</time></trkpt><trkpt lat="44.7279226" lon="7.8220992"><ele>317.7142857142857</ele><time>2026-04-12T11:53:58.332Z</time></trkpt><trkpt lat="44.7278566" lon="7.8220891"><ele>318.28571428571433</ele><time>2026-04-12T11:54:07.333Z</time></trkpt><trkpt lat="44.7278081" lon="7.8221615"><ele>318.8571428571429</ele><time>2026-04-12T11:54:14.332Z</time></trkpt><trkpt lat="44.727743" lon="7.8221938"><ele>319.42857142857144</ele><time>2026-04-12T11:54:21.332Z</time></trkpt><trkpt lat="44.7276778" lon="7.8222043"><ele>320.0</ele><time>2026-04-12T11:54:34.333Z</time></trkpt><trkpt lat="44.7277356" lon="7.8221638"><ele>320.0</ele><time>2026-04-12T11:55:48.333Z</time></trkpt><trkpt lat="44.7278027" lon="7.8221327"><ele>320.0</ele><time>2026-04-12T11:55:57.332Z</time></trkpt><trkpt lat="44.7278084" lon="7.822042"><ele>320.0</ele><time>2026-04-12T11:56:09.333Z</time></trkpt><trkpt lat="44.7277949" lon="7.8221351"><ele>320.0</ele><time>2026-04-12T11:56:34.333Z</time></trkpt><trkpt lat="44.7277372" lon="7.822191"><ele>320.0</ele><time>2026-04-12T11:56:40.332Z</time></trkpt><trkpt lat="44.7276745" lon="7.8222095"><ele>320.0</ele><time>2026-04-12T11:56:46.333Z</time></trkpt><trkpt lat="44.7277426" lon="7.8221965"><ele>320.0</ele><time>2026-04-12T11:56:54.332Z</time></trkpt><trkpt lat="44.7277976" lon="7.8221387"><ele>319.42857142857144</ele><time>2026-04-12T11:57:01.332Z</time></trkpt><trkpt lat="44.727844" lon="7.8220704"><ele>318.8571428571429</ele><time>2026-04-12T11:57:08.333Z</time></trkpt><trkpt lat="44.7278796" lon="7.8219872"><ele>318.28571428571433</ele><time>2026-04-12T11:57:16.333Z</time></trkpt><trkpt lat="44.7279389" lon="7.8219534"><ele>317.7142857142857</ele><time>2026-04-12T11:57:24.333Z</time></trkpt><trkpt lat="44.7279618" lon="7.8218687"><ele>317.14285714285717</ele><time>2026-04-12T11:58:20.333Z</time></trkpt><trkpt lat="44.7279074" lon="7.821806"><ele>316.5714285714286</ele><time>2026-04-12T12:02:19.332Z</time></trkpt><trkpt lat="44.7278526" lon="7.8217518"><ele>316.0</ele><time>2026-04-12T12:02:25.333Z</time></trkpt><trkpt lat="44.727826" lon="7.8216645"><ele>316.0</ele><time>2026-04-12T12:02:33.333Z</time></trkpt></trkseg></trk></gpx>